<?xml version='1.0' encoding='UTF-8'?><gpx version="1.1" creator="JPX - https://github.com/jenetics/jpx" xmlns="http://www.topografix.com/GPX/1/1"><trk><trkseg><trkpt lat="45.51333881794213" lon="9.242914971691475"><ele>135.0</ele><time>2026-05-02T07:29:07.999Z</time></trkpt><trkpt lat="45.513358095519045" lon="9.243005600971372"><ele>135.0</ele><time>2026-05-02T07:29:08.999Z</time></trkpt><trkpt lat="45.51337805156954" lon="9.243092242802572"><ele>135.0</ele><time>2026-05-02T07:29:09.999Z</time></trkpt><trkpt lat="45.513409247496504" lon="9.243250860043053"><ele>135.0</ele><time>2026-05-02T07:29:11.999Z</time></trkpt><trkpt lat="45.513431315235636" lon="9.243376333232321"><ele>135.0</ele><time>2026-05-02T07:29:13.999Z</time></trkpt><trkpt lat="45.51346122170088" lon="9.243489509472388"><ele>135.0</ele><time>2026-05-02T07:29:15.999Z</time></trkpt><trkpt lat="45.51353219219645" lon="9.243526313315083"><ele>135.0</ele><time>2026-05-02T07:29:17.999Z</time></trkpt><trkpt lat="45.51363159123754" lon="9.243474491654935"><ele>135.0</ele><time>2026-05-02T07:29:19.999Z</time></trkpt><trkpt lat="45.5136930515782" lon="9.243445426034603"><ele>135.0</ele><time>2026-05-02T07:29:20.999Z</time></trkpt><trkpt lat="45.51377529262136" lon="9.243388699540063"><ele>135.0</ele><time>2026-05-02T07:29:22.999Z</time></trkpt><trkpt lat="45.513818596764885" lon="9.243297764408139"><ele>135.0</ele><time>2026-05-02T07:29:26.999Z</time></trkpt><trkpt lat="45.51378932000129" lon="9.243155916326213"><ele>135.0</ele><time>2026-05-02T07:29:28.999Z</time></trkpt><trkpt lat="45.513755054521575" lon="9.243038977584696"><ele>135.0</ele><time>2026-05-02T07:29:29.999Z</time></trkpt><trkpt lat="45.51372500613794" lon="9.242927129211099"><ele>135.0</ele><time>2026-05-02T07:29:30.999Z</time></trkpt><trkpt lat="45.513702498621946" lon="9.242791586480656"><ele>135.0</ele><time>2026-05-02T07:29:31.999Z</time></trkpt><trkpt lat="45.51368442649183" lon="9.242652315376153"><ele>135.0</ele><time>2026-05-02T07:29:32.999Z</time></trkpt><trkpt lat="45.51366529444244" lon="9.242515031212925"><ele>135.0</ele><time>2026-05-02T07:29:33.999Z</time></trkpt><trkpt lat="45.51365111857914" lon="9.242393837301712"><ele>135.2</ele><time>2026-05-02T07:29:34.999Z</time></trkpt><trkpt lat="45.5136341446286" lon="9.24229127143328"><ele>135.4</ele><time>2026-05-02T07:29:35.999Z</time></trkpt><trkpt lat="45.513601802983594" lon="9.24213659114513"><ele>135.6</ele><time>2026-05-02T07:29:37.999Z</time></trkpt><trkpt lat="45.51363466673196" lon="9.242042430235578"><ele>135.8</ele><time>2026-05-02T07:29:40.999Z</time></trkpt><trkpt lat="45.513767644484695" lon="9.241991922961564"><ele>136.0</ele><time>2026-05-02T07:29:42.999Z</time></trkpt><trkpt lat="45.51384706682745" lon="9.241965018378972"><ele>136.0</ele><time>2026-05-02T07:29:43.999Z</time></trkpt><trkpt lat="45.51393114578298" lon="9.241929342865056"><ele>136.0</ele><time>2026-05-02T07:29:44.999Z</time></trkpt><trkpt lat="45.51401335495706" lon="9.241885058196617"><ele>136.0</ele><time>2026-05-02T07:29:45.999Z</time></trkpt><trkpt lat="45.51409758606329" lon="9.241845077313577"><ele>136.0</ele><time>2026-05-02T07:29:46.999Z</time></trkpt><trkpt lat="45.514187693351374" lon="9.241809338881161"><ele>136.0</ele><time>2026-05-02T07:29:47.999Z</time></trkpt><trkpt lat="45.514287718462384" lon="9.241767799556667"><ele>136.0</ele><time>2026-05-02T07:29:48.999Z</time></trkpt><trkpt lat="45.51437761665725" lon="9.241719815022659"><ele>136.0</ele><time>2026-05-02T07:29:49.999Z</time></trkpt><trkpt lat="45.514462160645834" lon="9.241683949602518"><ele>136.0</ele><time>2026-05-02T07:29:50.999Z</time></trkpt><trkpt lat="45.51452313771354" lon="9.241650131814419"><ele>136.0</ele><time>2026-05-02T07:29:51.999Z</time></trkpt><trkpt lat="45.51459028267232" lon="9.24160916550487"><ele>136.0</ele><time>2026-05-02T07:29:52.999Z</time></trkpt><trkpt lat="45.51465629451076" lon="9.241575053574728"><ele>136.0</ele><time>2026-05-02T07:29:53.999Z</time></trkpt><trkpt lat="45.51490216523384" lon="9.241903304009716"><ele>135.6</ele><time>2026-05-02T07:29:58.999Z</time></trkpt><trkpt lat="45.51493752343459" lon="9.242058698806895"><ele>135.2</ele><time>2026-05-02T07:29:59.999Z</time></trkpt><trkpt lat="45.51496603419464" lon="9.24222717095189"><ele>134.8</ele><time>2026-05-02T07:30:00.999Z</time></trkpt><trkpt lat="45.51499569189918" lon="9.242379650431257"><ele>134.4</ele><time>2026-05-02T07:30:01.999Z</time></trkpt><trkpt lat="45.51502112822338" lon="9.242515154415377"><ele>134.0</ele><time>2026-05-02T07:30:02.999Z</time></trkpt><trkpt lat="45.51504975721436" lon="9.24263982002406"><ele>134.0</ele><time>2026-05-02T07:30:03.999Z</time></trkpt><trkpt lat="45.515080425382116" lon="9.24276744637162"><ele>134.0</ele><time>2026-05-02T07:30:04.999Z</time></trkpt><trkpt lat="45.51511270990231" lon="9.24290667470113"><ele>134.0</ele><time>2026-05-02T07:30:05.999Z</time></trkpt><trkpt lat="45.515147706767955" lon="9.243057474773217"><ele>134.0</ele><time>2026-05-02T07:30:06.999Z</time></trkpt><trkpt lat="45.51517883382294" lon="9.243215504664548"><ele>134.0</ele><time>2026-05-02T07:30:07.999Z</time></trkpt><trkpt lat="45.51520882542573" lon="9.243360720927809"><ele>134.16666666666666</ele><time>2026-05-02T07:30:08.999Z</time></trkpt><trkpt lat="45.51523895854399" lon="9.243500521579817"><ele>134.33333333333331</ele><time>2026-05-02T07:30:09.999Z</time></trkpt><trkpt lat="45.515263649685934" lon="9.243624655511535"><ele>134.5</ele><time>2026-05-02T07:30:10.999Z</time></trkpt><trkpt lat="45.51528732412483" lon="9.243730347468508"><ele>134.66666666666666</ele><time>2026-05-02T07:30:11.999Z</time></trkpt><trkpt lat="45.5153086880408" lon="9.243829926495366"><ele>134.83333333333334</ele><time>2026-05-02T07:30:12.999Z</time></trkpt><trkpt lat="45.515331679044635" lon="9.243930536948966"><ele>135.0</ele><time>2026-05-02T07:30:13.999Z</time></trkpt><trkpt lat="45.515354043904225" lon="9.244025622459732"><ele>135.0</ele><time>2026-05-02T07:30:14.999Z</time></trkpt><trkpt lat="45.51537335215559" lon="9.244117458868002"><ele>135.0</ele><time>2026-05-02T07:30:15.999Z</time></trkpt><trkpt lat="45.515389264823014" lon="9.244207001920094"><ele>135.0</ele><time>2026-05-02T07:30:16.999Z</time></trkpt><trkpt lat="45.51542622930551" lon="9.24437110715734"><ele>135.0</ele><time>2026-05-02T07:30:18.999Z</time></trkpt><trkpt lat="45.51546455352685" lon="9.244531004305761"><ele>135.0</ele><time>2026-05-02T07:30:20.999Z</time></trkpt><trkpt lat="45.515499058997435" lon="9.24467975765729"><ele>135.66666666666666</ele><time>2026-05-02T07:30:22.999Z</time></trkpt><trkpt lat="45.51552369903134" lon="9.24476873303156"><ele>136.33333333333334</ele><time>2026-05-02T07:30:26.999Z</time></trkpt><trkpt lat="45.51560307043263" lon="9.244807728751905"><ele>137.0</ele><time>2026-05-02T07:30:43.999Z</time></trkpt><trkpt lat="45.515673234408524" lon="9.244777169747366"><ele>137.66666666666669</ele><time>2026-05-02T07:30:44.999Z</time></trkpt><trkpt lat="45.515746489005146" lon="9.24472991531584"><ele>138.33333333333334</ele><time>2026-05-02T07:30:45.999Z</time></trkpt><trkpt lat="45.51582408671873" lon="9.24468353133492"><ele>139.0</ele><time>2026-05-02T07:30:46.999Z</time></trkpt><trkpt lat="45.51590857798824" lon="9.244625561503304"><ele>139.2</ele><time>2026-05-02T07:30:47.999Z</time></trkpt><trkpt lat="45.51599999870807" lon="9.244562569919784"><ele>139.4</ele><time>2026-05-02T07:30:48.999Z</time></trkpt><trkpt lat="45.51609643015804" lon="9.244497855258311"><ele>139.6</ele><time>2026-05-02T07:30:49.999Z</time></trkpt><trkpt lat="45.516187397525464" lon="9.244435781580965"><ele>139.8</ele><time>2026-05-02T07:30:50.999Z</time></trkpt><trkpt lat="45.51627928682786" lon="9.244382859263066"><ele>140.0</ele><time>2026-05-02T07:30:51.999Z</time></trkpt><trkpt lat="45.51638135126291" lon="9.244372428897217"><ele>138.8</ele><time>2026-05-02T07:30:52.999Z</time></trkpt><trkpt lat="45.51646296270856" lon="9.24433000442051"><ele>137.6</ele><time>2026-05-02T07:30:53.999Z</time></trkpt><trkpt lat="45.51654411260763" lon="9.244287819869072"><ele>136.4</ele><time>2026-05-02T07:30:54.999Z</time></trkpt><trkpt lat="45.5166261633757" lon="9.244245167017166"><ele>135.2</ele><time>2026-05-02T07:30:55.999Z</time></trkpt><trkpt lat="45.51671640810064" lon="9.244197904699632"><ele>134.0</ele><time>2026-05-02T07:30:56.999Z</time></trkpt><trkpt lat="45.516811574992225" lon="9.244148319556276"><ele>134.0</ele><time>2026-05-02T07:30:57.999Z</time></trkpt><trkpt lat="45.516917069998314" lon="9.244093501384652"><ele>134.0</ele><time>2026-05-02T07:30:58.999Z</time></trkpt><trkpt lat="45.517024336360464" lon="9.244037339264937"><ele>134.0</ele><time>2026-05-02T07:30:59.999Z</time></trkpt><trkpt lat="45.51713137277531" lon="9.243981353961436"><ele>134.0</ele><time>2026-05-02T07:31:00.999Z</time></trkpt><trkpt lat="45.517229565135764" lon="9.243929525167154"><ele>134.0</ele><time>2026-05-02T07:31:01.999Z</time></trkpt><trkpt lat="45.51732848500972" lon="9.243853142051988"><ele>134.2</ele><time>2026-05-02T07:31:02.999Z</time></trkpt><trkpt lat="45.51743510979118" lon="9.243823285515969"><ele>134.4</ele><time>2026-05-02T07:31:03.999Z</time></trkpt><trkpt lat="45.51753213062602" lon="9.243773525039325"><ele>134.6</ele><time>2026-05-02T07:31:04.999Z</time></trkpt><trkpt lat="45.51762849736328" lon="9.24368787968755"><ele>134.8</ele><time>2026-05-02T07:31:05.999Z</time></trkpt><trkpt lat="45.517730741673574" lon="9.243635648130356"><ele>135.0</ele><time>2026-05-02T07:31:06.999Z</time></trkpt><trkpt lat="45.517829330630406" lon="9.243590285830825"><ele>135.4</ele><time>2026-05-02T07:31:07.999Z</time></trkpt><trkpt lat="45.51792246723086" lon="9.243545408957559"><ele>135.8</ele><time>2026-05-02T07:31:08.999Z</time></trkpt><trkpt lat="45.5180091195281" lon="9.243495149540179"><ele>136.2</ele><time>2026-05-02T07:31:09.999Z</time></trkpt><trkpt lat="45.51809787514111" lon="9.2434465052708"><ele>136.6</ele><time>2026-05-02T07:31:10.999Z</time></trkpt><trkpt lat="45.518207550523094" lon="9.24344032385162"><ele>137.0</ele><time>2026-05-02T07:31:11.999Z</time></trkpt><trkpt lat="45.518320792241965" lon="9.243381160238329"><ele>137.0</ele><time>2026-05-02T07:31:12.999Z</time></trkpt><trkpt lat="45.51845981115744" lon="9.243308930085728"><ele>137.0</ele><time>2026-05-02T07:31:13.999Z</time></trkpt><trkpt lat="45.518572780688" lon="9.243241188244838"><ele>137.0</ele><time>2026-05-02T07:31:14.999Z</time></trkpt><trkpt lat="45.51867842171946" lon="9.243181956366524"><ele>137.0</ele><time>2026-05-02T07:31:15.999Z</time></trkpt><trkpt lat="45.518782175704885" lon="9.243123204746743"><ele>137.6</ele><time>2026-05-02T07:31:16.999Z</time></trkpt><trkpt lat="45.518893030840836" lon="9.243087713923842"><ele>138.2</ele><time>2026-05-02T07:31:17.999Z</time></trkpt><trkpt lat="45.518988778582326" lon="9.243041160594945"><ele>138.8</ele><time>2026-05-02T07:31:18.999Z</time></trkpt><trkpt lat="45.51906892069517" lon="9.243006314829572"><ele>139.4</ele><time>2026-05-02T07:31:19.999Z</time></trkpt><trkpt lat="45.51913633947829" lon="9.242979175932524"><ele>140.0</ele><time>2026-05-02T07:31:20.999Z</time></trkpt><trkpt lat="45.519242605512204" lon="9.242932809812983"><ele>140.0</ele><time>2026-05-02T07:31:22.999Z</time></trkpt><trkpt lat="45.519346988791796" lon="9.242871096512074"><ele>140.0</ele><time>2026-05-02T07:31:24.999Z</time></trkpt><trkpt lat="45.519414394928724" lon="9.242834201863735"><ele>140.0</ele><time>2026-05-02T07:31:25.999Z</time></trkpt><trkpt lat="45.51948828415867" lon="9.242789547885547"><ele>140.0</ele><time>2026-05-02T07:31:26.999Z</time></trkpt><trkpt lat="45.51957322729542" lon="9.24273908037506"><ele>140.0</ele><time>2026-05-02T07:31:27.999Z</time></trkpt><trkpt lat="45.519671009644796" lon="9.242727550643616"><ele>139.8</ele><time>2026-05-02T07:31:28.999Z</time></trkpt><trkpt lat="45.519759087427744" lon="9.242687643505073"><ele>139.6</ele><time>2026-05-02T07:31:29.999Z</time></trkpt><trkpt lat="45.51985439629747" lon="9.242625254831623"><ele>139.4</ele><time>2026-05-02T07:31:30.999Z</time></trkpt><trkpt lat="45.519949246018875" lon="9.242566310366604"><ele>139.2</ele><time>2026-05-02T07:31:31.999Z</time></trkpt><trkpt lat="45.520060888527595" lon="9.242527561738116"><ele>139.0</ele><time>2026-05-02T07:31:32.999Z</time></trkpt><trkpt lat="45.52016088312739" lon="9.242476179116606"><ele>139.0</ele><time>2026-05-02T07:31:33.999Z</time></trkpt><trkpt lat="45.52026585058562" lon="9.242414240206463"><ele>139.0</ele><time>2026-05-02T07:31:34.999Z</time></trkpt><trkpt lat="45.52037240518434" lon="9.242349126369735"><ele>139.0</ele><time>2026-05-02T07:31:35.999Z</time></trkpt><trkpt lat="45.520477226097526" lon="9.24228248719091"><ele>139.0</ele><time>2026-05-02T07:31:36.999Z</time></trkpt><trkpt lat="45.520582823615115" lon="9.242221884654743"><ele>138.25</ele><time>2026-05-02T07:31:37.999Z</time></trkpt><trkpt lat="45.520691943409226" lon="9.24216698879566"><ele>137.5</ele><time>2026-05-02T07:31:38.999Z</time></trkpt><trkpt lat="45.52079315530609" lon="9.242106735882533"><ele>136.75</ele><time>2026-05-02T07:31:39.999Z</time></trkpt><trkpt lat="45.5209000169923" lon="9.24203446034923"><ele>136.0</ele><time>2026-05-02T07:31:40.999Z</time></trkpt><trkpt lat="45.521007470133675" lon="9.241968313279152"><ele>136.0</ele><time>2026-05-02T07:31:41.999Z</time></trkpt><trkpt lat="45.52112077165861" lon="9.241904887601345"><ele>136.0</ele><time>2026-05-02T07:31:42.999Z</time></trkpt><trkpt lat="45.5212446443706" lon="9.241838894646266"><ele>136.0</ele><time>2026-05-02T07:31:43.999Z</time></trkpt><trkpt lat="45.5213615761445" lon="9.2417826779183"><ele>136.0</ele><time>2026-05-02T07:31:44.999Z</time></trkpt><trkpt lat="45.5214886881368" lon="9.241718576681105"><ele>136.0</ele><time>2026-05-02T07:31:45.999Z</time></trkpt><trkpt lat="45.52159931733889" lon="9.241649893004636"><ele>136.0</ele><time>2026-05-02T07:31:46.999Z</time></trkpt><trkpt lat="45.52173075056887" lon="9.241625281600546"><ele>136.0</ele><time>2026-05-02T07:31:47.999Z</time></trkpt><trkpt lat="45.521836639963375" lon="9.241568807575746"><ele>136.0</ele><time>2026-05-02T07:31:48.999Z</time></trkpt><trkpt lat="45.52193462586612" lon="9.241515025176689"><ele>136.0</ele><time>2026-05-02T07:31:49.999Z</time></trkpt><trkpt lat="45.522034800915236" lon="9.241461775486579"><ele>136.0</ele><time>2026-05-02T07:31:50.999Z</time></trkpt><trkpt lat="45.52214159574199" lon="9.241408540660823"><ele>136.0</ele><time>2026-05-02T07:31:51.999Z</time></trkpt><trkpt lat="45.52224453896553" lon="9.241358139384086"><ele>136.0</ele><time>2026-05-02T07:31:52.999Z</time></trkpt><trkpt lat="45.522352497047464" lon="9.241303036815141"><ele>136.0</ele><time>2026-05-02T07:31:53.999Z</time></trkpt><trkpt lat="45.52246722108874" lon="9.241252900803136"><ele>136.16666666666669</ele><time>2026-05-02T07:31:54.999Z</time></trkpt><trkpt lat="45.52257365245995" lon="9.241216087538096"><ele>136.33333333333334</ele><time>2026-05-02T07:31:55.999Z</time></trkpt><trkpt lat="45.522664237545705" lon="9.241169512472558"><ele>136.5</ele><time>2026-05-02T07:31:56.999Z</time></trkpt><trkpt lat="45.52275386925922" lon="9.241145194650269"><ele>136.66666666666666</ele><time>2026-05-02T07:31:57.999Z</time></trkpt><trkpt lat="45.52283031474625" lon="9.241132509450361"><ele>136.83333333333331</ele><time>2026-05-02T07:31:58.999Z</time></trkpt><trkpt lat="45.52289496883063" lon="9.241112480530807"><ele>137.0</ele><time>2026-05-02T07:31:59.999Z</time></trkpt><trkpt lat="45.52296715509958" lon="9.24112051371416"><ele>137.0</ele><time>2026-05-02T07:32:00.999Z</time></trkpt><trkpt lat="45.52303078145592" lon="9.241106922553408"><ele>137.0</ele><time>2026-05-02T07:32:01.999Z</time></trkpt><trkpt lat="45.5231268339274" lon="9.241086406419983"><ele>137.0</ele><time>2026-05-02T07:32:03.999Z</time></trkpt><trkpt lat="45.523203137067554" lon="9.241078496901242"><ele>137.0</ele><time>2026-05-02T07:32:05.999Z</time></trkpt><trkpt lat="45.523304741705836" lon="9.241071859787072"><ele>137.0</ele><time>2026-05-02T07:32:07.999Z</time></trkpt><trkpt lat="45.523416667441246" lon="9.241069855450643"><ele>137.0</ele><time>2026-05-02T07:32:09.999Z</time></trkpt><trkpt lat="45.523484160554915" lon="9.241068556561222"><ele>137.0</ele><time>2026-05-02T07:32:10.999Z</time></trkpt><trkpt lat="45.52355004222713" lon="9.241073922413783"><ele>137.0</ele><time>2026-05-02T07:32:11.999Z</time></trkpt><trkpt lat="45.523617542863555" lon="9.241066614422545"><ele>137.0</ele><time>2026-05-02T07:32:12.999Z</time></trkpt><trkpt lat="45.52372587139532" lon="9.241057398415338"><ele>137.0</ele><time>2026-05-02T07:32:14.999Z</time></trkpt><trkpt lat="45.5238178145147" lon="9.241051563075661"><ele>137.0</ele><time>2026-05-02T07:32:16.999Z</time></trkpt><trkpt lat="45.52390110592694" lon="9.241073107666155"><ele>137.0</ele><time>2026-05-02T07:32:18.999Z</time></trkpt><trkpt lat="45.523969397164" lon="9.241067645557322"><ele>137.0</ele><time>2026-05-02T07:32:20.999Z</time></trkpt><trkpt lat="45.52403722684579" lon="9.241050116938075"><ele>137.0</ele><time>2026-05-02T07:32:23.999Z</time></trkpt><trkpt lat="45.52414812111364" lon="9.241052056748845"><ele>137.0</ele><time>2026-05-02T07:32:50.999Z</time></trkpt><trkpt lat="45.524254358175575" lon="9.24104932029191"><ele>137.0</ele><time>2026-05-02T07:32:52.999Z</time></trkpt><trkpt lat="45.52432745682837" lon="9.241047993616034"><ele>137.0</ele><time>2026-05-02T07:32:53.999Z</time></trkpt><trkpt lat="45.52441616303816" lon="9.241046399723809"><ele>137.0</ele><time>2026-05-02T07:32:54.999Z</time></trkpt><trkpt lat="45.52451048821991" lon="9.241044026437303"><ele>137.0</ele><time>2026-05-02T07:32:55.999Z</time></trkpt><trkpt lat="45.52461300609833" lon="9.241040324143388"><ele>137.0</ele><time>2026-05-02T07:32:56.999Z</time></trkpt><trkpt lat="45.52472297259891" lon="9.241036324464268"><ele>137.0</ele><time>2026-05-02T07:32:57.999Z</time></trkpt><trkpt lat="45.52483554145403" lon="9.240955184758374"><ele>137.0</ele><time>2026-05-02T07:32:58.999Z</time></trkpt><trkpt lat="45.52494295025675" lon="9.240954071812952"><ele>137.25</ele><time>2026-05-02T07:32:59.999Z</time></trkpt><trkpt lat="45.52505571570604" lon="9.240950850005929"><ele>137.5</ele><time>2026-05-02T07:33:00.999Z</time></trkpt><trkpt lat="45.525170259952255" lon="9.240938186828615"><ele>137.75</ele><time>2026-05-02T07:33:01.999Z</time></trkpt><trkpt lat="45.52529148659369" lon="9.24101621570135"><ele>138.0</ele><time>2026-05-02T07:33:02.999Z</time></trkpt><trkpt lat="45.525412148406396" lon="9.241012857002799"><ele>139.0</ele><time>2026-05-02T07:33:03.999Z</time></trkpt><trkpt lat="45.525532424763206" lon="9.241009509033413"><ele>140.0</ele><time>2026-05-02T07:33:04.999Z</time></trkpt><trkpt lat="45.525668624495594" lon="9.241005717826514"><ele>141.0</ele><time>2026-05-02T07:33:05.999Z</time></trkpt><trkpt lat="45.52580287081195" lon="9.240934534911"><ele>142.0</ele><time>2026-05-02T07:33:06.999Z</time></trkpt><trkpt lat="45.525944497720225" lon="9.24098441908661"><ele>142.0</ele><time>2026-05-02T07:33:07.999Z</time></trkpt><trkpt lat="45.526085431346026" lon="9.240968431963756"><ele>142.0</ele><time>2026-05-02T07:33:08.999Z</time></trkpt><trkpt lat="45.52620834924583" lon="9.24095659738636"><ele>142.0</ele><time>2026-05-02T07:33:09.999Z</time></trkpt><trkpt lat="45.52633915757149" lon="9.240986364384199"><ele>142.0</ele><time>2026-05-02T07:33:10.999Z</time></trkpt><trkpt lat="45.52648059527041" lon="9.240981682636267"><ele>141.0</ele><time>2026-05-02T07:33:11.999Z</time></trkpt><trkpt lat="45.52661770368816" lon="9.240974161974924"><ele>140.0</ele><time>2026-05-02T07:33:12.999Z</time></trkpt><trkpt lat="45.52675701283472" lon="9.240966875703252"><ele>139.0</ele><time>2026-05-02T07:33:13.999Z</time></trkpt><trkpt lat="45.526890526294736" lon="9.240959287216214"><ele>138.0</ele><time>2026-05-02T07:33:14.999Z</time></trkpt><trkpt lat="45.527016635206884" lon="9.240950929665555"><ele>138.25</ele><time>2026-05-02T07:33:15.999Z</time></trkpt><trkpt lat="45.52714627457935" lon="9.24093426335805"><ele>138.5</ele><time>2026-05-02T07:33:16.999Z</time></trkpt><trkpt lat="45.52727247624762" lon="9.240949685316338"><ele>138.75</ele><time>2026-05-02T07:33:17.999Z</time></trkpt><trkpt lat="45.527398956005506" lon="9.240943828483953"><ele>139.0</ele><time>2026-05-02T07:33:18.999Z</time></trkpt><trkpt lat="45.52752574659262" lon="9.240938898172818"><ele>139.0</ele><time>2026-05-02T07:33:19.999Z</time></trkpt><trkpt lat="45.52764111435647" lon="9.240930529899384"><ele>139.0</ele><time>2026-05-02T07:33:20.999Z</time></trkpt><trkpt lat="45.527741144461814" lon="9.240924839660455"><ele>139.0</ele><time>2026-05-02T07:33:21.999Z</time></trkpt><trkpt lat="45.52783387126503" lon="9.240918184983816"><ele>139.0</ele><time>2026-05-02T07:33:22.999Z</time></trkpt><trkpt lat="45.527919080363354" lon="9.240914744806547"><ele>139.0</ele><time>2026-05-02T07:33:23.999Z</time></trkpt><trkpt lat="45.52799999777901" lon="9.24091333794398"><ele>138.8</ele><time>2026-05-02T07:33:24.998Z</time></trkpt><trkpt lat="45.528087905808285" lon="9.240917263759872"><ele>138.60000000000002</ele><time>2026-05-02T07:33:25.998Z</time></trkpt><trkpt lat="45.52818626618851" lon="9.240962703545131"><ele>138.4</ele><time>2026-05-02T07:33:26.998Z</time></trkpt><trkpt lat="45.52829910377613" lon="9.240905852578189"><ele>138.20000000000002</ele><time>2026-05-02T07:33:27.998Z</time></trkpt><trkpt lat="45.52841973627644" lon="9.240883557921153"><ele>138.0</ele><time>2026-05-02T07:33:28.998Z</time></trkpt><trkpt lat="45.528531759819224" lon="9.240874339742156"><ele>138.0</ele><time>2026-05-02T07:33:29.998Z</time></trkpt><trkpt lat="45.52863051602345" lon="9.240860407980684"><ele>138.0</ele><time>2026-05-02T07:33:30.998Z</time></trkpt><trkpt lat="45.52871816269407" lon="9.240858090767855"><ele>138.0</ele><time>2026-05-02T07:33:31.998Z</time></trkpt><trkpt lat="45.528795501177946" lon="9.240874313390538"><ele>138.0</ele><time>2026-05-02T07:33:32.998Z</time></trkpt><trkpt lat="45.528856233054306" lon="9.24092624272296"><ele>138.0</ele><time>2026-05-02T07:33:33.998Z</time></trkpt><trkpt lat="45.528922850293284" lon="9.240936882193813"><ele>138.0</ele><time>2026-05-02T07:33:34.998Z</time></trkpt><trkpt lat="45.52896449010458" lon="9.241109039922787"><ele>138.20000000000002</ele><time>2026-05-02T07:33:35.998Z</time></trkpt><trkpt lat="45.52906444684442" lon="9.241166059306174"><ele>138.4</ele><time>2026-05-02T07:33:36.998Z</time></trkpt><trkpt lat="45.52918409068659" lon="9.241172458095347"><ele>138.60000000000002</ele><time>2026-05-02T07:33:37.998Z</time></trkpt><trkpt lat="45.52929701325469" lon="9.241178796981817"><ele>138.8</ele><time>2026-05-02T07:33:38.998Z</time></trkpt><trkpt lat="45.52939268298576" lon="9.241183363423023"><ele>139.0</ele><time>2026-05-02T07:33:39.998Z</time></trkpt><trkpt lat="45.52948385601169" lon="9.241194458029522"><ele>139.4</ele><time>2026-05-02T07:33:40.998Z</time></trkpt><trkpt lat="45.52956605909356" lon="9.241209376871762"><ele>139.8</ele><time>2026-05-02T07:33:41.998Z</time></trkpt><trkpt lat="45.52963335301741" lon="9.241221091227924"><ele>140.2</ele><time>2026-05-02T07:33:42.998Z</time></trkpt><trkpt lat="45.52975848186143" lon="9.241277118507998"><ele>140.6</ele><time>2026-05-02T07:33:44.998Z</time></trkpt><trkpt lat="45.52982447932463" lon="9.241424232484997"><ele>141.0</ele><time>2026-05-02T07:33:45.998Z</time></trkpt><trkpt lat="45.529887944968316" lon="9.241550668573526"><ele>141.0</ele><time>2026-05-02T07:33:46.998Z</time></trkpt><trkpt lat="45.529961543939336" lon="9.241692829520703"><ele>141.0</ele><time>2026-05-02T07:33:47.998Z</time></trkpt><trkpt lat="45.53004053521758" lon="9.241848261209292"><ele>141.0</ele><time>2026-05-02T07:33:48.998Z</time></trkpt><trkpt lat="45.53012421183395" lon="9.242006926615394"><ele>141.0</ele><time>2026-05-02T07:33:49.998Z</time></trkpt><trkpt lat="45.53021031062168" lon="9.242161043422598"><ele>141.0</ele><time>2026-05-02T07:33:50.998Z</time></trkpt><trkpt lat="45.53029252075588" lon="9.242321764222876"><ele>141.0</ele><time>2026-05-02T07:33:51.998Z</time></trkpt><trkpt lat="45.53038080474873" lon="9.24248033274275"><ele>141.0</ele><time>2026-05-02T07:33:52.998Z</time></trkpt><trkpt lat="45.530471340494586" lon="9.24263648212311"><ele>141.0</ele><time>2026-05-02T07:33:53.998Z</time></trkpt><trkpt lat="45.530558317511705" lon="9.24279863539241"><ele>141.0</ele><time>2026-05-02T07:33:54.998Z</time></trkpt><trkpt lat="45.53065021933113" lon="9.242960542243324"><ele>141.0</ele><time>2026-05-02T07:33:55.998Z</time></trkpt><trkpt lat="45.5307404803071" lon="9.243121176986522"><ele>141.0</ele><time>2026-05-02T07:33:56.998Z</time></trkpt><trkpt lat="45.530829398873735" lon="9.243289857998345"><ele>141.0</ele><time>2026-05-02T07:33:57.998Z</time></trkpt><trkpt lat="45.530913298327675" lon="9.243448890191441"><ele>140.75</ele><time>2026-05-02T07:33:58.998Z</time></trkpt><trkpt lat="45.53100006207904" lon="9.243600750430486"><ele>140.5</ele><time>2026-05-02T07:33:59.998Z</time></trkpt><trkpt lat="45.53108354928584" lon="9.243749732314203"><ele>140.25</ele><time>2026-05-02T07:34:00.998Z</time></trkpt><trkpt lat="45.53116749134292" lon="9.243900059064957"><ele>140.0</ele><time>2026-05-02T07:34:01.998Z</time></trkpt><trkpt lat="45.53125535714887" lon="9.244058276799528"><ele>139.75</ele><time>2026-05-02T07:34:02.998Z</time></trkpt><trkpt lat="45.53133514415952" lon="9.244212657890213"><ele>139.5</ele><time>2026-05-02T07:34:03.998Z</time></trkpt><trkpt lat="45.53141865920821" lon="9.244361483056721"><ele>139.25</ele><time>2026-05-02T07:34:04.998Z</time></trkpt><trkpt lat="45.53150453046576" lon="9.244499592152234"><ele>139.0</ele><time>2026-05-02T07:34:05.998Z</time></trkpt><trkpt lat="45.531581485013746" lon="9.244648222822104"><ele>139.0</ele><time>2026-05-02T07:34:06.998Z</time></trkpt><trkpt lat="45.531658745714786" lon="9.244791307281533"><ele>139.0</ele><time>2026-05-02T07:34:07.998Z</time></trkpt><trkpt lat="45.531726593862615" lon="9.244907068550585"><ele>139.0</ele><time>2026-05-02T07:34:08.998Z</time></trkpt><trkpt lat="45.53178493469344" lon="9.24500275026702"><ele>139.0</ele><time>2026-05-02T07:34:09.998Z</time></trkpt><trkpt lat="45.53182798661886" lon="9.245080759948275"><ele>139.0</ele><time>2026-05-02T07:34:10.998Z</time></trkpt><trkpt lat="45.531888569840795" lon="9.245181780438058"><ele>139.0</ele><time>2026-05-02T07:34:12.998Z</time></trkpt><trkpt lat="45.5319353192387" lon="9.245272844974583"><ele>139.0</ele><time>2026-05-02T07:34:24.998Z</time></trkpt><trkpt lat="45.531999191387825" lon="9.245421723010557"><ele>139.0</ele><time>2026-05-02T07:34:26.998Z</time></trkpt><trkpt lat="45.53204075932906" lon="9.24552346223114"><ele>139.0</ele><time>2026-05-02T07:34:27.998Z</time></trkpt><trkpt lat="45.53209659462699" lon="9.245631988001334"><ele>139.0</ele><time>2026-05-02T07:34:28.998Z</time></trkpt><trkpt lat="45.53215229171508" lon="9.245747213957356"><ele>139.4</ele><time>2026-05-02T07:34:29.998Z</time></trkpt><trkpt lat="45.53221604404552" lon="9.24586896328355"><ele>139.8</ele><time>2026-05-02T07:34:30.998Z</time></trkpt><trkpt lat="45.532283262953314" lon="9.245988027906277"><ele>140.2</ele><time>2026-05-02T07:34:31.998Z</time></trkpt><trkpt lat="45.53235323360762" lon="9.246115046944023"><ele>140.6</ele><time>2026-05-02T07:34:32.998Z</time></trkpt><trkpt lat="45.53241212926214" lon="9.246246991792267"><ele>141.0</ele><time>2026-05-02T07:34:33.998Z</time></trkpt><trkpt lat="45.5324876361407" lon="9.246369367082698"><ele>140.8</ele><time>2026-05-02T07:34:34.998Z</time></trkpt><trkpt lat="45.532555522919004" lon="9.246490650360156"><ele>140.6</ele><time>2026-05-02T07:34:35.998Z</time></trkpt><trkpt lat="45.53262566364632" lon="9.246613653820587"><ele>140.4</ele><time>2026-05-02T07:34:36.998Z</time></trkpt><trkpt lat="45.53268688164314" lon="9.246739217982238"><ele>140.2</ele><time>2026-05-02T07:34:37.998Z</time></trkpt><trkpt lat="45.53275694937516" lon="9.246854173525227"><ele>140.0</ele><time>2026-05-02T07:34:38.998Z</time></trkpt><trkpt lat="45.532821888537946" lon="9.246965457585562"><ele>140.0</ele><time>2026-05-02T07:34:39.998Z</time></trkpt><trkpt lat="45.53287814601115" lon="9.247066670063532"><ele>140.0</ele><time>2026-05-02T07:34:40.998Z</time></trkpt><trkpt lat="45.53293143409125" lon="9.247151720251946"><ele>140.0</ele><time>2026-05-02T07:34:41.998Z</time></trkpt><trkpt lat="45.532981689693784" lon="9.247227214166244"><ele>140.0</ele><time>2026-05-02T07:34:42.998Z</time></trkpt><trkpt lat="45.533003837861955" lon="9.247312156274312"><ele>140.0</ele><time>2026-05-02T07:34:43.998Z</time></trkpt><trkpt lat="45.533066181588005" lon="9.24741782228023"><ele>140.0</ele><time>2026-05-02T07:34:45.998Z</time></trkpt><trkpt lat="45.53311768571548" lon="9.247472653696233"><ele>140.0</ele><time>2026-05-02T07:34:47.998Z</time></trkpt><trkpt lat="45.53316492421082" lon="9.247573546382288"><ele>140.0</ele><time>2026-05-02T07:35:45.998Z</time></trkpt><trkpt lat="45.533225296666515" lon="9.24766139280732"><ele>140.0</ele><time>2026-05-02T07:35:47.998Z</time></trkpt><trkpt lat="45.5333752229807" lon="9.247536475778743"><ele>140.0</ele><time>2026-05-02T07:35:48.998Z</time></trkpt><trkpt lat="45.53344161944566" lon="9.247470514095642"><ele>140.0</ele><time>2026-05-02T07:35:49.998Z</time></trkpt><trkpt lat="45.533504215613576" lon="9.24737160455902"><ele>140.25</ele><time>2026-05-02T07:35:50.998Z</time></trkpt><trkpt lat="45.53356486018388" lon="9.247254499841679"><ele>140.5</ele><time>2026-05-02T07:35:51.998Z</time></trkpt><trkpt lat="45.533627230345395" lon="9.247124571162125"><ele>140.75</ele><time>2026-05-02T07:35:52.998Z</time></trkpt><trkpt lat="45.533691630050605" lon="9.24698533931788"><ele>141.0</ele><time>2026-05-02T07:35:53.998Z</time></trkpt><trkpt lat="45.53376333534155" lon="9.246846748270617"><ele>141.0</ele><time>2026-05-02T07:35:54.998Z</time></trkpt><trkpt lat="45.53383462284397" lon="9.246693732138388"><ele>141.0</ele><time>2026-05-02T07:35:55.998Z</time></trkpt><trkpt lat="45.533911861253145" lon="9.246534911830864"><ele>141.0</ele><time>2026-05-02T07:35:56.998Z</time></trkpt><trkpt lat="45.533991064464374" lon="9.246381581242353"><ele>141.0</ele><time>2026-05-02T07:35:57.998Z</time></trkpt><trkpt lat="45.53406997328673" lon="9.246221510215689"><ele>141.25</ele><time>2026-05-02T07:35:58.998Z</time></trkpt><trkpt lat="45.53415148770022" lon="9.246055445565313"><ele>141.5</ele><time>2026-05-02T07:35:59.998Z</time></trkpt><trkpt lat="45.53423422152127" lon="9.245886080977733"><ele>141.75</ele><time>2026-05-02T07:36:00.998Z</time></trkpt><trkpt lat="45.534319248026" lon="9.24572381786454"><ele>142.0</ele><time>2026-05-02T07:36:01.998Z</time></trkpt><trkpt lat="45.534404255877334" lon="9.245550020230628"><ele>142.0</ele><time>2026-05-02T07:36:02.998Z</time></trkpt><trkpt lat="45.53448609348682" lon="9.245376636993702"><ele>142.0</ele><time>2026-05-02T07:36:03.998Z</time></trkpt><trkpt lat="45.53456387785764" lon="9.245209449413082"><ele>142.0</ele><time>2026-05-02T07:36:04.998Z</time></trkpt><trkpt lat="45.53463693710595" lon="9.245057744153968"><ele>142.0</ele><time>2026-05-02T07:36:05.998Z</time></trkpt><trkpt lat="45.53470426385077" lon="9.24491280428739"><ele>142.0</ele><time>2026-05-02T07:36:06.998Z</time></trkpt><trkpt lat="45.534775782951506" lon="9.244773595391493"><ele>142.0</ele><time>2026-05-02T07:36:07.998Z</time></trkpt><trkpt lat="45.534843878274046" lon="9.244642430985195"><ele>142.0</ele><time>2026-05-02T07:36:08.998Z</time></trkpt><trkpt lat="45.534906311407155" lon="9.244512200522864"><ele>142.0</ele><time>2026-05-02T07:36:09.998Z</time></trkpt><trkpt lat="45.53496056434975" lon="9.244394149195342"><ele>142.0</ele><time>2026-05-02T07:36:10.998Z</time></trkpt><trkpt lat="45.535014308066735" lon="9.24428548215109"><ele>142.0</ele><time>2026-05-02T07:36:11.998Z</time></trkpt><trkpt lat="45.53506568256722" lon="9.244191490948909"><ele>142.0</ele><time>2026-05-02T07:36:12.998Z</time></trkpt><trkpt lat="45.53512153638263" lon="9.244118155113641"><ele>142.0</ele><time>2026-05-02T07:36:13.998Z</time></trkpt><trkpt lat="45.53517724618043" lon="9.244064463901925"><ele>142.0</ele><time>2026-05-02T07:36:14.998Z</time></trkpt><trkpt lat="45.53529337302983" lon="9.244043022119229"><ele>142.0</ele><time>2026-05-02T07:36:16.998Z</time></trkpt><trkpt lat="45.53535953949005" lon="9.244053667653139"><ele>142.0</ele><time>2026-05-02T07:36:17.998Z</time></trkpt><trkpt lat="45.53543021366278" lon="9.244085115995405"><ele>142.0</ele><time>2026-05-02T07:36:18.998Z</time></trkpt><trkpt lat="45.535498322719725" lon="9.24414971791113"><ele>142.0</ele><time>2026-05-02T07:36:19.998Z</time></trkpt><trkpt lat="45.535581076902496" lon="9.244223042110812"><ele>142.0</ele><time>2026-05-02T07:36:20.998Z</time></trkpt><trkpt lat="45.53567621299266" lon="9.24431531514072"><ele>142.0</ele><time>2026-05-02T07:36:21.998Z</time></trkpt><trkpt lat="45.535785338201165" lon="9.244429116040465"><ele>142.0</ele><time>2026-05-02T07:36:22.998Z</time></trkpt><trkpt lat="45.53589586195569" lon="9.244546300680877"><ele>142.0</ele><time>2026-05-02T07:36:23.998Z</time></trkpt><trkpt lat="45.53600287968581" lon="9.244664249198767"><ele>142.0</ele><time>2026-05-02T07:36:24.998Z</time></trkpt><trkpt lat="45.5361101367091" lon="9.244769114561388"><ele>142.0</ele><time>2026-05-02T07:36:25.998Z</time></trkpt><trkpt lat="45.536211505372805" lon="9.24486571430881"><ele>142.0</ele><time>2026-05-02T07:36:26.998Z</time></trkpt><trkpt lat="45.53630233650646" lon="9.244957162011605"><ele>142.2</ele><time>2026-05-02T07:36:27.998Z</time></trkpt><trkpt lat="45.536369620879015" lon="9.245060780125923"><ele>142.39999999999998</ele><time>2026-05-02T07:36:28.998Z</time></trkpt><trkpt lat="45.53645791391192" lon="9.245144675156617"><ele>142.60000000000002</ele><time>2026-05-02T07:36:29.998Z</time></trkpt><trkpt lat="45.53654349421543" lon="9.245230491743902"><ele>142.8</ele><time>2026-05-02T07:36:30.998Z</time></trkpt><trkpt lat="45.536617277316196" lon="9.24531285986154"><ele>143.0</ele><time>2026-05-02T07:36:31.998Z</time></trkpt><trkpt lat="45.53667858828194" lon="9.245384473291928"><ele>143.0</ele><time>2026-05-02T07:36:32.998Z</time></trkpt><trkpt lat="45.5367723019709" lon="9.245472414494165"><ele>143.0</ele><time>2026-05-02T07:36:34.998Z</time></trkpt><trkpt lat="45.536826492338086" lon="9.245538713896073"><ele>143.0</ele><time>2026-05-02T07:36:36.998Z</time></trkpt><trkpt lat="45.53694868585328" lon="9.245647223700892"><ele>143.0</ele><time>2026-05-02T07:37:57.997Z</time></trkpt><trkpt lat="45.537020462828444" lon="9.245702143162502"><ele>143.0</ele><time>2026-05-02T07:38:01.997Z</time></trkpt><trkpt lat="45.537125099328634" lon="9.245520125739633"><ele>143.6</ele><time>2026-05-02T07:38:02.997Z</time></trkpt><trkpt lat="45.53717857149052" lon="9.245438855773232"><ele>144.20000000000002</ele><time>2026-05-02T07:38:03.997Z</time></trkpt><trkpt lat="45.53723721786375" lon="9.245340799332588"><ele>144.8</ele><time>2026-05-02T07:38:04.997Z</time></trkpt><trkpt lat="45.537301501133946" lon="9.245233895041041"><ele>145.4</ele><time>2026-05-02T07:38:05.997Z</time></trkpt><trkpt lat="45.537371037903284" lon="9.245102781680867"><ele>146.0</ele><time>2026-05-02T07:38:06.997Z</time></trkpt><trkpt lat="45.53744374958502" lon="9.244973507451533"><ele>146.0</ele><time>2026-05-02T07:38:07.997Z</time></trkpt><trkpt lat="45.53752927661368" lon="9.244829967843865"><ele>146.0</ele><time>2026-05-02T07:38:08.997Z</time></trkpt><trkpt lat="45.53761054326926" lon="9.24468938148509"><ele>146.0</ele><time>2026-05-02T07:38:09.997Z</time></trkpt><trkpt lat="45.53769130486401" lon="9.244545290616053"><ele>146.0</ele><time>2026-05-02T07:38:10.997Z</time></trkpt><trkpt lat="45.5377672558215" lon="9.244395752981493"><ele>145.75</ele><time>2026-05-02T07:38:11.997Z</time></trkpt><trkpt lat="45.53784332796507" lon="9.244242387492854"><ele>145.5</ele><time>2026-05-02T07:38:12.997Z</time></trkpt><trkpt lat="45.53791850767746" lon="9.244088396673115"><ele>145.25</ele><time>2026-05-02T07:38:13.997Z</time></trkpt><trkpt lat="45.537990728778276" lon="9.243939240414036"><ele>145.0</ele><time>2026-05-02T07:38:14.997Z</time></trkpt><trkpt lat="45.538068686116134" lon="9.243799056362738"><ele>144.75</ele><time>2026-05-02T07:38:15.997Z</time></trkpt><trkpt lat="45.53813966586328" lon="9.243655581655064"><ele>144.5</ele><time>2026-05-02T07:38:16.997Z</time></trkpt><trkpt lat="45.53820975894028" lon="9.243504063303908"><ele>144.25</ele><time>2026-05-02T07:38:17.997Z</time></trkpt><trkpt lat="45.538280886695844" lon="9.243354127868812"><ele>144.0</ele><time>2026-05-02T07:38:18.997Z</time></trkpt><trkpt lat="45.53835530449051" lon="9.243207337655011"><ele>143.75</ele><time>2026-05-02T07:38:19.997Z</time></trkpt><trkpt lat="45.5384396176206" lon="9.243062714568252"><ele>143.5</ele><time>2026-05-02T07:38:20.997Z</time></trkpt><trkpt lat="45.538519510638594" lon="9.242918774811729"><ele>143.25</ele><time>2026-05-02T07:38:21.997Z</time></trkpt><trkpt lat="45.53859238636632" lon="9.242780233078657"><ele>143.0</ele><time>2026-05-02T07:38:22.997Z</time></trkpt><trkpt lat="45.53865918772542" lon="9.2426547976808"><ele>143.0</ele><time>2026-05-02T07:38:23.997Z</time></trkpt><trkpt lat="45.538698194568354" lon="9.242513850613705"><ele>143.0</ele><time>2026-05-02T07:38:24.997Z</time></trkpt><trkpt lat="45.53876819938452" lon="9.242392799492933"><ele>143.0</ele><time>2026-05-02T07:38:25.997Z</time></trkpt><trkpt lat="45.53883883636256" lon="9.242255807416965"><ele>143.0</ele><time>2026-05-02T07:38:26.997Z</time></trkpt><trkpt lat="45.538900334693764" lon="9.242105611545462"><ele>143.5</ele><time>2026-05-02T07:38:27.997Z</time></trkpt><trkpt lat="45.53897200331339" lon="9.241944837063443"><ele>144.0</ele><time>2026-05-02T07:38:28.997Z</time></trkpt><trkpt lat="45.5390524288278" lon="9.241787821345904"><ele>144.5</ele><time>2026-05-02T07:38:29.997Z</time></trkpt><trkpt lat="45.539135261916684" lon="9.241626105285889"><ele>145.0</ele><time>2026-05-02T07:38:30.997Z</time></trkpt><trkpt lat="45.53921914293748" lon="9.241462343233689"><ele>145.0</ele><time>2026-05-02T07:38:31.997Z</time></trkpt><trkpt lat="45.53929463459894" lon="9.241314959703622"><ele>145.0</ele><time>2026-05-02T07:38:32.997Z</time></trkpt><trkpt lat="45.53937387385567" lon="9.241179768669106"><ele>145.0</ele><time>2026-05-02T07:38:33.997Z</time></trkpt><trkpt lat="45.539435103711924" lon="9.241033119707183"><ele>145.0</ele><time>2026-05-02T07:38:34.997Z</time></trkpt><trkpt lat="45.53950050787709" lon="9.240897332258497"><ele>145.0</ele><time>2026-05-02T07:38:35.997Z</time></trkpt><trkpt lat="45.53956378753494" lon="9.24077351930121"><ele>145.0</ele><time>2026-05-02T07:38:36.997Z</time></trkpt><trkpt lat="45.539632796422765" lon="9.240639027427124"><ele>145.0</ele><time>2026-05-02T07:38:37.997Z</time></trkpt><trkpt lat="45.53969678652108" lon="9.240509129378053"><ele>145.0</ele><time>2026-05-02T07:38:38.997Z</time></trkpt><trkpt lat="45.53975316285266" lon="9.240399205121959"><ele>145.0</ele><time>2026-05-02T07:38:39.997Z</time></trkpt><trkpt lat="45.539802623946855" lon="9.240290183105847"><ele>145.0</ele><time>2026-05-02T07:38:40.997Z</time></trkpt><trkpt lat="45.53985472161359" lon="9.240202149576817"><ele>145.0</ele><time>2026-05-02T07:38:41.997Z</time></trkpt><trkpt lat="45.539897168543064" lon="9.240130179156328"><ele>145.0</ele><time>2026-05-02T07:38:42.997Z</time></trkpt><trkpt lat="45.53992281778454" lon="9.239977878384158"><ele>145.0</ele><time>2026-05-02T07:38:44.997Z</time></trkpt><trkpt lat="45.53985838124756" lon="9.239830178236966"><ele>145.0</ele><time>2026-05-02T07:38:46.997Z</time></trkpt><trkpt lat="45.539783770862904" lon="9.239772326944712"><ele>144.8</ele><time>2026-05-02T07:38:47.997Z</time></trkpt><trkpt lat="45.539704576160325" lon="9.239717902077642"><ele>144.6</ele><time>2026-05-02T07:38:48.997Z</time></trkpt><trkpt lat="45.539630817401125" lon="9.239648248910648"><ele>144.4</ele><time>2026-05-02T07:38:49.997Z</time></trkpt><trkpt lat="45.53956435105693" lon="9.239563051204735"><ele>144.2</ele><time>2026-05-02T07:38:50.997Z</time></trkpt><trkpt lat="45.53948641787284" lon="9.239477869213175"><ele>144.0</ele><time>2026-05-02T07:38:51.997Z</time></trkpt><trkpt lat="45.53940632462704" lon="9.239397153832536"><ele>143.5</ele><time>2026-05-02T07:38:52.997Z</time></trkpt><trkpt lat="45.53931458996545" lon="9.239309629274567"><ele>143.0</ele><time>2026-05-02T07:38:53.997Z</time></trkpt><trkpt lat="45.53921521300384" lon="9.239202943856435"><ele>142.5</ele><time>2026-05-02T07:38:54.997Z</time></trkpt><trkpt lat="45.53911270555552" lon="9.239096912607318"><ele>142.0</ele><time>2026-05-02T07:38:55.997Z</time></trkpt><trkpt lat="45.53901717646236" lon="9.238999936130055"><ele>142.0</ele><time>2026-05-02T07:38:56.997Z</time></trkpt><trkpt lat="45.53892644731105" lon="9.238897879146373"><ele>142.0</ele><time>2026-05-02T07:38:57.997Z</time></trkpt><trkpt lat="45.53883298956697" lon="9.238804429877655"><ele>142.0</ele><time>2026-05-02T07:38:58.997Z</time></trkpt><trkpt lat="45.53873881691551" lon="9.238711979839762"><ele>142.0</ele><time>2026-05-02T07:38:59.997Z</time></trkpt><trkpt lat="45.538647288854534" lon="9.238620301213247"><ele>142.2</ele><time>2026-05-02T07:39:00.997Z</time></trkpt><trkpt lat="45.53856581994811" lon="9.238537565559698"><ele>142.39999999999998</ele><time>2026-05-02T07:39:01.997Z</time></trkpt><trkpt lat="45.53850687815244" lon="9.238442132775821"><ele>142.60000000000002</ele><time>2026-05-02T07:39:02.997Z</time></trkpt><trkpt lat="45.53844457451327" lon="9.238385761246558"><ele>142.8</ele><time>2026-05-02T07:39:03.997Z</time></trkpt><trkpt lat="45.53839087978686" lon="9.238330818429377"><ele>143.0</ele><time>2026-05-02T07:39:04.997Z</time></trkpt><trkpt lat="45.53828372040704" lon="9.238238676999094"><ele>143.0</ele><time>2026-05-02T07:39:06.997Z</time></trkpt><trkpt lat="45.5382026066903" lon="9.238154503515338"><ele>143.0</ele><time>2026-05-02T07:39:08.997Z</time></trkpt><trkpt lat="45.53814289668761" lon="9.238075528522266"><ele>143.0</ele><time>2026-05-02T07:39:10.997Z</time></trkpt><trkpt lat="45.53821089299671" lon="9.23788815130608"><ele>143.0</ele><time>2026-05-02T07:39:12.997Z</time></trkpt><trkpt lat="45.53825502460515" lon="9.237784799387372"><ele>143.0</ele><time>2026-05-02T07:39:13.997Z</time></trkpt><trkpt lat="45.538313766536824" lon="9.237674246817003"><ele>143.20000000000002</ele><time>2026-05-02T07:39:14.997Z</time></trkpt><trkpt lat="45.538375739360035" lon="9.23757353679257"><ele>143.4</ele><time>2026-05-02T07:39:15.997Z</time></trkpt><trkpt lat="45.53843976567813" lon="9.237463668647216"><ele>143.60000000000002</ele><time>2026-05-02T07:39:16.997Z</time></trkpt><trkpt lat="45.53849699099856" lon="9.237359208112842"><ele>143.8</ele><time>2026-05-02T07:39:17.997Z</time></trkpt><trkpt lat="45.53855053789226" lon="9.237249857978455"><ele>144.0</ele><time>2026-05-02T07:39:18.997Z</time></trkpt><trkpt lat="45.53860024499307" lon="9.237144995397468"><ele>144.00000000000003</ele><time>2026-05-02T07:39:19.997Z</time></trkpt><trkpt lat="45.53864517963617" lon="9.23705585608344"><ele>144.0</ele><time>2026-05-02T07:39:20.997Z</time></trkpt><trkpt lat="45.53868542540216" lon="9.236972800989044"><ele>144.0</ele><time>2026-05-02T07:39:21.997Z</time></trkpt><trkpt lat="45.538727524225315" lon="9.236884884412309"><ele>144.0</ele><time>2026-05-02T07:39:22.997Z</time></trkpt><trkpt lat="45.53876840199842" lon="9.2368019400854"><ele>144.0</ele><time>2026-05-02T07:39:23.997Z</time></trkpt><trkpt lat="45.53881516878487" lon="9.236713149652697"><ele>144.00000000000003</ele><time>2026-05-02T07:39:24.997Z</time></trkpt><trkpt lat="45.53885691175542" lon="9.236635328675483"><ele>144.0</ele><time>2026-05-02T07:39:25.997Z</time></trkpt><trkpt lat="45.53892656105784" lon="9.236551815009303"><ele>144.0</ele><time>2026-05-02T07:39:27.997Z</time></trkpt><trkpt lat="45.53903975988236" lon="9.236519215809604"><ele>144.0</ele><time>2026-05-02T07:39:29.997Z</time></trkpt><trkpt lat="45.53915196479679" lon="9.236507287386363"><ele>144.0</ele><time>2026-05-02T07:39:31.997Z</time></trkpt><trkpt lat="45.539246380633024" lon="9.236503210699574"><ele>144.0</ele><time>2026-05-02T07:39:33.997Z</time></trkpt><trkpt lat="45.53934650900978" lon="9.236511666305262"><ele>144.0</ele><time>2026-05-02T07:39:35.997Z</time></trkpt><trkpt lat="45.53944297942336" lon="9.236518226605297"><ele>144.0</ele><time>2026-05-02T07:39:37.997Z</time></trkpt><trkpt lat="45.53953592546478" lon="9.23648527269118"><ele>144.0</ele><time>2026-05-02T07:39:39.997Z</time></trkpt><trkpt lat="45.53964216174936" lon="9.236495588687117"><ele>144.0</ele><time>2026-05-02T07:39:42.997Z</time></trkpt><trkpt lat="45.53974943867136" lon="9.236573712240457"><ele>144.0</ele><time>2026-05-02T07:39:44.997Z</time></trkpt><trkpt lat="45.539828358198974" lon="9.236641048421689"><ele>144.0</ele><time>2026-05-02T07:39:45.997Z</time></trkpt><trkpt lat="45.539909510406616" lon="9.236713711798554"><ele>144.0</ele><time>2026-05-02T07:39:46.997Z</time></trkpt><trkpt lat="45.539980748738394" lon="9.236796151979298"><ele>144.0</ele><time>2026-05-02T07:39:47.997Z</time></trkpt><trkpt lat="45.540057258251665" lon="9.236873937324155"><ele>144.0</ele><time>2026-05-02T07:39:48.997Z</time></trkpt><trkpt lat="45.540137531049055" lon="9.236950701899113"><ele>144.0</ele><time>2026-05-02T07:39:49.997Z</time></trkpt><trkpt lat="45.54022182682757" lon="9.237031165657914"><ele>144.0</ele><time>2026-05-02T07:39:50.997Z</time></trkpt><trkpt lat="45.540307875809994" lon="9.237112387944496"><ele>144.2</ele><time>2026-05-02T07:39:51.997Z</time></trkpt><trkpt lat="45.5403980970509" lon="9.237196914865567"><ele>144.4</ele><time>2026-05-02T07:39:52.997Z</time></trkpt><trkpt lat="45.540490878678284" lon="9.237285299856815"><ele>144.6</ele><time>2026-05-02T07:39:53.997Z</time></trkpt><trkpt lat="45.540584991808" lon="9.237371766780269"><ele>144.8</ele><time>2026-05-02T07:39:54.997Z</time></trkpt><trkpt lat="45.54067053123306" lon="9.237451971295691"><ele>145.0</ele><time>2026-05-02T07:39:55.997Z</time></trkpt><trkpt lat="45.540749755067694" lon="9.237527044820768"><ele>145.0</ele><time>2026-05-02T07:39:56.997Z</time></trkpt><trkpt lat="45.540833251381585" lon="9.237604880068796"><ele>145.0</ele><time>2026-05-02T07:39:57.997Z</time></trkpt><trkpt lat="45.540912799903396" lon="9.23767620455328"><ele>145.0</ele><time>2026-05-02T07:39:58.997Z</time></trkpt><trkpt lat="45.5409897881593" lon="9.237744176115982"><ele>145.0</ele><time>2026-05-02T07:39:59.997Z</time></trkpt><trkpt lat="45.54105497760112" lon="9.237812018030926"><ele>145.0</ele><time>2026-05-02T07:40:00.997Z</time></trkpt><trkpt lat="45.5411120468648" lon="9.237870340800363"><ele>145.0</ele><time>2026-05-02T07:40:01.997Z</time></trkpt><trkpt lat="45.541201879893514" lon="9.237958451350172"><ele>145.16666666666669</ele><time>2026-05-02T07:40:03.997Z</time></trkpt><trkpt lat="45.54125589259507" lon="9.238007873891672"><ele>145.33333333333334</ele><time>2026-05-02T07:40:05.997Z</time></trkpt><trkpt lat="45.54134159415285" lon="9.238057785132067"><ele>145.5</ele><time>2026-05-02T07:40:18.997Z</time></trkpt><trkpt lat="45.54141099275011" lon="9.238115175044214"><ele>145.66666666666666</ele><time>2026-05-02T07:40:20.997Z</time></trkpt><trkpt lat="45.541456717466005" lon="9.238184163160017"><ele>145.83333333333331</ele><time>2026-05-02T07:40:23.997Z</time></trkpt><trkpt lat="45.54151771592356" lon="9.238239846330071"><ele>146.0</ele><time>2026-05-02T07:40:40.997Z</time></trkpt><trkpt lat="45.54160539699841" lon="9.238298554983379"><ele>146.2</ele><time>2026-05-02T07:40:43.997Z</time></trkpt><trkpt lat="45.541734636791496" lon="9.238129542617111"><ele>146.39999999999998</ele><time>2026-05-02T07:40:44.997Z</time></trkpt><trkpt lat="45.541777508451894" lon="9.238056058355028"><ele>146.6</ele><time>2026-05-02T07:40:45.997Z</time></trkpt><trkpt lat="45.5418401629543" lon="9.237938052326792"><ele>146.79999999999998</ele><time>2026-05-02T07:40:47.997Z</time></trkpt><trkpt lat="45.541884374692245" lon="9.237869818168141"><ele>147.0</ele><time>2026-05-02T07:40:49.997Z</time></trkpt><trkpt lat="45.541936236994026" lon="9.237801569867722"><ele>147.0</ele><time>2026-05-02T07:40:55.997Z</time></trkpt><trkpt lat="45.54199466993261" lon="9.237683850783299"><ele>147.0</ele><time>2026-05-02T07:40:58.997Z</time></trkpt><trkpt lat="45.54205868555363" lon="9.237553189059568"><ele>147.0</ele><time>2026-05-02T07:41:00.997Z</time></trkpt><trkpt lat="45.54209761268078" lon="9.237477924675137"><ele>147.0</ele><time>2026-05-02T07:41:01.997Z</time></trkpt><trkpt lat="45.54214067007189" lon="9.237398680557398"><ele>147.0</ele><time>2026-05-02T07:41:02.997Z</time></trkpt><trkpt lat="45.54218758940202" lon="9.237314913501086"><ele>147.0</ele><time>2026-05-02T07:41:03.997Z</time></trkpt><trkpt lat="45.542235029253256" lon="9.237224302631825"><ele>146.83333333333334</ele><time>2026-05-02T07:41:04.997Z</time></trkpt><trkpt lat="45.54228525724157" lon="9.237127233324921"><ele>146.66666666666666</ele><time>2026-05-02T07:41:05.997Z</time></trkpt><trkpt lat="45.542333911244775" lon="9.237029277222646"><ele>146.5</ele><time>2026-05-02T07:41:06.997Z</time></trkpt><trkpt lat="45.54238082907404" lon="9.236926891126888"><ele>146.33333333333331</ele><time>2026-05-02T07:41:07.997Z</time></trkpt><trkpt lat="45.542435818706394" lon="9.236819009233367"><ele>146.16666666666666</ele><time>2026-05-02T07:41:08.997Z</time></trkpt><trkpt lat="45.542498030684925" lon="9.236705338656066"><ele>146.0</ele><time>2026-05-02T07:41:09.997Z</time></trkpt><trkpt lat="45.542565613783474" lon="9.23658979448213"><ele>146.0</ele><time>2026-05-02T07:41:10.997Z</time></trkpt><trkpt lat="45.54263380219959" lon="9.236469075397466"><ele>146.0</ele><time>2026-05-02T07:41:11.997Z</time></trkpt><trkpt lat="45.54269591148366" lon="9.236347444904725"><ele>146.0</ele><time>2026-05-02T07:41:12.997Z</time></trkpt><trkpt lat="45.54275558845557" lon="9.236228128425333"><ele>146.0</ele><time>2026-05-02T07:41:13.997Z</time></trkpt><trkpt lat="45.54281354584618" lon="9.236111723075103"><ele>146.0</ele><time>2026-05-02T07:41:14.997Z</time></trkpt><trkpt lat="45.54286959132427" lon="9.236008450917984"><ele>146.16666666666666</ele><time>2026-05-02T07:41:15.997Z</time></trkpt><trkpt lat="45.542913936842666" lon="9.235910697986261"><ele>146.33333333333331</ele><time>2026-05-02T07:41:16.997Z</time></trkpt><trkpt lat="45.54296554409062" lon="9.235819214901044"><ele>146.5</ele><time>2026-05-02T07:41:17.997Z</time></trkpt><trkpt lat="45.543015172731856" lon="9.235721615871238"><ele>146.66666666666666</ele><time>2026-05-02T07:41:18.997Z</time></trkpt><trkpt lat="45.54307046249391" lon="9.235621009340623"><ele>146.83333333333334</ele><time>2026-05-02T07:41:19.997Z</time></trkpt><trkpt lat="45.543118941441506" lon="9.23552678628899"><ele>147.0</ele><time>2026-05-02T07:41:20.997Z</time></trkpt><trkpt lat="45.54316305275724" lon="9.2354382863167"><ele>147.0</ele><time>2026-05-02T07:41:21.997Z</time></trkpt><trkpt lat="45.54320197880044" lon="9.235363115073664"><ele>147.0</ele><time>2026-05-02T07:41:22.997Z</time></trkpt><trkpt lat="45.54326926370859" lon="9.235247617638757"><ele>147.0</ele><time>2026-05-02T07:41:24.997Z</time></trkpt><trkpt lat="45.543313216020834" lon="9.235156840015838"><ele>147.0</ele><time>2026-05-02T07:41:26.997Z</time></trkpt><trkpt lat="45.54335157921714" lon="9.235084387081622"><ele>147.0</ele><time>2026-05-02T07:41:33.997Z</time></trkpt><trkpt lat="45.54342073917512" lon="9.234948012413561"><ele>147.0</ele><time>2026-05-02T07:41:35.997Z</time></trkpt><trkpt lat="45.54348265042979" lon="9.234835730368678"><ele>146.75</ele><time>2026-05-02T07:41:36.997Z</time></trkpt><trkpt lat="45.54356059349495" lon="9.234692116039623"><ele>146.5</ele><time>2026-05-02T07:41:37.997Z</time></trkpt><trkpt lat="45.543643958047134" lon="9.234522798382525"><ele>146.25</ele><time>2026-05-02T07:41:38.997Z</time></trkpt><trkpt lat="45.54372382044978" lon="9.234360830616161"><ele>146.0</ele><time>2026-05-02T07:41:39.997Z</time></trkpt><trkpt lat="45.54379692178083" lon="9.234210201292266"><ele>146.75</ele><time>2026-05-02T07:41:40.997Z</time></trkpt><trkpt lat="45.543871583234285" lon="9.234071113104525"><ele>147.5</ele><time>2026-05-02T07:41:41.997Z</time></trkpt><trkpt lat="45.5439525757515" lon="9.23394176734914"><ele>148.25</ele><time>2026-05-02T07:41:42.997Z</time></trkpt><trkpt lat="45.54401362007751" lon="9.233787151983023"><ele>149.0</ele><time>2026-05-02T07:41:43.997Z</time></trkpt><trkpt lat="45.54408762520088" lon="9.233632074589654"><ele>149.5</ele><time>2026-05-02T07:41:44.997Z</time></trkpt><trkpt lat="45.54416881250095" lon="9.233474821932656"><ele>150.0</ele><time>2026-05-02T07:41:45.997Z</time></trkpt><trkpt lat="45.54424964122891" lon="9.233316244419168"><ele>150.5</ele><time>2026-05-02T07:41:46.997Z</time></trkpt><trkpt lat="45.54434667345878" lon="9.233170369351647"><ele>151.0</ele><time>2026-05-02T07:41:47.997Z</time></trkpt><trkpt lat="45.54443025246002" lon="9.233032529021472"><ele>151.0</ele><time>2026-05-02T07:41:48.997Z</time></trkpt><trkpt lat="45.544497828518544" lon="9.23291056429655"><ele>151.0</ele><time>2026-05-02T07:41:49.997Z</time></trkpt><trkpt lat="45.544552470113416" lon="9.23280767576748"><ele>151.0</ele><time>2026-05-02T07:41:50.997Z</time></trkpt><trkpt lat="45.544626190049335" lon="9.232680454061148"><ele>151.0</ele><time>2026-05-02T07:41:52.997Z</time></trkpt><trkpt lat="45.54468302355705" lon="9.23259641377916"><ele>151.0</ele><time>2026-05-02T07:41:54.997Z</time></trkpt><trkpt lat="45.544736566106636" lon="9.23249548346697"><ele>150.8</ele><time>2026-05-02T07:41:56.997Z</time></trkpt><trkpt lat="45.54479321106743" lon="9.232385422549"><ele>150.6</ele><time>2026-05-02T07:41:58.997Z</time></trkpt><trkpt lat="45.54485765682455" lon="9.232229509694818"><ele>150.4</ele><time>2026-05-02T07:42:00.997Z</time></trkpt><trkpt lat="45.54490598538305" lon="9.232136178683536"><ele>150.2</ele><time>2026-05-02T07:42:01.997Z</time></trkpt><trkpt lat="45.54494977168955" lon="9.232036137205073"><ele>150.0</ele><time>2026-05-02T07:42:02.997Z</time></trkpt><trkpt lat="45.544993496608406" lon="9.231940622229338"><ele>150.0</ele><time>2026-05-02T07:42:03.997Z</time></trkpt><trkpt lat="45.54503914269967" lon="9.23184574604114"><ele>150.0</ele><time>2026-05-02T07:42:04.997Z</time></trkpt><trkpt lat="45.54509034796901" lon="9.231748177898071"><ele>150.0</ele><time>2026-05-02T07:42:05.997Z</time></trkpt><trkpt lat="45.54515368782525" lon="9.231648108677676"><ele>150.0</ele><time>2026-05-02T07:42:06.997Z</time></trkpt><trkpt lat="45.54520588976331" lon="9.231537440906983"><ele>150.0</ele><time>2026-05-02T07:42:07.997Z</time></trkpt><trkpt lat="45.54524893511199" lon="9.231438885600026"><ele>150.0</ele><time>2026-05-02T07:42:08.997Z</time></trkpt><trkpt lat="45.54529042060267" lon="9.23135573323106"><ele>150.0</ele><time>2026-05-02T07:42:09.997Z</time></trkpt><trkpt lat="45.54533030670786" lon="9.231274810388543"><ele>150.0</ele><time>2026-05-02T07:42:10.997Z</time></trkpt><trkpt lat="45.545369399395526" lon="9.23119093439891"><ele>150.0</ele><time>2026-05-02T07:42:11.997Z</time></trkpt><trkpt lat="45.54541511903757" lon="9.231112743210177"><ele>150.0</ele><time>2026-05-02T07:42:12.997Z</time></trkpt><trkpt lat="45.54545197564745" lon="9.231025017939759"><ele>150.0</ele><time>2026-05-02T07:42:13.997Z</time></trkpt><trkpt lat="45.545491356671675" lon="9.230949444480782"><ele>150.0</ele><time>2026-05-02T07:42:14.997Z</time></trkpt><trkpt lat="45.545562573201394" lon="9.230830602959449"><ele>150.0</ele><time>2026-05-02T07:42:16.997Z</time></trkpt><trkpt lat="45.545628641098766" lon="9.230703630663161"><ele>150.0</ele><time>2026-05-02T07:42:18.997Z</time></trkpt><trkpt lat="45.545708972981785" lon="9.230703149527825"><ele>150.0</ele><time>2026-05-02T07:42:19.997Z</time></trkpt><trkpt lat="45.54578284692865" lon="9.230683342149506"><ele>150.0</ele><time>2026-05-02T07:42:20.996Z</time></trkpt><trkpt lat="45.54586796291727" lon="9.230653179802852"><ele>150.0</ele><time>2026-05-02T07:42:21.996Z</time></trkpt><trkpt lat="45.545959441779615" lon="9.230630304530457"><ele>150.0</ele><time>2026-05-02T07:42:22.996Z</time></trkpt><trkpt lat="45.54605315328275" lon="9.23059777641079"><ele>150.0</ele><time>2026-05-02T07:42:23.996Z</time></trkpt><trkpt lat="45.546145639352865" lon="9.23055721668135"><ele>150.0</ele><time>2026-05-02T07:42:24.996Z</time></trkpt><trkpt lat="45.54624192626118" lon="9.230504077778598"><ele>150.0</ele><time>2026-05-02T07:42:25.996Z</time></trkpt><trkpt lat="45.54634335727345" lon="9.23042933235243"><ele>150.0</ele><time>2026-05-02T07:42:26.996Z</time></trkpt><trkpt lat="45.54645317978361" lon="9.230349032806178"><ele>150.0</ele><time>2026-05-02T07:42:27.996Z</time></trkpt><trkpt lat="45.54656899573174" lon="9.230264495418279"><ele>150.0</ele><time>2026-05-02T07:42:28.996Z</time></trkpt><trkpt lat="45.54668748809298" lon="9.23018824714085"><ele>150.0</ele><time>2026-05-02T07:42:29.996Z</time></trkpt><trkpt lat="45.546807939655565" lon="9.230106912135755"><ele>150.0</ele><time>2026-05-02T07:42:30.996Z</time></trkpt><trkpt lat="45.54692620538884" lon="9.230034418342274"><ele>150.0</ele><time>2026-05-02T07:42:31.996Z</time></trkpt><trkpt lat="45.54705028606025" lon="9.229959083887875"><ele>150.0</ele><time>2026-05-02T07:42:32.996Z</time></trkpt><trkpt lat="45.547171288102696" lon="9.229878672749775"><ele>150.0</ele><time>2026-05-02T07:42:33.996Z</time></trkpt><trkpt lat="45.54729625363538" lon="9.229793327052361"><ele>150.0</ele><time>2026-05-02T07:42:34.996Z</time></trkpt><trkpt lat="45.54742131314542" lon="9.229706265152771"><ele>150.0</ele><time>2026-05-02T07:42:35.996Z</time></trkpt><trkpt lat="45.5475440729972" lon="9.229619227134389"><ele>149.75</ele><time>2026-05-02T07:42:36.997Z</time></trkpt><trkpt lat="45.547655530549214" lon="9.22953142690752"><ele>149.5</ele><time>2026-05-02T07:42:37.996Z</time></trkpt><trkpt lat="45.547745372340685" lon="9.229446523626578"><ele>149.25</ele><time>2026-05-02T07:42:38.996Z</time></trkpt><trkpt lat="45.54783113710781" lon="9.229350961678492"><ele>149.0</ele><time>2026-05-02T07:42:39.996Z</time></trkpt><trkpt lat="45.54790417800388" lon="9.229241452498469"><ele>149.0</ele><time>2026-05-02T07:42:40.996Z</time></trkpt><trkpt lat="45.54798525588921" lon="9.229122881605548"><ele>149.0</ele><time>2026-05-02T07:42:41.996Z</time></trkpt><trkpt lat="45.548064604403656" lon="9.22899928665989"><ele>149.0</ele><time>2026-05-02T07:42:42.996Z</time></trkpt><trkpt lat="45.5481471478914" lon="9.228868184661938"><ele>149.0</ele><time>2026-05-02T07:42:43.996Z</time></trkpt><trkpt lat="45.54822992955717" lon="9.228743696503509"><ele>149.4</ele><time>2026-05-02T07:42:44.996Z</time></trkpt><trkpt lat="45.54830667260277" lon="9.228635373318374"><ele>149.8</ele><time>2026-05-02T07:42:45.996Z</time></trkpt><trkpt lat="45.548378661686314" lon="9.22853266962753"><ele>150.2</ele><time>2026-05-02T07:42:46.996Z</time></trkpt><trkpt lat="45.54845045372587" lon="9.228428697353118"><ele>150.6</ele><time>2026-05-02T07:42:47.996Z</time></trkpt><trkpt lat="45.54852188584065" lon="9.228327819013238"><ele>151.0</ele><time>2026-05-02T07:42:48.996Z</time></trkpt><trkpt lat="45.54859358591369" lon="9.228237577010663"><ele>151.0</ele><time>2026-05-02T07:42:49.996Z</time></trkpt><trkpt lat="45.54866997873505" lon="9.228154431088697"><ele>151.0</ele><time>2026-05-02T07:42:50.996Z</time></trkpt><trkpt lat="45.54875192925711" lon="9.228081246152644"><ele>151.0</ele><time>2026-05-02T07:42:51.996Z</time></trkpt><trkpt lat="45.548839697092546" lon="9.228011970706412"><ele>151.0</ele><time>2026-05-02T07:42:52.996Z</time></trkpt><trkpt lat="45.54894041839256" lon="9.227961227717296"><ele>151.0</ele><time>2026-05-02T07:42:53.996Z</time></trkpt><trkpt lat="45.549058110211384" lon="9.227915081284271"><ele>151.25</ele><time>2026-05-02T07:42:54.996Z</time></trkpt><trkpt lat="45.54918502422608" lon="9.22786470048345"><ele>151.5</ele><time>2026-05-02T07:42:55.996Z</time></trkpt><trkpt lat="45.54930794453693" lon="9.227809707446516"><ele>151.75</ele><time>2026-05-02T07:42:56.996Z</time></trkpt><trkpt lat="45.549428572243166" lon="9.22779466043398"><ele>152.0</ele><time>2026-05-02T07:42:57.996Z</time></trkpt><trkpt lat="45.54955226263684" lon="9.2277499390576"><ele>150.75</ele><time>2026-05-02T07:42:58.996Z</time></trkpt><trkpt lat="45.54967837096228" lon="9.227692227157899"><ele>149.5</ele><time>2026-05-02T07:42:59.996Z</time></trkpt><trkpt lat="45.549825429279664" lon="9.227666627319806"><ele>148.25</ele><time>2026-05-02T07:43:00.996Z</time></trkpt><trkpt lat="45.549966526926724" lon="9.227617757883154"><ele>147.0</ele><time>2026-05-02T07:43:01.996Z</time></trkpt><trkpt lat="45.55011371487771" lon="9.227563494657897"><ele>147.0</ele><time>2026-05-02T07:43:02.996Z</time></trkpt><trkpt lat="45.550263037290755" lon="9.22750841386945"><ele>147.0</ele><time>2026-05-02T07:43:03.996Z</time></trkpt><trkpt lat="45.550425966347056" lon="9.227490322750471"><ele>147.0</ele><time>2026-05-02T07:43:04.996Z</time></trkpt><trkpt lat="45.550570582373155" lon="9.227445907136877"><ele>148.25</ele><time>2026-05-02T07:43:05.996Z</time></trkpt><trkpt lat="45.550702640152394" lon="9.227410464525196"><ele>149.5</ele><time>2026-05-02T07:43:06.996Z</time></trkpt><trkpt lat="45.550831497618766" lon="9.227396804301955"><ele>150.75</ele><time>2026-05-02T07:43:07.996Z</time></trkpt><trkpt lat="45.55096262886917" lon="9.227393816457484"><ele>152.0</ele><time>2026-05-02T07:43:08.996Z</time></trkpt><trkpt lat="45.551074396653306" lon="9.227405528594204"><ele>152.0</ele><time>2026-05-02T07:43:09.996Z</time></trkpt><trkpt lat="45.551175703185706" lon="9.227434659155385"><ele>152.0</ele><time>2026-05-02T07:43:10.996Z</time></trkpt><trkpt lat="45.551268404747695" lon="9.227467237681678"><ele>152.0</ele><time>2026-05-02T07:43:11.996Z</time></trkpt><trkpt lat="45.551353514484504" lon="9.227506146855886"><ele>152.0</ele><time>2026-05-02T07:43:12.996Z</time></trkpt><trkpt lat="45.55144221031421" lon="9.227551869873434"><ele>152.0</ele><time>2026-05-02T07:43:13.996Z</time></trkpt><trkpt lat="45.55152602055379" lon="9.227602388944199"><ele>152.5</ele><time>2026-05-02T07:43:14.996Z</time></trkpt><trkpt lat="45.551590961751685" lon="9.227664494940587"><ele>153.0</ele><time>2026-05-02T07:43:15.996Z</time></trkpt><trkpt lat="45.551658753443284" lon="9.227724340504246"><ele>153.5</ele><time>2026-05-02T07:43:16.996Z</time></trkpt><trkpt lat="45.55173243696103" lon="9.227781342237032"><ele>154.0</ele><time>2026-05-02T07:43:17.996Z</time></trkpt><trkpt lat="45.55181193419385" lon="9.22784076257218"><ele>154.5</ele><time>2026-05-02T07:43:18.996Z</time></trkpt><trkpt lat="45.55189934465164" lon="9.227900897949802"><ele>155.0</ele><time>2026-05-02T07:43:19.996Z</time></trkpt><trkpt lat="45.55199440876271" lon="9.227941062219358"><ele>154.0</ele><time>2026-05-02T07:43:20.996Z</time></trkpt><trkpt lat="45.55210177803516" lon="9.22795828497343"><ele>153.0</ele><time>2026-05-02T07:43:21.996Z</time></trkpt><trkpt lat="45.552213275250104" lon="9.227962022749741"><ele>152.0</ele><time>2026-05-02T07:43:22.996Z</time></trkpt><trkpt lat="45.55233377907726" lon="9.227950099799992"><ele>151.0</ele><time>2026-05-02T07:43:23.996Z</time></trkpt><trkpt lat="45.55245661964607" lon="9.227933153271193"><ele>151.0</ele><time>2026-05-02T07:43:24.996Z</time></trkpt><trkpt lat="45.55257906897966" lon="9.227920273088474"><ele>151.0</ele><time>2026-05-02T07:43:25.996Z</time></trkpt><trkpt lat="45.552698810564095" lon="9.22791948365535"><ele>151.0</ele><time>2026-05-02T07:43:26.996Z</time></trkpt><trkpt lat="45.552817385761834" lon="9.227909627295748"><ele>151.0</ele><time>2026-05-02T07:43:27.996Z</time></trkpt><trkpt lat="45.552938215920975" lon="9.227906875623763"><ele>151.5</ele><time>2026-05-02T07:43:28.996Z</time></trkpt><trkpt lat="45.55305774127038" lon="9.227893233343192"><ele>152.0</ele><time>2026-05-02T07:43:29.996Z</time></trkpt><trkpt lat="45.55318063518869" lon="9.227883034189082"><ele>152.5</ele><time>2026-05-02T07:43:30.996Z</time></trkpt><trkpt lat="45.55330557732881" lon="9.227858125975194"><ele>153.0</ele><time>2026-05-02T07:43:31.996Z</time></trkpt><trkpt lat="45.553428730217334" lon="9.227843606383352"><ele>153.0</ele><time>2026-05-02T07:43:32.996Z</time></trkpt><trkpt lat="45.55354935690794" lon="9.227840764400966"><ele>153.0</ele><time>2026-05-02T07:43:33.996Z</time></trkpt><trkpt lat="45.55366685097078" lon="9.22783068951102"><ele>153.0</ele><time>2026-05-02T07:43:34.996Z</time></trkpt><trkpt lat="45.55378270385234" lon="9.227820798655436"><ele>153.0</ele><time>2026-05-02T07:43:35.996Z</time></trkpt><trkpt lat="45.553898974228446" lon="9.227812506226906"><ele>152.75</ele><time>2026-05-02T07:43:36.996Z</time></trkpt><trkpt lat="45.554018021827005" lon="9.227803494922497"><ele>152.5</ele><time>2026-05-02T07:43:37.996Z</time></trkpt><trkpt lat="45.554138172845214" lon="9.227797989337116"><ele>152.25</ele><time>2026-05-02T07:43:38.996Z</time></trkpt><trkpt lat="45.55426367503439" lon="9.227790486425933"><ele>152.0</ele><time>2026-05-02T07:43:39.996Z</time></trkpt><trkpt lat="45.55439324241111" lon="9.227778347028387"><ele>152.0</ele><time>2026-05-02T07:43:40.996Z</time></trkpt><trkpt lat="45.55453051635397" lon="9.227764256240597"><ele>152.0</ele><time>2026-05-02T07:43:41.996Z</time></trkpt><trkpt lat="45.554672260346734" lon="9.227753545912563"><ele>152.0</ele><time>2026-05-02T07:43:42.996Z</time></trkpt><trkpt lat="45.554817116403036" lon="9.22773758575269"><ele>152.0</ele><time>2026-05-02T07:43:43.996Z</time></trkpt><trkpt lat="45.55496213760571" lon="9.227721882323435"><ele>153.0</ele><time>2026-05-02T07:43:44.996Z</time></trkpt><trkpt lat="45.55510977997783" lon="9.227709801463662"><ele>154.0</ele><time>2026-05-02T07:43:45.996Z</time></trkpt><trkpt lat="45.55525330609913" lon="9.22769861504514"><ele>155.0</ele><time>2026-05-02T07:43:46.996Z</time></trkpt><trkpt lat="45.55538566104091" lon="9.227681433627522"><ele>156.0</ele><time>2026-05-02T07:43:47.996Z</time></trkpt><trkpt lat="45.555515212441655" lon="9.227674344443036"><ele>156.0</ele><time>2026-05-02T07:43:48.996Z</time></trkpt><trkpt lat="45.55564808663454" lon="9.22768706238986"><ele>156.0</ele><time>2026-05-02T07:43:49.996Z</time></trkpt><trkpt lat="45.555781541253566" lon="9.227695847857065"><ele>156.0</ele><time>2026-05-02T07:43:50.996Z</time></trkpt><trkpt lat="45.555907244355055" lon="9.227682003057708"><ele>156.0</ele><time>2026-05-02T07:43:51.996Z</time></trkpt><trkpt lat="45.55602124254559" lon="9.227661575357606"><ele>156.0</ele><time>2026-05-02T07:43:52.996Z</time></trkpt><trkpt lat="45.556114646682836" lon="9.227651108983029"><ele>156.0</ele><time>2026-05-02T07:43:53.996Z</time></trkpt><trkpt lat="45.55619298293055" lon="9.227635530953565"><ele>156.0</ele><time>2026-05-02T07:43:54.996Z</time></trkpt><trkpt lat="45.55628067711166" lon="9.227649232804623"><ele>156.0</ele><time>2026-05-02T07:43:56.996Z</time></trkpt><trkpt lat="45.556390444863005" lon="9.22762739756945"><ele>156.0</ele><time>2026-05-02T07:44:12.996Z</time></trkpt><trkpt lat="45.556490427156625" lon="9.227618302651054"><ele>155.66666666666666</ele><time>2026-05-02T07:44:14.996Z</time></trkpt><trkpt lat="45.556561542255224" lon="9.227610495254241"><ele>155.33333333333334</ele><time>2026-05-02T07:44:15.996Z</time></trkpt><trkpt lat="45.55663320073895" lon="9.22760081167057"><ele>155.0</ele><time>2026-05-02T07:44:16.996Z</time></trkpt><trkpt lat="45.556716214555834" lon="9.22758959357746"><ele>154.66666666666669</ele><time>2026-05-02T07:44:17.996Z</time></trkpt><trkpt lat="45.55681207663358" lon="9.227576941484669"><ele>154.33333333333334</ele><time>2026-05-02T07:44:18.996Z</time></trkpt><trkpt lat="45.55690694558707" lon="9.227564432151233"><ele>154.0</ele><time>2026-05-02T07:44:19.996Z</time></trkpt><trkpt lat="45.556996463123504" lon="9.227554345958625"><ele>154.33333333333334</ele><time>2026-05-02T07:44:20.996Z</time></trkpt><trkpt lat="45.55708070154882" lon="9.227547719900873"><ele>154.66666666666669</ele><time>2026-05-02T07:44:21.996Z</time></trkpt><trkpt lat="45.55716347660749" lon="9.227548006662465"><ele>155.0</ele><time>2026-05-02T07:44:22.996Z</time></trkpt><trkpt lat="45.557246111457964" lon="9.22754376532902"><ele>155.33333333333334</ele><time>2026-05-02T07:44:23.996Z</time></trkpt><trkpt lat="45.55732014530952" lon="9.227539826685698"><ele>155.66666666666666</ele><time>2026-05-02T07:44:24.996Z</time></trkpt><trkpt lat="45.55739879499618" lon="9.227534000694108"><ele>156.0</ele><time>2026-05-02T07:44:25.996Z</time></trkpt><trkpt lat="45.55748769863734" lon="9.227524325177814"><ele>156.0</ele><time>2026-05-02T07:44:26.996Z</time></trkpt><trkpt lat="45.55757611320353" lon="9.227510128396016"><ele>156.0</ele><time>2026-05-02T07:44:27.996Z</time></trkpt><trkpt lat="45.557667965843166" lon="9.227495874870778"><ele>156.0</ele><time>2026-05-02T07:44:28.996Z</time></trkpt><trkpt lat="45.55775085434388" lon="9.227485414738206"><ele>156.0</ele><time>2026-05-02T07:44:29.996Z</time></trkpt><trkpt lat="45.55783740458902" lon="9.227469989546652"><ele>156.0</ele><time>2026-05-02T07:44:30.996Z</time></trkpt><trkpt lat="45.557931041023664" lon="9.227481644619479"><ele>156.0</ele><time>2026-05-02T07:44:31.996Z</time></trkpt><trkpt lat="45.55803211801031" lon="9.227473260853941"><ele>156.0</ele><time>2026-05-02T07:44:32.996Z</time></trkpt><trkpt lat="45.55813873288223" lon="9.227435298050583"><ele>156.0</ele><time>2026-05-02T07:44:33.996Z</time></trkpt><trkpt lat="45.55824802535105" lon="9.227433929949443"><ele>156.0</ele><time>2026-05-02T07:44:34.996Z</time></trkpt><trkpt lat="45.558368072366555" lon="9.227422176174231"><ele>156.0</ele><time>2026-05-02T07:44:35.996Z</time></trkpt><trkpt lat="45.55847869886477" lon="9.227411252404508"><ele>156.0</ele><time>2026-05-02T07:44:36.996Z</time></trkpt><trkpt lat="45.55859186365058" lon="9.227460717336108"><ele>156.0</ele><time>2026-05-02T07:44:37.996Z</time></trkpt><trkpt lat="45.55869458856232" lon="9.227452155265263"><ele>156.0</ele><time>2026-05-02T07:44:38.996Z</time></trkpt><trkpt lat="45.55877315439859" lon="9.227442799637116"><ele>156.0</ele><time>2026-05-02T07:44:39.996Z</time></trkpt><trkpt lat="45.55886540242913" lon="9.227430232547556"><ele>156.0</ele><time>2026-05-02T07:44:40.996Z</time></trkpt><trkpt lat="45.55895374630546" lon="9.227418677448439"><ele>156.0</ele><time>2026-05-02T07:44:41.996Z</time></trkpt><trkpt lat="45.55903366821004" lon="9.227405324575686"><ele>156.0</ele><time>2026-05-02T07:44:42.996Z</time></trkpt><trkpt lat="45.55910670036549" lon="9.22741779878145"><ele>156.0</ele><time>2026-05-02T07:44:43.996Z</time></trkpt><trkpt lat="45.559189206050526" lon="9.227410916908882"><ele>156.0</ele><time>2026-05-02T07:44:45.996Z</time></trkpt><trkpt lat="45.55927809527452" lon="9.227404343175627"><ele>156.0</ele><time>2026-05-02T07:44:55.996Z</time></trkpt><trkpt lat="45.559406284126545" lon="9.227394915231013"><ele>156.0</ele><time>2026-05-02T07:44:57.996Z</time></trkpt><trkpt lat="45.559496375802894" lon="9.227386326537356"><ele>156.0</ele><time>2026-05-02T07:44:58.996Z</time></trkpt><trkpt lat="45.5595706444726" lon="9.227380071580855"><ele>156.0</ele><time>2026-05-02T07:44:59.996Z</time></trkpt><trkpt lat="45.559640644552054" lon="9.227374176167743"><ele>156.0</ele><time>2026-05-02T07:45:00.996Z</time></trkpt><trkpt lat="45.5597335000874" lon="9.227366356156221"><ele>156.0</ele><time>2026-05-02T07:45:02.996Z</time></trkpt><trkpt lat="45.55994154061675" lon="9.227158391212004"><ele>156.0</ele><time>2026-05-02T07:45:17.996Z</time></trkpt><trkpt lat="45.56001807972698" lon="9.227153591297824"><ele>156.0</ele><time>2026-05-02T07:45:19.996Z</time></trkpt><trkpt lat="45.56010717920954" lon="9.227310633552838"><ele>156.0</ele><time>2026-05-02T07:45:21.996Z</time></trkpt><trkpt lat="45.560167135672884" lon="9.226955349145717"><ele>156.0</ele><time>2026-05-02T07:45:22.996Z</time></trkpt><trkpt lat="45.56018473131154" lon="9.226842092145242"><ele>156.0</ele><time>2026-05-02T07:45:23.996Z</time></trkpt><trkpt lat="45.56020646669863" lon="9.226714407891867"><ele>156.0</ele><time>2026-05-02T07:45:24.996Z</time></trkpt><trkpt lat="45.560223198827295" lon="9.226586877117557"><ele>156.0</ele><time>2026-05-02T07:45:25.996Z</time></trkpt><trkpt lat="45.560238382681575" lon="9.226458887633743"><ele>156.0</ele><time>2026-05-02T07:45:26.996Z</time></trkpt><trkpt lat="45.56025315148549" lon="9.226325341521017"><ele>156.2</ele><time>2026-05-02T07:45:27.996Z</time></trkpt><trkpt lat="45.5602683224194" lon="9.226189860108072"><ele>156.39999999999998</ele><time>2026-05-02T07:45:28.996Z</time></trkpt><trkpt lat="45.56027912681932" lon="9.226045494108533"><ele>156.6</ele><time>2026-05-02T07:45:29.996Z</time></trkpt><trkpt lat="45.56029075856677" lon="9.225894048184584"><ele>156.79999999999998</ele><time>2026-05-02T07:45:30.996Z</time></trkpt><trkpt lat="45.56031599947912" lon="9.225742872980824"><ele>157.0</ele><time>2026-05-02T07:45:31.996Z</time></trkpt><trkpt lat="45.56030944998593" lon="9.225581896766037"><ele>157.0</ele><time>2026-05-02T07:45:32.996Z</time></trkpt><trkpt lat="45.56032928766872" lon="9.225419593069537"><ele>157.0</ele><time>2026-05-02T07:45:33.996Z</time></trkpt><trkpt lat="45.5603573833394" lon="9.2252647021942"><ele>157.0</ele><time>2026-05-02T07:45:34.996Z</time></trkpt><trkpt lat="45.56039085142915" lon="9.225118124008311"><ele>157.0</ele><time>2026-05-02T07:45:35.996Z</time></trkpt><trkpt lat="45.56042884425739" lon="9.224978385860682"><ele>157.0</ele><time>2026-05-02T07:45:36.996Z</time></trkpt><trkpt lat="45.56049487359036" lon="9.224861060152517"><ele>157.2</ele><time>2026-05-02T07:45:37.996Z</time></trkpt><trkpt lat="45.56053700294985" lon="9.22473035394902"><ele>157.39999999999998</ele><time>2026-05-02T07:45:38.996Z</time></trkpt><trkpt lat="45.56057941014774" lon="9.224602542766256"><ele>157.60000000000002</ele><time>2026-05-02T07:45:39.996Z</time></trkpt><trkpt lat="45.560622576612644" lon="9.224473573809082"><ele>157.8</ele><time>2026-05-02T07:45:40.996Z</time></trkpt><trkpt lat="45.56066593617235" lon="9.224344027706088"><ele>158.0</ele><time>2026-05-02T07:45:41.996Z</time></trkpt><trkpt lat="45.56070983964903" lon="9.224212117589396"><ele>158.0</ele><time>2026-05-02T07:45:42.996Z</time></trkpt><trkpt lat="45.56075898238364" lon="9.224065390768338"><ele>158.0</ele><time>2026-05-02T07:45:43.996Z</time></trkpt><trkpt lat="45.56081185336383" lon="9.2239084537533"><ele>158.0</ele><time>2026-05-02T07:45:44.996Z</time></trkpt><trkpt lat="45.56086794598173" lon="9.223741953949874"><ele>158.0</ele><time>2026-05-02T07:45:45.996Z</time></trkpt><trkpt lat="45.560926293739676" lon="9.223568764482355"><ele>157.33333333333331</ele><time>2026-05-02T07:45:46.996Z</time></trkpt><trkpt lat="45.5609843066525" lon="9.223393712036078"><ele>156.66666666666666</ele><time>2026-05-02T07:45:47.996Z</time></trkpt><trkpt lat="45.56104214745398" lon="9.223220095772442"><ele>156.0</ele><time>2026-05-02T07:45:48.996Z</time></trkpt><trkpt lat="45.561159491971" lon="9.222870416450757"><ele>156.25</ele><time>2026-05-02T07:45:50.996Z</time></trkpt><trkpt lat="45.56121888366729" lon="9.222689022527442"><ele>156.5</ele><time>2026-05-02T07:45:51.996Z</time></trkpt><trkpt lat="45.561275315106684" lon="9.22250130348893"><ele>156.75</ele><time>2026-05-02T07:45:52.996Z</time></trkpt><trkpt lat="45.56132879542667" lon="9.222319144468832"><ele>157.0</ele><time>2026-05-02T07:45:53.996Z</time></trkpt><trkpt lat="45.56136515049224" lon="9.222137101939076"><ele>156.5</ele><time>2026-05-02T07:45:54.996Z</time></trkpt><trkpt lat="45.561416849992476" lon="9.221958884324557"><ele>156.0</ele><time>2026-05-02T07:45:55.996Z</time></trkpt><trkpt lat="45.561481296730165" lon="9.221792120295225"><ele>155.5</ele><time>2026-05-02T07:45:56.996Z</time></trkpt><trkpt lat="45.56152762613011" lon="9.22162198303128"><ele>155.0</ele><time>2026-05-02T07:45:57.996Z</time></trkpt><trkpt lat="45.561565205348685" lon="9.221455964718851"><ele>155.0</ele><time>2026-05-02T07:45:58.996Z</time></trkpt><trkpt lat="45.56159308036655" lon="9.221286979946143"><ele>155.0</ele><time>2026-05-02T07:45:59.996Z</time></trkpt><trkpt lat="45.56161385934146" lon="9.221106837716738"><ele>155.0</ele><time>2026-05-02T07:46:00.996Z</time></trkpt><trkpt lat="45.56161024933259" lon="9.22091574022651"><ele>155.0</ele><time>2026-05-02T07:46:01.996Z</time></trkpt><trkpt lat="45.561613941661285" lon="9.220723997917613"><ele>155.25</ele><time>2026-05-02T07:46:02.996Z</time></trkpt><trkpt lat="45.56160459165333" lon="9.220532877754433"><ele>155.5</ele><time>2026-05-02T07:46:03.996Z</time></trkpt><trkpt lat="45.56159148122924" lon="9.220347316966935"><ele>155.75</ele><time>2026-05-02T07:46:04.996Z</time></trkpt><trkpt lat="45.561567039826535" lon="9.2201674680815"><ele>156.0</ele><time>2026-05-02T07:46:05.996Z</time></trkpt><trkpt lat="45.56154427763614" lon="9.220001585947783"><ele>156.0</ele><time>2026-05-02T07:46:06.996Z</time></trkpt><trkpt lat="45.56151670480431" lon="9.219846312584604"><ele>156.0</ele><time>2026-05-02T07:46:07.996Z</time></trkpt><trkpt lat="45.561482589723376" lon="9.219696596911616"><ele>156.0</ele><time>2026-05-02T07:46:08.996Z</time></trkpt><trkpt lat="45.56144704153805" lon="9.219546029481366"><ele>156.0</ele><time>2026-05-02T07:46:09.996Z</time></trkpt><trkpt lat="45.56140934026099" lon="9.219397378381094"><ele>156.0</ele><time>2026-05-02T07:46:10.996Z</time></trkpt><trkpt lat="45.561371365593615" lon="9.219242165462314"><ele>156.4</ele><time>2026-05-02T07:46:11.987Z</time></trkpt><trkpt lat="45.561325402421545" lon="9.219088699187408"><ele>156.8</ele><time>2026-05-02T07:46:12.987Z</time></trkpt><trkpt lat="45.56128092167211" lon="9.218943199688676"><ele>157.20000000000002</ele><time>2026-05-02T07:46:13.987Z</time></trkpt><trkpt lat="45.56121142894997" lon="9.218828721680477"><ele>157.6</ele><time>2026-05-02T07:46:14.987Z</time></trkpt><trkpt lat="45.561145145733995" lon="9.218713876574077"><ele>158.0</ele><time>2026-05-02T07:46:15.987Z</time></trkpt><trkpt lat="45.56108692872978" lon="9.218598714790124"><ele>158.0</ele><time>2026-05-02T07:46:16.987Z</time></trkpt><trkpt lat="45.561029079436395" lon="9.218496860564036"><ele>158.0</ele><time>2026-05-02T07:46:17.987Z</time></trkpt><trkpt lat="45.56098134751191" lon="9.218408787937996"><ele>158.0</ele><time>2026-05-02T07:46:18.987Z</time></trkpt><trkpt lat="45.56091450929642" lon="9.218322167543391"><ele>158.0</ele><time>2026-05-02T07:46:20.987Z</time></trkpt><trkpt lat="45.56100400166274" lon="9.218185194439695"><ele>158.0</ele><time>2026-05-02T07:46:23.987Z</time></trkpt><trkpt lat="45.56104218797176" lon="9.218092351708716"><ele>157.83333333333331</ele><time>2026-05-02T07:46:33.987Z</time></trkpt><trkpt lat="45.56109808298899" lon="9.218039551072204"><ele>157.66666666666666</ele><time>2026-05-02T07:46:34.987Z</time></trkpt><trkpt lat="45.56117242991803" lon="9.217995319469573"><ele>157.5</ele><time>2026-05-02T07:46:35.987Z</time></trkpt><trkpt lat="45.56126084190122" lon="9.217975622001024"><ele>157.33333333333334</ele><time>2026-05-02T07:46:36.987Z</time></trkpt><trkpt lat="45.561347301195084" lon="9.217933589358298"><ele>157.16666666666669</ele><time>2026-05-02T07:46:37.987Z</time></trkpt><trkpt lat="45.56143537526285" lon="9.217890771726864"><ele>157.0</ele><time>2026-05-02T07:46:38.987Z</time></trkpt><trkpt lat="45.56152956050163" lon="9.217844984285367"><ele>157.8</ele><time>2026-05-02T07:46:39.987Z</time></trkpt><trkpt lat="45.56162981814147" lon="9.217794964516896"><ele>158.6</ele><time>2026-05-02T07:46:40.987Z</time></trkpt><trkpt lat="45.561725885637465" lon="9.217748405313957"><ele>159.4</ele><time>2026-05-02T07:46:41.987Z</time></trkpt><trkpt lat="45.561829279385414" lon="9.217699179930642"><ele>160.20000000000002</ele><time>2026-05-02T07:46:42.987Z</time></trkpt><trkpt lat="45.56193291851334" lon="9.217649839054511"><ele>161.0</ele><time>2026-05-02T07:46:43.987Z</time></trkpt><trkpt lat="45.56204099929426" lon="9.217598966297125"><ele>161.0</ele><time>2026-05-02T07:46:44.987Z</time></trkpt><trkpt lat="45.56214402790677" lon="9.217550275287596"><ele>161.0</ele><time>2026-05-02T07:46:45.987Z</time></trkpt><trkpt lat="45.56224222892858" lon="9.217503655285332"><ele>161.0</ele><time>2026-05-02T07:46:46.987Z</time></trkpt><trkpt lat="45.56234128160726" lon="9.217468002465553"><ele>161.0</ele><time>2026-05-02T07:46:47.987Z</time></trkpt><trkpt lat="45.562434710635365" lon="9.217417117769601"><ele>161.0</ele><time>2026-05-02T07:46:48.987Z</time></trkpt><trkpt lat="45.56252666834942" lon="9.217367671655843"><ele>161.0</ele><time>2026-05-02T07:46:49.987Z</time></trkpt><trkpt lat="45.56262542487253" lon="9.217318650721692"><ele>161.0</ele><time>2026-05-02T07:46:50.987Z</time></trkpt><trkpt lat="45.562724898409094" lon="9.217264685390644"><ele>161.0</ele><time>2026-05-02T07:46:51.987Z</time></trkpt><trkpt lat="45.5628334313052" lon="9.21723606694974"><ele>161.0</ele><time>2026-05-02T07:46:52.987Z</time></trkpt><trkpt lat="45.562921091155324" lon="9.217189306641531"><ele>161.0</ele><time>2026-05-02T07:46:53.987Z</time></trkpt><trkpt lat="45.56299328534642" lon="9.217162240801388"><ele>161.16666666666666</ele><time>2026-05-02T07:46:54.987Z</time></trkpt><trkpt lat="45.56305546658445" lon="9.217128940967282"><ele>161.33333333333331</ele><time>2026-05-02T07:46:55.987Z</time></trkpt><trkpt lat="45.563168260823666" lon="9.217063415384741"><ele>161.5</ele><time>2026-05-02T07:46:57.987Z</time></trkpt><trkpt lat="45.5632774246783" lon="9.21699664170618"><ele>161.66666666666666</ele><time>2026-05-02T07:46:59.987Z</time></trkpt><trkpt lat="45.56334718399844" lon="9.216982809804728"><ele>161.83333333333334</ele><time>2026-05-02T07:47:00.987Z</time></trkpt><trkpt lat="45.563406338564704" lon="9.216937413664072"><ele>162.0</ele><time>2026-05-02T07:47:01.987Z</time></trkpt><trkpt lat="45.56351172102829" lon="9.21687214421218"><ele>162.0</ele><time>2026-05-02T07:47:03.987Z</time></trkpt><trkpt lat="45.5636202225893" lon="9.216838854259962"><ele>162.0</ele><time>2026-05-02T07:47:05.986Z</time></trkpt><trkpt lat="45.563696080891596" lon="9.216796306099829"><ele>162.0</ele><time>2026-05-02T07:47:07.984Z</time></trkpt><trkpt lat="45.56377152871468" lon="9.216759647168265"><ele>162.0</ele><time>2026-05-02T07:47:09.985Z</time></trkpt><trkpt lat="45.56385611816477" lon="9.216723101929343"><ele>162.0</ele><time>2026-05-02T07:47:11.984Z</time></trkpt><trkpt lat="45.56391658899633" lon="9.216690804628817"><ele>162.0</ele><time>2026-05-02T07:47:13.984Z</time></trkpt><trkpt lat="45.564022246430724" lon="9.216635339783465"><ele>161.6</ele><time>2026-05-02T07:47:16.984Z</time></trkpt><trkpt lat="45.564140945640055" lon="9.216595495258826"><ele>161.2</ele><time>2026-05-02T07:47:18.985Z</time></trkpt><trkpt lat="45.56420512157885" lon="9.216565530675014"><ele>160.8</ele><time>2026-05-02T07:47:19.985Z</time></trkpt><trkpt lat="45.56428835638726" lon="9.216526112427578"><ele>160.4</ele><time>2026-05-02T07:47:21.985Z</time></trkpt><trkpt lat="45.56435038691819" lon="9.216496976482267"><ele>160.0</ele><time>2026-05-02T07:47:23.985Z</time></trkpt><trkpt lat="45.564433575029966" lon="9.216389312079011"><ele>160.0</ele><time>2026-05-02T07:47:25.985Z</time></trkpt><trkpt lat="45.56449818213062" lon="9.216354887113576"><ele>160.0</ele><time>2026-05-02T07:47:26.985Z</time></trkpt><trkpt lat="45.56457479804265" lon="9.216314959734929"><ele>160.0</ele><time>2026-05-02T07:47:27.985Z</time></trkpt><trkpt lat="45.56466178383002" lon="9.21635008464976"><ele>160.0</ele><time>2026-05-02T07:47:28.985Z</time></trkpt><trkpt lat="45.56474476465684" lon="9.2163110128558"><ele>160.0</ele><time>2026-05-02T07:47:29.985Z</time></trkpt><trkpt lat="45.564827676204764" lon="9.216271962057212"><ele>160.0</ele><time>2026-05-02T07:47:30.985Z</time></trkpt><trkpt lat="45.56490404096009" lon="9.216235994833845"><ele>160.2</ele><time>2026-05-02T07:47:31.985Z</time></trkpt><trkpt lat="45.56498404957839" lon="9.216197524272028"><ele>160.4</ele><time>2026-05-02T07:47:32.985Z</time></trkpt><trkpt lat="45.565066678267925" lon="9.21614715470289"><ele>160.60000000000002</ele><time>2026-05-02T07:47:33.985Z</time></trkpt><trkpt lat="45.565155282162884" lon="9.21610486730065"><ele>160.8</ele><time>2026-05-02T07:47:34.985Z</time></trkpt><trkpt lat="45.56524550092307" lon="9.21606556034311"><ele>161.0</ele><time>2026-05-02T07:47:35.985Z</time></trkpt><trkpt lat="45.565343906733226" lon="9.2160209129519"><ele>161.20000000000002</ele><time>2026-05-02T07:47:36.985Z</time></trkpt><trkpt lat="45.56544556339207" lon="9.215971890062287"><ele>161.4</ele><time>2026-05-02T07:47:37.985Z</time></trkpt><trkpt lat="45.565549059965136" lon="9.215921910221633"><ele>161.6</ele><time>2026-05-02T07:47:38.985Z</time></trkpt><trkpt lat="45.56565219478731" lon="9.215872104946078"><ele>161.8</ele><time>2026-05-02T07:47:39.985Z</time></trkpt><trkpt lat="45.565753634002114" lon="9.215823118595075"><ele>162.0</ele><time>2026-05-02T07:47:40.985Z</time></trkpt><trkpt lat="45.565855276054144" lon="9.215774034313169"><ele>162.0</ele><time>2026-05-02T07:47:41.985Z</time></trkpt><trkpt lat="45.56595030980644" lon="9.215728141282025"><ele>162.0</ele><time>2026-05-02T07:47:42.985Z</time></trkpt><trkpt lat="45.56603943683632" lon="9.21568510058775"><ele>162.0</ele><time>2026-05-02T07:47:43.985Z</time></trkpt><trkpt lat="45.566145614524864" lon="9.215634072338839"><ele>162.0</ele><time>2026-05-02T07:47:44.985Z</time></trkpt><trkpt lat="45.56624370090397" lon="9.215572750621947"><ele>162.0</ele><time>2026-05-02T07:47:45.985Z</time></trkpt><trkpt lat="45.56633977761883" lon="9.215524589897734"><ele>162.0</ele><time>2026-05-02T07:47:46.985Z</time></trkpt><trkpt lat="45.56641903997691" lon="9.215485815580614"><ele>162.0</ele><time>2026-05-02T07:47:47.984Z</time></trkpt><trkpt lat="45.566496579980345" lon="9.21547909191194"><ele>162.0</ele><time>2026-05-02T07:47:48.984Z</time></trkpt><trkpt lat="45.56658222058282" lon="9.215423435706771"><ele>162.0</ele><time>2026-05-02T07:47:50.984Z</time></trkpt><trkpt lat="45.56663570986799" lon="9.215375432066773"><ele>162.0</ele><time>2026-05-02T07:47:53.984Z</time></trkpt><trkpt lat="45.56670170250142" lon="9.215356132982745"><ele>162.0</ele><time>2026-05-02T07:48:08.984Z</time></trkpt><trkpt lat="45.56678037539334" lon="9.21532172709034"><ele>162.0</ele><time>2026-05-02T07:48:10.984Z</time></trkpt><trkpt lat="45.56685257220476" lon="9.215275578054161"><ele>162.0</ele><time>2026-05-02T07:48:12.984Z</time></trkpt><trkpt lat="45.56687502460724" lon="9.215144116800412"><ele>162.0</ele><time>2026-05-02T07:48:15.984Z</time></trkpt><trkpt lat="45.56684753080117" lon="9.215015452550713"><ele>162.0</ele><time>2026-05-02T07:48:17.984Z</time></trkpt><trkpt lat="45.56682015589043" lon="9.21486016336987"><ele>162.0</ele><time>2026-05-02T07:48:19.984Z</time></trkpt><trkpt lat="45.56679323139851" lon="9.214770847709119"><ele>162.0</ele><time>2026-05-02T07:48:20.984Z</time></trkpt><trkpt lat="45.56676354413638" lon="9.214681837626435"><ele>162.0</ele><time>2026-05-02T07:48:21.984Z</time></trkpt><trkpt lat="45.56674081768357" lon="9.21458945818389"><ele>162.0</ele><time>2026-05-02T07:48:22.984Z</time></trkpt><trkpt lat="45.56672177410442" lon="9.214501372104026"><ele>162.0</ele><time>2026-05-02T07:48:23.984Z</time></trkpt><trkpt lat="45.56668933645586" lon="9.21434577177375"><ele>162.0</ele><time>2026-05-02T07:48:25.984Z</time></trkpt><trkpt lat="45.5666515988635" lon="9.214234494483847"><ele>162.0</ele><time>2026-05-02T07:48:27.984Z</time></trkpt><trkpt lat="45.56662914719157" lon="9.21410584345288"><ele>162.0</ele><time>2026-05-02T07:48:29.984Z</time></trkpt><trkpt lat="45.566588283019406" lon="9.21392099466736"><ele>162.0</ele><time>2026-05-02T07:48:31.984Z</time></trkpt><trkpt lat="45.566567518784915" lon="9.213827067750909"><ele>162.0</ele><time>2026-05-02T07:48:32.984Z</time></trkpt><trkpt lat="45.566547089873204" lon="9.213734657851454"><ele>162.0</ele><time>2026-05-02T07:48:33.984Z</time></trkpt><trkpt lat="45.566529853109856" lon="9.213630743975061"><ele>162.0</ele><time>2026-05-02T07:48:34.984Z</time></trkpt><trkpt lat="45.56650598538802" lon="9.213531359286257"><ele>162.0</ele><time>2026-05-02T07:48:35.984Z</time></trkpt><trkpt lat="45.56648525939218" lon="9.213434137295373"><ele>162.0</ele><time>2026-05-02T07:48:36.984Z</time></trkpt><trkpt lat="45.56646100425482" lon="9.21333346193448"><ele>162.0</ele><time>2026-05-02T07:48:37.984Z</time></trkpt><trkpt lat="45.56643806226211" lon="9.213234438219422"><ele>162.0</ele><time>2026-05-02T07:48:38.984Z</time></trkpt><trkpt lat="45.56641607441617" lon="9.213146906220665"><ele>162.0</ele><time>2026-05-02T07:48:39.984Z</time></trkpt><trkpt lat="45.566398466400955" lon="9.213059331612277"><ele>162.0</ele><time>2026-05-02T07:48:40.984Z</time></trkpt><trkpt lat="45.56636142072232" lon="9.212914056955412"><ele>162.0</ele><time>2026-05-02T07:48:42.984Z</time></trkpt><trkpt lat="45.56633824968409" lon="9.212772031370484"><ele>162.0</ele><time>2026-05-02T07:48:44.984Z</time></trkpt><trkpt lat="45.56630020263912" lon="9.212598793493957"><ele>162.0</ele><time>2026-05-02T07:48:46.984Z</time></trkpt><trkpt lat="45.566284659965255" lon="9.212479026863733"><ele>162.0</ele><time>2026-05-02T07:48:47.984Z</time></trkpt><trkpt lat="45.56626493693984" lon="9.212363419228979"><ele>162.0</ele><time>2026-05-02T07:48:48.984Z</time></trkpt><trkpt lat="45.56623537954265" lon="9.212248615926342"><ele>162.0</ele><time>2026-05-02T07:48:49.984Z</time></trkpt><trkpt lat="45.566206050933744" lon="9.212127625073201"><ele>162.0</ele><time>2026-05-02T07:48:50.984Z</time></trkpt><trkpt lat="45.566179416011174" lon="9.212002836557595"><ele>162.0</ele><time>2026-05-02T07:48:51.984Z</time></trkpt><trkpt lat="45.5661604509434" lon="9.211887396060714"><ele>161.83333333333334</ele><time>2026-05-02T07:48:52.984Z</time></trkpt><trkpt lat="45.566132433235616" lon="9.211783232618087"><ele>161.66666666666666</ele><time>2026-05-02T07:48:53.984Z</time></trkpt><trkpt lat="45.56611214834916" lon="9.211685099882954"><ele>161.5</ele><time>2026-05-02T07:48:54.984Z</time></trkpt><trkpt lat="45.56608766133487" lon="9.211593568343014"><ele>161.33333333333331</ele><time>2026-05-02T07:48:55.984Z</time></trkpt><trkpt lat="45.56607804791525" lon="9.211497549244367"><ele>161.16666666666666</ele><time>2026-05-02T07:48:56.984Z</time></trkpt><trkpt lat="45.56605894924139" lon="9.211408943704495"><ele>161.0</ele><time>2026-05-02T07:48:57.984Z</time></trkpt><trkpt lat="45.566022871123856" lon="9.211251261550844"><ele>161.0</ele><time>2026-05-02T07:48:59.984Z</time></trkpt><trkpt lat="45.566016062775624" lon="9.211157017439183"><ele>161.0</ele><time>2026-05-02T07:49:01.984Z</time></trkpt><trkpt lat="45.56605012714027" lon="9.211074415892256"><ele>161.0</ele><time>2026-05-02T07:49:03.984Z</time></trkpt><trkpt lat="45.56611906616131" lon="9.211030473594795"><ele>161.0</ele><time>2026-05-02T07:49:04.984Z</time></trkpt><trkpt lat="45.56619185546321" lon="9.211002520776313"><ele>161.0</ele><time>2026-05-02T07:49:05.984Z</time></trkpt><trkpt lat="45.5662705799637" lon="9.21096804496318"><ele>161.0</ele><time>2026-05-02T07:49:06.984Z</time></trkpt><trkpt lat="45.566350262171056" lon="9.210925085606616"><ele>161.33333333333331</ele><time>2026-05-02T07:49:07.984Z</time></trkpt><trkpt lat="45.5664359334665" lon="9.210877175728738"><ele>161.66666666666666</ele><time>2026-05-02T07:49:08.984Z</time></trkpt><trkpt lat="45.56652262140353" lon="9.210842707643806"><ele>162.0</ele><time>2026-05-02T07:49:09.984Z</time></trkpt><trkpt lat="45.566595763225244" lon="9.210798654208563"><ele>162.33333333333334</ele><time>2026-05-02T07:49:10.984Z</time></trkpt><trkpt lat="45.56666770572111" lon="9.210766817819781"><ele>162.66666666666669</ele><time>2026-05-02T07:49:11.984Z</time></trkpt><trkpt lat="45.56674292251697" lon="9.210736555143779"><ele>163.0</ele><time>2026-05-02T07:49:12.982Z</time></trkpt><trkpt lat="45.566819278294396" lon="9.210699794136385"><ele>163.0</ele><time>2026-05-02T07:49:13.982Z</time></trkpt><trkpt lat="45.566904635575966" lon="9.210704720740894"><ele>163.0</ele><time>2026-05-02T07:49:14.982Z</time></trkpt><trkpt lat="45.566975257253155" lon="9.210668054196798"><ele>163.0</ele><time>2026-05-02T07:49:15.982Z</time></trkpt><trkpt lat="45.567039945582685" lon="9.210632029977367"><ele>163.0</ele><time>2026-05-02T07:49:16.981Z</time></trkpt><trkpt lat="45.5671676395662" lon="9.21055954959281"><ele>163.0</ele><time>2026-05-02T07:49:18.982Z</time></trkpt><trkpt lat="45.56724996916862" lon="9.210523145324663"><ele>162.66666666666669</ele><time>2026-05-02T07:49:19.982Z</time></trkpt><trkpt lat="45.567335631101905" lon="9.210486114834524"><ele>162.33333333333334</ele><time>2026-05-02T07:49:20.982Z</time></trkpt><trkpt lat="45.567418370744626" lon="9.210477095764162"><ele>162.0</ele><time>2026-05-02T07:49:21.982Z</time></trkpt><trkpt lat="45.567494036557974" lon="9.21044606403911"><ele>161.66666666666666</ele><time>2026-05-02T07:49:22.982Z</time></trkpt><trkpt lat="45.56757248985025" lon="9.210433518250275"><ele>161.33333333333331</ele><time>2026-05-02T07:49:23.982Z</time></trkpt><trkpt lat="45.56765644610494" lon="9.210395137140257"><ele>161.0</ele><time>2026-05-02T07:49:24.982Z</time></trkpt><trkpt lat="45.56773943639039" lon="9.21036289291176"><ele>161.0</ele><time>2026-05-02T07:49:25.982Z</time></trkpt><trkpt lat="45.56782321536914" lon="9.210317437419285"><ele>161.0</ele><time>2026-05-02T07:49:26.982Z</time></trkpt><trkpt lat="45.567904676585854" lon="9.210275147899754"><ele>161.0</ele><time>2026-05-02T07:49:27.982Z</time></trkpt><trkpt lat="45.56798916428619" lon="9.210238339232571"><ele>161.0</ele><time>2026-05-02T07:49:28.982Z</time></trkpt><trkpt lat="45.56807794035637" lon="9.210209683965164"><ele>161.0</ele><time>2026-05-02T07:49:29.982Z</time></trkpt><trkpt lat="45.568161158962255" lon="9.21017681111456"><ele>161.0</ele><time>2026-05-02T07:49:30.982Z</time></trkpt><trkpt lat="45.56824608824685" lon="9.210145813242796"><ele>161.4</ele><time>2026-05-02T07:49:31.982Z</time></trkpt><trkpt lat="45.568329425083064" lon="9.210110490393848"><ele>161.8</ele><time>2026-05-02T07:49:32.982Z</time></trkpt><trkpt lat="45.56841583141509" lon="9.210065443059475"><ele>162.20000000000002</ele><time>2026-05-02T07:49:33.982Z</time></trkpt><trkpt lat="45.56848544224594" lon="9.21003740000013"><ele>162.60000000000002</ele><time>2026-05-02T07:49:34.982Z</time></trkpt><trkpt lat="45.56858781700898" lon="9.209981092414342"><ele>163.0</ele><time>2026-05-02T07:49:36.982Z</time></trkpt><trkpt lat="45.56868607659278" lon="9.209980067938435"><ele>162.83333333333334</ele><time>2026-05-02T07:49:38.982Z</time></trkpt><trkpt lat="45.56876613901756" lon="9.209953253700702"><ele>162.66666666666669</ele><time>2026-05-02T07:49:41.982Z</time></trkpt><trkpt lat="45.56882609955201" lon="9.209919596643179"><ele>162.5</ele><time>2026-05-02T07:49:44.982Z</time></trkpt><trkpt lat="45.568934725428775" lon="9.209903313052482"><ele>162.33333333333334</ele><time>2026-05-02T07:50:09.982Z</time></trkpt><trkpt lat="45.56902310840196" lon="9.209881337460784"><ele>162.16666666666666</ele><time>2026-05-02T07:50:11.982Z</time></trkpt><trkpt lat="45.569088162796334" lon="9.209866678946598"><ele>162.0</ele><time>2026-05-02T07:50:13.982Z</time></trkpt><trkpt lat="45.569154409821465" lon="9.209851160552715"><ele>162.0</ele><time>2026-05-02T07:50:15.982Z</time></trkpt><trkpt lat="45.56922838113977" lon="9.209833832769768"><ele>162.0</ele><time>2026-05-02T07:50:17.982Z</time></trkpt><trkpt lat="45.56930651881763" lon="9.209815528993555"><ele>162.0</ele><time>2026-05-02T07:50:19.981Z</time></trkpt><trkpt lat="45.56940684471934" lon="9.209805277745176"><ele>162.0</ele><time>2026-05-02T07:50:21.981Z</time></trkpt><trkpt lat="45.569472469442445" lon="9.209793000446789"><ele>162.0</ele><time>2026-05-02T07:50:22.981Z</time></trkpt><trkpt lat="45.56959755547499" lon="9.209738072753"><ele>162.33333333333334</ele><time>2026-05-02T07:50:24.981Z</time></trkpt><trkpt lat="45.56966908685238" lon="9.209735841774224"><ele>162.66666666666666</ele><time>2026-05-02T07:50:25.981Z</time></trkpt><trkpt lat="45.569743022897775" lon="9.209720537474105"><ele>163.0</ele><time>2026-05-02T07:50:26.981Z</time></trkpt><trkpt lat="45.56981570697718" lon="9.209705492268263"><ele>163.33333333333331</ele><time>2026-05-02T07:50:27.981Z</time></trkpt><trkpt lat="45.56988664353657" lon="9.209690808916145"><ele>163.66666666666666</ele><time>2026-05-02T07:50:28.981Z</time></trkpt><trkpt lat="45.5700089910019" lon="9.209667045628184"><ele>164.0</ele><time>2026-05-02T07:50:30.981Z</time></trkpt><trkpt lat="45.57008101826951" lon="9.209652983867407"><ele>164.0</ele><time>2026-05-02T07:50:31.981Z</time></trkpt><trkpt lat="45.57016505190048" lon="9.20963657812324"><ele>164.0</ele><time>2026-05-02T07:50:32.981Z</time></trkpt><trkpt lat="45.57025307258039" lon="9.209619394339724"><ele>164.0</ele><time>2026-05-02T07:50:33.981Z</time></trkpt><trkpt lat="45.57033967548814" lon="9.209601898803168"><ele>164.0</ele><time>2026-05-02T07:50:34.981Z</time></trkpt><trkpt lat="45.570416604734675" lon="9.209586503088165"><ele>164.0</ele><time>2026-05-02T07:50:35.981Z</time></trkpt><trkpt lat="45.570493227053014" lon="9.209569961133667"><ele>164.0</ele><time>2026-05-02T07:50:36.981Z</time></trkpt><trkpt lat="45.57056728633737" lon="9.209554674590127"><ele>164.5</ele><time>2026-05-02T07:50:37.981Z</time></trkpt><trkpt lat="45.57064975444992" lon="9.209537652458277"><ele>165.0</ele><time>2026-05-02T07:50:38.981Z</time></trkpt><trkpt lat="45.57072707645005" lon="9.209521692489455"><ele>165.5</ele><time>2026-05-02T07:50:39.981Z</time></trkpt><trkpt lat="45.57080780625207" lon="9.20952458981005"><ele>166.0</ele><time>2026-05-02T07:50:40.981Z</time></trkpt><trkpt lat="45.570895059565366" lon="9.209518716216444"><ele>166.5</ele><time>2026-05-02T07:50:42.981Z</time></trkpt><trkpt lat="45.57095636753205" lon="9.209491497191783"><ele>167.0</ele><time>2026-05-02T07:50:44.981Z</time></trkpt><trkpt lat="45.571023277914406" lon="9.209464731982381"><ele>167.0</ele><time>2026-05-02T07:50:45.981Z</time></trkpt><trkpt lat="45.57111004256478" lon="9.209430048210361"><ele>167.0</ele><time>2026-05-02T07:50:46.981Z</time></trkpt><trkpt lat="45.571215202711514" lon="9.209401288704898"><ele>167.0</ele><time>2026-05-02T07:50:47.981Z</time></trkpt><trkpt lat="45.57132570971178" lon="9.209380638294375"><ele>167.0</ele><time>2026-05-02T07:50:48.981Z</time></trkpt><trkpt lat="45.571457476444124" lon="9.209343675811931"><ele>167.0</ele><time>2026-05-02T07:50:49.981Z</time></trkpt><trkpt lat="45.571595434909696" lon="9.209311853461505"><ele>166.5</ele><time>2026-05-02T07:50:50.981Z</time></trkpt><trkpt lat="45.57174527650464" lon="9.20930802382924"><ele>166.0</ele><time>2026-05-02T07:50:51.981Z</time></trkpt><trkpt lat="45.57189570225861" lon="9.209274307454855"><ele>165.5</ele><time>2026-05-02T07:50:52.981Z</time></trkpt><trkpt lat="45.57203890465635" lon="9.20923828234902"><ele>165.0</ele><time>2026-05-02T07:50:53.981Z</time></trkpt><trkpt lat="45.57216447175599" lon="9.209204722103198"><ele>164.4</ele><time>2026-05-02T07:50:54.981Z</time></trkpt><trkpt lat="45.57227712695916" lon="9.20916947657671"><ele>163.8</ele><time>2026-05-02T07:50:55.981Z</time></trkpt><trkpt lat="45.57238589107047" lon="9.209139669962186"><ele>163.2</ele><time>2026-05-02T07:50:56.981Z</time></trkpt><trkpt lat="45.57249308918389" lon="9.209105914301544"><ele>162.6</ele><time>2026-05-02T07:50:57.981Z</time></trkpt><trkpt lat="45.57258240665541" lon="9.209078715893416"><ele>162.0</ele><time>2026-05-02T07:50:58.981Z</time></trkpt><trkpt lat="45.572671037445026" lon="9.209050410304146"><ele>162.0</ele><time>2026-05-02T07:50:59.981Z</time></trkpt><trkpt lat="45.572759508858084" lon="9.209022288073646"><ele>162.0</ele><time>2026-05-02T07:51:00.981Z</time></trkpt><trkpt lat="45.57283280964939" lon="9.20900461701281"><ele>162.0</ele><time>2026-05-02T07:51:01.981Z</time></trkpt><trkpt lat="45.572895396176555" lon="9.20898725407338"><ele>162.0</ele><time>2026-05-02T07:51:02.981Z</time></trkpt><trkpt lat="45.57300369410299" lon="9.20895592334533"><ele>162.0</ele><time>2026-05-02T07:51:04.981Z</time></trkpt><trkpt lat="45.57310180595333" lon="9.208932160729855"><ele>162.0</ele><time>2026-05-02T07:51:06.981Z</time></trkpt><trkpt lat="45.57320147644144" lon="9.208899386489884"><ele>162.0</ele><time>2026-05-02T07:51:08.981Z</time></trkpt><trkpt lat="45.57331670338421" lon="9.208862957714869"><ele>162.0</ele><time>2026-05-02T07:51:10.981Z</time></trkpt><trkpt lat="45.57342510462348" lon="9.208823724000283"><ele>162.0</ele><time>2026-05-02T07:51:12.981Z</time></trkpt><trkpt lat="45.57350102125366" lon="9.208798780663269"><ele>162.0</ele><time>2026-05-02T07:51:13.981Z</time></trkpt><trkpt lat="45.573596195943054" lon="9.208769562360219"><ele>162.0</ele><time>2026-05-02T07:51:14.981Z</time></trkpt><trkpt lat="45.573700917647884" lon="9.208740003236993"><ele>162.75</ele><time>2026-05-02T07:51:15.981Z</time></trkpt><trkpt lat="45.57380733836795" lon="9.208708858711093"><ele>163.5</ele><time>2026-05-02T07:51:16.981Z</time></trkpt><trkpt lat="45.57392041970231" lon="9.20868115135325"><ele>164.25</ele><time>2026-05-02T07:51:17.981Z</time></trkpt><trkpt lat="45.5740465368418" lon="9.208648324430543"><ele>165.0</ele><time>2026-05-02T07:51:18.978Z</time></trkpt><trkpt lat="45.57417262007101" lon="9.208606103235276"><ele>165.0</ele><time>2026-05-02T07:51:19.978Z</time></trkpt><trkpt lat="45.57429715838636" lon="9.208570837819279"><ele>165.0</ele><time>2026-05-02T07:51:20.978Z</time></trkpt><trkpt lat="45.57442840986094" lon="9.208535873637105"><ele>165.0</ele><time>2026-05-02T07:51:21.978Z</time></trkpt><trkpt lat="45.57456179530168" lon="9.208496171728788"><ele>165.0</ele><time>2026-05-02T07:51:22.978Z</time></trkpt><trkpt lat="45.57469845502992" lon="9.208463475020915"><ele>164.75</ele><time>2026-05-02T07:51:23.978Z</time></trkpt><trkpt lat="45.57483576096508" lon="9.208426516488304"><ele>164.5</ele><time>2026-05-02T07:51:24.978Z</time></trkpt><trkpt lat="45.57497115384185" lon="9.208388050483236"><ele>164.25</ele><time>2026-05-02T07:51:25.978Z</time></trkpt><trkpt lat="45.57511089549912" lon="9.208350149114743"><ele>164.0</ele><time>2026-05-02T07:51:26.978Z</time></trkpt><trkpt lat="45.575255171687125" lon="9.208314891323544"><ele>164.0</ele><time>2026-05-02T07:51:27.978Z</time></trkpt><trkpt lat="45.57539699301952" lon="9.208282800905666"><ele>164.0</ele><time>2026-05-02T07:51:28.979Z</time></trkpt><trkpt lat="45.57553863508709" lon="9.208251444645082"><ele>164.0</ele><time>2026-05-02T07:51:29.979Z</time></trkpt><trkpt lat="45.575678029727754" lon="9.20822727047426"><ele>164.0</ele><time>2026-05-02T07:51:30.978Z</time></trkpt><trkpt lat="45.57581830123954" lon="9.208201631772699"><ele>164.0</ele><time>2026-05-02T07:51:31.978Z</time></trkpt><trkpt lat="45.5759635715919" lon="9.208175127358395"><ele>164.0</ele><time>2026-05-02T07:51:32.978Z</time></trkpt><trkpt lat="45.57610970982665" lon="9.20815269564123"><ele>164.0</ele><time>2026-05-02T07:51:33.978Z</time></trkpt><trkpt lat="45.576245246650075" lon="9.208125063520994"><ele>164.0</ele><time>2026-05-02T07:51:34.978Z</time></trkpt><trkpt lat="45.576373812210576" lon="9.208092873008573"><ele>164.25</ele><time>2026-05-02T07:51:35.978Z</time></trkpt><trkpt lat="45.576503884519575" lon="9.208058648827523"><ele>164.5</ele><time>2026-05-02T07:51:36.978Z</time></trkpt><trkpt lat="45.57664248026797" lon="9.208021742520963"><ele>164.75</ele><time>2026-05-02T07:51:37.978Z</time></trkpt><trkpt lat="45.57678257001769" lon="9.207987188027694"><ele>165.0</ele><time>2026-05-02T07:51:38.978Z</time></trkpt><trkpt lat="45.5769244957583" lon="9.207952200746666"><ele>165.75</ele><time>2026-05-02T07:51:39.978Z</time></trkpt><trkpt lat="45.57706556681641" lon="9.20791892400362"><ele>166.5</ele><time>2026-05-02T07:51:40.978Z</time></trkpt><trkpt lat="45.577208027693054" lon="9.207891526171448"><ele>167.25</ele><time>2026-05-02T07:51:41.978Z</time></trkpt><trkpt lat="45.57734718331523" lon="9.20787139431843"><ele>168.0</ele><time>2026-05-02T07:51:42.978Z</time></trkpt><trkpt lat="45.57748539257559" lon="9.207851299471146"><ele>168.0</ele><time>2026-05-02T07:51:43.978Z</time></trkpt><trkpt lat="45.57762169802758" lon="9.207846536525542"><ele>168.0</ele><time>2026-05-02T07:51:44.978Z</time></trkpt><trkpt lat="45.577757307068396" lon="9.207816234284326"><ele>168.0</ele><time>2026-05-02T07:51:45.978Z</time></trkpt><trkpt lat="45.577894260106106" lon="9.2077812860167"><ele>168.0</ele><time>2026-05-02T07:51:46.978Z</time></trkpt><trkpt lat="45.57803370473467" lon="9.207743815272975"><ele>168.75</ele><time>2026-05-02T07:51:47.978Z</time></trkpt><trkpt lat="45.57817078696822" lon="9.207701534841918"><ele>169.5</ele><time>2026-05-02T07:51:48.978Z</time></trkpt><trkpt lat="45.5782938369044" lon="9.207667683533167"><ele>170.25</ele><time>2026-05-02T07:51:49.978Z</time></trkpt><trkpt lat="45.57840523027314" lon="9.207636056523858"><ele>171.0</ele><time>2026-05-02T07:51:50.978Z</time></trkpt><trkpt lat="45.57850900616907" lon="9.207601828529901"><ele>171.0</ele><time>2026-05-02T07:51:51.978Z</time></trkpt><trkpt lat="45.57860150822985" lon="9.207555523969994"><ele>171.0</ele><time>2026-05-02T07:51:52.978Z</time></trkpt><trkpt lat="45.57869761455358" lon="9.207498216649876"><ele>171.0</ele><time>2026-05-02T07:51:53.978Z</time></trkpt><trkpt lat="45.57880181764213" lon="9.207431234661115"><ele>171.0</ele><time>2026-05-02T07:51:54.978Z</time></trkpt><trkpt lat="45.57890626891265" lon="9.207367727007995"><ele>171.0</ele><time>2026-05-02T07:51:55.978Z</time></trkpt><trkpt lat="45.57899748548482" lon="9.207309185969724"><ele>170.5</ele><time>2026-05-02T07:51:56.978Z</time></trkpt><trkpt lat="45.57907520861017" lon="9.207259707705495"><ele>170.0</ele><time>2026-05-02T07:51:57.978Z</time></trkpt><trkpt lat="45.57914302033653" lon="9.207238649371718"><ele>169.5</ele><time>2026-05-02T07:51:58.978Z</time></trkpt><trkpt lat="45.57920602857681" lon="9.207220649650885"><ele>169.0</ele><time>2026-05-02T07:51:59.978Z</time></trkpt><trkpt lat="45.57928335759282" lon="9.207240859641653"><ele>168.5</ele><time>2026-05-02T07:52:00.978Z</time></trkpt><trkpt lat="45.57937237947911" lon="9.207275202397554"><ele>168.0</ele><time>2026-05-02T07:52:01.978Z</time></trkpt><trkpt lat="45.579460574076755" lon="9.20720721452188"><ele>168.60000000000002</ele><time>2026-05-02T07:52:02.978Z</time></trkpt><trkpt lat="45.579552206664744" lon="9.207150541173121"><ele>169.20000000000002</ele><time>2026-05-02T07:52:03.978Z</time></trkpt><trkpt lat="45.5796491334348" lon="9.20709859093302"><ele>169.8</ele><time>2026-05-02T07:52:04.978Z</time></trkpt><trkpt lat="45.57975424680696" lon="9.20706929961083"><ele>170.4</ele><time>2026-05-02T07:52:05.978Z</time></trkpt><trkpt lat="45.5798697972521" lon="9.207064842057191"><ele>171.0</ele><time>2026-05-02T07:52:06.978Z</time></trkpt><trkpt lat="45.57998752673247" lon="9.207072555011395"><ele>171.0</ele><time>2026-05-02T07:52:07.978Z</time></trkpt><trkpt lat="45.58011449687148" lon="9.207085275648078"><ele>171.0</ele><time>2026-05-02T07:52:08.978Z</time></trkpt><trkpt lat="45.580241979338496" lon="9.207082283989754"><ele>171.0</ele><time>2026-05-02T07:52:09.978Z</time></trkpt><trkpt lat="45.58037265853423" lon="9.2070574175225"><ele>171.0</ele><time>2026-05-02T07:52:10.978Z</time></trkpt><trkpt lat="45.580512351741824" lon="9.207018518724304"><ele>170.75</ele><time>2026-05-02T07:52:11.978Z</time></trkpt><trkpt lat="45.580653572442145" lon="9.206974884911983"><ele>170.5</ele><time>2026-05-02T07:52:12.978Z</time></trkpt><trkpt lat="45.58079291589887" lon="9.206938808050396"><ele>170.25</ele><time>2026-05-02T07:52:13.978Z</time></trkpt><trkpt lat="45.58093087239529" lon="9.206900864368327"><ele>170.0</ele><time>2026-05-02T07:52:14.978Z</time></trkpt><trkpt lat="45.581065849489725" lon="9.206856707705949"><ele>170.25</ele><time>2026-05-02T07:52:15.978Z</time></trkpt><trkpt lat="45.581197851511476" lon="9.206810090257001"><ele>170.5</ele><time>2026-05-02T07:52:16.978Z</time></trkpt><trkpt lat="45.58133058763908" lon="9.206763574535499"><ele>170.75</ele><time>2026-05-02T07:52:17.978Z</time></trkpt><trkpt lat="45.581466643266516" lon="9.206724944958673"><ele>171.0</ele><time>2026-05-02T07:52:18.978Z</time></trkpt><trkpt lat="45.58160205866337" lon="9.206680345046548"><ele>171.0</ele><time>2026-05-02T07:52:19.978Z</time></trkpt><trkpt lat="45.581734487397085" lon="9.20663706750606"><ele>171.0</ele><time>2026-05-02T07:52:20.978Z</time></trkpt><trkpt lat="45.58187605193778" lon="9.20661944979856"><ele>171.0</ele><time>2026-05-02T07:52:21.978Z</time></trkpt><trkpt lat="45.582017007383" lon="9.206579189733315"><ele>171.0</ele><time>2026-05-02T07:52:22.978Z</time></trkpt><trkpt lat="45.582156690966535" lon="9.20654105271178"><ele>171.5</ele><time>2026-05-02T07:52:23.978Z</time></trkpt><trkpt lat="45.58229935744089" lon="9.20650060299931"><ele>172.0</ele><time>2026-05-02T07:52:24.978Z</time></trkpt><trkpt lat="45.582434655024855" lon="9.20646021899402"><ele>172.5</ele><time>2026-05-02T07:52:25.978Z</time></trkpt><trkpt lat="45.58256331233484" lon="9.206425088495745"><ele>173.0</ele><time>2026-05-02T07:52:26.978Z</time></trkpt><trkpt lat="45.58268381724095" lon="9.20638923341644"><ele>173.0</ele><time>2026-05-02T07:52:27.978Z</time></trkpt><trkpt lat="45.5828020928247" lon="9.206349439741539"><ele>173.0</ele><time>2026-05-02T07:52:28.978Z</time></trkpt><trkpt lat="45.58292275578266" lon="9.206317202593407"><ele>173.0</ele><time>2026-05-02T07:52:29.978Z</time></trkpt><trkpt lat="45.583046159626264" lon="9.206281677732244"><ele>173.0</ele><time>2026-05-02T07:52:30.978Z</time></trkpt><trkpt lat="45.58317123634494" lon="9.206245428827465"><ele>172.75</ele><time>2026-05-02T07:52:31.978Z</time></trkpt><trkpt lat="45.58329681166496" lon="9.206227878859753"><ele>172.5</ele><time>2026-05-02T07:52:32.978Z</time></trkpt><trkpt lat="45.583422446084626" lon="9.20619521537979"><ele>172.25</ele><time>2026-05-02T07:52:33.978Z</time></trkpt><trkpt lat="45.58353449659517" lon="9.206159874242633"><ele>172.0</ele><time>2026-05-02T07:52:34.978Z</time></trkpt><trkpt lat="45.58364054165598" lon="9.206129438656832"><ele>172.0</ele><time>2026-05-02T07:52:35.977Z</time></trkpt><trkpt lat="45.583730374106885" lon="9.206106677757653"><ele>172.0</ele><time>2026-05-02T07:52:36.977Z</time></trkpt><trkpt lat="45.58380574707397" lon="9.206076720936295"><ele>172.0</ele><time>2026-05-02T07:52:37.977Z</time></trkpt><trkpt lat="45.5838702223862" lon="9.20605451232072"><ele>172.0</ele><time>2026-05-02T07:52:38.977Z</time></trkpt><trkpt lat="45.583985012906766" lon="9.206044624347088"><ele>172.0</ele><time>2026-05-02T07:52:40.977Z</time></trkpt><trkpt lat="45.58410009361084" lon="9.206037445393944"><ele>172.0</ele><time>2026-05-02T07:52:42.977Z</time></trkpt><trkpt lat="45.584161261404" lon="9.206066002295389"><ele>172.0</ele><time>2026-05-02T07:52:43.977Z</time></trkpt><trkpt lat="45.58422013185366" lon="9.206103022744314"><ele>172.0</ele><time>2026-05-02T07:52:44.977Z</time></trkpt><trkpt lat="45.584279971835684" lon="9.206141411876409"><ele>172.0</ele><time>2026-05-02T07:52:45.977Z</time></trkpt><trkpt lat="45.58434236468417" lon="9.206155139441517"><ele>172.0</ele><time>2026-05-02T07:52:46.977Z</time></trkpt><trkpt lat="45.5844578230685" lon="9.206100148906842"><ele>172.0</ele><time>2026-05-02T07:52:48.977Z</time></trkpt><trkpt lat="45.58451822306543" lon="9.205946390470467"><ele>172.0</ele><time>2026-05-02T07:52:50.977Z</time></trkpt><trkpt lat="45.58451313940669" lon="9.205836471771894"><ele>172.0</ele><time>2026-05-02T07:52:51.977Z</time></trkpt><trkpt lat="45.58449661621863" lon="9.205715410915687"><ele>172.0</ele><time>2026-05-02T07:52:52.977Z</time></trkpt><trkpt lat="45.58448294893955" lon="9.205579163611432"><ele>172.0</ele><time>2026-05-02T07:52:53.977Z</time></trkpt><trkpt lat="45.584474560212875" lon="9.205447619295084"><ele>172.0</ele><time>2026-05-02T07:52:54.977Z</time></trkpt><trkpt lat="45.58446867339722" lon="9.205315875848683"><ele>172.0</ele><time>2026-05-02T07:52:55.977Z</time></trkpt><trkpt lat="45.58446485050283" lon="9.205176808964419"><ele>172.2</ele><time>2026-05-02T07:52:56.977Z</time></trkpt><trkpt lat="45.58445742261166" lon="9.205032394361739"><ele>172.39999999999998</ele><time>2026-05-02T07:52:57.977Z</time></trkpt><trkpt lat="45.58442881508522" lon="9.204890541819495"><ele>172.60000000000002</ele><time>2026-05-02T07:52:58.977Z</time></trkpt><trkpt lat="45.584426811883695" lon="9.204744713810197"><ele>172.8</ele><time>2026-05-02T07:52:59.977Z</time></trkpt><trkpt lat="45.5844046549595" lon="9.204604449270732"><ele>173.0</ele><time>2026-05-02T07:53:00.977Z</time></trkpt><trkpt lat="45.584378895985644" lon="9.204457196614994"><ele>173.0</ele><time>2026-05-02T07:53:01.977Z</time></trkpt><trkpt lat="45.584357323003225" lon="9.20430588990498"><ele>173.0</ele><time>2026-05-02T07:53:02.977Z</time></trkpt><trkpt lat="45.584334487833566" lon="9.20414849114729"><ele>173.0</ele><time>2026-05-02T07:53:03.977Z</time></trkpt><trkpt lat="45.58430999755295" lon="9.203984717410014"><ele>173.0</ele><time>2026-05-02T07:53:04.977Z</time></trkpt><trkpt lat="45.58428703186694" lon="9.203820186088345"><ele>172.8</ele><time>2026-05-02T07:53:05.977Z</time></trkpt><trkpt lat="45.58426343199656" lon="9.20366583153989"><ele>172.60000000000002</ele><time>2026-05-02T07:53:06.977Z</time></trkpt><trkpt lat="45.58424689029407" lon="9.203522302917227"><ele>172.39999999999998</ele><time>2026-05-02T07:53:07.977Z</time></trkpt><trkpt lat="45.58422680398796" lon="9.203395286417027"><ele>172.2</ele><time>2026-05-02T07:53:08.977Z</time></trkpt><trkpt lat="45.584208593248896" lon="9.203273750220081"><ele>172.0</ele><time>2026-05-02T07:53:09.977Z</time></trkpt><trkpt lat="45.58418302552711" lon="9.203170868639603"><ele>172.39999999999998</ele><time>2026-05-02T07:53:10.977Z</time></trkpt><trkpt lat="45.584146288896754" lon="9.203008806835008"><ele>172.79999999999998</ele><time>2026-05-02T07:53:12.977Z</time></trkpt><trkpt lat="45.58414411589376" lon="9.202915584732384"><ele>173.2</ele><time>2026-05-02T07:53:13.977Z</time></trkpt><trkpt lat="45.58412686709361" lon="9.20279270465082"><ele>173.6</ele><time>2026-05-02T07:53:14.977Z</time></trkpt><trkpt lat="45.584052278422945" lon="9.202658186463161"><ele>174.0</ele><time>2026-05-02T07:53:15.977Z</time></trkpt><trkpt lat="45.58402717970011" lon="9.202505540519509"><ele>174.0</ele><time>2026-05-02T07:53:16.977Z</time></trkpt><trkpt lat="45.58401393031538" lon="9.202352170462186"><ele>174.0</ele><time>2026-05-02T07:53:17.977Z</time></trkpt><trkpt lat="45.58399836398423" lon="9.202208269269994"><ele>174.0</ele><time>2026-05-02T07:53:18.977Z</time></trkpt><trkpt lat="45.584018368959384" lon="9.202064254291196"><ele>174.0</ele><time>2026-05-02T07:53:19.977Z</time></trkpt><trkpt lat="45.58399978632627" lon="9.201942739170162"><ele>174.0</ele><time>2026-05-02T07:53:20.977Z</time></trkpt><trkpt lat="45.58398124353648" lon="9.201826976573978"><ele>173.83333333333334</ele><time>2026-05-02T07:53:21.977Z</time></trkpt><trkpt lat="45.58396183491772" lon="9.201707786747848"><ele>173.66666666666666</ele><time>2026-05-02T07:53:22.977Z</time></trkpt><trkpt lat="45.58394205285397" lon="9.201586303388885"><ele>173.5</ele><time>2026-05-02T07:53:23.977Z</time></trkpt><trkpt lat="45.583922277818395" lon="9.201464863287354"><ele>173.33333333333331</ele><time>2026-05-02T07:53:24.975Z</time></trkpt><trkpt lat="45.5839027457741" lon="9.201344915512522"><ele>173.16666666666666</ele><time>2026-05-02T07:53:25.975Z</time></trkpt><trkpt lat="45.58389315737236" lon="9.201201615431488"><ele>173.0</ele><time>2026-05-02T07:53:26.975Z</time></trkpt><trkpt lat="45.58387185159101" lon="9.201065406267562"><ele>172.8</ele><time>2026-05-02T07:53:27.975Z</time></trkpt><trkpt lat="45.58384805516908" lon="9.200929055989963"><ele>172.60000000000002</ele><time>2026-05-02T07:53:28.975Z</time></trkpt><trkpt lat="45.583823699891106" lon="9.200792152651783"><ele>172.39999999999998</ele><time>2026-05-02T07:53:29.975Z</time></trkpt><trkpt lat="45.583803016980596" lon="9.20065450260868"><ele>172.2</ele><time>2026-05-02T07:53:30.975Z</time></trkpt><trkpt lat="45.583779907083915" lon="9.200517853172602"><ele>172.0</ele><time>2026-05-02T07:53:31.975Z</time></trkpt><trkpt lat="45.58375530093507" lon="9.200391686992173"><ele>172.0</ele><time>2026-05-02T07:53:32.975Z</time></trkpt><trkpt lat="45.58373751684612" lon="9.200279382833337"><ele>172.0</ele><time>2026-05-02T07:53:33.975Z</time></trkpt><trkpt lat="45.58371788921625" lon="9.200180830359157"><ele>172.0</ele><time>2026-05-02T07:53:34.975Z</time></trkpt><trkpt lat="45.58368872839368" lon="9.20003491683039"><ele>172.0</ele><time>2026-05-02T07:53:36.975Z</time></trkpt><trkpt lat="45.58367924132136" lon="9.19992178845955"><ele>172.0</ele><time>2026-05-02T07:53:38.974Z</time></trkpt><trkpt lat="45.58366080051411" lon="9.199799602775181"><ele>172.0</ele><time>2026-05-02T07:53:41.974Z</time></trkpt><trkpt lat="45.583638717014104" lon="9.199700911730572"><ele>172.16666666666669</ele><time>2026-05-02T07:53:44.974Z</time></trkpt><trkpt lat="45.58362406415005" lon="9.199603804840741"><ele>172.33333333333334</ele><time>2026-05-02T07:53:46.974Z</time></trkpt><trkpt lat="45.58364977536795" lon="9.199517429173689"><ele>172.5</ele><time>2026-05-02T07:53:47.974Z</time></trkpt><trkpt lat="45.58364086340571" lon="9.199417788311225"><ele>172.66666666666666</ele><time>2026-05-02T07:53:48.974Z</time></trkpt><trkpt lat="45.58361516791386" lon="9.1993239562492"><ele>172.83333333333331</ele><time>2026-05-02T07:53:49.974Z</time></trkpt><trkpt lat="45.58354556148281" lon="9.199228454543192"><ele>173.0</ele><time>2026-05-02T07:53:50.974Z</time></trkpt><trkpt lat="45.58353517584763" lon="9.199092714693707"><ele>172.75</ele><time>2026-05-02T07:53:51.974Z</time></trkpt><trkpt lat="45.58348930214843" lon="9.198935280685884"><ele>172.5</ele><time>2026-05-02T07:53:52.974Z</time></trkpt><trkpt lat="45.58345876107575" lon="9.19876747396701"><ele>172.25</ele><time>2026-05-02T07:53:53.974Z</time></trkpt><trkpt lat="45.58345724694363" lon="9.198577086274286"><ele>172.0</ele><time>2026-05-02T07:53:54.974Z</time></trkpt><trkpt lat="45.58342667799537" lon="9.198393362186295"><ele>172.0</ele><time>2026-05-02T07:53:55.974Z</time></trkpt><trkpt lat="45.583396959391536" lon="9.198211234127488"><ele>172.0</ele><time>2026-05-02T07:53:56.974Z</time></trkpt><trkpt lat="45.58336849297175" lon="9.198038631021518"><ele>172.0</ele><time>2026-05-02T07:53:57.974Z</time></trkpt><trkpt lat="45.58333886924267" lon="9.19786069140584"><ele>172.0</ele><time>2026-05-02T07:53:58.974Z</time></trkpt><trkpt lat="45.583309750661144" lon="9.197686135859904"><ele>172.0</ele><time>2026-05-02T07:53:59.974Z</time></trkpt><trkpt lat="45.58326798358647" lon="9.197519337524595"><ele>172.0</ele><time>2026-05-02T07:54:00.974Z</time></trkpt><trkpt lat="45.583246556706236" lon="9.197347271158176"><ele>172.0</ele><time>2026-05-02T07:54:01.974Z</time></trkpt><trkpt lat="45.58322337045605" lon="9.197186090803875"><ele>172.0</ele><time>2026-05-02T07:54:02.974Z</time></trkpt><trkpt lat="45.58319725333569" lon="9.197037047672184"><ele>172.0</ele><time>2026-05-02T07:54:03.974Z</time></trkpt><trkpt lat="45.58317932524033" lon="9.196889243913652"><ele>172.0</ele><time>2026-05-02T07:54:04.974Z</time></trkpt><trkpt lat="45.58316512041223" lon="9.196741779447338"><ele>172.0</ele><time>2026-05-02T07:54:05.974Z</time></trkpt><trkpt lat="45.58315352346864" lon="9.196603215983094"><ele>172.0</ele><time>2026-05-02T07:54:06.974Z</time></trkpt><trkpt lat="45.58315044264181" lon="9.196467745389825"><ele>172.0</ele><time>2026-05-02T07:54:07.974Z</time></trkpt><trkpt lat="45.58315717550543" lon="9.196337003070168"><ele>171.85714285714286</ele><time>2026-05-02T07:54:08.974Z</time></trkpt><trkpt lat="45.58316574719178" lon="9.196217561397695"><ele>171.71428571428572</ele><time>2026-05-02T07:54:09.974Z</time></trkpt><trkpt lat="45.583179117219125" lon="9.196113628078514"><ele>171.57142857142856</ele><time>2026-05-02T07:54:10.974Z</time></trkpt><trkpt lat="45.58320311867625" lon="9.196019495575767"><ele>171.42857142857144</ele><time>2026-05-02T07:54:12.974Z</time></trkpt><trkpt lat="45.58321240573034" lon="9.195926332013256"><ele>171.28571428571428</ele><time>2026-05-02T07:54:15.974Z</time></trkpt><trkpt lat="45.583227012276296" lon="9.195831255841213"><ele>171.14285714285714</ele><time>2026-05-02T07:54:16.974Z</time></trkpt><trkpt lat="45.5832481989967" lon="9.195724269008746"><ele>171.0</ele><time>2026-05-02T07:54:17.974Z</time></trkpt><trkpt lat="45.58326449781382" lon="9.195628196770555"><ele>171.0</ele><time>2026-05-02T07:54:18.974Z</time></trkpt><trkpt lat="45.583298841186426" lon="9.195507298486119"><ele>171.0</ele><time>2026-05-02T07:54:20.974Z</time></trkpt><trkpt lat="45.58331361134409" lon="9.195416080627938"><ele>171.0</ele><time>2026-05-02T07:54:29.974Z</time></trkpt><trkpt lat="45.58334544104732" lon="9.19532413187685"><ele>171.0</ele><time>2026-05-02T07:55:14.974Z</time></trkpt><trkpt lat="45.58337840557494" lon="9.195194120060652"><ele>171.0</ele><time>2026-05-02T07:55:16.974Z</time></trkpt><trkpt lat="45.583428405721804" lon="9.195096506641503"><ele>171.0</ele><time>2026-05-02T07:55:18.974Z</time></trkpt><trkpt lat="45.583531997897516" lon="9.195063564827922"><ele>171.0</ele><time>2026-05-02T07:55:20.974Z</time></trkpt><trkpt lat="45.58360859679519" lon="9.19508670211287"><ele>171.0</ele><time>2026-05-02T07:55:21.974Z</time></trkpt><trkpt lat="45.583706095984766" lon="9.195122123429416"><ele>171.0</ele><time>2026-05-02T07:55:22.974Z</time></trkpt><trkpt lat="45.5838166865103" lon="9.195160075337611"><ele>171.0</ele><time>2026-05-02T07:55:23.974Z</time></trkpt><trkpt lat="45.58394204840939" lon="9.195204158902516"><ele>171.0</ele><time>2026-05-02T07:55:24.974Z</time></trkpt><trkpt lat="45.58407902497597" lon="9.195246167334583"><ele>171.25</ele><time>2026-05-02T07:55:25.974Z</time></trkpt><trkpt lat="45.58420974152748" lon="9.195287747549783"><ele>171.5</ele><time>2026-05-02T07:55:26.974Z</time></trkpt><trkpt lat="45.584337131751525" lon="9.195323851270022"><ele>171.75</ele><time>2026-05-02T07:55:27.974Z</time></trkpt><trkpt lat="45.58446180056752" lon="9.195357170713988"><ele>172.0</ele><time>2026-05-02T07:55:28.974Z</time></trkpt><trkpt lat="45.584582824548114" lon="9.195399792951875"><ele>172.0</ele><time>2026-05-02T07:55:29.974Z</time></trkpt><trkpt lat="45.58470383188436" lon="9.195441741207603"><ele>172.0</ele><time>2026-05-02T07:55:30.972Z</time></trkpt><trkpt lat="45.58482437418492" lon="9.195487337125739"><ele>172.0</ele><time>2026-05-02T07:55:31.972Z</time></trkpt><trkpt lat="45.58494589309385" lon="9.19553207409377"><ele>172.0</ele><time>2026-05-02T07:55:32.972Z</time></trkpt><trkpt lat="45.585073152588144" lon="9.195577278189493"><ele>172.0</ele><time>2026-05-02T07:55:33.973Z</time></trkpt><trkpt lat="45.5852007957957" lon="9.195615212784164"><ele>172.0</ele><time>2026-05-02T07:55:34.972Z</time></trkpt><trkpt lat="45.58533433697808" lon="9.195655693968346"><ele>172.0</ele><time>2026-05-02T07:55:35.972Z</time></trkpt><trkpt lat="45.58546837141401" lon="9.195697902215665"><ele>172.0</ele><time>2026-05-02T07:55:36.972Z</time></trkpt><trkpt lat="45.58559757243505" lon="9.195763134954337"><ele>171.75</ele><time>2026-05-02T07:55:37.972Z</time></trkpt><trkpt lat="45.58573072944945" lon="9.195808689865487"><ele>171.5</ele><time>2026-05-02T07:55:38.972Z</time></trkpt><trkpt lat="45.58586507500554" lon="9.195854739132148"><ele>171.25</ele><time>2026-05-02T07:55:39.972Z</time></trkpt><trkpt lat="45.586002801388766" lon="9.195901947205352"><ele>171.0</ele><time>2026-05-02T07:55:40.972Z</time></trkpt><trkpt lat="45.58612756698218" lon="9.19595674165136"><ele>171.5</ele><time>2026-05-02T07:55:41.972Z</time></trkpt><trkpt lat="45.58627032733102" lon="9.196003683411893"><ele>172.0</ele><time>2026-05-02T07:55:42.972Z</time></trkpt><trkpt lat="45.58640505822797" lon="9.19604863369966"><ele>172.5</ele><time>2026-05-02T07:55:43.972Z</time></trkpt><trkpt lat="45.58653964125428" lon="9.196090276530814"><ele>173.0</ele><time>2026-05-02T07:55:44.972Z</time></trkpt><trkpt lat="45.58666859287448" lon="9.196128026805233"><ele>173.0</ele><time>2026-05-02T07:55:45.972Z</time></trkpt><trkpt lat="45.58678772701247" lon="9.196164888639464"><ele>173.0</ele><time>2026-05-02T07:55:46.972Z</time></trkpt><trkpt lat="45.586902133510705" lon="9.196200703072304"><ele>173.0</ele><time>2026-05-02T07:55:47.971Z</time></trkpt><trkpt lat="45.58701680899145" lon="9.196244288887353"><ele>173.0</ele><time>2026-05-02T07:55:48.971Z</time></trkpt><trkpt lat="45.5871378515814" lon="9.196283257596642"><ele>174.25</ele><time>2026-05-02T07:55:49.971Z</time></trkpt><trkpt lat="45.587259551274954" lon="9.196322567937433"><ele>175.5</ele><time>2026-05-02T07:55:50.971Z</time></trkpt><trkpt lat="45.587385833913814" lon="9.196361371633511"><ele>176.75</ele><time>2026-05-02T07:55:51.971Z</time></trkpt><trkpt lat="45.587510392753245" lon="9.196398207573088"><ele>178.0</ele><time>2026-05-02T07:55:52.971Z</time></trkpt><trkpt lat="45.587631221945585" lon="9.196436375249208"><ele>178.0</ele><time>2026-05-02T07:55:53.971Z</time></trkpt><trkpt lat="45.5877454796663" lon="9.19649717618343"><ele>178.0</ele><time>2026-05-02T07:55:54.971Z</time></trkpt><trkpt lat="45.58784569088031" lon="9.196542493635638"><ele>178.0</ele><time>2026-05-02T07:55:55.971Z</time></trkpt><trkpt lat="45.58795943207424" lon="9.196577390021895"><ele>178.0</ele><time>2026-05-02T07:55:56.971Z</time></trkpt><trkpt lat="45.58808153339197" lon="9.196615525146347"><ele>177.75</ele><time>2026-05-02T07:55:57.971Z</time></trkpt><trkpt lat="45.588204937026475" lon="9.196650818464853"><ele>177.5</ele><time>2026-05-02T07:55:58.971Z</time></trkpt><trkpt lat="45.58832207084261" lon="9.196690913865615"><ele>177.25</ele><time>2026-05-02T07:55:59.971Z</time></trkpt><trkpt lat="45.58843276859543" lon="9.196726363814566"><ele>177.0</ele><time>2026-05-02T07:56:00.971Z</time></trkpt><trkpt lat="45.58852622544768" lon="9.196794350469116"><ele>177.0</ele><time>2026-05-02T07:56:01.971Z</time></trkpt><trkpt lat="45.58863471632062" lon="9.196831671451577"><ele>177.0</ele><time>2026-05-02T07:56:02.971Z</time></trkpt><trkpt lat="45.58874947118414" lon="9.19685917099336"><ele>177.0</ele><time>2026-05-02T07:56:03.971Z</time></trkpt><trkpt lat="45.588861798443226" lon="9.196883495032901"><ele>177.0</ele><time>2026-05-02T07:56:04.971Z</time></trkpt><trkpt lat="45.588970793591976" lon="9.196906125669557"><ele>177.0</ele><time>2026-05-02T07:56:05.971Z</time></trkpt><trkpt lat="45.589077077766795" lon="9.196928418411098"><ele>177.0</ele><time>2026-05-02T07:56:06.971Z</time></trkpt><trkpt lat="45.589178469443354" lon="9.196952504388097"><ele>177.0</ele><time>2026-05-02T07:56:07.971Z</time></trkpt><trkpt lat="45.58926912831969" lon="9.196978824049951"><ele>177.0</ele><time>2026-05-02T07:56:08.971Z</time></trkpt><trkpt lat="45.58935218808226" lon="9.196997839594808"><ele>177.0</ele><time>2026-05-02T07:56:09.971Z</time></trkpt><trkpt lat="45.58942806429075" lon="9.197042236595795"><ele>177.0</ele><time>2026-05-02T07:56:10.971Z</time></trkpt><trkpt lat="45.589494979525426" lon="9.197077393061301"><ele>177.0</ele><time>2026-05-02T07:56:11.971Z</time></trkpt><trkpt lat="45.58957568010804" lon="9.197098140801883"><ele>177.0</ele><time>2026-05-02T07:56:12.971Z</time></trkpt><trkpt lat="45.589652188691296" lon="9.197126609944908"><ele>177.0</ele><time>2026-05-02T07:56:13.971Z</time></trkpt><trkpt lat="45.5897216136105" lon="9.197148226911391"><ele>177.0</ele><time>2026-05-02T07:56:14.971Z</time></trkpt><trkpt lat="45.58979093869215" lon="9.197174516038256"><ele>177.0</ele><time>2026-05-02T07:56:15.971Z</time></trkpt><trkpt lat="45.58985715714244" lon="9.197185157327832"><ele>177.0</ele><time>2026-05-02T07:56:16.971Z</time></trkpt><trkpt lat="45.589924234912715" lon="9.19720636132191"><ele>177.0</ele><time>2026-05-02T07:56:17.971Z</time></trkpt><trkpt lat="45.590036500949054" lon="9.197243983618154"><ele>177.0</ele><time>2026-05-02T07:56:19.971Z</time></trkpt><trkpt lat="45.59012309238634" lon="9.197312847456553"><ele>177.0</ele><time>2026-05-02T07:56:21.971Z</time></trkpt><trkpt lat="45.59021531724394" lon="9.197348532967023"><ele>177.0</ele><time>2026-05-02T07:56:23.971Z</time></trkpt><trkpt lat="45.59028167892572" lon="9.19736685696977"><ele>177.0</ele><time>2026-05-02T07:56:24.971Z</time></trkpt><trkpt lat="45.59034944627423" lon="9.197385200027197"><ele>177.0</ele><time>2026-05-02T07:56:25.971Z</time></trkpt><trkpt lat="45.59043023579733" lon="9.197406775710295"><ele>177.14285714285714</ele><time>2026-05-02T07:56:26.971Z</time></trkpt><trkpt lat="45.590509016891765" lon="9.197432842741835"><ele>177.28571428571428</ele><time>2026-05-02T07:56:27.971Z</time></trkpt><trkpt lat="45.590581048317524" lon="9.197456387606215"><ele>177.42857142857142</ele><time>2026-05-02T07:56:28.971Z</time></trkpt><trkpt lat="45.590650116511455" lon="9.19748040147311"><ele>177.57142857142856</ele><time>2026-05-02T07:56:29.971Z</time></trkpt><trkpt lat="45.59071667794928" lon="9.197500233359422"><ele>177.71428571428572</ele><time>2026-05-02T07:56:30.971Z</time></trkpt><trkpt lat="45.59078038582703" lon="9.197517706534004"><ele>177.85714285714283</ele><time>2026-05-02T07:56:31.971Z</time></trkpt><trkpt lat="45.590845803951005" lon="9.197535364381213"><ele>178.0</ele><time>2026-05-02T07:56:32.971Z</time></trkpt><trkpt lat="45.59090257277276" lon="9.19758553942184"><ele>178.0</ele><time>2026-05-02T07:56:33.971Z</time></trkpt><trkpt lat="45.5909786341816" lon="9.197611220246015"><ele>178.0</ele><time>2026-05-02T07:56:34.971Z</time></trkpt><trkpt lat="45.5910454350758" lon="9.197631736098273"><ele>178.0</ele><time>2026-05-02T07:56:35.971Z</time></trkpt><trkpt lat="45.5911623816925" lon="9.197665258031298"><ele>178.0</ele><time>2026-05-02T07:56:37.971Z</time></trkpt><trkpt lat="45.59127145216018" lon="9.19769937096681"><ele>178.0</ele><time>2026-05-02T07:56:39.971Z</time></trkpt><trkpt lat="45.591365327979894" lon="9.197722871699012"><ele>177.99999999999997</ele><time>2026-05-02T07:56:41.971Z</time></trkpt><trkpt lat="45.59142738269013" lon="9.197774731060877"><ele>178.0</ele><time>2026-05-02T07:56:43.971Z</time></trkpt><trkpt lat="45.59149938956373" lon="9.197779983595387"><ele>178.0</ele><time>2026-05-02T07:56:45.971Z</time></trkpt><trkpt lat="45.5915606595115" lon="9.197815801487792"><ele>178.0</ele><time>2026-05-02T07:56:47.971Z</time></trkpt><trkpt lat="45.59162908553573" lon="9.19782726968801"><ele>178.0</ele><time>2026-05-02T07:56:50.971Z</time></trkpt><trkpt lat="45.59171164331006" lon="9.19785761182935"><ele>177.99999999999997</ele><time>2026-05-02T07:56:54.971Z</time></trkpt><trkpt lat="45.59178349545775" lon="9.197878333335897"><ele>178.0</ele><time>2026-05-02T07:57:05.971Z</time></trkpt><trkpt lat="45.591846966824676" lon="9.197914861648531"><ele>178.0</ele><time>2026-05-02T07:57:08.971Z</time></trkpt><trkpt lat="45.591920853297815" lon="9.197923313803878"><ele>178.0</ele><time>2026-05-02T07:57:13.971Z</time></trkpt><trkpt lat="45.59204547289883" lon="9.19796297422497"><ele>178.0</ele><time>2026-05-02T07:57:15.971Z</time></trkpt><trkpt lat="45.59211596459552" lon="9.197980243247299"><ele>178.0</ele><time>2026-05-02T07:57:16.971Z</time></trkpt><trkpt lat="45.592191124725325" lon="9.198023467029913"><ele>178.0</ele><time>2026-05-02T07:57:17.971Z</time></trkpt><trkpt lat="45.59227126310687" lon="9.198048505839889"><ele>178.0</ele><time>2026-05-02T07:57:18.971Z</time></trkpt><trkpt lat="45.59235910878932" lon="9.198076548304792"><ele>177.8</ele><time>2026-05-02T07:57:19.971Z</time></trkpt><trkpt lat="45.59243407716112" lon="9.198115036213213"><ele>177.60000000000002</ele><time>2026-05-02T07:57:20.971Z</time></trkpt><trkpt lat="45.592528412744606" lon="9.198144681905783"><ele>177.39999999999998</ele><time>2026-05-02T07:57:21.971Z</time></trkpt><trkpt lat="45.59262510316298" lon="9.19817394089123"><ele>177.2</ele><time>2026-05-02T07:57:22.971Z</time></trkpt><trkpt lat="45.592719753111034" lon="9.198201008320371"><ele>177.0</ele><time>2026-05-02T07:57:23.971Z</time></trkpt><trkpt lat="45.59281685420344" lon="9.198225464069244"><ele>177.0</ele><time>2026-05-02T07:57:24.971Z</time></trkpt><trkpt lat="45.592914476877354" lon="9.19825658555223"><ele>177.0</ele><time>2026-05-02T07:57:25.971Z</time></trkpt><trkpt lat="45.5930148254536" lon="9.1982838412334"><ele>177.0</ele><time>2026-05-02T07:57:26.971Z</time></trkpt><trkpt lat="45.593114817296275" lon="9.198309829145805"><ele>177.0</ele><time>2026-05-02T07:57:27.971Z</time></trkpt><trkpt lat="45.59321338762381" lon="9.198337825309562"><ele>177.0</ele><time>2026-05-02T07:57:28.971Z</time></trkpt><trkpt lat="45.593315989684626" lon="9.198368367224342"><ele>177.0</ele><time>2026-05-02T07:57:29.971Z</time></trkpt><trkpt lat="45.5934196205275" lon="9.19840124137872"><ele>177.0</ele><time>2026-05-02T07:57:30.971Z</time></trkpt><trkpt lat="45.59352246961241" lon="9.198431690951896"><ele>177.0</ele><time>2026-05-02T07:57:31.971Z</time></trkpt><trkpt lat="45.593610523898974" lon="9.198486048826567"><ele>177.0</ele><time>2026-05-02T07:57:32.971Z</time></trkpt><trkpt lat="45.593706041002534" lon="9.19850856145546"><ele>177.0</ele><time>2026-05-02T07:57:33.971Z</time></trkpt><trkpt lat="45.59380797755104" lon="9.198536757609732"><ele>177.75</ele><time>2026-05-02T07:57:34.971Z</time></trkpt><trkpt lat="45.593926476402295" lon="9.198579342008742"><ele>178.5</ele><time>2026-05-02T07:57:35.971Z</time></trkpt><trkpt lat="45.594054474173774" lon="9.198624206511086"><ele>179.25</ele><time>2026-05-02T07:57:36.97Z</time></trkpt><trkpt lat="45.59418151318269" lon="9.19866784744104"><ele>180.0</ele><time>2026-05-02T07:57:37.969Z</time></trkpt><trkpt lat="45.59430409243847" lon="9.19870549185326"><ele>180.0</ele><time>2026-05-02T07:57:38.969Z</time></trkpt><trkpt lat="45.59441856908849" lon="9.198740569515355"><ele>180.0</ele><time>2026-05-02T07:57:39.97Z</time></trkpt><trkpt lat="45.594527179466006" lon="9.198775077437006"><ele>180.0</ele><time>2026-05-02T07:57:40.97Z</time></trkpt><trkpt lat="45.59463252102217" lon="9.19880637618725"><ele>180.0</ele><time>2026-05-02T07:57:41.97Z</time></trkpt><trkpt lat="45.59473259354142" lon="9.198830976643563"><ele>180.0</ele><time>2026-05-02T07:57:42.97Z</time></trkpt><trkpt lat="45.59483093701168" lon="9.198854180840065"><ele>179.8</ele><time>2026-05-02T07:57:43.969Z</time></trkpt><trkpt lat="45.59492762040644" lon="9.198882041652043"><ele>179.6</ele><time>2026-05-02T07:57:44.969Z</time></trkpt><trkpt lat="45.595016360091485" lon="9.198907292630697"><ele>179.39999999999998</ele><time>2026-05-02T07:57:45.97Z</time></trkpt><trkpt lat="45.595087312515695" lon="9.198953340724227"><ele>179.2</ele><time>2026-05-02T07:57:46.969Z</time></trkpt><trkpt lat="45.59515901181855" lon="9.19897597515432"><ele>179.0</ele><time>2026-05-02T07:57:47.969Z</time></trkpt><trkpt lat="45.59526768941732" lon="9.199010463719725"><ele>179.33333333333331</ele><time>2026-05-02T07:57:49.969Z</time></trkpt><trkpt lat="45.595368137645444" lon="9.199042490791562"><ele>179.66666666666666</ele><time>2026-05-02T07:57:51.969Z</time></trkpt><trkpt lat="45.59546155564924" lon="9.19907234962276"><ele>180.0</ele><time>2026-05-02T07:57:53.969Z</time></trkpt><trkpt lat="45.59555961789172" lon="9.199103692190075"><ele>180.33333333333334</ele><time>2026-05-02T07:57:55.969Z</time></trkpt><trkpt lat="45.5956233010008" lon="9.199124046044252"><ele>180.66666666666669</ele><time>2026-05-02T07:57:56.969Z</time></trkpt><trkpt lat="45.595701973682594" lon="9.199149982793921"><ele>181.0</ele><time>2026-05-02T07:57:57.969Z</time></trkpt><trkpt lat="45.59578287802864" lon="9.199176185772531"><ele>181.0</ele><time>2026-05-02T07:57:58.969Z</time></trkpt><trkpt lat="45.59587099459097" lon="9.199204111168068"><ele>181.0</ele><time>2026-05-02T07:57:59.969Z</time></trkpt><trkpt lat="45.59596197581426" lon="9.199231186921008"><ele>181.0</ele><time>2026-05-02T07:58:00.969Z</time></trkpt><trkpt lat="45.596043271296274" lon="9.199267370257932"><ele>181.0</ele><time>2026-05-02T07:58:01.969Z</time></trkpt><trkpt lat="45.59614078130596" lon="9.199291422324514"><ele>181.0</ele><time>2026-05-02T07:58:02.969Z</time></trkpt><trkpt lat="45.596229678648214" lon="9.199312947586746"><ele>181.0</ele><time>2026-05-02T07:58:03.969Z</time></trkpt><trkpt lat="45.596309264888625" lon="9.19932869122351"><ele>181.0</ele><time>2026-05-02T07:58:04.969Z</time></trkpt><trkpt lat="45.59638921501868" lon="9.19933669389018"><ele>181.0</ele><time>2026-05-02T07:58:05.969Z</time></trkpt><trkpt lat="45.596472687238624" lon="9.199361303715184"><ele>181.0</ele><time>2026-05-02T07:58:06.969Z</time></trkpt><trkpt lat="45.59654912670812" lon="9.199404715873998"><ele>181.0</ele><time>2026-05-02T07:58:07.969Z</time></trkpt><trkpt lat="45.596647636728605" lon="9.199420557699293"><ele>181.0</ele><time>2026-05-02T07:58:08.969Z</time></trkpt><trkpt lat="45.59674069656472" lon="9.199445082802924"><ele>181.0</ele><time>2026-05-02T07:58:09.969Z</time></trkpt><trkpt lat="45.596809940241606" lon="9.199491359067968"><ele>181.0</ele><time>2026-05-02T07:58:10.969Z</time></trkpt><trkpt lat="45.596884647877324" lon="9.199508824738139"><ele>181.0</ele><time>2026-05-02T07:58:11.969Z</time></trkpt><trkpt lat="45.59695070882932" lon="9.199525158013968"><ele>181.0</ele><time>2026-05-02T07:58:12.969Z</time></trkpt><trkpt lat="45.59701611120319" lon="9.199541324372243"><ele>181.0</ele><time>2026-05-02T07:58:13.969Z</time></trkpt><trkpt lat="45.59707905049082" lon="9.199557749286551"><ele>181.0</ele><time>2026-05-02T07:58:14.969Z</time></trkpt><trkpt lat="45.59714406397926" lon="9.199572292275118"><ele>181.0</ele><time>2026-05-02T07:58:15.969Z</time></trkpt><trkpt lat="45.59725737092597" lon="9.199632123767781"><ele>181.0</ele><time>2026-05-02T07:58:17.969Z</time></trkpt><trkpt lat="45.59735435944458" lon="9.199662902739972"><ele>181.0</ele><time>2026-05-02T07:58:19.969Z</time></trkpt><trkpt lat="45.59742500901436" lon="9.199683776220509"><ele>181.0</ele><time>2026-05-02T07:58:21.969Z</time></trkpt><trkpt lat="45.59750223457097" lon="9.199707496028322"><ele>181.0</ele><time>2026-05-02T07:58:25.969Z</time></trkpt><trkpt lat="45.597592851243185" lon="9.19973588657011"><ele>181.0</ele><time>2026-05-02T07:58:27.969Z</time></trkpt><trkpt lat="45.597690804501106" lon="9.199766866903266"><ele>181.0</ele><time>2026-05-02T07:58:29.969Z</time></trkpt><trkpt lat="45.59779704088647" lon="9.199800464878907"><ele>181.0</ele><time>2026-05-02T07:58:31.969Z</time></trkpt><trkpt lat="45.59789695830755" lon="9.199840763498866"><ele>181.0</ele><time>2026-05-02T07:58:33.969Z</time></trkpt><trkpt lat="45.59797608829489" lon="9.199865721754813"><ele>181.0</ele><time>2026-05-02T07:58:34.969Z</time></trkpt><trkpt lat="45.598052253775585" lon="9.199891103758103"><ele>181.0</ele><time>2026-05-02T07:58:35.969Z</time></trkpt><trkpt lat="45.59813602874586" lon="9.199917425460596"><ele>181.0</ele><time>2026-05-02T07:58:36.969Z</time></trkpt><trkpt lat="45.5982192739493" lon="9.199943061133432"><ele>181.0</ele><time>2026-05-02T07:58:37.969Z</time></trkpt><trkpt lat="45.59830879817708" lon="9.199966279189413"><ele>181.0</ele><time>2026-05-02T07:58:38.969Z</time></trkpt><trkpt lat="45.598393554051974" lon="9.199988383033274"><ele>181.0</ele><time>2026-05-02T07:58:39.969Z</time></trkpt><trkpt lat="45.59847482157449" lon="9.200007870856604"><ele>181.0</ele><time>2026-05-02T07:58:40.969Z</time></trkpt><trkpt lat="45.598543103027275" lon="9.200058843086305"><ele>181.0</ele><time>2026-05-02T07:58:41.969Z</time></trkpt><trkpt lat="45.598624259248915" lon="9.200084732059333"><ele>181.0</ele><time>2026-05-02T07:58:42.969Z</time></trkpt><trkpt lat="45.59870288113019" lon="9.200111203469541"><ele>181.0</ele><time>2026-05-02T07:58:43.969Z</time></trkpt><trkpt lat="45.5987829529361" lon="9.200133658072115"><ele>181.33333333333334</ele><time>2026-05-02T07:58:44.969Z</time></trkpt><trkpt lat="45.59885646852086" lon="9.200154630257298"><ele>181.66666666666669</ele><time>2026-05-02T07:58:45.969Z</time></trkpt><trkpt lat="45.59892998710757" lon="9.20017258386373"><ele>182.0</ele><time>2026-05-02T07:58:46.969Z</time></trkpt><trkpt lat="45.5990039584799" lon="9.200190674829681"><ele>182.33333333333334</ele><time>2026-05-02T07:58:47.969Z</time></trkpt><trkpt lat="45.599081662311384" lon="9.200213166840387"><ele>182.66666666666666</ele><time>2026-05-02T07:58:48.969Z</time></trkpt><trkpt lat="45.59916109752886" lon="9.200235551786461"><ele>183.0</ele><time>2026-05-02T07:58:49.969Z</time></trkpt><trkpt lat="45.59924100319428" lon="9.200254087915319"><ele>183.0</ele><time>2026-05-02T07:58:50.969Z</time></trkpt><trkpt lat="45.59931752361552" lon="9.200275456862562"><ele>183.0</ele><time>2026-05-02T07:58:51.969Z</time></trkpt><trkpt lat="45.599386112481355" lon="9.200321301360837"><ele>183.0</ele><time>2026-05-02T07:58:52.969Z</time></trkpt><trkpt lat="45.599456535155035" lon="9.200337772066298"><ele>183.0</ele><time>2026-05-02T07:58:53.969Z</time></trkpt><trkpt lat="45.599520033034025" lon="9.200356375453316"><ele>183.0</ele><time>2026-05-02T07:58:54.969Z</time></trkpt><trkpt lat="45.599618403761525" lon="9.200379478253003"><ele>183.0</ele><time>2026-05-02T07:58:56.969Z</time></trkpt><trkpt lat="45.599687786730044" lon="9.200401537501552"><ele>183.0</ele><time>2026-05-02T07:58:58.969Z</time></trkpt><trkpt lat="45.59974578398428" lon="9.200440486161776"><ele>183.0</ele><time>2026-05-02T07:59:01.969Z</time></trkpt><trkpt lat="45.59982619111398" lon="9.200459194838738"><ele>183.0</ele><time>2026-05-02T07:59:31.969Z</time></trkpt><trkpt lat="45.5998952179338" lon="9.200481305593732"><ele>183.0</ele><time>2026-05-02T07:59:33.969Z</time></trkpt><trkpt lat="45.5999779912032" lon="9.20050781964304"><ele>183.0</ele><time>2026-05-02T07:59:35.969Z</time></trkpt><trkpt lat="45.600073696321246" lon="9.200538476052927"><ele>183.0</ele><time>2026-05-02T07:59:37.969Z</time></trkpt><trkpt lat="45.60018321205698" lon="9.200571923880583"><ele>183.0</ele><time>2026-05-02T07:59:39.969Z</time></trkpt><trkpt lat="45.600248169928065" lon="9.20059030638051"><ele>183.0</ele><time>2026-05-02T07:59:40.969Z</time></trkpt><trkpt lat="45.60037671079099" lon="9.20062131019544"><ele>183.0</ele><time>2026-05-02T07:59:42.968Z</time></trkpt><trkpt lat="45.60044873029583" lon="9.200566588331377"><ele>183.0</ele><time>2026-05-02T07:59:43.967Z</time></trkpt><trkpt lat="45.6005193134289" lon="9.200599102920206"><ele>183.0</ele><time>2026-05-02T07:59:44.967Z</time></trkpt><trkpt lat="45.600595226365144" lon="9.200635115743447"><ele>183.0</ele><time>2026-05-02T07:59:45.968Z</time></trkpt><trkpt lat="45.60068598950472" lon="9.200676334075249"><ele>183.2</ele><time>2026-05-02T07:59:46.967Z</time></trkpt><trkpt lat="45.60077787031177" lon="9.200709817552873"><ele>183.4</ele><time>2026-05-02T07:59:47.967Z</time></trkpt><trkpt lat="45.600868604162606" lon="9.200748610200636"><ele>183.6</ele><time>2026-05-02T07:59:48.967Z</time></trkpt><trkpt lat="45.6009614591276" lon="9.20078908950215"><ele>183.79999999999998</ele><time>2026-05-02T07:59:49.967Z</time></trkpt><trkpt lat="45.60105915886857" lon="9.20082901721792"><ele>184.0</ele><time>2026-05-02T07:59:50.967Z</time></trkpt><trkpt lat="45.60116537602783" lon="9.200864220112424"><ele>184.39999999999998</ele><time>2026-05-02T07:59:51.967Z</time></trkpt><trkpt lat="45.60127157930485" lon="9.200900941427204"><ele>184.8</ele><time>2026-05-02T07:59:52.967Z</time></trkpt><trkpt lat="45.60136966312644" lon="9.200933215520564"><ele>185.2</ele><time>2026-05-02T07:59:53.967Z</time></trkpt><trkpt lat="45.60145449598614" lon="9.200953542666351"><ele>185.60000000000002</ele><time>2026-05-02T07:59:54.967Z</time></trkpt><trkpt lat="45.60153310820849" lon="9.200969550567756"><ele>186.0</ele><time>2026-05-02T07:59:55.966Z</time></trkpt><trkpt lat="45.60160662216063" lon="9.201009659639311"><ele>186.0</ele><time>2026-05-02T07:59:56.966Z</time></trkpt><trkpt lat="45.60168143690848" lon="9.201034740240216"><ele>186.0</ele><time>2026-05-02T07:59:57.966Z</time></trkpt><trkpt lat="45.60176197615087" lon="9.20106151180423"><ele>186.0</ele><time>2026-05-02T07:59:58.966Z</time></trkpt><trkpt lat="45.60184640325752" lon="9.201089575681404"><ele>186.0</ele><time>2026-05-02T07:59:59.966Z</time></trkpt><trkpt lat="45.60193094071352" lon="9.201117676265074"><ele>186.0</ele><time>2026-05-02T08:00:00.966Z</time></trkpt><trkpt lat="45.60201797577442" lon="9.201147685241347"><ele>186.0</ele><time>2026-05-02T08:00:01.966Z</time></trkpt><trkpt lat="45.60211127011262" lon="9.201180047744254"><ele>185.8</ele><time>2026-05-02T08:00:02.966Z</time></trkpt><trkpt lat="45.60221814797338" lon="9.201216963322016"><ele>185.60000000000002</ele><time>2026-05-02T08:00:03.966Z</time></trkpt><trkpt lat="45.60232910717939" lon="9.201255298439035"><ele>185.4</ele><time>2026-05-02T08:00:04.966Z</time></trkpt><trkpt lat="45.60244187319164" lon="9.20129228617204"><ele>185.2</ele><time>2026-05-02T08:00:05.966Z</time></trkpt><trkpt lat="45.60254209599461" lon="9.201340927843232"><ele>185.0</ele><time>2026-05-02T08:00:06.966Z</time></trkpt><trkpt lat="45.60265613207025" lon="9.201377331053044"><ele>185.0</ele><time>2026-05-02T08:00:07.966Z</time></trkpt><trkpt lat="45.60276734392854" lon="9.201408954263828"><ele>185.0</ele><time>2026-05-02T08:00:08.966Z</time></trkpt><trkpt lat="45.602879200739686" lon="9.201438989449237"><ele>185.0</ele><time>2026-05-02T08:00:09.966Z</time></trkpt><trkpt lat="45.602985966171914" lon="9.201467896404937"><ele>185.0</ele><time>2026-05-02T08:00:10.966Z</time></trkpt><trkpt lat="45.603090967361005" lon="9.201503503570368"><ele>185.0</ele><time>2026-05-02T08:00:11.966Z</time></trkpt><trkpt lat="45.603190050847665" lon="9.201532193323336"><ele>185.0</ele><time>2026-05-02T08:00:12.966Z</time></trkpt><trkpt lat="45.60329014451745" lon="9.201558412165015"><ele>185.0</ele><time>2026-05-02T08:00:13.966Z</time></trkpt><trkpt lat="45.60338330399645" lon="9.201588309259073"><ele>185.0</ele><time>2026-05-02T08:00:14.966Z</time></trkpt><trkpt lat="45.60347274391245" lon="9.201625288958082"><ele>185.0</ele><time>2026-05-02T08:00:15.966Z</time></trkpt><trkpt lat="45.60356712865221" lon="9.201652473663309"><ele>185.0</ele><time>2026-05-02T08:00:16.966Z</time></trkpt><trkpt lat="45.6036652608708" lon="9.201678518787789"><ele>185.0</ele><time>2026-05-02T08:00:17.966Z</time></trkpt><trkpt lat="45.60376043045899" lon="9.201713392011412"><ele>185.0</ele><time>2026-05-02T08:00:18.966Z</time></trkpt><trkpt lat="45.60385408615206" lon="9.201738955517541"><ele>185.0</ele><time>2026-05-02T08:00:19.966Z</time></trkpt><trkpt lat="45.60394761735592" lon="9.201768095932453"><ele>185.0</ele><time>2026-05-02T08:00:20.966Z</time></trkpt><trkpt lat="45.60404118043527" lon="9.201798767521751"><ele>185.0</ele><time>2026-05-02T08:00:21.966Z</time></trkpt><trkpt lat="45.60413851142914" lon="9.201831349922532"><ele>185.0</ele><time>2026-05-02T08:00:22.966Z</time></trkpt><trkpt lat="45.604235692331464" lon="9.201861415407295"><ele>185.0</ele><time>2026-05-02T08:00:23.966Z</time></trkpt><trkpt lat="45.604328228365574" lon="9.201890158719536"><ele>185.0</ele><time>2026-05-02T08:00:24.966Z</time></trkpt><trkpt lat="45.60442420363929" lon="9.20192171764105"><ele>185.0</ele><time>2026-05-02T08:00:25.966Z</time></trkpt><trkpt lat="45.604524956877505" lon="9.20195314027994"><ele>185.0</ele><time>2026-05-02T08:00:26.966Z</time></trkpt><trkpt lat="45.60462165405005" lon="9.2019767614058"><ele>185.4</ele><time>2026-05-02T08:00:27.966Z</time></trkpt><trkpt lat="45.60471178912576" lon="9.202000882183007"><ele>185.8</ele><time>2026-05-02T08:00:28.966Z</time></trkpt><trkpt lat="45.60479935077754" lon="9.20202573073203"><ele>186.2</ele><time>2026-05-02T08:00:29.966Z</time></trkpt><trkpt lat="45.60489804566703" lon="9.202056746948129"><ele>186.6</ele><time>2026-05-02T08:00:30.966Z</time></trkpt><trkpt lat="45.60499151267097" lon="9.202079656502724"><ele>187.0</ele><time>2026-05-02T08:00:31.966Z</time></trkpt><trkpt lat="45.60507695769336" lon="9.202101775364108"><ele>187.0</ele><time>2026-05-02T08:00:32.966Z</time></trkpt><trkpt lat="45.605151822769315" lon="9.202121474354588"><ele>187.0</ele><time>2026-05-02T08:00:33.966Z</time></trkpt><trkpt lat="45.605216714515976" lon="9.202173265250082"><ele>187.0</ele><time>2026-05-02T08:00:34.966Z</time></trkpt><trkpt lat="45.60531820898571" lon="9.20219782224618"><ele>187.0</ele><time>2026-05-02T08:00:35.966Z</time></trkpt><trkpt lat="45.605435658652475" lon="9.202240523356783"><ele>187.0</ele><time>2026-05-02T08:00:36.966Z</time></trkpt><trkpt lat="45.60556705990688" lon="9.20228445307825"><ele>187.0</ele><time>2026-05-02T08:00:37.966Z</time></trkpt><trkpt lat="45.60569418961482" lon="9.202324648823742"><ele>187.0</ele><time>2026-05-02T08:00:38.966Z</time></trkpt><trkpt lat="45.605799210498866" lon="9.202375977509702"><ele>187.0</ele><time>2026-05-02T08:00:39.966Z</time></trkpt><trkpt lat="45.60591447400438" lon="9.202400439166311"><ele>187.0</ele><time>2026-05-02T08:00:40.966Z</time></trkpt><trkpt lat="45.60602979603234" lon="9.202420607102665"><ele>187.2</ele><time>2026-05-02T08:00:41.966Z</time></trkpt><trkpt lat="45.606156339255705" lon="9.202419481716932"><ele>187.39999999999998</ele><time>2026-05-02T08:00:42.966Z</time></trkpt><trkpt lat="45.606261573914715" lon="9.202420849317996"><ele>187.60000000000002</ele><time>2026-05-02T08:00:43.966Z</time></trkpt><trkpt lat="45.60636537777431" lon="9.202442945009288"><ele>187.8</ele><time>2026-05-02T08:00:44.966Z</time></trkpt><trkpt lat="45.60646051092308" lon="9.202437097325896"><ele>188.0</ele><time>2026-05-02T08:00:45.966Z</time></trkpt><trkpt lat="45.60655185629476" lon="9.202426496524708"><ele>188.0</ele><time>2026-05-02T08:00:46.966Z</time></trkpt><trkpt lat="45.60664955161517" lon="9.20241498151959"><ele>188.0</ele><time>2026-05-02T08:00:47.966Z</time></trkpt><trkpt lat="45.60674657822669" lon="9.20239761759991"><ele>188.0</ele><time>2026-05-02T08:00:48.966Z</time></trkpt><trkpt lat="45.60684041131059" lon="9.20233154778157"><ele>188.0</ele><time>2026-05-02T08:00:49.966Z</time></trkpt><trkpt lat="45.60695040942044" lon="9.202304501633778"><ele>188.0</ele><time>2026-05-02T08:00:50.966Z</time></trkpt><trkpt lat="45.607071240130104" lon="9.202276201143215"><ele>188.5</ele><time>2026-05-02T08:00:51.966Z</time></trkpt><trkpt lat="45.607188425236906" lon="9.202252752107691"><ele>189.0</ele><time>2026-05-02T08:00:52.966Z</time></trkpt><trkpt lat="45.607315213918774" lon="9.20228257104412"><ele>189.5</ele><time>2026-05-02T08:00:53.966Z</time></trkpt><trkpt lat="45.60743914241653" lon="9.20225627816237"><ele>190.0</ele><time>2026-05-02T08:00:54.966Z</time></trkpt><trkpt lat="45.60756414607539" lon="9.20222975718114"><ele>190.0</ele><time>2026-05-02T08:00:55.966Z</time></trkpt><trkpt lat="45.60769287469711" lon="9.202213565565525"><ele>190.0</ele><time>2026-05-02T08:00:56.966Z</time></trkpt><trkpt lat="45.60781617412654" lon="9.202201627687087"><ele>190.0</ele><time>2026-05-02T08:00:57.966Z</time></trkpt><trkpt lat="45.60792473362692" lon="9.202198034485628"><ele>190.0</ele><time>2026-05-02T08:00:58.966Z</time></trkpt><trkpt lat="45.608024968516574" lon="9.202173731467093"><ele>190.4</ele><time>2026-05-02T08:00:59.966Z</time></trkpt><trkpt lat="45.60812201197807" lon="9.202145649536073"><ele>190.8</ele><time>2026-05-02T08:01:00.966Z</time></trkpt><trkpt lat="45.60820961753825" lon="9.202115717922311"><ele>191.2</ele><time>2026-05-02T08:01:01.966Z</time></trkpt><trkpt lat="45.60830027242106" lon="9.202091860323995"><ele>191.6</ele><time>2026-05-02T08:01:02.966Z</time></trkpt><trkpt lat="45.6083922358468" lon="9.202068722544203"><ele>192.0</ele><time>2026-05-02T08:01:03.966Z</time></trkpt><trkpt lat="45.608476890445154" lon="9.202042624019658"><ele>192.0</ele><time>2026-05-02T08:01:04.966Z</time></trkpt><trkpt lat="45.60855870236026" lon="9.202017257215479"><ele>192.0</ele><time>2026-05-02T08:01:05.966Z</time></trkpt><trkpt lat="45.608631288499716" lon="9.202000563422567"><ele>192.0</ele><time>2026-05-02T08:01:06.966Z</time></trkpt><trkpt lat="45.608725897649165" lon="9.20197298449436"><ele>192.0</ele><time>2026-05-02T08:01:08.966Z</time></trkpt><trkpt lat="45.608797640163985" lon="9.201996907898195"><ele>192.0</ele><time>2026-05-02T08:01:10.966Z</time></trkpt><trkpt lat="45.60887562767191" lon="9.20198056149084"><ele>192.0</ele><time>2026-05-02T08:01:12.966Z</time></trkpt><trkpt lat="45.60900143669294" lon="9.201955584491142"><ele>192.0</ele><time>2026-05-02T08:01:14.966Z</time></trkpt><trkpt lat="45.60906710213961" lon="9.201941274624392"><ele>192.0</ele><time>2026-05-02T08:01:15.966Z</time></trkpt><trkpt lat="45.60913511645997" lon="9.201929489172457"><ele>192.0</ele><time>2026-05-02T08:01:16.966Z</time></trkpt><trkpt lat="45.609202547411606" lon="9.201917930299125"><ele>192.0</ele><time>2026-05-02T08:01:17.966Z</time></trkpt><trkpt lat="45.609278900975404" lon="9.201899346328371"><ele>192.0</ele><time>2026-05-02T08:01:18.966Z</time></trkpt><trkpt lat="45.60936236686715" lon="9.20187647218669"><ele>192.0</ele><time>2026-05-02T08:01:19.966Z</time></trkpt><trkpt lat="45.60944901175988" lon="9.201854173318088"><ele>191.83333333333334</ele><time>2026-05-02T08:01:20.966Z</time></trkpt><trkpt lat="45.60954626906221" lon="9.201829732997126"><ele>191.66666666666666</ele><time>2026-05-02T08:01:21.966Z</time></trkpt><trkpt lat="45.60962495269575" lon="9.201812385507797"><ele>191.5</ele><time>2026-05-02T08:01:22.966Z</time></trkpt><trkpt lat="45.60971049115652" lon="9.201788256499853"><ele>191.33333333333331</ele><time>2026-05-02T08:01:23.966Z</time></trkpt><trkpt lat="45.60978752996676" lon="9.201749060689826"><ele>191.16666666666666</ele><time>2026-05-02T08:01:24.966Z</time></trkpt><trkpt lat="45.60987031601949" lon="9.201729644845754"><ele>191.0</ele><time>2026-05-02T08:01:25.966Z</time></trkpt><trkpt lat="45.60996190702217" lon="9.201708579035968"><ele>191.0</ele><time>2026-05-02T08:01:26.966Z</time></trkpt><trkpt lat="45.610059005473" lon="9.20172560979683"><ele>191.0</ele><time>2026-05-02T08:01:27.966Z</time></trkpt><trkpt lat="45.61014547997448" lon="9.201704110220662"><ele>191.0</ele><time>2026-05-02T08:01:28.966Z</time></trkpt><trkpt lat="45.61022585638218" lon="9.201687002525608"><ele>191.0</ele><time>2026-05-02T08:01:29.966Z</time></trkpt><trkpt lat="45.610310276262105" lon="9.201666990493653"><ele>191.0</ele><time>2026-05-02T08:01:30.966Z</time></trkpt><trkpt lat="45.610391470061906" lon="9.201649093779428"><ele>191.0</ele><time>2026-05-02T08:01:31.966Z</time></trkpt><trkpt lat="45.61047777832037" lon="9.201630606295765"><ele>191.4</ele><time>2026-05-02T08:01:32.966Z</time></trkpt><trkpt lat="45.610563678966116" lon="9.201615182703497"><ele>191.8</ele><time>2026-05-02T08:01:33.966Z</time></trkpt><trkpt lat="45.610661155436915" lon="9.201596092823333"><ele>192.20000000000002</ele><time>2026-05-02T08:01:34.966Z</time></trkpt><trkpt lat="45.610766979298674" lon="9.20157299749036"><ele>192.60000000000002</ele><time>2026-05-02T08:01:35.966Z</time></trkpt><trkpt lat="45.61086204291112" lon="9.201548317398979"><ele>193.0</ele><time>2026-05-02T08:01:36.966Z</time></trkpt><trkpt lat="45.61095022277026" lon="9.201520471309736"><ele>192.99999999999997</ele><time>2026-05-02T08:01:37.966Z</time></trkpt><trkpt lat="45.61103129560539" lon="9.201494141793145"><ele>193.0</ele><time>2026-05-02T08:01:38.966Z</time></trkpt><trkpt lat="45.611107691403106" lon="9.201473889749737"><ele>193.0</ele><time>2026-05-02T08:01:39.966Z</time></trkpt><trkpt lat="45.611184684959106" lon="9.201477136147773"><ele>193.0</ele><time>2026-05-02T08:01:40.966Z</time></trkpt><trkpt lat="45.611262553053585" lon="9.201459997991043"><ele>192.99999999999997</ele><time>2026-05-02T08:01:41.966Z</time></trkpt><trkpt lat="45.611356455230165" lon="9.201439240898873"><ele>193.0</ele><time>2026-05-02T08:01:42.966Z</time></trkpt><trkpt lat="45.611450146028886" lon="9.201419936255773"><ele>193.0</ele><time>2026-05-02T08:01:43.966Z</time></trkpt><trkpt lat="45.6115498394613" lon="9.201399178228185"><ele>193.0</ele><time>2026-05-02T08:01:44.966Z</time></trkpt><trkpt lat="45.611652588440386" lon="9.20137778399834"><ele>193.0</ele><time>2026-05-02T08:01:45.966Z</time></trkpt><trkpt lat="45.61175815655645" lon="9.201355804658053"><ele>193.0</ele><time>2026-05-02T08:01:46.966Z</time></trkpt><trkpt lat="45.61186888173573" lon="9.201349249847317"><ele>193.0</ele><time>2026-05-02T08:01:47.966Z</time></trkpt><trkpt lat="45.61197600249907" lon="9.201330897703103"><ele>192.8</ele><time>2026-05-02T08:01:48.964Z</time></trkpt><trkpt lat="45.612077372025595" lon="9.201314042091715"><ele>192.60000000000002</ele><time>2026-05-02T08:01:49.964Z</time></trkpt><trkpt lat="45.61217656772844" lon="9.201295805118209"><ele>192.39999999999998</ele><time>2026-05-02T08:01:50.964Z</time></trkpt><trkpt lat="45.61227948864395" lon="9.201278827181412"><ele>192.2</ele><time>2026-05-02T08:01:51.964Z</time></trkpt><trkpt lat="45.61239310647457" lon="9.201256300211233"><ele>192.0</ele><time>2026-05-02T08:01:52.965Z</time></trkpt><trkpt lat="45.612511508773466" lon="9.201229279860668"><ele>192.0</ele><time>2026-05-02T08:01:53.965Z</time></trkpt><trkpt lat="45.61263418146501" lon="9.201201437265354"><ele>192.0</ele><time>2026-05-02T08:01:54.964Z</time></trkpt><trkpt lat="45.61275277850991" lon="9.201169761146474"><ele>192.0</ele><time>2026-05-02T08:01:55.964Z</time></trkpt><trkpt lat="45.61287580251333" lon="9.201139615245642"><ele>192.0</ele><time>2026-05-02T08:01:56.964Z</time></trkpt><trkpt lat="45.61300117008016" lon="9.201104768782011"><ele>192.5</ele><time>2026-05-02T08:01:57.964Z</time></trkpt><trkpt lat="45.61312623383711" lon="9.201073833665381"><ele>193.0</ele><time>2026-05-02T08:01:58.964Z</time></trkpt><trkpt lat="45.613251163703055" lon="9.201044205879677"><ele>193.5</ele><time>2026-05-02T08:01:59.964Z</time></trkpt><trkpt lat="45.613375201655174" lon="9.201016462993932"><ele>194.0</ele><time>2026-05-02T08:02:00.963Z</time></trkpt><trkpt lat="45.6134919900794" lon="9.20099017178872"><ele>194.0</ele><time>2026-05-02T08:02:01.964Z</time></trkpt><trkpt lat="45.613608689814725" lon="9.200964175686332"><ele>194.0</ele><time>2026-05-02T08:02:02.964Z</time></trkpt><trkpt lat="45.61371504172564" lon="9.200942376671964"><ele>194.0</ele><time>2026-05-02T08:02:03.964Z</time></trkpt><trkpt lat="45.61381125066646" lon="9.200929414390574"><ele>194.0</ele><time>2026-05-02T08:02:04.963Z</time></trkpt><trkpt lat="45.61389482002314" lon="9.200917693173244"><ele>194.0</ele><time>2026-05-02T08:02:05.963Z</time></trkpt><trkpt lat="45.61396430215826" lon="9.200902749739774"><ele>194.2</ele><time>2026-05-02T08:02:06.963Z</time></trkpt><trkpt lat="45.61406334159442" lon="9.200880106692965"><ele>194.39999999999998</ele><time>2026-05-02T08:02:08.963Z</time></trkpt><trkpt lat="45.614148799792616" lon="9.20086767231919"><ele>194.6</ele><time>2026-05-02T08:02:10.963Z</time></trkpt><trkpt lat="45.61423779307703" lon="9.20087109823038"><ele>194.8</ele><time>2026-05-02T08:02:12.963Z</time></trkpt><trkpt lat="45.61435469086334" lon="9.200925156087665"><ele>195.0</ele><time>2026-05-02T08:02:14.963Z</time></trkpt><trkpt lat="45.61442493944508" lon="9.20090747193338"><ele>195.0</ele><time>2026-05-02T08:02:15.963Z</time></trkpt><trkpt lat="45.61450123525215" lon="9.200844705380893"><ele>195.0</ele><time>2026-05-02T08:02:16.963Z</time></trkpt><trkpt lat="45.61459854045138" lon="9.200819551454126"><ele>195.0</ele><time>2026-05-02T08:02:17.963Z</time></trkpt><trkpt lat="45.61470469301485" lon="9.200768752157025"><ele>195.0</ele><time>2026-05-02T08:02:18.963Z</time></trkpt><trkpt lat="45.614818333408195" lon="9.200746671408016"><ele>195.0</ele><time>2026-05-02T08:02:19.963Z</time></trkpt><trkpt lat="45.61494733923481" lon="9.200719608550708"><ele>195.0</ele><time>2026-05-02T08:02:20.963Z</time></trkpt><trkpt lat="45.615068150688664" lon="9.200694485552706"><ele>195.0</ele><time>2026-05-02T08:02:21.963Z</time></trkpt><trkpt lat="45.615186449555836" lon="9.200670519380777"><ele>195.0</ele><time>2026-05-02T08:02:22.963Z</time></trkpt><trkpt lat="45.61528842716343" lon="9.200564552571603"><ele>195.0</ele><time>2026-05-02T08:02:23.963Z</time></trkpt><trkpt lat="45.61538041594665" lon="9.200546075113921"><ele>195.16666666666666</ele><time>2026-05-02T08:02:24.963Z</time></trkpt><trkpt lat="45.61547334667696" lon="9.200535617835065"><ele>195.33333333333331</ele><time>2026-05-02T08:02:25.963Z</time></trkpt><trkpt lat="45.61556243327641" lon="9.200521334410059"><ele>195.5</ele><time>2026-05-02T08:02:26.963Z</time></trkpt><trkpt lat="45.615640399635666" lon="9.200513128427856"><ele>195.66666666666666</ele><time>2026-05-02T08:02:27.963Z</time></trkpt><trkpt lat="45.615723396994234" lon="9.200557914677164"><ele>195.83333333333331</ele><time>2026-05-02T08:02:28.963Z</time></trkpt><trkpt lat="45.615797595577085" lon="9.200541734449489"><ele>196.0</ele><time>2026-05-02T08:02:29.963Z</time></trkpt><trkpt lat="45.61586172381846" lon="9.200527750379857"><ele>195.99999999999997</ele><time>2026-05-02T08:02:30.963Z</time></trkpt><trkpt lat="45.615926067942965" lon="9.200542217649543"><ele>196.0</ele><time>2026-05-02T08:02:31.963Z</time></trkpt><trkpt lat="45.616016729439266" lon="9.20053999903615"><ele>196.0</ele><time>2026-05-02T08:02:33.963Z</time></trkpt><trkpt lat="45.61609168332068" lon="9.20051579138896"><ele>196.0</ele><time>2026-05-02T08:02:36.963Z</time></trkpt><trkpt lat="45.616182557536526" lon="9.200495299213193"><ele>195.99999999999997</ele><time>2026-05-02T08:02:38.963Z</time></trkpt><trkpt lat="45.616248888442485" lon="9.200470882624316"><ele>196.0</ele><time>2026-05-02T08:02:39.963Z</time></trkpt><trkpt lat="45.616333808015106" lon="9.20044536904107"><ele>196.0</ele><time>2026-05-02T08:02:40.963Z</time></trkpt><trkpt lat="45.61641053142764" lon="9.200418758264387"><ele>196.0</ele><time>2026-05-02T08:02:41.963Z</time></trkpt><trkpt lat="45.616497946610366" lon="9.200394965293784"><ele>196.0</ele><time>2026-05-02T08:02:42.963Z</time></trkpt><trkpt lat="45.61658986976521" lon="9.200358286900666"><ele>196.0</ele><time>2026-05-02T08:02:43.963Z</time></trkpt><trkpt lat="45.61667796036452" lon="9.200331562686884"><ele>196.0</ele><time>2026-05-02T08:02:44.963Z</time></trkpt><trkpt lat="45.616776392181286" lon="9.200324087527367"><ele>196.0</ele><time>2026-05-02T08:02:45.963Z</time></trkpt><trkpt lat="45.616891605262715" lon="9.200276833455064"><ele>196.0</ele><time>2026-05-02T08:02:46.963Z</time></trkpt><trkpt lat="45.617013867957645" lon="9.200275179951182"><ele>196.0</ele><time>2026-05-02T08:02:47.963Z</time></trkpt><trkpt lat="45.6171500795286" lon="9.20024686976999"><ele>196.0</ele><time>2026-05-02T08:02:48.963Z</time></trkpt><trkpt lat="45.61726288983017" lon="9.20016829962875"><ele>196.20000000000002</ele><time>2026-05-02T08:02:49.963Z</time></trkpt><trkpt lat="45.617373720061806" lon="9.20015734968906"><ele>196.4</ele><time>2026-05-02T08:02:50.963Z</time></trkpt><trkpt lat="45.61748537240528" lon="9.2001351195986"><ele>196.6</ele><time>2026-05-02T08:02:51.963Z</time></trkpt><trkpt lat="45.61759685352966" lon="9.200100203342513"><ele>196.8</ele><time>2026-05-02T08:02:52.963Z</time></trkpt><trkpt lat="45.61770008110425" lon="9.200064221605047"><ele>197.0</ele><time>2026-05-02T08:02:53.963Z</time></trkpt><trkpt lat="45.617794618253576" lon="9.200045874010407"><ele>197.0</ele><time>2026-05-02T08:02:54.963Z</time></trkpt><trkpt lat="45.61788212705336" lon="9.200091015754728"><ele>197.0</ele><time>2026-05-02T08:02:55.963Z</time></trkpt><trkpt lat="45.617955436531446" lon="9.20007555016274"><ele>197.0</ele><time>2026-05-02T08:02:56.963Z</time></trkpt><trkpt lat="45.61807121009623" lon="9.200051126217067"><ele>197.0</ele><time>2026-05-02T08:02:58.963Z</time></trkpt><trkpt lat="45.61818013688026" lon="9.200028298621602"><ele>197.0</ele><time>2026-05-02T08:03:00.963Z</time></trkpt><trkpt lat="45.618284623319425" lon="9.200006580398112"><ele>197.0</ele><time>2026-05-02T08:03:02.963Z</time></trkpt><trkpt lat="45.61835932339127" lon="9.199991053475822"><ele>197.0</ele><time>2026-05-02T08:03:04.963Z</time></trkpt><trkpt lat="45.6184383886294" lon="9.199974619220814"><ele>197.0</ele><time>2026-05-02T08:03:07.963Z</time></trkpt><trkpt lat="45.61851546392724" lon="9.199958598590243"><ele>197.0</ele><time>2026-05-02T08:03:17.963Z</time></trkpt><trkpt lat="45.61865783807704" lon="9.199929005140525"><ele>197.0</ele><time>2026-05-02T08:03:19.963Z</time></trkpt><trkpt lat="45.618750398739905" lon="9.199909706001103"><ele>197.2</ele><time>2026-05-02T08:03:20.963Z</time></trkpt><trkpt lat="45.6188517113356" lon="9.19988856884099"><ele>197.39999999999998</ele><time>2026-05-02T08:03:21.963Z</time></trkpt><trkpt lat="45.61895676766157" lon="9.199866650616988"><ele>197.60000000000002</ele><time>2026-05-02T08:03:22.963Z</time></trkpt><trkpt lat="45.61906109763989" lon="9.199844883946264"><ele>197.8</ele><time>2026-05-02T08:03:23.963Z</time></trkpt><trkpt lat="45.61917648928643" lon="9.199820809418025"><ele>198.0</ele><time>2026-05-02T08:03:24.963Z</time></trkpt><trkpt lat="45.61929188932962" lon="9.199796733147652"><ele>198.0</ele><time>2026-05-02T08:03:25.963Z</time></trkpt><trkpt lat="45.619402160695614" lon="9.199773726683306"><ele>198.0</ele><time>2026-05-02T08:03:26.963Z</time></trkpt><trkpt lat="45.61950842992807" lon="9.199743624136975"><ele>198.0</ele><time>2026-05-02T08:03:27.963Z</time></trkpt><trkpt lat="45.61960642598635" lon="9.199726858210541"><ele>198.0</ele><time>2026-05-02T08:03:28.963Z</time></trkpt><trkpt lat="45.61970419039446" lon="9.199706667055086"><ele>198.0</ele><time>2026-05-02T08:03:29.963Z</time></trkpt><trkpt lat="45.61979910198954" lon="9.199690230264073"><ele>198.0</ele><time>2026-05-02T08:03:30.963Z</time></trkpt><trkpt lat="45.61990130003859" lon="9.199668995637941"><ele>198.0</ele><time>2026-05-02T08:03:31.963Z</time></trkpt><trkpt lat="45.62000532449458" lon="9.199644485499945"><ele>198.0</ele><time>2026-05-02T08:03:32.963Z</time></trkpt><trkpt lat="45.62011108734407" lon="9.199617030643225"><ele>198.0</ele><time>2026-05-02T08:03:33.963Z</time></trkpt><trkpt lat="45.620220408512644" lon="9.199590594507633"><ele>198.0</ele><time>2026-05-02T08:03:34.963Z</time></trkpt><trkpt lat="45.62033688938358" lon="9.199562828875045"><ele>198.0</ele><time>2026-05-02T08:03:35.963Z</time></trkpt><trkpt lat="45.62045364657603" lon="9.199535811418265"><ele>198.0</ele><time>2026-05-02T08:03:36.963Z</time></trkpt><trkpt lat="45.620573756337876" lon="9.199509470761587"><ele>198.0</ele><time>2026-05-02T08:03:37.963Z</time></trkpt><trkpt lat="45.62070130842133" lon="9.199483225467292"><ele>198.0</ele><time>2026-05-02T08:03:38.963Z</time></trkpt><trkpt lat="45.62083398184233" lon="9.199462844118642"><ele>198.0</ele><time>2026-05-02T08:03:39.963Z</time></trkpt><trkpt lat="45.620965115485966" lon="9.19943467729263"><ele>198.0</ele><time>2026-05-02T08:03:40.963Z</time></trkpt><trkpt lat="45.62109389129851" lon="9.19941019232812"><ele>198.0</ele><time>2026-05-02T08:03:41.963Z</time></trkpt><trkpt lat="45.62122171039475" lon="9.199387132952435"><ele>198.0</ele><time>2026-05-02T08:03:42.963Z</time></trkpt><trkpt lat="45.62134561231072" lon="9.19936376128567"><ele>198.0</ele><time>2026-05-02T08:03:43.963Z</time></trkpt><trkpt lat="45.62146342105377" lon="9.199331896812788"><ele>198.0</ele><time>2026-05-02T08:03:44.963Z</time></trkpt><trkpt lat="45.621585392153115" lon="9.199298511127319"><ele>198.0</ele><time>2026-05-02T08:03:45.963Z</time></trkpt><trkpt lat="45.62171165783036" lon="9.1992690802195"><ele>198.0</ele><time>2026-05-02T08:03:46.963Z</time></trkpt><trkpt lat="45.62183820070769" lon="9.19924531982698"><ele>198.0</ele><time>2026-05-02T08:03:47.963Z</time></trkpt><trkpt lat="45.621959647634824" lon="9.199224748377771"><ele>198.0</ele><time>2026-05-02T08:03:48.963Z</time></trkpt><trkpt lat="45.62207709060862" lon="9.19920453117673"><ele>198.0</ele><time>2026-05-02T08:03:49.963Z</time></trkpt><trkpt lat="45.622185358627895" lon="9.199183776069027"><ele>198.0</ele><time>2026-05-02T08:03:50.963Z</time></trkpt><trkpt lat="45.622286741096595" lon="9.199161882621983"><ele>198.0</ele><time>2026-05-02T08:03:51.963Z</time></trkpt><trkpt lat="45.622382203530115" lon="9.199138197437144"><ele>198.0</ele><time>2026-05-02T08:03:52.963Z</time></trkpt><trkpt lat="45.62247681440438" lon="9.199120996774571"><ele>198.0</ele><time>2026-05-02T08:03:53.963Z</time></trkpt><trkpt lat="45.6225608028022" lon="9.199093859523352"><ele>198.0</ele><time>2026-05-02T08:03:54.962Z</time></trkpt><trkpt lat="45.622634198138954" lon="9.199074902513363"><ele>198.0</ele><time>2026-05-02T08:03:55.962Z</time></trkpt><trkpt lat="45.62273775046865" lon="9.199047029083784"><ele>198.33333333333334</ele><time>2026-05-02T08:03:57.962Z</time></trkpt><trkpt lat="45.62281524926313" lon="9.19902655204981"><ele>198.66666666666669</ele><time>2026-05-02T08:03:59.962Z</time></trkpt><trkpt lat="45.62289032269824" lon="9.199036940819656"><ele>199.0</ele><time>2026-05-02T08:04:03.961Z</time></trkpt><trkpt lat="45.62297187869036" lon="9.199054155565758"><ele>199.33333333333334</ele><time>2026-05-02T08:04:05.961Z</time></trkpt><trkpt lat="45.623093161029935" lon="9.199092461206497"><ele>199.66666666666669</ele><time>2026-05-02T08:04:07.961Z</time></trkpt><trkpt lat="45.62316086223776" lon="9.199041605963135"><ele>200.0</ele><time>2026-05-02T08:04:08.961Z</time></trkpt><trkpt lat="45.623238764103434" lon="9.19899996399722"><ele>200.0</ele><time>2026-05-02T08:04:09.961Z</time></trkpt><trkpt lat="45.62332046824759" lon="9.198965302599673"><ele>200.0</ele><time>2026-05-02T08:04:10.961Z</time></trkpt><trkpt lat="45.6234931890615" lon="9.19892742344599"><ele>200.0</ele><time>2026-05-02T08:04:12.961Z</time></trkpt><trkpt lat="45.623580468987555" lon="9.198922460584377"><ele>200.0</ele><time>2026-05-02T08:04:13.961Z</time></trkpt><trkpt lat="45.62366632974601" lon="9.19890985125352"><ele>200.0</ele><time>2026-05-02T08:04:14.961Z</time></trkpt><trkpt lat="45.623755362041706" lon="9.19894256483681"><ele>199.8</ele><time>2026-05-02T08:04:15.961Z</time></trkpt><trkpt lat="45.62384772634723" lon="9.198965781149417"><ele>199.6</ele><time>2026-05-02T08:04:16.961Z</time></trkpt><trkpt lat="45.6239325400974" lon="9.198996461281482"><ele>199.39999999999998</ele><time>2026-05-02T08:04:17.961Z</time></trkpt><trkpt lat="45.624025844708775" lon="9.199036459261276"><ele>199.2</ele><time>2026-05-02T08:04:18.961Z</time></trkpt><trkpt lat="45.624128224050466" lon="9.199092337727906"><ele>199.0</ele><time>2026-05-02T08:04:19.961Z</time></trkpt><trkpt lat="45.62422253667595" lon="9.199156542253412"><ele>199.33333333333331</ele><time>2026-05-02T08:04:20.961Z</time></trkpt><trkpt lat="45.624316615094976" lon="9.199230044795563"><ele>199.66666666666666</ele><time>2026-05-02T08:04:21.961Z</time></trkpt><trkpt lat="45.62440385084122" lon="9.199309056463616"><ele>200.0</ele><time>2026-05-02T08:04:22.961Z</time></trkpt><trkpt lat="45.62447955316037" lon="9.19938496154684"><ele>200.33333333333331</ele><time>2026-05-02T08:04:23.961Z</time></trkpt><trkpt lat="45.624535162823086" lon="9.19946589809194"><ele>200.66666666666666</ele><time>2026-05-02T08:04:24.961Z</time></trkpt><trkpt lat="45.624586201882" lon="9.199519521456438"><ele>201.0</ele><time>2026-05-02T08:04:25.961Z</time></trkpt><trkpt lat="45.6246460483278" lon="9.199586043458348"><ele>201.60000000000002</ele><time>2026-05-02T08:04:27.961Z</time></trkpt><trkpt lat="45.62469210720447" lon="9.199650671830826"><ele>202.2</ele><time>2026-05-02T08:04:30.961Z</time></trkpt><trkpt lat="45.62479716357847" lon="9.199501183930145"><ele>202.8</ele><time>2026-05-02T08:04:31.961Z</time></trkpt><trkpt lat="45.62484972487764" lon="9.199435915733511"><ele>203.39999999999998</ele><time>2026-05-02T08:04:32.961Z</time></trkpt><trkpt lat="45.62489204507239" lon="9.199331669702124"><ele>204.0</ele><time>2026-05-02T08:04:33.961Z</time></trkpt><trkpt lat="45.6248747820415" lon="9.199180767191205"><ele>204.0</ele><time>2026-05-02T08:04:34.961Z</time></trkpt><trkpt lat="45.624886234521135" lon="9.199050602374804"><ele>204.0</ele><time>2026-05-02T08:04:35.961Z</time></trkpt><trkpt lat="45.6249045528879" lon="9.198938032835917"><ele>204.0</ele><time>2026-05-02T08:04:36.961Z</time></trkpt><trkpt lat="45.62493718939162" lon="9.198841115843189"><ele>204.0</ele><time>2026-05-02T08:04:37.961Z</time></trkpt><trkpt lat="45.624975855403264" lon="9.198753501953998"><ele>204.0</ele><time>2026-05-02T08:04:38.961Z</time></trkpt><trkpt lat="45.62502925256833" lon="9.198673860462556"><ele>204.0</ele><time>2026-05-02T08:04:39.961Z</time></trkpt><trkpt lat="45.62510052175733" lon="9.198613847003715"><ele>203.39999999999998</ele><time>2026-05-02T08:04:40.961Z</time></trkpt><trkpt lat="45.625195302549386" lon="9.198577746523588"><ele>202.8</ele><time>2026-05-02T08:04:41.961Z</time></trkpt><trkpt lat="45.62530184852328" lon="9.19854123798377"><ele>202.2</ele><time>2026-05-02T08:04:42.961Z</time></trkpt><trkpt lat="45.62540466694193" lon="9.198517980620899"><ele>201.60000000000002</ele><time>2026-05-02T08:04:43.961Z</time></trkpt><trkpt lat="45.62551917007526" lon="9.19848682281813"><ele>201.0</ele><time>2026-05-02T08:04:44.961Z</time></trkpt><trkpt lat="45.625641772692994" lon="9.1984502745089"><ele>201.0</ele><time>2026-05-02T08:04:45.961Z</time></trkpt><trkpt lat="45.62576697755767" lon="9.19841839203635"><ele>201.0</ele><time>2026-05-02T08:04:46.961Z</time></trkpt><trkpt lat="45.62590067760334" lon="9.198383457616234"><ele>201.0</ele><time>2026-05-02T08:04:47.961Z</time></trkpt><trkpt lat="45.626029407803344" lon="9.198354091667934"><ele>201.0</ele><time>2026-05-02T08:04:48.961Z</time></trkpt><trkpt lat="45.62615071902718" lon="9.198324157958618"><ele>201.75</ele><time>2026-05-02T08:04:49.961Z</time></trkpt><trkpt lat="45.62627714685986" lon="9.198294803529222"><ele>202.5</ele><time>2026-05-02T08:04:50.961Z</time></trkpt><trkpt lat="45.626401367101494" lon="9.198260356453856"><ele>203.25</ele><time>2026-05-02T08:04:51.961Z</time></trkpt><trkpt lat="45.626526930427275" lon="9.198239382349987"><ele>204.0</ele><time>2026-05-02T08:04:52.961Z</time></trkpt><trkpt lat="45.62664312818542" lon="9.198200205517766"><ele>203.75</ele><time>2026-05-02T08:04:53.961Z</time></trkpt><trkpt lat="45.62677894751436" lon="9.198167378591243"><ele>203.5</ele><time>2026-05-02T08:04:54.961Z</time></trkpt><trkpt lat="45.62691460889748" lon="9.19813113359666"><ele>203.25</ele><time>2026-05-02T08:04:55.961Z</time></trkpt><trkpt lat="45.62704916086754" lon="9.198096089355165"><ele>203.0</ele><time>2026-05-02T08:04:56.961Z</time></trkpt><trkpt lat="45.62719783327136" lon="9.198067367421782"><ele>203.5</ele><time>2026-05-02T08:04:57.961Z</time></trkpt><trkpt lat="45.6273492545123" lon="9.198020063144092"><ele>204.0</ele><time>2026-05-02T08:04:58.961Z</time></trkpt><trkpt lat="45.627498116599305" lon="9.197979293939275"><ele>204.5</ele><time>2026-05-02T08:04:59.961Z</time></trkpt><trkpt lat="45.6276169881867" lon="9.197963032720295"><ele>205.0</ele><time>2026-05-02T08:05:00.961Z</time></trkpt><trkpt lat="45.627734843073796" lon="9.197938467797155"><ele>204.4</ele><time>2026-05-02T08:05:01.961Z</time></trkpt><trkpt lat="45.62783651603927" lon="9.197922605481518"><ele>203.8</ele><time>2026-05-02T08:05:02.961Z</time></trkpt><trkpt lat="45.62791618879372" lon="9.197909976389337"><ele>203.2</ele><time>2026-05-02T08:05:03.961Z</time></trkpt><trkpt lat="45.62801073377911" lon="9.197884744619397"><ele>202.6</ele><time>2026-05-02T08:05:04.961Z</time></trkpt><trkpt lat="45.6281132288889" lon="9.197847314389984"><ele>202.0</ele><time>2026-05-02T08:05:05.961Z</time></trkpt><trkpt lat="45.62822452661216" lon="9.197814922405998"><ele>202.0</ele><time>2026-05-02T08:05:06.961Z</time></trkpt><trkpt lat="45.62834162443291" lon="9.1977870797765"><ele>202.0</ele><time>2026-05-02T08:05:07.961Z</time></trkpt><trkpt lat="45.628464237358884" lon="9.197755995412798"><ele>202.0</ele><time>2026-05-02T08:05:08.961Z</time></trkpt><trkpt lat="45.62859125068112" lon="9.197732153502148"><ele>202.0</ele><time>2026-05-02T08:05:09.961Z</time></trkpt><trkpt lat="45.62872283988876" lon="9.197694911786975"><ele>202.75</ele><time>2026-05-02T08:05:10.961Z</time></trkpt><trkpt lat="45.62885675035281" lon="9.197661341491385"><ele>203.5</ele><time>2026-05-02T08:05:11.961Z</time></trkpt><trkpt lat="45.62899112541302" lon="9.197631531963767"><ele>204.25</ele><time>2026-05-02T08:05:12.961Z</time></trkpt><trkpt lat="45.629124372168874" lon="9.197599893018397"><ele>205.0</ele><time>2026-05-02T08:05:13.961Z</time></trkpt><trkpt lat="45.62925868287394" lon="9.197565333389"><ele>205.0</ele><time>2026-05-02T08:05:14.961Z</time></trkpt><trkpt lat="45.62939752454946" lon="9.197548574021415"><ele>205.0</ele><time>2026-05-02T08:05:15.961Z</time></trkpt><trkpt lat="45.6295378344252" lon="9.197514181654055"><ele>205.0</ele><time>2026-05-02T08:05:16.961Z</time></trkpt><trkpt lat="45.629677822926745" lon="9.197479648016419"><ele>205.0</ele><time>2026-05-02T08:05:17.961Z</time></trkpt><trkpt lat="45.629809022302595" lon="9.19742339332957"><ele>205.25</ele><time>2026-05-02T08:05:18.961Z</time></trkpt><trkpt lat="45.629944758129454" lon="9.197394345110457"><ele>205.5</ele><time>2026-05-02T08:05:19.961Z</time></trkpt><trkpt lat="45.630066691966015" lon="9.19736582414871"><ele>205.75</ele><time>2026-05-02T08:05:20.961Z</time></trkpt><trkpt lat="45.6301807678455" lon="9.197339779474888"><ele>206.0</ele><time>2026-05-02T08:05:21.961Z</time></trkpt><trkpt lat="45.630288470991154" lon="9.197320775741506"><ele>205.83333333333334</ele><time>2026-05-02T08:05:22.961Z</time></trkpt><trkpt lat="45.6303864584642" lon="9.197299819253885"><ele>205.66666666666669</ele><time>2026-05-02T08:05:23.961Z</time></trkpt><trkpt lat="45.630477656987395" lon="9.197273842234567"><ele>205.5</ele><time>2026-05-02T08:05:24.961Z</time></trkpt><trkpt lat="45.63056095637546" lon="9.197260548532968"><ele>205.33333333333331</ele><time>2026-05-02T08:05:25.961Z</time></trkpt><trkpt lat="45.63063651058796" lon="9.197269214964217"><ele>205.16666666666666</ele><time>2026-05-02T08:05:26.961Z</time></trkpt><trkpt lat="45.63070636259765" lon="9.19728627779275"><ele>205.0</ele><time>2026-05-02T08:05:27.961Z</time></trkpt><trkpt lat="45.63077963567239" lon="9.197304157009844"><ele>205.0</ele><time>2026-05-02T08:05:28.961Z</time></trkpt><trkpt lat="45.63086763502808" lon="9.197311407737493"><ele>205.0</ele><time>2026-05-02T08:05:29.961Z</time></trkpt><trkpt lat="45.630966551384056" lon="9.197293206458104"><ele>205.0</ele><time>2026-05-02T08:05:30.961Z</time></trkpt><trkpt lat="45.63106556950068" lon="9.197245133413903"><ele>205.0</ele><time>2026-05-02T08:05:31.961Z</time></trkpt><trkpt lat="45.63116947466891" lon="9.197172876777463"><ele>205.0</ele><time>2026-05-02T08:05:32.961Z</time></trkpt><trkpt lat="45.63128289097086" lon="9.197101533946464"><ele>205.5</ele><time>2026-05-02T08:05:33.961Z</time></trkpt><trkpt lat="45.631406209189414" lon="9.197043952585114"><ele>206.0</ele><time>2026-05-02T08:05:34.961Z</time></trkpt><trkpt lat="45.63153799789831" lon="9.197007907012894"><ele>206.5</ele><time>2026-05-02T08:05:35.961Z</time></trkpt><trkpt lat="45.63167809425243" lon="9.196980139324724"><ele>207.0</ele><time>2026-05-02T08:05:36.961Z</time></trkpt><trkpt lat="45.63182421311797" lon="9.19694657494578"><ele>207.33333333333331</ele><time>2026-05-02T08:05:37.961Z</time></trkpt><trkpt lat="45.63197663756277" lon="9.196908700149141"><ele>207.66666666666666</ele><time>2026-05-02T08:05:38.961Z</time></trkpt><trkpt lat="45.63212271177532" lon="9.196870855790028"><ele>208.0</ele><time>2026-05-02T08:05:39.961Z</time></trkpt><trkpt lat="45.63226855232154" lon="9.196829805819483"><ele>208.0</ele><time>2026-05-02T08:05:40.961Z</time></trkpt><trkpt lat="45.63240124303225" lon="9.196795866302937"><ele>208.0</ele><time>2026-05-02T08:05:41.961Z</time></trkpt><trkpt lat="45.632524386236284" lon="9.19676508201313"><ele>208.0</ele><time>2026-05-02T08:05:42.961Z</time></trkpt><trkpt lat="45.63264214525958" lon="9.196734361951794"><ele>208.0</ele><time>2026-05-02T08:05:43.961Z</time></trkpt><trkpt lat="45.63275313919295" lon="9.196707105271043"><ele>208.0</ele><time>2026-05-02T08:05:44.961Z</time></trkpt><trkpt lat="45.63286511484229" lon="9.196673419266324"><ele>208.0</ele><time>2026-05-02T08:05:45.961Z</time></trkpt><trkpt lat="45.632976884670036" lon="9.196644799110329"><ele>208.0</ele><time>2026-05-02T08:05:46.961Z</time></trkpt><trkpt lat="45.63307875130315" lon="9.196627536581229"><ele>208.0</ele><time>2026-05-02T08:05:47.961Z</time></trkpt><trkpt lat="45.63316844595684" lon="9.196592462635396"><ele>208.0</ele><time>2026-05-02T08:05:48.961Z</time></trkpt><trkpt lat="45.63325154154391" lon="9.19655642335343"><ele>207.99999999999997</ele><time>2026-05-02T08:05:49.961Z</time></trkpt><trkpt lat="45.63332616635604" lon="9.196532453107105"><ele>208.0</ele><time>2026-05-02T08:05:50.961Z</time></trkpt><trkpt lat="45.633393386376234" lon="9.196509566115292"><ele>208.0</ele><time>2026-05-02T08:05:51.961Z</time></trkpt><trkpt lat="45.633477067262106" lon="9.196499128415075"><ele>208.0</ele><time>2026-05-02T08:05:52.961Z</time></trkpt><trkpt lat="45.63358045348495" lon="9.19651512859309"><ele>207.99999999999997</ele><time>2026-05-02T08:05:53.961Z</time></trkpt><trkpt lat="45.63367614869378" lon="9.196489005619405"><ele>208.0</ele><time>2026-05-02T08:05:54.961Z</time></trkpt><trkpt lat="45.633760921195964" lon="9.19645484672394"><ele>208.33333333333331</ele><time>2026-05-02T08:05:55.961Z</time></trkpt><trkpt lat="45.63384372838794" lon="9.196437358441075"><ele>208.66666666666666</ele><time>2026-05-02T08:05:56.961Z</time></trkpt><trkpt lat="45.633919173411684" lon="9.19641783083282"><ele>209.0</ele><time>2026-05-02T08:05:57.961Z</time></trkpt><trkpt lat="45.63399310786545" lon="9.196398452690472"><ele>209.33333333333331</ele><time>2026-05-02T08:05:58.961Z</time></trkpt><trkpt lat="45.63405553180443" lon="9.196382091443644"><ele>209.66666666666666</ele><time>2026-05-02T08:05:59.961Z</time></trkpt><trkpt lat="45.63412576638906" lon="9.196360369320114"><ele>210.0</ele><time>2026-05-02T08:06:01.959Z</time></trkpt><trkpt lat="45.63422463695488" lon="9.19631050413654"><ele>210.0</ele><time>2026-05-02T08:06:03.959Z</time></trkpt><trkpt lat="45.634303145256915" lon="9.196325412950321"><ele>210.0</ele><time>2026-05-02T08:06:04.959Z</time></trkpt><trkpt lat="45.6343941433329" lon="9.196301196927442"><ele>210.0</ele><time>2026-05-02T08:06:05.959Z</time></trkpt><trkpt lat="45.63449193368591" lon="9.19627517338961"><ele>210.0</ele><time>2026-05-02T08:06:06.959Z</time></trkpt><trkpt lat="45.63458433997141" lon="9.19625011719764"><ele>210.0</ele><time>2026-05-02T08:06:07.959Z</time></trkpt><trkpt lat="45.634671299519134" lon="9.196226244493891"><ele>210.2</ele><time>2026-05-02T08:06:08.959Z</time></trkpt><trkpt lat="45.63474425062022" lon="9.196209540733186"><ele>210.4</ele><time>2026-05-02T08:06:09.959Z</time></trkpt><trkpt lat="45.634809960689914" lon="9.196196333103686"><ele>210.60000000000002</ele><time>2026-05-02T08:06:10.959Z</time></trkpt><trkpt lat="45.63490667008503" lon="9.196172964460017"><ele>210.8</ele><time>2026-05-02T08:06:12.959Z</time></trkpt><trkpt lat="45.63500082124811" lon="9.196136875313007"><ele>211.0</ele><time>2026-05-02T08:06:14.959Z</time></trkpt><trkpt lat="45.63513058362004" lon="9.196099981339263"><ele>211.0</ele><time>2026-05-02T08:06:16.959Z</time></trkpt><trkpt lat="45.63519712549701" lon="9.196080945503976"><ele>211.0</ele><time>2026-05-02T08:06:17.959Z</time></trkpt><trkpt lat="45.635260244261914" lon="9.196062888685528"><ele>211.0</ele><time>2026-05-02T08:06:18.959Z</time></trkpt><trkpt lat="45.635383503275115" lon="9.196028935090936"><ele>211.0</ele><time>2026-05-02T08:06:20.959Z</time></trkpt><trkpt lat="45.63552441997304" lon="9.19599225636931"><ele>211.0</ele><time>2026-05-02T08:06:22.959Z</time></trkpt><trkpt lat="45.635603874147634" lon="9.195972308475532"><ele>210.83333333333331</ele><time>2026-05-02T08:06:23.959Z</time></trkpt><trkpt lat="45.63567969289566" lon="9.195966648878525"><ele>210.66666666666666</ele><time>2026-05-02T08:06:24.959Z</time></trkpt><trkpt lat="45.63576181553961" lon="9.195949822058688"><ele>210.5</ele><time>2026-05-02T08:06:25.959Z</time></trkpt><trkpt lat="45.63584800958037" lon="9.195920845705333"><ele>210.33333333333331</ele><time>2026-05-02T08:06:26.959Z</time></trkpt><trkpt lat="45.63593602967536" lon="9.195888743740541"><ele>210.16666666666666</ele><time>2026-05-02T08:06:27.959Z</time></trkpt><trkpt lat="45.63602021712672" lon="9.19584938171541"><ele>210.0</ele><time>2026-05-02T08:06:28.959Z</time></trkpt><trkpt lat="45.63610477672707" lon="9.195795881393245"><ele>209.8</ele><time>2026-05-02T08:06:29.959Z</time></trkpt><trkpt lat="45.636192714206786" lon="9.19573567844647"><ele>209.6</ele><time>2026-05-02T08:06:30.959Z</time></trkpt><trkpt lat="45.636283418848556" lon="9.195663178609946"><ele>209.39999999999998</ele><time>2026-05-02T08:06:31.959Z</time></trkpt><trkpt lat="45.636367565467076" lon="9.195573574725454"><ele>209.2</ele><time>2026-05-02T08:06:32.959Z</time></trkpt><trkpt lat="45.636448096183486" lon="9.195468995997384"><ele>209.0</ele><time>2026-05-02T08:06:33.959Z</time></trkpt><trkpt lat="45.63653665663909" lon="9.195380745650375"><ele>208.79999999999998</ele><time>2026-05-02T08:06:34.959Z</time></trkpt><trkpt lat="45.636625830444416" lon="9.19529372226489"><ele>208.6</ele><time>2026-05-02T08:06:35.959Z</time></trkpt><trkpt lat="45.636715193091916" lon="9.195210553564468"><ele>208.4</ele><time>2026-05-02T08:06:36.959Z</time></trkpt><trkpt lat="45.63679744932437" lon="9.195131884359911"><ele>208.2</ele><time>2026-05-02T08:06:37.959Z</time></trkpt><trkpt lat="45.63688101942988" lon="9.195057661178486"><ele>208.0</ele><time>2026-05-02T08:06:38.959Z</time></trkpt><trkpt lat="45.63696085829862" lon="9.194988482252727"><ele>208.8</ele><time>2026-05-02T08:06:39.959Z</time></trkpt><trkpt lat="45.63704097418264" lon="9.194923394034832"><ele>209.60000000000002</ele><time>2026-05-02T08:06:40.959Z</time></trkpt><trkpt lat="45.637131626520265" lon="9.194858147055353"><ele>210.39999999999998</ele><time>2026-05-02T08:06:41.959Z</time></trkpt><trkpt lat="45.637228968805125" lon="9.19480508465611"><ele>211.2</ele><time>2026-05-02T08:06:42.959Z</time></trkpt><trkpt lat="45.63732868990392" lon="9.194746387896025"><ele>212.0</ele><time>2026-05-02T08:06:43.959Z</time></trkpt><trkpt lat="45.63743334367819" lon="9.19469886805961"><ele>212.0</ele><time>2026-05-02T08:06:44.959Z</time></trkpt><trkpt lat="45.63754759319824" lon="9.194659809130773"><ele>212.0</ele><time>2026-05-02T08:06:45.959Z</time></trkpt><trkpt lat="45.637670805729364" lon="9.194625287235967"><ele>212.0</ele><time>2026-05-02T08:06:46.959Z</time></trkpt><trkpt lat="45.63778863034227" lon="9.194596770641681"><ele>212.0</ele><time>2026-05-02T08:06:47.959Z</time></trkpt><trkpt lat="45.637904597585006" lon="9.19456549407639"><ele>212.25</ele><time>2026-05-02T08:06:48.959Z</time></trkpt><trkpt lat="45.63801949527813" lon="9.194537469188003"><ele>212.5</ele><time>2026-05-02T08:06:49.959Z</time></trkpt><trkpt lat="45.63813593514077" lon="9.194508540659097"><ele>212.75</ele><time>2026-05-02T08:06:50.959Z</time></trkpt><trkpt lat="45.638249887460866" lon="9.194480223581536"><ele>213.0</ele><time>2026-05-02T08:06:51.959Z</time></trkpt><trkpt lat="45.63836067430708" lon="9.194448736572422"><ele>213.0</ele><time>2026-05-02T08:06:52.959Z</time></trkpt><trkpt lat="45.638478308719186" lon="9.194415316512766"><ele>213.0</ele><time>2026-05-02T08:06:53.959Z</time></trkpt><trkpt lat="45.63858956231754" lon="9.1943812759099"><ele>213.0</ele><time>2026-05-02T08:06:54.959Z</time></trkpt><trkpt lat="45.6387055059264" lon="9.194343294771983"><ele>213.0</ele><time>2026-05-02T08:06:55.959Z</time></trkpt><trkpt lat="45.638822137376884" lon="9.194308414297325"><ele>213.0</ele><time>2026-05-02T08:06:56.958Z</time></trkpt><trkpt lat="45.63894780053957" lon="9.194270926816124"><ele>213.0</ele><time>2026-05-02T08:06:57.958Z</time></trkpt><trkpt lat="45.63906850337045" lon="9.194241234755495"><ele>213.0</ele><time>2026-05-02T08:06:58.958Z</time></trkpt><trkpt lat="45.639177618325974" lon="9.194217597358305"><ele>213.0</ele><time>2026-05-02T08:06:59.958Z</time></trkpt><trkpt lat="45.639280819199435" lon="9.194194708472676"><ele>213.0</ele><time>2026-05-02T08:07:00.958Z</time></trkpt><trkpt lat="45.63937590432447" lon="9.194166360273714"><ele>213.0</ele><time>2026-05-02T08:07:01.958Z</time></trkpt><trkpt lat="45.63947116474211" lon="9.19413709356133"><ele>213.0</ele><time>2026-05-02T08:07:02.958Z</time></trkpt><trkpt lat="45.639569954961374" lon="9.194114583720713"><ele>213.0</ele><time>2026-05-02T08:07:03.958Z</time></trkpt><trkpt lat="45.63966988836567" lon="9.194085799009516"><ele>213.0</ele><time>2026-05-02T08:07:04.958Z</time></trkpt><trkpt lat="45.63977297331985" lon="9.194055046431403"><ele>212.8</ele><time>2026-05-02T08:07:05.958Z</time></trkpt><trkpt lat="45.63989020915875" lon="9.194068101068323"><ele>212.60000000000002</ele><time>2026-05-02T08:07:06.958Z</time></trkpt><trkpt lat="45.63999917340403" lon="9.194045871106239"><ele>212.39999999999998</ele><time>2026-05-02T08:07:07.958Z</time></trkpt><trkpt lat="45.64010510077992" lon="9.194023280846006"><ele>212.2</ele><time>2026-05-02T08:07:08.958Z</time></trkpt><trkpt lat="45.64021736128141" lon="9.194001468586583"><ele>212.0</ele><time>2026-05-02T08:07:09.958Z</time></trkpt><trkpt lat="45.640319076971736" lon="9.193985532449478"><ele>212.16666666666669</ele><time>2026-05-02T08:07:10.958Z</time></trkpt><trkpt lat="45.64040544848255" lon="9.193973306814126"><ele>212.33333333333334</ele><time>2026-05-02T08:07:11.958Z</time></trkpt><trkpt lat="45.640473761699475" lon="9.193959094968909"><ele>212.5</ele><time>2026-05-02T08:07:12.958Z</time></trkpt><trkpt lat="45.64053853176357" lon="9.193978912655137"><ele>212.66666666666669</ele><time>2026-05-02T08:07:14.958Z</time></trkpt><trkpt lat="45.64061086953843" lon="9.194004264556982"><ele>212.83333333333334</ele><time>2026-05-02T08:07:18.958Z</time></trkpt><trkpt lat="45.640720485097724" lon="9.194030371730731"><ele>213.0</ele><time>2026-05-02T08:07:20.958Z</time></trkpt><trkpt lat="45.64080032116254" lon="9.19402021972503"><ele>213.0</ele><time>2026-05-02T08:07:21.958Z</time></trkpt><trkpt lat="45.640874367174035" lon="9.19393158939157"><ele>213.0</ele><time>2026-05-02T08:07:22.958Z</time></trkpt><trkpt lat="45.64096845062221" lon="9.193862289738442"><ele>213.0</ele><time>2026-05-02T08:07:23.958Z</time></trkpt><trkpt lat="45.64106740627692" lon="9.19381352970304"><ele>213.0</ele><time>2026-05-02T08:07:24.958Z</time></trkpt><trkpt lat="45.64117137584273" lon="9.193782877398357"><ele>213.0</ele><time>2026-05-02T08:07:25.958Z</time></trkpt><trkpt lat="45.641275874065364" lon="9.193759424175521"><ele>213.0</ele><time>2026-05-02T08:07:26.958Z</time></trkpt><trkpt lat="45.64138148006641" lon="9.193741983229149"><ele>213.0</ele><time>2026-05-02T08:07:27.958Z</time></trkpt><trkpt lat="45.64148848076233" lon="9.193728060589764"><ele>213.0</ele><time>2026-05-02T08:07:28.958Z</time></trkpt><trkpt lat="45.641598255534184" lon="9.193714905016174"><ele>213.0</ele><time>2026-05-02T08:07:29.958Z</time></trkpt><trkpt lat="45.641711914120435" lon="9.193699300823422"><ele>213.0</ele><time>2026-05-02T08:07:30.958Z</time></trkpt><trkpt lat="45.64182553133963" lon="9.193681146609464"><ele>213.0</ele><time>2026-05-02T08:07:31.958Z</time></trkpt><trkpt lat="45.64193561596046" lon="9.193661348103154"><ele>213.0</ele><time>2026-05-02T08:07:32.958Z</time></trkpt><trkpt lat="45.642041188613895" lon="9.193635659177755"><ele>213.0</ele><time>2026-05-02T08:07:33.958Z</time></trkpt><trkpt lat="45.64214439248209" lon="9.193615660411657"><ele>213.0</ele><time>2026-05-02T08:07:34.958Z</time></trkpt><trkpt lat="45.64224793869964" lon="9.193592819299564"><ele>213.0</ele><time>2026-05-02T08:07:35.958Z</time></trkpt><trkpt lat="45.6423471274879" lon="9.193565819437609"><ele>213.25</ele><time>2026-05-02T08:07:36.958Z</time></trkpt><trkpt lat="45.642443250296566" lon="9.193542084965921"><ele>213.5</ele><time>2026-05-02T08:07:37.958Z</time></trkpt><trkpt lat="45.642532706601195" lon="9.193520429620776"><ele>213.75</ele><time>2026-05-02T08:07:38.958Z</time></trkpt><trkpt lat="45.6426251152017" lon="9.19352878415614"><ele>214.0</ele><time>2026-05-02T08:07:39.958Z</time></trkpt><trkpt lat="45.64283152836228" lon="9.193480941178933"><ele>214.5</ele><time>2026-05-02T08:07:41.958Z</time></trkpt><trkpt lat="45.6429440007807" lon="9.193451514608395"><ele>215.0</ele><time>2026-05-02T08:07:42.958Z</time></trkpt><trkpt lat="45.643069127261604" lon="9.193424020688733"><ele>215.5</ele><time>2026-05-02T08:07:43.958Z</time></trkpt><trkpt lat="45.64319556289181" lon="9.193395524087439"><ele>216.0</ele><time>2026-05-02T08:07:44.958Z</time></trkpt><trkpt lat="45.643326209903734" lon="9.193369292436966"><ele>216.0</ele><time>2026-05-02T08:07:45.958Z</time></trkpt><trkpt lat="45.6434666177831" lon="9.193343108891717"><ele>216.0</ele><time>2026-05-02T08:07:46.958Z</time></trkpt><trkpt lat="45.64360598259956" lon="9.193315086093056"><ele>216.0</ele><time>2026-05-02T08:07:47.958Z</time></trkpt><trkpt lat="45.64374749259483" lon="9.193277527412079"><ele>216.0</ele><time>2026-05-02T08:07:48.958Z</time></trkpt><trkpt lat="45.64388830890011" lon="9.193237793569388"><ele>215.75</ele><time>2026-05-02T08:07:49.958Z</time></trkpt><trkpt lat="45.644025802575435" lon="9.193200279876272"><ele>215.5</ele><time>2026-05-02T08:07:50.958Z</time></trkpt><trkpt lat="45.644159512572216" lon="9.193160283244868"><ele>215.25</ele><time>2026-05-02T08:07:51.958Z</time></trkpt><trkpt lat="45.64428353127919" lon="9.193131456486926"><ele>215.0</ele><time>2026-05-02T08:07:52.958Z</time></trkpt><trkpt lat="45.64440808643369" lon="9.193104747440362"><ele>215.75</ele><time>2026-05-02T08:07:53.958Z</time></trkpt><trkpt lat="45.64453993365765" lon="9.19308140092844"><ele>216.5</ele><time>2026-05-02T08:07:54.958Z</time></trkpt><trkpt lat="45.64466209922877" lon="9.193060760250026"><ele>217.25</ele><time>2026-05-02T08:07:55.958Z</time></trkpt><trkpt lat="45.64477801356953" lon="9.193048374117515"><ele>218.0</ele><time>2026-05-02T08:07:56.958Z</time></trkpt><trkpt lat="45.644887564126165" lon="9.193040567374924"><ele>218.00000000000003</ele><time>2026-05-02T08:07:57.958Z</time></trkpt><trkpt lat="45.64498747919615" lon="9.193039267770137"><ele>218.0</ele><time>2026-05-02T08:07:58.958Z</time></trkpt><trkpt lat="45.645080142462966" lon="9.193041115022783"><ele>218.0</ele><time>2026-05-02T08:07:59.958Z</time></trkpt><trkpt lat="45.645161437108" lon="9.193038837070278"><ele>218.0</ele><time>2026-05-02T08:08:00.958Z</time></trkpt><trkpt lat="45.64523496968615" lon="9.193044560896373"><ele>218.00000000000003</ele><time>2026-05-02T08:08:01.958Z</time></trkpt><trkpt lat="45.645301194139186" lon="9.1930599908683"><ele>218.0</ele><time>2026-05-02T08:08:02.958Z</time></trkpt><trkpt lat="45.64536068937708" lon="9.193090059153329"><ele>218.16666666666669</ele><time>2026-05-02T08:08:03.958Z</time></trkpt><trkpt lat="45.64541811311698" lon="9.193130503057153"><ele>218.33333333333334</ele><time>2026-05-02T08:08:04.958Z</time></trkpt><trkpt lat="45.64552715162191" lon="9.19315089546479"><ele>218.5</ele><time>2026-05-02T08:08:06.957Z</time></trkpt><trkpt lat="45.645590532365155" lon="9.193024671850544"><ele>218.66666666666669</ele><time>2026-05-02T08:08:08.957Z</time></trkpt><trkpt lat="45.645582846757826" lon="9.19292332011457"><ele>218.83333333333334</ele><time>2026-05-02T08:08:09.956Z</time></trkpt><trkpt lat="45.645551622535194" lon="9.19280528097918"><ele>219.0</ele><time>2026-05-02T08:08:10.957Z</time></trkpt><trkpt lat="45.645519408859656" lon="9.19267977704815"><ele>219.0</ele><time>2026-05-02T08:08:11.957Z</time></trkpt><trkpt lat="45.6454972738647" lon="9.192518929643963"><ele>219.0</ele><time>2026-05-02T08:08:12.957Z</time></trkpt><trkpt lat="45.64548301560999" lon="9.192337489096682"><ele>219.0</ele><time>2026-05-02T08:08:13.956Z</time></trkpt><trkpt lat="45.64548855617018" lon="9.192131234555166"><ele>219.0</ele><time>2026-05-02T08:08:14.956Z</time></trkpt><trkpt lat="45.645478406850714" lon="9.191920625850967"><ele>219.0</ele><time>2026-05-02T08:08:15.957Z</time></trkpt><trkpt lat="45.64545201344323" lon="9.191711173598382"><ele>219.0</ele><time>2026-05-02T08:08:16.957Z</time></trkpt><trkpt lat="45.64544583386452" lon="9.191514000293363"><ele>219.0</ele><time>2026-05-02T08:08:17.957Z</time></trkpt><trkpt lat="45.645438540702585" lon="9.191328452781688"><ele>219.0</ele><time>2026-05-02T08:08:18.957Z</time></trkpt><trkpt lat="45.64543161049829" lon="9.191152688168122"><ele>218.75</ele><time>2026-05-02T08:08:19.957Z</time></trkpt><trkpt lat="45.64542157307822" lon="9.190978981378088"><ele>218.5</ele><time>2026-05-02T08:08:20.957Z</time></trkpt><trkpt lat="45.64544957536496" lon="9.190802008868818"><ele>218.25</ele><time>2026-05-02T08:08:21.957Z</time></trkpt><trkpt lat="45.645438224268524" lon="9.19062586596918"><ele>218.0</ele><time>2026-05-02T08:08:22.957Z</time></trkpt><trkpt lat="45.645429847283374" lon="9.190450207143389"><ele>218.0</ele><time>2026-05-02T08:08:23.957Z</time></trkpt><trkpt lat="45.64542457457014" lon="9.190269706940086"><ele>218.0</ele><time>2026-05-02T08:08:24.957Z</time></trkpt><trkpt lat="45.645436320268985" lon="9.190087365638044"><ele>218.0</ele><time>2026-05-02T08:08:25.957Z</time></trkpt><trkpt lat="45.645464439738525" lon="9.18990324360805"><ele>218.0</ele><time>2026-05-02T08:08:26.957Z</time></trkpt><trkpt lat="45.64550946885979" lon="9.189720913787962"><ele>217.75</ele><time>2026-05-02T08:08:27.957Z</time></trkpt><trkpt lat="45.64557162356508" lon="9.189548256751133"><ele>217.5</ele><time>2026-05-02T08:08:28.958Z</time></trkpt><trkpt lat="45.64565112838544" lon="9.189377014887667"><ele>217.25</ele><time>2026-05-02T08:08:29.958Z</time></trkpt><trkpt lat="45.64574797037885" lon="9.189227890291004"><ele>217.0</ele><time>2026-05-02T08:08:30.958Z</time></trkpt><trkpt lat="45.64585580381294" lon="9.189094237180392"><ele>217.0</ele><time>2026-05-02T08:08:31.958Z</time></trkpt><trkpt lat="45.64597624670924" lon="9.188983403482332"><ele>217.0</ele><time>2026-05-02T08:08:32.958Z</time></trkpt><trkpt lat="45.646105836629275" lon="9.188892178827324"><ele>217.0</ele><time>2026-05-02T08:08:33.958Z</time></trkpt><trkpt lat="45.64623293214691" lon="9.188803009861749"><ele>217.0</ele><time>2026-05-02T08:08:34.958Z</time></trkpt><trkpt lat="45.64635269454606" lon="9.188719280851839"><ele>217.0</ele><time>2026-05-02T08:08:35.958Z</time></trkpt><trkpt lat="45.64646449755067" lon="9.188635215210907"><ele>217.0</ele><time>2026-05-02T08:08:36.958Z</time></trkpt><trkpt lat="45.64657059091059" lon="9.18855196292361"><ele>217.0</ele><time>2026-05-02T08:08:37.958Z</time></trkpt><trkpt lat="45.64667261777405" lon="9.18847283136472"><ele>217.0</ele><time>2026-05-02T08:08:38.958Z</time></trkpt><trkpt lat="45.64677636482498" lon="9.188392620790443"><ele>217.0</ele><time>2026-05-02T08:08:39.958Z</time></trkpt><trkpt lat="45.64688516522514" lon="9.188299832430378"><ele>217.0</ele><time>2026-05-02T08:08:40.958Z</time></trkpt><trkpt lat="45.647008787254194" lon="9.188243866660734"><ele>217.0</ele><time>2026-05-02T08:08:41.958Z</time></trkpt><trkpt lat="45.64711964328974" lon="9.188164527664615"><ele>217.0</ele><time>2026-05-02T08:08:42.958Z</time></trkpt><trkpt lat="45.647226893501646" lon="9.188087919671887"><ele>216.5</ele><time>2026-05-02T08:08:43.958Z</time></trkpt><trkpt lat="45.647333704452166" lon="9.188018943171818"><ele>216.0</ele><time>2026-05-02T08:08:44.958Z</time></trkpt><trkpt lat="45.64744366889097" lon="9.187957330707672"><ele>215.5</ele><time>2026-05-02T08:08:45.958Z</time></trkpt><trkpt lat="45.647561597716845" lon="9.187903196158482"><ele>215.0</ele><time>2026-05-02T08:08:46.958Z</time></trkpt><trkpt lat="45.647684613520276" lon="9.187860583314073"><ele>215.0</ele><time>2026-05-02T08:08:47.958Z</time></trkpt><trkpt lat="45.64780934490557" lon="9.187823050511362"><ele>215.0</ele><time>2026-05-02T08:08:48.958Z</time></trkpt><trkpt lat="45.64793539489683" lon="9.1877941610606"><ele>215.0</ele><time>2026-05-02T08:08:49.958Z</time></trkpt><trkpt lat="45.648063407632584" lon="9.187773002381142"><ele>215.0</ele><time>2026-05-02T08:08:50.958Z</time></trkpt><trkpt lat="45.64818999359162" lon="9.187763207146345"><ele>215.0</ele><time>2026-05-02T08:08:51.958Z</time></trkpt><trkpt lat="45.648306448199506" lon="9.18777078091114"><ele>215.0</ele><time>2026-05-02T08:08:52.958Z</time></trkpt><trkpt lat="45.64841464038415" lon="9.187789000814293"><ele>215.0</ele><time>2026-05-02T08:08:53.958Z</time></trkpt><trkpt lat="45.64852111533799" lon="9.187813019375088"><ele>215.0</ele><time>2026-05-02T08:08:54.958Z</time></trkpt><trkpt lat="45.64862996855967" lon="9.187837094656771"><ele>215.0</ele><time>2026-05-02T08:08:55.958Z</time></trkpt><trkpt lat="45.6487313665343" lon="9.187871577008277"><ele>215.4</ele><time>2026-05-02T08:08:56.958Z</time></trkpt><trkpt lat="45.64882859516752" lon="9.187908287398573"><ele>215.8</ele><time>2026-05-02T08:08:57.958Z</time></trkpt><trkpt lat="45.64891367438765" lon="9.187946053127588"><ele>216.2</ele><time>2026-05-02T08:08:58.958Z</time></trkpt><trkpt lat="45.6489950966267" lon="9.18797916950377"><ele>216.6</ele><time>2026-05-02T08:08:59.958Z</time></trkpt><trkpt lat="45.64907774944585" lon="9.188015691223374"><ele>217.0</ele><time>2026-05-02T08:09:00.958Z</time></trkpt><trkpt lat="45.64916843008465" lon="9.188054178922718"><ele>217.0</ele><time>2026-05-02T08:09:01.958Z</time></trkpt><trkpt lat="45.64926421433843" lon="9.188097256027804"><ele>217.0</ele><time>2026-05-02T08:09:02.958Z</time></trkpt><trkpt lat="45.64936571995426" lon="9.188139739746333"><ele>217.0</ele><time>2026-05-02T08:09:03.958Z</time></trkpt><trkpt lat="45.649469296898964" lon="9.188179855962685"><ele>217.0</ele><time>2026-05-02T08:09:04.958Z</time></trkpt><trkpt lat="45.64956966193178" lon="9.188217604717417"><ele>217.0</ele><time>2026-05-02T08:09:05.958Z</time></trkpt><trkpt lat="45.64966948372959" lon="9.18825479203561"><ele>217.6</ele><time>2026-05-02T08:09:06.958Z</time></trkpt><trkpt lat="45.64976581125559" lon="9.188296079582186"><ele>218.2</ele><time>2026-05-02T08:09:07.958Z</time></trkpt><trkpt lat="45.649866866497995" lon="9.188338092612023"><ele>218.8</ele><time>2026-05-02T08:09:08.958Z</time></trkpt><trkpt lat="45.64997281302083" lon="9.188383693747278"><ele>219.4</ele><time>2026-05-02T08:09:09.958Z</time></trkpt><trkpt lat="45.65007470501843" lon="9.188423231505826"><ele>220.0</ele><time>2026-05-02T08:09:10.958Z</time></trkpt><trkpt lat="45.65018008209728" lon="9.188448357829914"><ele>220.0</ele><time>2026-05-02T08:09:11.958Z</time></trkpt><trkpt lat="45.65029011752024" lon="9.188470085188515"><ele>220.0</ele><time>2026-05-02T08:09:12.958Z</time></trkpt><trkpt lat="45.650395856685684" lon="9.188484870925425"><ele>220.0</ele><time>2026-05-02T08:09:13.958Z</time></trkpt><trkpt lat="45.6504948779515" lon="9.188493625117834"><ele>220.0</ele><time>2026-05-02T08:09:14.958Z</time></trkpt><trkpt lat="45.65059476176742" lon="9.188495154754"><ele>220.0</ele><time>2026-05-02T08:09:15.958Z</time></trkpt><trkpt lat="45.650688576471616" lon="9.188497063837351"><ele>220.0</ele><time>2026-05-02T08:09:16.958Z</time></trkpt><trkpt lat="45.650782964612446" lon="9.188497521189504"><ele>220.0</ele><time>2026-05-02T08:09:17.958Z</time></trkpt><trkpt lat="45.65088082142393" lon="9.188496926442227"><ele>220.0</ele><time>2026-05-02T08:09:18.958Z</time></trkpt><trkpt lat="45.65097877235828" lon="9.188500614954057"><ele>220.0</ele><time>2026-05-02T08:09:19.958Z</time></trkpt><trkpt lat="45.65106800872234" lon="9.188493948973214"><ele>220.0</ele><time>2026-05-02T08:09:20.958Z</time></trkpt><trkpt lat="45.65114908146664" lon="9.188492938341582"><ele>220.33333333333331</ele><time>2026-05-02T08:09:21.958Z</time></trkpt><trkpt lat="45.65122789874555" lon="9.188493448295551"><ele>220.66666666666666</ele><time>2026-05-02T08:09:22.958Z</time></trkpt><trkpt lat="45.651302402307955" lon="9.188494104673104"><ele>221.0</ele><time>2026-05-02T08:09:23.958Z</time></trkpt><trkpt lat="45.65136988404822" lon="9.188493396093715"><ele>221.33333333333331</ele><time>2026-05-02T08:09:24.958Z</time></trkpt><trkpt lat="45.65147002794187" lon="9.188504852650079"><ele>221.66666666666666</ele><time>2026-05-02T08:09:26.958Z</time></trkpt><trkpt lat="45.65157362747671" lon="9.188546414912773"><ele>222.0</ele><time>2026-05-02T08:09:30.958Z</time></trkpt><trkpt lat="45.65169035003085" lon="9.188560333556579"><ele>222.0</ele><time>2026-05-02T08:09:32.958Z</time></trkpt><trkpt lat="45.65175969868151" lon="9.188535556564597"><ele>222.0</ele><time>2026-05-02T08:09:33.958Z</time></trkpt><trkpt lat="45.65181678194322" lon="9.188452579753216"><ele>222.0</ele><time>2026-05-02T08:09:34.958Z</time></trkpt><trkpt lat="45.65194865481494" lon="9.188472870866262"><ele>222.0</ele><time>2026-05-02T08:09:35.958Z</time></trkpt><trkpt lat="45.65205646921454" lon="9.18846517484536"><ele>222.0</ele><time>2026-05-02T08:09:36.958Z</time></trkpt><trkpt lat="45.652150717361565" lon="9.188466532393129"><ele>222.39999999999998</ele><time>2026-05-02T08:09:37.958Z</time></trkpt><trkpt lat="45.65223557514214" lon="9.188468939233251"><ele>222.79999999999998</ele><time>2026-05-02T08:09:38.958Z</time></trkpt><trkpt lat="45.65233201431244" lon="9.188447537343922"><ele>223.2</ele><time>2026-05-02T08:09:39.958Z</time></trkpt><trkpt lat="45.65242898836661" lon="9.188440152402812"><ele>223.6</ele><time>2026-05-02T08:09:40.958Z</time></trkpt><trkpt lat="45.65252914863176" lon="9.18842663498981"><ele>224.0</ele><time>2026-05-02T08:09:41.958Z</time></trkpt><trkpt lat="45.6526405145395" lon="9.188440530536152"><ele>224.00000000000003</ele><time>2026-05-02T08:09:42.958Z</time></trkpt><trkpt lat="45.65274260795649" lon="9.18843252418426"><ele>224.0</ele><time>2026-05-02T08:09:43.958Z</time></trkpt><trkpt lat="45.65283646148522" lon="9.188453594236288"><ele>224.0</ele><time>2026-05-02T08:09:44.958Z</time></trkpt><trkpt lat="45.65292610193355" lon="9.18845893140895"><ele>224.0</ele><time>2026-05-02T08:09:45.958Z</time></trkpt><trkpt lat="45.6530033078981" lon="9.188440893717377"><ele>224.00000000000003</ele><time>2026-05-02T08:09:46.958Z</time></trkpt><trkpt lat="45.65307958726205" lon="9.188434445880704"><ele>224.0</ele><time>2026-05-02T08:09:47.958Z</time></trkpt><trkpt lat="45.65315353643396" lon="9.188425269040547"><ele>224.6</ele><time>2026-05-02T08:09:48.958Z</time></trkpt><trkpt lat="45.6532626081692" lon="9.188404486552196"><ele>225.2</ele><time>2026-05-02T08:09:50.958Z</time></trkpt><trkpt lat="45.65336693847035" lon="9.188383321666253"><ele>225.79999999999998</ele><time>2026-05-02T08:09:52.958Z</time></trkpt><trkpt lat="45.65345860622201" lon="9.188371825481076"><ele>226.39999999999998</ele><time>2026-05-02T08:09:54.958Z</time></trkpt><trkpt lat="45.65352545986451" lon="9.188346438415996"><ele>227.0</ele><time>2026-05-02T08:09:57.958Z</time></trkpt><trkpt lat="45.65360836553578" lon="9.18840188042801"><ele>227.0</ele><time>2026-05-02T08:09:59.958Z</time></trkpt><trkpt lat="45.65374907700708" lon="9.18832612944289"><ele>227.0</ele><time>2026-05-02T08:10:01.958Z</time></trkpt><trkpt lat="45.65383602696621" lon="9.18828923859589"><ele>227.0</ele><time>2026-05-02T08:10:02.958Z</time></trkpt><trkpt lat="45.653923981333335" lon="9.188242292393223"><ele>227.0</ele><time>2026-05-02T08:10:03.958Z</time></trkpt><trkpt lat="45.65414913638028" lon="9.188272062421794"><ele>227.0</ele><time>2026-05-02T08:10:05.958Z</time></trkpt><trkpt lat="45.654264427528375" lon="9.188262383526341"><ele>227.0</ele><time>2026-05-02T08:10:06.958Z</time></trkpt><trkpt lat="45.654382359689784" lon="9.188267510116189"><ele>227.0</ele><time>2026-05-02T08:10:07.958Z</time></trkpt><trkpt lat="45.65449858112521" lon="9.188263849430236"><ele>227.0</ele><time>2026-05-02T08:10:08.958Z</time></trkpt><trkpt lat="45.65461425829306" lon="9.188257098894251"><ele>227.0</ele><time>2026-05-02T08:10:09.958Z</time></trkpt><trkpt lat="45.65472602407214" lon="9.18824181673572"><ele>227.0</ele><time>2026-05-02T08:10:10.958Z</time></trkpt><trkpt lat="45.654838134690884" lon="9.188235065542372"><ele>227.0</ele><time>2026-05-02T08:10:11.958Z</time></trkpt><trkpt lat="45.654953855993504" lon="9.188221352983884"><ele>227.0</ele><time>2026-05-02T08:10:12.956Z</time></trkpt><trkpt lat="45.65506813724632" lon="9.188200038149818"><ele>227.0</ele><time>2026-05-02T08:10:13.957Z</time></trkpt><trkpt lat="45.655185626021" lon="9.188182355516567"><ele>227.0</ele><time>2026-05-02T08:10:14.957Z</time></trkpt><trkpt lat="45.655299792668714" lon="9.188159969729195"><ele>227.0</ele><time>2026-05-02T08:10:15.956Z</time></trkpt><trkpt lat="45.655410459865486" lon="9.18813811850017"><ele>227.0</ele><time>2026-05-02T08:10:16.956Z</time></trkpt><trkpt lat="45.65551555683578" lon="9.18812427542498"><ele>227.00000000000003</ele><time>2026-05-02T08:10:17.956Z</time></trkpt><trkpt lat="45.655613162303695" lon="9.188100962635202"><ele>227.0</ele><time>2026-05-02T08:10:18.957Z</time></trkpt><trkpt lat="45.6556999073246" lon="9.188097674951978"><ele>227.0</ele><time>2026-05-02T08:10:19.956Z</time></trkpt><trkpt lat="45.655767880069284" lon="9.18808573903586"><ele>227.0</ele><time>2026-05-02T08:10:20.956Z</time></trkpt><trkpt lat="45.65586483576103" lon="9.18808284545377"><ele>227.00000000000003</ele><time>2026-05-02T08:10:22.956Z</time></trkpt><trkpt lat="45.65594412678121" lon="9.188069191410952"><ele>227.0</ele><time>2026-05-02T08:10:24.956Z</time></trkpt><trkpt lat="45.656019730634966" lon="9.188068795516195"><ele>227.0</ele><time>2026-05-02T08:10:28.956Z</time></trkpt><trkpt lat="45.65609748009539" lon="9.188103991592005"><ele>227.0</ele><time>2026-05-02T08:10:37.956Z</time></trkpt><trkpt lat="45.65620982884552" lon="9.188167714731772"><ele>227.0</ele><time>2026-05-02T08:10:39.956Z</time></trkpt><trkpt lat="45.656288651967316" lon="9.188037473260698"><ele>227.0</ele><time>2026-05-02T08:10:40.956Z</time></trkpt><trkpt lat="45.656377347005055" lon="9.187972064694574"><ele>227.0</ele><time>2026-05-02T08:10:41.956Z</time></trkpt><trkpt lat="45.65648655394358" lon="9.187954960991421"><ele>227.0</ele><time>2026-05-02T08:10:42.956Z</time></trkpt><trkpt lat="45.65661052627678" lon="9.18792844262709"><ele>227.0</ele><time>2026-05-02T08:10:43.956Z</time></trkpt><trkpt lat="45.65674335186011" lon="9.187881543389658"><ele>227.0</ele><time>2026-05-02T08:10:44.956Z</time></trkpt><trkpt lat="45.656880032071456" lon="9.187856697234533"><ele>227.0</ele><time>2026-05-02T08:10:45.956Z</time></trkpt><trkpt lat="45.65701862865729" lon="9.187830879816188"><ele>227.0</ele><time>2026-05-02T08:10:46.956Z</time></trkpt><trkpt lat="45.65716337224533" lon="9.187802322180037"><ele>227.0</ele><time>2026-05-02T08:10:47.955Z</time></trkpt><trkpt lat="45.657305995757476" lon="9.18777545559517"><ele>227.0</ele><time>2026-05-02T08:10:48.955Z</time></trkpt><trkpt lat="45.65745189315889" lon="9.18775116570967"><ele>227.0</ele><time>2026-05-02T08:10:49.955Z</time></trkpt><trkpt lat="45.65759978548037" lon="9.187717463293835"><ele>227.0</ele><time>2026-05-02T08:10:50.955Z</time></trkpt><trkpt lat="45.657753275045344" lon="9.187682756718027"><ele>227.0</ele><time>2026-05-02T08:10:51.955Z</time></trkpt><trkpt lat="45.65790854285009" lon="9.187657493159655"><ele>227.0</ele><time>2026-05-02T08:10:52.955Z</time></trkpt><trkpt lat="45.65806375166536" lon="9.187624940118484"><ele>228.0</ele><time>2026-05-02T08:10:53.955Z</time></trkpt><trkpt lat="45.65821886922461" lon="9.18758942484937"><ele>229.0</ele><time>2026-05-02T08:10:54.955Z</time></trkpt><trkpt lat="45.658366758155076" lon="9.187568111112764"><ele>230.0</ele><time>2026-05-02T08:10:55.955Z</time></trkpt><trkpt lat="45.65850455589204" lon="9.187540639632536"><ele>231.0</ele><time>2026-05-02T08:10:56.955Z</time></trkpt><trkpt lat="45.658632688111396" lon="9.187512315209066"><ele>231.0</ele><time>2026-05-02T08:10:57.955Z</time></trkpt><trkpt lat="45.65874832910811" lon="9.187490647261171"><ele>231.00000000000003</ele><time>2026-05-02T08:10:58.955Z</time></trkpt><trkpt lat="45.658847372935384" lon="9.187469782697264"><ele>231.00000000000003</ele><time>2026-05-02T08:10:59.955Z</time></trkpt><trkpt lat="45.658925686790695" lon="9.187458745891599"><ele>231.0</ele><time>2026-05-02T08:11:00.955Z</time></trkpt><trkpt lat="45.65899298704461" lon="9.187465881312104"><ele>231.0</ele><time>2026-05-02T08:11:01.955Z</time></trkpt><trkpt lat="45.65911727335664" lon="9.187535670203106"><ele>231.0</ele><time>2026-05-02T08:11:03.955Z</time></trkpt><trkpt lat="45.65917945638198" lon="9.187559295165155"><ele>231.0</ele><time>2026-05-02T08:11:04.955Z</time></trkpt><trkpt lat="45.659247903814624" lon="9.18754578189507"><ele>231.0</ele><time>2026-05-02T08:11:05.955Z</time></trkpt><trkpt lat="45.65931686892386" lon="9.18749114880594"><ele>231.0</ele><time>2026-05-02T08:11:06.955Z</time></trkpt><trkpt lat="45.659391380142665" lon="9.18742133133439"><ele>231.0</ele><time>2026-05-02T08:11:07.955Z</time></trkpt><trkpt lat="45.659485819716714" lon="9.187364227576785"><ele>231.0</ele><time>2026-05-02T08:11:08.955Z</time></trkpt><trkpt lat="45.65958865409882" lon="9.187317245885405"><ele>231.0</ele><time>2026-05-02T08:11:09.955Z</time></trkpt><trkpt lat="45.65969571796992" lon="9.187291071536054"><ele>231.0</ele><time>2026-05-02T08:11:10.955Z</time></trkpt><trkpt lat="45.659809764111984" lon="9.187276529686962"><ele>231.0</ele><time>2026-05-02T08:11:11.955Z</time></trkpt><trkpt lat="45.65992966960816" lon="9.187251892937931"><ele>231.0</ele><time>2026-05-02T08:11:12.955Z</time></trkpt><trkpt lat="45.66005230804114" lon="9.187227602816874"><ele>231.0</ele><time>2026-05-02T08:11:13.955Z</time></trkpt><trkpt lat="45.660174513375544" lon="9.18720804927043"><ele>231.0</ele><time>2026-05-02T08:11:14.955Z</time></trkpt><trkpt lat="45.660300646086284" lon="9.187183707813478"><ele>231.0</ele><time>2026-05-02T08:11:15.955Z</time></trkpt><trkpt lat="45.66043296766966" lon="9.18716294967275"><ele>231.0</ele><time>2026-05-02T08:11:16.955Z</time></trkpt><trkpt lat="45.660565640624924" lon="9.187134765472077"><ele>231.25</ele><time>2026-05-02T08:11:17.955Z</time></trkpt><trkpt lat="45.660702575567356" lon="9.187105211247593"><ele>231.5</ele><time>2026-05-02T08:11:18.955Z</time></trkpt><trkpt lat="45.66083639917938" lon="9.18708979742408"><ele>231.75</ele><time>2026-05-02T08:11:19.955Z</time></trkpt><trkpt lat="45.66096459586304" lon="9.187082366351307"><ele>232.0</ele><time>2026-05-02T08:11:20.955Z</time></trkpt><trkpt lat="45.66109574556104" lon="9.18708074121897"><ele>231.75</ele><time>2026-05-02T08:11:21.955Z</time></trkpt><trkpt lat="45.661223089044185" lon="9.187076989833987"><ele>231.5</ele><time>2026-05-02T08:11:22.955Z</time></trkpt><trkpt lat="45.661353315015496" lon="9.187073357395912"><ele>231.25</ele><time>2026-05-02T08:11:23.955Z</time></trkpt><trkpt lat="45.66148005056702" lon="9.187065209501226"><ele>231.0</ele><time>2026-05-02T08:11:24.955Z</time></trkpt><trkpt lat="45.66160564955209" lon="9.187055785285045"><ele>231.0</ele><time>2026-05-02T08:11:25.955Z</time></trkpt><trkpt lat="45.66173259962783" lon="9.187047787237411"><ele>231.0</ele><time>2026-05-02T08:11:26.955Z</time></trkpt><trkpt lat="45.66185860950539" lon="9.187035897829588"><ele>231.0</ele><time>2026-05-02T08:11:27.955Z</time></trkpt><trkpt lat="45.66198642054472" lon="9.187017250016414"><ele>231.0</ele><time>2026-05-02T08:11:28.955Z</time></trkpt><trkpt lat="45.66211887993978" lon="9.18699905606304"><ele>231.25</ele><time>2026-05-02T08:11:29.955Z</time></trkpt><trkpt lat="45.662253644566476" lon="9.18698163891238"><ele>231.5</ele><time>2026-05-02T08:11:30.955Z</time></trkpt><trkpt lat="45.66239275551098" lon="9.186965704373407"><ele>231.75</ele><time>2026-05-02T08:11:31.955Z</time></trkpt><trkpt lat="45.66253372090857" lon="9.186953427007309"><ele>232.0</ele><time>2026-05-02T08:11:32.955Z</time></trkpt><trkpt lat="45.66267691132573" lon="9.186932705823649"><ele>232.25</ele><time>2026-05-02T08:11:33.955Z</time></trkpt><trkpt lat="45.66282273264785" lon="9.186917730529855"><ele>232.5</ele><time>2026-05-02T08:11:34.955Z</time></trkpt><trkpt lat="45.662966573080354" lon="9.186908236024804"><ele>232.75</ele><time>2026-05-02T08:11:35.955Z</time></trkpt><trkpt lat="45.6631118871769" lon="9.186892241734983"><ele>233.0</ele><time>2026-05-02T08:11:36.955Z</time></trkpt><trkpt lat="45.66325820806715" lon="9.186876210132004"><ele>233.0</ele><time>2026-05-02T08:11:37.955Z</time></trkpt><trkpt lat="45.6634070492463" lon="9.186860744392558"><ele>233.0</ele><time>2026-05-02T08:11:38.955Z</time></trkpt><trkpt lat="45.6635567406715" lon="9.18684640724883"><ele>233.0</ele><time>2026-05-02T08:11:39.955Z</time></trkpt><trkpt lat="45.663704888628196" lon="9.186836189875077"><ele>233.0</ele><time>2026-05-02T08:11:40.955Z</time></trkpt><trkpt lat="45.66385087384807" lon="9.18681576300675"><ele>234.0</ele><time>2026-05-02T08:11:41.955Z</time></trkpt><trkpt lat="45.66398647431975" lon="9.186793513978598"><ele>235.0</ele><time>2026-05-02T08:11:42.955Z</time></trkpt><trkpt lat="45.66413069877247" lon="9.18677611968774"><ele>236.0</ele><time>2026-05-02T08:11:43.955Z</time></trkpt><trkpt lat="45.664272885951426" lon="9.186753832770036"><ele>237.0</ele><time>2026-05-02T08:11:44.955Z</time></trkpt><trkpt lat="45.66441694545819" lon="9.186729774626437"><ele>236.33333333333331</ele><time>2026-05-02T08:11:45.955Z</time></trkpt><trkpt lat="45.66456401068019" lon="9.186707855775937"><ele>235.66666666666666</ele><time>2026-05-02T08:11:46.955Z</time></trkpt><trkpt lat="45.664717835424184" lon="9.186692775206938"><ele>235.0</ele><time>2026-05-02T08:11:47.955Z</time></trkpt><trkpt lat="45.66487017227022" lon="9.186671343272513"><ele>235.0</ele><time>2026-05-02T08:11:48.955Z</time></trkpt><trkpt lat="45.66501605232177" lon="9.186651112109484"><ele>235.0</ele><time>2026-05-02T08:11:49.955Z</time></trkpt><trkpt lat="45.66515987271358" lon="9.186635091044925"><ele>235.0</ele><time>2026-05-02T08:11:50.955Z</time></trkpt><trkpt lat="45.665300667179935" lon="9.186607229195431"><ele>235.0</ele><time>2026-05-02T08:11:51.955Z</time></trkpt><trkpt lat="45.665442157837695" lon="9.186582416929872"><ele>235.25</ele><time>2026-05-02T08:11:52.955Z</time></trkpt><trkpt lat="45.66557719499445" lon="9.186536158089757"><ele>235.5</ele><time>2026-05-02T08:11:53.955Z</time></trkpt><trkpt lat="45.665706519412026" lon="9.186497639556078"><ele>235.75</ele><time>2026-05-02T08:11:54.955Z</time></trkpt><trkpt lat="45.665832507058965" lon="9.186464892527106"><ele>236.0</ele><time>2026-05-02T08:11:55.955Z</time></trkpt><trkpt lat="45.66595629511993" lon="9.186427270015248"><ele>236.0</ele><time>2026-05-02T08:11:56.955Z</time></trkpt><trkpt lat="45.66607345046344" lon="9.186406007482379"><ele>236.00000000000003</ele><time>2026-05-02T08:11:57.955Z</time></trkpt><trkpt lat="45.66617919731292" lon="9.186420026753897"><ele>236.00000000000003</ele><time>2026-05-02T08:11:58.955Z</time></trkpt><trkpt lat="45.66627927116473" lon="9.186417604656649"><ele>236.0</ele><time>2026-05-02T08:11:59.955Z</time></trkpt><trkpt lat="45.666379202292944" lon="9.186394067644065"><ele>236.0</ele><time>2026-05-02T08:12:00.955Z</time></trkpt><trkpt lat="45.66647068094427" lon="9.186431209195653"><ele>236.16666666666669</ele><time>2026-05-02T08:12:01.955Z</time></trkpt><trkpt lat="45.666554028186304" lon="9.186427036018387"><ele>236.33333333333334</ele><time>2026-05-02T08:12:02.955Z</time></trkpt><trkpt lat="45.66662494274677" lon="9.186427779662775"><ele>236.5</ele><time>2026-05-02T08:12:03.955Z</time></trkpt><trkpt lat="45.66668936856052" lon="9.186432125206675"><ele>236.66666666666669</ele><time>2026-05-02T08:12:04.955Z</time></trkpt><trkpt lat="45.66680206724411" lon="9.186453198943806"><ele>236.83333333333334</ele><time>2026-05-02T08:12:06.955Z</time></trkpt><trkpt lat="45.6668623522707" lon="9.186498675638527"><ele>237.0</ele><time>2026-05-02T08:12:07.955Z</time></trkpt><trkpt lat="45.666920412156834" lon="9.186536683859048"><ele>237.0</ele><time>2026-05-02T08:12:08.955Z</time></trkpt><trkpt lat="45.66701535327478" lon="9.186518747307833"><ele>237.0</ele><time>2026-05-02T08:12:10.955Z</time></trkpt><trkpt lat="45.66704628933237" lon="9.18635779967381"><ele>237.0</ele><time>2026-05-02T08:12:12.955Z</time></trkpt><trkpt lat="45.6670122593061" lon="9.186244046400743"><ele>237.0</ele><time>2026-05-02T08:12:13.955Z</time></trkpt><trkpt lat="45.6669804247419" lon="9.186120089658468"><ele>237.0</ele><time>2026-05-02T08:12:14.955Z</time></trkpt><trkpt lat="45.66696086192923" lon="9.185966829522398"><ele>237.0</ele><time>2026-05-02T08:12:15.955Z</time></trkpt><trkpt lat="45.666970946022346" lon="9.185804130765563"><ele>237.0</ele><time>2026-05-02T08:12:16.955Z</time></trkpt><trkpt lat="45.66697691806044" lon="9.18562887967185"><ele>237.0</ele><time>2026-05-02T08:12:17.955Z</time></trkpt><trkpt lat="45.666978627869334" lon="9.185443891059686"><ele>237.0</ele><time>2026-05-02T08:12:18.953Z</time></trkpt><trkpt lat="45.66697887432916" lon="9.185253443862544"><ele>236.75</ele><time>2026-05-02T08:12:19.953Z</time></trkpt><trkpt lat="45.66698185258015" lon="9.185063992241979"><ele>236.5</ele><time>2026-05-02T08:12:20.953Z</time></trkpt><trkpt lat="45.66698828773958" lon="9.184872755890769"><ele>236.25</ele><time>2026-05-02T08:12:21.953Z</time></trkpt><trkpt lat="45.66699096111634" lon="9.18468098488002"><ele>236.0</ele><time>2026-05-02T08:12:22.953Z</time></trkpt><trkpt lat="45.66699318587847" lon="9.184495434592193"><ele>236.0</ele><time>2026-05-02T08:12:23.953Z</time></trkpt><trkpt lat="45.666993955457755" lon="9.184304282372537"><ele>236.0</ele><time>2026-05-02T08:12:24.953Z</time></trkpt><trkpt lat="45.666996609632854" lon="9.184111853441951"><ele>236.0</ele><time>2026-05-02T08:12:25.953Z</time></trkpt><trkpt lat="45.66699477537661" lon="9.183919158310475"><ele>236.0</ele><time>2026-05-02T08:12:26.953Z</time></trkpt><trkpt lat="45.66699447896342" lon="9.183737372012837"><ele>236.0</ele><time>2026-05-02T08:12:27.953Z</time></trkpt><trkpt lat="45.66699742518848" lon="9.183554193672176"><ele>236.0</ele><time>2026-05-02T08:12:28.953Z</time></trkpt><trkpt lat="45.66699779937792" lon="9.183366206416043"><ele>236.0</ele><time>2026-05-02T08:12:29.953Z</time></trkpt><trkpt lat="45.66699922269244" lon="9.183171586499693"><ele>236.0</ele><time>2026-05-02T08:12:30.953Z</time></trkpt><trkpt lat="45.66700133542705" lon="9.182978651996283"><ele>236.0</ele><time>2026-05-02T08:12:31.953Z</time></trkpt><trkpt lat="45.66700334890895" lon="9.182782959655002"><ele>236.0</ele><time>2026-05-02T08:12:32.953Z</time></trkpt><trkpt lat="45.66700465756866" lon="9.182596117802373"><ele>236.0</ele><time>2026-05-02T08:12:33.953Z</time></trkpt><trkpt lat="45.66700802108422" lon="9.18241761734279"><ele>236.0</ele><time>2026-05-02T08:12:34.953Z</time></trkpt><trkpt lat="45.66700757638565" lon="9.182247316604602"><ele>236.00000000000003</ele><time>2026-05-02T08:12:35.953Z</time></trkpt><trkpt lat="45.66700738925893" lon="9.182107547200768"><ele>236.0</ele><time>2026-05-02T08:12:36.953Z</time></trkpt><trkpt lat="45.667003500124004" lon="9.181978277253206"><ele>236.0</ele><time>2026-05-02T08:12:37.953Z</time></trkpt><trkpt lat="45.66701951033651" lon="9.181879758289922"><ele>236.0</ele><time>2026-05-02T08:12:38.953Z</time></trkpt><trkpt lat="45.66702150343972" lon="9.181726475411972"><ele>236.00000000000003</ele><time>2026-05-02T08:12:40.953Z</time></trkpt><trkpt lat="45.667025372872544" lon="9.181627404264535"><ele>236.0</ele><time>2026-05-02T08:12:43.953Z</time></trkpt><trkpt lat="45.66703381992075" lon="9.181511480819674"><ele>236.00000000000003</ele><time>2026-05-02T08:12:48.953Z</time></trkpt><trkpt lat="45.6670319585571" lon="9.181358714827704"><ele>236.0</ele><time>2026-05-02T08:12:50.953Z</time></trkpt><trkpt lat="45.667046345418775" lon="9.181264844238903"><ele>236.0</ele><time>2026-05-02T08:12:51.953Z</time></trkpt><trkpt lat="45.667062262114655" lon="9.181170863064425"><ele>236.0</ele><time>2026-05-02T08:12:52.953Z</time></trkpt><trkpt lat="45.66707242529521" lon="9.181062844555582"><ele>236.00000000000003</ele><time>2026-05-02T08:12:53.953Z</time></trkpt><trkpt lat="45.667145670979856" lon="9.181014764813558"><ele>236.0</ele><time>2026-05-02T08:12:54.953Z</time></trkpt><trkpt lat="45.66719420940581" lon="9.180881350161574"><ele>236.00000000000003</ele><time>2026-05-02T08:12:56.953Z</time></trkpt><trkpt lat="45.667250320678555" lon="9.180734275633801"><ele>236.0</ele><time>2026-05-02T08:12:58.953Z</time></trkpt><trkpt lat="45.667282464506" lon="9.180651981070866"><ele>236.0</ele><time>2026-05-02T08:12:59.953Z</time></trkpt><trkpt lat="45.66731717584562" lon="9.180563113096676"><ele>236.0</ele><time>2026-05-02T08:13:00.953Z</time></trkpt><trkpt lat="45.66735377531485" lon="9.180469411123537"><ele>236.00000000000003</ele><time>2026-05-02T08:13:01.953Z</time></trkpt><trkpt lat="45.66739511353004" lon="9.180363591948613"><ele>236.0</ele><time>2026-05-02T08:13:02.953Z</time></trkpt><trkpt lat="45.66743899983373" lon="9.180251264530396"><ele>235.8</ele><time>2026-05-02T08:13:03.953Z</time></trkpt><trkpt lat="45.66748123673737" lon="9.180143158908868"><ele>235.60000000000002</ele><time>2026-05-02T08:13:04.953Z</time></trkpt><trkpt lat="45.66752773752889" lon="9.180024140289351"><ele>235.4</ele><time>2026-05-02T08:13:05.953Z</time></trkpt><trkpt lat="45.66757508393945" lon="9.179885400870297"><ele>235.2</ele><time>2026-05-02T08:13:06.953Z</time></trkpt><trkpt lat="45.66762260188149" lon="9.179736427780618"><ele>235.0</ele><time>2026-05-02T08:13:07.953Z</time></trkpt><trkpt lat="45.66768743094495" lon="9.179602559788364"><ele>235.0</ele><time>2026-05-02T08:13:08.953Z</time></trkpt><trkpt lat="45.667741237276765" lon="9.179460868508873"><ele>235.0</ele><time>2026-05-02T08:13:09.953Z</time></trkpt><trkpt lat="45.66779245549851" lon="9.179326061472302"><ele>235.0</ele><time>2026-05-02T08:13:10.953Z</time></trkpt><trkpt lat="45.66784482325624" lon="9.179189968973821"><ele>235.0</ele><time>2026-05-02T08:13:11.953Z</time></trkpt><trkpt lat="45.66788731362108" lon="9.17903715012681"><ele>235.0</ele><time>2026-05-02T08:13:12.953Z</time></trkpt><trkpt lat="45.66794309965566" lon="9.178897730098328"><ele>235.0</ele><time>2026-05-02T08:13:13.953Z</time></trkpt><trkpt lat="45.66802486417354" lon="9.178768129489178"><ele>235.0</ele><time>2026-05-02T08:13:14.953Z</time></trkpt><trkpt lat="45.66808181937567" lon="9.178606445927937"><ele>235.0</ele><time>2026-05-02T08:13:15.953Z</time></trkpt><trkpt lat="45.6681375909592" lon="9.178433861160544"><ele>235.0</ele><time>2026-05-02T08:13:16.953Z</time></trkpt><trkpt lat="45.66820151281099" lon="9.178272966385645"><ele>234.75</ele><time>2026-05-02T08:13:17.953Z</time></trkpt><trkpt lat="45.668265952297915" lon="9.178107014676968"><ele>234.5</ele><time>2026-05-02T08:13:18.953Z</time></trkpt><trkpt lat="45.66832502957716" lon="9.17794280104411"><ele>234.25</ele><time>2026-05-02T08:13:19.953Z</time></trkpt><trkpt lat="45.66838820573755" lon="9.177784627163023"><ele>234.0</ele><time>2026-05-02T08:13:20.953Z</time></trkpt><trkpt lat="45.66845642633995" lon="9.177624315931912"><ele>234.0</ele><time>2026-05-02T08:13:21.953Z</time></trkpt><trkpt lat="45.668519482587016" lon="9.177456453846997"><ele>234.0</ele><time>2026-05-02T08:13:22.953Z</time></trkpt><trkpt lat="45.66857590993544" lon="9.177282898942302"><ele>234.0</ele><time>2026-05-02T08:13:23.953Z</time></trkpt><trkpt lat="45.66864946920064" lon="9.177143475341405"><ele>234.0</ele><time>2026-05-02T08:13:24.953Z</time></trkpt><trkpt lat="45.66870834440272" lon="9.176986455163744"><ele>234.0</ele><time>2026-05-02T08:13:25.953Z</time></trkpt><trkpt lat="45.66876770816226" lon="9.17681979044651"><ele>234.0</ele><time>2026-05-02T08:13:26.953Z</time></trkpt><trkpt lat="45.668828822628164" lon="9.176659159215491"><ele>234.0</ele><time>2026-05-02T08:13:27.953Z</time></trkpt><trkpt lat="45.66888991419763" lon="9.176502495934171"><ele>234.0</ele><time>2026-05-02T08:13:28.953Z</time></trkpt><trkpt lat="45.66895301548161" lon="9.176351755490055"><ele>234.0</ele><time>2026-05-02T08:13:29.953Z</time></trkpt><trkpt lat="45.669005014308304" lon="9.176210033221757"><ele>233.99999999999997</ele><time>2026-05-02T08:13:30.953Z</time></trkpt><trkpt lat="45.66905574906576" lon="9.176074234675326"><ele>233.99999999999997</ele><time>2026-05-02T08:13:31.953Z</time></trkpt><trkpt lat="45.66910758640812" lon="9.175935859126916"><ele>234.0</ele><time>2026-05-02T08:13:32.953Z</time></trkpt><trkpt lat="45.6691631934809" lon="9.175792970887029"><ele>234.0</ele><time>2026-05-02T08:13:33.953Z</time></trkpt><trkpt lat="45.6692194396199" lon="9.175648442807255"><ele>234.25</ele><time>2026-05-02T08:13:34.953Z</time></trkpt><trkpt lat="45.66927505743376" lon="9.175503529016888"><ele>234.5</ele><time>2026-05-02T08:13:35.953Z</time></trkpt><trkpt lat="45.66933237017193" lon="9.175354219617523"><ele>234.75</ele><time>2026-05-02T08:13:36.953Z</time></trkpt><trkpt lat="45.669389678265794" lon="9.175204736968904"><ele>235.0</ele><time>2026-05-02T08:13:37.953Z</time></trkpt><trkpt lat="45.66944447390751" lon="9.17505188599337"><ele>235.25</ele><time>2026-05-02T08:13:38.953Z</time></trkpt><trkpt lat="45.669490435083105" lon="9.17490534288989"><ele>235.5</ele><time>2026-05-02T08:13:39.953Z</time></trkpt><trkpt lat="45.66954648592194" lon="9.174754409160181"><ele>235.75</ele><time>2026-05-02T08:13:40.953Z</time></trkpt><trkpt lat="45.66962721843013" lon="9.1746277914632"><ele>236.0</ele><time>2026-05-02T08:13:41.953Z</time></trkpt><trkpt lat="45.669702302912" lon="9.17449533089448"><ele>236.0</ele><time>2026-05-02T08:13:42.953Z</time></trkpt><trkpt lat="45.66977255411172" lon="9.174337878370277"><ele>236.0</ele><time>2026-05-02T08:13:43.953Z</time></trkpt><trkpt lat="45.669857269839866" lon="9.17418462748936"><ele>236.0</ele><time>2026-05-02T08:13:44.953Z</time></trkpt><trkpt lat="45.66995267511303" lon="9.17405040290978"><ele>236.0</ele><time>2026-05-02T08:13:45.953Z</time></trkpt><trkpt lat="45.67003210831914" lon="9.173909566113274"><ele>235.75</ele><time>2026-05-02T08:13:46.953Z</time></trkpt><trkpt lat="45.670105585415186" lon="9.173779288156794"><ele>235.5</ele><time>2026-05-02T08:13:47.953Z</time></trkpt><trkpt lat="45.67018277863169" lon="9.173645116782112"><ele>235.25</ele><time>2026-05-02T08:13:48.953Z</time></trkpt><trkpt lat="45.67026314064781" lon="9.17350393146802"><ele>235.0</ele><time>2026-05-02T08:13:49.953Z</time></trkpt><trkpt lat="45.6703452611852" lon="9.173359193305798"><ele>235.0</ele><time>2026-05-02T08:13:50.953Z</time></trkpt><trkpt lat="45.6704480719065" lon="9.173213472838233"><ele>235.0</ele><time>2026-05-02T08:13:51.953Z</time></trkpt><trkpt lat="45.67053787598184" lon="9.173052105121073"><ele>235.0</ele><time>2026-05-02T08:13:52.953Z</time></trkpt><trkpt lat="45.67061848986726" lon="9.172905167246604"><ele>235.0</ele><time>2026-05-02T08:13:53.953Z</time></trkpt><trkpt lat="45.67068817185836" lon="9.172775486428051"><ele>234.8</ele><time>2026-05-02T08:13:54.953Z</time></trkpt><trkpt lat="45.67075590757942" lon="9.172656653225664"><ele>234.6</ele><time>2026-05-02T08:13:55.953Z</time></trkpt><trkpt lat="45.67081931459681" lon="9.172536901722065"><ele>234.39999999999998</ele><time>2026-05-02T08:13:56.953Z</time></trkpt><trkpt lat="45.6708846984371" lon="9.172417337439763"><ele>234.2</ele><time>2026-05-02T08:13:57.953Z</time></trkpt><trkpt lat="45.67095217786175" lon="9.172296638147714"><ele>234.0</ele><time>2026-05-02T08:13:58.953Z</time></trkpt><trkpt lat="45.67102013422766" lon="9.17217499449776"><ele>234.0</ele><time>2026-05-02T08:13:59.953Z</time></trkpt><trkpt lat="45.67108354510372" lon="9.172061862994013"><ele>234.0</ele><time>2026-05-02T08:14:00.953Z</time></trkpt><trkpt lat="45.671142236062266" lon="9.171956447766046"><ele>234.0</ele><time>2026-05-02T08:14:01.953Z</time></trkpt><trkpt lat="45.67119391111992" lon="9.17185437850408"><ele>234.0</ele><time>2026-05-02T08:14:02.953Z</time></trkpt><trkpt lat="45.67123476130328" lon="9.171768753341622"><ele>234.0</ele><time>2026-05-02T08:14:03.953Z</time></trkpt><trkpt lat="45.67127445228945" lon="9.1716958711284"><ele>234.0</ele><time>2026-05-02T08:14:04.953Z</time></trkpt><trkpt lat="45.67132009607025" lon="9.171620146887939"><ele>234.16666666666666</ele><time>2026-05-02T08:14:05.953Z</time></trkpt><trkpt lat="45.671375063819056" lon="9.171521857182723"><ele>234.33333333333331</ele><time>2026-05-02T08:14:06.953Z</time></trkpt><trkpt lat="45.67143798642053" lon="9.1714267199677"><ele>234.5</ele><time>2026-05-02T08:14:07.953Z</time></trkpt><trkpt lat="45.6714913654246" lon="9.171337122028769"><ele>234.66666666666666</ele><time>2026-05-02T08:14:08.953Z</time></trkpt><trkpt lat="45.67153713883393" lon="9.1712602903084"><ele>234.83333333333331</ele><time>2026-05-02T08:14:09.953Z</time></trkpt><trkpt lat="45.671609504409076" lon="9.171175360833445"><ele>235.0</ele><time>2026-05-02T08:14:11.953Z</time></trkpt><trkpt lat="45.671648951413786" lon="9.171098408379375"><ele>234.99999999999997</ele><time>2026-05-02T08:14:13.953Z</time></trkpt><trkpt lat="45.67168834922931" lon="9.171020604531883"><ele>235.0</ele><time>2026-05-02T08:14:25.951Z</time></trkpt><trkpt lat="45.67173608949076" lon="9.170947491144242"><ele>235.0</ele><time>2026-05-02T08:14:27.951Z</time></trkpt><trkpt lat="45.671814598706106" lon="9.171030752878583"><ele>235.0</ele><time>2026-05-02T08:14:30.951Z</time></trkpt><trkpt lat="45.67188571275066" lon="9.171116756495282"><ele>234.99999999999997</ele><time>2026-05-02T08:14:31.95Z</time></trkpt><trkpt lat="45.67195752062406" lon="9.171203687121873"><ele>235.0</ele><time>2026-05-02T08:14:32.95Z</time></trkpt><trkpt lat="45.672021461863054" lon="9.171282073354616"><ele>234.83333333333331</ele><time>2026-05-02T08:14:33.951Z</time></trkpt><trkpt lat="45.67207186223552" lon="9.171354476483764"><ele>234.66666666666666</ele><time>2026-05-02T08:14:34.951Z</time></trkpt><trkpt lat="45.672140497820955" lon="9.171433490932793"><ele>234.5</ele><time>2026-05-02T08:14:36.951Z</time></trkpt><trkpt lat="45.67221177596748" lon="9.17148505411295"><ele>234.33333333333331</ele><time>2026-05-02T08:14:48.95Z</time></trkpt><trkpt lat="45.67224347396815" lon="9.1715861707093"><ele>234.16666666666666</ele><time>2026-05-02T08:14:50.95Z</time></trkpt><trkpt lat="45.67230946003892" lon="9.17166232826049"><ele>234.0</ele><time>2026-05-02T08:14:52.95Z</time></trkpt><trkpt lat="45.672356646775356" lon="9.171728874768347"><ele>234.0</ele><time>2026-05-02T08:14:55.95Z</time></trkpt><trkpt lat="45.67241515353158" lon="9.171786172109606"><ele>233.99999999999997</ele><time>2026-05-02T08:14:59.95Z</time></trkpt><trkpt lat="45.67249184699349" lon="9.171669400366739"><ele>233.99999999999997</ele><time>2026-05-02T08:15:01.95Z</time></trkpt><trkpt lat="45.6725792330654" lon="9.171522159741867"><ele>234.0</ele><time>2026-05-02T08:15:03.95Z</time></trkpt><trkpt lat="45.67262446229545" lon="9.171442187654906"><ele>234.0</ele><time>2026-05-02T08:15:04.95Z</time></trkpt><trkpt lat="45.67270302780753" lon="9.171334314594608"><ele>234.0</ele><time>2026-05-02T08:15:06.95Z</time></trkpt><trkpt lat="45.672772334942145" lon="9.171248587611794"><ele>233.99999999999997</ele><time>2026-05-02T08:15:08.95Z</time></trkpt><trkpt lat="45.67283779268694" lon="9.171124829511458"><ele>233.99999999999997</ele><time>2026-05-02T08:15:10.95Z</time></trkpt><trkpt lat="45.67288982032828" lon="9.171025383406905"><ele>234.0</ele><time>2026-05-02T08:15:11.95Z</time></trkpt><trkpt lat="45.672964393832274" lon="9.170940695425905"><ele>234.0</ele><time>2026-05-02T08:15:12.95Z</time></trkpt><trkpt lat="45.67303749673371" lon="9.170826255406592"><ele>234.0</ele><time>2026-05-02T08:15:13.95Z</time></trkpt><trkpt lat="45.6731150482384" lon="9.170703220709388"><ele>234.0</ele><time>2026-05-02T08:15:14.95Z</time></trkpt><trkpt lat="45.6732007522045" lon="9.170576788441865"><ele>234.0</ele><time>2026-05-02T08:15:15.95Z</time></trkpt><trkpt lat="45.67328735514162" lon="9.170448151022631"><ele>234.0</ele><time>2026-05-02T08:15:16.95Z</time></trkpt><trkpt lat="45.6733714438387" lon="9.170312135953765"><ele>234.25</ele><time>2026-05-02T08:15:17.95Z</time></trkpt><trkpt lat="45.673453931340795" lon="9.170176989455431"><ele>234.5</ele><time>2026-05-02T08:15:18.95Z</time></trkpt><trkpt lat="45.67353648542191" lon="9.170045507641456"><ele>234.75</ele><time>2026-05-02T08:15:19.95Z</time></trkpt><trkpt lat="45.673615401732064" lon="9.169924267340853"><ele>235.0</ele><time>2026-05-02T08:15:20.95Z</time></trkpt><trkpt lat="45.67369059995189" lon="9.169803919509764"><ele>234.99999999999997</ele><time>2026-05-02T08:15:21.95Z</time></trkpt><trkpt lat="45.673752591349114" lon="9.169688009891706"><ele>235.0</ele><time>2026-05-02T08:15:22.95Z</time></trkpt><trkpt lat="45.67382199869105" lon="9.169591693733757"><ele>235.0</ele><time>2026-05-02T08:15:23.95Z</time></trkpt><trkpt lat="45.67387770566298" lon="9.16949428987694"><ele>235.0</ele><time>2026-05-02T08:15:24.95Z</time></trkpt><trkpt lat="45.673925176771334" lon="9.169400781608383"><ele>234.99999999999997</ele><time>2026-05-02T08:15:25.95Z</time></trkpt><trkpt lat="45.6739691686064" lon="9.169309808169245"><ele>235.0</ele><time>2026-05-02T08:15:26.95Z</time></trkpt><trkpt lat="45.67401046203134" lon="9.169216263252975"><ele>235.0</ele><time>2026-05-02T08:15:27.95Z</time></trkpt><trkpt lat="45.67405138841464" lon="9.169120431470047"><ele>235.0</ele><time>2026-05-02T08:15:28.95Z</time></trkpt><trkpt lat="45.67407597741403" lon="9.169034049986944"><ele>235.0</ele><time>2026-05-02T08:15:29.95Z</time></trkpt><trkpt lat="45.67415588966376" lon="9.168926566250864"><ele>235.0</ele><time>2026-05-02T08:15:31.95Z</time></trkpt><trkpt lat="45.67420304034032" lon="9.168843728958171"><ele>235.0</ele><time>2026-05-02T08:15:34.95Z</time></trkpt><trkpt lat="45.67423372923654" lon="9.16934171204554"><ele>235.0</ele><time>2026-05-02T08:15:40.95Z</time></trkpt><trkpt lat="45.67429220255142" lon="9.169416070800052"><ele>235.0</ele><time>2026-05-02T08:15:41.95Z</time></trkpt><trkpt lat="45.674361168055746" lon="9.169503775516715"><ele>235.0</ele><time>2026-05-02T08:15:42.95Z</time></trkpt><trkpt lat="45.67443633889035" lon="9.169599371736368"><ele>235.0</ele><time>2026-05-02T08:15:43.95Z</time></trkpt><trkpt lat="45.674513300015505" lon="9.169696111525042"><ele>235.0</ele><time>2026-05-02T08:15:44.95Z</time></trkpt><trkpt lat="45.67458404185291" lon="9.169784340402915"><ele>234.99999999999997</ele><time>2026-05-02T08:15:45.95Z</time></trkpt><trkpt lat="45.67464330094502" lon="9.169858904375142"><ele>235.0</ele><time>2026-05-02T08:15:46.95Z</time></trkpt><trkpt lat="45.67469888893942" lon="9.169930517954768"><ele>235.0</ele><time>2026-05-02T08:15:47.95Z</time></trkpt><trkpt lat="45.674757396655096" lon="9.170017729179829"><ele>235.0</ele><time>2026-05-02T08:15:48.95Z</time></trkpt><trkpt lat="45.674848065300075" lon="9.170116209288794"><ele>234.99999999999997</ele><time>2026-05-02T08:15:49.95Z</time></trkpt><trkpt lat="45.674924377940016" lon="9.170188160380068"><ele>235.0</ele><time>2026-05-02T08:15:51.95Z</time></trkpt><trkpt lat="45.67526942764224" lon="9.169752964649833"><ele>235.33333333333331</ele><time>2026-05-02T08:15:52.95Z</time></trkpt><trkpt lat="45.67528780189615" lon="9.169665095737807"><ele>235.66666666666666</ele><time>2026-05-02T08:15:53.95Z</time></trkpt><trkpt lat="45.675340155459764" lon="9.169600258710366"><ele>236.0</ele><time>2026-05-02T08:15:54.95Z</time></trkpt><trkpt lat="45.675375927227954" lon="9.169506375234793"><ele>236.33333333333331</ele><time>2026-05-02T08:15:55.95Z</time></trkpt><trkpt lat="45.67541454619977" lon="9.16940787984096"><ele>236.66666666666666</ele><time>2026-05-02T08:15:56.95Z</time></trkpt><trkpt lat="45.6754691316991" lon="9.169296462125468"><ele>237.0</ele><time>2026-05-02T08:15:57.95Z</time></trkpt><trkpt lat="45.67552007374631" lon="9.16918119648256"><ele>237.0</ele><time>2026-05-02T08:15:58.95Z</time></trkpt><trkpt lat="45.67557171145204" lon="9.16906523904786"><ele>237.0</ele><time>2026-05-02T08:15:59.95Z</time></trkpt><trkpt lat="45.675615890425576" lon="9.168965565323363"><ele>237.0</ele><time>2026-05-02T08:16:00.95Z</time></trkpt><trkpt lat="45.675656539120155" lon="9.168871359470243"><ele>237.0</ele><time>2026-05-02T08:16:01.95Z</time></trkpt><trkpt lat="45.67569175236892" lon="9.168788960224143"><ele>237.0</ele><time>2026-05-02T08:16:02.95Z</time></trkpt><trkpt lat="45.67574506492516" lon="9.168666797492621"><ele>237.0</ele><time>2026-05-02T08:16:04.95Z</time></trkpt><trkpt lat="45.67576346081946" lon="9.168560958464981"><ele>236.6</ele><time>2026-05-02T08:16:07.95Z</time></trkpt><trkpt lat="45.675803966017014" lon="9.168454089589517"><ele>236.2</ele><time>2026-05-02T08:16:09.95Z</time></trkpt><trkpt lat="45.67584292035338" lon="9.168366813954792"><ele>235.8</ele><time>2026-05-02T08:16:11.95Z</time></trkpt><trkpt lat="45.675913863176845" lon="9.168290566860565"><ele>235.4</ele><time>2026-05-02T08:16:14.95Z</time></trkpt><trkpt lat="45.67602238895904" lon="9.16841328062613"><ele>235.0</ele><time>2026-05-02T08:16:16.95Z</time></trkpt><trkpt lat="45.676100319836536" lon="9.168492413691983"><ele>235.5</ele><time>2026-05-02T08:16:17.95Z</time></trkpt><trkpt lat="45.67619094550752" lon="9.168581280693678"><ele>236.0</ele><time>2026-05-02T08:16:18.95Z</time></trkpt><trkpt lat="45.67629010187383" lon="9.168690865622347"><ele>236.5</ele><time>2026-05-02T08:16:19.95Z</time></trkpt><trkpt lat="45.6764001534951" lon="9.168805439769368"><ele>237.0</ele><time>2026-05-02T08:16:20.95Z</time></trkpt><trkpt lat="45.676513563262795" lon="9.168915993029112"><ele>237.0</ele><time>2026-05-02T08:16:21.95Z</time></trkpt><trkpt lat="45.676626769136284" lon="9.169029423226128"><ele>237.0</ele><time>2026-05-02T08:16:22.95Z</time></trkpt><trkpt lat="45.67673035119197" lon="9.169165415089049"><ele>237.0</ele><time>2026-05-02T08:16:23.95Z</time></trkpt><trkpt lat="45.67684644866532" lon="9.16927719306687"><ele>237.0</ele><time>2026-05-02T08:16:24.95Z</time></trkpt><trkpt lat="45.67696688630845" lon="9.169399581054982"><ele>236.75</ele><time>2026-05-02T08:16:25.95Z</time></trkpt><trkpt lat="45.67708008191007" lon="9.169508539009671"><ele>236.5</ele><time>2026-05-02T08:16:26.95Z</time></trkpt><trkpt lat="45.677192663023945" lon="9.169621524159654"><ele>236.25</ele><time>2026-05-02T08:16:27.95Z</time></trkpt><trkpt lat="45.67730814938107" lon="9.169732027591094"><ele>236.0</ele><time>2026-05-02T08:16:28.95Z</time></trkpt><trkpt lat="45.67741990910084" lon="9.169846744036658"><ele>236.0</ele><time>2026-05-02T08:16:29.95Z</time></trkpt><trkpt lat="45.67754685145013" lon="9.169949449782775"><ele>236.0</ele><time>2026-05-02T08:16:30.949Z</time></trkpt><trkpt lat="45.67766999848453" lon="9.170051426156784"><ele>236.0</ele><time>2026-05-02T08:16:31.948Z</time></trkpt><trkpt lat="45.67780130230977" lon="9.17015526359507"><ele>236.0</ele><time>2026-05-02T08:16:32.948Z</time></trkpt><trkpt lat="45.6779347849768" lon="9.170250932980245"><ele>236.75</ele><time>2026-05-02T08:16:33.948Z</time></trkpt><trkpt lat="45.678064993908635" lon="9.170344862528571"><ele>237.5</ele><time>2026-05-02T08:16:34.948Z</time></trkpt><trkpt lat="45.67819995824368" lon="9.170436498030252"><ele>238.25</ele><time>2026-05-02T08:16:35.948Z</time></trkpt><trkpt lat="45.67833955031562" lon="9.170519224899904"><ele>239.0</ele><time>2026-05-02T08:16:36.948Z</time></trkpt><trkpt lat="45.67846754982376" lon="9.170626473656464"><ele>239.0</ele><time>2026-05-02T08:16:37.948Z</time></trkpt><trkpt lat="45.67860067064283" lon="9.170724108549065"><ele>239.0</ele><time>2026-05-02T08:16:38.948Z</time></trkpt><trkpt lat="45.67872530162737" lon="9.170818627380477"><ele>239.0</ele><time>2026-05-02T08:16:39.948Z</time></trkpt><trkpt lat="45.67885066644707" lon="9.170909793057078"><ele>239.0</ele><time>2026-05-02T08:16:40.948Z</time></trkpt><trkpt lat="45.67897075424365" lon="9.171001331534809"><ele>239.0</ele><time>2026-05-02T08:16:41.948Z</time></trkpt><trkpt lat="45.67909241875367" lon="9.171083575115633"><ele>239.0</ele><time>2026-05-02T08:16:42.949Z</time></trkpt><trkpt lat="45.67921848414926" lon="9.171151858534008"><ele>239.0</ele><time>2026-05-02T08:16:43.948Z</time></trkpt><trkpt lat="45.67934950112784" lon="9.171208817014069"><ele>239.0</ele><time>2026-05-02T08:16:44.948Z</time></trkpt><trkpt lat="45.679481048070215" lon="9.171254179570612"><ele>238.25</ele><time>2026-05-02T08:16:45.948Z</time></trkpt><trkpt lat="45.67961275241737" lon="9.171288654709207"><ele>237.5</ele><time>2026-05-02T08:16:46.948Z</time></trkpt><trkpt lat="45.67974816930882" lon="9.171318164837862"><ele>236.75</ele><time>2026-05-02T08:16:47.948Z</time></trkpt><trkpt lat="45.67988199415341" lon="9.171354013103192"><ele>236.0</ele><time>2026-05-02T08:16:48.947Z</time></trkpt><trkpt lat="45.680018149510964" lon="9.171380592847349"><ele>236.0</ele><time>2026-05-02T08:16:49.947Z</time></trkpt><trkpt lat="45.68015258677175" lon="9.171413786636844"><ele>236.0</ele><time>2026-05-02T08:16:50.947Z</time></trkpt><trkpt lat="45.68028932097516" lon="9.171451155584109"><ele>236.0</ele><time>2026-05-02T08:16:51.947Z</time></trkpt><trkpt lat="45.680428686386755" lon="9.171497617283254"><ele>236.0</ele><time>2026-05-02T08:16:52.947Z</time></trkpt><trkpt lat="45.68056949871466" lon="9.171543751714974"><ele>236.66666666666669</ele><time>2026-05-02T08:16:53.947Z</time></trkpt><trkpt lat="45.68071482601967" lon="9.171580545623836"><ele>237.33333333333331</ele><time>2026-05-02T08:16:54.947Z</time></trkpt><trkpt lat="45.6808683163839" lon="9.171615297798166"><ele>238.0</ele><time>2026-05-02T08:16:55.947Z</time></trkpt><trkpt lat="45.68102155736476" lon="9.171655962385804"><ele>238.33333333333331</ele><time>2026-05-02T08:16:56.947Z</time></trkpt><trkpt lat="45.681169794627706" lon="9.171697240034652"><ele>238.66666666666669</ele><time>2026-05-02T08:16:57.947Z</time></trkpt><trkpt lat="45.68131581310069" lon="9.171739833596424"><ele>239.0</ele><time>2026-05-02T08:16:58.947Z</time></trkpt><trkpt lat="45.6814635410283" lon="9.171773295293956"><ele>239.0</ele><time>2026-05-02T08:16:59.947Z</time></trkpt><trkpt lat="45.6816147384444" lon="9.171794595816232"><ele>239.0</ele><time>2026-05-02T08:17:00.947Z</time></trkpt><trkpt lat="45.681759927897424" lon="9.171804096001443"><ele>239.0</ele><time>2026-05-02T08:17:01.947Z</time></trkpt><trkpt lat="45.681898902741764" lon="9.171815520263216"><ele>239.0</ele><time>2026-05-02T08:17:02.947Z</time></trkpt><trkpt lat="45.68203373352985" lon="9.171825461475224"><ele>239.25</ele><time>2026-05-02T08:17:03.947Z</time></trkpt><trkpt lat="45.68216799134226" lon="9.17183679893517"><ele>239.5</ele><time>2026-05-02T08:17:04.947Z</time></trkpt><trkpt lat="45.682300384323064" lon="9.171853646460752"><ele>239.75</ele><time>2026-05-02T08:17:05.947Z</time></trkpt><trkpt lat="45.68243062227657" lon="9.171862680246164"><ele>240.0</ele><time>2026-05-02T08:17:06.947Z</time></trkpt><trkpt lat="45.682553589132255" lon="9.171871612774131"><ele>240.0</ele><time>2026-05-02T08:17:07.947Z</time></trkpt><trkpt lat="45.68267383890279" lon="9.17187508654113"><ele>240.0</ele><time>2026-05-02T08:17:08.947Z</time></trkpt><trkpt lat="45.68279797567589" lon="9.171879509472403"><ele>240.0</ele><time>2026-05-02T08:17:09.947Z</time></trkpt><trkpt lat="45.682917367923686" lon="9.171880566270602"><ele>240.0</ele><time>2026-05-02T08:17:10.947Z</time></trkpt><trkpt lat="45.683035954279255" lon="9.171883022372194"><ele>239.75</ele><time>2026-05-02T08:17:11.947Z</time></trkpt><trkpt lat="45.68315225717919" lon="9.171915675781475"><ele>239.5</ele><time>2026-05-02T08:17:12.947Z</time></trkpt><trkpt lat="45.68326808995393" lon="9.171903731559956"><ele>239.25</ele><time>2026-05-02T08:17:13.947Z</time></trkpt><trkpt lat="45.68338802067812" lon="9.17193350794023"><ele>239.0</ele><time>2026-05-02T08:17:14.947Z</time></trkpt><trkpt lat="45.683513278317115" lon="9.171943541648234"><ele>239.5</ele><time>2026-05-02T08:17:15.947Z</time></trkpt><trkpt lat="45.68364304297631" lon="9.171957569777549"><ele>240.0</ele><time>2026-05-02T08:17:16.947Z</time></trkpt><trkpt lat="45.68378323963264" lon="9.171963826895185"><ele>240.5</ele><time>2026-05-02T08:17:17.947Z</time></trkpt><trkpt lat="45.683926413097154" lon="9.171977536652406"><ele>241.0</ele><time>2026-05-02T08:17:18.947Z</time></trkpt><trkpt lat="45.68407353220516" lon="9.171994829237963"><ele>241.0</ele><time>2026-05-02T08:17:19.947Z</time></trkpt><trkpt lat="45.6842240927573" lon="9.172007289083236"><ele>241.0</ele><time>2026-05-02T08:17:20.947Z</time></trkpt><trkpt lat="45.68438075414292" lon="9.172027617734946"><ele>241.0</ele><time>2026-05-02T08:17:21.947Z</time></trkpt><trkpt lat="45.68453128224751" lon="9.172041226673112"><ele>241.25</ele><time>2026-05-02T08:17:22.947Z</time></trkpt><trkpt lat="45.68467733226375" lon="9.172048994215704"><ele>241.5</ele><time>2026-05-02T08:17:23.947Z</time></trkpt><trkpt lat="45.68481986232248" lon="9.172053213650669"><ele>241.75</ele><time>2026-05-02T08:17:24.947Z</time></trkpt><trkpt lat="45.68496172472347" lon="9.172066516108414"><ele>242.0</ele><time>2026-05-02T08:17:25.947Z</time></trkpt><trkpt lat="45.685108477111996" lon="9.172074476021125"><ele>242.0</ele><time>2026-05-02T08:17:26.947Z</time></trkpt><trkpt lat="45.68525351993108" lon="9.17209329346144"><ele>242.0</ele><time>2026-05-02T08:17:27.947Z</time></trkpt><trkpt lat="45.68539874694626" lon="9.172106733740957"><ele>242.0</ele><time>2026-05-02T08:17:28.947Z</time></trkpt><trkpt lat="45.68553941168256" lon="9.172111563251475"><ele>242.0</ele><time>2026-05-02T08:17:29.947Z</time></trkpt><trkpt lat="45.68566856419237" lon="9.172121563365788"><ele>242.00000000000003</ele><time>2026-05-02T08:17:30.947Z</time></trkpt><trkpt lat="45.68579044404493" lon="9.172127478548614"><ele>242.0</ele><time>2026-05-02T08:17:31.947Z</time></trkpt><trkpt lat="45.68589431245944" lon="9.172130456192862"><ele>242.0</ele><time>2026-05-02T08:17:32.947Z</time></trkpt><trkpt lat="45.68597829092728" lon="9.172134017499394"><ele>242.0</ele><time>2026-05-02T08:17:33.947Z</time></trkpt><trkpt lat="45.68604713160031" lon="9.172135879151208"><ele>242.00000000000003</ele><time>2026-05-02T08:17:34.947Z</time></trkpt><trkpt lat="45.6861103403162" lon="9.17215026889761"><ele>242.0</ele><time>2026-05-02T08:17:35.947Z</time></trkpt><trkpt lat="45.686179012658044" lon="9.172183878952534"><ele>242.0</ele><time>2026-05-02T08:17:36.947Z</time></trkpt><trkpt lat="45.686264067825704" lon="9.172182981270344"><ele>242.0</ele><time>2026-05-02T08:17:37.947Z</time></trkpt><trkpt lat="45.68635890965524" lon="9.172222483891844"><ele>242.0</ele><time>2026-05-02T08:17:38.947Z</time></trkpt><trkpt lat="45.68645361862829" lon="9.172210290067039"><ele>242.0</ele><time>2026-05-02T08:17:39.947Z</time></trkpt><trkpt lat="45.68657034046119" lon="9.172199244170384"><ele>242.0</ele><time>2026-05-02T08:17:40.947Z</time></trkpt><trkpt lat="45.6866905808022" lon="9.172202762334488"><ele>242.0</ele><time>2026-05-02T08:17:41.947Z</time></trkpt><trkpt lat="45.68680419312139" lon="9.172214806350203"><ele>242.0</ele><time>2026-05-02T08:17:42.947Z</time></trkpt><trkpt lat="45.68692382484786" lon="9.172225563388722"><ele>242.0</ele><time>2026-05-02T08:17:43.947Z</time></trkpt><trkpt lat="45.687048598099025" lon="9.17223484876034"><ele>242.0</ele><time>2026-05-02T08:17:44.947Z</time></trkpt><trkpt lat="45.68717573894297" lon="9.17224421764853"><ele>241.75</ele><time>2026-05-02T08:17:45.947Z</time></trkpt><trkpt lat="45.687301782220345" lon="9.172254663502168"><ele>241.5</ele><time>2026-05-02T08:17:46.947Z</time></trkpt><trkpt lat="45.6874264563297" lon="9.172257995582955"><ele>241.25</ele><time>2026-05-02T08:17:47.947Z</time></trkpt><trkpt lat="45.68755108600891" lon="9.172262379611615"><ele>241.0</ele><time>2026-05-02T08:17:48.947Z</time></trkpt><trkpt lat="45.68766495283584" lon="9.17227144869556"><ele>241.4</ele><time>2026-05-02T08:17:49.947Z</time></trkpt><trkpt lat="45.68776186273355" lon="9.17227642395035"><ele>241.8</ele><time>2026-05-02T08:17:50.947Z</time></trkpt><trkpt lat="45.68785091859872" lon="9.17228420084228"><ele>242.20000000000002</ele><time>2026-05-02T08:17:51.947Z</time></trkpt><trkpt lat="45.68796299610909" lon="9.172315962336093"><ele>242.60000000000002</ele><time>2026-05-02T08:17:53.947Z</time></trkpt><trkpt lat="45.688053826970645" lon="9.172325629452178"><ele>243.0</ele><time>2026-05-02T08:17:56.947Z</time></trkpt><trkpt lat="45.688093979116026" lon="9.172112875613783"><ele>243.0</ele><time>2026-05-02T08:17:57.947Z</time></trkpt><trkpt lat="45.68814291895171" lon="9.171964722205885"><ele>243.0</ele><time>2026-05-02T08:17:59.947Z</time></trkpt><trkpt lat="45.68818118045179" lon="9.171815201948734"><ele>243.0</ele><time>2026-05-02T08:18:01.947Z</time></trkpt><trkpt lat="45.688209286246156" lon="9.171716576352935"><ele>243.0</ele><time>2026-05-02T08:18:03.947Z</time></trkpt><trkpt lat="45.68821995713223" lon="9.171616947920006"><ele>243.0</ele><time>2026-05-02T08:18:11.947Z</time></trkpt><trkpt lat="45.68823169863306" lon="9.17151990478376"><ele>243.0</ele><time>2026-05-02T08:18:14.947Z</time></trkpt><trkpt lat="45.68824378590953" lon="9.171387779881993"><ele>243.16666666666666</ele><time>2026-05-02T08:21:47.943Z</time></trkpt><trkpt lat="45.688251680023974" lon="9.171266823188923"><ele>243.33333333333331</ele><time>2026-05-02T08:21:49.943Z</time></trkpt><trkpt lat="45.68826079588119" lon="9.171123362980763"><ele>243.5</ele><time>2026-05-02T08:21:51.943Z</time></trkpt><trkpt lat="45.688269315235715" lon="9.170956393125557"><ele>243.66666666666666</ele><time>2026-05-02T08:21:53.943Z</time></trkpt><trkpt lat="45.68827255830518" lon="9.170861862673044"><ele>243.83333333333331</ele><time>2026-05-02T08:21:54.943Z</time></trkpt><trkpt lat="45.68827580443296" lon="9.170770211197748"><ele>244.0</ele><time>2026-05-02T08:21:55.943Z</time></trkpt><trkpt lat="45.68827892666564" lon="9.170674761796812"><ele>245.49999999999997</ele><time>2026-05-02T08:21:56.943Z</time></trkpt><trkpt lat="45.688281344254946" lon="9.170579261061793"><ele>247.0</ele><time>2026-05-02T08:21:57.943Z</time></trkpt><trkpt lat="45.68828053030935" lon="9.170422984922396"><ele>248.5</ele><time>2026-05-02T08:21:59.943Z</time></trkpt><trkpt lat="45.68827480409381" lon="9.17030779054499"><ele>250.0</ele><time>2026-05-02T08:22:01.943Z</time></trkpt><trkpt lat="45.68828449001779" lon="9.170206109682463"><ele>251.49999999999997</ele><time>2026-05-02T08:22:03.942Z</time></trkpt><trkpt lat="45.68827292849659" lon="9.170106627435933"><ele>253.0</ele><time>2026-05-02T08:22:06.942Z</time></trkpt><trkpt lat="45.68837547812945" lon="9.170078295355788"><ele>253.0</ele><time>2026-05-02T08:22:07.942Z</time></trkpt><trkpt lat="45.688449151394174" lon="9.170006891573024"><ele>253.0</ele><time>2026-05-02T08:22:09.942Z</time></trkpt><trkpt lat="45.68852665882419" lon="9.169920872396364"><ele>253.0</ele><time>2026-05-02T08:22:11.942Z</time></trkpt><trkpt lat="45.68861567119261" lon="9.169867796088864"><ele>253.0</ele><time>2026-05-02T08:22:13.942Z</time></trkpt><trkpt lat="45.688713785494414" lon="9.169800585082525"><ele>253.0</ele><time>2026-05-02T08:22:15.942Z</time></trkpt><trkpt lat="45.688809193996086" lon="9.169752559912657"><ele>254.2</ele><time>2026-05-02T08:22:17.942Z</time></trkpt><trkpt lat="45.688892042292636" lon="9.169709146007355"><ele>255.4</ele><time>2026-05-02T08:22:19.942Z</time></trkpt><trkpt lat="45.688978565563815" lon="9.169700839675613"><ele>256.59999999999997</ele><time>2026-05-02T08:22:21.942Z</time></trkpt><trkpt lat="45.689071305130355" lon="9.169667060299505"><ele>257.8</ele><time>2026-05-02T08:22:23.942Z</time></trkpt><trkpt lat="45.689178614020705" lon="9.169592943313091"><ele>259.0</ele><time>2026-05-02T08:22:25.942Z</time></trkpt><trkpt lat="45.68926912719921" lon="9.16954237550985"><ele>259.0</ele><time>2026-05-02T08:22:27.942Z</time></trkpt><trkpt lat="45.689362792454446" lon="9.169510095076923"><ele>259.0</ele><time>2026-05-02T08:22:29.942Z</time></trkpt><trkpt lat="45.68944651051787" lon="9.169450667787768"><ele>259.0</ele><time>2026-05-02T08:22:31.942Z</time></trkpt><trkpt lat="45.68954235540473" lon="9.169411567068071"><ele>259.0</ele><time>2026-05-02T08:22:33.942Z</time></trkpt><trkpt lat="45.689610075929494" lon="9.169371919522696"><ele>259.0</ele><time>2026-05-02T08:22:35.942Z</time></trkpt><trkpt lat="45.68969164138363" lon="9.169344690026996"><ele>259.0</ele><time>2026-05-02T08:22:38.942Z</time></trkpt><trkpt lat="45.68975861238873" lon="9.169327826832106"><ele>257.3333333333333</ele><time>2026-05-02T08:22:40.942Z</time></trkpt><trkpt lat="45.68983958643161" lon="9.169295172380279"><ele>255.66666666666666</ele><time>2026-05-02T08:22:43.942Z</time></trkpt><trkpt lat="45.689903417142695" lon="9.169258423269552"><ele>254.0</ele><time>2026-05-02T08:22:48.941Z</time></trkpt><trkpt lat="45.68998296800267" lon="9.169200148458495"><ele>252.33333333333331</ele><time>2026-05-02T08:22:51.941Z</time></trkpt><trkpt lat="45.69005046997672" lon="9.169190091365698"><ele>250.66666666666666</ele><time>2026-05-02T08:22:53.94Z</time></trkpt><trkpt lat="45.6901288128129" lon="9.169159761229205"><ele>249.0</ele><time>2026-05-02T08:22:55.94Z</time></trkpt><trkpt lat="45.690222277501334" lon="9.16911105618188"><ele>249.39999999999998</ele><time>2026-05-02T08:22:57.94Z</time></trkpt><trkpt lat="45.69033252518785" lon="9.169107709944731"><ele>249.79999999999998</ele><time>2026-05-02T08:22:59.94Z</time></trkpt><trkpt lat="45.6904356679163" lon="9.169122782417114"><ele>250.20000000000002</ele><time>2026-05-02T08:23:01.94Z</time></trkpt><trkpt lat="45.690526014589445" lon="9.169132662653348"><ele>250.60000000000002</ele><time>2026-05-02T08:23:03.94Z</time></trkpt><trkpt lat="45.69062115099388" lon="9.169159964680476"><ele>251.0</ele><time>2026-05-02T08:23:05.94Z</time></trkpt><trkpt lat="45.69070315220969" lon="9.169220619620035"><ele>251.0</ele><time>2026-05-02T08:23:07.94Z</time></trkpt><trkpt lat="45.69076893420572" lon="9.169324842344553"><ele>251.00000000000003</ele><time>2026-05-02T08:23:09.94Z</time></trkpt><trkpt lat="45.69084980943612" lon="9.169408240548261"><ele>251.00000000000003</ele><time>2026-05-02T08:23:11.94Z</time></trkpt><trkpt lat="45.690940715496595" lon="9.169532030317825"><ele>251.0</ele><time>2026-05-02T08:23:13.94Z</time></trkpt><trkpt lat="45.690996628251206" lon="9.169577038583105"><ele>251.0</ele><time>2026-05-02T08:23:14.94Z</time></trkpt><trkpt lat="45.69104694015819" lon="9.169636056908683"><ele>251.0</ele><time>2026-05-02T08:23:15.94Z</time></trkpt><trkpt lat="45.69107914366832" lon="9.169713538584944"><ele>251.00000000000003</ele><time>2026-05-02T08:23:16.94Z</time></trkpt><trkpt lat="45.69115911235297" lon="9.1698085508312"><ele>251.00000000000003</ele><time>2026-05-02T08:23:18.94Z</time></trkpt><trkpt lat="45.691228099559545" lon="9.169880625209847"><ele>251.0</ele><time>2026-05-02T08:23:20.94Z</time></trkpt><trkpt lat="45.69131915415947" lon="9.16997947473145"><ele>251.0</ele><time>2026-05-02T08:23:22.94Z</time></trkpt><trkpt lat="45.691415464574305" lon="9.170073900866814"><ele>251.0</ele><time>2026-05-02T08:23:24.94Z</time></trkpt><trkpt lat="45.691503666859916" lon="9.170155539215857"><ele>251.00000000000003</ele><time>2026-05-02T08:23:26.94Z</time></trkpt><trkpt lat="45.69159191867214" lon="9.170238697097737"><ele>251.00000000000003</ele><time>2026-05-02T08:23:28.94Z</time></trkpt><trkpt lat="45.69170932683935" lon="9.170328307688363"><ele>251.0</ele><time>2026-05-02T08:23:30.94Z</time></trkpt><trkpt lat="45.69177537346805" lon="9.170374001744763"><ele>251.0</ele><time>2026-05-02T08:23:31.94Z</time></trkpt><trkpt lat="45.69187812302319" lon="9.170444021650953"><ele>252.71428571428567</ele><time>2026-05-02T08:23:33.94Z</time></trkpt><trkpt lat="45.6919390047318" lon="9.17047303569436"><ele>254.42857142857142</ele><time>2026-05-02T08:23:34.94Z</time></trkpt><trkpt lat="45.692011475129256" lon="9.1704731209487"><ele>256.1428571428571</ele><time>2026-05-02T08:23:35.94Z</time></trkpt><trkpt lat="45.69207591149563" lon="9.170503880648742"><ele>257.85714285714283</ele><time>2026-05-02T08:23:36.94Z</time></trkpt><trkpt lat="45.69214114920806" lon="9.17054133954594"><ele>259.57142857142856</ele><time>2026-05-02T08:23:37.94Z</time></trkpt><trkpt lat="45.69220815912668" lon="9.170576934065458"><ele>261.2857142857143</ele><time>2026-05-02T08:23:38.94Z</time></trkpt><trkpt lat="45.69226838290346" lon="9.17061000201829"><ele>263.0</ele><time>2026-05-02T08:23:39.94Z</time></trkpt><trkpt lat="45.692329250001286" lon="9.170638516793002"><ele>263.0</ele><time>2026-05-02T08:23:40.94Z</time></trkpt><trkpt lat="45.692387555286736" lon="9.17067466971052"><ele>263.0</ele><time>2026-05-02T08:23:41.94Z</time></trkpt><trkpt lat="45.69245367437881" lon="9.17070163652583"><ele>263.0</ele><time>2026-05-02T08:23:42.94Z</time></trkpt><trkpt lat="45.69256982323697" lon="9.17075881541631"><ele>263.0</ele><time>2026-05-02T08:23:44.94Z</time></trkpt><trkpt lat="45.692674404659314" lon="9.170804904905554"><ele>263.0</ele><time>2026-05-02T08:23:46.94Z</time></trkpt><trkpt lat="45.69277997512992" lon="9.170858390972304"><ele>260.5</ele><time>2026-05-02T08:23:48.94Z</time></trkpt><trkpt lat="45.69286525629506" lon="9.1708948709557"><ele>258.0</ele><time>2026-05-02T08:23:50.94Z</time></trkpt><trkpt lat="45.692931987877756" lon="9.170930027493414"><ele>255.5</ele><time>2026-05-02T08:23:52.94Z</time></trkpt><trkpt lat="45.692994539459924" lon="9.170978576895724"><ele>253.0</ele><time>2026-05-02T08:23:54.94Z</time></trkpt><trkpt lat="45.69307055531879" lon="9.171042449582346"><ele>250.50000000000003</ele><time>2026-05-02T08:23:57.94Z</time></trkpt><trkpt lat="45.69313823830744" lon="9.171085215250358"><ele>248.0</ele><time>2026-05-02T08:23:59.94Z</time></trkpt><trkpt lat="45.69321534886066" lon="9.171136517289918"><ele>248.0</ele><time>2026-05-02T08:24:01.94Z</time></trkpt><trkpt lat="45.693299980234386" lon="9.171188493586243"><ele>248.0</ele><time>2026-05-02T08:24:03.94Z</time></trkpt><trkpt lat="45.69340147974866" lon="9.171234038313894"><ele>248.0</ele><time>2026-05-02T08:24:05.94Z</time></trkpt><trkpt lat="45.69349076676686" lon="9.171315264473867"><ele>248.0</ele><time>2026-05-02T08:24:07.94Z</time></trkpt><trkpt lat="45.693601691782774" lon="9.171390778880562"><ele>248.0</ele><time>2026-05-02T08:24:09.94Z</time></trkpt><trkpt lat="45.69366479317161" lon="9.17143208047244"><ele>248.00000000000003</ele><time>2026-05-02T08:24:10.94Z</time></trkpt><trkpt lat="45.693728626854366" lon="9.171475491307067"><ele>248.0</ele><time>2026-05-02T08:24:11.94Z</time></trkpt><trkpt lat="45.69378872430034" lon="9.171518825907945"><ele>248.0</ele><time>2026-05-02T08:24:12.94Z</time></trkpt><trkpt lat="45.69384466185735" lon="9.171564074044142"><ele>248.0</ele><time>2026-05-02T08:24:13.94Z</time></trkpt><trkpt lat="45.693950528043075" lon="9.171638170183998"><ele>248.00000000000003</ele><time>2026-05-02T08:24:15.94Z</time></trkpt><trkpt lat="45.69405459652725" lon="9.171720172550586"><ele>248.0</ele><time>2026-05-02T08:24:17.94Z</time></trkpt><trkpt lat="45.69411105942723" lon="9.171771059030439"><ele>248.2</ele><time>2026-05-02T08:24:18.94Z</time></trkpt><trkpt lat="45.69420926342494" lon="9.17187290019302"><ele>248.4</ele><time>2026-05-02T08:24:20.94Z</time></trkpt><trkpt lat="45.69429416672095" lon="9.17195728207178"><ele>248.59999999999997</ele><time>2026-05-02T08:24:22.94Z</time></trkpt><trkpt lat="45.69437209513872" lon="9.17201644374966"><ele>248.79999999999998</ele><time>2026-05-02T08:24:24.94Z</time></trkpt><trkpt lat="45.694452619508745" lon="9.172068686991055"><ele>249.0</ele><time>2026-05-02T08:24:26.94Z</time></trkpt><trkpt lat="45.69453484188413" lon="9.172121515097762"><ele>249.0</ele><time>2026-05-02T08:24:28.94Z</time></trkpt><trkpt lat="45.69461681696682" lon="9.172163700136469"><ele>248.99999999999997</ele><time>2026-05-02T08:24:30.94Z</time></trkpt><trkpt lat="45.694719499308206" lon="9.172206452012183"><ele>248.99999999999997</ele><time>2026-05-02T08:24:32.94Z</time></trkpt><trkpt lat="45.6948226511483" lon="9.172228218508344"><ele>249.0</ele><time>2026-05-02T08:24:34.94Z</time></trkpt><trkpt lat="45.694889342486555" lon="9.172240139656664"><ele>249.0</ele><time>2026-05-02T08:24:36.94Z</time></trkpt><trkpt lat="45.69497103404422" lon="9.172282002770528"><ele>249.0</ele><time>2026-05-02T08:24:40.94Z</time></trkpt><trkpt lat="45.69505283502474" lon="9.172335265232016"><ele>248.99999999999997</ele><time>2026-05-02T08:24:43.94Z</time></trkpt><trkpt lat="45.695041735730754" lon="9.172522162134872"><ele>248.99999999999997</ele><time>2026-05-02T08:24:44.94Z</time></trkpt><trkpt lat="45.69504799970686" lon="9.172643355829978"><ele>249.0</ele><time>2026-05-02T08:24:45.94Z</time></trkpt><trkpt lat="45.695047501522495" lon="9.172777001236627"><ele>249.0</ele><time>2026-05-02T08:24:46.94Z</time></trkpt><trkpt lat="45.695047186530616" lon="9.172902134137459"><ele>249.0</ele><time>2026-05-02T08:24:47.94Z</time></trkpt><trkpt lat="45.695046170295214" lon="9.173007981604531"><ele>249.0</ele><time>2026-05-02T08:24:48.94Z</time></trkpt><trkpt lat="45.69502933573685" lon="9.173100149873687"><ele>249.0</ele><time>2026-05-02T08:24:49.94Z</time></trkpt><trkpt lat="45.69499161852561" lon="9.173218112659958"><ele>249.0</ele><time>2026-05-02T08:24:51.94Z</time></trkpt><trkpt lat="45.69494022687408" lon="9.173337258104086"><ele>249.0</ele><time>2026-05-02T08:24:59.937Z</time></trkpt><trkpt lat="45.6948837409646" lon="9.173451479409696"><ele>249.0</ele><time>2026-05-02T08:25:01.938Z</time></trkpt><trkpt lat="45.69484006130089" lon="9.173555898523418"><ele>249.16666666666666</ele><time>2026-05-02T08:25:03.937Z</time></trkpt><trkpt lat="45.69494963922738" lon="9.173649020031181"><ele>249.33333333333331</ele><time>2026-05-02T08:25:04.938Z</time></trkpt><trkpt lat="45.69502536376619" lon="9.17362283735326"><ele>249.5</ele><time>2026-05-02T08:25:05.938Z</time></trkpt><trkpt lat="45.69509649332058" lon="9.173623335928157"><ele>249.66666666666666</ele><time>2026-05-02T08:25:06.938Z</time></trkpt><trkpt lat="45.695170508478796" lon="9.173643415355048"><ele>249.83333333333331</ele><time>2026-05-02T08:25:07.937Z</time></trkpt><trkpt lat="45.69525495498535" lon="9.173676380825157"><ele>250.0</ele><time>2026-05-02T08:25:08.937Z</time></trkpt><trkpt lat="45.695352196487" lon="9.17370881769776"><ele>250.2</ele><time>2026-05-02T08:25:09.937Z</time></trkpt><trkpt lat="45.69544720709968" lon="9.1737439332029"><ele>250.4</ele><time>2026-05-02T08:25:10.937Z</time></trkpt><trkpt lat="45.695542188391535" lon="9.173776755853515"><ele>250.60000000000002</ele><time>2026-05-02T08:25:11.937Z</time></trkpt><trkpt lat="45.695638239988526" lon="9.173804015689223"><ele>250.8</ele><time>2026-05-02T08:25:12.937Z</time></trkpt><trkpt lat="45.695727645671724" lon="9.173832522556445"><ele>251.0</ele><time>2026-05-02T08:25:13.937Z</time></trkpt><trkpt lat="45.69582156552387" lon="9.17384438330239"><ele>251.00000000000003</ele><time>2026-05-02T08:25:14.937Z</time></trkpt><trkpt lat="45.69590748008515" lon="9.173857135843393"><ele>251.0</ele><time>2026-05-02T08:25:15.937Z</time></trkpt><trkpt lat="45.69599613302711" lon="9.1738830508431"><ele>251.0</ele><time>2026-05-02T08:25:16.937Z</time></trkpt><trkpt lat="45.69608028216283" lon="9.173911636983332"><ele>251.0</ele><time>2026-05-02T08:25:17.937Z</time></trkpt><trkpt lat="45.696155794559864" lon="9.173931468393333"><ele>251.00000000000003</ele><time>2026-05-02T08:25:18.937Z</time></trkpt><trkpt lat="45.69622492737373" lon="9.17394815553162"><ele>251.0</ele><time>2026-05-02T08:25:19.937Z</time></trkpt><trkpt lat="45.69629204454922" lon="9.17396377469148"><ele>251.00000000000003</ele><time>2026-05-02T08:25:20.937Z</time></trkpt><trkpt lat="45.69635753317091" lon="9.173977036633508"><ele>251.0</ele><time>2026-05-02T08:25:21.937Z</time></trkpt><trkpt lat="45.696422773510875" lon="9.173989875860551"><ele>251.0</ele><time>2026-05-02T08:25:22.937Z</time></trkpt><trkpt lat="45.69653683161102" lon="9.174016474010989"><ele>251.0</ele><time>2026-05-02T08:25:24.937Z</time></trkpt><trkpt lat="45.696613617704955" lon="9.17404808211691"><ele>251.00000000000003</ele><time>2026-05-02T08:25:26.937Z</time></trkpt><trkpt lat="45.69669142876832" lon="9.174112299394327"><ele>251.0</ele><time>2026-05-02T08:25:28.937Z</time></trkpt><trkpt lat="45.69672367142916" lon="9.174223151088423"><ele>251.4</ele><time>2026-05-02T08:25:29.937Z</time></trkpt><trkpt lat="45.69679895318766" lon="9.17427596344666"><ele>251.8</ele><time>2026-05-02T08:25:30.937Z</time></trkpt><trkpt lat="45.69690209730114" lon="9.1742924107107"><ele>252.20000000000002</ele><time>2026-05-02T08:25:31.937Z</time></trkpt><trkpt lat="45.69698869308637" lon="9.174379562191547"><ele>252.60000000000002</ele><time>2026-05-02T08:25:32.937Z</time></trkpt><trkpt lat="45.69707132314138" lon="9.174479187362945"><ele>253.0</ele><time>2026-05-02T08:25:33.937Z</time></trkpt><trkpt lat="45.697155777275206" lon="9.174580533540034"><ele>253.25</ele><time>2026-05-02T08:25:34.937Z</time></trkpt><trkpt lat="45.69724143402488" lon="9.174684871724324"><ele>253.5</ele><time>2026-05-02T08:25:35.937Z</time></trkpt><trkpt lat="45.6973324803325" lon="9.174794110120553"><ele>253.75</ele><time>2026-05-02T08:25:36.937Z</time></trkpt><trkpt lat="45.69742089956741" lon="9.174909483617778"><ele>254.0</ele><time>2026-05-02T08:25:37.937Z</time></trkpt><trkpt lat="45.69750964074184" lon="9.175027035247071"><ele>254.25</ele><time>2026-05-02T08:25:38.937Z</time></trkpt><trkpt lat="45.69759839811162" lon="9.175142905450851"><ele>254.5</ele><time>2026-05-02T08:25:39.937Z</time></trkpt><trkpt lat="45.69768310882144" lon="9.175249412698287"><ele>254.75</ele><time>2026-05-02T08:25:40.937Z</time></trkpt><trkpt lat="45.69776890703023" lon="9.175355615396452"><ele>255.0</ele><time>2026-05-02T08:25:41.937Z</time></trkpt><trkpt lat="45.69785437416533" lon="9.17545274708971"><ele>255.0</ele><time>2026-05-02T08:25:42.937Z</time></trkpt><trkpt lat="45.697938029684366" lon="9.175567292893716"><ele>255.0</ele><time>2026-05-02T08:25:43.937Z</time></trkpt><trkpt lat="45.698019807795774" lon="9.175681571563391"><ele>255.0</ele><time>2026-05-02T08:25:44.937Z</time></trkpt><trkpt lat="45.69810461897497" lon="9.175790580450961"><ele>255.0</ele><time>2026-05-02T08:25:45.937Z</time></trkpt><trkpt lat="45.698188673952345" lon="9.175900115366431"><ele>255.0</ele><time>2026-05-02T08:25:46.937Z</time></trkpt><trkpt lat="45.69826762902278" lon="9.176003892190229"><ele>255.0</ele><time>2026-05-02T08:25:47.937Z</time></trkpt><trkpt lat="45.69833762197237" lon="9.17609745447875"><ele>255.0</ele><time>2026-05-02T08:25:48.937Z</time></trkpt><trkpt lat="45.698398635462695" lon="9.176184321880918"><ele>255.0</ele><time>2026-05-02T08:25:49.937Z</time></trkpt><trkpt lat="45.69845459709407" lon="9.176262106014601"><ele>255.0</ele><time>2026-05-02T08:25:50.937Z</time></trkpt><trkpt lat="45.69850427745018" lon="9.176332342923429"><ele>255.0</ele><time>2026-05-02T08:25:51.937Z</time></trkpt><trkpt lat="45.69855879204525" lon="9.17638078188969"><ele>255.4</ele><time>2026-05-02T08:25:52.937Z</time></trkpt><trkpt lat="45.69866230417519" lon="9.176419323757049"><ele>255.8</ele><time>2026-05-02T08:25:54.937Z</time></trkpt><trkpt lat="45.69874850151514" lon="9.176411980550114"><ele>256.2</ele><time>2026-05-02T08:25:56.937Z</time></trkpt><trkpt lat="45.698825033854845" lon="9.176438793927014"><ele>256.6</ele><time>2026-05-02T08:25:58.937Z</time></trkpt><trkpt lat="45.698889647302195" lon="9.17644624992662"><ele>257.0</ele><time>2026-05-02T08:26:00.937Z</time></trkpt><trkpt lat="45.69900879722152" lon="9.176460941519249"><ele>257.0</ele><time>2026-05-02T08:26:03.937Z</time></trkpt><trkpt lat="45.69909350842091" lon="9.176471386699708"><ele>257.0</ele><time>2026-05-02T08:26:04.937Z</time></trkpt><trkpt lat="45.69918090035846" lon="9.176482162424334"><ele>257.0</ele><time>2026-05-02T08:26:05.937Z</time></trkpt><trkpt lat="45.69927413639043" lon="9.176506323146302"><ele>257.0</ele><time>2026-05-02T08:26:06.937Z</time></trkpt><trkpt lat="45.69940046856437" lon="9.176521309835174"><ele>257.0</ele><time>2026-05-02T08:26:07.937Z</time></trkpt><trkpt lat="45.69951830020061" lon="9.176542076947648"><ele>256.83333333333337</ele><time>2026-05-02T08:26:08.937Z</time></trkpt><trkpt lat="45.699620617275194" lon="9.176559010034014"><ele>256.6666666666667</ele><time>2026-05-02T08:26:09.937Z</time></trkpt><trkpt lat="45.69971175106847" lon="9.176573575374995"><ele>256.5</ele><time>2026-05-02T08:26:10.937Z</time></trkpt><trkpt lat="45.69978851776532" lon="9.176578124819343"><ele>256.3333333333333</ele><time>2026-05-02T08:26:11.937Z</time></trkpt><trkpt lat="45.699866360954445" lon="9.176585065532382"><ele>256.16666666666663</ele><time>2026-05-02T08:26:12.937Z</time></trkpt><trkpt lat="45.69993979424071" lon="9.176603506851661"><ele>256.0</ele><time>2026-05-02T08:26:13.937Z</time></trkpt><trkpt lat="45.70004829118101" lon="9.176632182017505"><ele>256.0</ele><time>2026-05-02T08:26:15.937Z</time></trkpt><trkpt lat="45.7001337575839" lon="9.176538635885201"><ele>256.0</ele><time>2026-05-02T08:26:17.937Z</time></trkpt><trkpt lat="45.70018785086064" lon="9.176439455698366"><ele>256.0</ele><time>2026-05-02T08:26:18.937Z</time></trkpt><trkpt lat="45.700264769797286" lon="9.176350695925354"><ele>256.0</ele><time>2026-05-02T08:26:19.937Z</time></trkpt><trkpt lat="45.70035961882449" lon="9.17628463820108"><ele>256.0</ele><time>2026-05-02T08:26:20.937Z</time></trkpt><trkpt lat="45.700477321453505" lon="9.176269470355589"><ele>256.0</ele><time>2026-05-02T08:26:21.937Z</time></trkpt><trkpt lat="45.70058202304166" lon="9.176202758762697"><ele>256.0</ele><time>2026-05-02T08:26:22.937Z</time></trkpt><trkpt lat="45.70070258097946" lon="9.176137466622007"><ele>256.0</ele><time>2026-05-02T08:26:23.937Z</time></trkpt><trkpt lat="45.700819383180466" lon="9.176060338937667"><ele>256.0</ele><time>2026-05-02T08:26:24.937Z</time></trkpt><trkpt lat="45.701055955739676" lon="9.175901369210587"><ele>256.0</ele><time>2026-05-02T08:26:26.937Z</time></trkpt><trkpt lat="45.70117533351041" lon="9.17582292083173"><ele>256.0</ele><time>2026-05-02T08:26:27.937Z</time></trkpt><trkpt lat="45.701294293841016" lon="9.175744956458217"><ele>256.0</ele><time>2026-05-02T08:26:28.937Z</time></trkpt><trkpt lat="45.70141178470313" lon="9.175665507074775"><ele>256.0</ele><time>2026-05-02T08:26:29.937Z</time></trkpt><trkpt lat="45.701527034212205" lon="9.175584719267803"><ele>255.75</ele><time>2026-05-02T08:26:30.937Z</time></trkpt><trkpt lat="45.701648253482006" lon="9.175500952327685"><ele>255.5</ele><time>2026-05-02T08:26:31.937Z</time></trkpt><trkpt lat="45.70177164193607" lon="9.17541279728361"><ele>255.25</ele><time>2026-05-02T08:26:32.937Z</time></trkpt><trkpt lat="45.70189708418455" lon="9.175321753673922"><ele>255.0</ele><time>2026-05-02T08:26:33.937Z</time></trkpt><trkpt lat="45.70203646322212" lon="9.175272651055495"><ele>256.0</ele><time>2026-05-02T08:26:34.937Z</time></trkpt><trkpt lat="45.70215836947676" lon="9.175193810595744"><ele>257.0</ele><time>2026-05-02T08:26:35.937Z</time></trkpt><trkpt lat="45.70227274939111" lon="9.175117018216378"><ele>258.0</ele><time>2026-05-02T08:26:36.937Z</time></trkpt><trkpt lat="45.702374116669844" lon="9.175040938507475"><ele>259.0</ele><time>2026-05-02T08:26:37.937Z</time></trkpt><trkpt lat="45.702467459136194" lon="9.17497070764555"><ele>259.0</ele><time>2026-05-02T08:26:38.937Z</time></trkpt><trkpt lat="45.70255917080044" lon="9.174910910405565"><ele>259.0</ele><time>2026-05-02T08:26:39.937Z</time></trkpt><trkpt lat="45.702628478886815" lon="9.174870315994692"><ele>259.0</ele><time>2026-05-02T08:26:40.937Z</time></trkpt><trkpt lat="45.7026998432463" lon="9.174805435881996"><ele>259.0</ele><time>2026-05-02T08:26:42.937Z</time></trkpt><trkpt lat="45.70274934473895" lon="9.174723938494527"><ele>259.0</ele><time>2026-05-02T08:26:45.937Z</time></trkpt><trkpt lat="45.7028526390873" lon="9.174730563573858"><ele>259.0</ele><time>2026-05-02T08:26:47.937Z</time></trkpt><trkpt lat="45.702920874859245" lon="9.17472334481518"><ele>260.0</ele><time>2026-05-02T08:26:48.937Z</time></trkpt><trkpt lat="45.70299295827933" lon="9.174665764777357"><ele>261.0</ele><time>2026-05-02T08:26:49.937Z</time></trkpt><trkpt lat="45.70306854087852" lon="9.174603589133348"><ele>262.0</ele><time>2026-05-02T08:26:50.937Z</time></trkpt><trkpt lat="45.70316015496424" lon="9.17454370980599"><ele>263.0</ele><time>2026-05-02T08:26:51.937Z</time></trkpt><trkpt lat="45.703250851167994" lon="9.174483576309573"><ele>264.0</ele><time>2026-05-02T08:26:52.937Z</time></trkpt><trkpt lat="45.70334095863521" lon="9.174408472359373"><ele>264.0</ele><time>2026-05-02T08:26:53.937Z</time></trkpt><trkpt lat="45.70357128775715" lon="9.174314541209927"><ele>264.0</ele><time>2026-05-02T08:26:55.937Z</time></trkpt><trkpt lat="45.703666753474295" lon="9.174210614568873"><ele>264.0</ele><time>2026-05-02T08:26:56.937Z</time></trkpt><trkpt lat="45.70376281167933" lon="9.174104805152837"><ele>265.75</ele><time>2026-05-02T08:26:57.937Z</time></trkpt><trkpt lat="45.70386082517281" lon="9.173996430825504"><ele>267.5</ele><time>2026-05-02T08:26:58.937Z</time></trkpt><trkpt lat="45.70396006744851" lon="9.17389233843843"><ele>269.25</ele><time>2026-05-02T08:26:59.937Z</time></trkpt><trkpt lat="45.70406560181632" lon="9.173787804644013"><ele>271.0</ele><time>2026-05-02T08:27:00.935Z</time></trkpt><trkpt lat="45.70417179901496" lon="9.17368693386687"><ele>271.0</ele><time>2026-05-02T08:27:01.935Z</time></trkpt><trkpt lat="45.704298069463064" lon="9.173599570883036"><ele>271.0</ele><time>2026-05-02T08:27:02.935Z</time></trkpt><trkpt lat="45.70441883518257" lon="9.173508959263351"><ele>271.0</ele><time>2026-05-02T08:27:03.936Z</time></trkpt><trkpt lat="45.70454259876337" lon="9.173424229258805"><ele>271.0</ele><time>2026-05-02T08:27:04.936Z</time></trkpt><trkpt lat="45.704667133624355" lon="9.173340452509926"><ele>273.0</ele><time>2026-05-02T08:27:05.936Z</time></trkpt><trkpt lat="45.704788598010296" lon="9.173261113605069"><ele>275.0</ele><time>2026-05-02T08:27:06.936Z</time></trkpt><trkpt lat="45.70491033183125" lon="9.173194528001549"><ele>277.0</ele><time>2026-05-02T08:27:07.935Z</time></trkpt><trkpt lat="45.70503595981681" lon="9.17314235111771"><ele>279.0</ele><time>2026-05-02T08:27:08.935Z</time></trkpt><trkpt lat="45.705160257392265" lon="9.173097330264874"><ele>279.5</ele><time>2026-05-02T08:27:09.935Z</time></trkpt><trkpt lat="45.7052844816066" lon="9.173052619914344"><ele>280.0</ele><time>2026-05-02T08:27:10.935Z</time></trkpt><trkpt lat="45.70541130621923" lon="9.173007118081117"><ele>280.5</ele><time>2026-05-02T08:27:11.935Z</time></trkpt><trkpt lat="45.705538262113684" lon="9.172949792904731"><ele>281.0</ele><time>2026-05-02T08:27:12.935Z</time></trkpt><trkpt lat="45.705670795505604" lon="9.172893972382182"><ele>281.0</ele><time>2026-05-02T08:27:13.935Z</time></trkpt><trkpt lat="45.70580874604176" lon="9.172846691140041"><ele>281.0</ele><time>2026-05-02T08:27:14.935Z</time></trkpt><trkpt lat="45.70593814435917" lon="9.172792522530703"><ele>281.0</ele><time>2026-05-02T08:27:15.935Z</time></trkpt><trkpt lat="45.706071349785745" lon="9.172786755435295"><ele>281.0</ele><time>2026-05-02T08:27:16.935Z</time></trkpt><trkpt lat="45.706207808509944" lon="9.172776883236143"><ele>281.5</ele><time>2026-05-02T08:27:17.935Z</time></trkpt><trkpt lat="45.706345413603465" lon="9.172767775626307"><ele>282.0</ele><time>2026-05-02T08:27:18.935Z</time></trkpt><trkpt lat="45.70648296557441" lon="9.172756863787683"><ele>282.5</ele><time>2026-05-02T08:27:19.935Z</time></trkpt><trkpt lat="45.7066217063024" lon="9.172732697495482"><ele>283.0</ele><time>2026-05-02T08:27:20.935Z</time></trkpt><trkpt lat="45.70675105598446" lon="9.172683776178497"><ele>283.0</ele><time>2026-05-02T08:27:21.935Z</time></trkpt><trkpt lat="45.706875893925314" lon="9.172603344152552"><ele>283.0</ele><time>2026-05-02T08:27:22.935Z</time></trkpt><trkpt lat="45.70699188191608" lon="9.172499241053039"><ele>283.0</ele><time>2026-05-02T08:27:23.935Z</time></trkpt><trkpt lat="45.70709673827692" lon="9.172387982311703"><ele>283.0</ele><time>2026-05-02T08:27:24.935Z</time></trkpt><trkpt lat="45.707198454625015" lon="9.17227173162881"><ele>283.8</ele><time>2026-05-02T08:27:25.935Z</time></trkpt><trkpt lat="45.707306930923586" lon="9.172181989411385"><ele>284.6</ele><time>2026-05-02T08:27:26.935Z</time></trkpt><trkpt lat="45.70739740371224" lon="9.172080531804449"><ele>285.4</ele><time>2026-05-02T08:27:27.935Z</time></trkpt><trkpt lat="45.7074773896225" lon="9.171993218057596"><ele>286.2</ele><time>2026-05-02T08:27:28.935Z</time></trkpt><trkpt lat="45.707549521598864" lon="9.17190084664714"><ele>287.0</ele><time>2026-05-02T08:27:29.935Z</time></trkpt><trkpt lat="45.7076156994264" lon="9.171812014560519"><ele>287.0</ele><time>2026-05-02T08:27:30.935Z</time></trkpt><trkpt lat="45.707683227947236" lon="9.171715529508933"><ele>287.0</ele><time>2026-05-02T08:27:31.935Z</time></trkpt><trkpt lat="45.70774195123619" lon="9.171623141172363"><ele>287.0</ele><time>2026-05-02T08:27:32.935Z</time></trkpt><trkpt lat="45.707789679977026" lon="9.171525142827198"><ele>287.0</ele><time>2026-05-02T08:27:33.935Z</time></trkpt><trkpt lat="45.707831577324974" lon="9.171435298371236"><ele>287.0</ele><time>2026-05-02T08:27:34.935Z</time></trkpt><trkpt lat="45.7078685532864" lon="9.171358668307562"><ele>287.0</ele><time>2026-05-02T08:27:35.935Z</time></trkpt><trkpt lat="45.70791910539256" lon="9.171233233462345"><ele>287.5</ele><time>2026-05-02T08:27:37.935Z</time></trkpt><trkpt lat="45.70794851270826" lon="9.171140474766743"><ele>288.0</ele><time>2026-05-02T08:27:40.935Z</time></trkpt><trkpt lat="45.70798638938885" lon="9.171009779262326"><ele>288.5</ele><time>2026-05-02T08:27:47.935Z</time></trkpt><trkpt lat="45.70802307171861" lon="9.17092328466528"><ele>289.0</ele><time>2026-05-02T08:27:48.935Z</time></trkpt><trkpt lat="45.708062811114175" lon="9.170838547652211"><ele>289.5</ele><time>2026-05-02T08:27:49.935Z</time></trkpt><trkpt lat="45.70810338957319" lon="9.170765226476838"><ele>290.0</ele><time>2026-05-02T08:27:50.935Z</time></trkpt><trkpt lat="45.70820008693508" lon="9.17064086479"><ele>290.2</ele><time>2026-05-02T08:27:52.935Z</time></trkpt><trkpt lat="45.70828408179479" lon="9.170534985342696"><ele>290.4</ele><time>2026-05-02T08:27:54.935Z</time></trkpt><trkpt lat="45.70836145506672" lon="9.170505345075073"><ele>290.6</ele><time>2026-05-02T08:27:55.935Z</time></trkpt><trkpt lat="45.70843053981703" lon="9.170443037994483"><ele>290.8</ele><time>2026-05-02T08:27:56.935Z</time></trkpt><trkpt lat="45.70845938855845" lon="9.170307911594257"><ele>291.0</ele><time>2026-05-02T08:27:57.935Z</time></trkpt><trkpt lat="45.708499361910874" lon="9.170179989511619"><ele>291.0</ele><time>2026-05-02T08:27:58.935Z</time></trkpt><trkpt lat="45.708537942558856" lon="9.170044762340531"><ele>291.0</ele><time>2026-05-02T08:27:59.935Z</time></trkpt><trkpt lat="45.708585756687874" lon="9.169912058309066"><ele>291.0</ele><time>2026-05-02T08:28:00.935Z</time></trkpt><trkpt lat="45.708642914597526" lon="9.16979616336535"><ele>291.0</ele><time>2026-05-02T08:28:01.935Z</time></trkpt><trkpt lat="45.708712668040214" lon="9.16968725746376"><ele>291.0</ele><time>2026-05-02T08:28:02.935Z</time></trkpt><trkpt lat="45.708785188514454" lon="9.169579409352037"><ele>291.2</ele><time>2026-05-02T08:28:03.935Z</time></trkpt><trkpt lat="45.70885790436974" lon="9.169472528467205"><ele>291.40000000000003</ele><time>2026-05-02T08:28:04.935Z</time></trkpt><trkpt lat="45.70892555519613" lon="9.169365768435297"><ele>291.6</ele><time>2026-05-02T08:28:05.935Z</time></trkpt><trkpt lat="45.708993310886264" lon="9.169257795280089"><ele>291.8</ele><time>2026-05-02T08:28:06.935Z</time></trkpt><trkpt lat="45.7090611365779" lon="9.169148579451871"><ele>292.0</ele><time>2026-05-02T08:28:07.935Z</time></trkpt><trkpt lat="45.70913299330617" lon="9.16904523899797"><ele>292.0</ele><time>2026-05-02T08:28:08.935Z</time></trkpt><trkpt lat="45.709201365248006" lon="9.168941617568924"><ele>292.0</ele><time>2026-05-02T08:28:09.935Z</time></trkpt><trkpt lat="45.70927621914675" lon="9.168862184445375"><ele>292.0</ele><time>2026-05-02T08:28:10.935Z</time></trkpt><trkpt lat="45.70933581726834" lon="9.16877553655578"><ele>292.0</ele><time>2026-05-02T08:28:11.935Z</time></trkpt><trkpt lat="45.70939341815879" lon="9.168693066195734"><ele>292.0</ele><time>2026-05-02T08:28:12.935Z</time></trkpt><trkpt lat="45.7094473945708" lon="9.168616397051299"><ele>292.0</ele><time>2026-05-02T08:28:13.935Z</time></trkpt><trkpt lat="45.709505570519255" lon="9.16853916113596"><ele>292.0</ele><time>2026-05-02T08:28:14.935Z</time></trkpt><trkpt lat="45.70956648920069" lon="9.168461276667632"><ele>292.0</ele><time>2026-05-02T08:28:15.935Z</time></trkpt><trkpt lat="45.709637701921" lon="9.168405456619277"><ele>292.0</ele><time>2026-05-02T08:28:16.935Z</time></trkpt><trkpt lat="45.709711827208544" lon="9.168348282279181"><ele>292.0</ele><time>2026-05-02T08:28:17.935Z</time></trkpt><trkpt lat="45.70979118158047" lon="9.168286282161736"><ele>292.0</ele><time>2026-05-02T08:28:18.935Z</time></trkpt><trkpt lat="45.70988466677465" lon="9.16826286066321"><ele>292.0</ele><time>2026-05-02T08:28:19.935Z</time></trkpt><trkpt lat="45.70999068592083" lon="9.168244942991526"><ele>292.0</ele><time>2026-05-02T08:28:20.935Z</time></trkpt><trkpt lat="45.71010353819123" lon="9.168219838337551"><ele>292.0</ele><time>2026-05-02T08:28:21.935Z</time></trkpt><trkpt lat="45.710228436071034" lon="9.168190371621211"><ele>292.0</ele><time>2026-05-02T08:28:22.935Z</time></trkpt><trkpt lat="45.710363179145666" lon="9.168194320092184"><ele>292.0</ele><time>2026-05-02T08:28:23.935Z</time></trkpt><trkpt lat="45.7104987912572" lon="9.168161927828823"><ele>291.75</ele><time>2026-05-02T08:28:24.935Z</time></trkpt><trkpt lat="45.710638431504464" lon="9.168125152854543"><ele>291.5</ele><time>2026-05-02T08:28:25.935Z</time></trkpt><trkpt lat="45.7107819973369" lon="9.16808995649777"><ele>291.25</ele><time>2026-05-02T08:28:26.935Z</time></trkpt><trkpt lat="45.7109308793723" lon="9.168054595416763"><ele>291.0</ele><time>2026-05-02T08:28:27.935Z</time></trkpt><trkpt lat="45.71108233489634" lon="9.168018583292328"><ele>292.0</ele><time>2026-05-02T08:28:28.935Z</time></trkpt><trkpt lat="45.71123386532995" lon="9.167983215092985"><ele>293.0</ele><time>2026-05-02T08:28:29.935Z</time></trkpt><trkpt lat="45.71138658607191" lon="9.167950252173142"><ele>294.0</ele><time>2026-05-02T08:28:30.935Z</time></trkpt><trkpt lat="45.71153590892004" lon="9.16791802264825"><ele>294.0</ele><time>2026-05-02T08:28:31.935Z</time></trkpt><trkpt lat="45.71168358773974" lon="9.167894650062443"><ele>294.0</ele><time>2026-05-02T08:28:32.935Z</time></trkpt><trkpt lat="45.711829525847115" lon="9.1678647561356"><ele>294.0</ele><time>2026-05-02T08:28:33.935Z</time></trkpt><trkpt lat="45.711973313490525" lon="9.167831589512318"><ele>294.0</ele><time>2026-05-02T08:28:34.935Z</time></trkpt><trkpt lat="45.71211845929134" lon="9.167794501733656"><ele>294.0</ele><time>2026-05-02T08:28:35.935Z</time></trkpt><trkpt lat="45.71226666857143" lon="9.167757418056992"><ele>294.0</ele><time>2026-05-02T08:28:36.935Z</time></trkpt><trkpt lat="45.712415263107125" lon="9.167721049411309"><ele>294.0</ele><time>2026-05-02T08:28:37.935Z</time></trkpt><trkpt lat="45.71256312643868" lon="9.167679341610866"><ele>294.0</ele><time>2026-05-02T08:28:38.935Z</time></trkpt><trkpt lat="45.712712255463785" lon="9.167649681880876"><ele>294.0</ele><time>2026-05-02T08:28:39.935Z</time></trkpt><trkpt lat="45.71285623892283" lon="9.167614089947778"><ele>294.0</ele><time>2026-05-02T08:28:40.935Z</time></trkpt><trkpt lat="45.71299455842248" lon="9.167578547852328"><ele>294.0</ele><time>2026-05-02T08:28:41.935Z</time></trkpt><trkpt lat="45.7131352953602" lon="9.167541249976823"><ele>294.6666666666667</ele><time>2026-05-02T08:28:42.935Z</time></trkpt><trkpt lat="45.713280617137855" lon="9.167521280218198"><ele>295.33333333333337</ele><time>2026-05-02T08:28:43.935Z</time></trkpt><trkpt lat="45.71342808116894" lon="9.16747282405979"><ele>296.0</ele><time>2026-05-02T08:28:44.935Z</time></trkpt><trkpt lat="45.71357793532896" lon="9.167423455324538"><ele>296.6666666666667</ele><time>2026-05-02T08:28:45.935Z</time></trkpt><trkpt lat="45.713722930237466" lon="9.167364754353901"><ele>297.3333333333333</ele><time>2026-05-02T08:28:46.935Z</time></trkpt><trkpt lat="45.71387179156061" lon="9.16730240125821"><ele>298.0</ele><time>2026-05-02T08:28:47.935Z</time></trkpt><trkpt lat="45.71402227995577" lon="9.16724274476388"><ele>298.3333333333333</ele><time>2026-05-02T08:28:48.935Z</time></trkpt><trkpt lat="45.714174212449386" lon="9.167179148975675"><ele>298.6666666666667</ele><time>2026-05-02T08:28:49.935Z</time></trkpt><trkpt lat="45.71432339396717" lon="9.167121482205053"><ele>299.0</ele><time>2026-05-02T08:28:50.935Z</time></trkpt><trkpt lat="45.71447835020613" lon="9.167054773344644"><ele>300.0</ele><time>2026-05-02T08:28:51.935Z</time></trkpt><trkpt lat="45.71463196081337" lon="9.166989837394462"><ele>301.0</ele><time>2026-05-02T08:28:52.935Z</time></trkpt><trkpt lat="45.714781983753035" lon="9.166926059487825"><ele>302.0</ele><time>2026-05-02T08:28:53.935Z</time></trkpt><trkpt lat="45.71493313662771" lon="9.16686372400424"><ele>302.0</ele><time>2026-05-02T08:28:54.935Z</time></trkpt><trkpt lat="45.71508773400547" lon="9.166811241631837"><ele>302.0</ele><time>2026-05-02T08:28:55.935Z</time></trkpt><trkpt lat="45.715241294352126" lon="9.16676071560107"><ele>302.0</ele><time>2026-05-02T08:28:56.935Z</time></trkpt><trkpt lat="45.7153943125287" lon="9.166710481393647"><ele>301.75</ele><time>2026-05-02T08:28:57.935Z</time></trkpt><trkpt lat="45.71554314816671" lon="9.16666702486242"><ele>301.5</ele><time>2026-05-02T08:28:58.935Z</time></trkpt><trkpt lat="45.715688345523134" lon="9.166622520915249"><ele>301.25</ele><time>2026-05-02T08:28:59.935Z</time></trkpt><trkpt lat="45.71582444080714" lon="9.166585799346667"><ele>301.0</ele><time>2026-05-02T08:29:00.935Z</time></trkpt><trkpt lat="45.715949467195614" lon="9.166560223200673"><ele>301.0</ele><time>2026-05-02T08:29:01.935Z</time></trkpt><trkpt lat="45.71605729354559" lon="9.166546327053371"><ele>301.0</ele><time>2026-05-02T08:29:02.935Z</time></trkpt><trkpt lat="45.71615147777934" lon="9.166558612341047"><ele>301.0</ele><time>2026-05-02T08:29:03.935Z</time></trkpt><trkpt lat="45.716230161682745" lon="9.166589481147332"><ele>301.0</ele><time>2026-05-02T08:29:04.935Z</time></trkpt><trkpt lat="45.716299589872534" lon="9.166624358832474"><ele>301.0</ele><time>2026-05-02T08:29:05.935Z</time></trkpt><trkpt lat="45.716362484252315" lon="9.166665118748242"><ele>301.0</ele><time>2026-05-02T08:29:06.932Z</time></trkpt><trkpt lat="45.71642197693992" lon="9.166707819892066"><ele>301.2</ele><time>2026-05-02T08:29:07.933Z</time></trkpt><trkpt lat="45.71648453792189" lon="9.166740993050126"><ele>301.40000000000003</ele><time>2026-05-02T08:29:08.933Z</time></trkpt><trkpt lat="45.716564497808236" lon="9.166771920697526"><ele>301.6</ele><time>2026-05-02T08:29:09.933Z</time></trkpt><trkpt lat="45.7166548260359" lon="9.166719698874427"><ele>301.8</ele><time>2026-05-02T08:29:10.933Z</time></trkpt><trkpt lat="45.71674618071901" lon="9.166674345842738"><ele>302.0</ele><time>2026-05-02T08:29:11.933Z</time></trkpt><trkpt lat="45.71684650870919" lon="9.166619394148137"><ele>301.8</ele><time>2026-05-02T08:29:12.933Z</time></trkpt><trkpt lat="45.71694844511278" lon="9.166587619366688"><ele>301.6</ele><time>2026-05-02T08:29:13.932Z</time></trkpt><trkpt lat="45.717055757060514" lon="9.166568066383972"><ele>301.40000000000003</ele><time>2026-05-02T08:29:14.932Z</time></trkpt><trkpt lat="45.717165194953026" lon="9.166567579227383"><ele>301.2</ele><time>2026-05-02T08:29:15.933Z</time></trkpt><trkpt lat="45.717280376568226" lon="9.1665747436221"><ele>301.0</ele><time>2026-05-02T08:29:16.932Z</time></trkpt><trkpt lat="45.71740173490543" lon="9.166586668015348"><ele>301.0</ele><time>2026-05-02T08:29:17.932Z</time></trkpt><trkpt lat="45.71751984276037" lon="9.166597978030865"><ele>301.0</ele><time>2026-05-02T08:29:18.932Z</time></trkpt><trkpt lat="45.71764224783356" lon="9.166612866019992"><ele>301.0</ele><time>2026-05-02T08:29:19.932Z</time></trkpt><trkpt lat="45.71776175902291" lon="9.166629729163535"><ele>301.0</ele><time>2026-05-02T08:29:20.932Z</time></trkpt><trkpt lat="45.71788086799508" lon="9.166644896435267"><ele>301.5</ele><time>2026-05-02T08:29:21.932Z</time></trkpt><trkpt lat="45.71799769734703" lon="9.166658472659384"><ele>302.0</ele><time>2026-05-02T08:29:22.932Z</time></trkpt><trkpt lat="45.71811768032334" lon="9.16667089816821"><ele>302.5</ele><time>2026-05-02T08:29:23.932Z</time></trkpt><trkpt lat="45.718228298676514" lon="9.16668390966378"><ele>303.0</ele><time>2026-05-02T08:29:24.932Z</time></trkpt><trkpt lat="45.7183419702874" lon="9.166694613170264"><ele>303.0</ele><time>2026-05-02T08:29:25.932Z</time></trkpt><trkpt lat="45.71845850261023" lon="9.166705209492443"><ele>303.0</ele><time>2026-05-02T08:29:26.932Z</time></trkpt><trkpt lat="45.7185716126803" lon="9.16672362239208"><ele>303.0</ele><time>2026-05-02T08:29:27.932Z</time></trkpt><trkpt lat="45.71868495031511" lon="9.166744664262586"><ele>303.0</ele><time>2026-05-02T08:29:28.932Z</time></trkpt><trkpt lat="45.718800545788106" lon="9.16676934282727"><ele>303.0</ele><time>2026-05-02T08:29:29.932Z</time></trkpt><trkpt lat="45.71891935934553" lon="9.166799769983115"><ele>303.0</ele><time>2026-05-02T08:29:30.932Z</time></trkpt><trkpt lat="45.71904635744129" lon="9.166834195502775"><ele>303.0</ele><time>2026-05-02T08:29:31.932Z</time></trkpt><trkpt lat="45.71917496736071" lon="9.166869390138329"><ele>303.0</ele><time>2026-05-02T08:29:32.932Z</time></trkpt><trkpt lat="45.71930305403768" lon="9.16690550557657"><ele>303.75</ele><time>2026-05-02T08:29:33.932Z</time></trkpt><trkpt lat="45.71942700026503" lon="9.16694574329141"><ele>304.5</ele><time>2026-05-02T08:29:34.932Z</time></trkpt><trkpt lat="45.71954992196764" lon="9.166986042841371"><ele>305.25</ele><time>2026-05-02T08:29:35.932Z</time></trkpt><trkpt lat="45.71966728178947" lon="9.167031132446715"><ele>306.0</ele><time>2026-05-02T08:29:36.932Z</time></trkpt><trkpt lat="45.719782086701706" lon="9.167075336544281"><ele>306.0</ele><time>2026-05-02T08:29:37.932Z</time></trkpt><trkpt lat="45.71989985048542" lon="9.167119033977638"><ele>306.0</ele><time>2026-05-02T08:29:38.932Z</time></trkpt><trkpt lat="45.72001929901284" lon="9.167167349693578"><ele>306.0</ele><time>2026-05-02T08:29:39.932Z</time></trkpt><trkpt lat="45.72013836531914" lon="9.167219559943263"><ele>306.0</ele><time>2026-05-02T08:29:40.932Z</time></trkpt><trkpt lat="45.720257578956215" lon="9.167274755119504"><ele>306.0</ele><time>2026-05-02T08:29:41.932Z</time></trkpt><trkpt lat="45.7203805848406" lon="9.167325246144099"><ele>306.0</ele><time>2026-05-02T08:29:42.932Z</time></trkpt><trkpt lat="45.72050395187943" lon="9.167372392499562"><ele>306.0</ele><time>2026-05-02T08:29:43.932Z</time></trkpt><trkpt lat="45.72062740396979" lon="9.16741161635839"><ele>306.0</ele><time>2026-05-02T08:29:44.932Z</time></trkpt><trkpt lat="45.72074562240794" lon="9.167478408771077"><ele>306.0</ele><time>2026-05-02T08:29:45.932Z</time></trkpt><trkpt lat="45.72085816474034" lon="9.16752484784415"><ele>306.0</ele><time>2026-05-02T08:29:46.932Z</time></trkpt><trkpt lat="45.720960397148616" lon="9.167572730516245"><ele>306.0</ele><time>2026-05-02T08:29:47.932Z</time></trkpt><trkpt lat="45.721061617358984" lon="9.16761400496254"><ele>306.0</ele><time>2026-05-02T08:29:48.932Z</time></trkpt><trkpt lat="45.72116036589288" lon="9.167645479927002"><ele>306.0</ele><time>2026-05-02T08:29:49.932Z</time></trkpt><trkpt lat="45.721266363387" lon="9.167667693620116"><ele>307.0</ele><time>2026-05-02T08:29:50.932Z</time></trkpt><trkpt lat="45.72137813051786" lon="9.167664308806113"><ele>308.0</ele><time>2026-05-02T08:29:51.932Z</time></trkpt><trkpt lat="45.721487053042395" lon="9.167633821392046"><ele>309.0</ele><time>2026-05-02T08:29:52.932Z</time></trkpt><trkpt lat="45.72159280318268" lon="9.167567133477654"><ele>310.0</ele><time>2026-05-02T08:29:53.932Z</time></trkpt><trkpt lat="45.721690562931435" lon="9.16748389511918"><ele>310.0</ele><time>2026-05-02T08:29:54.932Z</time></trkpt><trkpt lat="45.72177934100913" lon="9.167416300881923"><ele>310.0</ele><time>2026-05-02T08:29:55.932Z</time></trkpt><trkpt lat="45.721858717722824" lon="9.167364433799747"><ele>310.0</ele><time>2026-05-02T08:29:56.932Z</time></trkpt><trkpt lat="45.721926281840915" lon="9.167315417059577"><ele>310.0</ele><time>2026-05-02T08:29:57.932Z</time></trkpt><trkpt lat="45.72198737235449" lon="9.167274684504633"><ele>310.0</ele><time>2026-05-02T08:29:58.932Z</time></trkpt><trkpt lat="45.72206307729778" lon="9.167227096618534"><ele>310.0</ele><time>2026-05-02T08:30:00.932Z</time></trkpt><trkpt lat="45.72214486339107" lon="9.16716899202486"><ele>310.3333333333333</ele><time>2026-05-02T08:30:18.932Z</time></trkpt><trkpt lat="45.72221020678668" lon="9.167137586069273"><ele>310.66666666666663</ele><time>2026-05-02T08:30:20.932Z</time></trkpt><trkpt lat="45.722290803307956" lon="9.167082200881962"><ele>311.0</ele><time>2026-05-02T08:30:22.932Z</time></trkpt><trkpt lat="45.722384102326075" lon="9.167002737794185"><ele>311.3333333333333</ele><time>2026-05-02T08:30:24.932Z</time></trkpt><trkpt lat="45.722438139304934" lon="9.166955529028717"><ele>311.6666666666667</ele><time>2026-05-02T08:30:25.932Z</time></trkpt><trkpt lat="45.72254038669201" lon="9.16687504605651"><ele>312.0</ele><time>2026-05-02T08:30:27.932Z</time></trkpt><trkpt lat="45.722636579499" lon="9.166812668362816"><ele>312.0</ele><time>2026-05-02T08:30:29.932Z</time></trkpt><trkpt lat="45.72272685440586" lon="9.166820180027162"><ele>312.0</ele><time>2026-05-02T08:30:31.932Z</time></trkpt><trkpt lat="45.722811220770446" lon="9.166806995946626"><ele>312.0</ele><time>2026-05-02T08:30:33.932Z</time></trkpt><trkpt lat="45.72291230094488" lon="9.166745081005208"><ele>312.0</ele><time>2026-05-02T08:30:35.932Z</time></trkpt><trkpt lat="45.72298267783218" lon="9.166690742254033"><ele>312.0</ele><time>2026-05-02T08:30:37.932Z</time></trkpt><trkpt lat="45.72301570037989" lon="9.166597522141663"><ele>312.0</ele><time>2026-05-02T08:30:40.932Z</time></trkpt><trkpt lat="45.72305156656961" lon="9.166470191471042"><ele>311.2</ele><time>2026-05-02T08:30:43.932Z</time></trkpt><trkpt lat="45.72311537449174" lon="9.166412967040554"><ele>310.4</ele><time>2026-05-02T08:30:45.932Z</time></trkpt><trkpt lat="45.723194200275465" lon="9.166364170444108"><ele>309.6</ele><time>2026-05-02T08:30:52.932Z</time></trkpt><trkpt lat="45.72329786817187" lon="9.166262304804716"><ele>308.8</ele><time>2026-05-02T08:30:54.932Z</time></trkpt><trkpt lat="45.72336403550229" lon="9.166197287806172"><ele>308.0</ele><time>2026-05-02T08:30:55.932Z</time></trkpt><trkpt lat="45.72343406502858" lon="9.166128331577344"><ele>308.0</ele><time>2026-05-02T08:30:56.932Z</time></trkpt><trkpt lat="45.723515849666875" lon="9.16605547187404"><ele>308.0</ele><time>2026-05-02T08:30:57.932Z</time></trkpt><trkpt lat="45.72359783118682" lon="9.165971389877978"><ele>308.0</ele><time>2026-05-02T08:30:58.932Z</time></trkpt><trkpt lat="45.72367750651999" lon="9.165878138805343"><ele>308.0</ele><time>2026-05-02T08:30:59.932Z</time></trkpt><trkpt lat="45.72376582551782" lon="9.165782561070168"><ele>308.0</ele><time>2026-05-02T08:31:00.932Z</time></trkpt><trkpt lat="45.72385546983469" lon="9.16568672317564"><ele>308.25</ele><time>2026-05-02T08:31:01.932Z</time></trkpt><trkpt lat="45.72396068085456" lon="9.165612409601623"><ele>308.5</ele><time>2026-05-02T08:31:02.932Z</time></trkpt><trkpt lat="45.724058089789416" lon="9.165510466334684"><ele>308.75</ele><time>2026-05-02T08:31:03.932Z</time></trkpt><trkpt lat="45.724163688532826" lon="9.165400979285058"><ele>309.0</ele><time>2026-05-02T08:31:04.932Z</time></trkpt><trkpt lat="45.7242725313917" lon="9.165288903672828"><ele>309.0</ele><time>2026-05-02T08:31:05.932Z</time></trkpt><trkpt lat="45.72438173742765" lon="9.16517163875084"><ele>309.0</ele><time>2026-05-02T08:31:06.932Z</time></trkpt><trkpt lat="45.72449261507748" lon="9.165047925477193"><ele>309.0</ele><time>2026-05-02T08:31:07.932Z</time></trkpt><trkpt lat="45.724606770536084" lon="9.1649292380216"><ele>309.0</ele><time>2026-05-02T08:31:08.932Z</time></trkpt><trkpt lat="45.72473520242174" lon="9.164834569351457"><ele>309.5</ele><time>2026-05-02T08:31:09.932Z</time></trkpt><trkpt lat="45.724853245886415" lon="9.164716063596533"><ele>310.0</ele><time>2026-05-02T08:31:10.932Z</time></trkpt><trkpt lat="45.72497130784998" lon="9.164598776638325"><ele>310.5</ele><time>2026-05-02T08:31:11.932Z</time></trkpt><trkpt lat="45.72508605005546" lon="9.164483900443415"><ele>311.0</ele><time>2026-05-02T08:31:12.929Z</time></trkpt><trkpt lat="45.725191769617936" lon="9.164370888906095"><ele>311.5</ele><time>2026-05-02T08:31:13.929Z</time></trkpt><trkpt lat="45.725294087757014" lon="9.164263031700518"><ele>312.0</ele><time>2026-05-02T08:31:14.929Z</time></trkpt><trkpt lat="45.72539530391944" lon="9.16415904495017"><ele>312.5</ele><time>2026-05-02T08:31:15.929Z</time></trkpt><trkpt lat="45.7254938341914" lon="9.16405706131584"><ele>313.0</ele><time>2026-05-02T08:31:16.93Z</time></trkpt><trkpt lat="45.725593696971046" lon="9.163951706643537"><ele>313.0</ele><time>2026-05-02T08:31:17.93Z</time></trkpt><trkpt lat="45.72568790945784" lon="9.163854597187468"><ele>313.0</ele><time>2026-05-02T08:31:18.929Z</time></trkpt><trkpt lat="45.72577675447962" lon="9.163759438575374"><ele>313.0</ele><time>2026-05-02T08:31:19.929Z</time></trkpt><trkpt lat="45.72587577026331" lon="9.163686483029576"><ele>313.0</ele><time>2026-05-02T08:31:20.929Z</time></trkpt><trkpt lat="45.72596658458375" lon="9.16359561108801"><ele>313.0</ele><time>2026-05-02T08:31:21.929Z</time></trkpt><trkpt lat="45.726059644167606" lon="9.163503407153444"><ele>313.2</ele><time>2026-05-02T08:31:22.929Z</time></trkpt><trkpt lat="45.72615399017041" lon="9.163408896460824"><ele>313.4</ele><time>2026-05-02T08:31:23.929Z</time></trkpt><trkpt lat="45.72624701856795" lon="9.163315817116361"><ele>313.59999999999997</ele><time>2026-05-02T08:31:24.928Z</time></trkpt><trkpt lat="45.726337113791786" lon="9.163225638160858"><ele>313.8</ele><time>2026-05-02T08:31:25.929Z</time></trkpt><trkpt lat="45.72642514043609" lon="9.163137529775746"><ele>314.0</ele><time>2026-05-02T08:31:26.929Z</time></trkpt><trkpt lat="45.72651510148672" lon="9.163047486095108"><ele>313.75</ele><time>2026-05-02T08:31:27.929Z</time></trkpt><trkpt lat="45.72660706994649" lon="9.16295702782352"><ele>313.5</ele><time>2026-05-02T08:31:28.929Z</time></trkpt><trkpt lat="45.72670056400147" lon="9.162862306718548"><ele>313.25</ele><time>2026-05-02T08:31:29.929Z</time></trkpt><trkpt lat="45.72679850983518" lon="9.162764602550986"><ele>313.0</ele><time>2026-05-02T08:31:30.929Z</time></trkpt><trkpt lat="45.72690047478606" lon="9.162661367854934"><ele>313.0</ele><time>2026-05-02T08:31:31.929Z</time></trkpt><trkpt lat="45.7269997973273" lon="9.162561516020542"><ele>313.0</ele><time>2026-05-02T08:31:32.929Z</time></trkpt><trkpt lat="45.72707992024606" lon="9.162435717101731"><ele>313.0</ele><time>2026-05-02T08:31:33.929Z</time></trkpt><trkpt lat="45.7271704819063" lon="9.16234760008119"><ele>313.0</ele><time>2026-05-02T08:31:34.929Z</time></trkpt><trkpt lat="45.72725442663624" lon="9.162258467415533"><ele>313.5</ele><time>2026-05-02T08:31:35.929Z</time></trkpt><trkpt lat="45.72733435187689" lon="9.162173576230588"><ele>314.0</ele><time>2026-05-02T08:31:36.929Z</time></trkpt><trkpt lat="45.727426761129806" lon="9.162131350821342"><ele>314.5</ele><time>2026-05-02T08:31:37.929Z</time></trkpt><trkpt lat="45.727495138627276" lon="9.162062459694136"><ele>315.0</ele><time>2026-05-02T08:31:38.929Z</time></trkpt><trkpt lat="45.727551798797684" lon="9.162006193062737"><ele>315.5</ele><time>2026-05-02T08:31:39.929Z</time></trkpt><trkpt lat="45.72761337714744" lon="9.161936201561513"><ele>316.0</ele><time>2026-05-02T08:31:41.929Z</time></trkpt><trkpt lat="45.72770251277453" lon="9.161971480182245"><ele>316.2</ele><time>2026-05-02T08:31:45.929Z</time></trkpt><trkpt lat="45.727788086652836" lon="9.162099954478062"><ele>316.40000000000003</ele><time>2026-05-02T08:31:47.929Z</time></trkpt><trkpt lat="45.72783895972168" lon="9.162193715645737"><ele>316.6</ele><time>2026-05-02T08:31:48.929Z</time></trkpt><trkpt lat="45.727894756590445" lon="9.162302564522694"><ele>316.8</ele><time>2026-05-02T08:31:49.929Z</time></trkpt><trkpt lat="45.727952720508256" lon="9.16241589471488"><ele>317.0</ele><time>2026-05-02T08:31:50.929Z</time></trkpt><trkpt lat="45.728010853431286" lon="9.162527245381101"><ele>316.2</ele><time>2026-05-02T08:31:51.929Z</time></trkpt><trkpt lat="45.728070659862496" lon="9.162635275181486"><ele>315.4</ele><time>2026-05-02T08:31:52.929Z</time></trkpt><trkpt lat="45.728130670141894" lon="9.162749074117047"><ele>314.6</ele><time>2026-05-02T08:31:53.929Z</time></trkpt><trkpt lat="45.72819527187243" lon="9.162871508598005"><ele>313.8</ele><time>2026-05-02T08:31:54.929Z</time></trkpt><trkpt lat="45.72826194950462" lon="9.163001182981755"><ele>313.0</ele><time>2026-05-02T08:31:55.929Z</time></trkpt><trkpt lat="45.728333212533265" lon="9.163133778861466"><ele>313.0</ele><time>2026-05-02T08:31:56.929Z</time></trkpt><trkpt lat="45.72840937500238" lon="9.163274006261592"><ele>313.0</ele><time>2026-05-02T08:31:57.929Z</time></trkpt><trkpt lat="45.72848669241577" lon="9.163419421475757"><ele>313.0</ele><time>2026-05-02T08:31:58.929Z</time></trkpt><trkpt lat="45.72856739884775" lon="9.163566142761336"><ele>313.0</ele><time>2026-05-02T08:31:59.929Z</time></trkpt><trkpt lat="45.72864901773275" lon="9.163714537553982"><ele>313.25</ele><time>2026-05-02T08:32:00.929Z</time></trkpt><trkpt lat="45.728732751864776" lon="9.163857817845253"><ele>313.5</ele><time>2026-05-02T08:32:01.929Z</time></trkpt><trkpt lat="45.72881710536601" lon="9.164001966294327"><ele>313.75</ele><time>2026-05-02T08:32:02.929Z</time></trkpt><trkpt lat="45.72890299322457" lon="9.164141138835706"><ele>314.0</ele><time>2026-05-02T08:32:03.929Z</time></trkpt><trkpt lat="45.728988914289076" lon="9.164277079653756"><ele>315.0</ele><time>2026-05-02T08:32:04.929Z</time></trkpt><trkpt lat="45.729076080994005" lon="9.164411724105033"><ele>316.0</ele><time>2026-05-02T08:32:05.929Z</time></trkpt><trkpt lat="45.72916655322525" lon="9.164540879140393"><ele>317.0</ele><time>2026-05-02T08:32:06.929Z</time></trkpt><trkpt lat="45.729263139914025" lon="9.164664624412033"><ele>318.0</ele><time>2026-05-02T08:32:07.929Z</time></trkpt><trkpt lat="45.72936009517477" lon="9.164786647646084"><ele>319.5</ele><time>2026-05-02T08:32:08.929Z</time></trkpt><trkpt lat="45.729456562722596" lon="9.16490889361347"><ele>321.0</ele><time>2026-05-02T08:32:09.929Z</time></trkpt><trkpt lat="45.72955163761405" lon="9.165030228664888"><ele>322.5</ele><time>2026-05-02T08:32:10.929Z</time></trkpt><trkpt lat="45.729647624863674" lon="9.165142714103624"><ele>324.0</ele><time>2026-05-02T08:32:11.929Z</time></trkpt><trkpt lat="45.72973613123276" lon="9.165238766136502"><ele>324.0</ele><time>2026-05-02T08:32:12.929Z</time></trkpt><trkpt lat="45.72982546006595" lon="9.165325839291585"><ele>324.0</ele><time>2026-05-02T08:32:13.929Z</time></trkpt><trkpt lat="45.72990757844209" lon="9.165399127279382"><ele>324.0</ele><time>2026-05-02T08:32:14.929Z</time></trkpt><trkpt lat="45.72999853408275" lon="9.165468454550512"><ele>324.0</ele><time>2026-05-02T08:32:15.929Z</time></trkpt><trkpt lat="45.73009957323271" lon="9.16555469929061"><ele>324.0</ele><time>2026-05-02T08:32:16.929Z</time></trkpt><trkpt lat="45.730203484167895" lon="9.16564016029044"><ele>325.25</ele><time>2026-05-02T08:32:17.929Z</time></trkpt><trkpt lat="45.73031710746302" lon="9.165711864117016"><ele>326.5</ele><time>2026-05-02T08:32:18.929Z</time></trkpt><trkpt lat="45.73044062738324" lon="9.165780775109704"><ele>327.75</ele><time>2026-05-02T08:32:19.929Z</time></trkpt><trkpt lat="45.73056491780457" lon="9.165841875163304"><ele>329.0</ele><time>2026-05-02T08:32:20.929Z</time></trkpt><trkpt lat="45.730692629079535" lon="9.16589258856884"><ele>329.0</ele><time>2026-05-02T08:32:21.929Z</time></trkpt><trkpt lat="45.730826310058696" lon="9.165928307455292"><ele>329.0</ele><time>2026-05-02T08:32:22.929Z</time></trkpt><trkpt lat="45.73096196263899" lon="9.165956844513522"><ele>329.0</ele><time>2026-05-02T08:32:23.929Z</time></trkpt><trkpt lat="45.73110161151592" lon="9.165973801555895"><ele>329.0</ele><time>2026-05-02T08:32:24.929Z</time></trkpt><trkpt lat="45.731245346732415" lon="9.165982699597707"><ele>329.75</ele><time>2026-05-02T08:32:25.929Z</time></trkpt><trkpt lat="45.73138974003056" lon="9.165987355902935"><ele>330.5</ele><time>2026-05-02T08:32:26.929Z</time></trkpt><trkpt lat="45.73153437742725" lon="9.165989946877701"><ele>331.25</ele><time>2026-05-02T08:32:27.929Z</time></trkpt><trkpt lat="45.73167607558878" lon="9.166001307700894"><ele>332.0</ele><time>2026-05-02T08:32:28.929Z</time></trkpt><trkpt lat="45.73182362839753" lon="9.166003824587413"><ele>333.0</ele><time>2026-05-02T08:32:29.929Z</time></trkpt><trkpt lat="45.73197606636224" lon="9.166004472106337"><ele>334.0</ele><time>2026-05-02T08:32:30.929Z</time></trkpt><trkpt lat="45.73213239868957" lon="9.166004949465078"><ele>335.0</ele><time>2026-05-02T08:32:31.929Z</time></trkpt><trkpt lat="45.73228652620732" lon="9.166008665443883"><ele>335.0</ele><time>2026-05-02T08:32:32.929Z</time></trkpt><trkpt lat="45.732445975828696" lon="9.166012244958612"><ele>335.0</ele><time>2026-05-02T08:32:33.929Z</time></trkpt><trkpt lat="45.732603960886365" lon="9.166015536554683"><ele>335.0</ele><time>2026-05-02T08:32:34.929Z</time></trkpt><trkpt lat="45.732765614108715" lon="9.166018685053146"><ele>335.6666666666667</ele><time>2026-05-02T08:32:35.929Z</time></trkpt><trkpt lat="45.73292668202189" lon="9.166026706816748"><ele>336.3333333333333</ele><time>2026-05-02T08:32:36.929Z</time></trkpt><trkpt lat="45.7330893252241" lon="9.166031374725033"><ele>337.0</ele><time>2026-05-02T08:32:37.929Z</time></trkpt><trkpt lat="45.73325303832755" lon="9.166030865359053"><ele>337.0</ele><time>2026-05-02T08:32:38.929Z</time></trkpt><trkpt lat="45.73341199199226" lon="9.166032288089847"><ele>337.0</ele><time>2026-05-02T08:32:39.929Z</time></trkpt><trkpt lat="45.733568763970574" lon="9.166031861897345"><ele>337.0</ele><time>2026-05-02T08:32:40.929Z</time></trkpt><trkpt lat="45.73371959845674" lon="9.16603298068356"><ele>337.0</ele><time>2026-05-02T08:32:41.929Z</time></trkpt><trkpt lat="45.73386726295123" lon="9.166035835676725"><ele>337.0</ele><time>2026-05-02T08:32:42.929Z</time></trkpt><trkpt lat="45.73400918287502" lon="9.166039517150795"><ele>337.0</ele><time>2026-05-02T08:32:43.929Z</time></trkpt><trkpt lat="45.73414304809092" lon="9.166043956729668"><ele>337.0</ele><time>2026-05-02T08:32:44.929Z</time></trkpt><trkpt lat="45.73425903229846" lon="9.166050009154194"><ele>337.0</ele><time>2026-05-02T08:32:45.929Z</time></trkpt><trkpt lat="45.73435794620602" lon="9.166053185066735"><ele>337.0</ele><time>2026-05-02T08:32:46.929Z</time></trkpt><trkpt lat="45.73444345408144" lon="9.166052408856142"><ele>337.0</ele><time>2026-05-02T08:32:47.929Z</time></trkpt><trkpt lat="45.73451323977737" lon="9.166051209183097"><ele>337.0</ele><time>2026-05-02T08:32:48.929Z</time></trkpt><trkpt lat="45.734624379933216" lon="9.166050726104194"><ele>337.0</ele><time>2026-05-02T08:32:50.929Z</time></trkpt><trkpt lat="45.73471836981659" lon="9.166074718600056"><ele>336.0</ele><time>2026-05-02T08:32:52.929Z</time></trkpt><trkpt lat="45.734861044814835" lon="9.166099037664669"><ele>335.0</ele><time>2026-05-02T08:32:54.929Z</time></trkpt><trkpt lat="45.73495016217432" lon="9.166074665641009"><ele>334.0</ele><time>2026-05-02T08:32:55.929Z</time></trkpt><trkpt lat="45.735047707692104" lon="9.166067791927343"><ele>333.0</ele><time>2026-05-02T08:32:56.929Z</time></trkpt><trkpt lat="45.735154027260634" lon="9.166059012421991"><ele>332.0</ele><time>2026-05-02T08:32:57.929Z</time></trkpt><trkpt lat="45.73527012850595" lon="9.166083365489323"><ele>331.0</ele><time>2026-05-02T08:32:58.929Z</time></trkpt><trkpt lat="45.7353835921995" lon="9.166112590474114"><ele>330.0</ele><time>2026-05-02T08:32:59.929Z</time></trkpt><trkpt lat="45.73549773028448" lon="9.16616222319505"><ele>329.0</ele><time>2026-05-02T08:33:00.929Z</time></trkpt><trkpt lat="45.7356056973325" lon="9.166201236944001"><ele>328.0</ele><time>2026-05-02T08:33:01.929Z</time></trkpt><trkpt lat="45.735713502000515" lon="9.166245292581863"><ele>328.0</ele><time>2026-05-02T08:33:02.929Z</time></trkpt><trkpt lat="45.7358057465096" lon="9.16630723563218"><ele>328.0</ele><time>2026-05-02T08:33:03.929Z</time></trkpt><trkpt lat="45.7358909825505" lon="9.16638885660299"><ele>328.0</ele><time>2026-05-02T08:33:04.929Z</time></trkpt><trkpt lat="45.73596253505295" lon="9.166495074431278"><ele>328.0</ele><time>2026-05-02T08:33:05.929Z</time></trkpt><trkpt lat="45.736026593945866" lon="9.166609673626807"><ele>328.0</ele><time>2026-05-02T08:33:06.929Z</time></trkpt><trkpt lat="45.736076335740925" lon="9.166760376579965"><ele>331.5</ele><time>2026-05-02T08:33:07.929Z</time></trkpt><trkpt lat="45.736109808965224" lon="9.166921284754546"><ele>335.0</ele><time>2026-05-02T08:33:08.929Z</time></trkpt><trkpt lat="45.73612710611676" lon="9.1670958806761"><ele>338.5</ele><time>2026-05-02T08:33:09.929Z</time></trkpt><trkpt lat="45.73613177903325" lon="9.16728194534691"><ele>342.0</ele><time>2026-05-02T08:33:10.929Z</time></trkpt><trkpt lat="45.7361377961894" lon="9.16746439135474"><ele>342.0</ele><time>2026-05-02T08:33:11.929Z</time></trkpt><trkpt lat="45.73614480556298" lon="9.167663721326996"><ele>342.0</ele><time>2026-05-02T08:33:12.929Z</time></trkpt><trkpt lat="45.73614882112056" lon="9.167873485726112"><ele>342.0</ele><time>2026-05-02T08:33:13.929Z</time></trkpt><trkpt lat="45.736152544968576" lon="9.16808551543996"><ele>342.0</ele><time>2026-05-02T08:33:14.929Z</time></trkpt><trkpt lat="45.736153490051265" lon="9.168296041895692"><ele>342.0</ele><time>2026-05-02T08:33:15.929Z</time></trkpt><trkpt lat="45.73615225153341" lon="9.168506232080881"><ele>342.0</ele><time>2026-05-02T08:33:16.929Z</time></trkpt><trkpt lat="45.73615295756718" lon="9.168721909884981"><ele>342.0</ele><time>2026-05-02T08:33:17.926Z</time></trkpt><trkpt lat="45.736152499943024" lon="9.16894250343747"><ele>342.0</ele><time>2026-05-02T08:33:18.926Z</time></trkpt><trkpt lat="45.73615144792843" lon="9.169165100260761"><ele>342.0</ele><time>2026-05-02T08:33:19.926Z</time></trkpt><trkpt lat="45.73614995613631" lon="9.16938751929438"><ele>342.0</ele><time>2026-05-02T08:33:20.927Z</time></trkpt><trkpt lat="45.736148105213715" lon="9.169608461233539"><ele>342.0</ele><time>2026-05-02T08:33:21.927Z</time></trkpt><trkpt lat="45.736129679577814" lon="9.169828149502203"><ele>342.0</ele><time>2026-05-02T08:33:22.927Z</time></trkpt><trkpt lat="45.7361297800895" lon="9.170041484534796"><ele>342.0</ele><time>2026-05-02T08:33:23.927Z</time></trkpt><trkpt lat="45.73612996499645" lon="9.170258358261963"><ele>342.75</ele><time>2026-05-02T08:33:24.926Z</time></trkpt><trkpt lat="45.736130137553715" lon="9.17046074749943"><ele>343.5</ele><time>2026-05-02T08:33:25.926Z</time></trkpt><trkpt lat="45.73613030835692" lon="9.170661078960752"><ele>344.25</ele><time>2026-05-02T08:33:26.926Z</time></trkpt><trkpt lat="45.73612216465884" lon="9.170865186424075"><ele>345.0</ele><time>2026-05-02T08:33:27.926Z</time></trkpt><trkpt lat="45.73612178770581" lon="9.171063524717347"><ele>347.25</ele><time>2026-05-02T08:33:28.926Z</time></trkpt><trkpt lat="45.73612019572533" lon="9.171263147238811"><ele>349.5</ele><time>2026-05-02T08:33:29.926Z</time></trkpt><trkpt lat="45.73612087626525" lon="9.171467883884603"><ele>351.75</ele><time>2026-05-02T08:33:30.926Z</time></trkpt><trkpt lat="45.73611902208435" lon="9.171675963275478"><ele>354.0</ele><time>2026-05-02T08:33:31.926Z</time></trkpt><trkpt lat="45.7361130384129" lon="9.171881555067241"><ele>354.5</ele><time>2026-05-02T08:33:32.926Z</time></trkpt><trkpt lat="45.73611128529587" lon="9.172087494277232"><ele>355.0</ele><time>2026-05-02T08:33:33.926Z</time></trkpt><trkpt lat="45.736107856942944" lon="9.172288708713024"><ele>355.5</ele><time>2026-05-02T08:33:34.926Z</time></trkpt><trkpt lat="45.736104681954146" lon="9.172478835990876"><ele>356.0</ele><time>2026-05-02T08:33:35.926Z</time></trkpt><trkpt lat="45.73610302316828" lon="9.172662718453736"><ele>356.25</ele><time>2026-05-02T08:33:36.926Z</time></trkpt><trkpt lat="45.736100711797064" lon="9.172844293563454"><ele>356.5</ele><time>2026-05-02T08:33:37.926Z</time></trkpt><trkpt lat="45.73610037410978" lon="9.173019963103348"><ele>356.75</ele><time>2026-05-02T08:33:38.926Z</time></trkpt><trkpt lat="45.7361014428989" lon="9.173190013811066"><ele>357.0</ele><time>2026-05-02T08:33:39.926Z</time></trkpt><trkpt lat="45.73610426524442" lon="9.173354885408846"><ele>357.0</ele><time>2026-05-02T08:33:40.926Z</time></trkpt><trkpt lat="45.73611057002154" lon="9.17350527751543"><ele>357.0</ele><time>2026-05-02T08:33:41.926Z</time></trkpt><trkpt lat="45.736115251771935" lon="9.173647838490185"><ele>357.0</ele><time>2026-05-02T08:33:42.926Z</time></trkpt><trkpt lat="45.736115804271" lon="9.173778126161109"><ele>357.0</ele><time>2026-05-02T08:33:43.926Z</time></trkpt><trkpt lat="45.73610624537553" lon="9.173895649252826"><ele>357.0</ele><time>2026-05-02T08:33:44.926Z</time></trkpt><trkpt lat="45.736095516040955" lon="9.174004787794436"><ele>356.40000000000003</ele><time>2026-05-02T08:33:45.926Z</time></trkpt><trkpt lat="45.736081001856" lon="9.174111134959698"><ele>355.8</ele><time>2026-05-02T08:33:46.926Z</time></trkpt><trkpt lat="45.7360814634823" lon="9.174233871710072"><ele>355.2</ele><time>2026-05-02T08:33:47.926Z</time></trkpt><trkpt lat="45.73609898976498" lon="9.174353940495909"><ele>354.6</ele><time>2026-05-02T08:33:48.926Z</time></trkpt><trkpt lat="45.73612275825431" lon="9.174502353639834"><ele>354.0</ele><time>2026-05-02T08:33:49.926Z</time></trkpt><trkpt lat="45.73612464014183" lon="9.17466863213902"><ele>352.75</ele><time>2026-05-02T08:33:50.926Z</time></trkpt><trkpt lat="45.73612312635175" lon="9.174856328622925"><ele>351.5</ele><time>2026-05-02T08:33:51.926Z</time></trkpt><trkpt lat="45.73613166779998" lon="9.175049295343614"><ele>350.25</ele><time>2026-05-02T08:33:52.926Z</time></trkpt><trkpt lat="45.73613301264863" lon="9.175253428846679"><ele>349.0</ele><time>2026-05-02T08:33:53.926Z</time></trkpt><trkpt lat="45.73610562345652" lon="9.175454228746467"><ele>349.0</ele><time>2026-05-02T08:33:54.926Z</time></trkpt><trkpt lat="45.73610657215434" lon="9.175649827870016"><ele>349.0</ele><time>2026-05-02T08:33:55.926Z</time></trkpt><trkpt lat="45.73610704645031" lon="9.175835427997997"><ele>349.0</ele><time>2026-05-02T08:33:56.926Z</time></trkpt><trkpt lat="45.73611384810737" lon="9.176019070047227"><ele>349.0</ele><time>2026-05-02T08:33:57.926Z</time></trkpt><trkpt lat="45.73611973314207" lon="9.176182175804021"><ele>348.75</ele><time>2026-05-02T08:33:58.926Z</time></trkpt><trkpt lat="45.7361275212951" lon="9.176354463611304"><ele>348.5</ele><time>2026-05-02T08:33:59.926Z</time></trkpt><trkpt lat="45.736145352886695" lon="9.176529499786412"><ele>348.25</ele><time>2026-05-02T08:34:00.926Z</time></trkpt><trkpt lat="45.73615290522447" lon="9.176707327564705"><ele>348.0</ele><time>2026-05-02T08:34:01.926Z</time></trkpt><trkpt lat="45.7361647067463" lon="9.176883479911371"><ele>348.0</ele><time>2026-05-02T08:34:02.926Z</time></trkpt><trkpt lat="45.73618707749687" lon="9.177056478432975"><ele>348.0</ele><time>2026-05-02T08:34:03.926Z</time></trkpt><trkpt lat="45.73621255525487" lon="9.177225693547424"><ele>348.0</ele><time>2026-05-02T08:34:04.926Z</time></trkpt><trkpt lat="45.736248792966535" lon="9.17740218473954"><ele>348.0</ele><time>2026-05-02T08:34:05.926Z</time></trkpt><trkpt lat="45.736292533002214" lon="9.17758700640292"><ele>348.0</ele><time>2026-05-02T08:34:06.926Z</time></trkpt><trkpt lat="45.736338206412285" lon="9.177776666911583"><ele>348.0</ele><time>2026-05-02T08:34:07.926Z</time></trkpt><trkpt lat="45.73638822402895" lon="9.177970452989527"><ele>348.0</ele><time>2026-05-02T08:34:08.926Z</time></trkpt><trkpt lat="45.73643372739364" lon="9.178155701483034"><ele>348.0</ele><time>2026-05-02T08:34:09.926Z</time></trkpt><trkpt lat="45.736482123411434" lon="9.178347664334606"><ele>348.0</ele><time>2026-05-02T08:34:10.926Z</time></trkpt><trkpt lat="45.73653482690619" lon="9.178539287228835"><ele>348.0</ele><time>2026-05-02T08:34:11.926Z</time></trkpt><trkpt lat="45.7365835762964" lon="9.178733199200522"><ele>348.0</ele><time>2026-05-02T08:34:12.926Z</time></trkpt><trkpt lat="45.73663657285651" lon="9.17892600304353"><ele>348.0</ele><time>2026-05-02T08:34:13.926Z</time></trkpt><trkpt lat="45.73668832469118" lon="9.179119329552508"><ele>348.75</ele><time>2026-05-02T08:34:14.926Z</time></trkpt><trkpt lat="45.736746413019155" lon="9.179304602331436"><ele>349.5</ele><time>2026-05-02T08:34:15.926Z</time></trkpt><trkpt lat="45.73679178586561" lon="9.179496901736938"><ele>350.25</ele><time>2026-05-02T08:34:16.926Z</time></trkpt><trkpt lat="45.73683848702263" lon="9.179683699703885"><ele>351.0</ele><time>2026-05-02T08:34:17.926Z</time></trkpt><trkpt lat="45.736899078985296" lon="9.179863062959571"><ele>351.75</ele><time>2026-05-02T08:34:18.926Z</time></trkpt><trkpt lat="45.7369418694619" lon="9.180063689957713"><ele>352.5</ele><time>2026-05-02T08:34:19.926Z</time></trkpt><trkpt lat="45.73699928538376" lon="9.180262088891718"><ele>353.25</ele><time>2026-05-02T08:34:20.926Z</time></trkpt><trkpt lat="45.7370424608016" lon="9.18045036418809"><ele>354.0</ele><time>2026-05-02T08:34:21.926Z</time></trkpt><trkpt lat="45.737088394653135" lon="9.180615542348834"><ele>354.25</ele><time>2026-05-02T08:34:22.926Z</time></trkpt><trkpt lat="45.73713288478328" lon="9.180774711674124"><ele>354.5</ele><time>2026-05-02T08:34:23.926Z</time></trkpt><trkpt lat="45.73717541336066" lon="9.180921963448634"><ele>354.75</ele><time>2026-05-02T08:34:24.926Z</time></trkpt><trkpt lat="45.73719832275111" lon="9.181082448690278"><ele>355.0</ele><time>2026-05-02T08:34:25.926Z</time></trkpt><trkpt lat="45.737235916338804" lon="9.181231873274669"><ele>355.0</ele><time>2026-05-02T08:34:26.926Z</time></trkpt><trkpt lat="45.73725560525417" lon="9.181376311345549"><ele>355.0</ele><time>2026-05-02T08:34:27.926Z</time></trkpt><trkpt lat="45.73728965707885" lon="9.181517438237794"><ele>355.0</ele><time>2026-05-02T08:34:28.926Z</time></trkpt><trkpt lat="45.73732106609252" lon="9.181655634740103"><ele>355.0</ele><time>2026-05-02T08:34:29.926Z</time></trkpt><trkpt lat="45.73735710694209" lon="9.181800985836395"><ele>355.0</ele><time>2026-05-02T08:34:30.926Z</time></trkpt><trkpt lat="45.737396473654584" lon="9.181952495848423"><ele>354.2</ele><time>2026-05-02T08:34:31.925Z</time></trkpt><trkpt lat="45.737430409956964" lon="9.18210831482422"><ele>353.4</ele><time>2026-05-02T08:34:32.925Z</time></trkpt><trkpt lat="45.73746422632243" lon="9.18223955619451"><ele>352.6</ele><time>2026-05-02T08:34:33.925Z</time></trkpt><trkpt lat="45.737491656678166" lon="9.182359446071064"><ele>351.8</ele><time>2026-05-02T08:34:34.925Z</time></trkpt><trkpt lat="45.73752583365536" lon="9.182464979658379"><ele>351.0</ele><time>2026-05-02T08:34:35.925Z</time></trkpt><trkpt lat="45.73756548967595" lon="9.18256349743121"><ele>350.8</ele><time>2026-05-02T08:34:36.925Z</time></trkpt><trkpt lat="45.73761761998333" lon="9.182653779623726"><ele>350.6</ele><time>2026-05-02T08:34:37.925Z</time></trkpt><trkpt lat="45.73769231155671" lon="9.182744389722625"><ele>350.4</ele><time>2026-05-02T08:34:38.925Z</time></trkpt><trkpt lat="45.73778176178118" lon="9.182823790585198"><ele>350.2</ele><time>2026-05-02T08:34:39.925Z</time></trkpt><trkpt lat="45.737916674662955" lon="9.182822308934782"><ele>350.0</ele><time>2026-05-02T08:34:40.925Z</time></trkpt><trkpt lat="45.738062134838884" lon="9.182837670214555"><ele>350.0</ele><time>2026-05-02T08:34:41.925Z</time></trkpt><trkpt lat="45.73820538761063" lon="9.182827203163042"><ele>350.0</ele><time>2026-05-02T08:34:42.925Z</time></trkpt><trkpt lat="45.73835439530792" lon="9.182827047796057"><ele>350.0</ele><time>2026-05-02T08:34:43.925Z</time></trkpt><trkpt lat="45.738506646581826" lon="9.182819974352858"><ele>350.0</ele><time>2026-05-02T08:34:44.925Z</time></trkpt><trkpt lat="45.73867816684103" lon="9.182818748475468"><ele>349.6666666666667</ele><time>2026-05-02T08:34:45.925Z</time></trkpt><trkpt lat="45.73884423381535" lon="9.182820674889113"><ele>349.3333333333333</ele><time>2026-05-02T08:34:46.925Z</time></trkpt><trkpt lat="45.73900736537185" lon="9.18284495204026"><ele>349.0</ele><time>2026-05-02T08:34:47.925Z</time></trkpt><trkpt lat="45.73917529591865" lon="9.182870220089546"><ele>349.0</ele><time>2026-05-02T08:34:48.925Z</time></trkpt><trkpt lat="45.73933472106454" lon="9.182904183713127"><ele>349.0</ele><time>2026-05-02T08:34:49.925Z</time></trkpt><trkpt lat="45.739498487356265" lon="9.1829644351103"><ele>349.0</ele><time>2026-05-02T08:34:50.925Z</time></trkpt><trkpt lat="45.739649403940284" lon="9.183059467364478"><ele>342.3333333333333</ele><time>2026-05-02T08:34:51.925Z</time></trkpt><trkpt lat="45.73978409856644" lon="9.183185695162322"><ele>335.6666666666667</ele><time>2026-05-02T08:34:52.925Z</time></trkpt><trkpt lat="45.73990444506281" lon="9.183345954651925"><ele>329.0</ele><time>2026-05-02T08:34:53.925Z</time></trkpt><trkpt lat="45.740005128403126" lon="9.183522752557021"><ele>329.0</ele><time>2026-05-02T08:34:54.925Z</time></trkpt><trkpt lat="45.74009726600178" lon="9.18368988843813"><ele>329.0</ele><time>2026-05-02T08:34:55.925Z</time></trkpt><trkpt lat="45.74021497940708" lon="9.183847397474516"><ele>329.0</ele><time>2026-05-02T08:34:56.925Z</time></trkpt><trkpt lat="45.74032862677794" lon="9.183980670815002"><ele>333.25</ele><time>2026-05-02T08:34:57.925Z</time></trkpt><trkpt lat="45.74045665740713" lon="9.18409251711143"><ele>337.5</ele><time>2026-05-02T08:34:58.925Z</time></trkpt><trkpt lat="45.74058043669887" lon="9.184168532238969"><ele>341.75</ele><time>2026-05-02T08:34:59.925Z</time></trkpt><trkpt lat="45.74071888149656" lon="9.184208045926887"><ele>346.0</ele><time>2026-05-02T08:35:00.925Z</time></trkpt><trkpt lat="45.74085302371184" lon="9.184247227939736"><ele>346.0</ele><time>2026-05-02T08:35:01.925Z</time></trkpt><trkpt lat="45.74098419705963" lon="9.184262575148407"><ele>346.0</ele><time>2026-05-02T08:35:02.925Z</time></trkpt><trkpt lat="45.74111370314077" lon="9.184281748087672"><ele>346.0</ele><time>2026-05-02T08:35:03.925Z</time></trkpt><trkpt lat="45.74124020591737" lon="9.184325960530835"><ele>346.0</ele><time>2026-05-02T08:35:04.925Z</time></trkpt><trkpt lat="45.74135855979092" lon="9.184395095958541"><ele>347.75</ele><time>2026-05-02T08:35:05.925Z</time></trkpt><trkpt lat="45.74147399328864" lon="9.184494874799121"><ele>349.5</ele><time>2026-05-02T08:35:06.925Z</time></trkpt><trkpt lat="45.74157922787122" lon="9.184594652137578"><ele>351.25</ele><time>2026-05-02T08:35:07.925Z</time></trkpt><trkpt lat="45.74168089698627" lon="9.184708400985143"><ele>353.0</ele><time>2026-05-02T08:35:08.925Z</time></trkpt><trkpt lat="45.74178330086311" lon="9.184816055669094"><ele>353.4</ele><time>2026-05-02T08:35:09.925Z</time></trkpt><trkpt lat="45.741884842684534" lon="9.184894576674992"><ele>353.79999999999995</ele><time>2026-05-02T08:35:10.925Z</time></trkpt><trkpt lat="45.741973852319305" lon="9.184992953498542"><ele>354.2</ele><time>2026-05-02T08:35:11.925Z</time></trkpt><trkpt lat="45.74205863038805" lon="9.185079208483556"><ele>354.6</ele><time>2026-05-02T08:35:12.925Z</time></trkpt><trkpt lat="45.74214105023926" lon="9.185164494306987"><ele>355.0</ele><time>2026-05-02T08:35:13.925Z</time></trkpt><trkpt lat="45.74221021050125" lon="9.185249957071164"><ele>355.0</ele><time>2026-05-02T08:35:14.925Z</time></trkpt><trkpt lat="45.74227105821066" lon="9.185314262383969"><ele>355.0</ele><time>2026-05-02T08:35:15.925Z</time></trkpt><trkpt lat="45.74236254654261" lon="9.18540485968673"><ele>355.0</ele><time>2026-05-02T08:35:17.925Z</time></trkpt><trkpt lat="45.742434532963664" lon="9.185488563744807"><ele>355.0</ele><time>2026-05-02T08:35:19.925Z</time></trkpt><trkpt lat="45.74249120787533" lon="9.185629084830438"><ele>355.0</ele><time>2026-05-02T08:35:21.925Z</time></trkpt><trkpt lat="45.74256957787897" lon="9.18569540025194"><ele>355.4</ele><time>2026-05-02T08:35:22.925Z</time></trkpt><trkpt lat="45.7426496574936" lon="9.185718161015984"><ele>355.8</ele><time>2026-05-02T08:35:23.925Z</time></trkpt><trkpt lat="45.74272743513238" lon="9.18578214900023"><ele>356.20000000000005</ele><time>2026-05-02T08:35:24.924Z</time></trkpt><trkpt lat="45.742819993228146" lon="9.185856720581743"><ele>356.6</ele><time>2026-05-02T08:35:25.924Z</time></trkpt><trkpt lat="45.74290690339529" lon="9.185939885939462"><ele>357.0</ele><time>2026-05-02T08:35:26.924Z</time></trkpt><trkpt lat="45.74299124703425" lon="9.186030889886197"><ele>357.20000000000005</ele><time>2026-05-02T08:35:27.925Z</time></trkpt><trkpt lat="45.74307890056257" lon="9.18612306452031"><ele>357.4</ele><time>2026-05-02T08:35:28.925Z</time></trkpt><trkpt lat="45.74316643841383" lon="9.186214160408126"><ele>357.6</ele><time>2026-05-02T08:35:29.925Z</time></trkpt><trkpt lat="45.743255564355756" lon="9.186294965593667"><ele>357.79999999999995</ele><time>2026-05-02T08:35:30.924Z</time></trkpt><trkpt lat="45.74334238391087" lon="9.18634547386302"><ele>358.0</ele><time>2026-05-02T08:35:31.924Z</time></trkpt><trkpt lat="45.743431403575414" lon="9.186386188506892"><ele>358.0</ele><time>2026-05-02T08:35:32.925Z</time></trkpt><trkpt lat="45.7435194622255" lon="9.186418058054967"><ele>358.0</ele><time>2026-05-02T08:35:33.924Z</time></trkpt><trkpt lat="45.743607701058615" lon="9.18641969163268"><ele>358.0</ele><time>2026-05-02T08:35:34.924Z</time></trkpt><trkpt lat="45.74369237713033" lon="9.186425326814083"><ele>358.0</ele><time>2026-05-02T08:35:35.924Z</time></trkpt><trkpt lat="45.74377139303595" lon="9.186447650532338"><ele>358.0</ele><time>2026-05-02T08:35:36.924Z</time></trkpt><trkpt lat="45.74385363374468" lon="9.186452479428073"><ele>358.0</ele><time>2026-05-02T08:35:37.924Z</time></trkpt><trkpt lat="45.74392817277638" lon="9.186458933529861"><ele>358.3333333333333</ele><time>2026-05-02T08:35:38.924Z</time></trkpt><trkpt lat="45.743995882244825" lon="9.186492523309445"><ele>358.66666666666663</ele><time>2026-05-02T08:35:39.924Z</time></trkpt><trkpt lat="45.7440609829604" lon="9.186520349778375"><ele>359.0</ele><time>2026-05-02T08:35:40.924Z</time></trkpt><trkpt lat="45.74414223367513" lon="9.186532310668548"><ele>359.3333333333333</ele><time>2026-05-02T08:35:41.924Z</time></trkpt><trkpt lat="45.744236218720985" lon="9.18654912905829"><ele>359.6666666666667</ele><time>2026-05-02T08:35:42.924Z</time></trkpt><trkpt lat="45.744322351979584" lon="9.186560692573336"><ele>360.0</ele><time>2026-05-02T08:35:43.924Z</time></trkpt><trkpt lat="45.744411851941386" lon="9.186576620651401"><ele>360.2</ele><time>2026-05-02T08:35:44.923Z</time></trkpt><trkpt lat="45.7445005661962" lon="9.18659398009328"><ele>360.4</ele><time>2026-05-02T08:35:45.923Z</time></trkpt><trkpt lat="45.7445935890573" lon="9.186616911156477"><ele>360.6</ele><time>2026-05-02T08:35:46.923Z</time></trkpt><trkpt lat="45.74467966057887" lon="9.18663248009378"><ele>360.8</ele><time>2026-05-02T08:35:47.923Z</time></trkpt><trkpt lat="45.74476769171195" lon="9.186647586963415"><ele>361.0</ele><time>2026-05-02T08:35:48.923Z</time></trkpt><trkpt lat="45.744861918566365" lon="9.18666821518684"><ele>361.0</ele><time>2026-05-02T08:35:49.923Z</time></trkpt><trkpt lat="45.74496402658586" lon="9.186684164822841"><ele>361.0</ele><time>2026-05-02T08:35:50.923Z</time></trkpt><trkpt lat="45.74506530785796" lon="9.186694941225634"><ele>361.0</ele><time>2026-05-02T08:35:51.923Z</time></trkpt><trkpt lat="45.74517015108634" lon="9.186722743377633"><ele>361.0</ele><time>2026-05-02T08:35:52.923Z</time></trkpt><trkpt lat="45.745280547921645" lon="9.18671337972979"><ele>361.0</ele><time>2026-05-02T08:35:53.923Z</time></trkpt><trkpt lat="45.74539264938029" lon="9.18667411353099"><ele>361.25</ele><time>2026-05-02T08:35:54.923Z</time></trkpt><trkpt lat="45.74550469277613" lon="9.186643807186307"><ele>361.5</ele><time>2026-05-02T08:35:55.923Z</time></trkpt><trkpt lat="45.74561761911598" lon="9.186594184781438"><ele>361.75</ele><time>2026-05-02T08:35:56.923Z</time></trkpt><trkpt lat="45.74573281859499" lon="9.186526741945926"><ele>362.0</ele><time>2026-05-02T08:35:57.923Z</time></trkpt><trkpt lat="45.74584721243338" lon="9.186464601699068"><ele>362.0</ele><time>2026-05-02T08:35:58.923Z</time></trkpt><trkpt lat="45.745958980830096" lon="9.18638024503853"><ele>362.0</ele><time>2026-05-02T08:35:59.923Z</time></trkpt><trkpt lat="45.7460604739007" lon="9.186287614030142"><ele>362.0</ele><time>2026-05-02T08:36:00.923Z</time></trkpt><trkpt lat="45.746157416834976" lon="9.186199666375394"><ele>362.0</ele><time>2026-05-02T08:36:01.923Z</time></trkpt><trkpt lat="45.74625685584764" lon="9.186114228450018"><ele>362.0</ele><time>2026-05-02T08:36:02.923Z</time></trkpt><trkpt lat="45.74636046959389" lon="9.18602208502544"><ele>362.0</ele><time>2026-05-02T08:36:03.923Z</time></trkpt><trkpt lat="45.746459600490354" lon="9.18592808517328"><ele>362.0</ele><time>2026-05-02T08:36:04.923Z</time></trkpt><trkpt lat="45.746555795706755" lon="9.185845054933127"><ele>362.0</ele><time>2026-05-02T08:36:05.923Z</time></trkpt><trkpt lat="45.74664774333541" lon="9.185770949266255"><ele>362.0</ele><time>2026-05-02T08:36:06.923Z</time></trkpt><trkpt lat="45.746734153718194" lon="9.185697913014298"><ele>362.0</ele><time>2026-05-02T08:36:07.923Z</time></trkpt><trkpt lat="45.74681940875475" lon="9.185630899951764"><ele>362.0</ele><time>2026-05-02T08:36:08.923Z</time></trkpt><trkpt lat="45.74690780894759" lon="9.185569658952794"><ele>362.0</ele><time>2026-05-02T08:36:09.923Z</time></trkpt><trkpt lat="45.74698760712733" lon="9.185512542553722"><ele>362.0</ele><time>2026-05-02T08:36:10.923Z</time></trkpt><trkpt lat="45.74706098422826" lon="9.185450620861356"><ele>362.20000000000005</ele><time>2026-05-02T08:36:11.923Z</time></trkpt><trkpt lat="45.74712751751797" lon="9.185379301064176"><ele>362.4</ele><time>2026-05-02T08:36:12.923Z</time></trkpt><trkpt lat="45.7472138756284" lon="9.185343368357385"><ele>362.6</ele><time>2026-05-02T08:36:13.923Z</time></trkpt><trkpt lat="45.74729216202452" lon="9.185269822939052"><ele>362.79999999999995</ele><time>2026-05-02T08:36:14.923Z</time></trkpt><trkpt lat="45.747381046802104" lon="9.185189838388911"><ele>363.0</ele><time>2026-05-02T08:36:15.923Z</time></trkpt><trkpt lat="45.747469897588175" lon="9.185106001834255"><ele>363.0</ele><time>2026-05-02T08:36:16.923Z</time></trkpt><trkpt lat="45.74757197992224" lon="9.18502239649957"><ele>363.0</ele><time>2026-05-02T08:36:17.923Z</time></trkpt><trkpt lat="45.74768719031358" lon="9.184953890078468"><ele>363.0</ele><time>2026-05-02T08:36:18.923Z</time></trkpt><trkpt lat="45.747814259011555" lon="9.184906683202676"><ele>363.0</ele><time>2026-05-02T08:36:19.923Z</time></trkpt><trkpt lat="45.74794590898187" lon="9.184870458607035"><ele>363.25</ele><time>2026-05-02T08:36:20.923Z</time></trkpt><trkpt lat="45.74808347125233" lon="9.184848408199041"><ele>363.5</ele><time>2026-05-02T08:36:21.923Z</time></trkpt><trkpt lat="45.74822167009284" lon="9.184827977082103"><ele>363.75</ele><time>2026-05-02T08:36:22.923Z</time></trkpt><trkpt lat="45.74836116680887" lon="9.18479933464766"><ele>364.0</ele><time>2026-05-02T08:36:23.923Z</time></trkpt><trkpt lat="45.74850689849259" lon="9.184772751332813"><ele>365.75</ele><time>2026-05-02T08:36:24.923Z</time></trkpt><trkpt lat="45.74865595598447" lon="9.184745001788432"><ele>367.5</ele><time>2026-05-02T08:36:25.923Z</time></trkpt><trkpt lat="45.748803025413864" lon="9.184718363104537"><ele>369.25</ele><time>2026-05-02T08:36:26.923Z</time></trkpt><trkpt lat="45.74895018872639" lon="9.184688784722919"><ele>371.0</ele><time>2026-05-02T08:36:27.923Z</time></trkpt><trkpt lat="45.74909968926495" lon="9.184669255633144"><ele>371.0</ele><time>2026-05-02T08:36:28.923Z</time></trkpt><trkpt lat="45.749248815876754" lon="9.184643503025601"><ele>371.0</ele><time>2026-05-02T08:36:29.923Z</time></trkpt><trkpt lat="45.7493898831242" lon="9.184629237796782"><ele>371.0</ele><time>2026-05-02T08:36:30.923Z</time></trkpt><trkpt lat="45.74953223847878" lon="9.184610108562984"><ele>371.0</ele><time>2026-05-02T08:36:31.923Z</time></trkpt><trkpt lat="45.74966758288464" lon="9.184591664343753"><ele>369.75</ele><time>2026-05-02T08:36:32.923Z</time></trkpt><trkpt lat="45.749796658756466" lon="9.184570640811485"><ele>368.5</ele><time>2026-05-02T08:36:33.923Z</time></trkpt><trkpt lat="45.74992804747057" lon="9.184552214578257"><ele>367.25</ele><time>2026-05-02T08:36:34.923Z</time></trkpt><trkpt lat="45.75005742123505" lon="9.184530541190044"><ele>366.0</ele><time>2026-05-02T08:36:35.923Z</time></trkpt><trkpt lat="45.75018078332257" lon="9.184513416507032"><ele>364.25</ele><time>2026-05-02T08:36:36.923Z</time></trkpt><trkpt lat="45.75030092470839" lon="9.184500043072656"><ele>362.5</ele><time>2026-05-02T08:36:37.923Z</time></trkpt><trkpt lat="45.75042507274667" lon="9.18448248224085"><ele>360.75</ele><time>2026-05-02T08:36:38.923Z</time></trkpt><trkpt lat="45.75055378542114" lon="9.184460791945547"><ele>359.0</ele><time>2026-05-02T08:36:39.923Z</time></trkpt><trkpt lat="45.75068908879108" lon="9.184450560406482"><ele>359.0</ele><time>2026-05-02T08:36:40.923Z</time></trkpt><trkpt lat="45.75082797528604" lon="9.184435796642628"><ele>359.0</ele><time>2026-05-02T08:36:41.923Z</time></trkpt><trkpt lat="45.75096522948052" lon="9.18442132087905"><ele>359.0</ele><time>2026-05-02T08:36:42.923Z</time></trkpt><trkpt lat="45.75109928163944" lon="9.184403301180152"><ele>359.0</ele><time>2026-05-02T08:36:43.923Z</time></trkpt><trkpt lat="45.751220517182006" lon="9.184382353444922"><ele>360.5</ele><time>2026-05-02T08:36:44.923Z</time></trkpt><trkpt lat="45.75134216196556" lon="9.184349927844664"><ele>362.0</ele><time>2026-05-02T08:36:45.923Z</time></trkpt><trkpt lat="45.751460698448604" lon="9.184297127789362"><ele>363.5</ele><time>2026-05-02T08:36:46.923Z</time></trkpt><trkpt lat="45.75154608761949" lon="9.184167623636283"><ele>365.0</ele><time>2026-05-02T08:36:47.923Z</time></trkpt><trkpt lat="45.751633410566384" lon="9.184025163756532"><ele>363.25</ele><time>2026-05-02T08:36:48.923Z</time></trkpt><trkpt lat="45.75171037586265" lon="9.183865436628754"><ele>361.5</ele><time>2026-05-02T08:36:49.923Z</time></trkpt><trkpt lat="45.751799465106096" lon="9.183737504321748"><ele>359.75</ele><time>2026-05-02T08:36:50.923Z</time></trkpt><trkpt lat="45.75190391869819" lon="9.183641640402929"><ele>358.0</ele><time>2026-05-02T08:36:51.923Z</time></trkpt><trkpt lat="45.75202272668971" lon="9.183547078133275"><ele>358.0</ele><time>2026-05-02T08:36:52.923Z</time></trkpt><trkpt lat="45.75214669048406" lon="9.183459009421522"><ele>358.0</ele><time>2026-05-02T08:36:53.923Z</time></trkpt><trkpt lat="45.75228507143527" lon="9.183378746631238"><ele>358.0</ele><time>2026-05-02T08:36:54.923Z</time></trkpt><trkpt lat="45.75241953304821" lon="9.18330072814941"><ele>358.0</ele><time>2026-05-02T08:36:55.923Z</time></trkpt><trkpt lat="45.75254229428862" lon="9.183227401555992"><ele>355.25</ele><time>2026-05-02T08:36:56.923Z</time></trkpt><trkpt lat="45.752662245300606" lon="9.183155223103148"><ele>352.5</ele><time>2026-05-02T08:36:57.923Z</time></trkpt><trkpt lat="45.752781363014606" lon="9.183084454856585"><ele>349.75</ele><time>2026-05-02T08:36:58.923Z</time></trkpt><trkpt lat="45.752895702044086" lon="9.183006009731638"><ele>347.0</ele><time>2026-05-02T08:36:59.923Z</time></trkpt><trkpt lat="45.75300962511508" lon="9.18293885069576"><ele>347.0</ele><time>2026-05-02T08:37:00.923Z</time></trkpt><trkpt lat="45.7531201343654" lon="9.182870292085015"><ele>347.0</ele><time>2026-05-02T08:37:01.923Z</time></trkpt><trkpt lat="45.75322193616958" lon="9.182806770477105"><ele>347.0</ele><time>2026-05-02T08:37:02.923Z</time></trkpt><trkpt lat="45.753319763151055" lon="9.182744321060314"><ele>347.0</ele><time>2026-05-02T08:37:03.923Z</time></trkpt><trkpt lat="45.75340587337073" lon="9.18266476978398"><ele>347.0</ele><time>2026-05-02T08:37:04.923Z</time></trkpt><trkpt lat="45.75349509731588" lon="9.182587718773654"><ele>345.40000000000003</ele><time>2026-05-02T08:37:05.923Z</time></trkpt><trkpt lat="45.75356424571414" lon="9.182466040836328"><ele>343.8</ele><time>2026-05-02T08:37:06.923Z</time></trkpt><trkpt lat="45.7535897191163" lon="9.182316649081748"><ele>342.2</ele><time>2026-05-02T08:37:07.923Z</time></trkpt><trkpt lat="45.75360377271419" lon="9.18217730881886"><ele>340.6</ele><time>2026-05-02T08:37:08.923Z</time></trkpt><trkpt lat="45.75360632146128" lon="9.182061616769994"><ele>339.0</ele><time>2026-05-02T08:37:09.923Z</time></trkpt><trkpt lat="45.7536237007808" lon="9.181947010595097"><ele>338.3333333333333</ele><time>2026-05-02T08:37:10.923Z</time></trkpt><trkpt lat="45.753665481774625" lon="9.181853675330451"><ele>337.6666666666667</ele><time>2026-05-02T08:37:11.923Z</time></trkpt><trkpt lat="45.75372071313193" lon="9.181775101198687"><ele>337.0</ele><time>2026-05-02T08:37:12.923Z</time></trkpt><trkpt lat="45.753787969562325" lon="9.181687240376457"><ele>336.33333333333337</ele><time>2026-05-02T08:37:13.923Z</time></trkpt><trkpt lat="45.75385532882212" lon="9.1816004626959"><ele>335.6666666666667</ele><time>2026-05-02T08:37:14.923Z</time></trkpt><trkpt lat="45.75394510333771" lon="9.181514301844635"><ele>335.0</ele><time>2026-05-02T08:37:15.923Z</time></trkpt><trkpt lat="45.75402751521186" lon="9.181410391122176"><ele>334.75</ele><time>2026-05-02T08:37:16.923Z</time></trkpt><trkpt lat="45.75411210586704" lon="9.181308239041991"><ele>334.5</ele><time>2026-05-02T08:37:17.923Z</time></trkpt><trkpt lat="45.75420161233214" lon="9.181203266239155"><ele>334.25</ele><time>2026-05-02T08:37:18.923Z</time></trkpt><trkpt lat="45.75429788902915" lon="9.181074208703508"><ele>334.0</ele><time>2026-05-02T08:37:19.923Z</time></trkpt><trkpt lat="45.75440737332941" lon="9.180985307714009"><ele>334.0</ele><time>2026-05-02T08:37:20.923Z</time></trkpt><trkpt lat="45.75452917316341" lon="9.18090531891948"><ele>334.0</ele><time>2026-05-02T08:37:21.923Z</time></trkpt><trkpt lat="45.754655677658924" lon="9.180849177845072"><ele>334.0</ele><time>2026-05-02T08:37:22.923Z</time></trkpt><trkpt lat="45.754791018853304" lon="9.180837676779129"><ele>334.0</ele><time>2026-05-02T08:37:23.923Z</time></trkpt><trkpt lat="45.75493354587273" lon="9.180831169900186"><ele>334.0</ele><time>2026-05-02T08:37:24.923Z</time></trkpt><trkpt lat="45.75507025804381" lon="9.1808219253396"><ele>334.0</ele><time>2026-05-02T08:37:25.923Z</time></trkpt><trkpt lat="45.75521357997405" lon="9.180791954455243"><ele>334.0</ele><time>2026-05-02T08:37:26.923Z</time></trkpt><trkpt lat="45.755359839235744" lon="9.180769628329433"><ele>334.0</ele><time>2026-05-02T08:37:27.923Z</time></trkpt><trkpt lat="45.75549716913395" lon="9.180701082539827"><ele>332.75</ele><time>2026-05-02T08:37:28.923Z</time></trkpt><trkpt lat="45.75562757919914" lon="9.180623849210367"><ele>331.5</ele><time>2026-05-02T08:37:29.922Z</time></trkpt><trkpt lat="45.75575534306682" lon="9.180554014647916"><ele>330.25</ele><time>2026-05-02T08:37:30.922Z</time></trkpt><trkpt lat="45.75589317829241" lon="9.180507293743883"><ele>329.0</ele><time>2026-05-02T08:37:31.922Z</time></trkpt><trkpt lat="45.75602098179481" lon="9.18042707454494"><ele>330.5</ele><time>2026-05-02T08:37:32.922Z</time></trkpt><trkpt lat="45.75614981787078" lon="9.180363546251193"><ele>332.0</ele><time>2026-05-02T08:37:33.922Z</time></trkpt><trkpt lat="45.75628002972797" lon="9.180296449849042"><ele>333.5</ele><time>2026-05-02T08:37:34.922Z</time></trkpt><trkpt lat="45.75640571766549" lon="9.180224157831141"><ele>335.0</ele><time>2026-05-02T08:37:35.922Z</time></trkpt><trkpt lat="45.756533847732186" lon="9.180164483080082"><ele>335.0</ele><time>2026-05-02T08:37:36.921Z</time></trkpt><trkpt lat="45.756661087151535" lon="9.180107392921808"><ele>335.0</ele><time>2026-05-02T08:37:37.922Z</time></trkpt><trkpt lat="45.756788528003014" lon="9.180043453453106"><ele>335.0</ele><time>2026-05-02T08:37:38.923Z</time></trkpt><trkpt lat="45.75691254044858" lon="9.179975045503294"><ele>335.0</ele><time>2026-05-02T08:37:39.924Z</time></trkpt><trkpt lat="45.7570426308664" lon="9.17991086144289"><ele>335.0</ele><time>2026-05-02T08:37:40.924Z</time></trkpt><trkpt lat="45.757175312065854" lon="9.179840422501835"><ele>335.0</ele><time>2026-05-02T08:37:41.925Z</time></trkpt><trkpt lat="45.75730004135711" lon="9.179763985284564"><ele>335.0</ele><time>2026-05-02T08:37:42.926Z</time></trkpt><trkpt lat="45.757431098414735" lon="9.179693423986619"><ele>335.0</ele><time>2026-05-02T08:37:43.927Z</time></trkpt><trkpt lat="45.75755556210505" lon="9.179631566166913"><ele>335.0</ele><time>2026-05-02T08:37:44.927Z</time></trkpt><trkpt lat="45.75767913172035" lon="9.179571049799415"><ele>335.0</ele><time>2026-05-02T08:37:45.928Z</time></trkpt><trkpt lat="45.75780086757514" lon="9.179519301567082"><ele>335.0</ele><time>2026-05-02T08:37:46.928Z</time></trkpt><trkpt lat="45.757925120907146" lon="9.179479158758262"><ele>335.0</ele><time>2026-05-02T08:37:47.929Z</time></trkpt><trkpt lat="45.758055802249885" lon="9.179458131220422"><ele>335.0</ele><time>2026-05-02T08:37:48.929Z</time></trkpt><trkpt lat="45.75818268251161" lon="9.17944842732635"><ele>335.0</ele><time>2026-05-02T08:37:49.93Z</time></trkpt><trkpt lat="45.758313431480744" lon="9.179446530107423"><ele>335.0</ele><time>2026-05-02T08:37:50.93Z</time></trkpt><trkpt lat="45.758446805637405" lon="9.179442851440474"><ele>335.0</ele><time>2026-05-02T08:37:51.93Z</time></trkpt><trkpt lat="45.75858296161674" lon="9.17944040094976"><ele>335.0</ele><time>2026-05-02T08:37:52.931Z</time></trkpt><trkpt lat="45.758725885884964" lon="9.179435447314884"><ele>335.0</ele><time>2026-05-02T08:37:53.931Z</time></trkpt><trkpt lat="45.7588698701467" lon="9.17943043347998"><ele>335.0</ele><time>2026-05-02T08:37:54.931Z</time></trkpt><trkpt lat="45.75900857477157" lon="9.179431854209323"><ele>335.0</ele><time>2026-05-02T08:37:55.932Z</time></trkpt><trkpt lat="45.75914571412004" lon="9.179427183208482"><ele>335.0</ele><time>2026-05-02T08:37:56.932Z</time></trkpt><trkpt lat="45.759290345623675" lon="9.179416470669107"><ele>335.0</ele><time>2026-05-02T08:37:57.932Z</time></trkpt><trkpt lat="45.759429772431794" lon="9.179401468144755"><ele>335.0</ele><time>2026-05-02T08:37:58.933Z</time></trkpt><trkpt lat="45.759560483403384" lon="9.179403270859183"><ele>335.0</ele><time>2026-05-02T08:37:59.933Z</time></trkpt><trkpt lat="45.75969225527155" lon="9.17940321045573"><ele>335.25</ele><time>2026-05-02T08:38:00.933Z</time></trkpt><trkpt lat="45.759814521372554" lon="9.1794002869658"><ele>335.5</ele><time>2026-05-02T08:38:01.933Z</time></trkpt><trkpt lat="45.75994144774121" lon="9.179401667640802"><ele>335.75</ele><time>2026-05-02T08:38:02.933Z</time></trkpt><trkpt lat="45.760067632898306" lon="9.179401840413743"><ele>336.0</ele><time>2026-05-02T08:38:03.934Z</time></trkpt><trkpt lat="45.76018940420797" lon="9.179404068326015"><ele>336.75</ele><time>2026-05-02T08:38:04.934Z</time></trkpt><trkpt lat="45.760318002452145" lon="9.179419364121884"><ele>337.5</ele><time>2026-05-02T08:38:05.934Z</time></trkpt><trkpt lat="45.76044936826649" lon="9.179449294328133"><ele>338.25</ele><time>2026-05-02T08:38:06.934Z</time></trkpt><trkpt lat="45.76057662715245" lon="9.179489526222698"><ele>339.0</ele><time>2026-05-02T08:38:07.934Z</time></trkpt><trkpt lat="45.76071516026846" lon="9.179539678274072"><ele>339.0</ele><time>2026-05-02T08:38:08.934Z</time></trkpt><trkpt lat="45.76085249557265" lon="9.179577485197454"><ele>339.0</ele><time>2026-05-02T08:38:09.934Z</time></trkpt><trkpt lat="45.76099318285216" lon="9.179613624608344"><ele>339.0</ele><time>2026-05-02T08:38:10.935Z</time></trkpt><trkpt lat="45.76112542904085" lon="9.17963405910828"><ele>339.0</ele><time>2026-05-02T08:38:11.935Z</time></trkpt><trkpt lat="45.761249079158276" lon="9.17969410509898"><ele>339.5</ele><time>2026-05-02T08:38:12.935Z</time></trkpt><trkpt lat="45.761379101990734" lon="9.179710506740076"><ele>340.0</ele><time>2026-05-02T08:38:13.935Z</time></trkpt><trkpt lat="45.76151324960606" lon="9.179722284127202"><ele>340.5</ele><time>2026-05-02T08:38:14.935Z</time></trkpt><trkpt lat="45.76164398563465" lon="9.179730871010191"><ele>341.0</ele><time>2026-05-02T08:38:15.935Z</time></trkpt><trkpt lat="45.76177304870816" lon="9.179738761042595"><ele>340.8</ele><time>2026-05-02T08:38:16.935Z</time></trkpt><trkpt lat="45.761887096047836" lon="9.179754273136904"><ele>340.6</ele><time>2026-05-02T08:38:17.935Z</time></trkpt><trkpt lat="45.76199921177684" lon="9.179773425234384"><ele>340.4</ele><time>2026-05-02T08:38:18.935Z</time></trkpt><trkpt lat="45.7621070488262" lon="9.179789503553407"><ele>340.2</ele><time>2026-05-02T08:38:19.935Z</time></trkpt><trkpt lat="45.76221014388613" lon="9.179822902483108"><ele>340.0</ele><time>2026-05-02T08:38:20.935Z</time></trkpt><trkpt lat="45.762306118027965" lon="9.179863357532014"><ele>341.66666666666663</ele><time>2026-05-02T08:38:21.935Z</time></trkpt><trkpt lat="45.7623922015769" lon="9.17991203091229"><ele>343.3333333333333</ele><time>2026-05-02T08:38:22.935Z</time></trkpt><trkpt lat="45.7624728595039" lon="9.179963913966805"><ele>345.0</ele><time>2026-05-02T08:38:23.935Z</time></trkpt><trkpt lat="45.762547780886315" lon="9.180021149727164"><ele>346.6666666666667</ele><time>2026-05-02T08:38:24.936Z</time></trkpt><trkpt lat="45.762623605102505" lon="9.18008198160546"><ele>348.33333333333337</ele><time>2026-05-02T08:38:25.936Z</time></trkpt><trkpt lat="45.7627009308457" lon="9.180150634279178"><ele>350.0</ele><time>2026-05-02T08:38:26.936Z</time></trkpt><trkpt lat="45.76277265033863" lon="9.180237692635917"><ele>350.0</ele><time>2026-05-02T08:38:27.936Z</time></trkpt><trkpt lat="45.76285209451962" lon="9.180337471959167"><ele>350.0</ele><time>2026-05-02T08:38:28.936Z</time></trkpt><trkpt lat="45.76293955056333" lon="9.180443641676856"><ele>350.0</ele><time>2026-05-02T08:38:29.936Z</time></trkpt><trkpt lat="45.76303366596653" lon="9.180558654140565"><ele>350.0</ele><time>2026-05-02T08:38:30.936Z</time></trkpt><trkpt lat="45.76312696187519" lon="9.180668497208766"><ele>351.0</ele><time>2026-05-02T08:38:31.936Z</time></trkpt><trkpt lat="45.763218219508154" lon="9.180774364133926"><ele>352.0</ele><time>2026-05-02T08:38:32.936Z</time></trkpt><trkpt lat="45.763312219075154" lon="9.180883563743652"><ele>353.0</ele><time>2026-05-02T08:38:33.936Z</time></trkpt><trkpt lat="45.763396964876634" lon="9.1809948669938"><ele>354.0</ele><time>2026-05-02T08:38:34.936Z</time></trkpt><trkpt lat="45.763487917900186" lon="9.181094663757209"><ele>353.79999999999995</ele><time>2026-05-02T08:38:35.936Z</time></trkpt><trkpt lat="45.76357345676904" lon="9.181195982226697"><ele>353.59999999999997</ele><time>2026-05-02T08:38:36.936Z</time></trkpt><trkpt lat="45.76365654993293" lon="9.18129802171501"><ele>353.4</ele><time>2026-05-02T08:38:37.936Z</time></trkpt><trkpt lat="45.76373448271714" lon="9.181391770086027"><ele>353.2</ele><time>2026-05-02T08:38:38.936Z</time></trkpt><trkpt lat="45.76381055141709" lon="9.181475902367405"><ele>353.0</ele><time>2026-05-02T08:38:39.936Z</time></trkpt><trkpt lat="45.763871440948016" lon="9.181555316382493"><ele>353.0</ele><time>2026-05-02T08:38:40.936Z</time></trkpt><trkpt lat="45.763929914444674" lon="9.181618442398191"><ele>353.0</ele><time>2026-05-02T08:38:41.936Z</time></trkpt><trkpt lat="45.76402857142259" lon="9.181698464873557"><ele>353.0</ele><time>2026-05-02T08:38:43.936Z</time></trkpt><trkpt lat="45.76411622562544" lon="9.181730026391158"><ele>353.0</ele><time>2026-05-02T08:38:45.936Z</time></trkpt><trkpt lat="45.764199223715934" lon="9.181763944202618"><ele>353.0</ele><time>2026-05-02T08:38:48.936Z</time></trkpt><trkpt lat="45.764289015062474" lon="9.181832803518661"><ele>352.5</ele><time>2026-05-02T08:38:50.936Z</time></trkpt><trkpt lat="45.76439851706883" lon="9.181809867449658"><ele>352.0</ele><time>2026-05-02T08:38:52.936Z</time></trkpt><trkpt lat="45.76449822075298" lon="9.181701783003446"><ele>351.5</ele><time>2026-05-02T08:38:54.936Z</time></trkpt><trkpt lat="45.764548557141666" lon="9.18164218250893"><ele>351.0</ele><time>2026-05-02T08:38:55.936Z</time></trkpt><trkpt lat="45.764602032481996" lon="9.181592119909057"><ele>350.5</ele><time>2026-05-02T08:38:56.936Z</time></trkpt><trkpt lat="45.76466214977953" lon="9.181540211947494"><ele>350.0</ele><time>2026-05-02T08:38:57.936Z</time></trkpt><trkpt lat="45.76472750600917" lon="9.181476065359684"><ele>350.0</ele><time>2026-05-02T08:38:58.936Z</time></trkpt><trkpt lat="45.76479960015373" lon="9.181402262392645"><ele>350.0</ele><time>2026-05-02T08:38:59.936Z</time></trkpt><trkpt lat="45.76487899288325" lon="9.181323741519334"><ele>350.0</ele><time>2026-05-02T08:39:00.936Z</time></trkpt><trkpt lat="45.76496359630462" lon="9.181247387793105"><ele>350.0</ele><time>2026-05-02T08:39:01.936Z</time></trkpt><trkpt lat="45.76505460103835" lon="9.181166530136096"><ele>350.0</ele><time>2026-05-02T08:39:02.936Z</time></trkpt><trkpt lat="45.76514699202071" lon="9.181081207482112"><ele>351.75</ele><time>2026-05-02T08:39:03.936Z</time></trkpt><trkpt lat="45.765245370058125" lon="9.18099031445802"><ele>353.5</ele><time>2026-05-02T08:39:04.936Z</time></trkpt><trkpt lat="45.76534852724457" lon="9.180888412687453"><ele>355.25</ele><time>2026-05-02T08:39:05.936Z</time></trkpt><trkpt lat="45.765457925760515" lon="9.180793102438857"><ele>357.0</ele><time>2026-05-02T08:39:06.936Z</time></trkpt><trkpt lat="45.76556841355637" lon="9.180683988712307"><ele>355.5</ele><time>2026-05-02T08:39:07.936Z</time></trkpt><trkpt lat="45.765684650401695" lon="9.18057634119361"><ele>354.0</ele><time>2026-05-02T08:39:08.936Z</time></trkpt><trkpt lat="45.76580243883143" lon="9.180463650017161"><ele>352.5</ele><time>2026-05-02T08:39:09.936Z</time></trkpt><trkpt lat="45.76592289164072" lon="9.180352624794946"><ele>351.0</ele><time>2026-05-02T08:39:10.936Z</time></trkpt><trkpt lat="45.76604177517506" lon="9.180241560444143"><ele>351.0</ele><time>2026-05-02T08:39:11.936Z</time></trkpt><trkpt lat="45.76615347896803" lon="9.180131807471058"><ele>351.0</ele><time>2026-05-02T08:39:12.936Z</time></trkpt><trkpt lat="45.76626223004834" lon="9.180027593493005"><ele>351.0</ele><time>2026-05-02T08:39:13.936Z</time></trkpt><trkpt lat="45.76637233905904" lon="9.17993727124681"><ele>351.0</ele><time>2026-05-02T08:39:14.936Z</time></trkpt><trkpt lat="45.76648902638059" lon="9.17986890716564"><ele>350.75</ele><time>2026-05-02T08:39:15.936Z</time></trkpt><trkpt lat="45.76661154959615" lon="9.179813793733965"><ele>350.5</ele><time>2026-05-02T08:39:16.936Z</time></trkpt><trkpt lat="45.76673008854119" lon="9.179778107416627"><ele>350.25</ele><time>2026-05-02T08:39:17.936Z</time></trkpt><trkpt lat="45.766840536799954" lon="9.179751340558044"><ele>350.0</ele><time>2026-05-02T08:39:18.936Z</time></trkpt><trkpt lat="45.76694029153318" lon="9.179725118177249"><ele>350.0</ele><time>2026-05-02T08:39:19.936Z</time></trkpt><trkpt lat="45.767031804442006" lon="9.179707613797069"><ele>350.0</ele><time>2026-05-02T08:39:20.936Z</time></trkpt><trkpt lat="45.76711361695384" lon="9.179691432868282"><ele>350.0</ele><time>2026-05-02T08:39:21.936Z</time></trkpt><trkpt lat="45.76718827232768" lon="9.179674312769093"><ele>350.0</ele><time>2026-05-02T08:39:22.936Z</time></trkpt><trkpt lat="45.76725758178555" lon="9.17965625250613"><ele>350.0</ele><time>2026-05-02T08:39:23.936Z</time></trkpt><trkpt lat="45.76736234403135" lon="9.179645731687287"><ele>350.0</ele><time>2026-05-02T08:39:25.936Z</time></trkpt><trkpt lat="45.76744509957327" lon="9.179633639560143"><ele>350.0</ele><time>2026-05-02T08:39:32.936Z</time></trkpt><trkpt lat="45.767552798151506" lon="9.179771605492807"><ele>350.0</ele><time>2026-05-02T08:39:34.936Z</time></trkpt><trkpt lat="45.76761043938251" lon="9.179854055718936"><ele>350.0</ele><time>2026-05-02T08:39:35.935Z</time></trkpt><trkpt lat="45.76767461342409" lon="9.179946097053392"><ele>350.0</ele><time>2026-05-02T08:39:36.934Z</time></trkpt><trkpt lat="45.76774542466958" lon="9.180048767956563"><ele>350.0</ele><time>2026-05-02T08:39:37.934Z</time></trkpt><trkpt lat="45.76782825178698" lon="9.18015021213467"><ele>350.75</ele><time>2026-05-02T08:39:38.935Z</time></trkpt><trkpt lat="45.767915262217535" lon="9.180256433032643"><ele>351.5</ele><time>2026-05-02T08:39:39.934Z</time></trkpt><trkpt lat="45.768003489210926" lon="9.180372962485421"><ele>352.25</ele><time>2026-05-02T08:39:40.934Z</time></trkpt><trkpt lat="45.76809371339476" lon="9.180495247857618"><ele>353.0</ele><time>2026-05-02T08:39:41.935Z</time></trkpt><trkpt lat="45.76818508901314" lon="9.180616212405845"><ele>352.75</ele><time>2026-05-02T08:39:42.934Z</time></trkpt><trkpt lat="45.76827956784786" lon="9.180737625272627"><ele>352.5</ele><time>2026-05-02T08:39:43.934Z</time></trkpt><trkpt lat="45.76836759772326" lon="9.180856219408977"><ele>352.25</ele><time>2026-05-02T08:39:44.935Z</time></trkpt><trkpt lat="45.76845323616379" lon="9.180964293384502"><ele>352.0</ele><time>2026-05-02T08:39:45.934Z</time></trkpt><trkpt lat="45.768530056824254" lon="9.181056731333953"><ele>352.0</ele><time>2026-05-02T08:39:46.934Z</time></trkpt><trkpt lat="45.76859578509366" lon="9.181133825097895"><ele>352.0</ele><time>2026-05-02T08:39:47.934Z</time></trkpt><trkpt lat="45.76862906791524" lon="9.181224814159911"><ele>352.0</ele><time>2026-05-02T08:39:48.934Z</time></trkpt><trkpt lat="45.768677446839405" lon="9.181284214076522"><ele>352.0</ele><time>2026-05-02T08:39:49.934Z</time></trkpt><trkpt lat="45.76876486169684" lon="9.18139068295195"><ele>352.0</ele><time>2026-05-02T08:39:51.934Z</time></trkpt><trkpt lat="45.76884139084341" lon="9.181483465944035"><ele>352.0</ele><time>2026-05-02T08:39:53.934Z</time></trkpt><trkpt lat="45.768941317488064" lon="9.181590831761122"><ele>352.16666666666663</ele><time>2026-05-02T08:39:55.934Z</time></trkpt><trkpt lat="45.76899763814208" lon="9.181665467120444"><ele>352.3333333333333</ele><time>2026-05-02T08:39:56.934Z</time></trkpt><trkpt lat="45.76905805718288" lon="9.181747760044267"><ele>352.5</ele><time>2026-05-02T08:39:57.934Z</time></trkpt><trkpt lat="45.769123142962925" lon="9.181835022028503"><ele>352.6666666666667</ele><time>2026-05-02T08:39:58.934Z</time></trkpt><trkpt lat="45.769186687531544" lon="9.181924915815685"><ele>352.83333333333337</ele><time>2026-05-02T08:39:59.934Z</time></trkpt><trkpt lat="45.76925793112035" lon="9.182016766554346"><ele>353.0</ele><time>2026-05-02T08:40:00.934Z</time></trkpt><trkpt lat="45.76931506811117" lon="9.182104129549446"><ele>353.59999999999997</ele><time>2026-05-02T08:40:01.934Z</time></trkpt><trkpt lat="45.76935979988172" lon="9.182180148963814"><ele>354.2</ele><time>2026-05-02T08:40:02.934Z</time></trkpt><trkpt lat="45.76943223817225" lon="9.182309886249394"><ele>354.8</ele><time>2026-05-02T08:40:04.934Z</time></trkpt><trkpt lat="45.76947327134983" lon="9.182470903282693"><ele>355.4</ele><time>2026-05-02T08:40:06.934Z</time></trkpt><trkpt lat="45.76948957332171" lon="9.182640686952388"><ele>356.0</ele><time>2026-05-02T08:40:08.934Z</time></trkpt><trkpt lat="45.76952763850486" lon="9.182758806470247"><ele>356.0</ele><time>2026-05-02T08:40:10.934Z</time></trkpt><trkpt lat="45.76961343194844" lon="9.182776314634992"><ele>356.0</ele><time>2026-05-02T08:40:12.934Z</time></trkpt><trkpt lat="45.769661621463676" lon="9.182652391358422"><ele>356.0</ele><time>2026-05-02T08:40:14.934Z</time></trkpt><trkpt lat="45.769665707710786" lon="9.182540736242851"><ele>356.0</ele><time>2026-05-02T08:40:15.934Z</time></trkpt><trkpt lat="45.769696207469366" lon="9.18241604141246"><ele>356.0</ele><time>2026-05-02T08:40:16.934Z</time></trkpt><trkpt lat="45.76975333400926" lon="9.182300043890745"><ele>356.0</ele><time>2026-05-02T08:40:17.934Z</time></trkpt><trkpt lat="45.769823962385985" lon="9.182179405647716"><ele>356.0</ele><time>2026-05-02T08:40:18.934Z</time></trkpt><trkpt lat="45.76990927430426" lon="9.182058258594873"><ele>356.0</ele><time>2026-05-02T08:40:19.934Z</time></trkpt><trkpt lat="45.7699995958998" lon="9.181937811720182"><ele>356.0</ele><time>2026-05-02T08:40:20.934Z</time></trkpt><trkpt lat="45.770091501050146" lon="9.18181050774397"><ele>356.0</ele><time>2026-05-02T08:40:21.934Z</time></trkpt><trkpt lat="45.77018225536415" lon="9.181684433676358"><ele>356.0</ele><time>2026-05-02T08:40:22.934Z</time></trkpt><trkpt lat="45.77028061575196" lon="9.181562673998213"><ele>356.0</ele><time>2026-05-02T08:40:23.934Z</time></trkpt><trkpt lat="45.77039872394929" lon="9.181467592652078"><ele>356.0</ele><time>2026-05-02T08:40:24.934Z</time></trkpt><trkpt lat="45.770491157797814" lon="9.181346382669899"><ele>356.25</ele><time>2026-05-02T08:40:25.934Z</time></trkpt><trkpt lat="45.77057998662835" lon="9.181220526233265"><ele>356.5</ele><time>2026-05-02T08:40:26.934Z</time></trkpt><trkpt lat="45.77067715065753" lon="9.181100365397521"><ele>356.75</ele><time>2026-05-02T08:40:27.934Z</time></trkpt><trkpt lat="45.77078999148446" lon="9.180992698692135"><ele>357.0</ele><time>2026-05-02T08:40:28.934Z</time></trkpt><trkpt lat="45.77088412777472" lon="9.180861831534935"><ele>357.0</ele><time>2026-05-02T08:40:29.934Z</time></trkpt><trkpt lat="45.770975345536385" lon="9.180726638596164"><ele>357.0</ele><time>2026-05-02T08:40:30.934Z</time></trkpt><trkpt lat="45.77106375715617" lon="9.18058630625702"><ele>357.0</ele><time>2026-05-02T08:40:31.934Z</time></trkpt><trkpt lat="45.771157057123" lon="9.180449312155275"><ele>357.0</ele><time>2026-05-02T08:40:32.934Z</time></trkpt><trkpt lat="45.771269352630014" lon="9.180334854003249"><ele>357.0</ele><time>2026-05-02T08:40:33.934Z</time></trkpt><trkpt lat="45.77136276282939" lon="9.180197960882095"><ele>357.0</ele><time>2026-05-02T08:40:34.934Z</time></trkpt><trkpt lat="45.77145573879463" lon="9.1800562971206"><ele>357.0</ele><time>2026-05-02T08:40:35.934Z</time></trkpt><trkpt lat="45.771548247648276" lon="9.179912435821029"><ele>357.0</ele><time>2026-05-02T08:40:36.934Z</time></trkpt><trkpt lat="45.77163824025569" lon="9.179767386289743"><ele>357.0</ele><time>2026-05-02T08:40:37.934Z</time></trkpt><trkpt lat="45.77172576623819" lon="9.179625387872912"><ele>357.0</ele><time>2026-05-02T08:40:38.934Z</time></trkpt><trkpt lat="45.77181911442688" lon="9.179484168521876"><ele>357.0</ele><time>2026-05-02T08:40:39.934Z</time></trkpt><trkpt lat="45.77191552349457" lon="9.179339631918985"><ele>357.0</ele><time>2026-05-02T08:40:40.934Z</time></trkpt><trkpt lat="45.77201099652798" lon="9.179191022394166"><ele>357.25</ele><time>2026-05-02T08:40:41.934Z</time></trkpt><trkpt lat="45.772108876719656" lon="9.179041156873252"><ele>357.5</ele><time>2026-05-02T08:40:42.934Z</time></trkpt><trkpt lat="45.772209906110064" lon="9.17889561385373"><ele>357.75</ele><time>2026-05-02T08:40:43.934Z</time></trkpt><trkpt lat="45.772306995948426" lon="9.178755401082691"><ele>358.0</ele><time>2026-05-02T08:40:44.934Z</time></trkpt><trkpt lat="45.77240525475376" lon="9.178612690151782"><ele>358.0</ele><time>2026-05-02T08:40:45.934Z</time></trkpt><trkpt lat="45.77250621855084" lon="9.178460399494973"><ele>358.0</ele><time>2026-05-02T08:40:46.934Z</time></trkpt><trkpt lat="45.772609161497705" lon="9.178306736012747"><ele>358.0</ele><time>2026-05-02T08:40:47.934Z</time></trkpt><trkpt lat="45.77271296962794" lon="9.178152177485044"><ele>358.0</ele><time>2026-05-02T08:40:48.934Z</time></trkpt><trkpt lat="45.77281903538228" lon="9.177995110498538"><ele>358.0</ele><time>2026-05-02T08:40:49.934Z</time></trkpt><trkpt lat="45.77292517443204" lon="9.177836551398395"><ele>358.0</ele><time>2026-05-02T08:40:50.934Z</time></trkpt><trkpt lat="45.773031127491834" lon="9.177678814014858"><ele>358.0</ele><time>2026-05-02T08:40:51.934Z</time></trkpt><trkpt lat="45.773138750284275" lon="9.17752168623637"><ele>358.0</ele><time>2026-05-02T08:40:52.934Z</time></trkpt><trkpt lat="45.773247358557114" lon="9.177365417313078"><ele>358.0</ele><time>2026-05-02T08:40:53.934Z</time></trkpt><trkpt lat="45.77335600687777" lon="9.177203409269415"><ele>358.0</ele><time>2026-05-02T08:40:54.934Z</time></trkpt><trkpt lat="45.77346553079157" lon="9.177037362673008"><ele>357.66666666666663</ele><time>2026-05-02T08:40:55.934Z</time></trkpt><trkpt lat="45.77357744989298" lon="9.176865907427917"><ele>357.3333333333333</ele><time>2026-05-02T08:40:56.934Z</time></trkpt><trkpt lat="45.77368998493425" lon="9.176690350380477"><ele>357.0</ele><time>2026-05-02T08:40:57.934Z</time></trkpt><trkpt lat="45.773803438389265" lon="9.176520857271145"><ele>357.0</ele><time>2026-05-02T08:40:58.934Z</time></trkpt><trkpt lat="45.77391615328898" lon="9.176357387657376"><ele>357.0</ele><time>2026-05-02T08:40:59.934Z</time></trkpt><trkpt lat="45.774026186707715" lon="9.176201160058243"><ele>357.0</ele><time>2026-05-02T08:41:00.934Z</time></trkpt><trkpt lat="45.77413209824247" lon="9.176051623202442"><ele>357.0</ele><time>2026-05-02T08:41:01.934Z</time></trkpt><trkpt lat="45.774229642804876" lon="9.175906315094734"><ele>357.0</ele><time>2026-05-02T08:41:02.934Z</time></trkpt><trkpt lat="45.774324980684675" lon="9.175773751224384"><ele>357.0</ele><time>2026-05-02T08:41:03.934Z</time></trkpt><trkpt lat="45.774418655603895" lon="9.17564233740166"><ele>357.0</ele><time>2026-05-02T08:41:04.934Z</time></trkpt><trkpt lat="45.77450985913648" lon="9.175512613972566"><ele>357.5</ele><time>2026-05-02T08:41:05.934Z</time></trkpt><trkpt lat="45.774600696294456" lon="9.175383642411044"><ele>358.0</ele><time>2026-05-02T08:41:06.934Z</time></trkpt><trkpt lat="45.774687740120946" lon="9.175257414675162"><ele>358.5</ele><time>2026-05-02T08:41:07.934Z</time></trkpt><trkpt lat="45.77477610603367" lon="9.175137775891457"><ele>359.0</ele><time>2026-05-02T08:41:08.934Z</time></trkpt><trkpt lat="45.77486068257743" lon="9.175024062405319"><ele>359.0</ele><time>2026-05-02T08:41:09.934Z</time></trkpt><trkpt lat="45.77494206862153" lon="9.1749103096535"><ele>359.0</ele><time>2026-05-02T08:41:10.934Z</time></trkpt><trkpt lat="45.775028898566205" lon="9.17478790930137"><ele>359.0</ele><time>2026-05-02T08:41:11.934Z</time></trkpt><trkpt lat="45.7751194343334" lon="9.174660300811519"><ele>359.0</ele><time>2026-05-02T08:41:12.934Z</time></trkpt><trkpt lat="45.77520895629654" lon="9.17453122541088"><ele>359.25</ele><time>2026-05-02T08:41:13.934Z</time></trkpt><trkpt lat="45.77529419801403" lon="9.17440466904365"><ele>359.5</ele><time>2026-05-02T08:41:14.934Z</time></trkpt><trkpt lat="45.77538066313964" lon="9.174282764021665"><ele>359.75</ele><time>2026-05-02T08:41:15.934Z</time></trkpt><trkpt lat="45.7754684797541" lon="9.174168848805053"><ele>360.0</ele><time>2026-05-02T08:41:16.934Z</time></trkpt><trkpt lat="45.77555081740858" lon="9.174069971802677"><ele>360.4</ele><time>2026-05-02T08:41:17.934Z</time></trkpt><trkpt lat="45.775629161463" lon="9.173982996227"><ele>360.8</ele><time>2026-05-02T08:41:18.934Z</time></trkpt><trkpt lat="45.77570481872016" lon="9.173908206067853"><ele>361.20000000000005</ele><time>2026-05-02T08:41:19.934Z</time></trkpt><trkpt lat="45.77577693789042" lon="9.173835649697788"><ele>361.6</ele><time>2026-05-02T08:41:20.934Z</time></trkpt><trkpt lat="45.77584861518709" lon="9.17376684989987"><ele>362.0</ele><time>2026-05-02T08:41:21.934Z</time></trkpt><trkpt lat="45.775919913825774" lon="9.173698566903912"><ele>362.0</ele><time>2026-05-02T08:41:22.934Z</time></trkpt><trkpt lat="45.7759839070173" lon="9.173648728676689"><ele>362.0</ele><time>2026-05-02T08:41:23.934Z</time></trkpt><trkpt lat="45.77606544187754" lon="9.173594404252876"><ele>362.0</ele><time>2026-05-02T08:41:25.934Z</time></trkpt><trkpt lat="45.77613934720387" lon="9.173546824255585"><ele>362.0</ele><time>2026-05-02T08:41:27.934Z</time></trkpt><trkpt lat="45.7762671849808" lon="9.173487497723315"><ele>362.0</ele><time>2026-05-02T08:41:29.934Z</time></trkpt><trkpt lat="45.776326588041115" lon="9.173406815967418"><ele>362.25</ele><time>2026-05-02T08:41:30.934Z</time></trkpt><trkpt lat="45.77639037510357" lon="9.17329943492297"><ele>362.5</ele><time>2026-05-02T08:41:31.934Z</time></trkpt><trkpt lat="45.776461186922575" lon="9.173174562948013"><ele>362.75</ele><time>2026-05-02T08:41:32.934Z</time></trkpt><trkpt lat="45.77654647690336" lon="9.173059123575495"><ele>363.0</ele><time>2026-05-02T08:41:33.934Z</time></trkpt><trkpt lat="45.77664401120635" lon="9.17294436200343"><ele>363.0</ele><time>2026-05-02T08:41:34.934Z</time></trkpt><trkpt lat="45.77675423630709" lon="9.172828999608168"><ele>363.0</ele><time>2026-05-02T08:41:35.934Z</time></trkpt><trkpt lat="45.776873623975014" lon="9.172698498442394"><ele>363.0</ele><time>2026-05-02T08:41:36.934Z</time></trkpt><trkpt lat="45.77699222778829" lon="9.172569275575091"><ele>363.0</ele><time>2026-05-02T08:41:37.934Z</time></trkpt><trkpt lat="45.77710632951284" lon="9.172450165686065"><ele>363.5</ele><time>2026-05-02T08:41:38.934Z</time></trkpt><trkpt lat="45.777222519509394" lon="9.17232981946248"><ele>364.0</ele><time>2026-05-02T08:41:39.934Z</time></trkpt><trkpt lat="45.77733926274157" lon="9.172215956187786"><ele>364.5</ele><time>2026-05-02T08:41:40.934Z</time></trkpt><trkpt lat="45.77745755373252" lon="9.172099592165178"><ele>365.0</ele><time>2026-05-02T08:41:41.933Z</time></trkpt><trkpt lat="45.77757463336648" lon="9.171980330400666"><ele>366.0</ele><time>2026-05-02T08:41:42.933Z</time></trkpt><trkpt lat="45.777687978172146" lon="9.171863473755499"><ele>367.0</ele><time>2026-05-02T08:41:43.933Z</time></trkpt><trkpt lat="45.777802591374225" lon="9.171758805408228"><ele>368.0</ele><time>2026-05-02T08:41:44.933Z</time></trkpt><trkpt lat="45.77792435345218" lon="9.171656537515522"><ele>369.0</ele><time>2026-05-02T08:41:45.934Z</time></trkpt><trkpt lat="45.77803601878488" lon="9.171552873668233"><ele>368.2</ele><time>2026-05-02T08:41:46.934Z</time></trkpt><trkpt lat="45.778140396931924" lon="9.171454862215715"><ele>367.4</ele><time>2026-05-02T08:41:47.934Z</time></trkpt><trkpt lat="45.77823846739505" lon="9.171362960967095"><ele>366.6</ele><time>2026-05-02T08:41:48.933Z</time></trkpt><trkpt lat="45.77832585272365" lon="9.17127492997692"><ele>365.8</ele><time>2026-05-02T08:41:49.933Z</time></trkpt><trkpt lat="45.7784056965378" lon="9.17119030972179"><ele>365.0</ele><time>2026-05-02T08:41:50.933Z</time></trkpt><trkpt lat="45.77848419267954" lon="9.171117248522405"><ele>365.6666666666667</ele><time>2026-05-02T08:41:51.933Z</time></trkpt><trkpt lat="45.778558818578176" lon="9.171041773046253"><ele>366.33333333333337</ele><time>2026-05-02T08:41:52.933Z</time></trkpt><trkpt lat="45.77863363786348" lon="9.17097757290678"><ele>367.0</ele><time>2026-05-02T08:41:53.933Z</time></trkpt><trkpt lat="45.778705826845645" lon="9.170923959767492"><ele>367.6666666666667</ele><time>2026-05-02T08:41:54.933Z</time></trkpt><trkpt lat="45.77878301268156" lon="9.170888331363319"><ele>368.3333333333333</ele><time>2026-05-02T08:41:55.933Z</time></trkpt><trkpt lat="45.77886848162392" lon="9.170875127681603"><ele>369.0</ele><time>2026-05-02T08:41:56.933Z</time></trkpt><trkpt lat="45.778946327677104" lon="9.170875539875903"><ele>369.0</ele><time>2026-05-02T08:41:57.933Z</time></trkpt><trkpt lat="45.77902185361764" lon="9.1708440128177"><ele>369.0</ele><time>2026-05-02T08:41:58.933Z</time></trkpt><trkpt lat="45.779101900086324" lon="9.170793546731236"><ele>369.0</ele><time>2026-05-02T08:41:59.933Z</time></trkpt><trkpt lat="45.779145118475945" lon="9.170652623476581"><ele>369.0</ele><time>2026-05-02T08:42:00.933Z</time></trkpt><trkpt lat="45.77920034725816" lon="9.170514961734124"><ele>369.0</ele><time>2026-05-02T08:42:01.933Z</time></trkpt><trkpt lat="45.77926399698659" lon="9.170383612291449"><ele>369.0</ele><time>2026-05-02T08:42:02.933Z</time></trkpt><trkpt lat="45.77940521973184" lon="9.17016636681213"><ele>369.0</ele><time>2026-05-02T08:42:04.933Z</time></trkpt><trkpt lat="45.77947765848673" lon="9.170055241784212"><ele>369.0</ele><time>2026-05-02T08:42:05.933Z</time></trkpt><trkpt lat="45.77955962766411" lon="9.169938926533533"><ele>369.0</ele><time>2026-05-02T08:42:06.933Z</time></trkpt><trkpt lat="45.779659736736754" lon="9.169830255573322"><ele>368.25</ele><time>2026-05-02T08:42:07.933Z</time></trkpt><trkpt lat="45.77976773053217" lon="9.16971964540228"><ele>367.5</ele><time>2026-05-02T08:42:08.933Z</time></trkpt><trkpt lat="45.779883513776156" lon="9.169615774909381"><ele>366.75</ele><time>2026-05-02T08:42:09.933Z</time></trkpt><trkpt lat="45.77998711062734" lon="9.16948526306585"><ele>366.0</ele><time>2026-05-02T08:42:10.933Z</time></trkpt><trkpt lat="45.7800907637279" lon="9.16935097746827"><ele>366.75</ele><time>2026-05-02T08:42:11.933Z</time></trkpt><trkpt lat="45.78018475776382" lon="9.169195959903965"><ele>367.5</ele><time>2026-05-02T08:42:12.933Z</time></trkpt><trkpt lat="45.780288579059906" lon="9.16906405541195"><ele>368.25</ele><time>2026-05-02T08:42:13.933Z</time></trkpt><trkpt lat="45.78040619099099" lon="9.1689598599231"><ele>369.0</ele><time>2026-05-02T08:42:14.933Z</time></trkpt><trkpt lat="45.78050909239008" lon="9.16882113269769"><ele>369.0</ele><time>2026-05-02T08:42:15.933Z</time></trkpt><trkpt lat="45.78061433537271" lon="9.168680746481446"><ele>369.0</ele><time>2026-05-02T08:42:16.933Z</time></trkpt><trkpt lat="45.78072097077345" lon="9.168536470979111"><ele>369.0</ele><time>2026-05-02T08:42:17.933Z</time></trkpt><trkpt lat="45.78082864399341" lon="9.168391046564082"><ele>369.0</ele><time>2026-05-02T08:42:18.933Z</time></trkpt><trkpt lat="45.78093830074444" lon="9.1682456749031"><ele>369.3333333333333</ele><time>2026-05-02T08:42:19.933Z</time></trkpt><trkpt lat="45.78105238716329" lon="9.168092367114086"><ele>369.66666666666663</ele><time>2026-05-02T08:42:20.933Z</time></trkpt><trkpt lat="45.78116999864791" lon="9.167937052534958"><ele>370.0</ele><time>2026-05-02T08:42:21.933Z</time></trkpt><trkpt lat="45.78128344559126" lon="9.167780435254045"><ele>370.0</ele><time>2026-05-02T08:42:22.933Z</time></trkpt><trkpt lat="45.781397060233886" lon="9.167624893590085"><ele>370.0</ele><time>2026-05-02T08:42:23.933Z</time></trkpt><trkpt lat="45.78151136153685" lon="9.167473127272643"><ele>370.0</ele><time>2026-05-02T08:42:24.933Z</time></trkpt><trkpt lat="45.78162198749296" lon="9.167321805590571"><ele>370.0</ele><time>2026-05-02T08:42:25.933Z</time></trkpt><trkpt lat="45.781729642809964" lon="9.167172151850117"><ele>370.0</ele><time>2026-05-02T08:42:26.933Z</time></trkpt><trkpt lat="45.78183848296894" lon="9.167028159007387"><ele>370.0</ele><time>2026-05-02T08:42:27.933Z</time></trkpt><trkpt lat="45.78194378417571" lon="9.166890892042293"><ele>370.0</ele><time>2026-05-02T08:42:28.933Z</time></trkpt><trkpt lat="45.78204470854619" lon="9.1667546632366"><ele>371.0</ele><time>2026-05-02T08:42:29.933Z</time></trkpt><trkpt lat="45.78214269052222" lon="9.166621898538088"><ele>372.0</ele><time>2026-05-02T08:42:30.933Z</time></trkpt><trkpt lat="45.782241609038905" lon="9.166483543776788"><ele>373.0</ele><time>2026-05-02T08:42:31.933Z</time></trkpt><trkpt lat="45.782343833602496" lon="9.166343485914359"><ele>374.0</ele><time>2026-05-02T08:42:32.933Z</time></trkpt><trkpt lat="45.78244550058653" lon="9.166198534889554"><ele>374.0</ele><time>2026-05-02T08:42:33.933Z</time></trkpt><trkpt lat="45.78255165700954" lon="9.166051054415556"><ele>374.0</ele><time>2026-05-02T08:42:34.933Z</time></trkpt><trkpt lat="45.78265801655687" lon="9.165905256736169"><ele>374.0</ele><time>2026-05-02T08:42:35.933Z</time></trkpt><trkpt lat="45.782768206401094" lon="9.165761854994141"><ele>374.0</ele><time>2026-05-02T08:42:36.933Z</time></trkpt><trkpt lat="45.782877633421464" lon="9.165615633918819"><ele>374.33333333333337</ele><time>2026-05-02T08:42:37.933Z</time></trkpt><trkpt lat="45.783004634928986" lon="9.165493157355348"><ele>374.6666666666667</ele><time>2026-05-02T08:42:38.933Z</time></trkpt><trkpt lat="45.783117871772575" lon="9.16534811736479"><ele>375.0</ele><time>2026-05-02T08:42:39.933Z</time></trkpt><trkpt lat="45.78323359556274" lon="9.165198901241888"><ele>375.0</ele><time>2026-05-02T08:42:40.933Z</time></trkpt><trkpt lat="45.78334949137479" lon="9.165043722164475"><ele>375.0</ele><time>2026-05-02T08:42:41.933Z</time></trkpt><trkpt lat="45.783453173944906" lon="9.164874829743237"><ele>375.0</ele><time>2026-05-02T08:42:42.933Z</time></trkpt><trkpt lat="45.78357098483681" lon="9.16472270298935"><ele>375.0</ele><time>2026-05-02T08:42:43.933Z</time></trkpt><trkpt lat="45.7836863236231" lon="9.164570136731436"><ele>375.0</ele><time>2026-05-02T08:42:44.933Z</time></trkpt><trkpt lat="45.783801441822284" lon="9.164416700692637"><ele>375.0</ele><time>2026-05-02T08:42:45.933Z</time></trkpt><trkpt lat="45.78391479106311" lon="9.164265747160618"><ele>375.0</ele><time>2026-05-02T08:42:46.933Z</time></trkpt><trkpt lat="45.78402762876104" lon="9.164121108869656"><ele>375.0</ele><time>2026-05-02T08:42:47.933Z</time></trkpt><trkpt lat="45.784137937727905" lon="9.163979111703192"><ele>375.0</ele><time>2026-05-02T08:42:48.933Z</time></trkpt><trkpt lat="45.784243588975855" lon="9.163833133379732"><ele>375.0</ele><time>2026-05-02T08:42:49.933Z</time></trkpt><trkpt lat="45.784347514082064" lon="9.163688681316223"><ele>375.5</ele><time>2026-05-02T08:42:50.933Z</time></trkpt><trkpt lat="45.78447089430963" lon="9.16356799146422"><ele>376.0</ele><time>2026-05-02T08:42:51.933Z</time></trkpt><trkpt lat="45.78457038929371" lon="9.163427381076303"><ele>376.5</ele><time>2026-05-02T08:42:52.933Z</time></trkpt><trkpt lat="45.784670403395275" lon="9.163281952786045"><ele>377.0</ele><time>2026-05-02T08:42:53.933Z</time></trkpt><trkpt lat="45.784771286342654" lon="9.163137538481744"><ele>377.0</ele><time>2026-05-02T08:42:54.933Z</time></trkpt><trkpt lat="45.784875495572116" lon="9.162995213666386"><ele>377.0</ele><time>2026-05-02T08:42:55.933Z</time></trkpt><trkpt lat="45.784980239591185" lon="9.16285361256297"><ele>377.0</ele><time>2026-05-02T08:42:56.933Z</time></trkpt><trkpt lat="45.78508586200114" lon="9.162705259650908"><ele>377.0</ele><time>2026-05-02T08:42:57.933Z</time></trkpt><trkpt lat="45.78519350902014" lon="9.162561710371056"><ele>377.25</ele><time>2026-05-02T08:42:58.933Z</time></trkpt><trkpt lat="45.7853036613699" lon="9.162414295515346"><ele>377.5</ele><time>2026-05-02T08:42:59.933Z</time></trkpt><trkpt lat="45.78541220696565" lon="9.162267185562992"><ele>377.75</ele><time>2026-05-02T08:43:00.933Z</time></trkpt><trkpt lat="45.785520444070094" lon="9.162120933096618"><ele>378.0</ele><time>2026-05-02T08:43:01.933Z</time></trkpt><trkpt lat="45.78563073489076" lon="9.161976810118865"><ele>378.5</ele><time>2026-05-02T08:43:02.933Z</time></trkpt><trkpt lat="45.7857388291936" lon="9.161834707594847"><ele>379.0</ele><time>2026-05-02T08:43:03.933Z</time></trkpt><trkpt lat="45.78584865382286" lon="9.161690473468603"><ele>379.5</ele><time>2026-05-02T08:43:04.933Z</time></trkpt><trkpt lat="45.78595938511076" lon="9.16154752634615"><ele>380.0</ele><time>2026-05-02T08:43:05.933Z</time></trkpt><trkpt lat="45.786073822473966" lon="9.161400546537786"><ele>381.33333333333337</ele><time>2026-05-02T08:43:06.933Z</time></trkpt><trkpt lat="45.78618824043436" lon="9.161252672876355"><ele>382.6666666666667</ele><time>2026-05-02T08:43:07.933Z</time></trkpt><trkpt lat="45.786302121257386" lon="9.161102961955262"><ele>384.0</ele><time>2026-05-02T08:43:08.933Z</time></trkpt><trkpt lat="45.78641276344602" lon="9.160951262722495"><ele>384.0</ele><time>2026-05-02T08:43:09.933Z</time></trkpt><trkpt lat="45.78651845948555" lon="9.160795835468871"><ele>384.0</ele><time>2026-05-02T08:43:10.933Z</time></trkpt><trkpt lat="45.786638838983265" lon="9.16066115855999"><ele>384.0</ele><time>2026-05-02T08:43:11.933Z</time></trkpt><trkpt lat="45.78674955278526" lon="9.160514148230892"><ele>384.66666666666663</ele><time>2026-05-02T08:43:12.933Z</time></trkpt><trkpt lat="45.7868589266567" lon="9.160368336195635"><ele>385.3333333333333</ele><time>2026-05-02T08:43:13.933Z</time></trkpt><trkpt lat="45.786968717209604" lon="9.160221918319833"><ele>386.0</ele><time>2026-05-02T08:43:14.933Z</time></trkpt><trkpt lat="45.78708277615912" lon="9.160069808050368"><ele>386.0</ele><time>2026-05-02T08:43:15.933Z</time></trkpt><trkpt lat="45.787196118788124" lon="9.159918653094115"><ele>386.0</ele><time>2026-05-02T08:43:16.933Z</time></trkpt><trkpt lat="45.78730128538152" lon="9.159778401800372"><ele>386.0</ele><time>2026-05-02T08:43:17.933Z</time></trkpt><trkpt lat="45.78739879959765" lon="9.159648355775852"><ele>386.0</ele><time>2026-05-02T08:43:18.933Z</time></trkpt><trkpt lat="45.78750028561811" lon="9.15953113162084"><ele>386.5</ele><time>2026-05-02T08:43:19.933Z</time></trkpt><trkpt lat="45.787593685380614" lon="9.15940618586406"><ele>387.0</ele><time>2026-05-02T08:43:20.933Z</time></trkpt><trkpt lat="45.787689415937194" lon="9.159277639875826"><ele>387.5</ele><time>2026-05-02T08:43:21.933Z</time></trkpt><trkpt lat="45.7877849332101" lon="9.159151016379534"><ele>388.0</ele><time>2026-05-02T08:43:22.933Z</time></trkpt><trkpt lat="45.78787029239359" lon="9.159033237112274"><ele>388.2</ele><time>2026-05-02T08:43:23.933Z</time></trkpt><trkpt lat="45.78795389937599" lon="9.15892326674815"><ele>388.4</ele><time>2026-05-02T08:43:24.933Z</time></trkpt><trkpt lat="45.788031769532715" lon="9.158816668014323"><ele>388.59999999999997</ele><time>2026-05-02T08:43:25.933Z</time></trkpt><trkpt lat="45.788109424358595" lon="9.158720238487037"><ele>388.79999999999995</ele><time>2026-05-02T08:43:26.933Z</time></trkpt><trkpt lat="45.78818643852568" lon="9.158627569227068"><ele>389.0</ele><time>2026-05-02T08:43:27.933Z</time></trkpt><trkpt lat="45.7882625224925" lon="9.15853488037875"><ele>388.99999999999994</ele><time>2026-05-02T08:43:28.933Z</time></trkpt><trkpt lat="45.78834136788583" lon="9.158450242769346"><ele>389.0</ele><time>2026-05-02T08:43:29.933Z</time></trkpt><trkpt lat="45.78841549757264" lon="9.158371826328917"><ele>389.0</ele><time>2026-05-02T08:43:30.933Z</time></trkpt><trkpt lat="45.78848531062694" lon="9.158303487645151"><ele>389.0</ele><time>2026-05-02T08:43:31.933Z</time></trkpt><trkpt lat="45.788553422482536" lon="9.158243084521844"><ele>388.99999999999994</ele><time>2026-05-02T08:43:32.933Z</time></trkpt><trkpt lat="45.78863221359029" lon="9.158190458975806"><ele>389.0</ele><time>2026-05-02T08:43:33.933Z</time></trkpt><trkpt lat="45.788715159485506" lon="9.158142163360337"><ele>389.0</ele><time>2026-05-02T08:43:34.933Z</time></trkpt><trkpt lat="45.78881239762151" lon="9.158114424981807"><ele>389.0</ele><time>2026-05-02T08:43:35.933Z</time></trkpt><trkpt lat="45.78890532259509" lon="9.15809720480662"><ele>389.0</ele><time>2026-05-02T08:43:36.933Z</time></trkpt><trkpt lat="45.78899863926547" lon="9.158114199620927"><ele>389.0</ele><time>2026-05-02T08:43:37.933Z</time></trkpt><trkpt lat="45.78909106675779" lon="9.158154885705367"><ele>389.0</ele><time>2026-05-02T08:43:38.933Z</time></trkpt><trkpt lat="45.789184176759996" lon="9.15821118211574"><ele>389.2</ele><time>2026-05-02T08:43:39.933Z</time></trkpt><trkpt lat="45.78927697432829" lon="9.158263502562086"><ele>389.4</ele><time>2026-05-02T08:43:40.933Z</time></trkpt><trkpt lat="45.78937600594139" lon="9.158314473274562"><ele>389.6</ele><time>2026-05-02T08:43:41.933Z</time></trkpt><trkpt lat="45.78947165081822" lon="9.158356750208588"><ele>389.8</ele><time>2026-05-02T08:43:42.933Z</time></trkpt><trkpt lat="45.789567357457805" lon="9.158404454626982"><ele>390.0</ele><time>2026-05-02T08:43:43.933Z</time></trkpt><trkpt lat="45.78966452246089" lon="9.158455705616367"><ele>390.0</ele><time>2026-05-02T08:43:44.933Z</time></trkpt><trkpt lat="45.789767646274946" lon="9.158506356603523"><ele>390.0</ele><time>2026-05-02T08:43:45.933Z</time></trkpt><trkpt lat="45.78987166622381" lon="9.158558157719876"><ele>390.0</ele><time>2026-05-02T08:43:46.933Z</time></trkpt><trkpt lat="45.78997565060841" lon="9.158612002650473"><ele>390.0</ele><time>2026-05-02T08:43:47.931Z</time></trkpt><trkpt lat="45.79008152541995" lon="9.158658223503613"><ele>390.0</ele><time>2026-05-02T08:43:48.932Z</time></trkpt><trkpt lat="45.79018334589688" lon="9.158730683188688"><ele>390.5</ele><time>2026-05-02T08:43:49.932Z</time></trkpt><trkpt lat="45.79028737528081" lon="9.158784504173013"><ele>391.0</ele><time>2026-05-02T08:43:50.931Z</time></trkpt><trkpt lat="45.79039035648514" lon="9.158837810817412"><ele>391.5</ele><time>2026-05-02T08:43:51.932Z</time></trkpt><trkpt lat="45.79049359995431" lon="9.15889125325044"><ele>392.0</ele><time>2026-05-02T08:43:52.932Z</time></trkpt><trkpt lat="45.79060855713112" lon="9.15894468740671"><ele>392.0</ele><time>2026-05-02T08:43:53.932Z</time></trkpt><trkpt lat="45.790721516935626" lon="9.159004182553861"><ele>392.0</ele><time>2026-05-02T08:43:54.931Z</time></trkpt><trkpt lat="45.790835131483476" lon="9.159047094351044"><ele>392.0</ele><time>2026-05-02T08:43:55.931Z</time></trkpt><trkpt lat="45.79094632975492" lon="9.159081762373878"><ele>392.0</ele><time>2026-05-02T08:43:56.931Z</time></trkpt><trkpt lat="45.79106976627733" lon="9.159125184598718"><ele>393.0</ele><time>2026-05-02T08:43:57.931Z</time></trkpt><trkpt lat="45.791183906165934" lon="9.159164751203905"><ele>394.0</ele><time>2026-05-02T08:43:58.931Z</time></trkpt><trkpt lat="45.791307118431" lon="9.159196329588617"><ele>395.0</ele><time>2026-05-02T08:43:59.931Z</time></trkpt><trkpt lat="45.791425629190876" lon="9.159233404929315"><ele>396.0</ele><time>2026-05-02T08:44:00.931Z</time></trkpt><trkpt lat="45.791543287780385" lon="9.15926828051394"><ele>396.0</ele><time>2026-05-02T08:44:01.931Z</time></trkpt><trkpt lat="45.791660176053576" lon="9.159303039818257"><ele>396.0</ele><time>2026-05-02T08:44:02.931Z</time></trkpt><trkpt lat="45.791778457169244" lon="9.159330373853797"><ele>396.0</ele><time>2026-05-02T08:44:03.931Z</time></trkpt><trkpt lat="45.7918947810278" lon="9.15936650957803"><ele>396.0</ele><time>2026-05-02T08:44:04.931Z</time></trkpt><trkpt lat="45.792014249732475" lon="9.159403777437298"><ele>395.75</ele><time>2026-05-02T08:44:05.931Z</time></trkpt><trkpt lat="45.79213743594403" lon="9.159432029726982"><ele>395.5</ele><time>2026-05-02T08:44:06.931Z</time></trkpt><trkpt lat="45.79225870318101" lon="9.159453247152161"><ele>395.25</ele><time>2026-05-02T08:44:07.931Z</time></trkpt><trkpt lat="45.792380977370854" lon="9.159482010733692"><ele>395.0</ele><time>2026-05-02T08:44:08.931Z</time></trkpt><trkpt lat="45.79249857548227" lon="9.159509397066003"><ele>395.0</ele><time>2026-05-02T08:44:09.931Z</time></trkpt><trkpt lat="45.792608178996986" lon="9.159536553154014"><ele>395.0</ele><time>2026-05-02T08:44:10.931Z</time></trkpt><trkpt lat="45.79272255270018" lon="9.15955572178015"><ele>395.0</ele><time>2026-05-02T08:44:11.931Z</time></trkpt><trkpt lat="45.79282307765282" lon="9.159583823120062"><ele>395.0</ele><time>2026-05-02T08:44:12.931Z</time></trkpt><trkpt lat="45.79292752271845" lon="9.159603908744367"><ele>395.0</ele><time>2026-05-02T08:44:13.931Z</time></trkpt><trkpt lat="45.79303549049883" lon="9.159618069267827"><ele>395.2</ele><time>2026-05-02T08:44:14.931Z</time></trkpt><trkpt lat="45.79314200309614" lon="9.159627293003382"><ele>395.4</ele><time>2026-05-02T08:44:15.931Z</time></trkpt><trkpt lat="45.79324816193192" lon="9.159658140223005"><ele>395.6</ele><time>2026-05-02T08:44:16.931Z</time></trkpt><trkpt lat="45.7933516693525" lon="9.159681646758582"><ele>395.8</ele><time>2026-05-02T08:44:17.931Z</time></trkpt><trkpt lat="45.79345030419952" lon="9.159703330134521"><ele>396.0</ele><time>2026-05-02T08:44:18.931Z</time></trkpt><trkpt lat="45.79353705349734" lon="9.159751070716604"><ele>396.1666666666667</ele><time>2026-05-02T08:44:19.931Z</time></trkpt><trkpt lat="45.79360096677511" lon="9.159766076941718"><ele>396.33333333333337</ele><time>2026-05-02T08:44:20.931Z</time></trkpt><trkpt lat="45.79370893300253" lon="9.159800752419944"><ele>396.5</ele><time>2026-05-02T08:44:22.931Z</time></trkpt><trkpt lat="45.793796040557" lon="9.15982254958268"><ele>396.6666666666667</ele><time>2026-05-02T08:44:24.931Z</time></trkpt><trkpt lat="45.79386534720985" lon="9.159831525789782"><ele>396.83333333333337</ele><time>2026-05-02T08:44:26.931Z</time></trkpt><trkpt lat="45.793958475393815" lon="9.159833971480726"><ele>397.0</ele><time>2026-05-02T08:44:28.931Z</time></trkpt><trkpt lat="45.79403423347265" lon="9.159827159488184"><ele>397.0</ele><time>2026-05-02T08:44:30.931Z</time></trkpt><trkpt lat="45.79410333556575" lon="9.159841863086669"><ele>397.0</ele><time>2026-05-02T08:44:38.931Z</time></trkpt><trkpt lat="45.794162731075026" lon="9.159877866834263"><ele>397.0</ele><time>2026-05-02T08:44:40.931Z</time></trkpt><trkpt lat="45.7942340181547" lon="9.159895224385172"><ele>397.0</ele><time>2026-05-02T08:44:43.931Z</time></trkpt><trkpt lat="45.79430914501232" lon="9.159891969315124"><ele>397.0</ele><time>2026-05-02T08:44:54.931Z</time></trkpt><trkpt lat="45.794372492054784" lon="9.159913269319858"><ele>397.0</ele><time>2026-05-02T08:45:01.931Z</time></trkpt><trkpt lat="45.794431687860595" lon="9.159947600924538"><ele>397.0</ele><time>2026-05-02T08:45:09.931Z</time></trkpt><trkpt lat="45.79450239699337" lon="9.159986595416985"><ele>398.0</ele><time>2026-05-02T08:45:16.931Z</time></trkpt><trkpt lat="45.79456100919762" lon="9.160074583716222"><ele>399.0</ele><time>2026-05-02T08:45:18.931Z</time></trkpt><trkpt lat="45.794618895877896" lon="9.160202071922203"><ele>400.0</ele><time>2026-05-02T08:45:20.931Z</time></trkpt><trkpt lat="45.794634296073376" lon="9.16038209037934"><ele>401.0</ele><time>2026-05-02T08:45:22.931Z</time></trkpt><trkpt lat="45.79463781411334" lon="9.160478420918704"><ele>402.0</ele><time>2026-05-02T08:45:23.931Z</time></trkpt><trkpt lat="45.794644895155656" lon="9.160578386551565"><ele>402.0</ele><time>2026-05-02T08:45:24.931Z</time></trkpt><trkpt lat="45.79466546050932" lon="9.160676756600065"><ele>402.0</ele><time>2026-05-02T08:45:25.931Z</time></trkpt><trkpt lat="45.79465145093479" lon="9.160804259198878"><ele>402.0</ele><time>2026-05-02T08:45:26.931Z</time></trkpt><trkpt lat="45.79464447279142" lon="9.16093444274032"><ele>402.0</ele><time>2026-05-02T08:45:27.931Z</time></trkpt><trkpt lat="45.794644002969974" lon="9.161078729154285"><ele>402.0</ele><time>2026-05-02T08:45:28.931Z</time></trkpt><trkpt lat="45.79463752631621" lon="9.161234844494835"><ele>402.0</ele><time>2026-05-02T08:45:29.931Z</time></trkpt><trkpt lat="45.79462666357465" lon="9.161397685024687"><ele>402.0</ele><time>2026-05-02T08:45:30.931Z</time></trkpt><trkpt lat="45.794608525055146" lon="9.161562161983698"><ele>402.0</ele><time>2026-05-02T08:45:31.931Z</time></trkpt><trkpt lat="45.794585944745364" lon="9.161728903194508"><ele>402.0</ele><time>2026-05-02T08:45:32.931Z</time></trkpt><trkpt lat="45.79456573371865" lon="9.16189861287419"><ele>400.5</ele><time>2026-05-02T08:45:33.931Z</time></trkpt><trkpt lat="45.7945500656475" lon="9.162066224199814"><ele>399.0</ele><time>2026-05-02T08:45:34.931Z</time></trkpt><trkpt lat="45.79450511368727" lon="9.162222820182016"><ele>397.5</ele><time>2026-05-02T08:45:35.931Z</time></trkpt><trkpt lat="45.794473140741694" lon="9.162381077735052"><ele>396.0</ele><time>2026-05-02T08:45:36.931Z</time></trkpt><trkpt lat="45.79444139264748" lon="9.162538222249335"><ele>395.5</ele><time>2026-05-02T08:45:37.931Z</time></trkpt><trkpt lat="45.79442952309751" lon="9.162705365657125"><ele>395.0</ele><time>2026-05-02T08:45:38.931Z</time></trkpt><trkpt lat="45.79440221348572" lon="9.162866590796673"><ele>394.5</ele><time>2026-05-02T08:45:39.931Z</time></trkpt><trkpt lat="45.79436978596973" lon="9.163017460386307"><ele>394.0</ele><time>2026-05-02T08:45:40.931Z</time></trkpt><trkpt lat="45.794338711851246" lon="9.163164542070618"><ele>393.79999999999995</ele><time>2026-05-02T08:45:41.931Z</time></trkpt><trkpt lat="45.79431029191802" lon="9.163309115809055"><ele>393.59999999999997</ele><time>2026-05-02T08:45:42.931Z</time></trkpt><trkpt lat="45.79428113564795" lon="9.163450990260301"><ele>393.4</ele><time>2026-05-02T08:45:43.931Z</time></trkpt><trkpt lat="45.79422699072262" lon="9.163576484351935"><ele>393.2</ele><time>2026-05-02T08:45:44.931Z</time></trkpt><trkpt lat="45.79419946594571" lon="9.163710959386739"><ele>393.0</ele><time>2026-05-02T08:45:45.931Z</time></trkpt><trkpt lat="45.79417283298944" lon="9.163841729472034"><ele>393.0</ele><time>2026-05-02T08:45:46.931Z</time></trkpt><trkpt lat="45.7941481787643" lon="9.163962392556371"><ele>393.0</ele><time>2026-05-02T08:45:47.931Z</time></trkpt><trkpt lat="45.79411599260235" lon="9.164070376809317"><ele>393.0</ele><time>2026-05-02T08:45:48.931Z</time></trkpt><trkpt lat="45.7940958595341" lon="9.16417004937327"><ele>393.0</ele><time>2026-05-02T08:45:49.931Z</time></trkpt><trkpt lat="45.794078389971396" lon="9.164257335647893"><ele>393.0</ele><time>2026-05-02T08:45:50.931Z</time></trkpt><trkpt lat="45.79405065240918" lon="9.164413144343738"><ele>393.0</ele><time>2026-05-02T08:45:52.931Z</time></trkpt><trkpt lat="45.79402428094458" lon="9.164553947527798"><ele>392.79999999999995</ele><time>2026-05-02T08:45:54.93Z</time></trkpt><trkpt lat="45.79399967265991" lon="9.164684192566325"><ele>392.6</ele><time>2026-05-02T08:45:56.929Z</time></trkpt><trkpt lat="45.793975201637444" lon="9.164818343608633"><ele>392.4</ele><time>2026-05-02T08:45:58.929Z</time></trkpt><trkpt lat="45.79394768088848" lon="9.164954674623399"><ele>392.20000000000005</ele><time>2026-05-02T08:46:00.929Z</time></trkpt><trkpt lat="45.79392715521619" lon="9.165076978626407"><ele>392.0</ele><time>2026-05-02T08:46:02.93Z</time></trkpt><trkpt lat="45.79390830148867" lon="9.16518250304551"><ele>391.8333333333333</ele><time>2026-05-02T08:46:04.929Z</time></trkpt><trkpt lat="45.793895277091345" lon="9.165273776671476"><ele>391.66666666666663</ele><time>2026-05-02T08:46:06.929Z</time></trkpt><trkpt lat="45.79385902867237" lon="9.165357213435463"><ele>391.5</ele><time>2026-05-02T08:46:08.929Z</time></trkpt><trkpt lat="45.79384031192261" lon="9.165472294642466"><ele>391.33333333333337</ele><time>2026-05-02T08:46:11.929Z</time></trkpt><trkpt lat="45.79381503843151" lon="9.165591437462865"><ele>391.1666666666667</ele><time>2026-05-02T08:46:13.929Z</time></trkpt><trkpt lat="45.793773078510185" lon="9.165766701208673"><ele>391.0</ele><time>2026-05-02T08:46:15.929Z</time></trkpt><trkpt lat="45.79375931726433" lon="9.16587438850387"><ele>391.00000000000006</ele><time>2026-05-02T08:46:16.929Z</time></trkpt><trkpt lat="45.79374164576788" lon="9.165990421340952"><ele>391.0</ele><time>2026-05-02T08:46:17.929Z</time></trkpt><trkpt lat="45.793722313640735" lon="9.16610724413421"><ele>391.0</ele><time>2026-05-02T08:46:18.93Z</time></trkpt><trkpt lat="45.79369638830685" lon="9.166228721190599"><ele>391.0</ele><time>2026-05-02T08:46:19.93Z</time></trkpt><trkpt lat="45.79366632615769" lon="9.166357128366018"><ele>391.00000000000006</ele><time>2026-05-02T08:46:20.93Z</time></trkpt><trkpt lat="45.79363537786625" lon="9.166491828926983"><ele>391.0</ele><time>2026-05-02T08:46:21.93Z</time></trkpt><trkpt lat="45.793603164469275" lon="9.16662897635658"><ele>391.4</ele><time>2026-05-02T08:46:22.93Z</time></trkpt><trkpt lat="45.79357422508577" lon="9.166775354170491"><ele>391.8</ele><time>2026-05-02T08:46:23.93Z</time></trkpt><trkpt lat="45.79355061196463" lon="9.166920571264479"><ele>392.2</ele><time>2026-05-02T08:46:24.93Z</time></trkpt><trkpt lat="45.79353286687245" lon="9.167064774272355"><ele>392.59999999999997</ele><time>2026-05-02T08:46:25.93Z</time></trkpt><trkpt lat="45.79351930679197" lon="9.1672054455148"><ele>393.0</ele><time>2026-05-02T08:46:26.93Z</time></trkpt><trkpt lat="45.79350955647151" lon="9.167348599885576"><ele>392.79999999999995</ele><time>2026-05-02T08:46:27.93Z</time></trkpt><trkpt lat="45.79350185692603" lon="9.167484277214134"><ele>392.6</ele><time>2026-05-02T08:46:28.93Z</time></trkpt><trkpt lat="45.79349569058433" lon="9.167624082348498"><ele>392.4</ele><time>2026-05-02T08:46:29.93Z</time></trkpt><trkpt lat="45.79349511636472" lon="9.167773975009448"><ele>392.20000000000005</ele><time>2026-05-02T08:46:30.93Z</time></trkpt><trkpt lat="45.793492264811704" lon="9.167922880959335"><ele>392.0</ele><time>2026-05-02T08:46:31.93Z</time></trkpt><trkpt lat="45.793495461002" lon="9.168067809407745"><ele>392.6</ele><time>2026-05-02T08:46:32.93Z</time></trkpt><trkpt lat="45.793500092241935" lon="9.168217508788027"><ele>393.20000000000005</ele><time>2026-05-02T08:46:33.93Z</time></trkpt><trkpt lat="45.79350531518837" lon="9.168366708619091"><ele>393.8</ele><time>2026-05-02T08:46:34.93Z</time></trkpt><trkpt lat="45.79350927350934" lon="9.16850937309248"><ele>394.4</ele><time>2026-05-02T08:46:35.93Z</time></trkpt><trkpt lat="45.79351790480419" lon="9.168646904012821"><ele>395.0</ele><time>2026-05-02T08:46:36.93Z</time></trkpt><trkpt lat="45.79352244606531" lon="9.168787578860927"><ele>395.4</ele><time>2026-05-02T08:46:37.93Z</time></trkpt><trkpt lat="45.79352713941046" lon="9.168931731561177"><ele>395.8</ele><time>2026-05-02T08:46:38.93Z</time></trkpt><trkpt lat="45.793530948580774" lon="9.16907837971222"><ele>396.20000000000005</ele><time>2026-05-02T08:46:39.93Z</time></trkpt><trkpt lat="45.79353504654922" lon="9.169224629048417"><ele>396.6</ele><time>2026-05-02T08:46:40.93Z</time></trkpt><trkpt lat="45.793537696852376" lon="9.169376195396717"><ele>397.0</ele><time>2026-05-02T08:46:41.93Z</time></trkpt><trkpt lat="45.79354054750531" lon="9.169537923108404"><ele>397.25</ele><time>2026-05-02T08:46:42.93Z</time></trkpt><trkpt lat="45.79354066339297" lon="9.169706749775273"><ele>397.5</ele><time>2026-05-02T08:46:43.93Z</time></trkpt><trkpt lat="45.793541735358204" lon="9.169879963828812"><ele>397.75</ele><time>2026-05-02T08:46:44.93Z</time></trkpt><trkpt lat="45.79354687219024" lon="9.170047917255813"><ele>398.0</ele><time>2026-05-02T08:46:45.93Z</time></trkpt><trkpt lat="45.79355172377092" lon="9.170213290366132"><ele>398.0</ele><time>2026-05-02T08:46:46.93Z</time></trkpt><trkpt lat="45.79355561085084" lon="9.170374982448411"><ele>398.0</ele><time>2026-05-02T08:46:47.93Z</time></trkpt><trkpt lat="45.793558412154006" lon="9.170532929425818"><ele>398.0</ele><time>2026-05-02T08:46:48.93Z</time></trkpt><trkpt lat="45.793562921172715" lon="9.170694064683985"><ele>398.0</ele><time>2026-05-02T08:46:49.93Z</time></trkpt><trkpt lat="45.79356731082265" lon="9.170860787243257"><ele>398.5</ele><time>2026-05-02T08:46:50.93Z</time></trkpt><trkpt lat="45.793572409280806" lon="9.171028988998867"><ele>399.0</ele><time>2026-05-02T08:46:51.93Z</time></trkpt><trkpt lat="45.79357676467049" lon="9.171192591810385"><ele>399.5</ele><time>2026-05-02T08:46:52.93Z</time></trkpt><trkpt lat="45.79358139264048" lon="9.171355909196942"><ele>400.0</ele><time>2026-05-02T08:46:53.93Z</time></trkpt><trkpt lat="45.793586988052965" lon="9.171522429801287"><ele>399.75</ele><time>2026-05-02T08:46:54.93Z</time></trkpt><trkpt lat="45.79359176920158" lon="9.171693874330572"><ele>399.5</ele><time>2026-05-02T08:46:55.93Z</time></trkpt><trkpt lat="45.793595887814384" lon="9.171859260025732"><ele>399.25</ele><time>2026-05-02T08:46:56.93Z</time></trkpt><trkpt lat="45.79360485083597" lon="9.172020865293698"><ele>399.0</ele><time>2026-05-02T08:46:57.93Z</time></trkpt><trkpt lat="45.79360953305553" lon="9.172183069651547"><ele>399.0</ele><time>2026-05-02T08:46:58.93Z</time></trkpt><trkpt lat="45.79361239225607" lon="9.17234379753686"><ele>399.0</ele><time>2026-05-02T08:46:59.93Z</time></trkpt><trkpt lat="45.7936156903515" lon="9.17250479743191"><ele>399.0</ele><time>2026-05-02T08:47:00.93Z</time></trkpt><trkpt lat="45.79362259906096" lon="9.172658493376991"><ele>399.0</ele><time>2026-05-02T08:47:01.93Z</time></trkpt><trkpt lat="45.793628383049054" lon="9.172810996625048"><ele>399.0</ele><time>2026-05-02T08:47:02.93Z</time></trkpt><trkpt lat="45.7936358869072" lon="9.172972738108156"><ele>399.0</ele><time>2026-05-02T08:47:03.93Z</time></trkpt><trkpt lat="45.79362528086798" lon="9.173142194801688"><ele>399.0</ele><time>2026-05-02T08:47:04.93Z</time></trkpt><trkpt lat="45.79364667555579" lon="9.173319134732736"><ele>399.0</ele><time>2026-05-02T08:47:05.93Z</time></trkpt><trkpt lat="45.79364924972258" lon="9.173500688154466"><ele>399.0</ele><time>2026-05-02T08:47:06.93Z</time></trkpt><trkpt lat="45.79365291568769" lon="9.173678184562501"><ele>399.0</ele><time>2026-05-02T08:47:07.93Z</time></trkpt><trkpt lat="45.79362754825085" lon="9.173856177115898"><ele>399.0</ele><time>2026-05-02T08:47:08.93Z</time></trkpt><trkpt lat="45.793633945883705" lon="9.174030584054206"><ele>399.0</ele><time>2026-05-02T08:47:09.93Z</time></trkpt><trkpt lat="45.79364002263668" lon="9.174204233358678"><ele>399.0</ele><time>2026-05-02T08:47:10.93Z</time></trkpt><trkpt lat="45.793646944471895" lon="9.174383189206248"><ele>399.0</ele><time>2026-05-02T08:47:11.93Z</time></trkpt><trkpt lat="45.79365159698968" lon="9.17456591571294"><ele>399.0</ele><time>2026-05-02T08:47:12.93Z</time></trkpt><trkpt lat="45.79365577542444" lon="9.174750530425838"><ele>399.0</ele><time>2026-05-02T08:47:13.93Z</time></trkpt><trkpt lat="45.79366394608013" lon="9.174935161435489"><ele>399.0</ele><time>2026-05-02T08:47:14.93Z</time></trkpt><trkpt lat="45.79367314623519" lon="9.175124645459679"><ele>398.5</ele><time>2026-05-02T08:47:15.93Z</time></trkpt><trkpt lat="45.79368063971757" lon="9.175315979361677"><ele>398.0</ele><time>2026-05-02T08:47:16.93Z</time></trkpt><trkpt lat="45.79368483975895" lon="9.175511160993619"><ele>397.5</ele><time>2026-05-02T08:47:17.93Z</time></trkpt><trkpt lat="45.79368853751237" lon="9.175707006236289"><ele>397.0</ele><time>2026-05-02T08:47:18.93Z</time></trkpt><trkpt lat="45.79369484559527" lon="9.1759035386787"><ele>397.0</ele><time>2026-05-02T08:47:19.93Z</time></trkpt><trkpt lat="45.793698706166104" lon="9.176091099840717"><ele>397.0</ele><time>2026-05-02T08:47:20.93Z</time></trkpt><trkpt lat="45.79370478942257" lon="9.176277330357344"><ele>397.0</ele><time>2026-05-02T08:47:21.93Z</time></trkpt><trkpt lat="45.79370976288149" lon="9.176468813151281"><ele>397.0</ele><time>2026-05-02T08:47:22.93Z</time></trkpt><trkpt lat="45.79371931356406" lon="9.176665510855438"><ele>397.0</ele><time>2026-05-02T08:47:23.93Z</time></trkpt><trkpt lat="45.793730391214275" lon="9.176868742599043"><ele>397.0</ele><time>2026-05-02T08:47:24.93Z</time></trkpt><trkpt lat="45.79373876530319" lon="9.177076987395965"><ele>397.0</ele><time>2026-05-02T08:47:25.93Z</time></trkpt><trkpt lat="45.793747052399034" lon="9.177284546362738"><ele>397.0</ele><time>2026-05-02T08:47:26.93Z</time></trkpt><trkpt lat="45.79372729315429" lon="9.177491753987264"><ele>397.0</ele><time>2026-05-02T08:47:27.93Z</time></trkpt><trkpt lat="45.793731917491726" lon="9.17768130797951"><ele>397.0</ele><time>2026-05-02T08:47:28.93Z</time></trkpt><trkpt lat="45.7937388395517" lon="9.177870560537981"><ele>397.0</ele><time>2026-05-02T08:47:29.93Z</time></trkpt><trkpt lat="45.79374516881449" lon="9.1780603858234"><ele>397.0</ele><time>2026-05-02T08:47:30.93Z</time></trkpt><trkpt lat="45.793749778948985" lon="9.178254240299246"><ele>397.0</ele><time>2026-05-02T08:47:31.93Z</time></trkpt><trkpt lat="45.7937522635165" lon="9.17845426250808"><ele>397.0</ele><time>2026-05-02T08:47:32.93Z</time></trkpt><trkpt lat="45.79375673310307" lon="9.178659823443619"><ele>397.0</ele><time>2026-05-02T08:47:33.93Z</time></trkpt><trkpt lat="45.79376548274849" lon="9.178870951860551"><ele>397.0</ele><time>2026-05-02T08:47:34.93Z</time></trkpt><trkpt lat="45.79377141933376" lon="9.179080890739534"><ele>396.75</ele><time>2026-05-02T08:47:35.93Z</time></trkpt><trkpt lat="45.79377856325207" lon="9.179289803811313"><ele>396.5</ele><time>2026-05-02T08:47:36.93Z</time></trkpt><trkpt lat="45.793785608624255" lon="9.179494055699644"><ele>396.25</ele><time>2026-05-02T08:47:37.93Z</time></trkpt><trkpt lat="45.793793293657174" lon="9.179701319106995"><ele>396.0</ele><time>2026-05-02T08:47:38.93Z</time></trkpt><trkpt lat="45.79380156796006" lon="9.179908984284097"><ele>396.5</ele><time>2026-05-02T08:47:39.93Z</time></trkpt><trkpt lat="45.79380832149626" lon="9.180118565503845"><ele>397.0</ele><time>2026-05-02T08:47:40.93Z</time></trkpt><trkpt lat="45.79381564591324" lon="9.180327119245636"><ele>397.5</ele><time>2026-05-02T08:47:41.93Z</time></trkpt><trkpt lat="45.793821332158174" lon="9.180526980775849"><ele>398.0</ele><time>2026-05-02T08:47:42.93Z</time></trkpt><trkpt lat="45.79382551977242" lon="9.180713647551244"><ele>398.25</ele><time>2026-05-02T08:47:43.93Z</time></trkpt><trkpt lat="45.79383087132694" lon="9.180894594816962"><ele>398.5</ele><time>2026-05-02T08:47:44.93Z</time></trkpt><trkpt lat="45.79383871456946" lon="9.181077988868402"><ele>398.75</ele><time>2026-05-02T08:47:45.93Z</time></trkpt><trkpt lat="45.79384483792995" lon="9.181268648079948"><ele>399.0</ele><time>2026-05-02T08:47:46.93Z</time></trkpt><trkpt lat="45.79385214952481" lon="9.181464608791257"><ele>401.0</ele><time>2026-05-02T08:47:47.93Z</time></trkpt><trkpt lat="45.79385801384729" lon="9.181660536154258"><ele>403.0</ele><time>2026-05-02T08:47:48.93Z</time></trkpt><trkpt lat="45.79385975536527" lon="9.181851498595465"><ele>405.0</ele><time>2026-05-02T08:47:49.93Z</time></trkpt><trkpt lat="45.79386326869696" lon="9.182043718009822"><ele>407.0</ele><time>2026-05-02T08:47:50.93Z</time></trkpt><trkpt lat="45.79386713708859" lon="9.182238445781266"><ele>408.0</ele><time>2026-05-02T08:47:51.93Z</time></trkpt><trkpt lat="45.79387227503287" lon="9.182436354345345"><ele>409.0</ele><time>2026-05-02T08:47:52.93Z</time></trkpt><trkpt lat="45.79387754222831" lon="9.182636815303049"><ele>410.0</ele><time>2026-05-02T08:47:53.93Z</time></trkpt><trkpt lat="45.79388248145983" lon="9.182841126234704"><ele>411.0</ele><time>2026-05-02T08:47:54.93Z</time></trkpt><trkpt lat="45.793886116141636" lon="9.183049318591324"><ele>411.33333333333337</ele><time>2026-05-02T08:47:55.93Z</time></trkpt><trkpt lat="45.79389245275147" lon="9.183263546581458"><ele>411.6666666666667</ele><time>2026-05-02T08:47:56.93Z</time></trkpt><trkpt lat="45.793899041126515" lon="9.183483108218097"><ele>412.0</ele><time>2026-05-02T08:47:57.93Z</time></trkpt><trkpt lat="45.79390581217936" lon="9.18370690240856"><ele>412.0</ele><time>2026-05-02T08:47:58.93Z</time></trkpt><trkpt lat="45.79390761812138" lon="9.183930501370883"><ele>412.0</ele><time>2026-05-02T08:47:59.928Z</time></trkpt><trkpt lat="45.79391356266755" lon="9.184147903811498"><ele>412.0</ele><time>2026-05-02T08:48:00.928Z</time></trkpt><trkpt lat="45.79392375688264" lon="9.184358464525216"><ele>412.25</ele><time>2026-05-02T08:48:01.928Z</time></trkpt><trkpt lat="45.79393764125279" lon="9.18455904138734"><ele>412.5</ele><time>2026-05-02T08:48:02.927Z</time></trkpt><trkpt lat="45.793952851702095" lon="9.184756684916325"><ele>412.75</ele><time>2026-05-02T08:48:03.928Z</time></trkpt><trkpt lat="45.79396846357604" lon="9.184959936621107"><ele>413.0</ele><time>2026-05-02T08:48:04.928Z</time></trkpt><trkpt lat="45.79399056891557" lon="9.185165812414516"><ele>412.5</ele><time>2026-05-02T08:48:05.928Z</time></trkpt><trkpt lat="45.79402346300984" lon="9.185358830028456"><ele>412.0</ele><time>2026-05-02T08:48:06.928Z</time></trkpt><trkpt lat="45.79405805198624" lon="9.185528276928087"><ele>411.5</ele><time>2026-05-02T08:48:07.928Z</time></trkpt><trkpt lat="45.794089349940414" lon="9.185682199686516"><ele>411.0</ele><time>2026-05-02T08:48:08.928Z</time></trkpt><trkpt lat="45.79412953070799" lon="9.185822994954902"><ele>409.8</ele><time>2026-05-02T08:48:09.927Z</time></trkpt><trkpt lat="45.79417055335011" lon="9.185962136146792"><ele>408.6</ele><time>2026-05-02T08:48:10.927Z</time></trkpt><trkpt lat="45.79421194918082" lon="9.186098908771895"><ele>407.4</ele><time>2026-05-02T08:48:11.927Z</time></trkpt><trkpt lat="45.794249390628785" lon="9.186230818953469"><ele>406.2</ele><time>2026-05-02T08:48:12.927Z</time></trkpt><trkpt lat="45.79428683591192" lon="9.186356313132645"><ele>405.0</ele><time>2026-05-02T08:48:13.927Z</time></trkpt><trkpt lat="45.7943189598556" lon="9.186458037577536"><ele>404.6</ele><time>2026-05-02T08:48:14.927Z</time></trkpt><trkpt lat="45.794359171027345" lon="9.1866109024904"><ele>404.2</ele><time>2026-05-02T08:48:16.927Z</time></trkpt><trkpt lat="45.79440031184128" lon="9.186735735388158"><ele>403.79999999999995</ele><time>2026-05-02T08:48:18.927Z</time></trkpt><trkpt lat="45.79445588520606" lon="9.186892612287128"><ele>403.4</ele><time>2026-05-02T08:48:20.927Z</time></trkpt><trkpt lat="45.794493196512576" lon="9.187000608340341"><ele>403.0</ele><time>2026-05-02T08:48:21.927Z</time></trkpt><trkpt lat="45.794530787506574" lon="9.18711579832767"><ele>403.0</ele><time>2026-05-02T08:48:22.927Z</time></trkpt><trkpt lat="45.79456941943463" lon="9.187238227988106"><ele>403.0</ele><time>2026-05-02T08:48:23.927Z</time></trkpt><trkpt lat="45.79460630591991" lon="9.187372565618224"><ele>403.0</ele><time>2026-05-02T08:48:24.927Z</time></trkpt><trkpt lat="45.794643521384536" lon="9.187499940582207"><ele>403.0</ele><time>2026-05-02T08:48:25.927Z</time></trkpt><trkpt lat="45.79468074703722" lon="9.187633788823714"><ele>403.0</ele><time>2026-05-02T08:48:26.927Z</time></trkpt><trkpt lat="45.79472157563964" lon="9.187773004333085"><ele>402.0</ele><time>2026-05-02T08:48:27.927Z</time></trkpt><trkpt lat="45.79477106620963" lon="9.187917699423735"><ele>401.0</ele><time>2026-05-02T08:48:28.927Z</time></trkpt><trkpt lat="45.79482109463133" lon="9.188072053770936"><ele>400.0</ele><time>2026-05-02T08:48:29.927Z</time></trkpt><trkpt lat="45.79487131485083" lon="9.188240447537888"><ele>399.0</ele><time>2026-05-02T08:48:30.927Z</time></trkpt><trkpt lat="45.79492132947176" lon="9.18840888804925"><ele>397.25</ele><time>2026-05-02T08:48:31.927Z</time></trkpt><trkpt lat="45.79497329396633" lon="9.188575333066247"><ele>395.5</ele><time>2026-05-02T08:48:32.927Z</time></trkpt><trkpt lat="45.795023541992485" lon="9.188736011213424"><ele>393.75</ele><time>2026-05-02T08:48:33.927Z</time></trkpt><trkpt lat="45.79507100321536" lon="9.188893923276764"><ele>392.0</ele><time>2026-05-02T08:48:34.927Z</time></trkpt><trkpt lat="45.79511957722326" lon="9.18905240271221"><ele>392.0</ele><time>2026-05-02T08:48:35.927Z</time></trkpt><trkpt lat="45.7951687027767" lon="9.189217922766193"><ele>392.0</ele><time>2026-05-02T08:48:36.927Z</time></trkpt><trkpt lat="45.795227410745184" lon="9.18939941243724"><ele>392.0</ele><time>2026-05-02T08:48:37.927Z</time></trkpt><trkpt lat="45.795285505495855" lon="9.189583661039164"><ele>392.0</ele><time>2026-05-02T08:48:38.927Z</time></trkpt><trkpt lat="45.795336555667845" lon="9.189766255991593"><ele>390.25</ele><time>2026-05-02T08:48:39.927Z</time></trkpt><trkpt lat="45.79538829179003" lon="9.189948231580479"><ele>388.5</ele><time>2026-05-02T08:48:40.927Z</time></trkpt><trkpt lat="45.7954383375373" lon="9.190119648571443"><ele>386.75</ele><time>2026-05-02T08:48:41.927Z</time></trkpt><trkpt lat="45.79548784833513" lon="9.190292144354357"><ele>385.0</ele><time>2026-05-02T08:48:42.927Z</time></trkpt><trkpt lat="45.79554488001785" lon="9.190468208357837"><ele>385.0</ele><time>2026-05-02T08:48:43.927Z</time></trkpt><trkpt lat="45.79559820570994" lon="9.19063361575553"><ele>385.0</ele><time>2026-05-02T08:48:44.927Z</time></trkpt><trkpt lat="45.79564392059844" lon="9.19078675292138"><ele>385.0</ele><time>2026-05-02T08:48:45.927Z</time></trkpt><trkpt lat="45.795685790531316" lon="9.190925816479222"><ele>385.0</ele><time>2026-05-02T08:48:46.927Z</time></trkpt><trkpt lat="45.79573202405405" lon="9.191053789149416"><ele>385.0</ele><time>2026-05-02T08:48:47.927Z</time></trkpt><trkpt lat="45.79576705219556" lon="9.1911782269684"><ele>383.33333333333337</ele><time>2026-05-02T08:48:48.927Z</time></trkpt><trkpt lat="45.79580050436309" lon="9.1912909915961"><ele>381.6666666666667</ele><time>2026-05-02T08:48:49.927Z</time></trkpt><trkpt lat="45.79582944541049" lon="9.191387631979024"><ele>380.0</ele><time>2026-05-02T08:48:50.927Z</time></trkpt><trkpt lat="45.795871783367616" lon="9.19151100501763"><ele>378.33333333333337</ele><time>2026-05-02T08:48:52.927Z</time></trkpt><trkpt lat="45.795901783068466" lon="9.191593834231238"><ele>376.6666666666667</ele><time>2026-05-02T08:48:55.927Z</time></trkpt><trkpt lat="45.795932172545825" lon="9.191707592049333"><ele>375.0</ele><time>2026-05-02T08:48:58.927Z</time></trkpt><trkpt lat="45.79595796210142" lon="9.191799771344284"><ele>374.8</ele><time>2026-05-02T08:49:00.927Z</time></trkpt><trkpt lat="45.795993777147245" lon="9.191905378835147"><ele>374.6</ele><time>2026-05-02T08:49:02.927Z</time></trkpt><trkpt lat="45.796028375546314" lon="9.192037901786836"><ele>374.4</ele><time>2026-05-02T08:49:04.927Z</time></trkpt><trkpt lat="45.79607049639186" lon="9.192173372714919"><ele>374.2</ele><time>2026-05-02T08:49:06.927Z</time></trkpt><trkpt lat="45.79611167565465" lon="9.192319129367041"><ele>374.0</ele><time>2026-05-02T08:49:08.927Z</time></trkpt><trkpt lat="45.79613483309174" lon="9.192403767090225"><ele>373.5</ele><time>2026-05-02T08:49:09.927Z</time></trkpt><trkpt lat="45.796162660250076" lon="9.192492657733737"><ele>373.0</ele><time>2026-05-02T08:49:10.927Z</time></trkpt><trkpt lat="45.79619373991225" lon="9.192603675195821"><ele>372.5</ele><time>2026-05-02T08:49:11.927Z</time></trkpt><trkpt lat="45.79622779631304" lon="9.19271167410757"><ele>372.0</ele><time>2026-05-02T08:49:12.927Z</time></trkpt><trkpt lat="45.79626362344991" lon="9.19280704827656"><ele>371.5</ele><time>2026-05-02T08:49:13.927Z</time></trkpt><trkpt lat="45.79629438255351" lon="9.192893973813588"><ele>371.0</ele><time>2026-05-02T08:49:14.927Z</time></trkpt><trkpt lat="45.79635291631879" lon="9.193045991992266"><ele>370.0</ele><time>2026-05-02T08:49:16.927Z</time></trkpt><trkpt lat="45.79637749468236" lon="9.19319269773859"><ele>369.0</ele><time>2026-05-02T08:49:18.927Z</time></trkpt><trkpt lat="45.79643516455087" lon="9.193330212636734"><ele>368.0</ele><time>2026-05-02T08:49:20.927Z</time></trkpt><trkpt lat="45.79648317050553" lon="9.19346299238124"><ele>367.0</ele><time>2026-05-02T08:49:22.927Z</time></trkpt><trkpt lat="45.79651953968437" lon="9.193587402744056"><ele>366.0</ele><time>2026-05-02T08:49:24.927Z</time></trkpt><trkpt lat="45.7965590578539" lon="9.193718761955248"><ele>366.0</ele><time>2026-05-02T08:49:26.927Z</time></trkpt><trkpt lat="45.79660385087951" lon="9.193866641523618"><ele>366.0</ele><time>2026-05-02T08:49:28.927Z</time></trkpt><trkpt lat="45.79664100244627" lon="9.194015381275884"><ele>366.0</ele><time>2026-05-02T08:49:30.927Z</time></trkpt><trkpt lat="45.796678948442946" lon="9.194161995309264"><ele>366.0</ele><time>2026-05-02T08:49:32.927Z</time></trkpt><trkpt lat="45.79670552779623" lon="9.19431057945495"><ele>366.0</ele><time>2026-05-02T08:49:34.927Z</time></trkpt><trkpt lat="45.79673395703885" lon="9.194495152973815"><ele>365.0</ele><time>2026-05-02T08:49:36.927Z</time></trkpt><trkpt lat="45.796749001935495" lon="9.194602583550608"><ele>364.0</ele><time>2026-05-02T08:49:37.927Z</time></trkpt><trkpt lat="45.79676391887255" lon="9.19471225052305"><ele>363.0</ele><time>2026-05-02T08:49:38.927Z</time></trkpt><trkpt lat="45.796772070380015" lon="9.19482891695201"><ele>362.0</ele><time>2026-05-02T08:49:39.927Z</time></trkpt><trkpt lat="45.7967818558636" lon="9.194949479538417"><ele>361.0</ele><time>2026-05-02T08:49:40.927Z</time></trkpt><trkpt lat="45.796790471181076" lon="9.195060098216326"><ele>360.0</ele><time>2026-05-02T08:49:41.927Z</time></trkpt><trkpt lat="45.796795576848844" lon="9.195156616134812"><ele>359.2</ele><time>2026-05-02T08:49:42.927Z</time></trkpt><trkpt lat="45.79679726069162" lon="9.195321441470517"><ele>358.4</ele><time>2026-05-02T08:49:44.927Z</time></trkpt><trkpt lat="45.79680207410416" lon="9.19549835053392"><ele>357.6</ele><time>2026-05-02T08:49:46.927Z</time></trkpt><trkpt lat="45.79680488014218" lon="9.195620174706198"><ele>356.8</ele><time>2026-05-02T08:49:47.927Z</time></trkpt><trkpt lat="45.796798869219195" lon="9.195742875455782"><ele>356.0</ele><time>2026-05-02T08:49:48.927Z</time></trkpt><trkpt lat="45.79678740658263" lon="9.195866255410786"><ele>355.83333333333337</ele><time>2026-05-02T08:49:49.927Z</time></trkpt><trkpt lat="45.796778285489175" lon="9.195986391633419"><ele>355.6666666666667</ele><time>2026-05-02T08:49:50.927Z</time></trkpt><trkpt lat="45.79675485548833" lon="9.196101975105863"><ele>355.5</ele><time>2026-05-02T08:49:51.927Z</time></trkpt><trkpt lat="45.79674154762122" lon="9.196236577299342"><ele>355.3333333333333</ele><time>2026-05-02T08:49:52.927Z</time></trkpt><trkpt lat="45.796735461790384" lon="9.19635999913029"><ele>355.16666666666663</ele><time>2026-05-02T08:49:53.927Z</time></trkpt><trkpt lat="45.796728841131205" lon="9.196488540417896"><ele>355.0</ele><time>2026-05-02T08:49:54.927Z</time></trkpt><trkpt lat="45.796720772335135" lon="9.196614920863837"><ele>353.8</ele><time>2026-05-02T08:49:55.927Z</time></trkpt><trkpt lat="45.796709013390924" lon="9.19675527461035"><ele>352.6</ele><time>2026-05-02T08:49:56.927Z</time></trkpt><trkpt lat="45.79669829462177" lon="9.196903192072469"><ele>351.4</ele><time>2026-05-02T08:49:57.927Z</time></trkpt><trkpt lat="45.796689547532466" lon="9.197058009286069"><ele>350.2</ele><time>2026-05-02T08:49:58.927Z</time></trkpt><trkpt lat="45.79665189181834" lon="9.197226404749237"><ele>349.0</ele><time>2026-05-02T08:49:59.927Z</time></trkpt><trkpt lat="45.79663869524718" lon="9.197396831614302"><ele>347.75</ele><time>2026-05-02T08:50:00.927Z</time></trkpt><trkpt lat="45.79662325053427" lon="9.19756966928376"><ele>346.5</ele><time>2026-05-02T08:50:01.927Z</time></trkpt><trkpt lat="45.7966079595096" lon="9.197742779066425"><ele>345.25</ele><time>2026-05-02T08:50:02.927Z</time></trkpt><trkpt lat="45.79659438861079" lon="9.197918324570475"><ele>344.0</ele><time>2026-05-02T08:50:03.927Z</time></trkpt><trkpt lat="45.79658236210175" lon="9.198095013276808"><ele>343.5</ele><time>2026-05-02T08:50:04.927Z</time></trkpt><trkpt lat="45.79656579035347" lon="9.198270172337638"><ele>343.0</ele><time>2026-05-02T08:50:05.926Z</time></trkpt><trkpt lat="45.79655066960876" lon="9.19844387605595"><ele>342.5</ele><time>2026-05-02T08:50:06.926Z</time></trkpt><trkpt lat="45.79653206484378" lon="9.198619306051288"><ele>342.0</ele><time>2026-05-02T08:50:07.926Z</time></trkpt><trkpt lat="45.796520905911564" lon="9.198789407143307"><ele>342.0</ele><time>2026-05-02T08:50:08.926Z</time></trkpt><trkpt lat="45.796511590241096" lon="9.198959241067527"><ele>342.0</ele><time>2026-05-02T08:50:09.926Z</time></trkpt><trkpt lat="45.796500749130274" lon="9.199130952033466"><ele>342.0</ele><time>2026-05-02T08:50:10.926Z</time></trkpt><trkpt lat="45.796491176466006" lon="9.19930582158045"><ele>342.0</ele><time>2026-05-02T08:50:11.926Z</time></trkpt><trkpt lat="45.79647952047364" lon="9.199486222579557"><ele>341.75</ele><time>2026-05-02T08:50:12.926Z</time></trkpt><trkpt lat="45.79645947382249" lon="9.199663576283106"><ele>341.5</ele><time>2026-05-02T08:50:13.926Z</time></trkpt><trkpt lat="45.79644209401878" lon="9.199834198116994"><ele>341.25</ele><time>2026-05-02T08:50:14.926Z</time></trkpt><trkpt lat="45.79642951137538" lon="9.199988557268394"><ele>341.0</ele><time>2026-05-02T08:50:15.926Z</time></trkpt><trkpt lat="45.79641529279575" lon="9.200135251219978"><ele>341.0</ele><time>2026-05-02T08:50:16.926Z</time></trkpt><trkpt lat="45.796404484141334" lon="9.200266710018763"><ele>341.0</ele><time>2026-05-02T08:50:17.926Z</time></trkpt><trkpt lat="45.79639550527367" lon="9.200389317422355"><ele>341.0</ele><time>2026-05-02T08:50:18.926Z</time></trkpt><trkpt lat="45.79638840576741" lon="9.200504486062014"><ele>341.0</ele><time>2026-05-02T08:50:19.926Z</time></trkpt><trkpt lat="45.796376689274396" lon="9.200594878429326"><ele>341.0</ele><time>2026-05-02T08:50:20.926Z</time></trkpt><trkpt lat="45.79637211018781" lon="9.200686087109627"><ele>341.0</ele><time>2026-05-02T08:50:21.926Z</time></trkpt><trkpt lat="45.79635347842706" lon="9.200832755228022"><ele>340.6666666666667</ele><time>2026-05-02T08:50:23.926Z</time></trkpt><trkpt lat="45.79634639318635" lon="9.200943576160665"><ele>340.33333333333337</ele><time>2026-05-02T08:50:25.926Z</time></trkpt><trkpt lat="45.79635723213357" lon="9.20110486619644"><ele>340.0</ele><time>2026-05-02T08:50:50.926Z</time></trkpt><trkpt lat="45.796331496722246" lon="9.201210581746981"><ele>339.6666666666667</ele><time>2026-05-02T08:50:51.926Z</time></trkpt><trkpt lat="45.79632431058675" lon="9.201334509781812"><ele>339.3333333333333</ele><time>2026-05-02T08:50:52.926Z</time></trkpt><trkpt lat="45.79631336882746" lon="9.201467892640812"><ele>339.0</ele><time>2026-05-02T08:50:53.926Z</time></trkpt><trkpt lat="45.796297748559795" lon="9.20162746618363"><ele>338.5</ele><time>2026-05-02T08:50:54.926Z</time></trkpt><trkpt lat="45.796279550732244" lon="9.201802447628843"><ele>338.0</ele><time>2026-05-02T08:50:55.926Z</time></trkpt><trkpt lat="45.79626438783828" lon="9.201990513198083"><ele>337.5</ele><time>2026-05-02T08:50:56.926Z</time></trkpt><trkpt lat="45.796251965061664" lon="9.20218615681335"><ele>337.0</ele><time>2026-05-02T08:50:57.926Z</time></trkpt><trkpt lat="45.796236633052516" lon="9.202390997067853"><ele>337.0</ele><time>2026-05-02T08:50:58.926Z</time></trkpt><trkpt lat="45.79622188162851" lon="9.202603970131921"><ele>337.0</ele><time>2026-05-02T08:50:59.926Z</time></trkpt><trkpt lat="45.79620449980887" lon="9.20282030053757"><ele>337.0</ele><time>2026-05-02T08:51:00.926Z</time></trkpt><trkpt lat="45.79618857592861" lon="9.203035657660958"><ele>337.0</ele><time>2026-05-02T08:51:01.926Z</time></trkpt><trkpt lat="45.79615010584229" lon="9.203253388080682"><ele>337.0</ele><time>2026-05-02T08:51:02.926Z</time></trkpt><trkpt lat="45.79614375319367" lon="9.203472033678487"><ele>337.0</ele><time>2026-05-02T08:51:03.926Z</time></trkpt><trkpt lat="45.7961492759297" lon="9.203692457333444"><ele>337.0</ele><time>2026-05-02T08:51:04.926Z</time></trkpt><trkpt lat="45.79616868333578" lon="9.203912117786121"><ele>337.0</ele><time>2026-05-02T08:51:05.926Z</time></trkpt><trkpt lat="45.79620003615243" lon="9.204129842297853"><ele>337.0</ele><time>2026-05-02T08:51:06.926Z</time></trkpt><trkpt lat="45.79624840715779" lon="9.204341718547498"><ele>335.0</ele><time>2026-05-02T08:51:07.926Z</time></trkpt><trkpt lat="45.79631226725987" lon="9.204549296310999"><ele>333.0</ele><time>2026-05-02T08:51:08.926Z</time></trkpt><trkpt lat="45.79638706514375" lon="9.204743928865613"><ele>331.0</ele><time>2026-05-02T08:51:09.926Z</time></trkpt><trkpt lat="45.796480497148494" lon="9.204926602365942"><ele>329.0</ele><time>2026-05-02T08:51:10.926Z</time></trkpt><trkpt lat="45.79658783933567" lon="9.205098898287783"><ele>327.0</ele><time>2026-05-02T08:51:11.926Z</time></trkpt><trkpt lat="45.79670745486274" lon="9.205266547655121"><ele>325.0</ele><time>2026-05-02T08:51:12.926Z</time></trkpt><trkpt lat="45.7968359530936" lon="9.205424759519053"><ele>325.0</ele><time>2026-05-02T08:51:13.926Z</time></trkpt><trkpt lat="45.7969698932199" lon="9.205580126487119"><ele>325.0</ele><time>2026-05-02T08:51:14.926Z</time></trkpt><trkpt lat="45.79710532137814" lon="9.205741186367689"><ele>325.0</ele><time>2026-05-02T08:51:15.926Z</time></trkpt><trkpt lat="45.79724467549315" lon="9.205900068569006"><ele>325.0</ele><time>2026-05-02T08:51:16.926Z</time></trkpt><trkpt lat="45.79738275539451" lon="9.206060598733062"><ele>325.0</ele><time>2026-05-02T08:51:17.926Z</time></trkpt><trkpt lat="45.79752007117217" lon="9.2062233174834"><ele>325.0</ele><time>2026-05-02T08:51:18.926Z</time></trkpt><trkpt lat="45.79765439172063" lon="9.206386213544988"><ele>324.3333333333333</ele><time>2026-05-02T08:51:19.926Z</time></trkpt><trkpt lat="45.79779011282155" lon="9.206539188769721"><ele>323.6666666666667</ele><time>2026-05-02T08:51:20.926Z</time></trkpt><trkpt lat="45.797923594494684" lon="9.2066997527385"><ele>323.0</ele><time>2026-05-02T08:51:21.926Z</time></trkpt><trkpt lat="45.79805690972539" lon="9.206848586978717"><ele>323.0</ele><time>2026-05-02T08:51:22.926Z</time></trkpt><trkpt lat="45.79819011218766" lon="9.20700012062599"><ele>323.0</ele><time>2026-05-02T08:51:23.926Z</time></trkpt><trkpt lat="45.798322774469376" lon="9.20715007716231"><ele>323.0</ele><time>2026-05-02T08:51:24.926Z</time></trkpt><trkpt lat="45.79845181399266" lon="9.207301028830177"><ele>322.6666666666667</ele><time>2026-05-02T08:51:25.926Z</time></trkpt><trkpt lat="45.79857883727141" lon="9.207446926611688"><ele>322.3333333333333</ele><time>2026-05-02T08:51:26.926Z</time></trkpt><trkpt lat="45.79870864285019" lon="9.207595524879384"><ele>322.0</ele><time>2026-05-02T08:51:27.926Z</time></trkpt><trkpt lat="45.798836918425444" lon="9.20774862888728"><ele>322.0</ele><time>2026-05-02T08:51:28.926Z</time></trkpt><trkpt lat="45.79897063604215" lon="9.207903508334812"><ele>322.0</ele><time>2026-05-02T08:51:29.926Z</time></trkpt><trkpt lat="45.79909904001007" lon="9.208055064059188"><ele>322.0</ele><time>2026-05-02T08:51:30.926Z</time></trkpt><trkpt lat="45.799225098005344" lon="9.208199571435035"><ele>321.66666666666663</ele><time>2026-05-02T08:51:31.926Z</time></trkpt><trkpt lat="45.799349134606004" lon="9.20834147478645"><ele>321.3333333333333</ele><time>2026-05-02T08:51:32.926Z</time></trkpt><trkpt lat="45.79947046663726" lon="9.208477541816881"><ele>321.0</ele><time>2026-05-02T08:51:33.926Z</time></trkpt><trkpt lat="45.79959415769835" lon="9.208616805333985"><ele>321.0</ele><time>2026-05-02T08:51:34.926Z</time></trkpt><trkpt lat="45.799722235653384" lon="9.20875912966437"><ele>321.0</ele><time>2026-05-02T08:51:35.926Z</time></trkpt><trkpt lat="45.79985148793821" lon="9.208904131613172"><ele>321.0</ele><time>2026-05-02T08:51:36.926Z</time></trkpt><trkpt lat="45.79998592348459" lon="9.20904754380504"><ele>321.3333333333333</ele><time>2026-05-02T08:51:37.926Z</time></trkpt><trkpt lat="45.80011862945778" lon="9.209201010052356"><ele>321.66666666666663</ele><time>2026-05-02T08:51:38.926Z</time></trkpt><trkpt lat="45.800252777199326" lon="9.209356744804005"><ele>322.0</ele><time>2026-05-02T08:51:39.926Z</time></trkpt><trkpt lat="45.80038916609578" lon="9.209516230912845"><ele>322.0</ele><time>2026-05-02T08:51:40.926Z</time></trkpt><trkpt lat="45.800522490395544" lon="9.209674192309267"><ele>322.0</ele><time>2026-05-02T08:51:41.926Z</time></trkpt><trkpt lat="45.8006552658368" lon="9.209835047387765"><ele>322.0</ele><time>2026-05-02T08:51:42.926Z</time></trkpt><trkpt lat="45.80078999663303" lon="9.209988524271026"><ele>320.3333333333333</ele><time>2026-05-02T08:51:43.926Z</time></trkpt><trkpt lat="45.8009240210567" lon="9.210141020792717"><ele>318.6666666666667</ele><time>2026-05-02T08:51:44.926Z</time></trkpt><trkpt lat="45.80105972675504" lon="9.21028798735934"><ele>317.0</ele><time>2026-05-02T08:51:45.926Z</time></trkpt><trkpt lat="45.80119868774939" lon="9.210414666670307"><ele>317.0</ele><time>2026-05-02T08:51:46.926Z</time></trkpt><trkpt lat="45.80133898128451" lon="9.210528098256765"><ele>317.0</ele><time>2026-05-02T08:51:47.926Z</time></trkpt><trkpt lat="45.80149501459833" lon="9.21061282095138"><ele>317.0</ele><time>2026-05-02T08:51:48.926Z</time></trkpt><trkpt lat="45.801655072351174" lon="9.210671513057267"><ele>314.0</ele><time>2026-05-02T08:51:49.926Z</time></trkpt><trkpt lat="45.801817709032974" lon="9.210718944187752"><ele>311.0</ele><time>2026-05-02T08:51:50.926Z</time></trkpt><trkpt lat="45.8019779574764" lon="9.210772050634503"><ele>308.0</ele><time>2026-05-02T08:51:51.926Z</time></trkpt><trkpt lat="45.80213958239998" lon="9.210833961532497"><ele>308.0</ele><time>2026-05-02T08:51:52.926Z</time></trkpt><trkpt lat="45.802296446920536" lon="9.210919527166476"><ele>308.0</ele><time>2026-05-02T08:51:53.926Z</time></trkpt><trkpt lat="45.80244870596383" lon="9.21101863935728"><ele>308.0</ele><time>2026-05-02T08:51:54.926Z</time></trkpt><trkpt lat="45.80259545074994" lon="9.211133849486922"><ele>306.33333333333337</ele><time>2026-05-02T08:51:55.926Z</time></trkpt><trkpt lat="45.80273291484415" lon="9.211255664906254"><ele>304.6666666666667</ele><time>2026-05-02T08:51:56.926Z</time></trkpt><trkpt lat="45.802858273632" lon="9.211386949715802"><ele>303.0</ele><time>2026-05-02T08:51:57.926Z</time></trkpt><trkpt lat="45.80297998204019" lon="9.211528920685819"><ele>303.0</ele><time>2026-05-02T08:51:58.926Z</time></trkpt><trkpt lat="45.80310296607994" lon="9.21168088161522"><ele>303.0</ele><time>2026-05-02T08:51:59.926Z</time></trkpt><trkpt lat="45.80322254732238" lon="9.211840683827308"><ele>303.0</ele><time>2026-05-02T08:52:00.926Z</time></trkpt><trkpt lat="45.8033446972836" lon="9.212006700240172"><ele>303.0</ele><time>2026-05-02T08:52:01.926Z</time></trkpt><trkpt lat="45.80347106605997" lon="9.212175657997284"><ele>303.0</ele><time>2026-05-02T08:52:02.926Z</time></trkpt><trkpt lat="45.80359754373649" lon="9.21234624884265"><ele>303.0</ele><time>2026-05-02T08:52:03.926Z</time></trkpt><trkpt lat="45.80371854801353" lon="9.212519663566527"><ele>301.3333333333333</ele><time>2026-05-02T08:52:04.926Z</time></trkpt><trkpt lat="45.80384138500376" lon="9.212681817592273"><ele>299.66666666666663</ele><time>2026-05-02T08:52:05.926Z</time></trkpt><trkpt lat="45.803959757928226" lon="9.212841176872777"><ele>298.0</ele><time>2026-05-02T08:52:06.926Z</time></trkpt><trkpt lat="45.80407578206586" lon="9.212995674066745"><ele>298.0</ele><time>2026-05-02T08:52:07.926Z</time></trkpt><trkpt lat="45.80418497848148" lon="9.213151157311499"><ele>298.0</ele><time>2026-05-02T08:52:08.926Z</time></trkpt><trkpt lat="45.804292201912645" lon="9.213300403013948"><ele>298.0</ele><time>2026-05-02T08:52:09.926Z</time></trkpt><trkpt lat="45.804392431970534" lon="9.213462737548387"><ele>299.3333333333333</ele><time>2026-05-02T08:52:10.926Z</time></trkpt><trkpt lat="45.80448949195929" lon="9.213633242139075"><ele>300.6666666666667</ele><time>2026-05-02T08:52:11.925Z</time></trkpt><trkpt lat="45.8045795597834" lon="9.213819336928232"><ele>302.0</ele><time>2026-05-02T08:52:12.924Z</time></trkpt><trkpt lat="45.80465841692264" lon="9.214016578197576"><ele>298.33333333333337</ele><time>2026-05-02T08:52:13.924Z</time></trkpt><trkpt lat="45.80472178844375" lon="9.214217471752141"><ele>294.6666666666667</ele><time>2026-05-02T08:52:14.925Z</time></trkpt><trkpt lat="45.8047751504237" lon="9.214418992481"><ele>291.0</ele><time>2026-05-02T08:52:15.924Z</time></trkpt><trkpt lat="45.80481189005259" lon="9.214628610200137"><ele>289.3333333333333</ele><time>2026-05-02T08:52:16.924Z</time></trkpt><trkpt lat="45.804838065626626" lon="9.21484538937714"><ele>287.66666666666663</ele><time>2026-05-02T08:52:17.924Z</time></trkpt><trkpt lat="45.804850503009185" lon="9.215071893106446"><ele>286.0</ele><time>2026-05-02T08:52:18.925Z</time></trkpt><trkpt lat="45.804855431573046" lon="9.21528943792474"><ele>286.0</ele><time>2026-05-02T08:52:19.925Z</time></trkpt><trkpt lat="45.80484402732073" lon="9.21550255577297"><ele>286.0</ele><time>2026-05-02T08:52:20.924Z</time></trkpt><trkpt lat="45.80481816785391" lon="9.215715489560015"><ele>286.0</ele><time>2026-05-02T08:52:21.924Z</time></trkpt><trkpt lat="45.80478316861624" lon="9.215920550524341"><ele>286.0</ele><time>2026-05-02T08:52:22.924Z</time></trkpt><trkpt lat="45.80473612847188" lon="9.21610724622611"><ele>285.6</ele><time>2026-05-02T08:52:23.924Z</time></trkpt><trkpt lat="45.80469660617947" lon="9.216281920448587"><ele>285.20000000000005</ele><time>2026-05-02T08:52:24.924Z</time></trkpt><trkpt lat="45.80465538297911" lon="9.216438778702907"><ele>284.79999999999995</ele><time>2026-05-02T08:52:25.924Z</time></trkpt><trkpt lat="45.80461705623956" lon="9.216580490101729"><ele>284.4</ele><time>2026-05-02T08:52:26.924Z</time></trkpt><trkpt lat="45.80458241946159" lon="9.216710262452004"><ele>284.0</ele><time>2026-05-02T08:52:27.924Z</time></trkpt><trkpt lat="45.80454938977059" lon="9.216826802653772"><ele>284.0</ele><time>2026-05-02T08:52:28.924Z</time></trkpt><trkpt lat="45.80452035354462" lon="9.216934295793529"><ele>284.0</ele><time>2026-05-02T08:52:29.924Z</time></trkpt><trkpt lat="45.80449649024115" lon="9.217023117437716"><ele>284.0</ele><time>2026-05-02T08:52:30.924Z</time></trkpt><trkpt lat="45.804473341779506" lon="9.2171098535139"><ele>284.0</ele><time>2026-05-02T08:52:31.924Z</time></trkpt><trkpt lat="45.804440689112376" lon="9.217213576333819"><ele>284.0</ele><time>2026-05-02T08:52:33.924Z</time></trkpt><trkpt lat="45.80440689068913" lon="9.217306554636203"><ele>284.0</ele><time>2026-05-02T08:52:37.924Z</time></trkpt><trkpt lat="45.804320465858225" lon="9.217406741005812"><ele>283.33333333333337</ele><time>2026-05-02T08:52:39.924Z</time></trkpt><trkpt lat="45.80427453957641" lon="9.217551349629193"><ele>282.6666666666667</ele><time>2026-05-02T08:52:41.924Z</time></trkpt><trkpt lat="45.804271429560266" lon="9.217657008676488"><ele>282.0</ele><time>2026-05-02T08:52:42.924Z</time></trkpt><trkpt lat="45.804284131009304" lon="9.217776622483635"><ele>281.3333333333333</ele><time>2026-05-02T08:52:43.924Z</time></trkpt><trkpt lat="45.804294306072265" lon="9.217887875581534"><ele>280.66666666666663</ele><time>2026-05-02T08:52:44.924Z</time></trkpt><trkpt lat="45.80428849017" lon="9.218003163047168"><ele>280.0</ele><time>2026-05-02T08:52:45.924Z</time></trkpt><trkpt lat="45.804263597227354" lon="9.218110188496448"><ele>279.8333333333333</ele><time>2026-05-02T08:52:46.924Z</time></trkpt><trkpt lat="45.80423546708872" lon="9.21821165380707"><ele>279.66666666666663</ele><time>2026-05-02T08:52:47.924Z</time></trkpt><trkpt lat="45.80420921623335" lon="9.218318763241806"><ele>279.5</ele><time>2026-05-02T08:52:48.924Z</time></trkpt><trkpt lat="45.804187548936724" lon="9.218433756171793"><ele>279.3333333333333</ele><time>2026-05-02T08:52:49.924Z</time></trkpt><trkpt lat="45.80416332512766" lon="9.218550574073173"><ele>279.1666666666667</ele><time>2026-05-02T08:52:50.924Z</time></trkpt><trkpt lat="45.8041372609847" lon="9.218668896380358"><ele>279.0</ele><time>2026-05-02T08:52:51.924Z</time></trkpt><trkpt lat="45.8041101785261" lon="9.218788111255737"><ele>279.0</ele><time>2026-05-02T08:52:52.924Z</time></trkpt><trkpt lat="45.80408347107604" lon="9.21891044588254"><ele>279.0</ele><time>2026-05-02T08:52:53.924Z</time></trkpt><trkpt lat="45.80405670569527" lon="9.219036850661793"><ele>279.0</ele><time>2026-05-02T08:52:54.924Z</time></trkpt><trkpt lat="45.80403270994575" lon="9.21914821333951"><ele>279.0</ele><time>2026-05-02T08:52:55.924Z</time></trkpt><trkpt lat="45.80401259476833" lon="9.21926238133199"><ele>279.0</ele><time>2026-05-02T08:52:56.924Z</time></trkpt><trkpt lat="45.80399159147949" lon="9.219366444425955"><ele>279.0</ele><time>2026-05-02T08:52:57.924Z</time></trkpt><trkpt lat="45.803966411421904" lon="9.21949155175439"><ele>279.0</ele><time>2026-05-02T08:52:58.924Z</time></trkpt><trkpt lat="45.803940921187305" lon="9.21960848615523"><ele>279.0</ele><time>2026-05-02T08:52:59.924Z</time></trkpt><trkpt lat="45.803918360059036" lon="9.219718550335044"><ele>279.0</ele><time>2026-05-02T08:53:00.924Z</time></trkpt><trkpt lat="45.8038981152098" lon="9.219815289284785"><ele>279.0</ele><time>2026-05-02T08:53:01.924Z</time></trkpt><trkpt lat="45.80387577410104" lon="9.219905252570726"><ele>279.0</ele><time>2026-05-02T08:53:02.924Z</time></trkpt><trkpt lat="45.80383652867071" lon="9.220060011052425"><ele>279.0</ele><time>2026-05-02T08:53:04.924Z</time></trkpt><trkpt lat="45.80380173802648" lon="9.220215166867662"><ele>278.25</ele><time>2026-05-02T08:53:06.924Z</time></trkpt><trkpt lat="45.80376104926822" lon="9.220377501615571"><ele>277.5</ele><time>2026-05-02T08:53:08.924Z</time></trkpt><trkpt lat="45.80372423994352" lon="9.220521069371367"><ele>276.75</ele><time>2026-05-02T08:53:10.924Z</time></trkpt><trkpt lat="45.803684825169945" lon="9.220676771437601"><ele>276.0</ele><time>2026-05-02T08:53:12.924Z</time></trkpt><trkpt lat="45.80364607698525" lon="9.220863638078912"><ele>275.40000000000003</ele><time>2026-05-02T08:53:14.924Z</time></trkpt><trkpt lat="45.80362431530882" lon="9.220983241352327"><ele>274.8</ele><time>2026-05-02T08:53:15.924Z</time></trkpt><trkpt lat="45.80360203506312" lon="9.221112684938804"><ele>274.20000000000005</ele><time>2026-05-02T08:53:16.924Z</time></trkpt><trkpt lat="45.80358262193378" lon="9.221247000691113"><ele>273.6</ele><time>2026-05-02T08:53:17.924Z</time></trkpt><trkpt lat="45.8035620019066" lon="9.221381484376908"><ele>273.0</ele><time>2026-05-02T08:53:18.924Z</time></trkpt><trkpt lat="45.80354090505474" lon="9.22150534114511"><ele>273.0</ele><time>2026-05-02T08:53:19.924Z</time></trkpt><trkpt lat="45.80352484710466" lon="9.221630439399496"><ele>273.0</ele><time>2026-05-02T08:53:20.924Z</time></trkpt><trkpt lat="45.8035098753895" lon="9.221749299011783"><ele>273.0</ele><time>2026-05-02T08:53:21.924Z</time></trkpt><trkpt lat="45.80349781519111" lon="9.221865581158575"><ele>273.0</ele><time>2026-05-02T08:53:22.924Z</time></trkpt><trkpt lat="45.803485507147734" lon="9.221987073573624"><ele>273.0</ele><time>2026-05-02T08:53:23.924Z</time></trkpt><trkpt lat="45.80347560893528" lon="9.222118735687543"><ele>273.0</ele><time>2026-05-02T08:53:24.924Z</time></trkpt><trkpt lat="45.80346504043003" lon="9.222257095840533"><ele>273.0</ele><time>2026-05-02T08:53:25.924Z</time></trkpt><trkpt lat="45.80345113924009" lon="9.222401044848196"><ele>273.0</ele><time>2026-05-02T08:53:26.924Z</time></trkpt><trkpt lat="45.80344162464927" lon="9.222527114109752"><ele>273.0</ele><time>2026-05-02T08:53:27.924Z</time></trkpt><trkpt lat="45.80343165064005" lon="9.222633676442666"><ele>273.0</ele><time>2026-05-02T08:53:28.924Z</time></trkpt><trkpt lat="45.80342413656844" lon="9.222723523268712"><ele>273.0</ele><time>2026-05-02T08:53:29.924Z</time></trkpt><trkpt lat="45.80341577586138" lon="9.222869509194261"><ele>273.0</ele><time>2026-05-02T08:53:31.924Z</time></trkpt><trkpt lat="45.803413040852234" lon="9.223049910718128"><ele>273.4</ele><time>2026-05-02T08:53:33.924Z</time></trkpt><trkpt lat="45.80340706010949" lon="9.223197991356828"><ele>273.8</ele><time>2026-05-02T08:53:35.924Z</time></trkpt><trkpt lat="45.80340559664947" lon="9.223337883098372"><ele>274.2</ele><time>2026-05-02T08:53:37.924Z</time></trkpt><trkpt lat="45.803411250541714" lon="9.223468864087202"><ele>274.6</ele><time>2026-05-02T08:53:39.924Z</time></trkpt><trkpt lat="45.803405732890546" lon="9.223602005524032"><ele>275.0</ele><time>2026-05-02T08:53:42.924Z</time></trkpt><trkpt lat="45.803353609641526" lon="9.223735783590348"><ele>275.0</ele><time>2026-05-02T08:53:44.924Z</time></trkpt><trkpt lat="45.803309157694464" lon="9.223878593925189"><ele>275.0</ele><time>2026-05-02T08:53:46.924Z</time></trkpt><trkpt lat="45.803342704483505" lon="9.224039409161733"><ele>275.0</ele><time>2026-05-02T08:53:48.924Z</time></trkpt><trkpt lat="45.80338497360317" lon="9.224134767542502"><ele>275.0</ele><time>2026-05-02T08:53:49.924Z</time></trkpt><trkpt lat="45.80341637517093" lon="9.22424678475163"><ele>275.0</ele><time>2026-05-02T08:53:50.924Z</time></trkpt><trkpt lat="45.803440986754346" lon="9.224383816214548"><ele>274.4</ele><time>2026-05-02T08:53:51.924Z</time></trkpt><trkpt lat="45.80345275719612" lon="9.224528709987863"><ele>273.8</ele><time>2026-05-02T08:53:52.924Z</time></trkpt><trkpt lat="45.80345646568673" lon="9.224675977174263"><ele>273.2</ele><time>2026-05-02T08:53:53.924Z</time></trkpt><trkpt lat="45.80347057503782" lon="9.224817571297766"><ele>272.6</ele><time>2026-05-02T08:53:54.924Z</time></trkpt><trkpt lat="45.803486520053724" lon="9.224954166792811"><ele>272.0</ele><time>2026-05-02T08:53:55.924Z</time></trkpt><trkpt lat="45.80350123602287" lon="9.225084329450228"><ele>272.0</ele><time>2026-05-02T08:53:56.924Z</time></trkpt><trkpt lat="45.80351538238667" lon="9.225214162031449"><ele>272.0</ele><time>2026-05-02T08:53:57.924Z</time></trkpt><trkpt lat="45.80353086138063" lon="9.225357143878387"><ele>272.0</ele><time>2026-05-02T08:53:58.924Z</time></trkpt><trkpt lat="45.803549621218515" lon="9.225504769009289"><ele>272.0</ele><time>2026-05-02T08:53:59.924Z</time></trkpt><trkpt lat="45.80357335789676" lon="9.225661327027055"><ele>272.0</ele><time>2026-05-02T08:54:00.924Z</time></trkpt><trkpt lat="45.80360484312843" lon="9.225811777218432"><ele>272.0</ele><time>2026-05-02T08:54:01.924Z</time></trkpt><trkpt lat="45.80363482151249" lon="9.22595986618986"><ele>272.0</ele><time>2026-05-02T08:54:02.924Z</time></trkpt><trkpt lat="45.803661544717826" lon="9.22610120416932"><ele>272.0</ele><time>2026-05-02T08:54:03.924Z</time></trkpt><trkpt lat="45.803691739893885" lon="9.226248663972402"><ele>272.0</ele><time>2026-05-02T08:54:04.924Z</time></trkpt><trkpt lat="45.80372291987494" lon="9.226404027485628"><ele>272.0</ele><time>2026-05-02T08:54:05.924Z</time></trkpt><trkpt lat="45.803759494726265" lon="9.22656415004716"><ele>272.2</ele><time>2026-05-02T08:54:06.924Z</time></trkpt><trkpt lat="45.80379218651104" lon="9.226725191890743"><ele>272.4</ele><time>2026-05-02T08:54:07.924Z</time></trkpt><trkpt lat="45.80382774366008" lon="9.226877964363497"><ele>272.6</ele><time>2026-05-02T08:54:08.924Z</time></trkpt><trkpt lat="45.80385917189191" lon="9.227013002509745"><ele>272.8</ele><time>2026-05-02T08:54:09.924Z</time></trkpt><trkpt lat="45.8038843476519" lon="9.227134316225186"><ele>273.0</ele><time>2026-05-02T08:54:10.924Z</time></trkpt><trkpt lat="45.8039083243405" lon="9.227242987317776"><ele>272.8333333333333</ele><time>2026-05-02T08:54:11.924Z</time></trkpt><trkpt lat="45.803931643969555" lon="9.227339364494167"><ele>272.6666666666667</ele><time>2026-05-02T08:54:12.924Z</time></trkpt><trkpt lat="45.803962904079995" lon="9.227490349650317"><ele>272.5</ele><time>2026-05-02T08:54:14.924Z</time></trkpt><trkpt lat="45.80398559227945" lon="9.227590157110953"><ele>272.33333333333337</ele><time>2026-05-02T08:54:16.924Z</time></trkpt><trkpt lat="45.804017963907455" lon="9.227711495168075"><ele>272.1666666666667</ele><time>2026-05-02T08:54:19.923Z</time></trkpt><trkpt lat="45.804038588173874" lon="9.227808555815466"><ele>272.0</ele><time>2026-05-02T08:54:21.923Z</time></trkpt><trkpt lat="45.8040553660371" lon="9.227899026611166"><ele>272.0</ele><time>2026-05-02T08:54:23.923Z</time></trkpt><trkpt lat="45.804071451330515" lon="9.22799335803326"><ele>272.0</ele><time>2026-05-02T08:54:25.923Z</time></trkpt><trkpt lat="45.80409270158423" lon="9.228104893608425"><ele>272.0</ele><time>2026-05-02T08:54:27.923Z</time></trkpt><trkpt lat="45.804116792833895" lon="9.228221981444138"><ele>272.0</ele><time>2026-05-02T08:54:29.923Z</time></trkpt><trkpt lat="45.80414374343246" lon="9.228334341103377"><ele>272.0</ele><time>2026-05-02T08:54:31.923Z</time></trkpt><trkpt lat="45.80417451410079" lon="9.22848014474634"><ele>272.0</ele><time>2026-05-02T08:54:33.923Z</time></trkpt><trkpt lat="45.804206443533744" lon="9.228652191441473"><ele>272.25</ele><time>2026-05-02T08:54:35.923Z</time></trkpt><trkpt lat="45.80423813438461" lon="9.228811582933439"><ele>272.5</ele><time>2026-05-02T08:54:37.923Z</time></trkpt><trkpt lat="45.804273599084134" lon="9.228963552976017"><ele>272.75</ele><time>2026-05-02T08:54:39.923Z</time></trkpt><trkpt lat="45.80430549909881" lon="9.229122798397086"><ele>273.0</ele><time>2026-05-02T08:54:41.923Z</time></trkpt><trkpt lat="45.804335183809" lon="9.22929337188416"><ele>273.1666666666667</ele><time>2026-05-02T08:54:43.923Z</time></trkpt><trkpt lat="45.804355291728456" lon="9.229383431489454"><ele>273.3333333333333</ele><time>2026-05-02T08:54:44.923Z</time></trkpt><trkpt lat="45.804381190498376" lon="9.229484268710129"><ele>273.5</ele><time>2026-05-02T08:54:45.923Z</time></trkpt><trkpt lat="45.80439738972781" lon="9.229577402938027"><ele>273.66666666666663</ele><time>2026-05-02T08:54:46.923Z</time></trkpt><trkpt lat="45.80441497014763" lon="9.229664875617594"><ele>273.8333333333333</ele><time>2026-05-02T08:54:47.923Z</time></trkpt><trkpt lat="45.804454255641254" lon="9.229828292687616"><ele>274.0</ele><time>2026-05-02T08:54:49.923Z</time></trkpt><trkpt lat="45.804487060491034" lon="9.229970875443698"><ele>274.4</ele><time>2026-05-02T08:54:51.923Z</time></trkpt><trkpt lat="45.804524077038735" lon="9.230149243002161"><ele>274.79999999999995</ele><time>2026-05-02T08:54:53.923Z</time></trkpt><trkpt lat="45.804547876720015" lon="9.230257691197483"><ele>275.20000000000005</ele><time>2026-05-02T08:54:54.923Z</time></trkpt><trkpt lat="45.80457382542203" lon="9.230374091832926"><ele>275.6</ele><time>2026-05-02T08:54:55.923Z</time></trkpt><trkpt lat="45.804600294382695" lon="9.23049806652406"><ele>276.0</ele><time>2026-05-02T08:54:56.923Z</time></trkpt><trkpt lat="45.80462736242226" lon="9.230628335913254"><ele>276.0</ele><time>2026-05-02T08:54:57.923Z</time></trkpt><trkpt lat="45.80465713703607" lon="9.230767184211635"><ele>276.0</ele><time>2026-05-02T08:54:58.923Z</time></trkpt><trkpt lat="45.80468832118318" lon="9.230912388689982"><ele>276.0</ele><time>2026-05-02T08:54:59.923Z</time></trkpt><trkpt lat="45.80472129822066" lon="9.231046742677687"><ele>276.0</ele><time>2026-05-02T08:55:00.923Z</time></trkpt><trkpt lat="45.80475192062296" lon="9.231178183166218"><ele>276.0</ele><time>2026-05-02T08:55:01.923Z</time></trkpt><trkpt lat="45.804779537552" lon="9.231301503238793"><ele>276.0</ele><time>2026-05-02T08:55:02.923Z</time></trkpt><trkpt lat="45.8047859183568" lon="9.231446832308945"><ele>276.0</ele><time>2026-05-02T08:55:03.923Z</time></trkpt><trkpt lat="45.804814289717314" lon="9.231577419511602"><ele>276.0</ele><time>2026-05-02T08:55:04.923Z</time></trkpt><trkpt lat="45.804841172514266" lon="9.231706133019534"><ele>276.0</ele><time>2026-05-02T08:55:05.923Z</time></trkpt><trkpt lat="45.80486541129368" lon="9.231834689536711"><ele>276.0</ele><time>2026-05-02T08:55:06.923Z</time></trkpt><trkpt lat="45.80489130235074" lon="9.231956795704427"><ele>276.0</ele><time>2026-05-02T08:55:07.923Z</time></trkpt><trkpt lat="45.80491646857921" lon="9.23207460929061"><ele>276.0</ele><time>2026-05-02T08:55:08.923Z</time></trkpt><trkpt lat="45.80493906731953" lon="9.232178942523985"><ele>276.0</ele><time>2026-05-02T08:55:09.923Z</time></trkpt><trkpt lat="45.80496050534792" lon="9.232274738991793"><ele>276.0</ele><time>2026-05-02T08:55:10.923Z</time></trkpt><trkpt lat="45.80497860321591" lon="9.23236329618054"><ele>276.0</ele><time>2026-05-02T08:55:11.923Z</time></trkpt><trkpt lat="45.805010980374256" lon="9.232513966834965"><ele>276.0</ele><time>2026-05-02T08:55:13.923Z</time></trkpt><trkpt lat="45.80504533011064" lon="9.232651153063049"><ele>276.2</ele><time>2026-05-02T08:55:15.923Z</time></trkpt><trkpt lat="45.80507506512171" lon="9.232782450511657"><ele>276.40000000000003</ele><time>2026-05-02T08:55:17.923Z</time></trkpt><trkpt lat="45.80510392647252" lon="9.232919237163815"><ele>276.6</ele><time>2026-05-02T08:55:19.923Z</time></trkpt><trkpt lat="45.80510795847074" lon="9.233043030245252"><ele>276.8</ele><time>2026-05-02T08:55:21.923Z</time></trkpt><trkpt lat="45.80513108101386" lon="9.233167630281265"><ele>277.0</ele><time>2026-05-02T08:55:23.923Z</time></trkpt><trkpt lat="45.80516586107283" lon="9.233335649871032"><ele>277.5</ele><time>2026-05-02T08:55:25.923Z</time></trkpt><trkpt lat="45.80518604853763" lon="9.23342136462461"><ele>278.0</ele><time>2026-05-02T08:55:26.923Z</time></trkpt><trkpt lat="45.80522531792297" lon="9.23358233382767"><ele>278.5</ele><time>2026-05-02T08:55:28.923Z</time></trkpt><trkpt lat="45.80525559001668" lon="9.233720405810965"><ele>279.0</ele><time>2026-05-02T08:55:30.923Z</time></trkpt><trkpt lat="45.805274769008875" lon="9.233840262485087"><ele>279.5</ele><time>2026-05-02T08:55:32.923Z</time></trkpt><trkpt lat="45.805275635270675" lon="9.233950828330036"><ele>280.0</ele><time>2026-05-02T08:55:34.923Z</time></trkpt><trkpt lat="45.80527979836201" lon="9.234054677211079"><ele>280.0</ele><time>2026-05-02T08:55:37.923Z</time></trkpt><trkpt lat="45.80526274527875" lon="9.23415278871498"><ele>280.0</ele><time>2026-05-02T08:55:40.923Z</time></trkpt><trkpt lat="45.80522935710934" lon="9.234251769317861"><ele>280.0</ele><time>2026-05-02T08:55:42.923Z</time></trkpt><trkpt lat="45.80519345329673" lon="9.234342075666921"><ele>280.0</ele><time>2026-05-02T08:55:45.923Z</time></trkpt><trkpt lat="45.80519863728956" lon="9.234436105168248"><ele>280.0</ele><time>2026-05-02T08:55:48.923Z</time></trkpt><trkpt lat="45.805297589319075" lon="9.234601729020369"><ele>280.0</ele><time>2026-05-02T08:55:56.923Z</time></trkpt><trkpt lat="45.80538447125069" lon="9.234738788602208"><ele>279.85714285714283</ele><time>2026-05-02T08:55:58.923Z</time></trkpt><trkpt lat="45.80541813130039" lon="9.234832759032038"><ele>279.7142857142857</ele><time>2026-05-02T08:55:59.923Z</time></trkpt><trkpt lat="45.80544999603437" lon="9.234930359407638"><ele>279.57142857142856</ele><time>2026-05-02T08:56:00.923Z</time></trkpt><trkpt lat="45.80547605862583" lon="9.235030766508125"><ele>279.42857142857144</ele><time>2026-05-02T08:56:01.923Z</time></trkpt><trkpt lat="45.80550093180095" lon="9.235134111076622"><ele>279.2857142857143</ele><time>2026-05-02T08:56:02.923Z</time></trkpt><trkpt lat="45.80552536727112" lon="9.235227588843843"><ele>279.1428571428571</ele><time>2026-05-02T08:56:03.923Z</time></trkpt><trkpt lat="45.80554585897514" lon="9.235313634731671"><ele>279.0</ele><time>2026-05-02T08:56:04.923Z</time></trkpt><trkpt lat="45.80556952965256" lon="9.2354025487307"><ele>279.0</ele><time>2026-05-02T08:56:05.923Z</time></trkpt><trkpt lat="45.805601883763735" lon="9.235501534885094"><ele>279.0</ele><time>2026-05-02T08:56:06.923Z</time></trkpt><trkpt lat="45.80563832556696" lon="9.235619469431603"><ele>279.0</ele><time>2026-05-02T08:56:07.923Z</time></trkpt><trkpt lat="45.80565482285429" lon="9.235749563680189"><ele>279.0</ele><time>2026-05-02T08:56:08.923Z</time></trkpt><trkpt lat="45.80568849086937" lon="9.235884081098051"><ele>279.0</ele><time>2026-05-02T08:56:09.923Z</time></trkpt><trkpt lat="45.80572069577014" lon="9.236012752759635"><ele>278.8333333333333</ele><time>2026-05-02T08:56:10.923Z</time></trkpt><trkpt lat="45.80575192484762" lon="9.236137525659363"><ele>278.6666666666667</ele><time>2026-05-02T08:56:11.923Z</time></trkpt><trkpt lat="45.8057943534372" lon="9.236257257540228"><ele>278.5</ele><time>2026-05-02T08:56:12.923Z</time></trkpt><trkpt lat="45.80581915772786" lon="9.236380007456821"><ele>278.33333333333337</ele><time>2026-05-02T08:56:13.923Z</time></trkpt><trkpt lat="45.805842818169616" lon="9.236492587999331"><ele>278.1666666666667</ele><time>2026-05-02T08:56:14.923Z</time></trkpt><trkpt lat="45.80586922342444" lon="9.2365971247816"><ele>278.0</ele><time>2026-05-02T08:56:15.923Z</time></trkpt><trkpt lat="45.80589121981931" lon="9.236704989174813"><ele>277.6</ele><time>2026-05-02T08:56:16.923Z</time></trkpt><trkpt lat="45.80590918652578" lon="9.236819982667408"><ele>277.20000000000005</ele><time>2026-05-02T08:56:17.923Z</time></trkpt><trkpt lat="45.80593396063017" lon="9.236938506524096"><ele>276.8</ele><time>2026-05-02T08:56:18.923Z</time></trkpt><trkpt lat="45.80595937298107" lon="9.237065670765878"><ele>276.40000000000003</ele><time>2026-05-02T08:56:19.923Z</time></trkpt><trkpt lat="45.805983605753156" lon="9.237205689627288"><ele>276.0</ele><time>2026-05-02T08:56:20.923Z</time></trkpt><trkpt lat="45.80601278056247" lon="9.237353114733724"><ele>276.0</ele><time>2026-05-02T08:56:21.923Z</time></trkpt><trkpt lat="45.80604130804177" lon="9.237493795092298"><ele>276.0</ele><time>2026-05-02T08:56:22.923Z</time></trkpt><trkpt lat="45.80606914458606" lon="9.237631000208527"><ele>276.0</ele><time>2026-05-02T08:56:23.922Z</time></trkpt><trkpt lat="45.806096380824705" lon="9.237763843577254"><ele>276.0</ele><time>2026-05-02T08:56:24.922Z</time></trkpt><trkpt lat="45.806124707543795" lon="9.23790102668496"><ele>276.0</ele><time>2026-05-02T08:56:25.922Z</time></trkpt><trkpt lat="45.80615550746809" lon="9.238041760946592"><ele>276.25</ele><time>2026-05-02T08:56:26.921Z</time></trkpt><trkpt lat="45.806184720587744" lon="9.238192513647407"><ele>276.5</ele><time>2026-05-02T08:56:27.921Z</time></trkpt><trkpt lat="45.80621522453701" lon="9.238352088438363"><ele>276.75</ele><time>2026-05-02T08:56:28.921Z</time></trkpt><trkpt lat="45.80624762939773" lon="9.238520438034003"><ele>277.0</ele><time>2026-05-02T08:56:29.921Z</time></trkpt><trkpt lat="45.806281566009034" lon="9.23868903503436"><ele>277.0</ele><time>2026-05-02T08:56:30.922Z</time></trkpt><trkpt lat="45.8063161397359" lon="9.238860696101739"><ele>277.0</ele><time>2026-05-02T08:56:31.922Z</time></trkpt><trkpt lat="45.80635070974092" lon="9.239033368237646"><ele>277.0</ele><time>2026-05-02T08:56:32.922Z</time></trkpt><trkpt lat="45.806388066697416" lon="9.239212519065564"><ele>277.0</ele><time>2026-05-02T08:56:33.922Z</time></trkpt><trkpt lat="45.80642412165778" lon="9.239396089158058"><ele>276.5</ele><time>2026-05-02T08:56:34.922Z</time></trkpt><trkpt lat="45.80646250603193" lon="9.239585435370975"><ele>276.0</ele><time>2026-05-02T08:56:35.922Z</time></trkpt><trkpt lat="45.806501585136104" lon="9.239772630736846"><ele>275.5</ele><time>2026-05-02T08:56:36.921Z</time></trkpt><trkpt lat="45.80653848832155" lon="9.239959226531665"><ele>275.0</ele><time>2026-05-02T08:56:37.921Z</time></trkpt><trkpt lat="45.806574801914174" lon="9.240144751005815"><ele>274.6666666666667</ele><time>2026-05-02T08:56:38.921Z</time></trkpt><trkpt lat="45.80661175082578" lon="9.240322510649905"><ele>274.3333333333333</ele><time>2026-05-02T08:56:39.922Z</time></trkpt><trkpt lat="45.80664700559232" lon="9.240491551928057"><ele>274.0</ele><time>2026-05-02T08:56:40.922Z</time></trkpt><trkpt lat="45.806716341881" lon="9.24082277205485"><ele>274.0</ele><time>2026-05-02T08:56:42.922Z</time></trkpt><trkpt lat="45.806748312149644" lon="9.24097608357843"><ele>274.0</ele><time>2026-05-02T08:56:43.922Z</time></trkpt><trkpt lat="45.806776025424455" lon="9.24111825988646"><ele>274.0</ele><time>2026-05-02T08:56:44.922Z</time></trkpt><trkpt lat="45.80680223881867" lon="9.241250822284186"><ele>274.0</ele><time>2026-05-02T08:56:45.922Z</time></trkpt><trkpt lat="45.806828268322995" lon="9.241373225834042"><ele>274.0</ele><time>2026-05-02T08:56:46.922Z</time></trkpt><trkpt lat="45.80685567592487" lon="9.241486697532162"><ele>273.8333333333333</ele><time>2026-05-02T08:56:47.922Z</time></trkpt><trkpt lat="45.80688145696228" lon="9.24159264270295"><ele>273.66666666666663</ele><time>2026-05-02T08:56:48.922Z</time></trkpt><trkpt lat="45.806905889008554" lon="9.241689440379536"><ele>273.5</ele><time>2026-05-02T08:56:49.922Z</time></trkpt><trkpt lat="45.80692973919111" lon="9.241780502699232"><ele>273.3333333333333</ele><time>2026-05-02T08:56:50.922Z</time></trkpt><trkpt lat="45.80694808270183" lon="9.241870447379066"><ele>273.1666666666667</ele><time>2026-05-02T08:56:51.922Z</time></trkpt><trkpt lat="45.806968690935484" lon="9.241980454418256"><ele>273.0</ele><time>2026-05-02T08:56:52.922Z</time></trkpt><trkpt lat="45.80699535848773" lon="9.242114038851934"><ele>273.0</ele><time>2026-05-02T08:56:53.922Z</time></trkpt><trkpt lat="45.80702630314625" lon="9.24225488027892"><ele>273.0</ele><time>2026-05-02T08:56:54.922Z</time></trkpt><trkpt lat="45.80705892953867" lon="9.24240474351539"><ele>273.0</ele><time>2026-05-02T08:56:55.922Z</time></trkpt><trkpt lat="45.80708941634289" lon="9.242557617185613"><ele>273.0</ele><time>2026-05-02T08:56:56.922Z</time></trkpt><trkpt lat="45.807121267309874" lon="9.242710823746455"><ele>273.0</ele><time>2026-05-02T08:56:57.922Z</time></trkpt><trkpt lat="45.807153345871754" lon="9.242867846719479"><ele>273.0</ele><time>2026-05-02T08:56:58.922Z</time></trkpt><trkpt lat="45.80718414047366" lon="9.243015722852506"><ele>273.0</ele><time>2026-05-02T08:56:59.922Z</time></trkpt><trkpt lat="45.8072158037307" lon="9.243168139058605"><ele>273.0</ele><time>2026-05-02T08:57:00.922Z</time></trkpt><trkpt lat="45.807248694300625" lon="9.243324886710912"><ele>273.0</ele><time>2026-05-02T08:57:01.922Z</time></trkpt><trkpt lat="45.80728284612409" lon="9.243493909032214"><ele>273.25</ele><time>2026-05-02T08:57:02.922Z</time></trkpt><trkpt lat="45.80731694859389" lon="9.243663992432667"><ele>273.5</ele><time>2026-05-02T08:57:03.922Z</time></trkpt><trkpt lat="45.80735098619168" lon="9.243841345459703"><ele>273.75</ele><time>2026-05-02T08:57:04.922Z</time></trkpt><trkpt lat="45.807381437559556" lon="9.244027404708792"><ele>274.0</ele><time>2026-05-02T08:57:05.922Z</time></trkpt><trkpt lat="45.80741240204517" lon="9.244215737370173"><ele>273.5</ele><time>2026-05-02T08:57:06.922Z</time></trkpt><trkpt lat="45.80743788135476" lon="9.244413902942208"><ele>273.0</ele><time>2026-05-02T08:57:07.922Z</time></trkpt><trkpt lat="45.80746073856022" lon="9.244615329055227"><ele>272.5</ele><time>2026-05-02T08:57:08.922Z</time></trkpt><trkpt lat="45.807469705987195" lon="9.244817546621752"><ele>272.0</ele><time>2026-05-02T08:57:09.922Z</time></trkpt><trkpt lat="45.807469717858154" lon="9.245010295371886"><ele>271.2</ele><time>2026-05-02T08:57:10.922Z</time></trkpt><trkpt lat="45.807476282715335" lon="9.24518905044955"><ele>270.4</ele><time>2026-05-02T08:57:11.922Z</time></trkpt><trkpt lat="45.80748042569501" lon="9.245355381943911"><ele>269.6</ele><time>2026-05-02T08:57:12.922Z</time></trkpt><trkpt lat="45.807483803319016" lon="9.245510053443041"><ele>268.8</ele><time>2026-05-02T08:57:13.922Z</time></trkpt><trkpt lat="45.80748655912381" lon="9.245652695895801"><ele>268.0</ele><time>2026-05-02T08:57:14.922Z</time></trkpt><trkpt lat="45.80749575980755" lon="9.245783618284342"><ele>267.8333333333333</ele><time>2026-05-02T08:57:15.922Z</time></trkpt><trkpt lat="45.80749497768824" lon="9.245902536358637"><ele>267.66666666666663</ele><time>2026-05-02T08:57:16.922Z</time></trkpt><trkpt lat="45.807495555489886" lon="9.246023357131408"><ele>267.5</ele><time>2026-05-02T08:57:17.922Z</time></trkpt><trkpt lat="45.80749450181967" lon="9.246145079855383"><ele>267.3333333333333</ele><time>2026-05-02T08:57:18.922Z</time></trkpt><trkpt lat="45.80748924117188" lon="9.246253114122066"><ele>267.1666666666667</ele><time>2026-05-02T08:57:19.922Z</time></trkpt><trkpt lat="45.80747778521986" lon="9.246344830925851"><ele>267.0</ele><time>2026-05-02T08:57:21.922Z</time></trkpt><trkpt lat="45.807456013574246" lon="9.246477505454779"><ele>266.6</ele><time>2026-05-02T08:57:26.922Z</time></trkpt><trkpt lat="45.80743944012623" lon="9.246576525275234"><ele>266.2</ele><time>2026-05-02T08:57:27.922Z</time></trkpt><trkpt lat="45.80741071901353" lon="9.246693500075898"><ele>265.8</ele><time>2026-05-02T08:57:28.922Z</time></trkpt><trkpt lat="45.80744648547742" lon="9.246839623009784"><ele>265.4</ele><time>2026-05-02T08:57:29.922Z</time></trkpt><trkpt lat="45.80745675860086" lon="9.247007024272516"><ele>265.0</ele><time>2026-05-02T08:57:30.922Z</time></trkpt><trkpt lat="45.80746050041859" lon="9.247180428188031"><ele>265.0</ele><time>2026-05-02T08:57:31.922Z</time></trkpt><trkpt lat="45.80745861234687" lon="9.247371696384672"><ele>265.0</ele><time>2026-05-02T08:57:32.922Z</time></trkpt><trkpt lat="45.80745430952953" lon="9.247568132181632"><ele>265.0</ele><time>2026-05-02T08:57:33.922Z</time></trkpt><trkpt lat="45.807442893712064" lon="9.24777718771368"><ele>265.0</ele><time>2026-05-02T08:57:34.922Z</time></trkpt><trkpt lat="45.80743304832089" lon="9.247998293825287"><ele>265.66666666666663</ele><time>2026-05-02T08:57:35.922Z</time></trkpt><trkpt lat="45.80742603949923" lon="9.248213848722294"><ele>266.3333333333333</ele><time>2026-05-02T08:57:36.922Z</time></trkpt><trkpt lat="45.8074192084326" lon="9.248442266927405"><ele>267.0</ele><time>2026-05-02T08:57:37.923Z</time></trkpt><trkpt lat="45.80741216592968" lon="9.248674845614685"><ele>267.0</ele><time>2026-05-02T08:57:38.924Z</time></trkpt><trkpt lat="45.807410503263924" lon="9.248903750824207"><ele>267.0</ele><time>2026-05-02T08:57:39.926Z</time></trkpt><trkpt lat="45.807409507391746" lon="9.249141129548514"><ele>267.0</ele><time>2026-05-02T08:57:40.927Z</time></trkpt><trkpt lat="45.80740092131084" lon="9.249377171886843"><ele>267.6666666666667</ele><time>2026-05-02T08:57:41.928Z</time></trkpt><trkpt lat="45.80739191205334" lon="9.24960594396703"><ele>268.33333333333337</ele><time>2026-05-02T08:57:42.929Z</time></trkpt><trkpt lat="45.80738127251722" lon="9.249825644418301"><ele>269.0</ele><time>2026-05-02T08:57:43.93Z</time></trkpt><trkpt lat="45.80737257346054" lon="9.250037754676482"><ele>269.0</ele><time>2026-05-02T08:57:44.931Z</time></trkpt><trkpt lat="45.80736148579461" lon="9.250228808529995"><ele>269.0</ele><time>2026-05-02T08:57:45.932Z</time></trkpt><trkpt lat="45.80735001563216" lon="9.250412240101637"><ele>269.0</ele><time>2026-05-02T08:57:46.933Z</time></trkpt><trkpt lat="45.80733987390004" lon="9.250591929851714"><ele>269.0</ele><time>2026-05-02T08:57:47.934Z</time></trkpt><trkpt lat="45.80732953515962" lon="9.250766492313517"><ele>269.0</ele><time>2026-05-02T08:57:48.934Z</time></trkpt><trkpt lat="45.80731800360326" lon="9.2509380111286"><ele>269.0</ele><time>2026-05-02T08:57:49.935Z</time></trkpt><trkpt lat="45.807304310736846" lon="9.251127431744017"><ele>269.0</ele><time>2026-05-02T08:57:50.936Z</time></trkpt><trkpt lat="45.80729752718918" lon="9.251331276601073"><ele>269.0</ele><time>2026-05-02T08:57:51.936Z</time></trkpt><trkpt lat="45.807283387945446" lon="9.251540651912972"><ele>269.0</ele><time>2026-05-02T08:57:52.937Z</time></trkpt><trkpt lat="45.8072740005143" lon="9.251745351462526"><ele>269.0</ele><time>2026-05-02T08:57:53.937Z</time></trkpt><trkpt lat="45.8072632847239" lon="9.251962961855828"><ele>269.0</ele><time>2026-05-02T08:57:54.938Z</time></trkpt><trkpt lat="45.807253318559326" lon="9.252184533520525"><ele>268.75</ele><time>2026-05-02T08:57:55.938Z</time></trkpt><trkpt lat="45.80723931813892" lon="9.25239506744408"><ele>268.5</ele><time>2026-05-02T08:57:56.939Z</time></trkpt><trkpt lat="45.80722916634297" lon="9.25259799613828"><ele>268.25</ele><time>2026-05-02T08:57:57.939Z</time></trkpt><trkpt lat="45.80722197556409" lon="9.252798772659952"><ele>268.0</ele><time>2026-05-02T08:57:58.94Z</time></trkpt><trkpt lat="45.80721904329346" lon="9.253002159912485"><ele>269.25</ele><time>2026-05-02T08:57:59.94Z</time></trkpt><trkpt lat="45.80721556833474" lon="9.253203632998039"><ele>270.5</ele><time>2026-05-02T08:58:00.94Z</time></trkpt><trkpt lat="45.80721155615838" lon="9.25339955111517"><ele>271.75</ele><time>2026-05-02T08:58:01.941Z</time></trkpt><trkpt lat="45.80721332063427" lon="9.253567971077308"><ele>273.0</ele><time>2026-05-02T08:58:02.941Z</time></trkpt><trkpt lat="45.807236347421814" lon="9.253710697879194"><ele>273.0</ele><time>2026-05-02T08:58:03.941Z</time></trkpt><trkpt lat="45.80722867369401" lon="9.25385214925435"><ele>273.0</ele><time>2026-05-02T08:58:04.942Z</time></trkpt><trkpt lat="45.80724047378834" lon="9.253991849123244"><ele>273.0</ele><time>2026-05-02T08:58:05.942Z</time></trkpt><trkpt lat="45.80725224987317" lon="9.254111813441346"><ele>273.0</ele><time>2026-05-02T08:58:06.942Z</time></trkpt><trkpt lat="45.807279458240515" lon="9.25424751692307"><ele>273.0</ele><time>2026-05-02T08:58:07.942Z</time></trkpt><trkpt lat="45.80729655014627" lon="9.254396569594759"><ele>273.0</ele><time>2026-05-02T08:58:08.942Z</time></trkpt><trkpt lat="45.80731357550666" lon="9.254550797897767"><ele>273.0</ele><time>2026-05-02T08:58:09.943Z</time></trkpt><trkpt lat="45.80733228337306" lon="9.254720378081798"><ele>273.0</ele><time>2026-05-02T08:58:10.943Z</time></trkpt><trkpt lat="45.80735070392977" lon="9.254898094232002"><ele>273.0</ele><time>2026-05-02T08:58:11.943Z</time></trkpt><trkpt lat="45.80737102683959" lon="9.255080532573677"><ele>272.0</ele><time>2026-05-02T08:58:12.943Z</time></trkpt><trkpt lat="45.807394362924704" lon="9.25526964589023"><ele>271.0</ele><time>2026-05-02T08:58:13.943Z</time></trkpt><trkpt lat="45.80741572558319" lon="9.2554691689187"><ele>270.0</ele><time>2026-05-02T08:58:14.943Z</time></trkpt><trkpt lat="45.80743866717329" lon="9.255674824232557"><ele>269.0</ele><time>2026-05-02T08:58:15.944Z</time></trkpt><trkpt lat="45.80746612300391" lon="9.255883848560007"><ele>268.6666666666667</ele><time>2026-05-02T08:58:16.944Z</time></trkpt><trkpt lat="45.80749344508447" lon="9.25609754165366"><ele>268.3333333333333</ele><time>2026-05-02T08:58:17.944Z</time></trkpt><trkpt lat="45.807514450968995" lon="9.256317673873884"><ele>268.0</ele><time>2026-05-02T08:58:18.944Z</time></trkpt><trkpt lat="45.80753861418426" lon="9.256538131132615"><ele>267.3333333333333</ele><time>2026-05-02T08:58:19.944Z</time></trkpt><trkpt lat="45.80756531839221" lon="9.2567625192258"><ele>266.6666666666667</ele><time>2026-05-02T08:58:20.944Z</time></trkpt><trkpt lat="45.807589506300424" lon="9.256985296253045"><ele>266.0</ele><time>2026-05-02T08:58:21.944Z</time></trkpt><trkpt lat="45.80761972636496" lon="9.25721202365575"><ele>265.0</ele><time>2026-05-02T08:58:22.944Z</time></trkpt><trkpt lat="45.80765403509782" lon="9.257439855773008"><ele>264.0</ele><time>2026-05-02T08:58:23.944Z</time></trkpt><trkpt lat="45.80767724281896" lon="9.25766608455909"><ele>263.0</ele><time>2026-05-02T08:58:24.944Z</time></trkpt><trkpt lat="45.807705157151716" lon="9.257891416884226"><ele>265.33333333333337</ele><time>2026-05-02T08:58:25.945Z</time></trkpt><trkpt lat="45.80774187788467" lon="9.25811820665967"><ele>267.6666666666667</ele><time>2026-05-02T08:58:26.945Z</time></trkpt><trkpt lat="45.80777967860691" lon="9.258346268134199"><ele>270.0</ele><time>2026-05-02T08:58:27.945Z</time></trkpt><trkpt lat="45.80782768728706" lon="9.258570137262737"><ele>270.0</ele><time>2026-05-02T08:58:28.945Z</time></trkpt><trkpt lat="45.80787381729118" lon="9.258794373407342"><ele>270.0</ele><time>2026-05-02T08:58:29.944Z</time></trkpt><trkpt lat="45.8079258856669" lon="9.25901343400596"><ele>270.0</ele><time>2026-05-02T08:58:30.944Z</time></trkpt><trkpt lat="45.807986708867936" lon="9.259226931219057"><ele>269.6666666666667</ele><time>2026-05-02T08:58:31.944Z</time></trkpt><trkpt lat="45.808048384006476" lon="9.259445978131021"><ele>269.33333333333337</ele><time>2026-05-02T08:58:32.943Z</time></trkpt><trkpt lat="45.808113775102484" lon="9.259664159728976"><ele>269.0</ele><time>2026-05-02T08:58:33.944Z</time></trkpt><trkpt lat="45.8081750428102" lon="9.25988239129963"><ele>267.6666666666667</ele><time>2026-05-02T08:58:34.944Z</time></trkpt><trkpt lat="45.80823514006034" lon="9.260100956777684"><ele>266.3333333333333</ele><time>2026-05-02T08:58:35.944Z</time></trkpt><trkpt lat="45.80829330915815" lon="9.260324197027362"><ele>265.0</ele><time>2026-05-02T08:58:36.944Z</time></trkpt><trkpt lat="45.808352676694646" lon="9.260545563291231"><ele>264.66666666666663</ele><time>2026-05-02T08:58:37.944Z</time></trkpt><trkpt lat="45.808416662047534" lon="9.260769203559096"><ele>264.3333333333333</ele><time>2026-05-02T08:58:38.944Z</time></trkpt><trkpt lat="45.80848068509287" lon="9.26098857933687"><ele>264.0</ele><time>2026-05-02T08:58:39.944Z</time></trkpt><trkpt lat="45.80854387208789" lon="9.26120466674526"><ele>265.3333333333333</ele><time>2026-05-02T08:58:40.944Z</time></trkpt><trkpt lat="45.80860422580776" lon="9.261415705559834"><ele>266.66666666666663</ele><time>2026-05-02T08:58:41.943Z</time></trkpt><trkpt lat="45.80866739853456" lon="9.26162398747551"><ele>268.0</ele><time>2026-05-02T08:58:42.944Z</time></trkpt><trkpt lat="45.80873057643859" lon="9.261834517394625"><ele>268.0</ele><time>2026-05-02T08:58:43.944Z</time></trkpt><trkpt lat="45.80879545788019" lon="9.262046080373048"><ele>268.0</ele><time>2026-05-02T08:58:44.944Z</time></trkpt><trkpt lat="45.808863850486865" lon="9.262264130880036"><ele>268.0</ele><time>2026-05-02T08:58:45.944Z</time></trkpt><trkpt lat="45.80891232399969" lon="9.262510352834619"><ele>267.66666666666663</ele><time>2026-05-02T08:58:46.944Z</time></trkpt><trkpt lat="45.80898324512166" lon="9.262741173725153"><ele>267.3333333333333</ele><time>2026-05-02T08:58:47.944Z</time></trkpt><trkpt lat="45.80905209634225" lon="9.262970923841818"><ele>267.0</ele><time>2026-05-02T08:58:48.944Z</time></trkpt><trkpt lat="45.809120638711775" lon="9.263200381718379"><ele>266.3333333333333</ele><time>2026-05-02T08:58:49.944Z</time></trkpt><trkpt lat="45.80919755722297" lon="9.263423378926845"><ele>265.66666666666663</ele><time>2026-05-02T08:58:50.944Z</time></trkpt><trkpt lat="45.80928390357428" lon="9.263633680359847"><ele>265.0</ele><time>2026-05-02T08:58:51.944Z</time></trkpt><trkpt lat="45.8093815558821" lon="9.263843365281568"><ele>268.3333333333333</ele><time>2026-05-02T08:58:52.944Z</time></trkpt><trkpt lat="45.80948132024168" lon="9.264049182925278"><ele>271.6666666666667</ele><time>2026-05-02T08:58:53.944Z</time></trkpt><trkpt lat="45.809586171184925" lon="9.264246350284207"><ele>275.0</ele><time>2026-05-02T08:58:54.944Z</time></trkpt><trkpt lat="45.80969644465299" lon="9.264434006495506"><ele>275.0</ele><time>2026-05-02T08:58:55.944Z</time></trkpt><trkpt lat="45.80980169334859" lon="9.2646195988768"><ele>275.0</ele><time>2026-05-02T08:58:56.944Z</time></trkpt><trkpt lat="45.8099087200384" lon="9.264798106438745"><ele>275.0</ele><time>2026-05-02T08:58:57.944Z</time></trkpt><trkpt lat="45.810014012149566" lon="9.264969245284231"><ele>281.5</ele><time>2026-05-02T08:58:58.944Z</time></trkpt><trkpt lat="45.81021870513855" lon="9.265303795330878"><ele>288.0</ele><time>2026-05-02T08:59:00.944Z</time></trkpt><trkpt lat="45.810317059924834" lon="9.265472736655822"><ele>283.6666666666667</ele><time>2026-05-02T08:59:01.944Z</time></trkpt><trkpt lat="45.81041345410524" lon="9.265644080509144"><ele>279.33333333333337</ele><time>2026-05-02T08:59:02.945Z</time></trkpt><trkpt lat="45.81050705467407" lon="9.265821989941797"><ele>275.0</ele><time>2026-05-02T08:59:03.945Z</time></trkpt><trkpt lat="45.81060014821248" lon="9.26600413477398"><ele>275.0</ele><time>2026-05-02T08:59:04.945Z</time></trkpt><trkpt lat="45.8106954678053" lon="9.266182235521645"><ele>275.0</ele><time>2026-05-02T08:59:05.945Z</time></trkpt><trkpt lat="45.81078616291247" lon="9.266372145516925"><ele>275.0</ele><time>2026-05-02T08:59:06.945Z</time></trkpt><trkpt lat="45.810882084387394" lon="9.266554633235383"><ele>277.33333333333337</ele><time>2026-05-02T08:59:07.945Z</time></trkpt><trkpt lat="45.81097707434995" lon="9.266738001090529"><ele>279.6666666666667</ele><time>2026-05-02T08:59:08.945Z</time></trkpt><trkpt lat="45.811068599201306" lon="9.266917748912562"><ele>282.0</ele><time>2026-05-02T08:59:09.945Z</time></trkpt><trkpt lat="45.81115335456204" lon="9.267090117445061"><ele>282.0</ele><time>2026-05-02T08:59:10.945Z</time></trkpt><trkpt lat="45.81123288335943" lon="9.267254257888895"><ele>282.0</ele><time>2026-05-02T08:59:11.945Z</time></trkpt><trkpt lat="45.81130828006846" lon="9.267407060092507"><ele>282.0</ele><time>2026-05-02T08:59:12.945Z</time></trkpt><trkpt lat="45.811374306829606" lon="9.267565450960337"><ele>282.0</ele><time>2026-05-02T08:59:13.945Z</time></trkpt><trkpt lat="45.811445959045265" lon="9.267712436203064"><ele>279.5</ele><time>2026-05-02T08:59:14.945Z</time></trkpt><trkpt lat="45.81151496467947" lon="9.267851858484633"><ele>277.0</ele><time>2026-05-02T08:59:15.945Z</time></trkpt><trkpt lat="45.81158269002399" lon="9.267993764895365"><ele>274.5</ele><time>2026-05-02T08:59:16.945Z</time></trkpt><trkpt lat="45.81164801368275" lon="9.268132621615754"><ele>272.0</ele><time>2026-05-02T08:59:17.945Z</time></trkpt><trkpt lat="45.81171163787578" lon="9.268271197778331"><ele>271.0</ele><time>2026-05-02T08:59:18.945Z</time></trkpt><trkpt lat="45.81177183663733" lon="9.268409483577669"><ele>270.0</ele><time>2026-05-02T08:59:19.945Z</time></trkpt><trkpt lat="45.81182937662466" lon="9.268540541679826"><ele>269.0</ele><time>2026-05-02T08:59:20.945Z</time></trkpt><trkpt lat="45.8118802607391" lon="9.268661060483609"><ele>268.0</ele><time>2026-05-02T08:59:21.945Z</time></trkpt><trkpt lat="45.81191859051944" lon="9.268773317219896"><ele>267.0</ele><time>2026-05-02T08:59:22.945Z</time></trkpt><trkpt lat="45.81194536843506" lon="9.268895783423178"><ele>268.4</ele><time>2026-05-02T08:59:23.945Z</time></trkpt><trkpt lat="45.811967804892845" lon="9.269021624794131"><ele>269.79999999999995</ele><time>2026-05-02T08:59:24.945Z</time></trkpt><trkpt lat="45.812007288997336" lon="9.269139427695308"><ele>271.2</ele><time>2026-05-02T08:59:25.945Z</time></trkpt><trkpt lat="45.812075972428566" lon="9.269218071972414"><ele>272.59999999999997</ele><time>2026-05-02T08:59:26.945Z</time></trkpt><trkpt lat="45.81216629755679" lon="9.269283404864682"><ele>274.0</ele><time>2026-05-02T08:59:27.945Z</time></trkpt><trkpt lat="45.81227149444011" lon="9.269358363393497"><ele>274.0</ele><time>2026-05-02T08:59:28.945Z</time></trkpt><trkpt lat="45.8123693834002" lon="9.269448695303529"><ele>274.0</ele><time>2026-05-02T08:59:29.945Z</time></trkpt><trkpt lat="45.812459669265216" lon="9.269552150054771"><ele>274.0</ele><time>2026-05-02T08:59:30.945Z</time></trkpt><trkpt lat="45.812548407384256" lon="9.269672156031923"><ele>274.0</ele><time>2026-05-02T08:59:31.945Z</time></trkpt><trkpt lat="45.812636962867764" lon="9.269797099450669"><ele>277.0</ele><time>2026-05-02T08:59:32.945Z</time></trkpt><trkpt lat="45.812737580847745" lon="9.269928693253279"><ele>280.0</ele><time>2026-05-02T08:59:33.945Z</time></trkpt><trkpt lat="45.81284260665132" lon="9.270069634019599"><ele>283.0</ele><time>2026-05-02T08:59:34.945Z</time></trkpt><trkpt lat="45.81295026092336" lon="9.270211214426356"><ele>286.0</ele><time>2026-05-02T08:59:35.945Z</time></trkpt><trkpt lat="45.81306057077091" lon="9.270361271189005"><ele>286.0</ele><time>2026-05-02T08:59:36.945Z</time></trkpt><trkpt lat="45.81316373837602" lon="9.270518532600887"><ele>286.0</ele><time>2026-05-02T08:59:37.945Z</time></trkpt><trkpt lat="45.81326794084286" lon="9.270671858375927"><ele>286.0</ele><time>2026-05-02T08:59:38.945Z</time></trkpt><trkpt lat="45.81337235025077" lon="9.270822259505309"><ele>286.0</ele><time>2026-05-02T08:59:39.945Z</time></trkpt><trkpt lat="45.81347401806666" lon="9.270972555262894"><ele>289.0</ele><time>2026-05-02T08:59:40.945Z</time></trkpt><trkpt lat="45.81356610430934" lon="9.271130481283809"><ele>292.0</ele><time>2026-05-02T08:59:41.945Z</time></trkpt><trkpt lat="45.81366492216654" lon="9.27128406502114"><ele>295.0</ele><time>2026-05-02T08:59:42.945Z</time></trkpt><trkpt lat="45.81375531067942" lon="9.271444685698388"><ele>298.0</ele><time>2026-05-02T08:59:43.945Z</time></trkpt><trkpt lat="45.813846190125" lon="9.271606417821767"><ele>298.0</ele><time>2026-05-02T08:59:44.945Z</time></trkpt><trkpt lat="45.81393639098022" lon="9.271766200395865"><ele>298.0</ele><time>2026-05-02T08:59:45.945Z</time></trkpt><trkpt lat="45.8140250447503" lon="9.271929486431754"><ele>298.0</ele><time>2026-05-02T08:59:46.945Z</time></trkpt><trkpt lat="45.81410649413327" lon="9.272100135583202"><ele>298.0</ele><time>2026-05-02T08:59:47.945Z</time></trkpt><trkpt lat="45.81419072866243" lon="9.272267189829114"><ele>296.5</ele><time>2026-05-02T08:59:48.945Z</time></trkpt><trkpt lat="45.81427128294709" lon="9.2724410575399"><ele>295.0</ele><time>2026-05-02T08:59:49.945Z</time></trkpt><trkpt lat="45.81435134329329" lon="9.272614224920662"><ele>293.5</ele><time>2026-05-02T08:59:50.945Z</time></trkpt><trkpt lat="45.81442930262189" lon="9.272787721472078"><ele>292.0</ele><time>2026-05-02T08:59:51.945Z</time></trkpt><trkpt lat="45.814500430108325" lon="9.272968185121886"><ele>299.3333333333333</ele><time>2026-05-02T08:59:52.945Z</time></trkpt><trkpt lat="45.81463751451863" lon="9.273332158306918"><ele>306.6666666666667</ele><time>2026-05-02T08:59:54.945Z</time></trkpt><trkpt lat="45.814703069150845" lon="9.273517894792093"><ele>314.0</ele><time>2026-05-02T08:59:55.945Z</time></trkpt><trkpt lat="45.814770677953796" lon="9.273708124433172"><ele>314.0</ele><time>2026-05-02T08:59:56.945Z</time></trkpt><trkpt lat="45.814834220633266" lon="9.273904858028096"><ele>314.0</ele><time>2026-05-02T08:59:57.945Z</time></trkpt><trkpt lat="45.814899048127444" lon="9.274099716915194"><ele>314.0</ele><time>2026-05-02T08:59:58.945Z</time></trkpt><trkpt lat="45.814963958023206" lon="9.274299809485951"><ele>311.33333333333337</ele><time>2026-05-02T08:59:59.945Z</time></trkpt><trkpt lat="45.815023866996405" lon="9.27450556961976"><ele>308.6666666666667</ele><time>2026-05-02T09:00:00.945Z</time></trkpt><trkpt lat="45.815084073827144" lon="9.274714224585328"><ele>306.0</ele><time>2026-05-02T09:00:01.945Z</time></trkpt><trkpt lat="45.81515016646385" lon="9.274925293900383"><ele>317.5</ele><time>2026-05-02T09:00:02.945Z</time></trkpt><trkpt lat="45.81521165249496" lon="9.27514276228104"><ele>329.0</ele><time>2026-05-02T09:00:03.945Z</time></trkpt><trkpt lat="45.81533737062524" lon="9.275583969778841"><ele>325.6666666666667</ele><time>2026-05-02T09:00:05.945Z</time></trkpt><trkpt lat="45.815386476580954" lon="9.275815091950221"><ele>322.3333333333333</ele><time>2026-05-02T09:00:06.945Z</time></trkpt><trkpt lat="45.8154440597522" lon="9.276046646968078"><ele>319.0</ele><time>2026-05-02T09:00:07.945Z</time></trkpt><trkpt lat="45.81549976371377" lon="9.27627573839232"><ele>317.3333333333333</ele><time>2026-05-02T09:00:08.945Z</time></trkpt><trkpt lat="45.81555542394181" lon="9.276507026986943"><ele>315.6666666666667</ele><time>2026-05-02T09:00:09.945Z</time></trkpt><trkpt lat="45.81561190224234" lon="9.276739441887267"><ele>314.0</ele><time>2026-05-02T09:00:10.945Z</time></trkpt><trkpt lat="45.81567454016653" lon="9.276993543507768"><ele>307.0</ele><time>2026-05-02T09:00:11.945Z</time></trkpt><trkpt lat="45.81636022543268" lon="9.279720738382538"><ele>303.0</ele><time>2026-05-02T09:00:15.64Z</time></trkpt><trkpt lat="45.816557021890134" lon="9.280574674989797"><ele>306.0</ele><time>2026-05-02T09:00:16.638Z</time></trkpt><trkpt lat="45.816758258875716" lon="9.281429824709326"><ele>319.0</ele><time>2026-05-02T09:00:17.64Z</time></trkpt><trkpt lat="45.81693763979485" lon="9.282293031477542"><ele>319.0</ele><time>2026-05-02T09:00:18.64Z</time></trkpt><trkpt lat="45.817022" lon="9.2827887"><ele>319.0</ele><time>2026-05-02T09:00:19.64Z</time></trkpt><trkpt lat="45.814632884406976" lon="9.290518453558063"><ele>312.8333333333333</ele><time>2026-05-02T09:01:16.946Z</time></trkpt><trkpt lat="45.81468553545635" lon="9.290672865073835"><ele>306.66666666666663</ele><time>2026-05-02T09:01:17.946Z</time></trkpt><trkpt lat="45.81462448416094" lon="9.290731791748343"><ele>300.5</ele><time>2026-05-02T09:01:18.946Z</time></trkpt><trkpt lat="45.81457223026902" lon="9.290787597253955"><ele>294.3333333333333</ele><time>2026-05-02T09:01:19.946Z</time></trkpt><trkpt lat="45.81453108125748" lon="9.290870743741698"><ele>288.1666666666667</ele><time>2026-05-02T09:01:21.946Z</time></trkpt><trkpt lat="45.81445958989429" lon="9.290940494477232"><ele>282.0</ele><time>2026-05-02T09:01:24.943Z</time></trkpt><trkpt lat="45.81438795468567" lon="9.290959508500766"><ele>278.8333333333333</ele><time>2026-05-02T09:01:27.944Z</time></trkpt><trkpt lat="45.81431647546112" lon="9.290958861153738"><ele>275.6666666666667</ele><time>2026-05-02T09:01:30.943Z</time></trkpt><trkpt lat="45.81424672039142" lon="9.290960247149807"><ele>272.5</ele><time>2026-05-02T09:01:32.943Z</time></trkpt><trkpt lat="45.81417191752362" lon="9.291020583015746"><ele>269.33333333333337</ele><time>2026-05-02T09:01:35.944Z</time></trkpt><trkpt lat="45.814129511349094" lon="9.291133659245423"><ele>266.1666666666667</ele><time>2026-05-02T09:01:38.944Z</time></trkpt><trkpt lat="45.81412959023378" lon="9.291231936623213"><ele>263.0</ele><time>2026-05-02T09:01:40.944Z</time></trkpt><trkpt lat="45.814156501143906" lon="9.291326465868668"><ele>263.0</ele><time>2026-05-02T09:01:42.944Z</time></trkpt><trkpt lat="45.81419842672408" lon="9.291396974918873"><ele>263.0</ele><time>2026-05-02T09:01:44.944Z</time></trkpt><trkpt lat="45.814249992184685" lon="9.291452942576116"><ele>263.0</ele><time>2026-05-02T09:01:47.944Z</time></trkpt><trkpt lat="45.814323384296245" lon="9.291493959181997"><ele>263.0</ele><time>2026-05-02T09:01:50.944Z</time></trkpt><trkpt lat="45.81438619568135" lon="9.29153136690897"><ele>263.0</ele><time>2026-05-02T09:01:52.944Z</time></trkpt><trkpt lat="45.814393199832026" lon="9.291641067290756"><ele>263.0</ele><time>2026-05-02T09:01:53.944Z</time></trkpt><trkpt lat="45.81444121634811" lon="9.291722291388934"><ele>263.0</ele><time>2026-05-02T09:01:55.944Z</time></trkpt><trkpt lat="45.81449298179479" lon="9.291792126265932"><ele>263.4</ele><time>2026-05-02T09:01:57.944Z</time></trkpt><trkpt lat="45.81451115411685" lon="9.291925145919823"><ele>263.8</ele><time>2026-05-02T09:01:59.944Z</time></trkpt><trkpt lat="45.81454394544596" lon="9.292015335975833"><ele>264.2</ele><time>2026-05-02T09:02:01.944Z</time></trkpt><trkpt lat="45.814565446096" lon="9.292130844470217"><ele>264.6</ele><time>2026-05-02T09:02:04.944Z</time></trkpt><trkpt lat="45.81458861718618" lon="9.292268802759935"><ele>265.0</ele><time>2026-05-02T09:02:07.944Z</time></trkpt><trkpt lat="45.81461738598349" lon="9.292440171269604"><ele>264.99999999999994</ele><time>2026-05-02T09:02:09.944Z</time></trkpt><trkpt lat="45.814633639084136" lon="9.29253132996409"><ele>265.0</ele><time>2026-05-02T09:02:10.944Z</time></trkpt><trkpt lat="45.81464969977927" lon="9.292622471705517"><ele>265.0</ele><time>2026-05-02T09:02:11.944Z</time></trkpt><trkpt lat="45.81466728189401" lon="9.292715313304543"><ele>265.0</ele><time>2026-05-02T09:02:12.944Z</time></trkpt><trkpt lat="45.814683486435925" lon="9.29280653888815"><ele>265.0</ele><time>2026-05-02T09:02:13.944Z</time></trkpt><trkpt lat="45.81470375486268" lon="9.292900780632161"><ele>264.99999999999994</ele><time>2026-05-02T09:02:14.944Z</time></trkpt><trkpt lat="45.81472860047492" lon="9.292994344612529"><ele>265.0</ele><time>2026-05-02T09:02:15.944Z</time></trkpt><trkpt lat="45.814752782044856" lon="9.293084966015908"><ele>265.0</ele><time>2026-05-02T09:02:16.944Z</time></trkpt><trkpt lat="45.81479501152636" lon="9.293171388664296"><ele>265.0</ele><time>2026-05-02T09:02:17.944Z</time></trkpt><trkpt lat="45.81481861134336" lon="9.293257100542876"><ele>265.0</ele><time>2026-05-02T09:02:18.944Z</time></trkpt><trkpt lat="45.81485140291087" lon="9.293408509384099"><ele>265.0</ele><time>2026-05-02T09:02:20.944Z</time></trkpt><trkpt lat="45.81487941804083" lon="9.293492031395859"><ele>265.0</ele><time>2026-05-02T09:02:21.944Z</time></trkpt><trkpt lat="45.81490955160566" lon="9.293577451102077"><ele>265.0</ele><time>2026-05-02T09:02:22.944Z</time></trkpt><trkpt lat="45.814962734237525" lon="9.293727068526987"><ele>265.0</ele><time>2026-05-02T09:02:24.944Z</time></trkpt><trkpt lat="45.81502527047558" lon="9.293888778612136"><ele>265.0</ele><time>2026-05-02T09:02:26.944Z</time></trkpt><trkpt lat="45.81505467903326" lon="9.29397115374903"><ele>265.0</ele><time>2026-05-02T09:02:27.944Z</time></trkpt><trkpt lat="45.815114046791344" lon="9.294120987308716"><ele>265.0</ele><time>2026-05-02T09:02:29.944Z</time></trkpt><trkpt lat="45.81514678187088" lon="9.294203208723305"><ele>265.0</ele><time>2026-05-02T09:02:30.944Z</time></trkpt><trkpt lat="45.81518029825785" lon="9.294293812139083"><ele>266.1428571428571</ele><time>2026-05-02T09:02:31.944Z</time></trkpt><trkpt lat="45.8152124927492" lon="9.294382646147422"><ele>267.2857142857143</ele><time>2026-05-02T09:02:32.944Z</time></trkpt><trkpt lat="45.815246064119464" lon="9.294461985954516"><ele>268.42857142857144</ele><time>2026-05-02T09:02:33.944Z</time></trkpt><trkpt lat="45.81527768808396" lon="9.294540652881793"><ele>269.57142857142856</ele><time>2026-05-02T09:02:34.944Z</time></trkpt><trkpt lat="45.81530775431237" lon="9.294621479344771"><ele>270.7142857142857</ele><time>2026-05-02T09:02:35.944Z</time></trkpt><trkpt lat="45.81533976500746" lon="9.294705007287156"><ele>271.85714285714283</ele><time>2026-05-02T09:02:36.944Z</time></trkpt><trkpt lat="45.81536993416404" lon="9.294788742848068"><ele>273.0</ele><time>2026-05-02T09:02:37.944Z</time></trkpt><trkpt lat="45.815419362193246" lon="9.294941231159592"><ele>273.0</ele><time>2026-05-02T09:02:39.944Z</time></trkpt><trkpt lat="45.81546842029864" lon="9.295087732183676"><ele>273.0</ele><time>2026-05-02T09:02:41.944Z</time></trkpt><trkpt lat="45.81552494499516" lon="9.295255043008229"><ele>273.0</ele><time>2026-05-02T09:02:43.944Z</time></trkpt><trkpt lat="45.81555586983901" lon="9.29536054745254"><ele>273.0</ele><time>2026-05-02T09:02:44.944Z</time></trkpt><trkpt lat="45.81558548602443" lon="9.295465009132347"><ele>273.0</ele><time>2026-05-02T09:02:45.944Z</time></trkpt><trkpt lat="45.81561391191371" lon="9.295563378610064"><ele>273.14285714285717</ele><time>2026-05-02T09:02:46.944Z</time></trkpt><trkpt lat="45.81563692285713" lon="9.295662428889235"><ele>273.2857142857143</ele><time>2026-05-02T09:02:47.944Z</time></trkpt><trkpt lat="45.815633313817955" lon="9.295769465395573"><ele>273.42857142857144</ele><time>2026-05-02T09:02:48.944Z</time></trkpt><trkpt lat="45.81565155121313" lon="9.295865377948951"><ele>273.57142857142856</ele><time>2026-05-02T09:02:49.944Z</time></trkpt><trkpt lat="45.815670501370256" lon="9.295956871777516"><ele>273.7142857142857</ele><time>2026-05-02T09:02:50.944Z</time></trkpt><trkpt lat="45.8156925116938" lon="9.296054076139752"><ele>273.8571428571429</ele><time>2026-05-02T09:02:51.944Z</time></trkpt><trkpt lat="45.81571546205897" lon="9.29615165591393"><ele>274.0</ele><time>2026-05-02T09:02:52.944Z</time></trkpt><trkpt lat="45.815739719025416" lon="9.296263498407994"><ele>274.0</ele><time>2026-05-02T09:02:53.944Z</time></trkpt><trkpt lat="45.81576414091471" lon="9.296376019198101"><ele>274.0</ele><time>2026-05-02T09:02:54.944Z</time></trkpt><trkpt lat="45.81578534860675" lon="9.296485183199895"><ele>274.0</ele><time>2026-05-02T09:02:55.944Z</time></trkpt><trkpt lat="45.81580577164978" lon="9.296588339106576"><ele>274.0</ele><time>2026-05-02T09:02:56.944Z</time></trkpt><trkpt lat="45.81582264429078" lon="9.296679945458866"><ele>274.0</ele><time>2026-05-02T09:02:57.944Z</time></trkpt><trkpt lat="45.81585066092325" lon="9.296836251600501"><ele>274.0</ele><time>2026-05-02T09:02:59.944Z</time></trkpt><trkpt lat="45.815868955260186" lon="9.296945582277527"><ele>274.0</ele><time>2026-05-02T09:03:01.944Z</time></trkpt><trkpt lat="45.81588706991108" lon="9.29703277160267"><ele>274.0</ele><time>2026-05-02T09:03:03.944Z</time></trkpt><trkpt lat="45.815897713444606" lon="9.297152571417453"><ele>274.0</ele><time>2026-05-02T09:03:05.944Z</time></trkpt><trkpt lat="45.81590582405548" lon="9.297243327265537"><ele>274.0</ele><time>2026-05-02T09:03:06.944Z</time></trkpt><trkpt lat="45.815927880672795" lon="9.297416768239364"><ele>274.0</ele><time>2026-05-02T09:03:08.944Z</time></trkpt><trkpt lat="45.81591263085374" lon="9.297511934138626"><ele>274.0</ele><time>2026-05-02T09:03:09.944Z</time></trkpt><trkpt lat="45.81593094011744" lon="9.297608624970477"><ele>274.0</ele><time>2026-05-02T09:03:10.944Z</time></trkpt><trkpt lat="45.81593354346772" lon="9.297758121257878"><ele>274.0</ele><time>2026-05-02T09:03:12.944Z</time></trkpt><trkpt lat="45.81591679761549" lon="9.297850603907168"><ele>274.0</ele><time>2026-05-02T09:03:14.944Z</time></trkpt><trkpt lat="45.81591400350119" lon="9.297976390056297"><ele>274.0</ele><time>2026-05-02T09:03:17.945Z</time></trkpt><trkpt lat="45.81590795573279" lon="9.29809705745668"><ele>274.0</ele><time>2026-05-02T09:03:19.945Z</time></trkpt><trkpt lat="45.81592225833678" lon="9.298189397646748"><ele>274.0</ele><time>2026-05-02T09:03:21.945Z</time></trkpt><trkpt lat="45.81588064328143" lon="9.298278932095522"><ele>273.8</ele><time>2026-05-02T09:03:24.945Z</time></trkpt><trkpt lat="45.815821650851035" lon="9.298398748695568"><ele>273.59999999999997</ele><time>2026-05-02T09:03:26.945Z</time></trkpt><trkpt lat="45.81577604620715" lon="9.298573402487538"><ele>273.4</ele><time>2026-05-02T09:03:28.943Z</time></trkpt><trkpt lat="45.815860747468115" lon="9.298618881826854"><ele>273.2</ele><time>2026-05-02T09:03:29.944Z</time></trkpt><trkpt lat="45.8159205495755" lon="9.29872068917563"><ele>273.0</ele><time>2026-05-02T09:03:31.943Z</time></trkpt><trkpt lat="45.815959982573226" lon="9.298843668522977"><ele>273.4</ele><time>2026-05-02T09:03:33.943Z</time></trkpt><trkpt lat="45.81593337859882" lon="9.298999278358918"><ele>273.8</ele><time>2026-05-02T09:03:35.943Z</time></trkpt><trkpt lat="45.815935238249644" lon="9.29917541086483"><ele>274.2</ele><time>2026-05-02T09:03:37.943Z</time></trkpt><trkpt lat="45.815935956208016" lon="9.29927702151455"><ele>274.6</ele><time>2026-05-02T09:03:38.943Z</time></trkpt><trkpt lat="45.815935956207824" lon="9.299390471494776"><ele>275.0</ele><time>2026-05-02T09:03:39.943Z</time></trkpt><trkpt lat="45.81593595620915" lon="9.299510598570086"><ele>275.0</ele><time>2026-05-02T09:03:40.943Z</time></trkpt><trkpt lat="45.815936090252926" lon="9.299641736132402"><ele>275.0</ele><time>2026-05-02T09:03:41.943Z</time></trkpt><trkpt lat="45.81593727396513" lon="9.299782971564357"><ele>275.0</ele><time>2026-05-02T09:03:42.943Z</time></trkpt><trkpt lat="45.815938469726" lon="9.299925644497053"><ele>275.0</ele><time>2026-05-02T09:03:43.943Z</time></trkpt><trkpt lat="45.81594023273752" lon="9.300070228839829"><ele>275.0</ele><time>2026-05-02T09:03:44.943Z</time></trkpt><trkpt lat="45.81594330680856" lon="9.30021454833181"><ele>275.4</ele><time>2026-05-02T09:03:45.943Z</time></trkpt><trkpt lat="45.815946572060646" lon="9.300358129145874"><ele>275.8</ele><time>2026-05-02T09:03:46.943Z</time></trkpt><trkpt lat="45.81595066299567" lon="9.300507651402743"><ele>276.2</ele><time>2026-05-02T09:03:47.943Z</time></trkpt><trkpt lat="45.815957592368655" lon="9.300657867029328"><ele>276.6</ele><time>2026-05-02T09:03:48.943Z</time></trkpt><trkpt lat="45.815971882660136" lon="9.300816550258956"><ele>277.0</ele><time>2026-05-02T09:03:49.943Z</time></trkpt><trkpt lat="45.81600618761352" lon="9.300972746234565"><ele>278.25</ele><time>2026-05-02T09:03:50.943Z</time></trkpt><trkpt lat="45.81603162062565" lon="9.301133662678234"><ele>279.5</ele><time>2026-05-02T09:03:51.943Z</time></trkpt><trkpt lat="45.81606409549044" lon="9.301292391931169"><ele>280.75</ele><time>2026-05-02T09:03:52.943Z</time></trkpt><trkpt lat="45.816102897408975" lon="9.301455207699888"><ele>282.0</ele><time>2026-05-02T09:03:53.943Z</time></trkpt><trkpt lat="45.81614913778134" lon="9.30162571953613"><ele>282.0</ele><time>2026-05-02T09:03:54.943Z</time></trkpt><trkpt lat="45.8161856048244" lon="9.301812188946684"><ele>282.0</ele><time>2026-05-02T09:03:55.943Z</time></trkpt><trkpt lat="45.81624292048927" lon="9.301993517907318"><ele>282.0</ele><time>2026-05-02T09:03:56.943Z</time></trkpt><trkpt lat="45.81630721727692" lon="9.30218017841796"><ele>282.0</ele><time>2026-05-02T09:03:57.943Z</time></trkpt><trkpt lat="45.816375674644924" lon="9.302362063159457"><ele>281.25</ele><time>2026-05-02T09:03:58.943Z</time></trkpt><trkpt lat="45.816444551239385" lon="9.302539348869725"><ele>280.5</ele><time>2026-05-02T09:03:59.943Z</time></trkpt><trkpt lat="45.816506905314746" lon="9.302702904622567"><ele>279.75</ele><time>2026-05-02T09:04:00.943Z</time></trkpt><trkpt lat="45.816564175109285" lon="9.302846132570169"><ele>279.0</ele><time>2026-05-02T09:04:01.943Z</time></trkpt><trkpt lat="45.81660888941386" lon="9.30297513348749"><ele>279.8333333333333</ele><time>2026-05-02T09:04:02.943Z</time></trkpt><trkpt lat="45.81664689669107" lon="9.303085502261942"><ele>280.6666666666667</ele><time>2026-05-02T09:04:03.943Z</time></trkpt><trkpt lat="45.816678462754226" lon="9.303183299987618"><ele>281.5</ele><time>2026-05-02T09:04:04.943Z</time></trkpt><trkpt lat="45.816707073333525" lon="9.303267607378016"><ele>282.33333333333337</ele><time>2026-05-02T09:04:05.943Z</time></trkpt><trkpt lat="45.816751254216435" lon="9.303409007634238"><ele>283.1666666666667</ele><time>2026-05-02T09:04:07.943Z</time></trkpt><trkpt lat="45.816792459369786" lon="9.303525155057198"><ele>284.0</ele><time>2026-05-02T09:04:09.943Z</time></trkpt><trkpt lat="45.816843422606986" lon="9.303686724350143"><ele>285.6666666666667</ele><time>2026-05-02T09:04:11.943Z</time></trkpt><trkpt lat="45.816868039443854" lon="9.303784590828045"><ele>287.33333333333337</ele><time>2026-05-02T09:04:12.943Z</time></trkpt><trkpt lat="45.816892160423606" lon="9.303890064383182"><ele>289.0</ele><time>2026-05-02T09:04:13.943Z</time></trkpt><trkpt lat="45.816912716077724" lon="9.303987225392504"><ele>290.6666666666667</ele><time>2026-05-02T09:04:14.943Z</time></trkpt><trkpt lat="45.816935922377105" lon="9.304075940758736"><ele>292.3333333333333</ele><time>2026-05-02T09:04:15.943Z</time></trkpt><trkpt lat="45.816966919337034" lon="9.304240485556548"><ele>294.0</ele><time>2026-05-02T09:04:17.943Z</time></trkpt><trkpt lat="45.817004469350586" lon="9.304404104062996"><ele>294.0</ele><time>2026-05-02T09:04:19.943Z</time></trkpt><trkpt lat="45.81704088575529" lon="9.304571608703547"><ele>294.0</ele><time>2026-05-02T09:04:21.943Z</time></trkpt><trkpt lat="45.817047950220086" lon="9.304666432964908"><ele>294.0</ele><time>2026-05-02T09:04:22.943Z</time></trkpt><trkpt lat="45.817064936052255" lon="9.304753707178754"><ele>294.0</ele><time>2026-05-02T09:04:23.943Z</time></trkpt><trkpt lat="45.81708203336969" lon="9.304841554215262"><ele>294.0</ele><time>2026-05-02T09:04:24.943Z</time></trkpt><trkpt lat="45.81710077562353" lon="9.304937853039766"><ele>294.0</ele><time>2026-05-02T09:04:25.943Z</time></trkpt><trkpt lat="45.81712225741865" lon="9.305049923973892"><ele>291.59999999999997</ele><time>2026-05-02T09:04:26.943Z</time></trkpt><trkpt lat="45.817144378515486" lon="9.305166188348506"><ele>289.2</ele><time>2026-05-02T09:04:27.943Z</time></trkpt><trkpt lat="45.81716411646955" lon="9.305269927365066"><ele>286.79999999999995</ele><time>2026-05-02T09:04:28.943Z</time></trkpt><trkpt lat="45.81718116726486" lon="9.305359543167903"><ele>284.4</ele><time>2026-05-02T09:04:29.943Z</time></trkpt><trkpt lat="45.817213258965" lon="9.305529350523996"><ele>282.0</ele><time>2026-05-02T09:04:31.943Z</time></trkpt><trkpt lat="45.81724572316809" lon="9.305701503397016"><ele>281.3333333333333</ele><time>2026-05-02T09:04:33.943Z</time></trkpt><trkpt lat="45.817262189435404" lon="9.30578946502699"><ele>280.6666666666667</ele><time>2026-05-02T09:04:34.943Z</time></trkpt><trkpt lat="45.81729173001467" lon="9.305947268713455"><ele>280.0</ele><time>2026-05-02T09:04:36.943Z</time></trkpt><trkpt lat="45.817316905254316" lon="9.306081753071464"><ele>279.33333333333337</ele><time>2026-05-02T09:04:38.943Z</time></trkpt><trkpt lat="45.81733729485489" lon="9.306190672873003"><ele>278.6666666666667</ele><time>2026-05-02T09:04:40.943Z</time></trkpt><trkpt lat="45.81735828009813" lon="9.306304918017727"><ele>278.0</ele><time>2026-05-02T09:04:43.943Z</time></trkpt><trkpt lat="45.817377897891774" lon="9.306415201988264"><ele>277.6666666666667</ele><time>2026-05-02T09:04:46.943Z</time></trkpt><trkpt lat="45.81739607469828" lon="9.306536285353241"><ele>277.33333333333337</ele><time>2026-05-02T09:04:49.943Z</time></trkpt><trkpt lat="45.81741856468827" lon="9.306633617650256"><ele>277.0</ele><time>2026-05-02T09:04:51.943Z</time></trkpt><trkpt lat="45.81739544580751" lon="9.30673422354747"><ele>276.6666666666667</ele><time>2026-05-02T09:04:53.943Z</time></trkpt><trkpt lat="45.817390010022656" lon="9.306842644811649"><ele>276.3333333333333</ele><time>2026-05-02T09:04:55.943Z</time></trkpt><trkpt lat="45.81745103234733" lon="9.30695982597463"><ele>276.0</ele><time>2026-05-02T09:04:57.943Z</time></trkpt><trkpt lat="45.81749198335634" lon="9.307036746778552"><ele>276.0</ele><time>2026-05-02T09:04:58.943Z</time></trkpt><trkpt lat="45.81752720100909" lon="9.307147475944268"><ele>276.0</ele><time>2026-05-02T09:04:59.943Z</time></trkpt><trkpt lat="45.81755058339043" lon="9.30725350737218"><ele>276.0</ele><time>2026-05-02T09:05:00.943Z</time></trkpt><trkpt lat="45.817567561755304" lon="9.30736540688445"><ele>276.0</ele><time>2026-05-02T09:05:01.943Z</time></trkpt><trkpt lat="45.817585622703355" lon="9.307464503911083"><ele>276.0</ele><time>2026-05-02T09:05:02.943Z</time></trkpt><trkpt lat="45.8176059367379" lon="9.307558972573304"><ele>276.0</ele><time>2026-05-02T09:05:03.943Z</time></trkpt><trkpt lat="45.81762703360177" lon="9.30764758232575"><ele>276.0</ele><time>2026-05-02T09:05:04.943Z</time></trkpt><trkpt lat="45.81764110012172" lon="9.307801927324423"><ele>276.3333333333333</ele><time>2026-05-02T09:05:06.943Z</time></trkpt><trkpt lat="45.817701601222595" lon="9.307928299116805"><ele>276.6666666666667</ele><time>2026-05-02T09:05:08.943Z</time></trkpt><trkpt lat="45.81773295730252" lon="9.308060394284725"><ele>277.0</ele><time>2026-05-02T09:05:10.943Z</time></trkpt><trkpt lat="45.81771133613537" lon="9.308168537044471"><ele>277.33333333333337</ele><time>2026-05-02T09:05:12.943Z</time></trkpt><trkpt lat="45.817734087440556" lon="9.308287570231228"><ele>277.6666666666667</ele><time>2026-05-02T09:05:15.943Z</time></trkpt><trkpt lat="45.817751581986386" lon="9.308379100427105"><ele>278.0</ele><time>2026-05-02T09:05:18.944Z</time></trkpt><trkpt lat="45.81777064397573" lon="9.30847883137754"><ele>278.0</ele><time>2026-05-02T09:05:20.944Z</time></trkpt><trkpt lat="45.81779375318621" lon="9.308600096814594"><ele>278.0</ele><time>2026-05-02T09:05:22.944Z</time></trkpt><trkpt lat="45.81781347607799" lon="9.308703994200304"><ele>278.0</ele><time>2026-05-02T09:05:25.944Z</time></trkpt><trkpt lat="45.817832700073716" lon="9.30880526348619"><ele>278.0</ele><time>2026-05-02T09:05:29.944Z</time></trkpt><trkpt lat="45.81780937078646" lon="9.308682368070224"><ele>278.0</ele><time>2026-05-02T09:05:45.943Z</time></trkpt><trkpt lat="45.817776584436835" lon="9.308509911371578"><ele>278.0</ele><time>2026-05-02T09:05:47.942Z</time></trkpt><trkpt lat="45.81775615721635" lon="9.308364281603302"><ele>278.0</ele><time>2026-05-02T09:05:48.942Z</time></trkpt><trkpt lat="45.81776702335607" lon="9.30816798743472"><ele>278.0</ele><time>2026-05-02T09:05:49.942Z</time></trkpt><trkpt lat="45.81773390379449" lon="9.308020624743518"><ele>278.0</ele><time>2026-05-02T09:05:50.942Z</time></trkpt><trkpt lat="45.81769919990087" lon="9.307867840749504"><ele>278.0</ele><time>2026-05-02T09:05:51.942Z</time></trkpt><trkpt lat="45.81766631598323" lon="9.307717376009853"><ele>277.6666666666667</ele><time>2026-05-02T09:05:52.942Z</time></trkpt><trkpt lat="45.81764259729049" lon="9.307582951331202"><ele>277.33333333333337</ele><time>2026-05-02T09:05:53.942Z</time></trkpt><trkpt lat="45.81761597911484" lon="9.30746308421424"><ele>277.0</ele><time>2026-05-02T09:05:54.942Z</time></trkpt><trkpt lat="45.81758334357965" lon="9.307351720625547"><ele>276.6666666666667</ele><time>2026-05-02T09:05:55.942Z</time></trkpt><trkpt lat="45.81755558489852" lon="9.307248470844243"><ele>276.3333333333333</ele><time>2026-05-02T09:05:56.942Z</time></trkpt><trkpt lat="45.81752974785935" lon="9.307148155343725"><ele>276.0</ele><time>2026-05-02T09:05:57.942Z</time></trkpt><trkpt lat="45.817503826998205" lon="9.307063394924587"><ele>276.0</ele><time>2026-05-02T09:05:58.942Z</time></trkpt><trkpt lat="45.817474977779135" lon="9.306976358047272"><ele>276.0</ele><time>2026-05-02T09:06:00.942Z</time></trkpt><trkpt lat="45.817446119577234" lon="9.306846101117413"><ele>276.0</ele><time>2026-05-02T09:06:03.942Z</time></trkpt><trkpt lat="45.81739796370727" lon="9.30674451913513"><ele>276.0</ele><time>2026-05-02T09:06:05.942Z</time></trkpt><trkpt lat="45.817300286420355" lon="9.3067503893755"><ele>276.0</ele><time>2026-05-02T09:06:07.942Z</time></trkpt><trkpt lat="45.81723811408455" lon="9.306784892903913"><ele>276.0</ele><time>2026-05-02T09:06:08.942Z</time></trkpt><trkpt lat="45.81716231233714" lon="9.30683116773545"><ele>276.0</ele><time>2026-05-02T09:06:09.942Z</time></trkpt><trkpt lat="45.81709197638202" lon="9.306894479648292"><ele>276.0</ele><time>2026-05-02T09:06:10.942Z</time></trkpt><trkpt lat="45.81702339034297" lon="9.306961319030592"><ele>276.0</ele><time>2026-05-02T09:06:11.942Z</time></trkpt><trkpt lat="45.816957357524664" lon="9.307037180375167"><ele>276.0</ele><time>2026-05-02T09:06:12.942Z</time></trkpt><trkpt lat="45.81688300007169" lon="9.307110693726019"><ele>276.0</ele><time>2026-05-02T09:06:13.942Z</time></trkpt><trkpt lat="45.81680497501905" lon="9.307189125455492"><ele>276.0</ele><time>2026-05-02T09:06:14.942Z</time></trkpt><trkpt lat="45.81672685748324" lon="9.307257531576946"><ele>275.2</ele><time>2026-05-02T09:06:15.942Z</time></trkpt><trkpt lat="45.81664767721527" lon="9.307330400045648"><ele>274.40000000000003</ele><time>2026-05-02T09:06:16.942Z</time></trkpt><trkpt lat="45.816579937710074" lon="9.307414092260272"><ele>273.6</ele><time>2026-05-02T09:06:17.942Z</time></trkpt><trkpt lat="45.81650604144436" lon="9.307504168299674"><ele>272.8</ele><time>2026-05-02T09:06:18.942Z</time></trkpt><trkpt lat="45.816425215432844" lon="9.307598523453542"><ele>272.0</ele><time>2026-05-02T09:06:19.942Z</time></trkpt><trkpt lat="45.816335416073414" lon="9.307713181771776"><ele>272.0</ele><time>2026-05-02T09:06:20.942Z</time></trkpt><trkpt lat="45.81624948279897" lon="9.30781397937212"><ele>272.0</ele><time>2026-05-02T09:06:21.942Z</time></trkpt><trkpt lat="45.816158878256296" lon="9.307914409812563"><ele>272.0</ele><time>2026-05-02T09:06:22.942Z</time></trkpt><trkpt lat="45.81606406092201" lon="9.308019531611805"><ele>272.0</ele><time>2026-05-02T09:06:23.943Z</time></trkpt><trkpt lat="45.8159770242036" lon="9.3081276081612"><ele>271.5</ele><time>2026-05-02T09:06:24.943Z</time></trkpt><trkpt lat="45.81588173474162" lon="9.308227986193879"><ele>271.0</ele><time>2026-05-02T09:06:25.943Z</time></trkpt><trkpt lat="45.815785941307304" lon="9.308325620885002"><ele>270.5</ele><time>2026-05-02T09:06:26.943Z</time></trkpt><trkpt lat="45.81569526277887" lon="9.308418922867242"><ele>270.0</ele><time>2026-05-02T09:06:27.943Z</time></trkpt><trkpt lat="45.81561381983953" lon="9.308514321933366"><ele>270.0</ele><time>2026-05-02T09:06:28.943Z</time></trkpt><trkpt lat="45.8155390399374" lon="9.30862659004941"><ele>270.0</ele><time>2026-05-02T09:06:29.943Z</time></trkpt><trkpt lat="45.815472790494596" lon="9.308747890448466"><ele>270.0</ele><time>2026-05-02T09:06:30.943Z</time></trkpt><trkpt lat="45.815408805688214" lon="9.308876717326967"><ele>270.0</ele><time>2026-05-02T09:06:31.943Z</time></trkpt><trkpt lat="45.81534736706804" lon="9.309005422601771"><ele>270.0</ele><time>2026-05-02T09:06:32.943Z</time></trkpt><trkpt lat="45.8152821519294" lon="9.309134150772792"><ele>270.0</ele><time>2026-05-02T09:06:33.943Z</time></trkpt><trkpt lat="45.815203299161574" lon="9.309252159680273"><ele>270.0</ele><time>2026-05-02T09:06:34.943Z</time></trkpt><trkpt lat="45.81510658518033" lon="9.30935700488164"><ele>270.0</ele><time>2026-05-02T09:06:35.943Z</time></trkpt><trkpt lat="45.81499680950507" lon="9.309418332573172"><ele>270.0</ele><time>2026-05-02T09:06:36.943Z</time></trkpt><trkpt lat="45.81489412590209" lon="9.309498841070061"><ele>269.6</ele><time>2026-05-02T09:06:37.943Z</time></trkpt><trkpt lat="45.81479706971755" lon="9.309574092695932"><ele>269.2</ele><time>2026-05-02T09:06:38.943Z</time></trkpt><trkpt lat="45.81469785029436" lon="9.309651021571261"><ele>268.8</ele><time>2026-05-02T09:06:39.943Z</time></trkpt><trkpt lat="45.81460018169284" lon="9.309726748074887"><ele>268.4</ele><time>2026-05-02T09:06:40.943Z</time></trkpt><trkpt lat="45.814499900404975" lon="9.309802921698736"><ele>268.0</ele><time>2026-05-02T09:06:41.943Z</time></trkpt><trkpt lat="45.81440142666678" lon="9.309871462465056"><ele>267.8</ele><time>2026-05-02T09:06:42.943Z</time></trkpt><trkpt lat="45.8143094992445" lon="9.30994971936608"><ele>267.6</ele><time>2026-05-02T09:06:43.943Z</time></trkpt><trkpt lat="45.814204694381694" lon="9.30998950528367"><ele>267.4</ele><time>2026-05-02T09:06:44.943Z</time></trkpt><trkpt lat="45.81410184062918" lon="9.31002570088864"><ele>267.2</ele><time>2026-05-02T09:06:45.943Z</time></trkpt><trkpt lat="45.8140082718569" lon="9.310064536707904"><ele>267.0</ele><time>2026-05-02T09:06:46.943Z</time></trkpt><trkpt lat="45.81391181819338" lon="9.310101972698124"><ele>267.0</ele><time>2026-05-02T09:06:47.943Z</time></trkpt><trkpt lat="45.81381478416336" lon="9.310155960332287"><ele>267.0</ele><time>2026-05-02T09:06:48.943Z</time></trkpt><trkpt lat="45.813719818908375" lon="9.310218377600142"><ele>267.0</ele><time>2026-05-02T09:06:49.943Z</time></trkpt><trkpt lat="45.813636544158946" lon="9.310283542959082"><ele>267.0</ele><time>2026-05-02T09:06:50.943Z</time></trkpt><trkpt lat="45.813550007737845" lon="9.310362257950068"><ele>267.0</ele><time>2026-05-02T09:06:51.943Z</time></trkpt><trkpt lat="45.81346073489709" lon="9.31045151824407"><ele>266.5</ele><time>2026-05-02T09:06:52.943Z</time></trkpt><trkpt lat="45.8133717438827" lon="9.310546110002395"><ele>266.0</ele><time>2026-05-02T09:06:53.943Z</time></trkpt><trkpt lat="45.81327657201316" lon="9.310649384578529"><ele>265.5</ele><time>2026-05-02T09:06:54.943Z</time></trkpt><trkpt lat="45.81316642507441" lon="9.310732972571994"><ele>265.0</ele><time>2026-05-02T09:06:55.943Z</time></trkpt><trkpt lat="45.81305577938121" lon="9.310800456385252"><ele>264.75</ele><time>2026-05-02T09:06:56.943Z</time></trkpt><trkpt lat="45.81293961899053" lon="9.31086279605388"><ele>264.5</ele><time>2026-05-02T09:06:57.943Z</time></trkpt><trkpt lat="45.81282752762767" lon="9.310904555558551"><ele>264.25</ele><time>2026-05-02T09:06:58.943Z</time></trkpt><trkpt lat="45.812707216171745" lon="9.310902434987511"><ele>264.0</ele><time>2026-05-02T09:06:59.943Z</time></trkpt><trkpt lat="45.81258431753672" lon="9.310931119771617"><ele>263.5</ele><time>2026-05-02T09:07:00.943Z</time></trkpt><trkpt lat="45.81246503291157" lon="9.310956487634119"><ele>263.0</ele><time>2026-05-02T09:07:01.943Z</time></trkpt><trkpt lat="45.81235065319147" lon="9.310971974818385"><ele>262.5</ele><time>2026-05-02T09:07:02.943Z</time></trkpt><trkpt lat="45.81222654932509" lon="9.311007863291884"><ele>262.0</ele><time>2026-05-02T09:07:03.943Z</time></trkpt><trkpt lat="45.81210331136856" lon="9.311056277327257"><ele>262.0</ele><time>2026-05-02T09:07:04.943Z</time></trkpt><trkpt lat="45.811978180849295" lon="9.311126168240191"><ele>262.0</ele><time>2026-05-02T09:07:05.943Z</time></trkpt><trkpt lat="45.811849208824725" lon="9.311244808114159"><ele>262.0</ele><time>2026-05-02T09:07:06.943Z</time></trkpt><trkpt lat="45.8117363621517" lon="9.311347709171228"><ele>262.0</ele><time>2026-05-02T09:07:07.943Z</time></trkpt><trkpt lat="45.81164282372198" lon="9.311449855779575"><ele>263.0</ele><time>2026-05-02T09:07:08.943Z</time></trkpt><trkpt lat="45.8115577648668" lon="9.311550168393353"><ele>264.0</ele><time>2026-05-02T09:07:09.943Z</time></trkpt><trkpt lat="45.8114732151076" lon="9.311652901146367"><ele>265.0</ele><time>2026-05-02T09:07:10.943Z</time></trkpt><trkpt lat="45.811393150439244" lon="9.31174076122846"><ele>266.0</ele><time>2026-05-02T09:07:11.943Z</time></trkpt><trkpt lat="45.81130226433401" lon="9.31183099443409"><ele>267.0</ele><time>2026-05-02T09:07:12.943Z</time></trkpt><trkpt lat="45.81121999637412" lon="9.311923009816766"><ele>267.0</ele><time>2026-05-02T09:07:13.943Z</time></trkpt><trkpt lat="45.811136189613485" lon="9.31202063371835"><ele>267.0</ele><time>2026-05-02T09:07:14.943Z</time></trkpt><trkpt lat="45.81105284558853" lon="9.312113874581948"><ele>267.0</ele><time>2026-05-02T09:07:15.943Z</time></trkpt><trkpt lat="45.81094268718061" lon="9.312173395102581"><ele>267.0</ele><time>2026-05-02T09:07:16.943Z</time></trkpt><trkpt lat="45.810838945646125" lon="9.312274670356098"><ele>266.75</ele><time>2026-05-02T09:07:17.943Z</time></trkpt><trkpt lat="45.81073018856183" lon="9.312387420605699"><ele>266.5</ele><time>2026-05-02T09:07:18.943Z</time></trkpt><trkpt lat="45.810609679730646" lon="9.312502079326265"><ele>266.25</ele><time>2026-05-02T09:07:19.943Z</time></trkpt><trkpt lat="45.81048509890475" lon="9.312613875957174"><ele>266.0</ele><time>2026-05-02T09:07:20.943Z</time></trkpt><trkpt lat="45.810361999917525" lon="9.3127162507299"><ele>266.0</ele><time>2026-05-02T09:07:21.943Z</time></trkpt><trkpt lat="45.81023890270649" lon="9.312810859154997"><ele>266.0</ele><time>2026-05-02T09:07:22.943Z</time></trkpt><trkpt lat="45.81011506893321" lon="9.312896162119193"><ele>266.0</ele><time>2026-05-02T09:07:23.943Z</time></trkpt><trkpt lat="45.80999011828512" lon="9.312975609836451"><ele>266.0</ele><time>2026-05-02T09:07:24.943Z</time></trkpt><trkpt lat="45.8098617008722" lon="9.31305172817693"><ele>266.0</ele><time>2026-05-02T09:07:25.943Z</time></trkpt><trkpt lat="45.80973148611929" lon="9.313125698302407"><ele>266.0</ele><time>2026-05-02T09:07:26.943Z</time></trkpt><trkpt lat="45.80960548240447" lon="9.31319859092799"><ele>266.0</ele><time>2026-05-02T09:07:27.943Z</time></trkpt><trkpt lat="45.80948109569401" lon="9.313275901856649"><ele>266.0</ele><time>2026-05-02T09:07:28.943Z</time></trkpt><trkpt lat="45.80936022805621" lon="9.313344664436807"><ele>267.8</ele><time>2026-05-02T09:07:29.943Z</time></trkpt><trkpt lat="45.80925004622067" lon="9.313417658817425"><ele>269.6</ele><time>2026-05-02T09:07:30.943Z</time></trkpt><trkpt lat="45.80915503503758" lon="9.313486972555154"><ele>271.4</ele><time>2026-05-02T09:07:31.943Z</time></trkpt><trkpt lat="45.80907629912127" lon="9.31354849952789"><ele>273.2</ele><time>2026-05-02T09:07:32.943Z</time></trkpt><trkpt lat="45.80900159853744" lon="9.313610819290586"><ele>275.0</ele><time>2026-05-02T09:07:33.943Z</time></trkpt><trkpt lat="45.80892215471264" lon="9.313691485190704"><ele>275.0</ele><time>2026-05-02T09:07:34.943Z</time></trkpt><trkpt lat="45.80884899735055" lon="9.313766589194534"><ele>275.0</ele><time>2026-05-02T09:07:35.943Z</time></trkpt><trkpt lat="45.8087709131721" lon="9.313852882629938"><ele>275.0</ele><time>2026-05-02T09:07:36.943Z</time></trkpt><trkpt lat="45.80869859661899" lon="9.313952068062296"><ele>275.0</ele><time>2026-05-02T09:07:37.943Z</time></trkpt><trkpt lat="45.80863542410104" lon="9.314053767777738"><ele>275.0</ele><time>2026-05-02T09:07:38.943Z</time></trkpt><trkpt lat="45.808580035926305" lon="9.314164952830174"><ele>273.4</ele><time>2026-05-02T09:07:39.943Z</time></trkpt><trkpt lat="45.808521361156544" lon="9.314294614940334"><ele>271.8</ele><time>2026-05-02T09:07:40.942Z</time></trkpt><trkpt lat="45.80846233915009" lon="9.314420144228482"><ele>270.2</ele><time>2026-05-02T09:07:41.942Z</time></trkpt><trkpt lat="45.80840888509972" lon="9.314560458355365"><ele>268.6</ele><time>2026-05-02T09:07:42.942Z</time></trkpt><trkpt lat="45.8083573865129" lon="9.314689755337604"><ele>267.0</ele><time>2026-05-02T09:07:43.942Z</time></trkpt><trkpt lat="45.80830721623012" lon="9.314813904449052"><ele>266.5</ele><time>2026-05-02T09:07:44.942Z</time></trkpt><trkpt lat="45.80826379116887" lon="9.314922444023193"><ele>266.0</ele><time>2026-05-02T09:07:45.942Z</time></trkpt><trkpt lat="45.80821537429767" lon="9.315035988274191"><ele>265.5</ele><time>2026-05-02T09:07:46.942Z</time></trkpt><trkpt lat="45.80816788755153" lon="9.315144379410485"><ele>265.0</ele><time>2026-05-02T09:07:47.942Z</time></trkpt><trkpt lat="45.808124176863174" lon="9.315246270265998"><ele>264.5</ele><time>2026-05-02T09:07:48.942Z</time></trkpt><trkpt lat="45.808085593732834" lon="9.315343987983075"><ele>264.0</ele><time>2026-05-02T09:07:49.943Z</time></trkpt><trkpt lat="45.80805392942274" lon="9.315437715465169"><ele>264.0</ele><time>2026-05-02T09:07:50.942Z</time></trkpt><trkpt lat="45.808019581895834" lon="9.315522796771925"><ele>264.0</ele><time>2026-05-02T09:07:51.942Z</time></trkpt><trkpt lat="45.807963281852686" lon="9.315646935597414"><ele>264.0</ele><time>2026-05-02T09:07:53.942Z</time></trkpt><trkpt lat="45.80792033731727" lon="9.315724030977696"><ele>264.0</ele><time>2026-05-02T09:07:56.942Z</time></trkpt><trkpt lat="45.80797131117301" lon="9.315601220783506"><ele>264.0</ele><time>2026-05-02T09:09:12.943Z</time></trkpt><trkpt lat="45.80801837167366" lon="9.315492248078808"><ele>264.0</ele><time>2026-05-02T09:09:13.943Z</time></trkpt><trkpt lat="45.808141450796455" lon="9.315350013239488"><ele>264.0</ele><time>2026-05-02T09:09:14.943Z</time></trkpt><trkpt lat="45.80817584752435" lon="9.315175388352907"><ele>264.0</ele><time>2026-05-02T09:09:15.943Z</time></trkpt><trkpt lat="45.808251904515544" lon="9.315004708533817"><ele>264.0</ele><time>2026-05-02T09:09:16.943Z</time></trkpt><trkpt lat="45.80832732025835" lon="9.314818624612663"><ele>264.0</ele><time>2026-05-02T09:09:17.943Z</time></trkpt><trkpt lat="45.80840015394375" lon="9.314651642702724"><ele>264.0</ele><time>2026-05-02T09:09:18.943Z</time></trkpt><trkpt lat="45.8084673682108" lon="9.314485436243817"><ele>264.0</ele><time>2026-05-02T09:09:19.943Z</time></trkpt><trkpt lat="45.8085355763159" lon="9.314326276978212"><ele>264.0</ele><time>2026-05-02T09:09:20.943Z</time></trkpt><trkpt lat="45.8086078412042" lon="9.314176954269183"><ele>264.0</ele><time>2026-05-02T09:09:21.943Z</time></trkpt><trkpt lat="45.808687091545" lon="9.314030840646106"><ele>266.75</ele><time>2026-05-02T09:09:22.943Z</time></trkpt><trkpt lat="45.80876928323569" lon="9.313896717410318"><ele>269.5</ele><time>2026-05-02T09:09:23.943Z</time></trkpt><trkpt lat="45.80885879421419" lon="9.31376228611875"><ele>272.25</ele><time>2026-05-02T09:09:24.943Z</time></trkpt><trkpt lat="45.8089519661125" lon="9.313634809575275"><ele>275.0</ele><time>2026-05-02T09:09:25.943Z</time></trkpt><trkpt lat="45.809054189593446" lon="9.313513586764678"><ele>275.0</ele><time>2026-05-02T09:09:26.943Z</time></trkpt><trkpt lat="45.809200445598094" lon="9.313507998138162"><ele>275.0</ele><time>2026-05-02T09:09:27.943Z</time></trkpt><trkpt lat="45.809328827949976" lon="9.313423453443855"><ele>275.0</ele><time>2026-05-02T09:09:28.943Z</time></trkpt><trkpt lat="45.80946737704307" lon="9.313336635133329"><ele>275.0</ele><time>2026-05-02T09:09:29.943Z</time></trkpt><trkpt lat="45.80962914600903" lon="9.313247748642842"><ele>273.6666666666667</ele><time>2026-05-02T09:09:30.943Z</time></trkpt><trkpt lat="45.80979667636377" lon="9.313156590884821"><ele>272.3333333333333</ele><time>2026-05-02T09:09:31.943Z</time></trkpt><trkpt lat="45.80995195827129" lon="9.313073264709722"><ele>271.0</ele><time>2026-05-02T09:09:32.943Z</time></trkpt><trkpt lat="45.810105618439614" lon="9.312984544343463"><ele>269.3333333333333</ele><time>2026-05-02T09:09:33.943Z</time></trkpt><trkpt lat="45.81023957570856" lon="9.312863907371398"><ele>267.6666666666667</ele><time>2026-05-02T09:09:34.943Z</time></trkpt><trkpt lat="45.810375381750625" lon="9.31276637469741"><ele>266.0</ele><time>2026-05-02T09:09:35.943Z</time></trkpt><trkpt lat="45.810510809778755" lon="9.312669854291007"><ele>266.0</ele><time>2026-05-02T09:09:36.943Z</time></trkpt><trkpt lat="45.81063526481913" lon="9.312556870632388"><ele>266.0</ele><time>2026-05-02T09:09:37.943Z</time></trkpt><trkpt lat="45.810764492893306" lon="9.312434807828302"><ele>266.0</ele><time>2026-05-02T09:09:38.943Z</time></trkpt><trkpt lat="45.810876783569924" lon="9.312324031084431"><ele>266.0</ele><time>2026-05-02T09:09:39.943Z</time></trkpt><trkpt lat="45.8109956105691" lon="9.312203782863149"><ele>266.25</ele><time>2026-05-02T09:09:40.943Z</time></trkpt><trkpt lat="45.81111102597763" lon="9.312085396017974"><ele>266.5</ele><time>2026-05-02T09:09:41.943Z</time></trkpt><trkpt lat="45.81121438330039" lon="9.311978617830498"><ele>266.75</ele><time>2026-05-02T09:09:42.943Z</time></trkpt><trkpt lat="45.81131413216012" lon="9.311875423296259"><ele>267.0</ele><time>2026-05-02T09:09:43.943Z</time></trkpt><trkpt lat="45.811414415799725" lon="9.311777226319581"><ele>267.0</ele><time>2026-05-02T09:09:44.943Z</time></trkpt><trkpt lat="45.811510472706274" lon="9.311675634549129"><ele>267.0</ele><time>2026-05-02T09:09:45.943Z</time></trkpt><trkpt lat="45.811607508842805" lon="9.311569314552408"><ele>267.0</ele><time>2026-05-02T09:09:46.942Z</time></trkpt><trkpt lat="45.81170843337925" lon="9.311458833690809"><ele>267.0</ele><time>2026-05-02T09:09:47.943Z</time></trkpt><trkpt lat="45.81180395226444" lon="9.311350938081333"><ele>266.0</ele><time>2026-05-02T09:09:48.943Z</time></trkpt><trkpt lat="45.811907169042726" lon="9.311245751005478"><ele>265.0</ele><time>2026-05-02T09:09:49.942Z</time></trkpt><trkpt lat="45.81199941123049" lon="9.311162679379445"><ele>264.0</ele><time>2026-05-02T09:09:50.942Z</time></trkpt><trkpt lat="45.81209266115273" lon="9.311099209413388"><ele>263.0</ele><time>2026-05-02T09:09:51.942Z</time></trkpt><trkpt lat="45.81219064024609" lon="9.311052336415568"><ele>262.0</ele><time>2026-05-02T09:09:52.942Z</time></trkpt><trkpt lat="45.812272772310465" lon="9.31103092656112"><ele>262.0</ele><time>2026-05-02T09:09:53.942Z</time></trkpt><trkpt lat="45.81234345656977" lon="9.311018246208851"><ele>262.0</ele><time>2026-05-02T09:09:54.942Z</time></trkpt><trkpt lat="45.812412751005866" lon="9.311007538093929"><ele>262.0</ele><time>2026-05-02T09:09:55.942Z</time></trkpt><trkpt lat="45.812496116602034" lon="9.310997369745563"><ele>262.0</ele><time>2026-05-02T09:09:56.942Z</time></trkpt><trkpt lat="45.812585758438075" lon="9.310980980635957"><ele>262.0</ele><time>2026-05-02T09:09:57.942Z</time></trkpt><trkpt lat="45.812680594060126" lon="9.310965559308357"><ele>262.0</ele><time>2026-05-02T09:09:58.942Z</time></trkpt><trkpt lat="45.812779310501746" lon="9.31093593876692"><ele>262.3333333333333</ele><time>2026-05-02T09:09:59.942Z</time></trkpt><trkpt lat="45.81287555900835" lon="9.310908445963822"><ele>262.66666666666663</ele><time>2026-05-02T09:10:00.942Z</time></trkpt><trkpt lat="45.812970424788595" lon="9.310876316737199"><ele>263.0</ele><time>2026-05-02T09:10:01.942Z</time></trkpt><trkpt lat="45.81305200974994" lon="9.310832924492594"><ele>263.3333333333333</ele><time>2026-05-02T09:10:02.942Z</time></trkpt><trkpt lat="45.81313167827328" lon="9.310794737963414"><ele>263.6666666666667</ele><time>2026-05-02T09:10:03.942Z</time></trkpt><trkpt lat="45.81320606522706" lon="9.310747064258383"><ele>264.0</ele><time>2026-05-02T09:10:04.942Z</time></trkpt><trkpt lat="45.81327023421352" lon="9.310697312190587"><ele>264.0</ele><time>2026-05-02T09:10:05.942Z</time></trkpt><trkpt lat="45.813327330780176" lon="9.310652266378996"><ele>264.0</ele><time>2026-05-02T09:10:06.942Z</time></trkpt><trkpt lat="45.813413056511784" lon="9.310556298359272"><ele>264.0</ele><time>2026-05-02T09:10:08.942Z</time></trkpt><trkpt lat="45.81346543864252" lon="9.31048315541884"><ele>264.0</ele><time>2026-05-02T09:10:09.942Z</time></trkpt><trkpt lat="45.8135285644722" lon="9.310405782319846"><ele>264.0</ele><time>2026-05-02T09:10:10.942Z</time></trkpt><trkpt lat="45.813606031258814" lon="9.310349930886034"><ele>264.0</ele><time>2026-05-02T09:10:11.942Z</time></trkpt><trkpt lat="45.81368216830188" lon="9.310278582765617"><ele>264.5</ele><time>2026-05-02T09:10:12.942Z</time></trkpt><trkpt lat="45.81375645923841" lon="9.310225950562504"><ele>265.0</ele><time>2026-05-02T09:10:13.942Z</time></trkpt><trkpt lat="45.81383418887612" lon="9.310164334616742"><ele>265.5</ele><time>2026-05-02T09:10:14.942Z</time></trkpt><trkpt lat="45.8139258102489" lon="9.310167276746473"><ele>266.0</ele><time>2026-05-02T09:10:15.942Z</time></trkpt><trkpt lat="45.814012963193385" lon="9.310125114726878"><ele>266.5</ele><time>2026-05-02T09:10:16.942Z</time></trkpt><trkpt lat="45.81409451171904" lon="9.310083411498677"><ele>267.0</ele><time>2026-05-02T09:10:17.942Z</time></trkpt><trkpt lat="45.814162424962475" lon="9.310053970790692"><ele>267.0</ele><time>2026-05-02T09:10:18.942Z</time></trkpt><trkpt lat="45.814270662492135" lon="9.310015559551617"><ele>267.0</ele><time>2026-05-02T09:10:20.942Z</time></trkpt><trkpt lat="45.81432897448067" lon="9.310056576091647"><ele>267.0</ele><time>2026-05-02T09:10:22.942Z</time></trkpt><trkpt lat="45.814347692040236" lon="9.310172735606274"><ele>267.0</ele><time>2026-05-02T09:10:23.942Z</time></trkpt><trkpt lat="45.814357703670666" lon="9.310275379605898"><ele>267.0</ele><time>2026-05-02T09:10:24.942Z</time></trkpt><trkpt lat="45.81437932880602" lon="9.310392881640459"><ele>267.0</ele><time>2026-05-02T09:10:25.942Z</time></trkpt><trkpt lat="45.814408889621845" lon="9.310526507996686"><ele>266.8</ele><time>2026-05-02T09:10:26.942Z</time></trkpt><trkpt lat="45.81443568355094" lon="9.31066964873628"><ele>266.6</ele><time>2026-05-02T09:10:27.942Z</time></trkpt><trkpt lat="45.81448195333192" lon="9.310791543971934"><ele>266.40000000000003</ele><time>2026-05-02T09:10:28.942Z</time></trkpt><trkpt lat="45.81450277352718" lon="9.310903437941345"><ele>266.2</ele><time>2026-05-02T09:10:29.942Z</time></trkpt><trkpt lat="45.814522771694676" lon="9.311005912123825"><ele>266.0</ele><time>2026-05-02T09:10:30.942Z</time></trkpt><trkpt lat="45.81453757677082" lon="9.311162415940414"><ele>266.0</ele><time>2026-05-02T09:10:32.942Z</time></trkpt><trkpt lat="45.81456044496763" lon="9.311284876113383"><ele>266.0</ele><time>2026-05-02T09:10:34.942Z</time></trkpt><trkpt lat="45.814587099713265" lon="9.311446536592243"><ele>266.0</ele><time>2026-05-02T09:10:36.942Z</time></trkpt><trkpt lat="45.81459837745286" lon="9.311605299233259"><ele>266.0</ele><time>2026-05-02T09:10:38.942Z</time></trkpt><trkpt lat="45.81458953239442" lon="9.31177455787973"><ele>266.0</ele><time>2026-05-02T09:10:40.943Z</time></trkpt><trkpt lat="45.81461325084508" lon="9.311927503990962"><ele>265.33333333333337</ele><time>2026-05-02T09:10:42.943Z</time></trkpt><trkpt lat="45.81460456936694" lon="9.3120740622846"><ele>264.6666666666667</ele><time>2026-05-02T09:10:44.943Z</time></trkpt><trkpt lat="45.814576466604834" lon="9.312236491869584"><ele>264.0</ele><time>2026-05-02T09:10:46.943Z</time></trkpt><trkpt lat="45.81452152790472" lon="9.312308166630876"><ele>263.3333333333333</ele><time>2026-05-02T09:10:47.943Z</time></trkpt><trkpt lat="45.81449265763268" lon="9.312418920238324"><ele>262.66666666666663</ele><time>2026-05-02T09:10:49.943Z</time></trkpt><trkpt lat="45.814450497752894" lon="9.312502670923543"><ele>262.0</ele><time>2026-05-02T09:10:52.943Z</time></trkpt><trkpt lat="45.81450511043689" lon="9.312607312994372"><ele>260.75</ele><time>2026-05-02T09:10:53.943Z</time></trkpt><trkpt lat="45.81443504529898" lon="9.312648747763529"><ele>259.5</ele><time>2026-05-02T09:10:56.943Z</time></trkpt><trkpt lat="45.814389085646816" lon="9.31256660527811"><ele>258.25</ele><time>2026-05-02T09:10:57.943Z</time></trkpt><trkpt lat="45.814484522863246" lon="9.312569109339854"><ele>257.0</ele><time>2026-05-02T09:11:01.943Z</time></trkpt><trkpt lat="45.81454875164575" lon="9.312260989090634"><ele>258.0</ele><time>2026-05-02T09:11:03.943Z</time></trkpt><trkpt lat="45.81456904356313" lon="9.312115129762322"><ele>259.0</ele><time>2026-05-02T09:11:04.943Z</time></trkpt><trkpt lat="45.81458402768261" lon="9.311958502459841"><ele>260.0</ele><time>2026-05-02T09:11:05.943Z</time></trkpt><trkpt lat="45.81458504506769" lon="9.311807684144236"><ele>261.0</ele><time>2026-05-02T09:11:06.943Z</time></trkpt><trkpt lat="45.81459485648918" lon="9.311681217963969"><ele>262.0</ele><time>2026-05-02T09:11:07.943Z</time></trkpt><trkpt lat="45.814595095928134" lon="9.311569587763776"><ele>262.0</ele><time>2026-05-02T09:11:08.943Z</time></trkpt><trkpt lat="45.81448581358422" lon="9.31146966662637"><ele>262.0</ele><time>2026-05-02T09:11:09.943Z</time></trkpt><trkpt lat="45.81448252594249" lon="9.311358552807247"><ele>262.0</ele><time>2026-05-02T09:11:10.943Z</time></trkpt><trkpt lat="45.81447927039906" lon="9.31124852444163"><ele>262.0</ele><time>2026-05-02T09:11:11.943Z</time></trkpt><trkpt lat="45.81447618126637" lon="9.31114412022194"><ele>262.0</ele><time>2026-05-02T09:11:12.943Z</time></trkpt><trkpt lat="45.81444336937847" lon="9.31105045526123"><ele>262.0</ele><time>2026-05-02T09:11:13.943Z</time></trkpt><trkpt lat="45.814452395601414" lon="9.310948238514815"><ele>262.66666666666663</ele><time>2026-05-02T09:11:14.943Z</time></trkpt><trkpt lat="45.81444998330979" lon="9.310829578460762"><ele>263.3333333333333</ele><time>2026-05-02T09:11:15.943Z</time></trkpt><trkpt lat="45.81448352488557" lon="9.31068592189033"><ele>264.0</ele><time>2026-05-02T09:11:16.943Z</time></trkpt><trkpt lat="45.81446036556774" lon="9.310555154702033"><ele>264.6666666666667</ele><time>2026-05-02T09:11:17.943Z</time></trkpt><trkpt lat="45.81443711759274" lon="9.310437489800037"><ele>265.33333333333337</ele><time>2026-05-02T09:11:18.943Z</time></trkpt><trkpt lat="45.81440654922747" lon="9.310337109196434"><ele>266.0</ele><time>2026-05-02T09:11:19.943Z</time></trkpt><trkpt lat="45.81438682572616" lon="9.310170454950587"><ele>266.2</ele><time>2026-05-02T09:11:21.943Z</time></trkpt><trkpt lat="45.81434972436306" lon="9.310039942946254"><ele>266.40000000000003</ele><time>2026-05-02T09:11:23.943Z</time></trkpt><trkpt lat="45.81435030367686" lon="9.309943139129887"><ele>266.6</ele><time>2026-05-02T09:11:25.943Z</time></trkpt><trkpt lat="45.814504809308154" lon="9.309852733303876"><ele>266.8</ele><time>2026-05-02T09:11:27.943Z</time></trkpt><trkpt lat="45.81457196739454" lon="9.309777735838368"><ele>267.0</ele><time>2026-05-02T09:11:28.943Z</time></trkpt><trkpt lat="45.81467049655412" lon="9.309703279835391"><ele>267.2</ele><time>2026-05-02T09:11:29.943Z</time></trkpt><trkpt lat="45.81476987298488" lon="9.309634036126809"><ele>267.4</ele><time>2026-05-02T09:11:30.943Z</time></trkpt><trkpt lat="45.81486709661604" lon="9.309549455973537"><ele>267.6</ele><time>2026-05-02T09:11:31.943Z</time></trkpt><trkpt lat="45.81495888401357" lon="9.309477230122544"><ele>267.8</ele><time>2026-05-02T09:11:32.943Z</time></trkpt><trkpt lat="45.815056061274646" lon="9.309427439416883"><ele>268.0</ele><time>2026-05-02T09:11:33.943Z</time></trkpt><trkpt lat="45.81514612608725" lon="9.30935107879762"><ele>268.5</ele><time>2026-05-02T09:11:34.943Z</time></trkpt><trkpt lat="45.815235230168604" lon="9.309264600251932"><ele>269.0</ele><time>2026-05-02T09:11:35.943Z</time></trkpt><trkpt lat="45.81530746914027" lon="9.309139173139851"><ele>269.5</ele><time>2026-05-02T09:11:36.943Z</time></trkpt><trkpt lat="45.81538528824086" lon="9.309019799659596"><ele>270.0</ele><time>2026-05-02T09:11:37.943Z</time></trkpt><trkpt lat="45.815450912229274" lon="9.308882937884006"><ele>270.0</ele><time>2026-05-02T09:11:38.943Z</time></trkpt><trkpt lat="45.81551060228088" lon="9.308750058547341"><ele>270.0</ele><time>2026-05-02T09:11:39.943Z</time></trkpt><trkpt lat="45.81557162931846" lon="9.308637957591205"><ele>270.0</ele><time>2026-05-02T09:11:40.943Z</time></trkpt><trkpt lat="45.815643680138535" lon="9.308520518927732"><ele>270.0</ele><time>2026-05-02T09:11:41.943Z</time></trkpt><trkpt lat="45.815732982370385" lon="9.30844245572901"><ele>270.0</ele><time>2026-05-02T09:11:42.943Z</time></trkpt><trkpt lat="45.81582789587541" lon="9.308357808579228"><ele>270.0</ele><time>2026-05-02T09:11:43.943Z</time></trkpt><trkpt lat="45.81592645927609" lon="9.308253788567804"><ele>270.0</ele><time>2026-05-02T09:11:44.943Z</time></trkpt><trkpt lat="45.81602594326686" lon="9.308137132874522"><ele>270.0</ele><time>2026-05-02T09:11:45.943Z</time></trkpt><trkpt lat="45.81612328733165" lon="9.308019046846994"><ele>270.0</ele><time>2026-05-02T09:11:46.943Z</time></trkpt><trkpt lat="45.8162206215196" lon="9.307894234571958"><ele>270.5</ele><time>2026-05-02T09:11:47.943Z</time></trkpt><trkpt lat="45.81631753336922" lon="9.307780676699513"><ele>271.0</ele><time>2026-05-02T09:11:48.943Z</time></trkpt><trkpt lat="45.81640887491005" lon="9.307660841955277"><ele>271.5</ele><time>2026-05-02T09:11:49.943Z</time></trkpt><trkpt lat="45.81650246295669" lon="9.307549718152158"><ele>272.0</ele><time>2026-05-02T09:11:50.943Z</time></trkpt><trkpt lat="45.81659877891377" lon="9.307450682992823"><ele>272.0</ele><time>2026-05-02T09:11:51.943Z</time></trkpt><trkpt lat="45.81669051300923" lon="9.30734654907181"><ele>272.0</ele><time>2026-05-02T09:11:52.942Z</time></trkpt><trkpt lat="45.816779027793245" lon="9.307250259540305"><ele>272.0</ele><time>2026-05-02T09:11:53.941Z</time></trkpt><trkpt lat="45.8168749028148" lon="9.307206566178996"><ele>272.0</ele><time>2026-05-02T09:11:54.941Z</time></trkpt><trkpt lat="45.816950668913165" lon="9.307135634952024"><ele>272.0</ele><time>2026-05-02T09:11:55.941Z</time></trkpt><trkpt lat="45.81701246970097" lon="9.307074817451754"><ele>272.6666666666667</ele><time>2026-05-02T09:11:56.942Z</time></trkpt><trkpt lat="45.817067101554834" lon="9.307016932443462"><ele>273.33333333333337</ele><time>2026-05-02T09:11:57.942Z</time></trkpt><trkpt lat="45.817162799211125" lon="9.30692202923521"><ele>274.0</ele><time>2026-05-02T09:11:59.941Z</time></trkpt><trkpt lat="45.817229981881454" lon="9.30689621994675"><ele>274.6666666666667</ele><time>2026-05-02T09:12:01.941Z</time></trkpt><trkpt lat="45.81728779544299" lon="9.306852988939223"><ele>275.3333333333333</ele><time>2026-05-02T09:12:05.942Z</time></trkpt><trkpt lat="45.81736004092858" lon="9.30687717510533"><ele>276.0</ele><time>2026-05-02T09:12:09.942Z</time></trkpt><trkpt lat="45.81745494263423" lon="9.306989779223509"><ele>276.0</ele><time>2026-05-02T09:12:11.942Z</time></trkpt><trkpt lat="45.81748830549994" lon="9.307089948996438"><ele>276.0</ele><time>2026-05-02T09:12:12.942Z</time></trkpt><trkpt lat="45.81751354655203" lon="9.30719416761174"><ele>276.0</ele><time>2026-05-02T09:12:13.942Z</time></trkpt><trkpt lat="45.8175354214188" lon="9.307305026911965"><ele>276.0</ele><time>2026-05-02T09:12:14.942Z</time></trkpt><trkpt lat="45.81755570538672" lon="9.307412185288772"><ele>276.0</ele><time>2026-05-02T09:12:15.942Z</time></trkpt><trkpt lat="45.81757507859854" lon="9.307522826611017"><ele>276.0</ele><time>2026-05-02T09:12:16.942Z</time></trkpt><trkpt lat="45.817600439582485" lon="9.307645967959074"><ele>275.8</ele><time>2026-05-02T09:12:17.942Z</time></trkpt><trkpt lat="45.81763796453702" lon="9.307767054035905"><ele>275.6</ele><time>2026-05-02T09:12:18.942Z</time></trkpt><trkpt lat="45.8176724515904" lon="9.307900695442276"><ele>275.4</ele><time>2026-05-02T09:12:19.942Z</time></trkpt><trkpt lat="45.817704095911154" lon="9.308052982333392"><ele>275.2</ele><time>2026-05-02T09:12:20.942Z</time></trkpt><trkpt lat="45.81768880522163" lon="9.308212852997785"><ele>275.0</ele><time>2026-05-02T09:12:21.942Z</time></trkpt><trkpt lat="45.81770872980958" lon="9.308375076992517"><ele>275.25</ele><time>2026-05-02T09:12:22.942Z</time></trkpt><trkpt lat="45.81773442789981" lon="9.308546296528847"><ele>275.5</ele><time>2026-05-02T09:12:23.942Z</time></trkpt><trkpt lat="45.81777538183105" lon="9.308725278932503"><ele>275.75</ele><time>2026-05-02T09:12:24.942Z</time></trkpt><trkpt lat="45.817813348638495" lon="9.308899706127619"><ele>276.0</ele><time>2026-05-02T09:12:25.942Z</time></trkpt><trkpt lat="45.81786814942497" lon="9.309083383723525"><ele>276.0</ele><time>2026-05-02T09:12:26.942Z</time></trkpt><trkpt lat="45.81790684066702" lon="9.309257599822036"><ele>276.0</ele><time>2026-05-02T09:12:27.942Z</time></trkpt><trkpt lat="45.817932579808186" lon="9.30941631054314"><ele>276.0</ele><time>2026-05-02T09:12:28.942Z</time></trkpt><trkpt lat="45.817961032588144" lon="9.309571263407042"><ele>276.0</ele><time>2026-05-02T09:12:29.942Z</time></trkpt><trkpt lat="45.8179932792123" lon="9.309709995404535"><ele>275.3333333333333</ele><time>2026-05-02T09:12:30.942Z</time></trkpt><trkpt lat="45.818027504194376" lon="9.30983923034831"><ele>274.6666666666667</ele><time>2026-05-02T09:12:31.942Z</time></trkpt><trkpt lat="45.81805492692533" lon="9.309944241423878"><ele>274.0</ele><time>2026-05-02T09:12:32.942Z</time></trkpt><trkpt lat="45.81807694199489" lon="9.310031684756424"><ele>273.33333333333337</ele><time>2026-05-02T09:12:33.942Z</time></trkpt><trkpt lat="45.81808241556946" lon="9.31017918332587"><ele>272.6666666666667</ele><time>2026-05-02T09:12:35.942Z</time></trkpt><trkpt lat="45.81805567452038" lon="9.310278547760317"><ele>272.0</ele><time>2026-05-02T09:12:37.942Z</time></trkpt><trkpt lat="45.81796853405561" lon="9.310381294811261"><ele>272.0</ele><time>2026-05-02T09:12:40.942Z</time></trkpt><trkpt lat="45.81788080239072" lon="9.31052141008439"><ele>272.0</ele><time>2026-05-02T09:12:42.942Z</time></trkpt><trkpt lat="45.817863618098684" lon="9.310612159776765"><ele>272.0</ele><time>2026-05-02T09:12:43.942Z</time></trkpt><trkpt lat="45.81785329111052" lon="9.310783321833911"><ele>272.0</ele><time>2026-05-02T09:12:45.942Z</time></trkpt><trkpt lat="45.81786679844169" lon="9.310874668948292"><ele>272.0</ele><time>2026-05-02T09:12:46.942Z</time></trkpt><trkpt lat="45.81785021677122" lon="9.310963681537515"><ele>272.0</ele><time>2026-05-02T09:12:47.942Z</time></trkpt><trkpt lat="45.81784634574573" lon="9.31107327928163"><ele>271.1428571428571</ele><time>2026-05-02T09:12:48.942Z</time></trkpt><trkpt lat="45.81783946540993" lon="9.311180382058286"><ele>270.2857142857143</ele><time>2026-05-02T09:12:49.942Z</time></trkpt><trkpt lat="45.81782879933615" lon="9.311280505046366"><ele>269.42857142857144</ele><time>2026-05-02T09:12:50.942Z</time></trkpt><trkpt lat="45.817816927123815" lon="9.311377691925173"><ele>268.57142857142856</ele><time>2026-05-02T09:12:51.942Z</time></trkpt><trkpt lat="45.817803326926416" lon="9.31147817813925"><ele>267.7142857142857</ele><time>2026-05-02T09:12:52.942Z</time></trkpt><trkpt lat="45.81779112234816" lon="9.311571523072537"><ele>266.85714285714283</ele><time>2026-05-02T09:12:53.942Z</time></trkpt><trkpt lat="45.81777172426625" lon="9.311670595116059"><ele>266.0</ele><time>2026-05-02T09:12:54.942Z</time></trkpt><trkpt lat="45.81775998043641" lon="9.311776476110015"><ele>265.14285714285717</ele><time>2026-05-02T09:12:55.942Z</time></trkpt><trkpt lat="45.817752872903796" lon="9.31189288416162"><ele>264.2857142857143</ele><time>2026-05-02T09:12:56.942Z</time></trkpt><trkpt lat="45.81775088165415" lon="9.31200245053263"><ele>263.42857142857144</ele><time>2026-05-02T09:12:57.942Z</time></trkpt><trkpt lat="45.81775220964308" lon="9.312109389796294"><ele>262.57142857142856</ele><time>2026-05-02T09:12:58.942Z</time></trkpt><trkpt lat="45.817756991128256" lon="9.312211074424061"><ele>261.7142857142857</ele><time>2026-05-02T09:12:59.942Z</time></trkpt><trkpt lat="45.81775906019517" lon="9.312305665923978"><ele>260.8571428571429</ele><time>2026-05-02T09:13:00.942Z</time></trkpt><trkpt lat="45.817763249397075" lon="9.312399241532244"><ele>260.0</ele><time>2026-05-02T09:13:01.942Z</time></trkpt><trkpt lat="45.81776493236671" lon="9.312499486739828"><ele>259.7142857142857</ele><time>2026-05-02T09:13:02.942Z</time></trkpt><trkpt lat="45.817767151498025" lon="9.31260937954838"><ele>259.42857142857144</ele><time>2026-05-02T09:13:03.942Z</time></trkpt><trkpt lat="45.817775117329354" lon="9.312717307501744"><ele>259.1428571428571</ele><time>2026-05-02T09:13:04.942Z</time></trkpt><trkpt lat="45.81778278071316" lon="9.312814293769165"><ele>258.8571428571429</ele><time>2026-05-02T09:13:05.942Z</time></trkpt><trkpt lat="45.81780523845531" lon="9.312912370941937"><ele>258.57142857142856</ele><time>2026-05-02T09:13:06.942Z</time></trkpt><trkpt lat="45.81782185095866" lon="9.313004924695003"><ele>258.2857142857143</ele><time>2026-05-02T09:13:07.942Z</time></trkpt><trkpt lat="45.817843203738974" lon="9.313098129236035"><ele>258.0</ele><time>2026-05-02T09:13:08.942Z</time></trkpt><trkpt lat="45.81786796311935" lon="9.313196472266021"><ele>257.4285714285714</ele><time>2026-05-02T09:13:09.942Z</time></trkpt><trkpt lat="45.817889431237454" lon="9.31328189228279"><ele>256.85714285714283</ele><time>2026-05-02T09:13:10.942Z</time></trkpt><trkpt lat="45.81791521422228" lon="9.313385476091584"><ele>256.2857142857143</ele><time>2026-05-02T09:13:12.942Z</time></trkpt><trkpt lat="45.817940471815156" lon="9.313471047167894"><ele>255.7142857142857</ele><time>2026-05-02T09:13:19.942Z</time></trkpt><trkpt lat="45.817965411688824" lon="9.31355771295323"><ele>255.1428571428571</ele><time>2026-05-02T09:13:22.942Z</time></trkpt><trkpt lat="45.817984210343376" lon="9.313659440180487"><ele>254.57142857142858</ele><time>2026-05-02T09:13:24.942Z</time></trkpt><trkpt lat="45.81800638344873" lon="9.313797232344903"><ele>254.0</ele><time>2026-05-02T09:13:26.942Z</time></trkpt><trkpt lat="45.81802774951938" lon="9.313924593744666"><ele>253.2</ele><time>2026-05-02T09:13:28.942Z</time></trkpt><trkpt lat="45.81803979482601" lon="9.314036379640177"><ele>252.39999999999998</ele><time>2026-05-02T09:13:30.942Z</time></trkpt><trkpt lat="45.81805408828321" lon="9.314168461753376"><ele>251.6</ele><time>2026-05-02T09:13:32.942Z</time></trkpt><trkpt lat="45.81806249907505" lon="9.314315951913843"><ele>250.8</ele><time>2026-05-02T09:13:34.942Z</time></trkpt><trkpt lat="45.818068332554965" lon="9.314479456057928"><ele>250.0</ele><time>2026-05-02T09:13:36.942Z</time></trkpt><trkpt lat="45.81807459934379" lon="9.314570961430022"><ele>250.0</ele><time>2026-05-02T09:13:37.942Z</time></trkpt><trkpt lat="45.81808392392056" lon="9.314662986213266"><ele>250.0</ele><time>2026-05-02T09:13:38.942Z</time></trkpt><trkpt lat="45.81809032179708" lon="9.3147547077648"><ele>250.0</ele><time>2026-05-02T09:13:39.942Z</time></trkpt><trkpt lat="45.818099134897466" lon="9.314854010714582"><ele>250.0</ele><time>2026-05-02T09:13:40.942Z</time></trkpt><trkpt lat="45.81810407891344" lon="9.314959272846927"><ele>250.0</ele><time>2026-05-02T09:13:41.942Z</time></trkpt><trkpt lat="45.81810803410747" lon="9.315074408407833"><ele>250.0</ele><time>2026-05-02T09:13:42.942Z</time></trkpt><trkpt lat="45.818115734931446" lon="9.315187449230242"><ele>250.0</ele><time>2026-05-02T09:13:43.942Z</time></trkpt><trkpt lat="45.81812683651958" lon="9.315297078481098"><ele>249.83333333333331</ele><time>2026-05-02T09:13:44.942Z</time></trkpt><trkpt lat="45.81811375580321" lon="9.315405886403187"><ele>249.66666666666666</ele><time>2026-05-02T09:13:45.942Z</time></trkpt><trkpt lat="45.81811993030188" lon="9.315509826175335"><ele>249.5</ele><time>2026-05-02T09:13:46.942Z</time></trkpt><trkpt lat="45.81812771887237" lon="9.315607578086203"><ele>249.33333333333331</ele><time>2026-05-02T09:13:47.942Z</time></trkpt><trkpt lat="45.818138884105885" lon="9.315728494031037"><ele>249.16666666666666</ele><time>2026-05-02T09:13:49.943Z</time></trkpt><trkpt lat="45.818149382930386" lon="9.3158404217659"><ele>249.0</ele><time>2026-05-02T09:13:51.943Z</time></trkpt><trkpt lat="45.81813550849002" lon="9.315949005631783"><ele>249.0</ele><time>2026-05-02T09:13:53.943Z</time></trkpt><trkpt lat="45.81806722253314" lon="9.316029344298922"><ele>248.99999999999997</ele><time>2026-05-02T09:13:55.943Z</time></trkpt><trkpt lat="45.81799551245302" lon="9.316066457056417"><ele>248.99999999999997</ele><time>2026-05-02T09:13:57.943Z</time></trkpt><trkpt lat="45.81801006415437" lon="9.316233188708221"><ele>249.0</ele><time>2026-05-02T09:14:04.941Z</time></trkpt><trkpt lat="45.818071805562994" lon="9.316338441953393"><ele>249.0</ele><time>2026-05-02T09:14:06.94Z</time></trkpt><trkpt lat="45.81813212972675" lon="9.31645214941097"><ele>247.39999999999998</ele><time>2026-05-02T09:14:08.94Z</time></trkpt><trkpt lat="45.81820988917068" lon="9.316598279810478"><ele>245.79999999999998</ele><time>2026-05-02T09:14:10.941Z</time></trkpt><trkpt lat="45.81826057475775" lon="9.316696220778576"><ele>244.20000000000002</ele><time>2026-05-02T09:14:11.94Z</time></trkpt><trkpt lat="45.81831310779168" lon="9.316803216084118"><ele>242.60000000000002</ele><time>2026-05-02T09:14:12.94Z</time></trkpt><trkpt lat="45.81836939782342" lon="9.316914805502662"><ele>241.0</ele><time>2026-05-02T09:14:13.94Z</time></trkpt><trkpt lat="45.8184221717446" lon="9.317016917897867"><ele>240.99999999999997</ele><time>2026-05-02T09:14:14.94Z</time></trkpt><trkpt lat="45.818472889842475" lon="9.317113164761873"><ele>241.0</ele><time>2026-05-02T09:14:15.94Z</time></trkpt><trkpt lat="45.818519586491945" lon="9.317203754259682"><ele>241.0</ele><time>2026-05-02T09:14:16.94Z</time></trkpt><trkpt lat="45.81856759433356" lon="9.317298692025663"><ele>241.0</ele><time>2026-05-02T09:14:17.94Z</time></trkpt><trkpt lat="45.818608043662785" lon="9.31740300124074"><ele>240.99999999999997</ele><time>2026-05-02T09:14:18.94Z</time></trkpt><trkpt lat="45.81863787691551" lon="9.31751257187137"><ele>241.0</ele><time>2026-05-02T09:14:19.94Z</time></trkpt><trkpt lat="45.818653696191355" lon="9.31763547565635"><ele>241.0</ele><time>2026-05-02T09:14:20.94Z</time></trkpt><trkpt lat="45.81866758624012" lon="9.317741838161083"><ele>241.00000000000003</ele><time>2026-05-02T09:14:21.94Z</time></trkpt><trkpt lat="45.81867917385347" lon="9.317840433869508"><ele>241.00000000000003</ele><time>2026-05-02T09:14:22.94Z</time></trkpt><trkpt lat="45.818688465336564" lon="9.31800739934413"><ele>241.0</ele><time>2026-05-02T09:14:24.94Z</time></trkpt><trkpt lat="45.81877005175534" lon="9.318085855787494"><ele>241.0</ele><time>2026-05-02T09:14:26.94Z</time></trkpt><trkpt lat="45.81887224777129" lon="9.318092849466758"><ele>241.0</ele><time>2026-05-02T09:14:28.94Z</time></trkpt><trkpt lat="45.81897738540695" lon="9.318075854727388"><ele>241.0</ele><time>2026-05-02T09:14:30.94Z</time></trkpt><trkpt lat="45.81908489984232" lon="9.318039822231368"><ele>241.0</ele><time>2026-05-02T09:14:32.94Z</time></trkpt><trkpt lat="45.81920795830304" lon="9.318019164206511"><ele>241.0</ele><time>2026-05-02T09:14:34.94Z</time></trkpt><trkpt lat="45.81931993521186" lon="9.317957010938967"><ele>241.0</ele><time>2026-05-02T09:14:36.94Z</time></trkpt><trkpt lat="45.81940157338014" lon="9.317905254547572"><ele>241.00000000000003</ele><time>2026-05-02T09:14:38.94Z</time></trkpt><trkpt lat="45.81946895518166" lon="9.317865232862202"><ele>241.00000000000003</ele><time>2026-05-02T09:14:42.94Z</time></trkpt><trkpt lat="45.8195300300443" lon="9.31807328508762"><ele>241.0</ele><time>2026-05-02T09:14:45.94Z</time></trkpt><trkpt lat="45.81955313759694" lon="9.318245825348571"><ele>241.0</ele><time>2026-05-02T09:14:46.94Z</time></trkpt><trkpt lat="45.81956390886048" lon="9.318439197683265"><ele>241.0</ele><time>2026-05-02T09:14:47.94Z</time></trkpt><trkpt lat="45.8195707208012" lon="9.318635644742098"><ele>241.0</ele><time>2026-05-02T09:14:48.94Z</time></trkpt><trkpt lat="45.81957838163295" lon="9.318815152839315"><ele>241.0</ele><time>2026-05-02T09:14:49.94Z</time></trkpt><trkpt lat="45.81959216043339" lon="9.31899290474415"><ele>241.0</ele><time>2026-05-02T09:14:50.94Z</time></trkpt><trkpt lat="45.819600508052524" lon="9.319167475418668"><ele>239.75</ele><time>2026-05-02T09:14:51.94Z</time></trkpt><trkpt lat="45.81961716943394" lon="9.31934752189859"><ele>238.5</ele><time>2026-05-02T09:14:52.94Z</time></trkpt><trkpt lat="45.819632013348226" lon="9.319529405172014"><ele>237.25</ele><time>2026-05-02T09:14:53.94Z</time></trkpt><trkpt lat="45.81964490035706" lon="9.3197143221348"><ele>236.0</ele><time>2026-05-02T09:14:54.94Z</time></trkpt><trkpt lat="45.819655819556615" lon="9.319901426980174"><ele>235.0</ele><time>2026-05-02T09:14:55.94Z</time></trkpt><trkpt lat="45.819670478680685" lon="9.320095047144543"><ele>234.0</ele><time>2026-05-02T09:14:56.94Z</time></trkpt><trkpt lat="45.81968237801172" lon="9.32029242132841"><ele>233.0</ele><time>2026-05-02T09:14:57.94Z</time></trkpt><trkpt lat="45.81969961812527" lon="9.320491213205434"><ele>232.0</ele><time>2026-05-02T09:14:58.94Z</time></trkpt><trkpt lat="45.81971619971259" lon="9.32069035370585"><ele>232.0</ele><time>2026-05-02T09:14:59.94Z</time></trkpt><trkpt lat="45.81973234288385" lon="9.320889249549213"><ele>232.0</ele><time>2026-05-02T09:15:00.94Z</time></trkpt><trkpt lat="45.819748528956104" lon="9.32109385443111"><ele>232.0</ele><time>2026-05-02T09:15:01.94Z</time></trkpt><trkpt lat="45.819764171559086" lon="9.321300557416198"><ele>232.0</ele><time>2026-05-02T09:15:02.94Z</time></trkpt><trkpt lat="45.81977740514758" lon="9.321499593900295"><ele>232.0</ele><time>2026-05-02T09:15:03.94Z</time></trkpt><trkpt lat="45.81979211907679" lon="9.321702892306961"><ele>232.0</ele><time>2026-05-02T09:15:04.94Z</time></trkpt><trkpt lat="45.81980539018694" lon="9.321896479324685"><ele>232.0</ele><time>2026-05-02T09:15:05.94Z</time></trkpt><trkpt lat="45.819821991099836" lon="9.322093416857909"><ele>232.0</ele><time>2026-05-02T09:15:06.94Z</time></trkpt><trkpt lat="45.81983519170558" lon="9.322295046490758"><ele>232.0</ele><time>2026-05-02T09:15:07.94Z</time></trkpt><trkpt lat="45.81984527518556" lon="9.322485953912855"><ele>232.0</ele><time>2026-05-02T09:15:08.94Z</time></trkpt><trkpt lat="45.81985896003944" lon="9.322662382970494"><ele>232.0</ele><time>2026-05-02T09:15:09.94Z</time></trkpt><trkpt lat="45.81987465875027" lon="9.322835440626402"><ele>232.0</ele><time>2026-05-02T09:15:10.94Z</time></trkpt><trkpt lat="45.81989658645268" lon="9.322991889774945"><ele>231.39999999999998</ele><time>2026-05-02T09:15:11.94Z</time></trkpt><trkpt lat="45.81992277149048" lon="9.323141210681147"><ele>230.79999999999998</ele><time>2026-05-02T09:15:12.94Z</time></trkpt><trkpt lat="45.819955155148875" lon="9.323275444038126"><ele>230.2</ele><time>2026-05-02T09:15:13.94Z</time></trkpt><trkpt lat="45.81999236420848" lon="9.323409481603154"><ele>229.6</ele><time>2026-05-02T09:15:14.941Z</time></trkpt><trkpt lat="45.82004587436929" lon="9.323550577126895"><ele>229.0</ele><time>2026-05-02T09:15:15.942Z</time></trkpt><trkpt lat="45.820107146802165" lon="9.323700138728741"><ele>228.5</ele><time>2026-05-02T09:15:16.943Z</time></trkpt><trkpt lat="45.82018066454629" lon="9.323846846215902"><ele>228.0</ele><time>2026-05-02T09:15:17.944Z</time></trkpt><trkpt lat="45.82026724304837" lon="9.323992655029912"><ele>227.5</ele><time>2026-05-02T09:15:18.944Z</time></trkpt><trkpt lat="45.82036253604893" lon="9.32412436916739"><ele>227.0</ele><time>2026-05-02T09:15:19.945Z</time></trkpt><trkpt lat="45.82046400605853" lon="9.324235735998819"><ele>227.0</ele><time>2026-05-02T09:15:20.946Z</time></trkpt><trkpt lat="45.82057054466619" lon="9.32433093465115"><ele>227.0</ele><time>2026-05-02T09:15:21.946Z</time></trkpt><trkpt lat="45.820677284794186" lon="9.324406133396648"><ele>227.0</ele><time>2026-05-02T09:15:22.947Z</time></trkpt><trkpt lat="45.82078478083091" lon="9.324466986397724"><ele>227.0</ele><time>2026-05-02T09:15:23.947Z</time></trkpt><trkpt lat="45.82089717379945" lon="9.324519214006232"><ele>226.5</ele><time>2026-05-02T09:15:24.948Z</time></trkpt><trkpt lat="45.82101685655569" lon="9.324564193440048"><ele>226.0</ele><time>2026-05-02T09:15:25.948Z</time></trkpt><trkpt lat="45.82114811007252" lon="9.324587359132558"><ele>225.5</ele><time>2026-05-02T09:15:26.949Z</time></trkpt><trkpt lat="45.82128562068818" lon="9.324610808711814"><ele>225.0</ele><time>2026-05-02T09:15:27.949Z</time></trkpt><trkpt lat="45.82142189751518" lon="9.32463161405748"><ele>225.0</ele><time>2026-05-02T09:15:28.949Z</time></trkpt><trkpt lat="45.821553655444525" lon="9.324658583220653"><ele>225.0</ele><time>2026-05-02T09:15:29.95Z</time></trkpt><trkpt lat="45.82169097462198" lon="9.32468420243216"><ele>225.0</ele><time>2026-05-02T09:15:30.95Z</time></trkpt><trkpt lat="45.82182788362526" lon="9.324720112635202"><ele>225.0</ele><time>2026-05-02T09:15:31.95Z</time></trkpt><trkpt lat="45.82196546100645" lon="9.324760725271846"><ele>224.75</ele><time>2026-05-02T09:15:32.951Z</time></trkpt><trkpt lat="45.82210099361133" lon="9.324812397097919"><ele>224.5</ele><time>2026-05-02T09:15:33.951Z</time></trkpt><trkpt lat="45.82223424845342" lon="9.324875710577016"><ele>224.25</ele><time>2026-05-02T09:15:34.951Z</time></trkpt><trkpt lat="45.82236855787184" lon="9.324948353063995"><ele>224.0</ele><time>2026-05-02T09:15:35.951Z</time></trkpt><trkpt lat="45.822499093179744" lon="9.325029584565678"><ele>224.0</ele><time>2026-05-02T09:15:36.952Z</time></trkpt><trkpt lat="45.822625665180276" lon="9.325120606243416"><ele>224.0</ele><time>2026-05-02T09:15:37.952Z</time></trkpt><trkpt lat="45.82274727525671" lon="9.325224315250294"><ele>224.0</ele><time>2026-05-02T09:15:38.952Z</time></trkpt><trkpt lat="45.82287044903504" lon="9.325334307057537"><ele>224.0</ele><time>2026-05-02T09:15:39.952Z</time></trkpt><trkpt lat="45.82298624087721" lon="9.325453355592325"><ele>224.5</ele><time>2026-05-02T09:15:40.952Z</time></trkpt><trkpt lat="45.823090543891226" lon="9.32558500972423"><ele>225.0</ele><time>2026-05-02T09:15:41.952Z</time></trkpt><trkpt lat="45.82319156307565" lon="9.325717901479457"><ele>225.5</ele><time>2026-05-02T09:15:42.953Z</time></trkpt><trkpt lat="45.82328850840987" lon="9.32585776707346"><ele>226.0</ele><time>2026-05-02T09:15:43.953Z</time></trkpt><trkpt lat="45.823377963853304" lon="9.326004707268643"><ele>226.0</ele><time>2026-05-02T09:15:44.953Z</time></trkpt><trkpt lat="45.8234546325663" lon="9.326149162863329"><ele>226.0</ele><time>2026-05-02T09:15:45.953Z</time></trkpt><trkpt lat="45.823523886767674" lon="9.326285213465374"><ele>226.0</ele><time>2026-05-02T09:15:46.953Z</time></trkpt><trkpt lat="45.823584252814975" lon="9.326414705130643"><ele>226.0</ele><time>2026-05-02T09:15:47.953Z</time></trkpt><trkpt lat="45.8236393187512" lon="9.326538885756348"><ele>230.75</ele><time>2026-05-02T09:15:48.953Z</time></trkpt><trkpt lat="45.82369395044833" lon="9.326674063133364"><ele>235.5</ele><time>2026-05-02T09:15:49.953Z</time></trkpt><trkpt lat="45.82373899721839" lon="9.326820931544194"><ele>240.25</ele><time>2026-05-02T09:15:50.954Z</time></trkpt><trkpt lat="45.82378294076211" lon="9.326977935066989"><ele>245.0</ele><time>2026-05-02T09:15:51.954Z</time></trkpt><trkpt lat="45.8238269883393" lon="9.327135006630346"><ele>244.0</ele><time>2026-05-02T09:15:52.954Z</time></trkpt><trkpt lat="45.82386500118427" lon="9.327294970120649"><ele>243.0</ele><time>2026-05-02T09:15:53.954Z</time></trkpt><trkpt lat="45.82390142408716" lon="9.32745019337441"><ele>242.0</ele><time>2026-05-02T09:15:54.954Z</time></trkpt><trkpt lat="45.82396150310669" lon="9.32757895613571"><ele>241.0</ele><time>2026-05-02T09:15:55.954Z</time></trkpt><trkpt lat="45.823990155471776" lon="9.327721978550894"><ele>240.0</ele><time>2026-05-02T09:15:56.954Z</time></trkpt><trkpt lat="45.82401318080051" lon="9.327858663772783"><ele>240.0</ele><time>2026-05-02T09:15:57.954Z</time></trkpt><trkpt lat="45.824035193175" lon="9.327995351395948"><ele>240.0</ele><time>2026-05-02T09:15:58.954Z</time></trkpt><trkpt lat="45.82405491378599" lon="9.328119542357086"><ele>240.0</ele><time>2026-05-02T09:15:59.954Z</time></trkpt><trkpt lat="45.82407206859337" lon="9.328243017461745"><ele>240.0</ele><time>2026-05-02T09:16:00.954Z</time></trkpt><trkpt lat="45.82409039274745" lon="9.328393406717984"><ele>240.0</ele><time>2026-05-02T09:16:01.954Z</time></trkpt><trkpt lat="45.82411310064212" lon="9.32856449687856"><ele>239.8</ele><time>2026-05-02T09:16:02.954Z</time></trkpt><trkpt lat="45.82413286564261" lon="9.328733596275525"><ele>239.6</ele><time>2026-05-02T09:16:03.954Z</time></trkpt><trkpt lat="45.82415271184789" lon="9.328877906988657"><ele>239.39999999999998</ele><time>2026-05-02T09:16:04.953Z</time></trkpt><trkpt lat="45.82416808979215" lon="9.329005513214344"><ele>239.2</ele><time>2026-05-02T09:16:05.954Z</time></trkpt><trkpt lat="45.82418167974159" lon="9.32912348620512"><ele>239.0</ele><time>2026-05-02T09:16:06.954Z</time></trkpt><trkpt lat="45.8241911481772" lon="9.329237261534086"><ele>238.50000000000003</ele><time>2026-05-02T09:16:07.953Z</time></trkpt><trkpt lat="45.82419972439548" lon="9.329352636762822"><ele>238.0</ele><time>2026-05-02T09:16:08.953Z</time></trkpt><trkpt lat="45.82420820135827" lon="9.329468259416005"><ele>237.5</ele><time>2026-05-02T09:16:09.953Z</time></trkpt><trkpt lat="45.82421336553763" lon="9.329591060777418"><ele>237.0</ele><time>2026-05-02T09:16:10.954Z</time></trkpt><trkpt lat="45.824222881654435" lon="9.329707975598103"><ele>236.50000000000003</ele><time>2026-05-02T09:16:11.953Z</time></trkpt><trkpt lat="45.82423173664351" lon="9.329819708588206"><ele>236.0</ele><time>2026-05-02T09:16:12.953Z</time></trkpt><trkpt lat="45.824237726681936" lon="9.32993059769714"><ele>235.33333333333334</ele><time>2026-05-02T09:16:13.953Z</time></trkpt><trkpt lat="45.824244177120235" lon="9.330038582273168"><ele>234.66666666666669</ele><time>2026-05-02T09:16:14.953Z</time></trkpt><trkpt lat="45.82425158668982" lon="9.330153837759251"><ele>234.0</ele><time>2026-05-02T09:16:15.953Z</time></trkpt><trkpt lat="45.824261419243264" lon="9.330280559602631"><ele>233.33333333333331</ele><time>2026-05-02T09:16:16.953Z</time></trkpt><trkpt lat="45.82427149847044" lon="9.330418703564087"><ele>232.66666666666666</ele><time>2026-05-02T09:16:17.954Z</time></trkpt><trkpt lat="45.82428223485173" lon="9.330552353587482"><ele>232.0</ele><time>2026-05-02T09:16:18.954Z</time></trkpt><trkpt lat="45.82429284131412" lon="9.330683511089397"><ele>231.39999999999998</ele><time>2026-05-02T09:16:19.954Z</time></trkpt><trkpt lat="45.82430698905785" lon="9.330814202776946"><ele>230.79999999999998</ele><time>2026-05-02T09:16:20.954Z</time></trkpt><trkpt lat="45.82431820132262" lon="9.330959376478418"><ele>230.2</ele><time>2026-05-02T09:16:21.954Z</time></trkpt><trkpt lat="45.824330206069526" lon="9.33111851817858"><ele>229.6</ele><time>2026-05-02T09:16:22.954Z</time></trkpt><trkpt lat="45.82434559063987" lon="9.33128120139266"><ele>229.0</ele><time>2026-05-02T09:16:23.954Z</time></trkpt><trkpt lat="45.8243565227524" lon="9.331450003505443"><ele>235.25</ele><time>2026-05-02T09:16:24.954Z</time></trkpt><trkpt lat="45.82436946776271" lon="9.331623115466789"><ele>241.5</ele><time>2026-05-02T09:16:25.954Z</time></trkpt><trkpt lat="45.82438004086122" lon="9.331799453552911"><ele>247.75</ele><time>2026-05-02T09:16:26.954Z</time></trkpt><trkpt lat="45.82439086285025" lon="9.331968538233987"><ele>254.0</ele><time>2026-05-02T09:16:27.954Z</time></trkpt><trkpt lat="45.82440367207925" lon="9.332130710726599"><ele>253.25</ele><time>2026-05-02T09:16:28.954Z</time></trkpt><trkpt lat="45.824418069067285" lon="9.332301804883944"><ele>252.5</ele><time>2026-05-02T09:16:29.954Z</time></trkpt><trkpt lat="45.82443123130245" lon="9.332477392197763"><ele>251.75</ele><time>2026-05-02T09:16:30.954Z</time></trkpt><trkpt lat="45.82444603413246" lon="9.332649329016252"><ele>251.0</ele><time>2026-05-02T09:16:31.954Z</time></trkpt><trkpt lat="45.8244570561528" lon="9.332827702875178"><ele>251.0</ele><time>2026-05-02T09:16:32.954Z</time></trkpt><trkpt lat="45.82446733112689" lon="9.333011364171865"><ele>251.0</ele><time>2026-05-02T09:16:33.954Z</time></trkpt><trkpt lat="45.82447711039339" lon="9.333194336590173"><ele>251.0</ele><time>2026-05-02T09:16:34.954Z</time></trkpt><trkpt lat="45.82448357826001" lon="9.333375446339925"><ele>251.0</ele><time>2026-05-02T09:16:35.954Z</time></trkpt><trkpt lat="45.82448972630044" lon="9.33355157847126"><ele>250.25</ele><time>2026-05-02T09:16:36.954Z</time></trkpt><trkpt lat="45.82449134303043" lon="9.333725092866523"><ele>249.5</ele><time>2026-05-02T09:16:37.954Z</time></trkpt><trkpt lat="45.82449343051449" lon="9.33389621684495"><ele>248.75</ele><time>2026-05-02T09:16:38.954Z</time></trkpt><trkpt lat="45.824494968357676" lon="9.334068228788444"><ele>248.0</ele><time>2026-05-02T09:16:39.954Z</time></trkpt><trkpt lat="45.824497133468924" lon="9.334242356446989"><ele>247.75</ele><time>2026-05-02T09:16:40.954Z</time></trkpt><trkpt lat="45.824499079018786" lon="9.334425381403001"><ele>247.5</ele><time>2026-05-02T09:16:41.954Z</time></trkpt><trkpt lat="45.82450040809022" lon="9.334608873048717"><ele>247.25</ele><time>2026-05-02T09:16:42.954Z</time></trkpt><trkpt lat="45.824502127773975" lon="9.334798332639696"><ele>247.0</ele><time>2026-05-02T09:16:43.954Z</time></trkpt><trkpt lat="45.82450114152256" lon="9.33499080048765"><ele>247.0</ele><time>2026-05-02T09:16:44.954Z</time></trkpt><trkpt lat="45.82450253498271" lon="9.33518283602955"><ele>247.0</ele><time>2026-05-02T09:16:45.954Z</time></trkpt><trkpt lat="45.82450219920886" lon="9.335374359072448"><ele>247.0</ele><time>2026-05-02T09:16:46.954Z</time></trkpt><trkpt lat="45.824500134936635" lon="9.335564244229179"><ele>247.0</ele><time>2026-05-02T09:16:47.954Z</time></trkpt><trkpt lat="45.82449911047707" lon="9.335755065453707"><ele>247.0</ele><time>2026-05-02T09:16:48.954Z</time></trkpt><trkpt lat="45.82449948404189" lon="9.335949268433385"><ele>247.0</ele><time>2026-05-02T09:16:49.954Z</time></trkpt><trkpt lat="45.82450150257476" lon="9.336144864167085"><ele>247.0</ele><time>2026-05-02T09:16:50.954Z</time></trkpt><trkpt lat="45.82450528472463" lon="9.336339781621144"><ele>247.0</ele><time>2026-05-02T09:16:51.954Z</time></trkpt><trkpt lat="45.82451146855047" lon="9.336535048070463"><ele>246.25</ele><time>2026-05-02T09:16:52.954Z</time></trkpt><trkpt lat="45.82451971538904" lon="9.336728840583472"><ele>245.5</ele><time>2026-05-02T09:16:53.954Z</time></trkpt><trkpt lat="45.82452542754232" lon="9.336927318604031"><ele>244.75</ele><time>2026-05-02T09:16:54.954Z</time></trkpt><trkpt lat="45.82453436358282" lon="9.337126686678069"><ele>244.0</ele><time>2026-05-02T09:16:55.954Z</time></trkpt><trkpt lat="45.82454487412167" lon="9.337328320134917"><ele>243.25</ele><time>2026-05-02T09:16:56.954Z</time></trkpt><trkpt lat="45.82455387825057" lon="9.337529074588215"><ele>242.5</ele><time>2026-05-02T09:16:57.954Z</time></trkpt><trkpt lat="45.824563716123656" lon="9.337726365833744"><ele>241.75</ele><time>2026-05-02T09:16:58.954Z</time></trkpt><trkpt lat="45.824577666437605" lon="9.33792618432091"><ele>241.0</ele><time>2026-05-02T09:16:59.954Z</time></trkpt><trkpt lat="45.82459126387706" lon="9.338127310500324"><ele>240.25</ele><time>2026-05-02T09:17:00.954Z</time></trkpt><trkpt lat="45.82460091869984" lon="9.338330406354775"><ele>239.5</ele><time>2026-05-02T09:17:01.954Z</time></trkpt><trkpt lat="45.82461381627999" lon="9.33852830198288"><ele>238.75</ele><time>2026-05-02T09:17:02.954Z</time></trkpt><trkpt lat="45.824626042808106" lon="9.338722987550995"><ele>238.0</ele><time>2026-05-02T09:17:03.954Z</time></trkpt><trkpt lat="45.82463346280594" lon="9.338921482744865"><ele>237.5</ele><time>2026-05-02T09:17:04.954Z</time></trkpt><trkpt lat="45.82463696200529" lon="9.33912516741197"><ele>237.0</ele><time>2026-05-02T09:17:05.954Z</time></trkpt><trkpt lat="45.82463773822206" lon="9.339335684457449"><ele>236.5</ele><time>2026-05-02T09:17:06.954Z</time></trkpt><trkpt lat="45.82462989051683" lon="9.33954695129296"><ele>236.0</ele><time>2026-05-02T09:17:07.954Z</time></trkpt><trkpt lat="45.82461626823474" lon="9.33976055957195"><ele>236.5</ele><time>2026-05-02T09:17:08.954Z</time></trkpt><trkpt lat="45.824602756896546" lon="9.339970251414753"><ele>237.0</ele><time>2026-05-02T09:17:09.954Z</time></trkpt><trkpt lat="45.82459092625364" lon="9.34017588033458"><ele>237.5</ele><time>2026-05-02T09:17:10.954Z</time></trkpt><trkpt lat="45.82457756918244" lon="9.340376520759934"><ele>238.0</ele><time>2026-05-02T09:17:11.954Z</time></trkpt><trkpt lat="45.82456292315558" lon="9.340576581821718"><ele>238.0</ele><time>2026-05-02T09:17:12.954Z</time></trkpt><trkpt lat="45.82455008714437" lon="9.340774757315915"><ele>238.0</ele><time>2026-05-02T09:17:13.954Z</time></trkpt><trkpt lat="45.82453665285902" lon="9.340977413387085"><ele>238.0</ele><time>2026-05-02T09:17:14.954Z</time></trkpt><trkpt lat="45.82452839863919" lon="9.341190483264162"><ele>238.0</ele><time>2026-05-02T09:17:15.954Z</time></trkpt><trkpt lat="45.82452671719531" lon="9.341408963981932"><ele>240.0</ele><time>2026-05-02T09:17:16.954Z</time></trkpt><trkpt lat="45.824514610032566" lon="9.341626143456883"><ele>242.0</ele><time>2026-05-02T09:17:17.954Z</time></trkpt><trkpt lat="45.8245062765364" lon="9.341841402243048"><ele>244.0</ele><time>2026-05-02T09:17:18.954Z</time></trkpt><trkpt lat="45.82449774790901" lon="9.342057738881648"><ele>243.75</ele><time>2026-05-02T09:17:19.954Z</time></trkpt><trkpt lat="45.824491525630506" lon="9.342271595654566"><ele>243.5</ele><time>2026-05-02T09:17:20.954Z</time></trkpt><trkpt lat="45.82447621815024" lon="9.342480557235115"><ele>243.25</ele><time>2026-05-02T09:17:21.954Z</time></trkpt><trkpt lat="45.824457851382554" lon="9.342690034380722"><ele>243.0</ele><time>2026-05-02T09:17:22.954Z</time></trkpt><trkpt lat="45.82443673008298" lon="9.34289463505723"><ele>241.25</ele><time>2026-05-02T09:17:23.954Z</time></trkpt><trkpt lat="45.8244122423747" lon="9.343096479338998"><ele>239.5</ele><time>2026-05-02T09:17:24.954Z</time></trkpt><trkpt lat="45.82438686473869" lon="9.343303700826377"><ele>237.75</ele><time>2026-05-02T09:17:25.954Z</time></trkpt><trkpt lat="45.8243610076689" lon="9.343512938351568"><ele>236.0</ele><time>2026-05-02T09:17:26.954Z</time></trkpt><trkpt lat="45.824337725839655" lon="9.34372413765444"><ele>233.66666666666669</ele><time>2026-05-02T09:17:27.955Z</time></trkpt><trkpt lat="45.8243205217679" lon="9.343950265852946"><ele>231.33333333333331</ele><time>2026-05-02T09:17:28.955Z</time></trkpt><trkpt lat="45.824301677818575" lon="9.344176831653776"><ele>229.0</ele><time>2026-05-02T09:17:29.955Z</time></trkpt><trkpt lat="45.82428469974958" lon="9.34440727729736"><ele>227.66666666666666</ele><time>2026-05-02T09:17:30.955Z</time></trkpt><trkpt lat="45.82426568426302" lon="9.34464776240253"><ele>226.33333333333331</ele><time>2026-05-02T09:17:31.955Z</time></trkpt><trkpt lat="45.82424548573147" lon="9.34487909826618"><ele>225.0</ele><time>2026-05-02T09:17:32.955Z</time></trkpt><trkpt lat="45.82422689684563" lon="9.34511290535427"><ele>225.0</ele><time>2026-05-02T09:17:33.955Z</time></trkpt><trkpt lat="45.82420772817256" lon="9.345348495956499"><ele>225.0</ele><time>2026-05-02T09:17:34.955Z</time></trkpt><trkpt lat="45.82418221705381" lon="9.345591291004032"><ele>225.0</ele><time>2026-05-02T09:17:35.955Z</time></trkpt><trkpt lat="45.824161046987165" lon="9.345831939637085"><ele>225.0</ele><time>2026-05-02T09:17:36.955Z</time></trkpt><trkpt lat="45.824142566206405" lon="9.346056297631026"><ele>225.0</ele><time>2026-05-02T09:17:37.955Z</time></trkpt><trkpt lat="45.824128022171564" lon="9.346268839599185"><ele>225.0</ele><time>2026-05-02T09:17:38.955Z</time></trkpt><trkpt lat="45.82411947199585" lon="9.346478509104617"><ele>225.25</ele><time>2026-05-02T09:17:39.955Z</time></trkpt><trkpt lat="45.824121199858745" lon="9.346695556579416"><ele>225.5</ele><time>2026-05-02T09:17:40.955Z</time></trkpt><trkpt lat="45.82413237277462" lon="9.346903658642871"><ele>225.75</ele><time>2026-05-02T09:17:41.955Z</time></trkpt><trkpt lat="45.8241497275833" lon="9.347096732542788"><ele>226.0</ele><time>2026-05-02T09:17:42.955Z</time></trkpt><trkpt lat="45.824175267346014" lon="9.347280080826259"><ele>226.0</ele><time>2026-05-02T09:17:43.955Z</time></trkpt><trkpt lat="45.824204369989175" lon="9.347453712868992"><ele>226.0</ele><time>2026-05-02T09:17:44.955Z</time></trkpt><trkpt lat="45.82423091119818" lon="9.347618416998277"><ele>226.0</ele><time>2026-05-02T09:17:45.955Z</time></trkpt><trkpt lat="45.8242598727344" lon="9.347790085347892"><ele>226.0</ele><time>2026-05-02T09:17:46.955Z</time></trkpt><trkpt lat="45.82429651873284" lon="9.347960765431928"><ele>226.25</ele><time>2026-05-02T09:17:47.955Z</time></trkpt><trkpt lat="45.82433878941967" lon="9.348125741080207"><ele>226.5</ele><time>2026-05-02T09:17:48.955Z</time></trkpt><trkpt lat="45.82439455341306" lon="9.348280749975222"><ele>226.75</ele><time>2026-05-02T09:17:49.955Z</time></trkpt><trkpt lat="45.82445969840555" lon="9.348408115094202"><ele>227.0</ele><time>2026-05-02T09:17:50.955Z</time></trkpt><trkpt lat="45.824538903413945" lon="9.348513701230695"><ele>227.0</ele><time>2026-05-02T09:17:51.955Z</time></trkpt><trkpt lat="45.824647189456094" lon="9.348565498973485"><ele>227.0</ele><time>2026-05-02T09:17:52.955Z</time></trkpt><trkpt lat="45.824759022009516" lon="9.34861863376388"><ele>227.0</ele><time>2026-05-02T09:17:53.955Z</time></trkpt><trkpt lat="45.824861371515944" lon="9.348687223907788"><ele>227.0</ele><time>2026-05-02T09:17:54.955Z</time></trkpt><trkpt lat="45.82496702290918" lon="9.348768953653826"><ele>226.75</ele><time>2026-05-02T09:17:55.955Z</time></trkpt><trkpt lat="45.825066402185946" lon="9.34888811529274"><ele>226.5</ele><time>2026-05-02T09:17:56.955Z</time></trkpt><trkpt lat="45.82516721573274" lon="9.349017625705384"><ele>226.25</ele><time>2026-05-02T09:17:57.955Z</time></trkpt><trkpt lat="45.82526512457318" lon="9.349153900393658"><ele>226.0</ele><time>2026-05-02T09:17:58.955Z</time></trkpt><trkpt lat="45.825368576473245" lon="9.34928247319511"><ele>226.0</ele><time>2026-05-02T09:17:59.955Z</time></trkpt><trkpt lat="45.82547126112095" lon="9.349400843926581"><ele>226.0</ele><time>2026-05-02T09:18:00.955Z</time></trkpt><trkpt lat="45.825572888236145" lon="9.349504298393132"><ele>226.0</ele><time>2026-05-02T09:18:01.955Z</time></trkpt><trkpt lat="45.825670557239846" lon="9.349595466415373"><ele>226.0</ele><time>2026-05-02T09:18:02.955Z</time></trkpt><trkpt lat="45.825764685105895" lon="9.349671880531229"><ele>226.8</ele><time>2026-05-02T09:18:03.955Z</time></trkpt><trkpt lat="45.82585765765636" lon="9.34974059870428"><ele>227.60000000000002</ele><time>2026-05-02T09:18:04.955Z</time></trkpt><trkpt lat="45.82595060876037" lon="9.34981435619887"><ele>228.4</ele><time>2026-05-02T09:18:05.955Z</time></trkpt><trkpt lat="45.826038200928416" lon="9.349884714419398"><ele>229.2</ele><time>2026-05-02T09:18:06.955Z</time></trkpt><trkpt lat="45.82612062665746" lon="9.349950222863384"><ele>230.0</ele><time>2026-05-02T09:18:07.955Z</time></trkpt><trkpt lat="45.826198046623155" lon="9.350005591353208"><ele>230.00000000000003</ele><time>2026-05-02T09:18:08.955Z</time></trkpt><trkpt lat="45.82627018967061" lon="9.350058173414945"><ele>230.0</ele><time>2026-05-02T09:18:09.955Z</time></trkpt><trkpt lat="45.82634061715965" lon="9.350105693627475"><ele>230.0</ele><time>2026-05-02T09:18:10.953Z</time></trkpt><trkpt lat="45.826404829442225" lon="9.35015310921324"><ele>230.0</ele><time>2026-05-02T09:18:11.952Z</time></trkpt><trkpt lat="45.82647699966131" lon="9.350202546791385"><ele>230.00000000000003</ele><time>2026-05-02T09:18:12.952Z</time></trkpt><trkpt lat="45.82654618839489" lon="9.350254426575574"><ele>230.0</ele><time>2026-05-02T09:18:13.953Z</time></trkpt><trkpt lat="45.826608152685075" lon="9.350305745283425"><ele>230.00000000000003</ele><time>2026-05-02T09:18:14.953Z</time></trkpt><trkpt lat="45.82666711578603" lon="9.35034857523795"><ele>230.0</ele><time>2026-05-02T09:18:15.953Z</time></trkpt><trkpt lat="45.826763059555255" lon="9.350420858614521"><ele>230.0</ele><time>2026-05-02T09:18:17.952Z</time></trkpt><trkpt lat="45.826838540957155" lon="9.350481404110957"><ele>230.0</ele><time>2026-05-02T09:18:19.953Z</time></trkpt><trkpt lat="45.82692182158883" lon="9.350563338203237"><ele>230.00000000000003</ele><time>2026-05-02T09:18:21.953Z</time></trkpt><trkpt lat="45.82697164253914" lon="9.350637831989502"><ele>230.0</ele><time>2026-05-02T09:18:22.952Z</time></trkpt><trkpt lat="45.82703133172215" lon="9.350697380898362"><ele>230.50000000000003</ele><time>2026-05-02T09:18:23.952Z</time></trkpt><trkpt lat="45.82709224688786" lon="9.350738094070811"><ele>231.0</ele><time>2026-05-02T09:18:24.952Z</time></trkpt><trkpt lat="45.82716378001433" lon="9.35075827930351"><ele>231.5</ele><time>2026-05-02T09:18:25.952Z</time></trkpt><trkpt lat="45.82724646794071" lon="9.350797147864562"><ele>232.0</ele><time>2026-05-02T09:18:26.952Z</time></trkpt><trkpt lat="45.827334059356964" lon="9.350860084652577"><ele>232.50000000000003</ele><time>2026-05-02T09:18:27.952Z</time></trkpt><trkpt lat="45.827430819326814" lon="9.35093453689512"><ele>233.0</ele><time>2026-05-02T09:18:28.952Z</time></trkpt><trkpt lat="45.827535962071295" lon="9.351009083021252"><ele>231.75</ele><time>2026-05-02T09:18:29.952Z</time></trkpt><trkpt lat="45.8276459675752" lon="9.351083793010739"><ele>230.5</ele><time>2026-05-02T09:18:30.952Z</time></trkpt><trkpt lat="45.82775818790729" lon="9.3511701730693"><ele>229.25</ele><time>2026-05-02T09:18:31.952Z</time></trkpt><trkpt lat="45.82787453046181" lon="9.351252389272464"><ele>228.0</ele><time>2026-05-02T09:18:32.953Z</time></trkpt><trkpt lat="45.82799571752032" lon="9.35133740780333"><ele>228.25</ele><time>2026-05-02T09:18:33.953Z</time></trkpt><trkpt lat="45.82812155082669" lon="9.351419309619898"><ele>228.5</ele><time>2026-05-02T09:18:34.953Z</time></trkpt><trkpt lat="45.828248836941384" lon="9.351509676747458"><ele>228.75</ele><time>2026-05-02T09:18:35.953Z</time></trkpt><trkpt lat="45.82838174627919" lon="9.351599266033935"><ele>229.0</ele><time>2026-05-02T09:18:36.953Z</time></trkpt><trkpt lat="45.82851837958384" lon="9.351687012174795"><ele>229.0</ele><time>2026-05-02T09:18:37.953Z</time></trkpt><trkpt lat="45.828662056213965" lon="9.351764630825015"><ele>229.0</ele><time>2026-05-02T09:18:38.953Z</time></trkpt><trkpt lat="45.82881253577694" lon="9.35182705786267"><ele>229.0</ele><time>2026-05-02T09:18:39.953Z</time></trkpt><trkpt lat="45.828966131078666" lon="9.351878458920794"><ele>229.0</ele><time>2026-05-02T09:18:40.953Z</time></trkpt><trkpt lat="45.82912578727649" lon="9.351917077639419"><ele>229.0</ele><time>2026-05-02T09:18:41.953Z</time></trkpt><trkpt lat="45.829281460364214" lon="9.351959147466347"><ele>229.0</ele><time>2026-05-02T09:18:42.953Z</time></trkpt><trkpt lat="45.82944173021947" lon="9.352006636841047"><ele>228.66666666666666</ele><time>2026-05-02T09:18:43.953Z</time></trkpt><trkpt lat="45.82960641783456" lon="9.352048667508823"><ele>228.33333333333331</ele><time>2026-05-02T09:18:44.953Z</time></trkpt><trkpt lat="45.829771055711625" lon="9.352092194497928"><ele>228.0</ele><time>2026-05-02T09:18:45.953Z</time></trkpt><trkpt lat="45.829938077357106" lon="9.352133519375244"><ele>228.0</ele><time>2026-05-02T09:18:46.953Z</time></trkpt><trkpt lat="45.83010619977386" lon="9.35217650061211"><ele>228.0</ele><time>2026-05-02T09:18:47.953Z</time></trkpt><trkpt lat="45.83027739402713" lon="9.352224609416028"><ele>228.0</ele><time>2026-05-02T09:18:48.953Z</time></trkpt><trkpt lat="45.83045103028571" lon="9.352278553794163"><ele>228.0</ele><time>2026-05-02T09:18:49.953Z</time></trkpt><trkpt lat="45.83062600809235" lon="9.352336481934774"><ele>228.0</ele><time>2026-05-02T09:18:50.953Z</time></trkpt><trkpt lat="45.83080230419771" lon="9.352390444072116"><ele>228.0</ele><time>2026-05-02T09:18:51.953Z</time></trkpt><trkpt lat="45.830975506011555" lon="9.35244403627488"><ele>229.0</ele><time>2026-05-02T09:18:52.953Z</time></trkpt><trkpt lat="45.83114122254272" lon="9.352499307361537"><ele>230.0</ele><time>2026-05-02T09:18:53.953Z</time></trkpt><trkpt lat="45.831307596866296" lon="9.35254398133831"><ele>231.0</ele><time>2026-05-02T09:18:54.953Z</time></trkpt><trkpt lat="45.831473503818266" lon="9.352577661688835"><ele>231.0</ele><time>2026-05-02T09:18:55.953Z</time></trkpt><trkpt lat="45.831645169049104" lon="9.352597247879318"><ele>231.0</ele><time>2026-05-02T09:18:56.953Z</time></trkpt><trkpt lat="45.83181669570581" lon="9.35259620708858"><ele>231.0</ele><time>2026-05-02T09:18:57.953Z</time></trkpt><trkpt lat="45.83199006450558" lon="9.35257607250113"><ele>230.66666666666669</ele><time>2026-05-02T09:18:58.953Z</time></trkpt><trkpt lat="45.83215746873351" lon="9.35254222449217"><ele>230.33333333333334</ele><time>2026-05-02T09:18:59.953Z</time></trkpt><trkpt lat="45.83232716062015" lon="9.352506100289494"><ele>230.0</ele><time>2026-05-02T09:19:00.953Z</time></trkpt><trkpt lat="45.83249953576602" lon="9.352472101057137"><ele>228.33333333333334</ele><time>2026-05-02T09:19:01.953Z</time></trkpt><trkpt lat="45.83266887820405" lon="9.352437435793563"><ele>226.66666666666669</ele><time>2026-05-02T09:19:02.953Z</time></trkpt><trkpt lat="45.83283896313409" lon="9.352409845491579"><ele>225.0</ele><time>2026-05-02T09:19:03.953Z</time></trkpt><trkpt lat="45.833009876876844" lon="9.35240162039924"><ele>225.0</ele><time>2026-05-02T09:19:04.953Z</time></trkpt><trkpt lat="45.833180791831836" lon="9.352413715748792"><ele>225.0</ele><time>2026-05-02T09:19:05.953Z</time></trkpt><trkpt lat="45.83335056690396" lon="9.352451792821268"><ele>225.0</ele><time>2026-05-02T09:19:06.953Z</time></trkpt><trkpt lat="45.833511076849256" lon="9.352516253954281"><ele>223.66666666666669</ele><time>2026-05-02T09:19:07.953Z</time></trkpt><trkpt lat="45.83367672019696" lon="9.352583254299248"><ele>222.33333333333334</ele><time>2026-05-02T09:19:08.953Z</time></trkpt><trkpt lat="45.83383843150818" lon="9.352665812890246"><ele>221.0</ele><time>2026-05-02T09:19:09.953Z</time></trkpt><trkpt lat="45.83399209711806" lon="9.35276782727779"><ele>221.0</ele><time>2026-05-02T09:19:10.953Z</time></trkpt><trkpt lat="45.834137870751654" lon="9.352890877865454"><ele>221.0</ele><time>2026-05-02T09:19:11.953Z</time></trkpt><trkpt lat="45.83427865178534" lon="9.35302827429667"><ele>221.0</ele><time>2026-05-02T09:19:12.953Z</time></trkpt><trkpt lat="45.83441598105369" lon="9.353170319355701"><ele>221.0</ele><time>2026-05-02T09:19:13.953Z</time></trkpt><trkpt lat="45.83455412921013" lon="9.353312147211257"><ele>221.0</ele><time>2026-05-02T09:19:14.953Z</time></trkpt><trkpt lat="45.834692012297175" lon="9.353454705648549"><ele>221.0</ele><time>2026-05-02T09:19:15.953Z</time></trkpt><trkpt lat="45.834829349451205" lon="9.353599659115316"><ele>221.0</ele><time>2026-05-02T09:19:16.953Z</time></trkpt><trkpt lat="45.83496655894686" lon="9.353745768787473"><ele>221.0</ele><time>2026-05-02T09:19:17.953Z</time></trkpt><trkpt lat="45.83510642684427" lon="9.353886515937397"><ele>221.0</ele><time>2026-05-02T09:19:18.953Z</time></trkpt><trkpt lat="45.83524658453159" lon="9.354025498070744"><ele>220.66666666666669</ele><time>2026-05-02T09:19:19.953Z</time></trkpt><trkpt lat="45.835387308928524" lon="9.354166409893026"><ele>220.33333333333331</ele><time>2026-05-02T09:19:20.953Z</time></trkpt><trkpt lat="45.83552635554195" lon="9.354308523840446"><ele>220.0</ele><time>2026-05-02T09:19:21.953Z</time></trkpt><trkpt lat="45.835664395915" lon="9.354450335631407"><ele>220.0</ele><time>2026-05-02T09:19:22.953Z</time></trkpt><trkpt lat="45.835801094039326" lon="9.354588892189604"><ele>220.0</ele><time>2026-05-02T09:19:23.953Z</time></trkpt><trkpt lat="45.83593991641274" lon="9.354733389077667"><ele>220.0</ele><time>2026-05-02T09:19:24.953Z</time></trkpt><trkpt lat="45.836078182977765" lon="9.35487560320062"><ele>220.33333333333331</ele><time>2026-05-02T09:19:25.953Z</time></trkpt><trkpt lat="45.836214622236554" lon="9.355021788241686"><ele>220.66666666666669</ele><time>2026-05-02T09:19:26.953Z</time></trkpt><trkpt lat="45.836353511431625" lon="9.355167695508644"><ele>221.0</ele><time>2026-05-02T09:19:27.953Z</time></trkpt><trkpt lat="45.83648904011518" lon="9.355307069547772"><ele>221.0</ele><time>2026-05-02T09:19:28.953Z</time></trkpt><trkpt lat="45.83662579284575" lon="9.355447602685373"><ele>221.0</ele><time>2026-05-02T09:19:29.953Z</time></trkpt><trkpt lat="45.83676142705053" lon="9.355588694736879"><ele>221.0</ele><time>2026-05-02T09:19:30.953Z</time></trkpt><trkpt lat="45.8368904988967" lon="9.355730100004095"><ele>222.33333333333334</ele><time>2026-05-02T09:19:31.953Z</time></trkpt><trkpt lat="45.83702732006265" lon="9.355866832777881"><ele>223.66666666666669</ele><time>2026-05-02T09:19:32.953Z</time></trkpt><trkpt lat="45.837165622977224" lon="9.356008534974764"><ele>225.0</ele><time>2026-05-02T09:19:33.953Z</time></trkpt><trkpt lat="45.83730383708527" lon="9.356149205852963"><ele>225.0</ele><time>2026-05-02T09:19:34.953Z</time></trkpt><trkpt lat="45.83744452018361" lon="9.356290268894611"><ele>225.0</ele><time>2026-05-02T09:19:35.953Z</time></trkpt><trkpt lat="45.837582904931196" lon="9.356433231542326"><ele>225.0</ele><time>2026-05-02T09:19:36.953Z</time></trkpt><trkpt lat="45.83772246779599" lon="9.356580711674347"><ele>224.33333333333331</ele><time>2026-05-02T09:19:37.953Z</time></trkpt><trkpt lat="45.83786374940762" lon="9.356725246443226"><ele>223.66666666666666</ele><time>2026-05-02T09:19:38.953Z</time></trkpt><trkpt lat="45.83800174455397" lon="9.356870687742143"><ele>223.0</ele><time>2026-05-02T09:19:39.953Z</time></trkpt><trkpt lat="45.838144613872565" lon="9.357017771421345"><ele>223.0</ele><time>2026-05-02T09:19:40.953Z</time></trkpt><trkpt lat="45.83828540253108" lon="9.357160894000868"><ele>223.0</ele><time>2026-05-02T09:19:41.953Z</time></trkpt><trkpt lat="45.83842507230646" lon="9.357305931976127"><ele>223.0</ele><time>2026-05-02T09:19:42.953Z</time></trkpt><trkpt lat="45.83856608245426" lon="9.357443752026763"><ele>223.0</ele><time>2026-05-02T09:19:43.953Z</time></trkpt><trkpt lat="45.838702137796" lon="9.357571111686454"><ele>223.0</ele><time>2026-05-02T09:19:44.953Z</time></trkpt><trkpt lat="45.838833977390614" lon="9.35768899503196"><ele>223.0</ele><time>2026-05-02T09:19:45.953Z</time></trkpt><trkpt lat="45.838968230222925" lon="9.357801688475211"><ele>223.0</ele><time>2026-05-02T09:19:46.953Z</time></trkpt><trkpt lat="45.839108014054354" lon="9.357907921432036"><ele>223.0</ele><time>2026-05-02T09:19:47.953Z</time></trkpt><trkpt lat="45.83924964117762" lon="9.358013526499688"><ele>223.0</ele><time>2026-05-02T09:19:48.953Z</time></trkpt><trkpt lat="45.83939771990706" lon="9.358120089140018"><ele>223.0</ele><time>2026-05-02T09:19:49.953Z</time></trkpt><trkpt lat="45.839546548896145" lon="9.358231081806682"><ele>223.0</ele><time>2026-05-02T09:19:50.953Z</time></trkpt><trkpt lat="45.83969716353999" lon="9.35833770464054"><ele>223.0</ele><time>2026-05-02T09:19:51.953Z</time></trkpt><trkpt lat="45.83984519175825" lon="9.358451273865592"><ele>223.0</ele><time>2026-05-02T09:19:52.953Z</time></trkpt><trkpt lat="45.83999244276082" lon="9.358566358543525"><ele>223.0</ele><time>2026-05-02T09:19:53.953Z</time></trkpt><trkpt lat="45.840133592817665" lon="9.358700629734443"><ele>223.0</ele><time>2026-05-02T09:19:54.953Z</time></trkpt><trkpt lat="45.84026946267199" lon="9.358850037954785"><ele>223.0</ele><time>2026-05-02T09:19:55.953Z</time></trkpt><trkpt lat="45.84040080903294" lon="9.359007992694034"><ele>223.0</ele><time>2026-05-02T09:19:56.953Z</time></trkpt><trkpt lat="45.840522326802834" lon="9.359176294091656"><ele>223.0</ele><time>2026-05-02T09:19:57.953Z</time></trkpt><trkpt lat="45.840635699426095" lon="9.359353286384993"><ele>223.0</ele><time>2026-05-02T09:19:58.953Z</time></trkpt><trkpt lat="45.84074900622295" lon="9.359537673245812"><ele>223.0</ele><time>2026-05-02T09:19:59.953Z</time></trkpt><trkpt lat="45.840860080021436" lon="9.35972224667412"><ele>223.0</ele><time>2026-05-02T09:20:00.953Z</time></trkpt><trkpt lat="45.84097008016971" lon="9.359912228602898"><ele>222.66666666666666</ele><time>2026-05-02T09:20:01.953Z</time></trkpt><trkpt lat="45.84108189332982" lon="9.360104666728823"><ele>222.33333333333331</ele><time>2026-05-02T09:20:02.953Z</time></trkpt><trkpt lat="45.8411932073668" lon="9.360300763323664"><ele>222.0</ele><time>2026-05-02T09:20:03.953Z</time></trkpt><trkpt lat="45.84130706389942" lon="9.36049554416655"><ele>222.33333333333331</ele><time>2026-05-02T09:20:04.954Z</time></trkpt><trkpt lat="45.84142411626997" lon="9.360691999679153"><ele>222.66666666666666</ele><time>2026-05-02T09:20:05.954Z</time></trkpt><trkpt lat="45.84154759091035" lon="9.360879386477023"><ele>223.0</ele><time>2026-05-02T09:20:06.954Z</time></trkpt><trkpt lat="45.8416770244416" lon="9.361064239063149"><ele>222.33333333333331</ele><time>2026-05-02T09:20:07.954Z</time></trkpt><trkpt lat="45.841823176125814" lon="9.36123493103879"><ele>221.66666666666669</ele><time>2026-05-02T09:20:08.954Z</time></trkpt><trkpt lat="45.84195802143125" lon="9.361401599857441"><ele>221.0</ele><time>2026-05-02T09:20:09.954Z</time></trkpt><trkpt lat="45.84209106327713" lon="9.361562522287088"><ele>221.0</ele><time>2026-05-02T09:20:10.954Z</time></trkpt><trkpt lat="45.84222357957452" lon="9.361719857832718"><ele>221.0</ele><time>2026-05-02T09:20:11.954Z</time></trkpt><trkpt lat="45.842350666725785" lon="9.361877307301235"><ele>221.0</ele><time>2026-05-02T09:20:12.954Z</time></trkpt><trkpt lat="45.842476150139454" lon="9.362032610472978"><ele>221.0</ele><time>2026-05-02T09:20:13.954Z</time></trkpt><trkpt lat="45.84260104726963" lon="9.36219366793429"><ele>221.0</ele><time>2026-05-02T09:20:14.954Z</time></trkpt><trkpt lat="45.84272256491521" lon="9.362358937291376"><ele>221.0</ele><time>2026-05-02T09:20:15.954Z</time></trkpt><trkpt lat="45.842847137411006" lon="9.36252833266023"><ele>220.66666666666669</ele><time>2026-05-02T09:20:16.952Z</time></trkpt><trkpt lat="45.84297043568646" lon="9.362701654147799"><ele>220.33333333333331</ele><time>2026-05-02T09:20:17.952Z</time></trkpt><trkpt lat="45.84308296571823" lon="9.362888547230776"><ele>220.0</ele><time>2026-05-02T09:20:18.952Z</time></trkpt><trkpt lat="45.84319218604306" lon="9.36308103731568"><ele>220.0</ele><time>2026-05-02T09:20:19.952Z</time></trkpt><trkpt lat="45.84329925898953" lon="9.363286349437079"><ele>220.0</ele><time>2026-05-02T09:20:20.952Z</time></trkpt><trkpt lat="45.84339884934465" lon="9.363502603861798"><ele>220.0</ele><time>2026-05-02T09:20:21.952Z</time></trkpt><trkpt lat="45.84348384280104" lon="9.363723434473375"><ele>219.66666666666666</ele><time>2026-05-02T09:20:22.952Z</time></trkpt><trkpt lat="45.843571511224" lon="9.36394787261763"><ele>219.33333333333331</ele><time>2026-05-02T09:20:23.952Z</time></trkpt><trkpt lat="45.84365076670809" lon="9.364174495537556"><ele>219.0</ele><time>2026-05-02T09:20:24.952Z</time></trkpt><trkpt lat="45.84372701415727" lon="9.364398445461394"><ele>219.0</ele><time>2026-05-02T09:20:25.952Z</time></trkpt><trkpt lat="45.84380525850974" lon="9.36462039427172"><ele>219.0</ele><time>2026-05-02T09:20:26.952Z</time></trkpt><trkpt lat="45.84388438120321" lon="9.364841001014147"><ele>219.0</ele><time>2026-05-02T09:20:27.952Z</time></trkpt><trkpt lat="45.84397226124791" lon="9.365057592936362"><ele>218.66666666666669</ele><time>2026-05-02T09:20:28.952Z</time></trkpt><trkpt lat="45.844063492258286" lon="9.36527214644518"><ele>218.33333333333334</ele><time>2026-05-02T09:20:29.952Z</time></trkpt><trkpt lat="45.84416767957546" lon="9.365476714930036"><ele>218.0</ele><time>2026-05-02T09:20:30.952Z</time></trkpt><trkpt lat="45.844280213247615" lon="9.365657248711127"><ele>219.66666666666669</ele><time>2026-05-02T09:20:31.952Z</time></trkpt><trkpt lat="45.84440611418193" lon="9.365817080800328"><ele>221.33333333333331</ele><time>2026-05-02T09:20:32.952Z</time></trkpt><trkpt lat="45.84452807586255" lon="9.365965210567202"><ele>223.0</ele><time>2026-05-02T09:20:33.952Z</time></trkpt><trkpt lat="45.8446591676474" lon="9.366088665292535"><ele>223.0</ele><time>2026-05-02T09:20:34.952Z</time></trkpt><trkpt lat="45.84477263550698" lon="9.366186774435343"><ele>223.0</ele><time>2026-05-02T09:20:35.952Z</time></trkpt><trkpt lat="45.844882058146666" lon="9.36628470561644"><ele>223.0</ele><time>2026-05-02T09:20:36.952Z</time></trkpt><trkpt lat="45.844977616758996" lon="9.366356564318767"><ele>223.0</ele><time>2026-05-02T09:20:37.952Z</time></trkpt><trkpt lat="45.84505280773868" lon="9.366414812486514"><ele>223.16666666666666</ele><time>2026-05-02T09:20:38.952Z</time></trkpt><trkpt lat="45.84511700726592" lon="9.36646885101939"><ele>223.33333333333331</ele><time>2026-05-02T09:20:39.952Z</time></trkpt><trkpt lat="45.8451819031691" lon="9.366524457321566"><ele>223.5</ele><time>2026-05-02T09:20:40.952Z</time></trkpt><trkpt lat="45.84526931056403" lon="9.366599969808368"><ele>223.66666666666669</ele><time>2026-05-02T09:20:42.952Z</time></trkpt><trkpt lat="45.845329849845406" lon="9.366648405438498"><ele>223.83333333333334</ele><time>2026-05-02T09:20:45.952Z</time></trkpt><trkpt lat="45.8453675567608" lon="9.366721641969052"><ele>224.0</ele><time>2026-05-02T09:21:07.952Z</time></trkpt><trkpt lat="45.84543389758556" lon="9.366772247745152"><ele>224.2</ele><time>2026-05-02T09:21:10.953Z</time></trkpt><trkpt lat="45.84550507756906" lon="9.366835687724729"><ele>224.39999999999998</ele><time>2026-05-02T09:21:12.953Z</time></trkpt><trkpt lat="45.84559983289832" lon="9.366925533201979"><ele>224.6</ele><time>2026-05-02T09:21:14.953Z</time></trkpt><trkpt lat="45.84565134293816" lon="9.36698284081023"><ele>224.8</ele><time>2026-05-02T09:21:15.953Z</time></trkpt><trkpt lat="45.84574964061566" lon="9.367079542833944"><ele>225.0</ele><time>2026-05-02T09:21:17.953Z</time></trkpt><trkpt lat="45.84582730342171" lon="9.367151636382093"><ele>225.0</ele><time>2026-05-02T09:21:19.953Z</time></trkpt><trkpt lat="45.845898180530895" lon="9.367223790571911"><ele>225.0</ele><time>2026-05-02T09:21:22.953Z</time></trkpt><trkpt lat="45.845959251548514" lon="9.367279609315064"><ele>225.0</ele><time>2026-05-02T09:21:25.953Z</time></trkpt><trkpt lat="45.84602063020778" lon="9.367333946928364"><ele>225.0</ele><time>2026-05-02T09:21:28.953Z</time></trkpt><trkpt lat="45.84608884509592" lon="9.367387763254902"><ele>225.0</ele><time>2026-05-02T09:21:43.953Z</time></trkpt><trkpt lat="45.846142405179386" lon="9.36744587151338"><ele>225.0</ele><time>2026-05-02T09:21:47.953Z</time></trkpt><trkpt lat="45.8461897242462" lon="9.36753761250068"><ele>225.16666666666666</ele><time>2026-05-02T09:22:53.952Z</time></trkpt><trkpt lat="45.84626725198838" lon="9.367607326165773"><ele>225.33333333333331</ele><time>2026-05-02T09:22:55.952Z</time></trkpt><trkpt lat="45.84633355049679" lon="9.36767250217903"><ele>225.5</ele><time>2026-05-02T09:22:57.952Z</time></trkpt><trkpt lat="45.84639610789422" lon="9.367722752511842"><ele>225.66666666666666</ele><time>2026-05-02T09:22:59.952Z</time></trkpt><trkpt lat="45.846469673612134" lon="9.367789094799495"><ele>225.83333333333331</ele><time>2026-05-02T09:23:02.952Z</time></trkpt><trkpt lat="45.846524106104354" lon="9.367838988176468"><ele>226.0</ele><time>2026-05-02T09:23:05.952Z</time></trkpt><trkpt lat="45.84658238315865" lon="9.367875433406603"><ele>225.99999999999997</ele><time>2026-05-02T09:23:11.952Z</time></trkpt><trkpt lat="45.84664802094582" lon="9.367945558285024"><ele>226.0</ele><time>2026-05-02T09:23:13.952Z</time></trkpt><trkpt lat="45.84670261231089" lon="9.368012930778642"><ele>226.0</ele><time>2026-05-02T09:23:15.952Z</time></trkpt><trkpt lat="45.84674850642408" lon="9.368110145430517"><ele>226.0</ele><time>2026-05-02T09:23:18.952Z</time></trkpt><trkpt lat="45.846797745415806" lon="9.368198038662554"><ele>225.99999999999997</ele><time>2026-05-02T09:23:21.952Z</time></trkpt><trkpt lat="45.84685038270753" lon="9.36827686316921"><ele>226.0</ele><time>2026-05-02T09:23:23.952Z</time></trkpt><trkpt lat="45.846913264124" lon="9.36837349790013"><ele>226.49999999999997</ele><time>2026-05-02T09:23:25.952Z</time></trkpt><trkpt lat="45.84697562884091" lon="9.36847532182579"><ele>227.0</ele><time>2026-05-02T09:23:27.952Z</time></trkpt><trkpt lat="45.8470339633014" lon="9.36857910086406"><ele>227.5</ele><time>2026-05-02T09:23:29.952Z</time></trkpt><trkpt lat="45.847074930659055" lon="9.36865200772172"><ele>228.0</ele><time>2026-05-02T09:23:31.952Z</time></trkpt><trkpt lat="45.8471263828284" lon="9.368751611530291"><ele>228.49999999999997</ele><time>2026-05-02T09:23:34.952Z</time></trkpt><trkpt lat="45.847162063464935" lon="9.368827049604"><ele>229.0</ele><time>2026-05-02T09:23:36.952Z</time></trkpt><trkpt lat="45.847193503029565" lon="9.368908879757033"><ele>229.16666666666666</ele><time>2026-05-02T09:23:38.952Z</time></trkpt><trkpt lat="45.84723790903792" lon="9.369021755401743"><ele>229.33333333333331</ele><time>2026-05-02T09:23:41.952Z</time></trkpt><trkpt lat="45.84727196101923" lon="9.369115792636489"><ele>229.5</ele><time>2026-05-02T09:23:43.952Z</time></trkpt><trkpt lat="45.84731037830133" lon="9.369222615832017"><ele>229.66666666666669</ele><time>2026-05-02T09:23:45.952Z</time></trkpt><trkpt lat="45.847355259130644" lon="9.369336131856718"><ele>229.83333333333334</ele><time>2026-05-02T09:23:47.952Z</time></trkpt><trkpt lat="45.84740348637628" lon="9.369458396816597"><ele>230.0</ele><time>2026-05-02T09:23:49.952Z</time></trkpt><trkpt lat="45.84745262548215" lon="9.369589058537265"><ele>229.85714285714283</ele><time>2026-05-02T09:23:51.952Z</time></trkpt><trkpt lat="45.84749719784712" lon="9.369703694868587"><ele>229.71428571428572</ele><time>2026-05-02T09:23:53.952Z</time></trkpt><trkpt lat="45.847536653417706" lon="9.369800155230452"><ele>229.57142857142856</ele><time>2026-05-02T09:23:55.952Z</time></trkpt><trkpt lat="45.84757365020813" lon="9.369882496705973"><ele>229.42857142857142</ele><time>2026-05-02T09:23:57.952Z</time></trkpt><trkpt lat="45.84761599316347" lon="9.369957698545715"><ele>229.28571428571428</ele><time>2026-05-02T09:24:00.952Z</time></trkpt><trkpt lat="45.84766137471479" lon="9.37002292952485"><ele>229.14285714285714</ele><time>2026-05-02T09:24:03.953Z</time></trkpt><trkpt lat="45.84771030928389" lon="9.37008976989495"><ele>229.0</ele><time>2026-05-02T09:24:18.953Z</time></trkpt><trkpt lat="45.847735666319714" lon="9.370191315925021"><ele>229.0</ele><time>2026-05-02T09:24:20.953Z</time></trkpt><trkpt lat="45.84776907729336" lon="9.370290483914637"><ele>228.99999999999997</ele><time>2026-05-02T09:24:22.953Z</time></trkpt><trkpt lat="45.84781391552053" lon="9.370427349417511"><ele>228.99999999999997</ele><time>2026-05-02T09:24:24.953Z</time></trkpt><trkpt lat="45.84785110507528" lon="9.370611112754906"><ele>229.0</ele><time>2026-05-02T09:24:26.953Z</time></trkpt><trkpt lat="45.847870447151024" lon="9.370709039695495"><ele>229.0</ele><time>2026-05-02T09:24:27.953Z</time></trkpt><trkpt lat="45.847892531643836" lon="9.370812622465426"><ele>229.0</ele><time>2026-05-02T09:24:28.952Z</time></trkpt><trkpt lat="45.847917567567805" lon="9.370927131857872"><ele>228.99999999999997</ele><time>2026-05-02T09:24:29.951Z</time></trkpt><trkpt lat="45.84794657742468" lon="9.371047743192289"><ele>228.99999999999997</ele><time>2026-05-02T09:24:30.951Z</time></trkpt><trkpt lat="45.847977932581266" lon="9.371169855305482"><ele>229.0</ele><time>2026-05-02T09:24:31.951Z</time></trkpt><trkpt lat="45.84801109051384" lon="9.37130101546721"><ele>229.0</ele><time>2026-05-02T09:24:32.951Z</time></trkpt><trkpt lat="45.848047508946486" lon="9.371436395390457"><ele>229.5</ele><time>2026-05-02T09:24:33.951Z</time></trkpt><trkpt lat="45.84808729202684" lon="9.37157928205952"><ele>230.0</ele><time>2026-05-02T09:24:34.951Z</time></trkpt><trkpt lat="45.84813139163148" lon="9.37172426463143"><ele>230.5</ele><time>2026-05-02T09:24:35.951Z</time></trkpt><trkpt lat="45.848179704800884" lon="9.371883663640647"><ele>231.0</ele><time>2026-05-02T09:24:36.951Z</time></trkpt><trkpt lat="45.848234512544536" lon="9.372054379206697"><ele>231.0</ele><time>2026-05-02T09:24:37.951Z</time></trkpt><trkpt lat="45.84829178217463" lon="9.372243181184938"><ele>231.0</ele><time>2026-05-02T09:24:38.951Z</time></trkpt><trkpt lat="45.8483520693806" lon="9.372446791210471"><ele>231.0</ele><time>2026-05-02T09:24:39.951Z</time></trkpt><trkpt lat="45.848407630229204" lon="9.372651561506862"><ele>231.33333333333331</ele><time>2026-05-02T09:24:40.951Z</time></trkpt><trkpt lat="45.84846235194274" lon="9.372863492758762"><ele>231.66666666666666</ele><time>2026-05-02T09:24:41.951Z</time></trkpt><trkpt lat="45.84851422214492" lon="9.373072831895408"><ele>232.0</ele><time>2026-05-02T09:24:42.951Z</time></trkpt><trkpt lat="45.848566807133594" lon="9.373273109314617"><ele>232.5</ele><time>2026-05-02T09:24:43.951Z</time></trkpt><trkpt lat="45.84861585292997" lon="9.373464365342201"><ele>233.0</ele><time>2026-05-02T09:24:44.951Z</time></trkpt><trkpt lat="45.84866364856537" lon="9.3736506816713"><ele>233.5</ele><time>2026-05-02T09:24:45.951Z</time></trkpt><trkpt lat="45.84871681125162" lon="9.373837882917744"><ele>234.0</ele><time>2026-05-02T09:24:46.951Z</time></trkpt><trkpt lat="45.848768574874875" lon="9.374026363935803"><ele>234.25</ele><time>2026-05-02T09:24:47.951Z</time></trkpt><trkpt lat="45.848823125051055" lon="9.374214085957316"><ele>234.5</ele><time>2026-05-02T09:24:48.951Z</time></trkpt><trkpt lat="45.84887933293396" lon="9.374408893881332"><ele>234.75</ele><time>2026-05-02T09:24:49.951Z</time></trkpt><trkpt lat="45.84893188343251" lon="9.374600219558577"><ele>235.0</ele><time>2026-05-02T09:24:50.951Z</time></trkpt><trkpt lat="45.84898132487427" lon="9.374801107202796"><ele>235.0</ele><time>2026-05-02T09:24:51.951Z</time></trkpt><trkpt lat="45.84903271572961" lon="9.374990840402573"><ele>235.0</ele><time>2026-05-02T09:24:52.951Z</time></trkpt><trkpt lat="45.84908305540163" lon="9.375179906758047"><ele>235.0</ele><time>2026-05-02T09:24:53.951Z</time></trkpt><trkpt lat="45.849130853998105" lon="9.375362031159378"><ele>235.0</ele><time>2026-05-02T09:24:54.951Z</time></trkpt><trkpt lat="45.84917972425798" lon="9.375550144750326"><ele>234.5</ele><time>2026-05-02T09:24:55.951Z</time></trkpt><trkpt lat="45.84922505006352" lon="9.37574223846278"><ele>234.0</ele><time>2026-05-02T09:24:56.951Z</time></trkpt><trkpt lat="45.84927011046833" lon="9.375937310160054"><ele>233.5</ele><time>2026-05-02T09:24:57.951Z</time></trkpt><trkpt lat="45.84930774812697" lon="9.376137199361514"><ele>233.0</ele><time>2026-05-02T09:24:58.951Z</time></trkpt><trkpt lat="45.84934024245996" lon="9.376345664002685"><ele>233.0</ele><time>2026-05-02T09:24:59.951Z</time></trkpt><trkpt lat="45.84937186798602" lon="9.376559297197327"><ele>233.0</ele><time>2026-05-02T09:25:00.951Z</time></trkpt><trkpt lat="45.849398478012624" lon="9.376773727331306"><ele>233.0</ele><time>2026-05-02T09:25:01.951Z</time></trkpt><trkpt lat="45.849422372510816" lon="9.376989013261444"><ele>233.5</ele><time>2026-05-02T09:25:02.951Z</time></trkpt><trkpt lat="45.849447592162804" lon="9.377205937624135"><ele>234.0</ele><time>2026-05-02T09:25:03.951Z</time></trkpt><trkpt lat="45.849472140239186" lon="9.377415712937855"><ele>234.5</ele><time>2026-05-02T09:25:04.951Z</time></trkpt><trkpt lat="45.84949035926836" lon="9.377621447012965"><ele>235.0</ele><time>2026-05-02T09:25:05.951Z</time></trkpt><trkpt lat="45.849508971506346" lon="9.37781154289577"><ele>235.0</ele><time>2026-05-02T09:25:06.951Z</time></trkpt><trkpt lat="45.84952370282554" lon="9.378006431008977"><ele>235.0</ele><time>2026-05-02T09:25:07.951Z</time></trkpt><trkpt lat="45.8495418413432" lon="9.378201200370752"><ele>235.0</ele><time>2026-05-02T09:25:08.951Z</time></trkpt><trkpt lat="45.84956084366148" lon="9.378384686922615"><ele>235.0</ele><time>2026-05-02T09:25:09.951Z</time></trkpt><trkpt lat="45.8495727671828" lon="9.378576362202963"><ele>234.25</ele><time>2026-05-02T09:25:10.951Z</time></trkpt><trkpt lat="45.84957442222334" lon="9.37877312249775"><ele>233.5</ele><time>2026-05-02T09:25:11.951Z</time></trkpt><trkpt lat="45.849557437688524" lon="9.378963777975367"><ele>232.75</ele><time>2026-05-02T09:25:12.951Z</time></trkpt><trkpt lat="45.84952896838043" lon="9.379151931196533"><ele>232.0</ele><time>2026-05-02T09:25:13.951Z</time></trkpt><trkpt lat="45.84949265751077" lon="9.37935152037643"><ele>231.0</ele><time>2026-05-02T09:25:14.951Z</time></trkpt><trkpt lat="45.849442188218276" lon="9.379547645421836"><ele>230.0</ele><time>2026-05-02T09:25:15.951Z</time></trkpt><trkpt lat="45.84938101812649" lon="9.379746635320766"><ele>229.0</ele><time>2026-05-02T09:25:16.951Z</time></trkpt><trkpt lat="45.849315850279126" lon="9.379946340302268"><ele>229.5</ele><time>2026-05-02T09:25:17.951Z</time></trkpt><trkpt lat="45.849250773676395" lon="9.380141109671444"><ele>230.0</ele><time>2026-05-02T09:25:18.951Z</time></trkpt><trkpt lat="45.849191098551" lon="9.380336933186745"><ele>230.5</ele><time>2026-05-02T09:25:19.951Z</time></trkpt><trkpt lat="45.84913251477546" lon="9.380532615244912"><ele>231.0</ele><time>2026-05-02T09:25:20.951Z</time></trkpt><trkpt lat="45.849082458992356" lon="9.38073150695929"><ele>231.0</ele><time>2026-05-02T09:25:21.951Z</time></trkpt><trkpt lat="45.84903722222018" lon="9.380935791340782"><ele>231.0</ele><time>2026-05-02T09:25:22.951Z</time></trkpt><trkpt lat="45.84899030324851" lon="9.381141180080892"><ele>231.0</ele><time>2026-05-02T09:25:23.951Z</time></trkpt><trkpt lat="45.848937543071024" lon="9.381343555736434"><ele>229.0</ele><time>2026-05-02T09:25:24.951Z</time></trkpt><trkpt lat="45.848884844737846" lon="9.381540804300817"><ele>227.0</ele><time>2026-05-02T09:25:25.951Z</time></trkpt><trkpt lat="45.848833096831314" lon="9.38173542133046"><ele>225.0</ele><time>2026-05-02T09:25:26.951Z</time></trkpt><trkpt lat="45.848783260635834" lon="9.381933013905407"><ele>223.0</ele><time>2026-05-02T09:25:27.951Z</time></trkpt><trkpt lat="45.848733874855476" lon="9.382138417658682"><ele>220.33333333333331</ele><time>2026-05-02T09:25:28.951Z</time></trkpt><trkpt lat="45.84868653252298" lon="9.382344969029834"><ele>217.66666666666669</ele><time>2026-05-02T09:25:29.951Z</time></trkpt><trkpt lat="45.8486458907117" lon="9.382555918802575"><ele>215.0</ele><time>2026-05-02T09:25:30.951Z</time></trkpt><trkpt lat="45.848609742514846" lon="9.382768319581755"><ele>215.0</ele><time>2026-05-02T09:25:31.951Z</time></trkpt><trkpt lat="45.84858133638509" lon="9.382978501883922"><ele>215.0</ele><time>2026-05-02T09:25:32.951Z</time></trkpt><trkpt lat="45.84855524688599" lon="9.383196731253873"><ele>215.0</ele><time>2026-05-02T09:25:33.951Z</time></trkpt><trkpt lat="45.848529043957065" lon="9.383421996970007"><ele>215.0</ele><time>2026-05-02T09:25:34.951Z</time></trkpt><trkpt lat="45.848499340304755" lon="9.383653200090912"><ele>215.0</ele><time>2026-05-02T09:25:35.951Z</time></trkpt><trkpt lat="45.84845432367645" lon="9.384091993373357"><ele>215.0</ele><time>2026-05-02T09:25:37.951Z</time></trkpt><trkpt lat="45.848432561643094" lon="9.384303329050967"><ele>215.0</ele><time>2026-05-02T09:25:38.951Z</time></trkpt><trkpt lat="45.84841483120642" lon="9.384509265511245"><ele>215.0</ele><time>2026-05-02T09:25:39.951Z</time></trkpt><trkpt lat="45.84838896468743" lon="9.384703490693306"><ele>215.0</ele><time>2026-05-02T09:25:40.951Z</time></trkpt><trkpt lat="45.848361860698795" lon="9.384896858770032"><ele>213.25</ele><time>2026-05-02T09:25:41.951Z</time></trkpt><trkpt lat="45.84833459146841" lon="9.385093407608506"><ele>211.5</ele><time>2026-05-02T09:25:42.951Z</time></trkpt><trkpt lat="45.84830792443979" lon="9.385285654569671"><ele>209.75</ele><time>2026-05-02T09:25:43.951Z</time></trkpt><trkpt lat="45.8482796706989" lon="9.385470966118485"><ele>208.0</ele><time>2026-05-02T09:25:44.951Z</time></trkpt><trkpt lat="45.84824956745089" lon="9.38564578939847"><ele>207.4</ele><time>2026-05-02T09:25:45.951Z</time></trkpt><trkpt lat="45.84821825490382" lon="9.385810268770994"><ele>206.8</ele><time>2026-05-02T09:25:46.951Z</time></trkpt><trkpt lat="45.84819295462144" lon="9.385958205491395"><ele>206.2</ele><time>2026-05-02T09:25:47.951Z</time></trkpt><trkpt lat="45.84816821566203" lon="9.386090046475225"><ele>205.6</ele><time>2026-05-02T09:25:48.951Z</time></trkpt><trkpt lat="45.84814067993938" lon="9.386206754346622"><ele>205.0</ele><time>2026-05-02T09:25:49.951Z</time></trkpt><trkpt lat="45.84810915569388" lon="9.38631676518472"><ele>204.66666666666666</ele><time>2026-05-02T09:25:50.951Z</time></trkpt><trkpt lat="45.848079141546535" lon="9.386410045884503"><ele>204.33333333333331</ele><time>2026-05-02T09:25:51.951Z</time></trkpt><trkpt lat="45.848054438826296" lon="9.386493251627803"><ele>204.0</ele><time>2026-05-02T09:25:52.951Z</time></trkpt><trkpt lat="45.848012506070475" lon="9.386629428957178"><ele>203.66666666666669</ele><time>2026-05-02T09:25:54.951Z</time></trkpt><trkpt lat="45.847992306566766" lon="9.386726263561322"><ele>203.33333333333334</ele><time>2026-05-02T09:25:57.952Z</time></trkpt><trkpt lat="45.847932859995055" lon="9.386832347703962"><ele>203.0</ele><time>2026-05-02T09:26:00.952Z</time></trkpt><trkpt lat="45.84789195842446" lon="9.38694942299878"><ele>203.0</ele><time>2026-05-02T09:26:02.952Z</time></trkpt><trkpt lat="45.84784704505109" lon="9.387074110655165"><ele>203.0</ele><time>2026-05-02T09:26:04.952Z</time></trkpt><trkpt lat="45.84782294982309" lon="9.38719037044307"><ele>203.0</ele><time>2026-05-02T09:26:06.952Z</time></trkpt><trkpt lat="45.84784082920483" lon="9.387325187178629"><ele>203.0</ele><time>2026-05-02T09:26:08.952Z</time></trkpt><trkpt lat="45.847906001130134" lon="9.387456651561338"><ele>203.0</ele><time>2026-05-02T09:26:10.952Z</time></trkpt><trkpt lat="45.84802386922761" lon="9.387458809645562"><ele>202.50000000000003</ele><time>2026-05-02T09:26:12.952Z</time></trkpt><trkpt lat="45.84812252835875" lon="9.387415341398455"><ele>202.0</ele><time>2026-05-02T09:26:14.952Z</time></trkpt><trkpt lat="45.84819177495876" lon="9.387383080795884"><ele>201.5</ele><time>2026-05-02T09:26:16.952Z</time></trkpt><trkpt lat="45.84825533838523" lon="9.387371377165067"><ele>201.0</ele><time>2026-05-02T09:26:18.952Z</time></trkpt><trkpt lat="45.848319621980295" lon="9.387394706453716"><ele>200.50000000000003</ele><time>2026-05-02T09:26:21.952Z</time></trkpt><trkpt lat="45.848392069436734" lon="9.387429622269885"><ele>200.0</ele><time>2026-05-02T09:26:28.952Z</time></trkpt><trkpt lat="45.848474298910894" lon="9.387453466377998"><ele>199.66666666666669</ele><time>2026-05-02T09:26:31.952Z</time></trkpt><trkpt lat="45.8485575408165" lon="9.387475231524776"><ele>199.33333333333334</ele><time>2026-05-02T09:26:34.95Z</time></trkpt><trkpt lat="45.84862548066275" lon="9.38748802056892"><ele>199.0</ele><time>2026-05-02T09:26:36.949Z</time></trkpt><trkpt lat="45.84871590388919" lon="9.387514560167487"><ele>198.66666666666669</ele><time>2026-05-02T09:26:38.95Z</time></trkpt><trkpt lat="45.84880657602089" lon="9.38755560628895"><ele>198.33333333333334</ele><time>2026-05-02T09:26:40.95Z</time></trkpt><trkpt lat="45.84889026855796" lon="9.387580880075603"><ele>198.0</ele><time>2026-05-02T09:26:42.95Z</time></trkpt><trkpt lat="45.8489711268144" lon="9.387612394937673"><ele>198.0</ele><time>2026-05-02T09:26:44.95Z</time></trkpt><trkpt lat="45.849055938153704" lon="9.387647326923465"><ele>198.0</ele><time>2026-05-02T09:26:46.95Z</time></trkpt><trkpt lat="45.849125329685066" lon="9.387677266377628"><ele>198.0</ele><time>2026-05-02T09:26:48.949Z</time></trkpt><trkpt lat="45.84920460144361" lon="9.387705420541376"><ele>198.0</ele><time>2026-05-02T09:26:50.949Z</time></trkpt><trkpt lat="45.84931788197525" lon="9.387746353595823"><ele>198.0</ele><time>2026-05-02T09:26:52.949Z</time></trkpt><trkpt lat="45.849383534345385" lon="9.38777504308935"><ele>198.0</ele><time>2026-05-02T09:26:53.949Z</time></trkpt><trkpt lat="45.84946916279902" lon="9.387816234297356"><ele>198.14285714285714</ele><time>2026-05-02T09:26:55.949Z</time></trkpt><trkpt lat="45.849530153564565" lon="9.387838871239847"><ele>198.28571428571428</ele><time>2026-05-02T09:26:58.949Z</time></trkpt><trkpt lat="45.84960615650843" lon="9.387885183113399"><ele>198.42857142857142</ele><time>2026-05-02T09:27:07.95Z</time></trkpt><trkpt lat="45.84967471240198" lon="9.387957681946363"><ele>198.57142857142856</ele><time>2026-05-02T09:27:09.95Z</time></trkpt><trkpt lat="45.84972363422314" lon="9.388016631929426"><ele>198.71428571428572</ele><time>2026-05-02T09:27:10.95Z</time></trkpt><trkpt lat="45.84978511401373" lon="9.388045633300077"><ele>198.85714285714283</ele><time>2026-05-02T09:27:11.95Z</time></trkpt><trkpt lat="45.84986020425881" lon="9.388049804260145"><ele>199.0</ele><time>2026-05-02T09:27:12.95Z</time></trkpt><trkpt lat="45.84993946789806" lon="9.3880422855053"><ele>199.83333333333331</ele><time>2026-05-02T09:27:13.95Z</time></trkpt><trkpt lat="45.85002009094566" lon="9.388041387356514"><ele>200.66666666666666</ele><time>2026-05-02T09:27:14.95Z</time></trkpt><trkpt lat="45.85010491713923" lon="9.388060707821628"><ele>201.5</ele><time>2026-05-02T09:27:15.95Z</time></trkpt><trkpt lat="45.85019499725065" lon="9.388090687316248"><ele>202.33333333333331</ele><time>2026-05-02T09:27:16.95Z</time></trkpt><trkpt lat="45.85027592465108" lon="9.388130569833363"><ele>203.16666666666666</ele><time>2026-05-02T09:27:17.95Z</time></trkpt><trkpt lat="45.85036308692172" lon="9.388171742050961"><ele>204.0</ele><time>2026-05-02T09:27:18.95Z</time></trkpt><trkpt lat="45.850567762521216" lon="9.38823796901358"><ele>204.39999999999998</ele><time>2026-05-02T09:27:20.95Z</time></trkpt><trkpt lat="45.85067023803669" lon="9.388272971651348"><ele>204.8</ele><time>2026-05-02T09:27:21.95Z</time></trkpt><trkpt lat="45.850763851682316" lon="9.388303051622122"><ele>205.2</ele><time>2026-05-02T09:27:22.95Z</time></trkpt><trkpt lat="45.85085094181452" lon="9.388340813006408"><ele>205.60000000000002</ele><time>2026-05-02T09:27:23.95Z</time></trkpt><trkpt lat="45.85094089195048" lon="9.388369986853125"><ele>206.0</ele><time>2026-05-02T09:27:24.95Z</time></trkpt><trkpt lat="45.851027321578115" lon="9.388399131107924"><ele>206.0</ele><time>2026-05-02T09:27:25.95Z</time></trkpt><trkpt lat="45.851115917084975" lon="9.388448821251254"><ele>206.0</ele><time>2026-05-02T09:27:26.95Z</time></trkpt><trkpt lat="45.851221102401226" lon="9.388465946191797"><ele>206.0</ele><time>2026-05-02T09:27:27.95Z</time></trkpt><trkpt lat="45.851324742946574" lon="9.38852836548132"><ele>206.0</ele><time>2026-05-02T09:27:28.95Z</time></trkpt><trkpt lat="45.851439494705176" lon="9.38857210713404"><ele>206.0</ele><time>2026-05-02T09:27:29.95Z</time></trkpt><trkpt lat="45.85155887507727" lon="9.388617604723025"><ele>206.0</ele><time>2026-05-02T09:27:30.95Z</time></trkpt><trkpt lat="45.851673810104145" lon="9.388688431662537"><ele>206.0</ele><time>2026-05-02T09:27:31.95Z</time></trkpt><trkpt lat="45.85177513052266" lon="9.388727732022627"><ele>206.0</ele><time>2026-05-02T09:27:32.95Z</time></trkpt><trkpt lat="45.85187004671612" lon="9.38875641418306"><ele>206.0</ele><time>2026-05-02T09:27:33.95Z</time></trkpt><trkpt lat="45.851969276961434" lon="9.388786715673213"><ele>206.0</ele><time>2026-05-02T09:27:34.95Z</time></trkpt><trkpt lat="45.852057613677076" lon="9.388809342553207"><ele>206.16666666666669</ele><time>2026-05-02T09:27:35.95Z</time></trkpt><trkpt lat="45.852132435602776" lon="9.388838881868404"><ele>206.33333333333334</ele><time>2026-05-02T09:27:36.95Z</time></trkpt><trkpt lat="45.852195880390006" lon="9.388855855302715"><ele>206.5</ele><time>2026-05-02T09:27:37.95Z</time></trkpt><trkpt lat="45.85227408889877" lon="9.388869885528845"><ele>206.66666666666669</ele><time>2026-05-02T09:27:39.95Z</time></trkpt><trkpt lat="45.852358462004474" lon="9.388898422236704"><ele>206.83333333333334</ele><time>2026-05-02T09:27:44.95Z</time></trkpt><trkpt lat="45.85240902626686" lon="9.388979906061948"><ele>207.0</ele><time>2026-05-02T09:27:47.95Z</time></trkpt><trkpt lat="45.85236322349513" lon="9.389139894879447"><ele>207.0</ele><time>2026-05-02T09:27:50.95Z</time></trkpt><trkpt lat="45.852325744454326" lon="9.389300246753896"><ele>207.0</ele><time>2026-05-02T09:27:52.95Z</time></trkpt><trkpt lat="45.852280276034456" lon="9.389494780814012"><ele>207.0</ele><time>2026-05-02T09:27:54.95Z</time></trkpt><trkpt lat="45.852255455632694" lon="9.389595979354548"><ele>207.0</ele><time>2026-05-02T09:27:55.95Z</time></trkpt><trkpt lat="45.85224028856919" lon="9.389698636102489"><ele>207.0</ele><time>2026-05-02T09:27:56.95Z</time></trkpt><trkpt lat="45.85222209843723" lon="9.389801232294245"><ele>207.0</ele><time>2026-05-02T09:27:57.95Z</time></trkpt><trkpt lat="45.852187468909285" lon="9.389891850580023"><ele>207.0</ele><time>2026-05-02T09:27:58.95Z</time></trkpt><trkpt lat="45.85216308598312" lon="9.38998642995371"><ele>207.0</ele><time>2026-05-02T09:27:59.95Z</time></trkpt><trkpt lat="45.852144043215006" lon="9.390082039039763"><ele>207.0</ele><time>2026-05-02T09:28:00.95Z</time></trkpt><trkpt lat="45.852125877276954" lon="9.390177000692598"><ele>207.0</ele><time>2026-05-02T09:28:01.95Z</time></trkpt><trkpt lat="45.852110747322804" lon="9.390270582088634"><ele>207.0</ele><time>2026-05-02T09:28:02.95Z</time></trkpt><trkpt lat="45.852075768546214" lon="9.390433934165197"><ele>207.8</ele><time>2026-05-02T09:28:04.95Z</time></trkpt><trkpt lat="45.85205229400533" lon="9.39058038692023"><ele>208.6</ele><time>2026-05-02T09:28:06.95Z</time></trkpt><trkpt lat="45.85200287488297" lon="9.390714340942786"><ele>209.4</ele><time>2026-05-02T09:28:08.95Z</time></trkpt><trkpt lat="45.85198165449446" lon="9.390822668235963"><ele>210.20000000000002</ele><time>2026-05-02T09:28:10.95Z</time></trkpt><trkpt lat="45.85196589424705" lon="9.39091173370698"><ele>211.0</ele><time>2026-05-02T09:28:12.95Z</time></trkpt><trkpt lat="45.85194759618326" lon="9.391062491512843"><ele>211.0</ele><time>2026-05-02T09:28:15.95Z</time></trkpt><trkpt lat="45.85192650044265" lon="9.391208235739937"><ele>211.0</ele><time>2026-05-02T09:28:17.95Z</time></trkpt><trkpt lat="45.85190302459015" lon="9.391334353000076"><ele>211.0</ele><time>2026-05-02T09:28:19.95Z</time></trkpt><trkpt lat="45.851861160124656" lon="9.391431713850091"><ele>211.0</ele><time>2026-05-02T09:28:21.95Z</time></trkpt><trkpt lat="45.851833137111505" lon="9.391547928678495"><ele>211.0</ele><time>2026-05-02T09:28:23.95Z</time></trkpt><trkpt lat="45.851779797977834" lon="9.391665141914327"><ele>211.14285714285714</ele><time>2026-05-02T09:28:52.947Z</time></trkpt><trkpt lat="45.85174316850196" lon="9.391743166294539"><ele>211.28571428571428</ele><time>2026-05-02T09:28:56.947Z</time></trkpt><trkpt lat="45.851676814326396" lon="9.391832464841288"><ele>211.42857142857144</ele><time>2026-05-02T09:29:01.947Z</time></trkpt><trkpt lat="45.85163966091472" lon="9.391913098702076"><ele>211.57142857142856</ele><time>2026-05-02T09:29:03.947Z</time></trkpt><trkpt lat="45.85163390131783" lon="9.392017053773392"><ele>211.7142857142857</ele><time>2026-05-02T09:29:05.947Z</time></trkpt><trkpt lat="45.851638338225975" lon="9.39211374436266"><ele>211.85714285714286</ele><time>2026-05-02T09:29:08.947Z</time></trkpt><trkpt lat="45.85164314547034" lon="9.39222000354532"><ele>212.0</ele><time>2026-05-02T09:29:11.947Z</time></trkpt><trkpt lat="45.85167781530277" lon="9.392336092380855"><ele>212.00000000000003</ele><time>2026-05-02T09:29:18.947Z</time></trkpt><trkpt lat="45.85169071873956" lon="9.392436573082325"><ele>212.0</ele><time>2026-05-02T09:29:22.947Z</time></trkpt><trkpt lat="45.851754528819114" lon="9.392525103289962"><ele>212.0</ele><time>2026-05-02T09:29:25.947Z</time></trkpt><trkpt lat="45.851789132588515" lon="9.392602470765494"><ele>212.0</ele><time>2026-05-02T09:29:29.947Z</time></trkpt><trkpt lat="45.85178514970772" lon="9.392710181314978"><ele>212.00000000000003</ele><time>2026-05-02T09:29:32.947Z</time></trkpt><trkpt lat="45.85178179640604" lon="9.392812063950954"><ele>212.0</ele><time>2026-05-02T09:29:35.947Z</time></trkpt><trkpt lat="45.85177464024044" lon="9.3929441426207"><ele>212.00000000000003</ele><time>2026-05-02T09:29:38.947Z</time></trkpt><trkpt lat="45.85176575934557" lon="9.393071054876655"><ele>212.0</ele><time>2026-05-02T09:29:40.947Z</time></trkpt><trkpt lat="45.85177425216593" lon="9.393233600435293"><ele>212.0</ele><time>2026-05-02T09:29:42.947Z</time></trkpt><trkpt lat="45.85176024637604" lon="9.393349651462042"><ele>212.0</ele><time>2026-05-02T09:29:44.947Z</time></trkpt><trkpt lat="45.85177740981442" lon="9.393444632238145"><ele>212.00000000000003</ele><time>2026-05-02T09:29:46.947Z</time></trkpt><trkpt lat="45.85178049337049" lon="9.393572758928313"><ele>212.0</ele><time>2026-05-02T09:29:48.947Z</time></trkpt><trkpt lat="45.85183168236469" lon="9.393717673399575"><ele>212.16666666666669</ele><time>2026-05-02T09:29:50.947Z</time></trkpt><trkpt lat="45.851870896755635" lon="9.393792468757347"><ele>212.33333333333334</ele><time>2026-05-02T09:29:51.947Z</time></trkpt><trkpt lat="45.85191704982991" lon="9.393934385112013"><ele>212.5</ele><time>2026-05-02T09:29:53.947Z</time></trkpt><trkpt lat="45.85196960911784" lon="9.394026499896134"><ele>212.66666666666669</ele><time>2026-05-02T09:29:55.947Z</time></trkpt><trkpt lat="45.85200877112849" lon="9.394155043111416"><ele>212.83333333333334</ele><time>2026-05-02T09:29:57.947Z</time></trkpt><trkpt lat="45.852051420677746" lon="9.394235387544313"><ele>213.0</ele><time>2026-05-02T09:29:59.947Z</time></trkpt><trkpt lat="45.852097986211554" lon="9.3943139473203"><ele>212.99999999999997</ele><time>2026-05-02T09:30:04.947Z</time></trkpt><trkpt lat="45.85213963939147" lon="9.394408867581843"><ele>213.0</ele><time>2026-05-02T09:30:06.947Z</time></trkpt><trkpt lat="45.85217353665453" lon="9.394486111091473"><ele>213.0</ele><time>2026-05-02T09:30:07.947Z</time></trkpt><trkpt lat="45.852210884953756" lon="9.394571218639687"><ele>213.0</ele><time>2026-05-02T09:30:08.947Z</time></trkpt><trkpt lat="45.85224475212675" lon="9.394663522721403"><ele>213.0</ele><time>2026-05-02T09:30:09.947Z</time></trkpt><trkpt lat="45.85227746723575" lon="9.394752796451703"><ele>212.99999999999997</ele><time>2026-05-02T09:30:10.947Z</time></trkpt><trkpt lat="45.85230977702788" lon="9.394844874263326"><ele>213.0</ele><time>2026-05-02T09:30:11.947Z</time></trkpt><trkpt lat="45.85233872576363" lon="9.394927373578378"><ele>213.0</ele><time>2026-05-02T09:30:12.947Z</time></trkpt><trkpt lat="45.85238451674012" lon="9.395057870022594"><ele>213.0</ele><time>2026-05-02T09:30:14.947Z</time></trkpt><trkpt lat="45.852419226839345" lon="9.395156784929151"><ele>213.0</ele><time>2026-05-02T09:30:16.947Z</time></trkpt><trkpt lat="45.85240825957865" lon="9.395265252695149"><ele>213.0</ele><time>2026-05-02T09:30:21.948Z</time></trkpt><trkpt lat="45.85239200093403" lon="9.39539948782096"><ele>213.0</ele><time>2026-05-02T09:30:24.948Z</time></trkpt><trkpt lat="45.85251685907101" lon="9.395469193887674"><ele>213.2</ele><time>2026-05-02T09:30:25.948Z</time></trkpt><trkpt lat="45.8525235270074" lon="9.395591856976996"><ele>213.4</ele><time>2026-05-02T09:30:27.948Z</time></trkpt><trkpt lat="45.85247428709864" lon="9.395661994319829"><ele>213.59999999999997</ele><time>2026-05-02T09:30:34.948Z</time></trkpt><trkpt lat="45.85232558220691" lon="9.39571304173045"><ele>213.79999999999998</ele><time>2026-05-02T09:30:35.948Z</time></trkpt><trkpt lat="45.85227779625704" lon="9.395773335140014"><ele>214.0</ele><time>2026-05-02T09:30:36.948Z</time></trkpt><trkpt lat="45.85220614035904" lon="9.395842003515858"><ele>213.99999999999997</ele><time>2026-05-02T09:30:37.948Z</time></trkpt><trkpt lat="45.85213190776805" lon="9.395924337357908"><ele>214.0</ele><time>2026-05-02T09:30:38.948Z</time></trkpt><trkpt lat="45.852054299191764" lon="9.396005692827822"><ele>214.0</ele><time>2026-05-02T09:30:39.948Z</time></trkpt><trkpt lat="45.85198031506934" lon="9.39608324872185"><ele>214.0</ele><time>2026-05-02T09:30:40.948Z</time></trkpt><trkpt lat="45.85190616831121" lon="9.396145590075713"><ele>213.99999999999997</ele><time>2026-05-02T09:30:41.948Z</time></trkpt><trkpt lat="45.8518400820336" lon="9.396208994157208"><ele>214.0</ele><time>2026-05-02T09:30:42.948Z</time></trkpt><trkpt lat="45.851781862733986" lon="9.396263523227107"><ele>214.49999999999997</ele><time>2026-05-02T09:30:43.948Z</time></trkpt><trkpt lat="45.851700059982356" lon="9.396340096167453"><ele>215.0</ele><time>2026-05-02T09:30:45.948Z</time></trkpt><trkpt lat="45.85165045643562" lon="9.39640578563948"><ele>215.5</ele><time>2026-05-02T09:30:48.946Z</time></trkpt><trkpt lat="45.851603271821055" lon="9.396479149193041"><ele>216.0</ele><time>2026-05-02T09:30:54.945Z</time></trkpt><trkpt lat="45.85150045215712" lon="9.396580117538768"><ele>216.49999999999997</ele><time>2026-05-02T09:30:56.945Z</time></trkpt><trkpt lat="45.851439755594555" lon="9.396642217809124"><ele>217.0</ele><time>2026-05-02T09:30:57.945Z</time></trkpt><trkpt lat="45.851387028376585" lon="9.39669543182709"><ele>216.99999999999997</ele><time>2026-05-02T09:30:58.945Z</time></trkpt><trkpt lat="45.85129664965094" lon="9.396780330358967"><ele>217.0</ele><time>2026-05-02T09:31:00.945Z</time></trkpt><trkpt lat="45.85123778260979" lon="9.396840025017221"><ele>217.0</ele><time>2026-05-02T09:31:03.945Z</time></trkpt><trkpt lat="45.851160267125394" lon="9.396866492025437"><ele>217.0</ele><time>2026-05-02T09:31:07.945Z</time></trkpt><trkpt lat="45.85107402351283" lon="9.396924824106136"><ele>216.99999999999997</ele><time>2026-05-02T09:31:09.945Z</time></trkpt><trkpt lat="45.85105764074949" lon="9.397017571565298"><ele>217.0</ele><time>2026-05-02T09:31:11.945Z</time></trkpt><trkpt lat="45.85116277429099" lon="9.39711583325037"><ele>216.99999999999997</ele><time>2026-05-02T09:31:14.945Z</time></trkpt><trkpt lat="45.85125696443423" lon="9.397138503323482"><ele>217.0</ele><time>2026-05-02T09:31:17.945Z</time></trkpt><trkpt lat="45.8513242336493" lon="9.397229967518355"><ele>217.0</ele><time>2026-05-02T09:31:19.945Z</time></trkpt><trkpt lat="45.8513930588592" lon="9.397275662965459"><ele>217.0</ele><time>2026-05-02T09:31:21.945Z</time></trkpt><trkpt lat="45.85147587176578" lon="9.39730577365386"><ele>216.99999999999997</ele><time>2026-05-02T09:31:24.945Z</time></trkpt><trkpt lat="45.85153599829099" lon="9.39733459942717"><ele>217.0</ele><time>2026-05-02T09:31:27.945Z</time></trkpt><trkpt lat="45.85159983623023" lon="9.397394568961433"><ele>216.39999999999998</ele><time>2026-05-02T09:31:31.945Z</time></trkpt><trkpt lat="45.851682316223275" lon="9.397470971671513"><ele>215.79999999999998</ele><time>2026-05-02T09:31:34.946Z</time></trkpt><trkpt lat="45.851730502877054" lon="9.397529227149661"><ele>215.2</ele><time>2026-05-02T09:31:35.947Z</time></trkpt><trkpt lat="45.851764323670984" lon="9.397608449610939"><ele>214.6</ele><time>2026-05-02T09:31:36.948Z</time></trkpt><trkpt lat="45.85185554313293" lon="9.397729978349835"><ele>214.0</ele><time>2026-05-02T09:31:38.95Z</time></trkpt><trkpt lat="45.85194494287848" lon="9.397808903384048"><ele>213.66666666666666</ele><time>2026-05-02T09:31:40.951Z</time></trkpt><trkpt lat="45.851990132657164" lon="9.397874208368556"><ele>213.33333333333331</ele><time>2026-05-02T09:31:43.953Z</time></trkpt><trkpt lat="45.852062009096116" lon="9.397916150787037"><ele>213.0</ele><time>2026-05-02T09:31:54.958Z</time></trkpt><trkpt lat="45.85212461890345" lon="9.397987459028172"><ele>212.66666666666669</ele><time>2026-05-02T09:31:57.959Z</time></trkpt><trkpt lat="45.85218946683281" lon="9.39804236118451"><ele>212.33333333333334</ele><time>2026-05-02T09:32:00.96Z</time></trkpt><trkpt lat="45.85225484743996" lon="9.398090027967724"><ele>212.0</ele><time>2026-05-02T09:32:03.96Z</time></trkpt><trkpt lat="45.85231575728191" lon="9.39817677297055"><ele>212.83333333333334</ele><time>2026-05-02T09:32:05.961Z</time></trkpt><trkpt lat="45.85237767725972" lon="9.398243186213254"><ele>213.66666666666669</ele><time>2026-05-02T09:32:07.961Z</time></trkpt><trkpt lat="45.85243606948671" lon="9.398305282297784"><ele>214.5</ele><time>2026-05-02T09:32:09.961Z</time></trkpt><trkpt lat="45.852508240396055" lon="9.398377645469907"><ele>215.33333333333331</ele><time>2026-05-02T09:32:11.962Z</time></trkpt><trkpt lat="45.85256912761491" lon="9.398439587404182"><ele>216.16666666666666</ele><time>2026-05-02T09:32:13.962Z</time></trkpt><trkpt lat="45.852625364539826" lon="9.398496996769863"><ele>217.0</ele><time>2026-05-02T09:32:16.962Z</time></trkpt><trkpt lat="45.85269038986141" lon="9.398576166866027"><ele>217.16666666666666</ele><time>2026-05-02T09:32:34.963Z</time></trkpt><trkpt lat="45.852736681550866" lon="9.398654843872468"><ele>217.33333333333331</ele><time>2026-05-02T09:32:37.963Z</time></trkpt><trkpt lat="45.852776732021866" lon="9.39873548452298"><ele>217.5</ele><time>2026-05-02T09:32:41.963Z</time></trkpt><trkpt lat="45.852817357118845" lon="9.398840651086438"><ele>217.66666666666669</ele><time>2026-05-02T09:32:45.963Z</time></trkpt><trkpt lat="45.85285564626523" lon="9.398933236768842"><ele>217.83333333333334</ele><time>2026-05-02T09:32:49.963Z</time></trkpt><trkpt lat="45.85290418485171" lon="9.399033568360345"><ele>218.0</ele><time>2026-05-02T09:32:53.961Z</time></trkpt><trkpt lat="45.8529422232009" lon="9.399109387682687"><ele>218.50000000000003</ele><time>2026-05-02T09:32:56.96Z</time></trkpt><trkpt lat="45.85298722775901" lon="9.399206040631416"><ele>219.0</ele><time>2026-05-02T09:32:59.96Z</time></trkpt><trkpt lat="45.85302469118927" lon="9.399294199373454"><ele>219.5</ele><time>2026-05-02T09:33:01.96Z</time></trkpt><trkpt lat="45.85303199496532" lon="9.39940019595834"><ele>220.0</ele><time>2026-05-02T09:33:04.96Z</time></trkpt><trkpt lat="45.8530396721929" lon="9.399516574257376"><ele>220.50000000000003</ele><time>2026-05-02T09:33:08.961Z</time></trkpt><trkpt lat="45.85300833664916" lon="9.399610376160622"><ele>221.0</ele><time>2026-05-02T09:33:12.961Z</time></trkpt><trkpt lat="45.85314274843113" lon="9.399697369426057"><ele>221.00000000000003</ele><time>2026-05-02T09:33:19.961Z</time></trkpt><trkpt lat="45.85319606377036" lon="9.399638668319135"><ele>221.0</ele><time>2026-05-02T09:33:20.961Z</time></trkpt><trkpt lat="45.85326844865862" lon="9.399630274512328"><ele>221.0</ele><time>2026-05-02T09:33:24.961Z</time></trkpt><trkpt lat="45.85334767204931" lon="9.399650696449704"><ele>221.0</ele><time>2026-05-02T09:33:27.962Z</time></trkpt><trkpt lat="45.85343660763302" lon="9.399707793731967"><ele>221.00000000000003</ele><time>2026-05-02T09:33:31.962Z</time></trkpt><trkpt lat="45.85351429283785" lon="9.399771630530772"><ele>221.0</ele><time>2026-05-02T09:33:33.962Z</time></trkpt><trkpt lat="45.85356943926364" lon="9.399886461939726"><ele>221.0</ele><time>2026-05-02T09:33:36.962Z</time></trkpt><trkpt lat="45.853636889515606" lon="9.39999483098022"><ele>221.00000000000003</ele><time>2026-05-02T09:33:38.962Z</time></trkpt><trkpt lat="45.8536605850902" lon="9.400079148769112"><ele>221.00000000000003</ele><time>2026-05-02T09:33:39.962Z</time></trkpt><trkpt lat="45.85378446785131" lon="9.40011106205199"><ele>221.0</ele><time>2026-05-02T09:33:41.962Z</time></trkpt><trkpt lat="45.85386629605246" lon="9.399969944628687"><ele>221.0</ele><time>2026-05-02T09:33:43.962Z</time></trkpt><trkpt lat="45.85393824152529" lon="9.399921927743565"><ele>221.0</ele><time>2026-05-02T09:33:44.962Z</time></trkpt><trkpt lat="45.854021597993736" lon="9.399884873420728"><ele>221.00000000000003</ele><time>2026-05-02T09:33:45.962Z</time></trkpt><trkpt lat="45.85410353856361" lon="9.399811854402047"><ele>221.00000000000003</ele><time>2026-05-02T09:33:46.962Z</time></trkpt><trkpt lat="45.85420337298174" lon="9.399775111766278"><ele>221.0</ele><time>2026-05-02T09:33:47.962Z</time></trkpt><trkpt lat="45.85430204761893" lon="9.39971728593518"><ele>221.0</ele><time>2026-05-02T09:33:48.962Z</time></trkpt><trkpt lat="45.85440438739015" lon="9.399651468236314"><ele>220.75</ele><time>2026-05-02T09:33:49.962Z</time></trkpt><trkpt lat="45.854504175413894" lon="9.399571115293975"><ele>220.5</ele><time>2026-05-02T09:33:50.962Z</time></trkpt><trkpt lat="45.85460403366035" lon="9.399474924660456"><ele>220.25</ele><time>2026-05-02T09:33:51.962Z</time></trkpt><trkpt lat="45.85470141858691" lon="9.399376581610607"><ele>220.0</ele><time>2026-05-02T09:33:52.962Z</time></trkpt><trkpt lat="45.85480469953551" lon="9.399277475238824"><ele>220.0</ele><time>2026-05-02T09:33:53.962Z</time></trkpt><trkpt lat="45.85490792208726" lon="9.399186906844394"><ele>220.0</ele><time>2026-05-02T09:33:54.962Z</time></trkpt><trkpt lat="45.855016704460894" lon="9.399104686606028"><ele>220.0</ele><time>2026-05-02T09:33:55.962Z</time></trkpt><trkpt lat="45.85511547636132" lon="9.398990947612807"><ele>220.0</ele><time>2026-05-02T09:33:56.962Z</time></trkpt><trkpt lat="45.85521232213462" lon="9.398883410193108"><ele>220.5</ele><time>2026-05-02T09:33:57.962Z</time></trkpt><trkpt lat="45.85531079939597" lon="9.398775266237612"><ele>221.0</ele><time>2026-05-02T09:33:58.962Z</time></trkpt><trkpt lat="45.85541600824141" lon="9.398689376041068"><ele>221.5</ele><time>2026-05-02T09:33:59.962Z</time></trkpt><trkpt lat="45.85550192466953" lon="9.398595394029646"><ele>222.0</ele><time>2026-05-02T09:34:00.962Z</time></trkpt><trkpt lat="45.85558982011162" lon="9.3985022012806"><ele>222.0</ele><time>2026-05-02T09:34:01.962Z</time></trkpt><trkpt lat="45.855680824854446" lon="9.39840747797335"><ele>222.0</ele><time>2026-05-02T09:34:02.962Z</time></trkpt><trkpt lat="45.855776541959344" lon="9.398313854045814"><ele>222.0</ele><time>2026-05-02T09:34:03.962Z</time></trkpt><trkpt lat="45.85587620566778" lon="9.39821512182016"><ele>222.0</ele><time>2026-05-02T09:34:04.962Z</time></trkpt><trkpt lat="45.85597592970782" lon="9.398128851802806"><ele>222.6</ele><time>2026-05-02T09:34:05.962Z</time></trkpt><trkpt lat="45.85606697690115" lon="9.398057740335533"><ele>223.2</ele><time>2026-05-02T09:34:06.962Z</time></trkpt><trkpt lat="45.85614307320256" lon="9.398014110419634"><ele>223.8</ele><time>2026-05-02T09:34:07.962Z</time></trkpt><trkpt lat="45.8562146686854" lon="9.397965628178035"><ele>224.4</ele><time>2026-05-02T09:34:08.962Z</time></trkpt><trkpt lat="45.85631614350575" lon="9.39789993006278"><ele>225.0</ele><time>2026-05-02T09:34:09.962Z</time></trkpt><trkpt lat="45.85641995806686" lon="9.397836354295588"><ele>225.0</ele><time>2026-05-02T09:34:10.962Z</time></trkpt><trkpt lat="45.85653541028039" lon="9.397784433312749"><ele>225.0</ele><time>2026-05-02T09:34:11.962Z</time></trkpt><trkpt lat="45.856654354910546" lon="9.397752435520188"><ele>225.0</ele><time>2026-05-02T09:34:12.962Z</time></trkpt><trkpt lat="45.85676560749997" lon="9.397724994230714"><ele>225.0</ele><time>2026-05-02T09:34:13.962Z</time></trkpt><trkpt lat="45.85686790741553" lon="9.397695405686173"><ele>225.66666666666666</ele><time>2026-05-02T09:34:14.962Z</time></trkpt><trkpt lat="45.856956597721" lon="9.39767306830932"><ele>226.33333333333331</ele><time>2026-05-02T09:34:15.962Z</time></trkpt><trkpt lat="45.85704186149703" lon="9.397643852325025"><ele>227.0</ele><time>2026-05-02T09:34:16.962Z</time></trkpt><trkpt lat="45.85711372585828" lon="9.397627377052375"><ele>227.66666666666666</ele><time>2026-05-02T09:34:17.962Z</time></trkpt><trkpt lat="45.85717983919917" lon="9.39760678776702"><ele>228.33333333333331</ele><time>2026-05-02T09:34:18.962Z</time></trkpt><trkpt lat="45.857243885070275" lon="9.397587849807048"><ele>229.0</ele><time>2026-05-02T09:34:19.962Z</time></trkpt><trkpt lat="45.857316711778545" lon="9.397567695123376"><ele>228.99999999999997</ele><time>2026-05-02T09:34:20.962Z</time></trkpt><trkpt lat="45.85739881413457" lon="9.397542491345094"><ele>229.0</ele><time>2026-05-02T09:34:21.962Z</time></trkpt><trkpt lat="45.8574918455234" lon="9.39754499483885"><ele>229.0</ele><time>2026-05-02T09:34:22.962Z</time></trkpt><trkpt lat="45.85757354809652" lon="9.397517005287892"><ele>229.0</ele><time>2026-05-02T09:34:23.962Z</time></trkpt><trkpt lat="45.857645715353634" lon="9.397494861544665"><ele>228.99999999999997</ele><time>2026-05-02T09:34:24.962Z</time></trkpt><trkpt lat="45.85771382633946" lon="9.39747197344393"><ele>229.0</ele><time>2026-05-02T09:34:25.962Z</time></trkpt><trkpt lat="45.857808683498966" lon="9.397439463867487"><ele>230.16666666666666</ele><time>2026-05-02T09:34:27.962Z</time></trkpt><trkpt lat="45.85788197009472" lon="9.397410797135612"><ele>231.33333333333331</ele><time>2026-05-02T09:34:30.962Z</time></trkpt><trkpt lat="45.857953768447004" lon="9.397387083143212"><ele>232.5</ele><time>2026-05-02T09:34:32.963Z</time></trkpt><trkpt lat="45.85803033371806" lon="9.397385156415773"><ele>233.66666666666669</ele><time>2026-05-02T09:34:34.963Z</time></trkpt><trkpt lat="45.85810524636631" lon="9.397405792949655"><ele>234.83333333333334</ele><time>2026-05-02T09:34:36.963Z</time></trkpt><trkpt lat="45.85811350227851" lon="9.397592892866575"><ele>236.0</ele><time>2026-05-02T09:34:37.963Z</time></trkpt><trkpt lat="45.85816191765314" lon="9.397725591953412"><ele>236.0</ele><time>2026-05-02T09:34:38.963Z</time></trkpt><trkpt lat="45.858197674932114" lon="9.397894055083754"><ele>236.0</ele><time>2026-05-02T09:34:39.963Z</time></trkpt><trkpt lat="45.85823461682153" lon="9.398040200003"><ele>236.0</ele><time>2026-05-02T09:34:40.963Z</time></trkpt><trkpt lat="45.8582920787113" lon="9.398197958936722"><ele>236.0</ele><time>2026-05-02T09:34:41.963Z</time></trkpt><trkpt lat="45.858360016560304" lon="9.398338396155006"><ele>235.25</ele><time>2026-05-02T09:34:42.963Z</time></trkpt><trkpt lat="45.85844019807759" lon="9.398474169232358"><ele>234.5</ele><time>2026-05-02T09:34:43.963Z</time></trkpt><trkpt lat="45.85852316676973" lon="9.398592760922433"><ele>233.75</ele><time>2026-05-02T09:34:44.963Z</time></trkpt><trkpt lat="45.858612996172006" lon="9.398715912757641"><ele>233.0</ele><time>2026-05-02T09:34:45.963Z</time></trkpt><trkpt lat="45.85870134456382" lon="9.398843179806597"><ele>235.25</ele><time>2026-05-02T09:34:46.963Z</time></trkpt><trkpt lat="45.85879455175354" lon="9.398965729041763"><ele>237.5</ele><time>2026-05-02T09:34:47.963Z</time></trkpt><trkpt lat="45.85888596748718" lon="9.399081969507662"><ele>239.75</ele><time>2026-05-02T09:34:48.963Z</time></trkpt><trkpt lat="45.858980511519256" lon="9.39919728912082"><ele>242.0</ele><time>2026-05-02T09:34:49.963Z</time></trkpt><trkpt lat="45.859088802299894" lon="9.39929595992775"><ele>242.0</ele><time>2026-05-02T09:34:50.963Z</time></trkpt><trkpt lat="45.8591912277942" lon="9.399414917372761"><ele>242.0</ele><time>2026-05-02T09:34:51.963Z</time></trkpt><trkpt lat="45.85930109377026" lon="9.399523179770101"><ele>242.0</ele><time>2026-05-02T09:34:52.963Z</time></trkpt><trkpt lat="45.85940981162836" lon="9.399620207492836"><ele>242.0</ele><time>2026-05-02T09:34:53.963Z</time></trkpt><trkpt lat="45.8595083725959" lon="9.39969540415141"><ele>242.83333333333334</ele><time>2026-05-02T09:34:54.963Z</time></trkpt><trkpt lat="45.859605944562844" lon="9.399753779027714"><ele>243.66666666666669</ele><time>2026-05-02T09:34:55.963Z</time></trkpt><trkpt lat="45.859700134420805" lon="9.399801503081038"><ele>244.5</ele><time>2026-05-02T09:34:56.963Z</time></trkpt><trkpt lat="45.85977484767922" lon="9.399854607256298"><ele>245.33333333333331</ele><time>2026-05-02T09:34:57.963Z</time></trkpt><trkpt lat="45.85983456159609" lon="9.399894353429099"><ele>246.16666666666666</ele><time>2026-05-02T09:34:58.959Z</time></trkpt><trkpt lat="45.8599114622013" lon="9.399954096694215"><ele>247.0</ele><time>2026-05-02T09:35:00.959Z</time></trkpt><trkpt lat="45.85996606032943" lon="9.400029984032411"><ele>246.99999999999997</ele><time>2026-05-02T09:35:02.959Z</time></trkpt><trkpt lat="45.860000963515354" lon="9.400135299159968"><ele>247.0</ele><time>2026-05-02T09:35:04.959Z</time></trkpt><trkpt lat="45.860062425807605" lon="9.400212302264205"><ele>247.0</ele><time>2026-05-02T09:35:06.958Z</time></trkpt><trkpt lat="45.86012432904085" lon="9.400232029910036"><ele>247.0</ele><time>2026-05-02T09:35:10.958Z</time></trkpt><trkpt lat="45.86018875093764" lon="9.400212340777767"><ele>246.99999999999997</ele><time>2026-05-02T09:35:11.959Z</time></trkpt><trkpt lat="45.860252592451886" lon="9.400133613783396"><ele>247.0</ele><time>2026-05-02T09:35:12.959Z</time></trkpt><trkpt lat="45.86033432401795" lon="9.400091459342619"><ele>248.39999999999998</ele><time>2026-05-02T09:35:13.959Z</time></trkpt><trkpt lat="45.860422079951626" lon="9.400056611549058"><ele>249.79999999999998</ele><time>2026-05-02T09:35:14.959Z</time></trkpt><trkpt lat="45.86050839220672" lon="9.399977725923424"><ele>251.2</ele><time>2026-05-02T09:35:15.959Z</time></trkpt><trkpt lat="45.86058250867044" lon="9.399885725810858"><ele>252.6</ele><time>2026-05-02T09:35:16.959Z</time></trkpt><trkpt lat="45.860660092907516" lon="9.399803337704633"><ele>254.0</ele><time>2026-05-02T09:35:17.959Z</time></trkpt><trkpt lat="45.8607433895825" lon="9.399721165136752"><ele>254.0</ele><time>2026-05-02T09:35:18.959Z</time></trkpt><trkpt lat="45.86082245626875" lon="9.399626383930261"><ele>253.99999999999997</ele><time>2026-05-02T09:35:19.959Z</time></trkpt><trkpt lat="45.86089533967083" lon="9.399518092965968"><ele>253.99999999999997</ele><time>2026-05-02T09:35:20.959Z</time></trkpt><trkpt lat="45.860954117137965" lon="9.399385611718014"><ele>254.0</ele><time>2026-05-02T09:35:21.959Z</time></trkpt><trkpt lat="45.86102489125194" lon="9.399267802305138"><ele>254.0</ele><time>2026-05-02T09:35:22.959Z</time></trkpt><trkpt lat="45.86106378545383" lon="9.399116086897726"><ele>255.6</ele><time>2026-05-02T09:35:23.959Z</time></trkpt><trkpt lat="45.86111465581931" lon="9.399017581011616"><ele>257.2</ele><time>2026-05-02T09:35:24.959Z</time></trkpt><trkpt lat="45.8611646721816" lon="9.398935370972152"><ele>258.79999999999995</ele><time>2026-05-02T09:35:25.959Z</time></trkpt><trkpt lat="45.86123730371352" lon="9.398812677298027"><ele>260.4</ele><time>2026-05-02T09:35:27.959Z</time></trkpt><trkpt lat="45.86130621891297" lon="9.398764329624504"><ele>262.0</ele><time>2026-05-02T09:35:29.959Z</time></trkpt><trkpt lat="45.861416406844896" lon="9.39881723601048"><ele>262.0</ele><time>2026-05-02T09:35:31.959Z</time></trkpt><trkpt lat="45.861488412679904" lon="9.398880589302445"><ele>262.0</ele><time>2026-05-02T09:35:32.959Z</time></trkpt><trkpt lat="45.86157336496919" lon="9.3989552177151"><ele>262.0</ele><time>2026-05-02T09:35:33.959Z</time></trkpt><trkpt lat="45.8616634034787" lon="9.399034314051864"><ele>262.0</ele><time>2026-05-02T09:35:34.959Z</time></trkpt><trkpt lat="45.86175084447399" lon="9.399134297960801"><ele>262.0</ele><time>2026-05-02T09:35:35.959Z</time></trkpt><trkpt lat="45.861849434436444" lon="9.399238047802408"><ele>263.2</ele><time>2026-05-02T09:35:36.959Z</time></trkpt><trkpt lat="45.86194588520244" lon="9.399330614517547"><ele>264.4</ele><time>2026-05-02T09:35:37.959Z</time></trkpt><trkpt lat="45.86203883464891" lon="9.399410614908149"><ele>265.6</ele><time>2026-05-02T09:35:38.959Z</time></trkpt><trkpt lat="45.86212671321372" lon="9.399479729869226"><ele>266.8</ele><time>2026-05-02T09:35:39.959Z</time></trkpt><trkpt lat="45.86221474815628" lon="9.399566760547986"><ele>268.0</ele><time>2026-05-02T09:35:40.959Z</time></trkpt><trkpt lat="45.86230543316426" lon="9.39964763174082"><ele>267.8333333333333</ele><time>2026-05-02T09:35:41.959Z</time></trkpt><trkpt lat="45.86237898970368" lon="9.399725512609642"><ele>267.66666666666663</ele><time>2026-05-02T09:35:42.959Z</time></trkpt><trkpt lat="45.86240220233822" lon="9.399822502270082"><ele>267.5</ele><time>2026-05-02T09:35:44.959Z</time></trkpt><trkpt lat="45.862351971142374" lon="9.399891445296984"><ele>267.3333333333333</ele><time>2026-05-02T09:35:46.959Z</time></trkpt><trkpt lat="45.86241834308522" lon="9.399860444039273"><ele>267.1666666666667</ele><time>2026-05-02T09:35:48.959Z</time></trkpt><trkpt lat="45.86250857482909" lon="9.399905136899243"><ele>267.0</ele><time>2026-05-02T09:36:43.96Z</time></trkpt><trkpt lat="45.862536265562426" lon="9.40003602305467"><ele>267.0</ele><time>2026-05-02T09:38:16.958Z</time></trkpt><trkpt lat="45.86254669644219" lon="9.400147452866905"><ele>267.0</ele><time>2026-05-02T09:40:38.958Z</time></trkpt><trkpt lat="45.86263080714113" lon="9.400164591421634"><ele>267.0</ele><time>2026-05-02T09:40:42.958Z</time></trkpt><trkpt lat="45.862739731438545" lon="9.400230751138631"><ele>267.0</ele><time>2026-05-02T09:40:46.958Z</time></trkpt><trkpt lat="45.862773318886674" lon="9.400310399449143"><ele>267.0</ele><time>2026-05-02T09:40:47.958Z</time></trkpt><trkpt lat="45.86282633093811" lon="9.400428421256759"><ele>267.0</ele><time>2026-05-02T09:40:48.958Z</time></trkpt><trkpt lat="45.86288107134642" lon="9.400530313413615"><ele>268.0</ele><time>2026-05-02T09:40:49.958Z</time></trkpt><trkpt lat="45.862945064743414" lon="9.400640078062969"><ele>269.0</ele><time>2026-05-02T09:40:50.958Z</time></trkpt><trkpt lat="45.86296967472218" lon="9.400791182815071"><ele>270.0</ele><time>2026-05-02T09:40:51.958Z</time></trkpt><trkpt lat="45.86302728348575" lon="9.400896084258623"><ele>271.0</ele><time>2026-05-02T09:40:52.958Z</time></trkpt><trkpt lat="45.86308690389269" lon="9.400999742188183"><ele>272.0</ele><time>2026-05-02T09:40:53.958Z</time></trkpt><trkpt lat="45.86314531217878" lon="9.401102220668491"><ele>272.0</ele><time>2026-05-02T09:40:54.958Z</time></trkpt><trkpt lat="45.86320530190073" lon="9.40120747378024"><ele>272.0</ele><time>2026-05-02T09:40:55.958Z</time></trkpt><trkpt lat="45.86329412105464" lon="9.40128665838202"><ele>272.0</ele><time>2026-05-02T09:40:56.958Z</time></trkpt><trkpt lat="45.86335803813728" lon="9.401388255483413"><ele>272.0</ele><time>2026-05-02T09:40:57.958Z</time></trkpt><trkpt lat="45.86341230109888" lon="9.401499884257358"><ele>272.0</ele><time>2026-05-02T09:40:58.958Z</time></trkpt><trkpt lat="45.863463800236225" lon="9.40161298738302"><ele>273.6</ele><time>2026-05-02T09:40:59.958Z</time></trkpt><trkpt lat="45.86349218663154" lon="9.401752940391342"><ele>275.2</ele><time>2026-05-02T09:41:00.958Z</time></trkpt><trkpt lat="45.863530737644844" lon="9.401879529701914"><ele>276.8</ele><time>2026-05-02T09:41:01.958Z</time></trkpt><trkpt lat="45.86356106960254" lon="9.402000596355663"><ele>278.4</ele><time>2026-05-02T09:41:02.958Z</time></trkpt><trkpt lat="45.863589347323206" lon="9.402129566374043"><ele>280.0</ele><time>2026-05-02T09:41:03.958Z</time></trkpt><trkpt lat="45.86361718630466" lon="9.402256443213703"><ele>280.0</ele><time>2026-05-02T09:41:04.958Z</time></trkpt><trkpt lat="45.8636402994319" lon="9.402378696715493"><ele>280.0</ele><time>2026-05-02T09:41:05.958Z</time></trkpt><trkpt lat="45.86366577040938" lon="9.40249212124279"><ele>280.0</ele><time>2026-05-02T09:41:06.958Z</time></trkpt><trkpt lat="45.86369329547452" lon="9.402614707993322"><ele>280.0</ele><time>2026-05-02T09:41:07.958Z</time></trkpt><trkpt lat="45.863713826371324" lon="9.402715129523916"><ele>280.0</ele><time>2026-05-02T09:41:08.958Z</time></trkpt><trkpt lat="45.86373746634009" lon="9.40284383917582"><ele>280.0</ele><time>2026-05-02T09:41:10.958Z</time></trkpt><trkpt lat="45.86374580483258" lon="9.40293387018217"><ele>280.6</ele><time>2026-05-02T09:41:12.958Z</time></trkpt><trkpt lat="45.863780994926145" lon="9.403021050191422"><ele>281.2</ele><time>2026-05-02T09:41:23.958Z</time></trkpt><trkpt lat="45.86379972425314" lon="9.403166159354953"><ele>281.8</ele><time>2026-05-02T09:41:25.957Z</time></trkpt><trkpt lat="45.86378965684065" lon="9.403331816359389"><ele>282.4</ele><time>2026-05-02T09:41:27.958Z</time></trkpt><trkpt lat="45.86374635540924" lon="9.403467860514436"><ele>283.0</ele><time>2026-05-02T09:41:29.957Z</time></trkpt><trkpt lat="45.86371905988999" lon="9.403567242365071"><ele>283.0</ele><time>2026-05-02T09:41:31.957Z</time></trkpt><trkpt lat="45.86381960197541" lon="9.403698873785954"><ele>283.0</ele><time>2026-05-02T09:41:32.957Z</time></trkpt><trkpt lat="45.86389308240011" lon="9.403751657975798"><ele>283.0</ele><time>2026-05-02T09:41:33.957Z</time></trkpt><trkpt lat="45.86393432312106" lon="9.403849050951179"><ele>283.0</ele><time>2026-05-02T09:41:34.957Z</time></trkpt><trkpt lat="45.86396395638959" lon="9.403962829811055"><ele>283.0</ele><time>2026-05-02T09:41:35.957Z</time></trkpt><trkpt lat="45.86399394933023" lon="9.404107466899367"><ele>283.6</ele><time>2026-05-02T09:41:36.957Z</time></trkpt><trkpt lat="45.864024932709555" lon="9.404251383230955"><ele>284.20000000000005</ele><time>2026-05-02T09:41:37.957Z</time></trkpt><trkpt lat="45.86406589089462" lon="9.404393074564698"><ele>284.8</ele><time>2026-05-02T09:41:38.957Z</time></trkpt><trkpt lat="45.86411520775484" lon="9.404523624181309"><ele>285.40000000000003</ele><time>2026-05-02T09:41:39.957Z</time></trkpt><trkpt lat="45.864168605542844" lon="9.404647706109698"><ele>286.0</ele><time>2026-05-02T09:41:40.957Z</time></trkpt><trkpt lat="45.864234797419115" lon="9.404751027908"><ele>287.6</ele><time>2026-05-02T09:41:41.957Z</time></trkpt><trkpt lat="45.86431945802721" lon="9.40482511666999"><ele>289.20000000000005</ele><time>2026-05-02T09:41:42.957Z</time></trkpt><trkpt lat="45.86441207292929" lon="9.404885244393062"><ele>290.79999999999995</ele><time>2026-05-02T09:41:43.957Z</time></trkpt><trkpt lat="45.864497726797396" lon="9.404935986041963"><ele>292.4</ele><time>2026-05-02T09:41:44.957Z</time></trkpt><trkpt lat="45.864587487469464" lon="9.404983149743536"><ele>294.0</ele><time>2026-05-02T09:41:45.957Z</time></trkpt><trkpt lat="45.86467515890572" lon="9.405036587928098"><ele>294.0</ele><time>2026-05-02T09:41:46.957Z</time></trkpt><trkpt lat="45.864754352372884" lon="9.405075464604666"><ele>294.0</ele><time>2026-05-02T09:41:47.957Z</time></trkpt><trkpt lat="45.864834153856236" lon="9.405077481960317"><ele>294.0</ele><time>2026-05-02T09:41:48.957Z</time></trkpt><trkpt lat="45.86490004518853" lon="9.405042427742274"><ele>294.0</ele><time>2026-05-02T09:41:49.957Z</time></trkpt><trkpt lat="45.86495966844422" lon="9.40497581099368"><ele>294.0</ele><time>2026-05-02T09:41:50.957Z</time></trkpt><trkpt lat="45.865002326541" lon="9.40488508431596"><ele>294.0</ele><time>2026-05-02T09:41:51.957Z</time></trkpt><trkpt lat="45.86504000193173" lon="9.404770646625243"><ele>293.8</ele><time>2026-05-02T09:41:52.957Z</time></trkpt><trkpt lat="45.8650738170387" lon="9.404648313103195"><ele>293.59999999999997</ele><time>2026-05-02T09:41:53.958Z</time></trkpt><trkpt lat="45.86510677723845" lon="9.404525141653874"><ele>293.4</ele><time>2026-05-02T09:41:54.958Z</time></trkpt><trkpt lat="45.865143007542045" lon="9.404397610536309"><ele>293.2</ele><time>2026-05-02T09:41:55.958Z</time></trkpt><trkpt lat="45.86516875217811" lon="9.40426678555785"><ele>293.0</ele><time>2026-05-02T09:41:56.958Z</time></trkpt><trkpt lat="45.86519488618265" lon="9.404154561737844"><ele>294.8</ele><time>2026-05-02T09:41:57.958Z</time></trkpt><trkpt lat="45.86523556107109" lon="9.404064647812781"><ele>296.6</ele><time>2026-05-02T09:41:58.958Z</time></trkpt><trkpt lat="45.865259167274075" lon="9.403969849346673"><ele>298.4</ele><time>2026-05-02T09:41:59.958Z</time></trkpt><trkpt lat="45.865300863036516" lon="9.40380308641077"><ele>300.2</ele><time>2026-05-02T09:42:01.958Z</time></trkpt><trkpt lat="45.8653693199202" lon="9.40365950669924"><ele>302.0</ele><time>2026-05-02T09:42:03.958Z</time></trkpt><trkpt lat="45.865463869153565" lon="9.403552415060744"><ele>302.0</ele><time>2026-05-02T09:42:05.958Z</time></trkpt><trkpt lat="45.865585949720725" lon="9.403491803564705"><ele>302.0</ele><time>2026-05-02T09:42:07.958Z</time></trkpt><trkpt lat="45.86564857325774" lon="9.403442279339203"><ele>302.0</ele><time>2026-05-02T09:42:08.958Z</time></trkpt><trkpt lat="45.86571208311644" lon="9.403375524255942"><ele>302.0</ele><time>2026-05-02T09:42:09.958Z</time></trkpt><trkpt lat="45.86577763354223" lon="9.403299646134395"><ele>302.0</ele><time>2026-05-02T09:42:10.958Z</time></trkpt><trkpt lat="45.86583613026665" lon="9.403221288256756"><ele>302.0</ele><time>2026-05-02T09:42:11.958Z</time></trkpt><trkpt lat="45.865895163412326" lon="9.403155354144147"><ele>303.8</ele><time>2026-05-02T09:42:12.958Z</time></trkpt><trkpt lat="45.865946585386865" lon="9.403094999189632"><ele>305.6</ele><time>2026-05-02T09:42:13.958Z</time></trkpt><trkpt lat="45.86603873741646" lon="9.403011750320239"><ele>307.40000000000003</ele><time>2026-05-02T09:42:15.958Z</time></trkpt><trkpt lat="45.8661405891152" lon="9.402972901505658"><ele>309.2</ele><time>2026-05-02T09:42:17.958Z</time></trkpt><trkpt lat="45.866258823930956" lon="9.402967406538286"><ele>311.0</ele><time>2026-05-02T09:42:19.958Z</time></trkpt><trkpt lat="45.86632127039095" lon="9.402983485030733"><ele>311.5</ele><time>2026-05-02T09:42:20.958Z</time></trkpt><trkpt lat="45.86638884650238" lon="9.4030164806511"><ele>312.0</ele><time>2026-05-02T09:42:21.958Z</time></trkpt><trkpt lat="45.866455441450825" lon="9.403044037654492"><ele>312.5</ele><time>2026-05-02T09:42:22.958Z</time></trkpt><trkpt lat="45.86652175778047" lon="9.40308626981989"><ele>313.0</ele><time>2026-05-02T09:42:23.958Z</time></trkpt><trkpt lat="45.86659835889629" lon="9.403143376665804"><ele>313.5</ele><time>2026-05-02T09:42:24.958Z</time></trkpt><trkpt lat="45.866680184580446" lon="9.40320321140682"><ele>314.0</ele><time>2026-05-02T09:42:25.958Z</time></trkpt><trkpt lat="45.86675985610894" lon="9.403246614484171"><ele>314.83333333333337</ele><time>2026-05-02T09:42:26.958Z</time></trkpt><trkpt lat="45.86684243467729" lon="9.40329321317234"><ele>315.6666666666667</ele><time>2026-05-02T09:42:27.958Z</time></trkpt><trkpt lat="45.86692354362946" lon="9.403339031760911"><ele>316.5</ele><time>2026-05-02T09:42:28.958Z</time></trkpt><trkpt lat="45.8670052870486" lon="9.403374606518108"><ele>317.3333333333333</ele><time>2026-05-02T09:42:29.958Z</time></trkpt><trkpt lat="45.86708448352763" lon="9.403408047515866"><ele>318.16666666666663</ele><time>2026-05-02T09:42:30.958Z</time></trkpt><trkpt lat="45.86715942089581" lon="9.403442668908518"><ele>319.0</ele><time>2026-05-02T09:42:31.958Z</time></trkpt><trkpt lat="45.86723285200928" lon="9.403481505948063"><ele>319.0</ele><time>2026-05-02T09:42:32.958Z</time></trkpt><trkpt lat="45.867304583171496" lon="9.403519210557551"><ele>319.0</ele><time>2026-05-02T09:42:33.958Z</time></trkpt><trkpt lat="45.86737490198318" lon="9.403554300119973"><ele>319.0</ele><time>2026-05-02T09:42:34.958Z</time></trkpt><trkpt lat="45.867447652712634" lon="9.403593138436731"><ele>319.0</ele><time>2026-05-02T09:42:35.958Z</time></trkpt><trkpt lat="45.86752642371152" lon="9.403633306523947"><ele>319.0</ele><time>2026-05-02T09:42:36.958Z</time></trkpt><trkpt lat="45.86760253988722" lon="9.40367853188207"><ele>319.0</ele><time>2026-05-02T09:42:37.958Z</time></trkpt><trkpt lat="45.86767266277651" lon="9.403717340380746"><ele>319.5</ele><time>2026-05-02T09:42:38.958Z</time></trkpt><trkpt lat="45.86774287809972" lon="9.403753969048681"><ele>320.0</ele><time>2026-05-02T09:42:39.958Z</time></trkpt><trkpt lat="45.86781253278772" lon="9.40378993532432"><ele>320.5</ele><time>2026-05-02T09:42:40.958Z</time></trkpt><trkpt lat="45.867883112952" lon="9.403826598573058"><ele>321.0</ele><time>2026-05-02T09:42:41.958Z</time></trkpt><trkpt lat="45.867954151931855" lon="9.403864552237607"><ele>321.5</ele><time>2026-05-02T09:42:42.958Z</time></trkpt><trkpt lat="45.868026428639936" lon="9.403892432962822"><ele>322.0</ele><time>2026-05-02T09:42:43.958Z</time></trkpt><trkpt lat="45.86810856722286" lon="9.403912425465316"><ele>322.66666666666663</ele><time>2026-05-02T09:42:44.958Z</time></trkpt><trkpt lat="45.86819679279945" lon="9.403917561700526"><ele>323.3333333333333</ele><time>2026-05-02T09:42:45.958Z</time></trkpt><trkpt lat="45.86828277904674" lon="9.40391746599794"><ele>324.0</ele><time>2026-05-02T09:42:46.958Z</time></trkpt><trkpt lat="45.86836293067147" lon="9.403912909900415"><ele>324.6666666666667</ele><time>2026-05-02T09:42:47.958Z</time></trkpt><trkpt lat="45.86843562110192" lon="9.403903686017395"><ele>325.33333333333337</ele><time>2026-05-02T09:42:48.958Z</time></trkpt><trkpt lat="45.868507073174584" lon="9.403893936300735"><ele>326.0</ele><time>2026-05-02T09:42:49.958Z</time></trkpt><trkpt lat="45.86858339298788" lon="9.403876900740299"><ele>328.4</ele><time>2026-05-02T09:42:50.958Z</time></trkpt><trkpt lat="45.86865262848606" lon="9.403829027007419"><ele>330.8</ele><time>2026-05-02T09:42:51.958Z</time></trkpt><trkpt lat="45.868709534569255" lon="9.40370897561154"><ele>333.2</ele><time>2026-05-02T09:42:52.958Z</time></trkpt><trkpt lat="45.86873655435532" lon="9.40356614058802"><ele>335.59999999999997</ele><time>2026-05-02T09:42:53.958Z</time></trkpt><trkpt lat="45.86875595515696" lon="9.403438049441535"><ele>338.0</ele><time>2026-05-02T09:42:54.958Z</time></trkpt><trkpt lat="45.86877729127825" lon="9.403308495587405"><ele>338.0</ele><time>2026-05-02T09:42:55.958Z</time></trkpt><trkpt lat="45.86879750099615" lon="9.403202031735917"><ele>338.0</ele><time>2026-05-02T09:42:56.958Z</time></trkpt><trkpt lat="45.86879476846855" lon="9.403085967525218"><ele>338.0</ele><time>2026-05-02T09:42:57.958Z</time></trkpt><trkpt lat="45.86884636725096" lon="9.402996876200024"><ele>338.0</ele><time>2026-05-02T09:42:58.958Z</time></trkpt><trkpt lat="45.86892127993808" lon="9.40292611858585"><ele>338.0</ele><time>2026-05-02T09:42:59.958Z</time></trkpt><trkpt lat="45.86900656210496" lon="9.402873168027845"><ele>338.0</ele><time>2026-05-02T09:43:00.958Z</time></trkpt><trkpt lat="45.86910018547778" lon="9.40282055219212"><ele>337.0</ele><time>2026-05-02T09:43:01.959Z</time></trkpt><trkpt lat="45.86919574139997" lon="9.402807132746279"><ele>336.0</ele><time>2026-05-02T09:43:02.959Z</time></trkpt><trkpt lat="45.869277811594706" lon="9.402739798612636"><ele>335.0</ele><time>2026-05-02T09:43:03.959Z</time></trkpt><trkpt lat="45.86935791940466" lon="9.402712689141143"><ele>334.0</ele><time>2026-05-02T09:43:04.959Z</time></trkpt><trkpt lat="45.86944243838501" lon="9.402704030109843"><ele>333.0</ele><time>2026-05-02T09:43:05.959Z</time></trkpt><trkpt lat="45.86952232276582" lon="9.402746232767893"><ele>332.0</ele><time>2026-05-02T09:43:06.959Z</time></trkpt><trkpt lat="45.86960297010965" lon="9.402800995034209"><ele>332.0</ele><time>2026-05-02T09:43:07.959Z</time></trkpt><trkpt lat="45.86970539296383" lon="9.402853091884118"><ele>332.0</ele><time>2026-05-02T09:43:08.959Z</time></trkpt><trkpt lat="45.86980427188731" lon="9.402903385968443"><ele>332.0</ele><time>2026-05-02T09:43:09.959Z</time></trkpt><trkpt lat="45.86990275931119" lon="9.402952890935161"><ele>332.0</ele><time>2026-05-02T09:43:10.959Z</time></trkpt><trkpt lat="45.8700011833645" lon="9.4029996857636"><ele>332.0</ele><time>2026-05-02T09:43:11.959Z</time></trkpt><trkpt lat="45.87009788892021" lon="9.403019409840438"><ele>337.0</ele><time>2026-05-02T09:43:12.959Z</time></trkpt><trkpt lat="45.87020185145429" lon="9.40305573896766"><ele>342.0</ele><time>2026-05-02T09:43:13.959Z</time></trkpt><trkpt lat="45.87031543311203" lon="9.403084857084416"><ele>347.0</ele><time>2026-05-02T09:43:14.959Z</time></trkpt><trkpt lat="45.870413301521204" lon="9.403053286258388"><ele>352.0</ele><time>2026-05-02T09:43:15.959Z</time></trkpt><trkpt lat="45.8705200422611" lon="9.40303848223485"><ele>357.0</ele><time>2026-05-02T09:43:16.959Z</time></trkpt><trkpt lat="45.8706312075579" lon="9.403006160879745"><ele>357.0</ele><time>2026-05-02T09:43:17.959Z</time></trkpt><trkpt lat="45.87081148200868" lon="9.403036929482507"><ele>357.0</ele><time>2026-05-02T09:43:19.959Z</time></trkpt><trkpt lat="45.870890187100265" lon="9.40303806328669"><ele>357.0</ele><time>2026-05-02T09:43:20.959Z</time></trkpt><trkpt lat="45.87098374924956" lon="9.403065864486722"><ele>357.0</ele><time>2026-05-02T09:43:21.959Z</time></trkpt><trkpt lat="45.871073302017884" lon="9.403142800261168"><ele>354.0</ele><time>2026-05-02T09:43:22.957Z</time></trkpt><trkpt lat="45.87115969542173" lon="9.40321173713471"><ele>351.0</ele><time>2026-05-02T09:43:23.958Z</time></trkpt><trkpt lat="45.87127345998884" lon="9.40330922046513"><ele>348.0</ele><time>2026-05-02T09:43:24.958Z</time></trkpt><trkpt lat="45.87138834695641" lon="9.403407835378083"><ele>345.0</ele><time>2026-05-02T09:43:25.957Z</time></trkpt><trkpt lat="45.8715015969954" lon="9.40350446179026"><ele>345.0</ele><time>2026-05-02T09:43:26.957Z</time></trkpt><trkpt lat="45.871616809368625" lon="9.403591315002597"><ele>345.0</ele><time>2026-05-02T09:43:27.957Z</time></trkpt><trkpt lat="45.871719608174075" lon="9.403672899519393"><ele>345.0</ele><time>2026-05-02T09:43:28.957Z</time></trkpt><trkpt lat="45.87182933249655" lon="9.403768884997852"><ele>345.0</ele><time>2026-05-02T09:43:29.957Z</time></trkpt><trkpt lat="45.87193946636535" lon="9.40386344914227"><ele>349.75</ele><time>2026-05-02T09:43:30.957Z</time></trkpt><trkpt lat="45.87206303527363" lon="9.403945180639035"><ele>354.5</ele><time>2026-05-02T09:43:31.957Z</time></trkpt><trkpt lat="45.87217334421868" lon="9.404021459580527"><ele>359.25</ele><time>2026-05-02T09:43:32.957Z</time></trkpt><trkpt lat="45.87228604071702" lon="9.40409765954959"><ele>364.0</ele><time>2026-05-02T09:43:33.957Z</time></trkpt><trkpt lat="45.87238704685831" lon="9.404200133306245"><ele>364.0</ele><time>2026-05-02T09:43:34.957Z</time></trkpt><trkpt lat="45.87250648626521" lon="9.404233994325368"><ele>364.0</ele><time>2026-05-02T09:43:35.957Z</time></trkpt><trkpt lat="45.87262096117853" lon="9.404269943498997"><ele>364.0</ele><time>2026-05-02T09:43:36.957Z</time></trkpt><trkpt lat="45.87275411382407" lon="9.40424612425462"><ele>364.0</ele><time>2026-05-02T09:43:37.957Z</time></trkpt><trkpt lat="45.87288482287689" lon="9.404258885363262"><ele>365.5</ele><time>2026-05-02T09:43:38.957Z</time></trkpt><trkpt lat="45.873000044663726" lon="9.404243507985303"><ele>367.0</ele><time>2026-05-02T09:43:39.957Z</time></trkpt><trkpt lat="45.87311978256449" lon="9.404223038802991"><ele>368.5</ele><time>2026-05-02T09:43:40.957Z</time></trkpt><trkpt lat="45.87324222636531" lon="9.404201750131213"><ele>370.0</ele><time>2026-05-02T09:43:41.957Z</time></trkpt><trkpt lat="45.87336180390368" lon="9.404202491504094"><ele>370.2</ele><time>2026-05-02T09:43:42.957Z</time></trkpt><trkpt lat="45.87347350238343" lon="9.404213077955845"><ele>370.4</ele><time>2026-05-02T09:43:43.957Z</time></trkpt><trkpt lat="45.87355959773728" lon="9.404217506822818"><ele>370.6</ele><time>2026-05-02T09:43:44.957Z</time></trkpt><trkpt lat="45.87362945915071" lon="9.404221572239857"><ele>370.8</ele><time>2026-05-02T09:43:45.957Z</time></trkpt><trkpt lat="45.87370989105782" lon="9.404237101234271"><ele>371.0</ele><time>2026-05-02T09:43:47.957Z</time></trkpt><trkpt lat="45.87380441907296" lon="9.404313658064071"><ele>371.0</ele><time>2026-05-02T09:44:01.957Z</time></trkpt><trkpt lat="45.87390579854446" lon="9.404343686850785"><ele>371.0</ele><time>2026-05-02T09:44:03.957Z</time></trkpt><trkpt lat="45.874018067637856" lon="9.40434801838366"><ele>371.0</ele><time>2026-05-02T09:44:05.958Z</time></trkpt><trkpt lat="45.874141355038304" lon="9.404333688347407"><ele>371.0</ele><time>2026-05-02T09:44:07.958Z</time></trkpt><trkpt lat="45.87420484162674" lon="9.404297786955652"><ele>371.0</ele><time>2026-05-02T09:44:08.958Z</time></trkpt><trkpt lat="45.87426477417087" lon="9.40422655773647"><ele>371.57142857142856</ele><time>2026-05-02T09:44:09.958Z</time></trkpt><trkpt lat="45.87434411148478" lon="9.40419072097162"><ele>372.1428571428571</ele><time>2026-05-02T09:44:10.958Z</time></trkpt><trkpt lat="45.87440418946615" lon="9.404129487175789"><ele>372.7142857142857</ele><time>2026-05-02T09:44:11.958Z</time></trkpt><trkpt lat="45.87445926532772" lon="9.404077515165895"><ele>373.2857142857143</ele><time>2026-05-02T09:44:12.958Z</time></trkpt><trkpt lat="45.874510142737435" lon="9.404020695726292"><ele>373.85714285714283</ele><time>2026-05-02T09:44:13.958Z</time></trkpt><trkpt lat="45.8745642856688" lon="9.403954351163556"><ele>374.42857142857144</ele><time>2026-05-02T09:44:14.958Z</time></trkpt><trkpt lat="45.874622178169986" lon="9.403877598695857"><ele>375.0</ele><time>2026-05-02T09:44:15.958Z</time></trkpt><trkpt lat="45.874675782808005" lon="9.40380541436498"><ele>377.4</ele><time>2026-05-02T09:44:16.958Z</time></trkpt><trkpt lat="45.874710991024976" lon="9.403724502413866"><ele>379.8</ele><time>2026-05-02T09:44:17.958Z</time></trkpt><trkpt lat="45.87475678834231" lon="9.403594551042739"><ele>382.20000000000005</ele><time>2026-05-02T09:44:19.958Z</time></trkpt><trkpt lat="45.87472678138887" lon="9.403392667950401"><ele>384.6</ele><time>2026-05-02T09:44:21.958Z</time></trkpt><trkpt lat="45.874652794134185" lon="9.403299943806608"><ele>387.0</ele><time>2026-05-02T09:44:22.958Z</time></trkpt><trkpt lat="45.87457154295378" lon="9.403217861360663"><ele>387.0</ele><time>2026-05-02T09:44:23.958Z</time></trkpt><trkpt lat="45.87447905260329" lon="9.403147502057738"><ele>387.0</ele><time>2026-05-02T09:44:24.958Z</time></trkpt><trkpt lat="45.87438346129902" lon="9.403081276346873"><ele>387.0</ele><time>2026-05-02T09:44:25.958Z</time></trkpt><trkpt lat="45.8742843633254" lon="9.40303846238225"><ele>387.0</ele><time>2026-05-02T09:44:26.958Z</time></trkpt><trkpt lat="45.87419432541444" lon="9.403016682788458"><ele>387.0</ele><time>2026-05-02T09:44:27.958Z</time></trkpt><trkpt lat="45.874120725879585" lon="9.402986429030738"><ele>386.0</ele><time>2026-05-02T09:44:28.958Z</time></trkpt><trkpt lat="45.87402570192661" lon="9.402939893984605"><ele>385.0</ele><time>2026-05-02T09:44:30.958Z</time></trkpt><trkpt lat="45.87396262064658" lon="9.402935916242582"><ele>384.0</ele><time>2026-05-02T09:44:34.958Z</time></trkpt><trkpt lat="45.87389591735265" lon="9.40283660743377"><ele>383.0</ele><time>2026-05-02T09:44:52.958Z</time></trkpt><trkpt lat="45.873827020220546" lon="9.402774926246813"><ele>382.0</ele><time>2026-05-02T09:44:54.958Z</time></trkpt><trkpt lat="45.873783987368654" lon="9.402696401647642"><ele>381.0</ele><time>2026-05-02T09:44:56.958Z</time></trkpt><trkpt lat="45.87372905620347" lon="9.402601326358853"><ele>381.0</ele><time>2026-05-02T09:44:58.958Z</time></trkpt><trkpt lat="45.87368026363705" lon="9.402504042582256"><ele>381.0</ele><time>2026-05-02T09:45:00.958Z</time></trkpt><trkpt lat="45.87363364682141" lon="9.402422753789896"><ele>381.0</ele><time>2026-05-02T09:45:02.958Z</time></trkpt><trkpt lat="45.873593641147224" lon="9.4023440270843"><ele>381.0</ele><time>2026-05-02T09:45:04.958Z</time></trkpt><trkpt lat="45.87355798924384" lon="9.40226149653465"><ele>381.0</ele><time>2026-05-02T09:45:06.958Z</time></trkpt><trkpt lat="45.87352828473485" lon="9.40216481741223"><ele>381.0</ele><time>2026-05-02T09:45:08.958Z</time></trkpt><trkpt lat="45.873586960916626" lon="9.40207259776081"><ele>383.8333333333333</ele><time>2026-05-02T09:45:10.958Z</time></trkpt><trkpt lat="45.87364209390802" lon="9.401971738257787"><ele>386.66666666666663</ele><time>2026-05-02T09:45:12.959Z</time></trkpt><trkpt lat="45.87373077783625" lon="9.401998905200887"><ele>389.5</ele><time>2026-05-02T09:45:14.959Z</time></trkpt><trkpt lat="45.873785971953424" lon="9.402049817647493"><ele>392.3333333333333</ele><time>2026-05-02T09:45:16.959Z</time></trkpt><trkpt lat="45.87385254713203" lon="9.40206459743317"><ele>395.16666666666663</ele><time>2026-05-02T09:45:19.959Z</time></trkpt><trkpt lat="45.8739195559046" lon="9.40210264218242"><ele>398.0</ele><time>2026-05-02T09:45:22.959Z</time></trkpt><trkpt lat="45.87399232317527" lon="9.402130763069795"><ele>399.59999999999997</ele><time>2026-05-02T09:45:41.955Z</time></trkpt><trkpt lat="45.87406902434663" lon="9.402171280623635"><ele>401.2</ele><time>2026-05-02T09:45:43.955Z</time></trkpt><trkpt lat="45.87415181398684" lon="9.40226209670382"><ele>402.8</ele><time>2026-05-02T09:45:45.955Z</time></trkpt><trkpt lat="45.87426876916268" lon="9.402339561125839"><ele>404.4</ele><time>2026-05-02T09:45:47.955Z</time></trkpt><trkpt lat="45.87432642024386" lon="9.402381994851787"><ele>406.0</ele><time>2026-05-02T09:45:48.955Z</time></trkpt><trkpt lat="45.87439081385459" lon="9.40242319412866"><ele>406.0</ele><time>2026-05-02T09:45:49.955Z</time></trkpt><trkpt lat="45.87445834825864" lon="9.402465769999782"><ele>406.0</ele><time>2026-05-02T09:45:50.955Z</time></trkpt><trkpt lat="45.874524458381366" lon="9.402513988592167"><ele>406.0</ele><time>2026-05-02T09:45:51.955Z</time></trkpt><trkpt lat="45.87474382027294" lon="9.402744605096203"><ele>406.0</ele><time>2026-05-02T09:45:54.955Z</time></trkpt><trkpt lat="45.8748206033452" lon="9.40282229639702"><ele>406.0</ele><time>2026-05-02T09:45:55.955Z</time></trkpt><trkpt lat="45.874900980149995" lon="9.402906479561684"><ele>406.0</ele><time>2026-05-02T09:45:56.955Z</time></trkpt><trkpt lat="45.87498140637352" lon="9.40299791768212"><ele>406.0</ele><time>2026-05-02T09:45:57.955Z</time></trkpt><trkpt lat="45.87506299007298" lon="9.40308394475941"><ele>406.0</ele><time>2026-05-02T09:45:58.955Z</time></trkpt><trkpt lat="45.87514226744357" lon="9.403164305430641"><ele>406.0</ele><time>2026-05-02T09:45:59.955Z</time></trkpt><trkpt lat="45.875226530783856" lon="9.403240578164016"><ele>409.20000000000005</ele><time>2026-05-02T09:46:00.955Z</time></trkpt><trkpt lat="45.87531360661071" lon="9.403308450382797"><ele>412.40000000000003</ele><time>2026-05-02T09:46:01.955Z</time></trkpt><trkpt lat="45.87540728445648" lon="9.403372448096784"><ele>415.6</ele><time>2026-05-02T09:46:02.955Z</time></trkpt><trkpt lat="45.87549387595512" lon="9.403441928868256"><ele>418.8</ele><time>2026-05-02T09:46:03.955Z</time></trkpt><trkpt lat="45.875594336043704" lon="9.403509853870874"><ele>422.0</ele><time>2026-05-02T09:46:04.955Z</time></trkpt><trkpt lat="45.87569159609889" lon="9.403577140825478"><ele>422.0</ele><time>2026-05-02T09:46:05.955Z</time></trkpt><trkpt lat="45.87579488379387" lon="9.403645335572786"><ele>422.0</ele><time>2026-05-02T09:46:06.955Z</time></trkpt><trkpt lat="45.87589349112954" lon="9.403714061540517"><ele>422.0</ele><time>2026-05-02T09:46:07.955Z</time></trkpt><trkpt lat="45.87599113833385" lon="9.403772138803683"><ele>422.0</ele><time>2026-05-02T09:46:08.956Z</time></trkpt><trkpt lat="45.87607939318068" lon="9.403831956463245"><ele>422.0</ele><time>2026-05-02T09:46:09.956Z</time></trkpt><trkpt lat="45.876162492009456" lon="9.403885733146177"><ele>420.20000000000005</ele><time>2026-05-02T09:46:10.956Z</time></trkpt><trkpt lat="45.876230304410136" lon="9.40396688400935"><ele>418.4</ele><time>2026-05-02T09:46:11.956Z</time></trkpt><trkpt lat="45.87631378217387" lon="9.40400653339057"><ele>416.6</ele><time>2026-05-02T09:46:12.956Z</time></trkpt><trkpt lat="45.8764004286052" lon="9.404044510370689"><ele>414.79999999999995</ele><time>2026-05-02T09:46:13.956Z</time></trkpt><trkpt lat="45.87649158447445" lon="9.404077760060199"><ele>413.0</ele><time>2026-05-02T09:46:14.956Z</time></trkpt><trkpt lat="45.87658301479475" lon="9.404118706690907"><ele>412.99999999999994</ele><time>2026-05-02T09:46:15.956Z</time></trkpt><trkpt lat="45.87666946360383" lon="9.40416351104006"><ele>413.0</ele><time>2026-05-02T09:46:16.956Z</time></trkpt><trkpt lat="45.87674679136178" lon="9.404211137854857"><ele>413.0</ele><time>2026-05-02T09:46:17.956Z</time></trkpt><trkpt lat="45.87680828539983" lon="9.404251522661486"><ele>413.0</ele><time>2026-05-02T09:46:18.956Z</time></trkpt><trkpt lat="45.87690573106591" lon="9.404323759749614"><ele>412.99999999999994</ele><time>2026-05-02T09:46:20.956Z</time></trkpt><trkpt lat="45.87697743960851" lon="9.404372037262634"><ele>413.0</ele><time>2026-05-02T09:46:22.956Z</time></trkpt><trkpt lat="45.87706285792615" lon="9.404437100109941"><ele>412.8333333333333</ele><time>2026-05-02T09:46:24.956Z</time></trkpt><trkpt lat="45.87713821476853" lon="9.404491468943156"><ele>412.66666666666663</ele><time>2026-05-02T09:46:36.956Z</time></trkpt><trkpt lat="45.8771908938294" lon="9.4045416706301"><ele>412.5</ele><time>2026-05-02T09:46:38.956Z</time></trkpt><trkpt lat="45.87726238186929" lon="9.404602664021013"><ele>412.33333333333337</ele><time>2026-05-02T09:46:40.956Z</time></trkpt><trkpt lat="45.877340800623415" lon="9.404662704010489"><ele>412.1666666666667</ele><time>2026-05-02T09:46:42.956Z</time></trkpt><trkpt lat="45.877434425837066" lon="9.404743536149304"><ele>412.0</ele><time>2026-05-02T09:46:44.956Z</time></trkpt><trkpt lat="45.87754827534575" lon="9.404842047287506"><ele>415.57142857142856</ele><time>2026-05-02T09:46:46.956Z</time></trkpt><trkpt lat="45.877613438726144" lon="9.40488963208065"><ele>419.1428571428571</ele><time>2026-05-02T09:46:47.956Z</time></trkpt><trkpt lat="45.877681436636735" lon="9.404942906516181"><ele>422.71428571428567</ele><time>2026-05-02T09:46:48.956Z</time></trkpt><trkpt lat="45.87774734355754" lon="9.40499725073487"><ele>426.2857142857143</ele><time>2026-05-02T09:46:49.956Z</time></trkpt><trkpt lat="45.8778078430543" lon="9.405041254677172"><ele>429.8571428571429</ele><time>2026-05-02T09:46:50.956Z</time></trkpt><trkpt lat="45.877872347986276" lon="9.405078999240617"><ele>433.4285714285714</ele><time>2026-05-02T09:46:51.956Z</time></trkpt><trkpt lat="45.87793293844972" lon="9.405127080502739"><ele>437.0</ele><time>2026-05-02T09:46:52.956Z</time></trkpt><trkpt lat="45.877988840938286" lon="9.405190600548138"><ele>436.99999999999994</ele><time>2026-05-02T09:46:53.956Z</time></trkpt><trkpt lat="45.87803986877295" lon="9.405263517713951"><ele>437.0</ele><time>2026-05-02T09:46:54.956Z</time></trkpt><trkpt lat="45.87810119799477" lon="9.40531588088578"><ele>437.0</ele><time>2026-05-02T09:46:55.956Z</time></trkpt><trkpt lat="45.87812202144992" lon="9.405406658827628"><ele>437.0</ele><time>2026-05-02T09:46:56.956Z</time></trkpt><trkpt lat="45.878201806844665" lon="9.405529380302486"><ele>436.99999999999994</ele><time>2026-05-02T09:46:58.956Z</time></trkpt><trkpt lat="45.87825980542648" lon="9.405657788250373"><ele>437.0</ele><time>2026-05-02T09:47:00.956Z</time></trkpt><trkpt lat="45.878294450795686" lon="9.405791447264313"><ele>436.66666666666663</ele><time>2026-05-02T09:47:02.956Z</time></trkpt><trkpt lat="45.87832493012654" lon="9.405897161728653"><ele>436.3333333333333</ele><time>2026-05-02T09:47:04.956Z</time></trkpt><trkpt lat="45.87838929184868" lon="9.405955572116934"><ele>436.0</ele><time>2026-05-02T09:47:15.956Z</time></trkpt><trkpt lat="45.87841590515209" lon="9.406078036823804"><ele>435.66666666666663</ele><time>2026-05-02T09:47:17.957Z</time></trkpt><trkpt lat="45.87849775627237" lon="9.406198909165386"><ele>435.3333333333333</ele><time>2026-05-02T09:47:19.957Z</time></trkpt><trkpt lat="45.878554458641055" lon="9.406277522445423"><ele>435.0</ele><time>2026-05-02T09:47:21.957Z</time></trkpt><trkpt lat="45.8786123067275" lon="9.406365373350697"><ele>435.0</ele><time>2026-05-02T09:47:23.957Z</time></trkpt><trkpt lat="45.87866365139757" lon="9.406451754081846"><ele>435.0</ele><time>2026-05-02T09:47:25.957Z</time></trkpt><trkpt lat="45.878749928123405" lon="9.40656585344856"><ele>435.0</ele><time>2026-05-02T09:47:27.957Z</time></trkpt><trkpt lat="45.87881495103137" lon="9.406633657556768"><ele>435.0</ele><time>2026-05-02T09:47:28.957Z</time></trkpt><trkpt lat="45.87888052296089" lon="9.406712761702613"><ele>435.0</ele><time>2026-05-02T09:47:29.957Z</time></trkpt><trkpt lat="45.87896127278126" lon="9.40679922921738"><ele>435.0</ele><time>2026-05-02T09:47:30.957Z</time></trkpt><trkpt lat="45.879025717468984" lon="9.406883826631718"><ele>435.0</ele><time>2026-05-02T09:47:31.957Z</time></trkpt><trkpt lat="45.87907310546369" lon="9.40695744783214"><ele>435.0</ele><time>2026-05-02T09:47:32.957Z</time></trkpt><trkpt lat="45.879150891613975" lon="9.407062508771284"><ele>435.0</ele><time>2026-05-02T09:47:34.954Z</time></trkpt><trkpt lat="45.879208226226815" lon="9.407139844627572"><ele>435.0</ele><time>2026-05-02T09:47:36.954Z</time></trkpt><trkpt lat="45.87927253604751" lon="9.407194157244637"><ele>435.0</ele><time>2026-05-02T09:47:39.954Z</time></trkpt><trkpt lat="45.87934734628938" lon="9.40725906367457"><ele>435.3333333333333</ele><time>2026-05-02T09:47:56.954Z</time></trkpt><trkpt lat="45.879421590321186" lon="9.407302544027864"><ele>435.66666666666663</ele><time>2026-05-02T09:47:58.954Z</time></trkpt><trkpt lat="45.879550789484206" lon="9.407397015182658"><ele>436.0</ele><time>2026-05-02T09:48:00.954Z</time></trkpt><trkpt lat="45.87961259444435" lon="9.40744236237693"><ele>436.3333333333333</ele><time>2026-05-02T09:48:01.954Z</time></trkpt><trkpt lat="45.87968245817904" lon="9.407485219808162"><ele>436.66666666666663</ele><time>2026-05-02T09:48:02.954Z</time></trkpt><trkpt lat="45.879748452800264" lon="9.407515078953102"><ele>437.0</ele><time>2026-05-02T09:48:03.954Z</time></trkpt><trkpt lat="45.87981265965991" lon="9.40754558742272"><ele>436.99999999999994</ele><time>2026-05-02T09:48:04.955Z</time></trkpt><trkpt lat="45.87992861350498" lon="9.407591904846472"><ele>437.0</ele><time>2026-05-02T09:48:06.955Z</time></trkpt><trkpt lat="45.87999592997311" lon="9.4076116632701"><ele>437.0</ele><time>2026-05-02T09:48:07.955Z</time></trkpt><trkpt lat="45.88007246788662" lon="9.40762962754219"><ele>437.0</ele><time>2026-05-02T09:48:08.955Z</time></trkpt><trkpt lat="45.88014635957978" lon="9.407639104788503"><ele>436.99999999999994</ele><time>2026-05-02T09:48:09.955Z</time></trkpt><trkpt lat="45.880222297451795" lon="9.407650173764209"><ele>437.0</ele><time>2026-05-02T09:48:10.955Z</time></trkpt><trkpt lat="45.88029530804443" lon="9.407701262474763"><ele>436.8333333333333</ele><time>2026-05-02T09:48:11.955Z</time></trkpt><trkpt lat="45.8803764891954" lon="9.407721388854423"><ele>436.66666666666663</ele><time>2026-05-02T09:48:12.955Z</time></trkpt><trkpt lat="45.88044291398766" lon="9.407776513351209"><ele>436.5</ele><time>2026-05-02T09:48:13.955Z</time></trkpt><trkpt lat="45.88053149334643" lon="9.407808883999396"><ele>436.33333333333337</ele><time>2026-05-02T09:48:14.955Z</time></trkpt><trkpt lat="45.88060718205044" lon="9.407894681394849"><ele>436.1666666666667</ele><time>2026-05-02T09:48:15.955Z</time></trkpt><trkpt lat="45.880678503535584" lon="9.40798777925927"><ele>436.0</ele><time>2026-05-02T09:48:16.955Z</time></trkpt><trkpt lat="45.88075641129584" lon="9.408066084852942"><ele>436.0</ele><time>2026-05-02T09:48:17.955Z</time></trkpt><trkpt lat="45.8808364788377" lon="9.408147641995207"><ele>436.0</ele><time>2026-05-02T09:48:18.955Z</time></trkpt><trkpt lat="45.88090691846817" lon="9.40824284250158"><ele>436.0</ele><time>2026-05-02T09:48:19.955Z</time></trkpt><trkpt lat="45.8809853006002" lon="9.408328951149958"><ele>436.0</ele><time>2026-05-02T09:48:20.955Z</time></trkpt><trkpt lat="45.88106495699869" lon="9.408428850819908"><ele>436.0</ele><time>2026-05-02T09:48:21.955Z</time></trkpt><trkpt lat="45.881142623824445" lon="9.40853302940654"><ele>438.8</ele><time>2026-05-02T09:48:22.955Z</time></trkpt><trkpt lat="45.881204709797686" lon="9.408660600464964"><ele>441.6</ele><time>2026-05-02T09:48:23.955Z</time></trkpt><trkpt lat="45.88129168638396" lon="9.408740907375496"><ele>444.4</ele><time>2026-05-02T09:48:24.955Z</time></trkpt><trkpt lat="45.88138933783821" lon="9.408814906286821"><ele>447.2</ele><time>2026-05-02T09:48:25.955Z</time></trkpt><trkpt lat="45.881486986888255" lon="9.408878509761415"><ele>450.0</ele><time>2026-05-02T09:48:26.955Z</time></trkpt><trkpt lat="45.881585917704086" lon="9.408926560308167"><ele>450.0</ele><time>2026-05-02T09:48:27.955Z</time></trkpt><trkpt lat="45.88169119100988" lon="9.408962051283492"><ele>450.0</ele><time>2026-05-02T09:48:28.955Z</time></trkpt><trkpt lat="45.881799461227125" lon="9.408999406374297"><ele>450.0</ele><time>2026-05-02T09:48:29.955Z</time></trkpt><trkpt lat="45.8818968006113" lon="9.409031920371985"><ele>450.0</ele><time>2026-05-02T09:48:30.955Z</time></trkpt><trkpt lat="45.88199097281843" lon="9.409061040200749"><ele>450.0</ele><time>2026-05-02T09:48:31.955Z</time></trkpt><trkpt lat="45.88209283922861" lon="9.409107584867916"><ele>451.75</ele><time>2026-05-02T09:48:32.955Z</time></trkpt><trkpt lat="45.88218792826261" lon="9.409186401121998"><ele>453.5</ele><time>2026-05-02T09:48:33.955Z</time></trkpt><trkpt lat="45.88227692070741" lon="9.409274993459155"><ele>455.25</ele><time>2026-05-02T09:48:34.955Z</time></trkpt><trkpt lat="45.88237244548067" lon="9.409378959161886"><ele>457.0</ele><time>2026-05-02T09:48:35.955Z</time></trkpt><trkpt lat="45.88246180751873" lon="9.40947916012453"><ele>457.0</ele><time>2026-05-02T09:48:36.955Z</time></trkpt><trkpt lat="45.88254963688116" lon="9.409573091678103"><ele>457.00000000000006</ele><time>2026-05-02T09:48:37.955Z</time></trkpt><trkpt lat="45.8826397059409" lon="9.409644571669954"><ele>457.00000000000006</ele><time>2026-05-02T09:48:38.955Z</time></trkpt><trkpt lat="45.88274088200832" lon="9.409679515678581"><ele>457.0</ele><time>2026-05-02T09:48:39.955Z</time></trkpt><trkpt lat="45.882857847522935" lon="9.409661490090935"><ele>457.0</ele><time>2026-05-02T09:48:40.955Z</time></trkpt><trkpt lat="45.882968765850656" lon="9.409630351843248"><ele>457.0</ele><time>2026-05-02T09:48:41.955Z</time></trkpt><trkpt lat="45.88307106950325" lon="9.409594724245729"><ele>457.00000000000006</ele><time>2026-05-02T09:48:42.955Z</time></trkpt><trkpt lat="45.88317309132349" lon="9.40953738143833"><ele>457.00000000000006</ele><time>2026-05-02T09:48:43.955Z</time></trkpt><trkpt lat="45.883268085898955" lon="9.409476430806615"><ele>457.0</ele><time>2026-05-02T09:48:44.955Z</time></trkpt><trkpt lat="45.88336515398411" lon="9.409410780655941"><ele>457.0</ele><time>2026-05-02T09:48:45.955Z</time></trkpt><trkpt lat="45.883456033875134" lon="9.409337029258307"><ele>462.20000000000005</ele><time>2026-05-02T09:48:46.955Z</time></trkpt><trkpt lat="45.88354261022199" lon="9.409285925431163"><ele>467.40000000000003</ele><time>2026-05-02T09:48:47.955Z</time></trkpt><trkpt lat="45.8836217691967" lon="9.409248430215296"><ele>472.59999999999997</ele><time>2026-05-02T09:48:48.955Z</time></trkpt><trkpt lat="45.88370458807808" lon="9.40919924772104"><ele>477.79999999999995</ele><time>2026-05-02T09:48:49.955Z</time></trkpt><trkpt lat="45.88379544260354" lon="9.409149837704017"><ele>483.0</ele><time>2026-05-02T09:48:50.955Z</time></trkpt><trkpt lat="45.88388918970311" lon="9.409110692625637"><ele>483.0</ele><time>2026-05-02T09:48:51.955Z</time></trkpt><trkpt lat="45.883955461605716" lon="9.409063767872404"><ele>482.99999999999994</ele><time>2026-05-02T09:48:52.955Z</time></trkpt><trkpt lat="45.88405056110694" lon="9.408998155233759"><ele>482.99999999999994</ele><time>2026-05-02T09:48:54.955Z</time></trkpt><trkpt lat="45.884137257849204" lon="9.409025359898903"><ele>483.0</ele><time>2026-05-02T09:48:56.955Z</time></trkpt><trkpt lat="45.88411809080632" lon="9.409170671265773"><ele>483.0</ele><time>2026-05-02T09:48:58.955Z</time></trkpt><trkpt lat="45.884060652775815" lon="9.409270331632094"><ele>483.0</ele><time>2026-05-02T09:48:59.955Z</time></trkpt><trkpt lat="45.88396769524504" lon="9.409302367455144"><ele>482.99999999999994</ele><time>2026-05-02T09:49:00.955Z</time></trkpt><trkpt lat="45.88387012411584" lon="9.409371886456794"><ele>482.99999999999994</ele><time>2026-05-02T09:49:01.955Z</time></trkpt><trkpt lat="45.88377802824962" lon="9.409429746695535"><ele>483.0</ele><time>2026-05-02T09:49:02.955Z</time></trkpt><trkpt lat="45.883680003410646" lon="9.409484620603152"><ele>483.0</ele><time>2026-05-02T09:49:03.955Z</time></trkpt><trkpt lat="45.8835821913898" lon="9.409542768825235"><ele>483.0</ele><time>2026-05-02T09:49:04.955Z</time></trkpt><trkpt lat="45.883496842874095" lon="9.409590590503232"><ele>483.0</ele><time>2026-05-02T09:49:05.955Z</time></trkpt><trkpt lat="45.88342359869749" lon="9.409647082636987"><ele>483.0</ele><time>2026-05-02T09:49:06.955Z</time></trkpt><trkpt lat="45.88338553259838" lon="9.409732825242745"><ele>483.0</ele><time>2026-05-02T09:49:07.955Z</time></trkpt><trkpt lat="45.88337785808817" lon="9.409833073234177"><ele>483.0</ele><time>2026-05-02T09:49:08.955Z</time></trkpt><trkpt lat="45.88340967360701" lon="9.40994362342138"><ele>483.0</ele><time>2026-05-02T09:49:09.955Z</time></trkpt><trkpt lat="45.88345978341194" lon="9.410036266368987"><ele>483.1666666666667</ele><time>2026-05-02T09:49:10.955Z</time></trkpt><trkpt lat="45.88353499549508" lon="9.410121181803257"><ele>483.33333333333337</ele><time>2026-05-02T09:49:11.955Z</time></trkpt><trkpt lat="45.88360701967641" lon="9.410204366609117"><ele>483.5</ele><time>2026-05-02T09:49:12.956Z</time></trkpt><trkpt lat="45.88367368355372" lon="9.410281309011477"><ele>483.6666666666667</ele><time>2026-05-02T09:49:13.956Z</time></trkpt><trkpt lat="45.88373921102876" lon="9.410356738652244"><ele>483.83333333333337</ele><time>2026-05-02T09:49:14.956Z</time></trkpt><trkpt lat="45.883799237948836" lon="9.410429593503798"><ele>484.0</ele><time>2026-05-02T09:49:15.956Z</time></trkpt><trkpt lat="45.88384376105276" lon="9.4104959099498"><ele>484.0</ele><time>2026-05-02T09:49:16.956Z</time></trkpt><trkpt lat="45.88390804122602" lon="9.41064063176089"><ele>484.0</ele><time>2026-05-02T09:49:18.956Z</time></trkpt><trkpt lat="45.88394687702436" lon="9.410765417795995"><ele>484.0</ele><time>2026-05-02T09:49:19.956Z</time></trkpt><trkpt lat="45.88398798785352" lon="9.41091309210136"><ele>484.0</ele><time>2026-05-02T09:49:20.956Z</time></trkpt><trkpt lat="45.8840320916409" lon="9.411080846298159"><ele>484.0</ele><time>2026-05-02T09:49:21.956Z</time></trkpt><trkpt lat="45.884083975899784" lon="9.411252613271431"><ele>484.0</ele><time>2026-05-02T09:49:22.956Z</time></trkpt><trkpt lat="45.884131758659926" lon="9.411403841898496"><ele>484.0</ele><time>2026-05-02T09:49:23.956Z</time></trkpt><trkpt lat="45.88418914068654" lon="9.411530937504427"><ele>484.0</ele><time>2026-05-02T09:49:24.956Z</time></trkpt><trkpt lat="45.884265806510044" lon="9.411623132401784"><ele>488.6</ele><time>2026-05-02T09:49:25.956Z</time></trkpt><trkpt lat="45.88435985940997" lon="9.411672537228124"><ele>493.2</ele><time>2026-05-02T09:49:26.956Z</time></trkpt><trkpt lat="45.88445602836958" lon="9.41166668699603"><ele>497.80000000000007</ele><time>2026-05-02T09:49:27.956Z</time></trkpt><trkpt lat="45.884552639311806" lon="9.411610741375073"><ele>502.40000000000003</ele><time>2026-05-02T09:49:28.956Z</time></trkpt><trkpt lat="45.88463992288914" lon="9.411546501923896"><ele>507.0</ele><time>2026-05-02T09:49:29.956Z</time></trkpt><trkpt lat="45.884684823835826" lon="9.411407862381491"><ele>509.0</ele><time>2026-05-02T09:49:30.956Z</time></trkpt><trkpt lat="45.88473076394768" lon="9.411278871741494"><ele>511.0</ele><time>2026-05-02T09:49:31.956Z</time></trkpt><trkpt lat="45.884696233856694" lon="9.411100941952494"><ele>513.0</ele><time>2026-05-02T09:49:32.956Z</time></trkpt><trkpt lat="45.884666981393615" lon="9.410927217062774"><ele>515.0</ele><time>2026-05-02T09:49:33.956Z</time></trkpt><trkpt lat="45.884643721301366" lon="9.410765094195755"><ele>515.0</ele><time>2026-05-02T09:49:34.956Z</time></trkpt><trkpt lat="45.88462225973343" lon="9.410632653751748"><ele>515.0</ele><time>2026-05-02T09:49:35.956Z</time></trkpt><trkpt lat="45.88461029000399" lon="9.410527490842547"><ele>515.0</ele><time>2026-05-02T09:49:36.956Z</time></trkpt><trkpt lat="45.88459988348018" lon="9.41043580513866"><ele>515.0</ele><time>2026-05-02T09:49:37.956Z</time></trkpt><trkpt lat="45.884635378114325" lon="9.410284478529844"><ele>515.0</ele><time>2026-05-02T09:49:39.956Z</time></trkpt><trkpt lat="45.884747418236486" lon="9.41024443115426"><ele>515.0</ele><time>2026-05-02T09:49:41.954Z</time></trkpt><trkpt lat="45.88479927769656" lon="9.410296154407133"><ele>515.0</ele><time>2026-05-02T09:49:42.954Z</time></trkpt><trkpt lat="45.88483961374247" lon="9.410376892849143"><ele>515.0</ele><time>2026-05-02T09:49:43.953Z</time></trkpt><trkpt lat="45.88486547817397" lon="9.410495485227008"><ele>515.0</ele><time>2026-05-02T09:49:44.953Z</time></trkpt><trkpt lat="45.884921043518936" lon="9.410622495674708"><ele>515.0</ele><time>2026-05-02T09:49:45.953Z</time></trkpt><trkpt lat="45.88497728985173" lon="9.41075969955226"><ele>515.0</ele><time>2026-05-02T09:49:46.954Z</time></trkpt><trkpt lat="45.88504440925252" lon="9.410888702929885"><ele>522.2</ele><time>2026-05-02T09:49:47.954Z</time></trkpt><trkpt lat="45.88511888499493" lon="9.411011904733353"><ele>529.4</ele><time>2026-05-02T09:49:48.954Z</time></trkpt><trkpt lat="45.8851939969224" lon="9.41113977904174"><ele>536.6</ele><time>2026-05-02T09:49:49.954Z</time></trkpt><trkpt lat="45.88526489236056" lon="9.411257755664888"><ele>543.8</ele><time>2026-05-02T09:49:50.953Z</time></trkpt><trkpt lat="45.88533677417386" lon="9.411373421919297"><ele>551.0</ele><time>2026-05-02T09:49:51.953Z</time></trkpt><trkpt lat="45.88540413012407" lon="9.411486786261685"><ele>551.0</ele><time>2026-05-02T09:49:52.953Z</time></trkpt><trkpt lat="45.885465665291036" lon="9.411606488325958"><ele>551.0</ele><time>2026-05-02T09:49:53.953Z</time></trkpt><trkpt lat="45.885526148514714" lon="9.411747159011135"><ele>551.0</ele><time>2026-05-02T09:49:54.953Z</time></trkpt><trkpt lat="45.88559343940015" lon="9.411907123097075"><ele>551.0</ele><time>2026-05-02T09:49:55.953Z</time></trkpt><trkpt lat="45.885661969355056" lon="9.412095642776247"><ele>544.0</ele><time>2026-05-02T09:49:56.953Z</time></trkpt><trkpt lat="45.88573775836086" lon="9.412305601393061"><ele>537.0</ele><time>2026-05-02T09:49:57.953Z</time></trkpt><trkpt lat="45.8858083389462" lon="9.412510297196423"><ele>530.0</ele><time>2026-05-02T09:49:58.953Z</time></trkpt><trkpt lat="45.88587059640194" lon="9.41270482101393"><ele>530.0</ele><time>2026-05-02T09:49:59.953Z</time></trkpt><trkpt lat="45.885927123273106" lon="9.41287802390644"><ele>530.0</ele><time>2026-05-02T09:50:00.953Z</time></trkpt><trkpt lat="45.885976212602586" lon="9.413046678840107"><ele>530.0</ele><time>2026-05-02T09:50:01.953Z</time></trkpt><trkpt lat="45.88604083948076" lon="9.413213671081698"><ele>530.0</ele><time>2026-05-02T09:50:02.953Z</time></trkpt><trkpt lat="45.8860943836955" lon="9.41337513988993"><ele>537.5</ele><time>2026-05-02T09:50:03.953Z</time></trkpt><trkpt lat="45.88614806539618" lon="9.413533092168864"><ele>545.0</ele><time>2026-05-02T09:50:04.953Z</time></trkpt><trkpt lat="45.88619167221116" lon="9.413684057181777"><ele>552.5</ele><time>2026-05-02T09:50:05.953Z</time></trkpt><trkpt lat="45.886224284941314" lon="9.41385096573154"><ele>560.0</ele><time>2026-05-02T09:50:06.954Z</time></trkpt><trkpt lat="45.88623394102822" lon="9.414035451084478"><ele>561.5</ele><time>2026-05-02T09:50:07.954Z</time></trkpt><trkpt lat="45.88621041862702" lon="9.414224025067695"><ele>563.0</ele><time>2026-05-02T09:50:08.954Z</time></trkpt><trkpt lat="45.88619284552598" lon="9.41443449452056"><ele>564.5</ele><time>2026-05-02T09:50:09.954Z</time></trkpt><trkpt lat="45.88615937741258" lon="9.414636548528836"><ele>566.0</ele><time>2026-05-02T09:50:10.954Z</time></trkpt><trkpt lat="45.886141418642175" lon="9.414835892361594"><ele>569.0</ele><time>2026-05-02T09:50:11.954Z</time></trkpt><trkpt lat="45.88612976063955" lon="9.415033056032357"><ele>572.0</ele><time>2026-05-02T09:50:12.954Z</time></trkpt><trkpt lat="45.886117878173444" lon="9.415231771475552"><ele>575.0</ele><time>2026-05-02T09:50:13.954Z</time></trkpt><trkpt lat="45.88611077881269" lon="9.415420511856075"><ele>578.0</ele><time>2026-05-02T09:50:14.954Z</time></trkpt><trkpt lat="45.88612013012352" lon="9.41560778883022"><ele>578.0</ele><time>2026-05-02T09:50:15.954Z</time></trkpt><trkpt lat="45.886145321177985" lon="9.415798890116868"><ele>578.0</ele><time>2026-05-02T09:50:16.954Z</time></trkpt><trkpt lat="45.88618683470792" lon="9.416003722011968"><ele>578.0</ele><time>2026-05-02T09:50:17.954Z</time></trkpt><trkpt lat="45.88623345094739" lon="9.416196296521285"><ele>578.0</ele><time>2026-05-02T09:50:18.954Z</time></trkpt><trkpt lat="45.88627876380976" lon="9.416395617662381"><ele>576.5</ele><time>2026-05-02T09:50:19.954Z</time></trkpt><trkpt lat="45.8863197941756" lon="9.41656634062488"><ele>575.0</ele><time>2026-05-02T09:50:20.954Z</time></trkpt><trkpt lat="45.88636133820973" lon="9.416721562884554"><ele>573.5</ele><time>2026-05-02T09:50:21.954Z</time></trkpt><trkpt lat="45.88640804190398" lon="9.416856175599543"><ele>572.0</ele><time>2026-05-02T09:50:22.954Z</time></trkpt><trkpt lat="45.88647995596299" lon="9.416972719556846"><ele>572.0</ele><time>2026-05-02T09:50:23.954Z</time></trkpt><trkpt lat="45.886578525050176" lon="9.417071022421544"><ele>572.0</ele><time>2026-05-02T09:50:24.954Z</time></trkpt><trkpt lat="45.88669576184777" lon="9.417153184059087"><ele>572.0</ele><time>2026-05-02T09:50:25.954Z</time></trkpt><trkpt lat="45.88681734536468" lon="9.417228751927487"><ele>572.0</ele><time>2026-05-02T09:50:26.954Z</time></trkpt><trkpt lat="45.886939205233936" lon="9.417311406537682"><ele>575.8000000000001</ele><time>2026-05-02T09:50:27.954Z</time></trkpt><trkpt lat="45.8870524467236" lon="9.417383994790555"><ele>579.6</ele><time>2026-05-02T09:50:28.954Z</time></trkpt><trkpt lat="45.88715088628106" lon="9.417449184215227"><ele>583.4000000000001</ele><time>2026-05-02T09:50:29.954Z</time></trkpt><trkpt lat="45.88722766502952" lon="9.417505390955698"><ele>587.2</ele><time>2026-05-02T09:50:30.954Z</time></trkpt><trkpt lat="45.88729320417532" lon="9.417572255788059"><ele>591.0</ele><time>2026-05-02T09:50:31.954Z</time></trkpt><trkpt lat="45.88734271227875" lon="9.417656442077647"><ele>591.0</ele><time>2026-05-02T09:50:32.954Z</time></trkpt><trkpt lat="45.88734240503627" lon="9.41776275811488"><ele>591.0</ele><time>2026-05-02T09:50:33.954Z</time></trkpt><trkpt lat="45.88729620873839" lon="9.41785254744285"><ele>591.0</ele><time>2026-05-02T09:50:34.954Z</time></trkpt><trkpt lat="45.887212124986554" lon="9.417917804971284"><ele>591.0</ele><time>2026-05-02T09:50:35.954Z</time></trkpt><trkpt lat="45.88712114933067" lon="9.417944591772978"><ele>591.0</ele><time>2026-05-02T09:50:36.954Z</time></trkpt><trkpt lat="45.887024295444306" lon="9.417987494675733"><ele>591.0</ele><time>2026-05-02T09:50:37.954Z</time></trkpt><trkpt lat="45.8869229681616" lon="9.418057326923048"><ele>591.25</ele><time>2026-05-02T09:50:38.954Z</time></trkpt><trkpt lat="45.886821279622815" lon="9.41815552671324"><ele>591.5</ele><time>2026-05-02T09:50:39.954Z</time></trkpt><trkpt lat="45.886721136067536" lon="9.418282162171222"><ele>591.75</ele><time>2026-05-02T09:50:40.954Z</time></trkpt><trkpt lat="45.88660994067578" lon="9.418382068992553"><ele>592.0</ele><time>2026-05-02T09:50:41.954Z</time></trkpt><trkpt lat="45.88651371915986" lon="9.418514060294735"><ele>594.0</ele><time>2026-05-02T09:50:42.954Z</time></trkpt><trkpt lat="45.88640843177824" lon="9.41864327617333"><ele>596.0</ele><time>2026-05-02T09:50:43.954Z</time></trkpt><trkpt lat="45.88629907439382" lon="9.41876247149543"><ele>598.0</ele><time>2026-05-02T09:50:44.954Z</time></trkpt><trkpt lat="45.88618032408087" lon="9.418857715730763"><ele>600.0</ele><time>2026-05-02T09:50:45.954Z</time></trkpt><trkpt lat="45.88605519771722" lon="9.418923022256923"><ele>598.5</ele><time>2026-05-02T09:50:46.954Z</time></trkpt><trkpt lat="45.8859266591569" lon="9.418978827426429"><ele>597.0</ele><time>2026-05-02T09:50:47.954Z</time></trkpt><trkpt lat="45.885797919175516" lon="9.419014315187916"><ele>595.5</ele><time>2026-05-02T09:50:48.954Z</time></trkpt><trkpt lat="45.88566880024618" lon="9.419009883188377"><ele>594.0</ele><time>2026-05-02T09:50:49.954Z</time></trkpt><trkpt lat="45.88553656896561" lon="9.418996832527236"><ele>594.0</ele><time>2026-05-02T09:50:50.954Z</time></trkpt><trkpt lat="45.8854099828335" lon="9.418976866458644"><ele>594.0</ele><time>2026-05-02T09:50:51.954Z</time></trkpt><trkpt lat="45.88528828705324" lon="9.418958263576352"><ele>594.0</ele><time>2026-05-02T09:50:52.954Z</time></trkpt><trkpt lat="45.88516406924772" lon="9.418942560154422"><ele>594.0</ele><time>2026-05-02T09:50:53.954Z</time></trkpt><trkpt lat="45.8850380220981" lon="9.418938366554995"><ele>594.5</ele><time>2026-05-02T09:50:54.954Z</time></trkpt><trkpt lat="45.88491202254186" lon="9.41893488850897"><ele>595.0</ele><time>2026-05-02T09:50:55.954Z</time></trkpt><trkpt lat="45.88477893093006" lon="9.418941452359094"><ele>595.5</ele><time>2026-05-02T09:50:56.954Z</time></trkpt><trkpt lat="45.88464177021113" lon="9.418949345638534"><ele>596.0</ele><time>2026-05-02T09:50:57.954Z</time></trkpt><trkpt lat="45.88450698077364" lon="9.418957570719929"><ele>596.0</ele><time>2026-05-02T09:50:58.954Z</time></trkpt><trkpt lat="45.88438426018057" lon="9.418965601183135"><ele>596.0</ele><time>2026-05-02T09:50:59.954Z</time></trkpt><trkpt lat="45.884285900141585" lon="9.418966329815353"><ele>596.0</ele><time>2026-05-02T09:51:00.954Z</time></trkpt><trkpt lat="45.884205163287" lon="9.418979144779296"><ele>596.0</ele><time>2026-05-02T09:51:01.954Z</time></trkpt><trkpt lat="45.88413470348611" lon="9.419021456211398"><ele>596.0</ele><time>2026-05-02T09:51:02.954Z</time></trkpt><trkpt lat="45.884086493423666" lon="9.419101138818947"><ele>596.0</ele><time>2026-05-02T09:51:03.954Z</time></trkpt><trkpt lat="45.88406754534196" lon="9.41920241183023"><ele>596.0</ele><time>2026-05-02T09:51:04.954Z</time></trkpt><trkpt lat="45.88408984808798" lon="9.419316624743242"><ele>596.0</ele><time>2026-05-02T09:51:05.954Z</time></trkpt><trkpt lat="45.884132322742715" lon="9.419420628926547"><ele>596.0</ele><time>2026-05-02T09:51:06.954Z</time></trkpt><trkpt lat="45.88421738081992" lon="9.419467264121767"><ele>596.0</ele><time>2026-05-02T09:51:07.954Z</time></trkpt><trkpt lat="45.88431947720664" lon="9.419463201662653"><ele>596.0</ele><time>2026-05-02T09:51:08.954Z</time></trkpt><trkpt lat="45.88442234328903" lon="9.419447839050955"><ele>596.0</ele><time>2026-05-02T09:51:09.954Z</time></trkpt><trkpt lat="45.88454011965786" lon="9.419434597022711"><ele>596.0</ele><time>2026-05-02T09:51:10.954Z</time></trkpt><trkpt lat="45.88466883509702" lon="9.419451451995894"><ele>596.0</ele><time>2026-05-02T09:51:11.954Z</time></trkpt><trkpt lat="45.884808973551856" lon="9.419484316144425"><ele>596.0</ele><time>2026-05-02T09:51:12.954Z</time></trkpt><trkpt lat="45.884958232760226" lon="9.419525085308356"><ele>595.5</ele><time>2026-05-02T09:51:13.955Z</time></trkpt><trkpt lat="45.885104447132385" lon="9.419566758450348"><ele>595.0</ele><time>2026-05-02T09:51:14.955Z</time></trkpt><trkpt lat="45.885249824538235" lon="9.419608748480934"><ele>594.5</ele><time>2026-05-02T09:51:15.955Z</time></trkpt><trkpt lat="45.88538059538957" lon="9.419651485271384"><ele>594.0</ele><time>2026-05-02T09:51:16.955Z</time></trkpt><trkpt lat="45.88551054530262" lon="9.419707109381683"><ele>600.75</ele><time>2026-05-02T09:51:17.955Z</time></trkpt><trkpt lat="45.88562289679262" lon="9.419773850390133"><ele>607.5</ele><time>2026-05-02T09:51:18.955Z</time></trkpt><trkpt lat="45.88572821159059" lon="9.419849456651491"><ele>614.25</ele><time>2026-05-02T09:51:19.955Z</time></trkpt><trkpt lat="45.88585285800293" lon="9.419952870329197"><ele>621.0</ele><time>2026-05-02T09:51:20.955Z</time></trkpt><trkpt lat="45.88595733662205" lon="9.420025030434342"><ele>621.0</ele><time>2026-05-02T09:51:21.955Z</time></trkpt><trkpt lat="45.88607362208406" lon="9.420094921825294"><ele>621.0</ele><time>2026-05-02T09:51:22.955Z</time></trkpt><trkpt lat="45.88618957722439" lon="9.420144513496954"><ele>621.0</ele><time>2026-05-02T09:51:23.955Z</time></trkpt><trkpt lat="45.88630999662878" lon="9.420192851723007"><ele>621.0</ele><time>2026-05-02T09:51:24.955Z</time></trkpt><trkpt lat="45.886424557759966" lon="9.420218546734294"><ele>621.0</ele><time>2026-05-02T09:51:25.955Z</time></trkpt><trkpt lat="45.88655294197639" lon="9.420217253509032"><ele>621.0</ele><time>2026-05-02T09:51:26.955Z</time></trkpt><trkpt lat="45.88667968691915" lon="9.4202002815198"><ele>621.0</ele><time>2026-05-02T09:51:27.955Z</time></trkpt><trkpt lat="45.88682520112727" lon="9.420218125903848"><ele>621.0</ele><time>2026-05-02T09:51:28.955Z</time></trkpt><trkpt lat="45.8869535862822" lon="9.420197169881607"><ele>623.6</ele><time>2026-05-02T09:51:29.955Z</time></trkpt><trkpt lat="45.88707020217552" lon="9.420169134493396"><ele>626.2</ele><time>2026-05-02T09:51:30.955Z</time></trkpt><trkpt lat="45.88718117088392" lon="9.420143220600341"><ele>628.8</ele><time>2026-05-02T09:51:31.955Z</time></trkpt><trkpt lat="45.887288193259714" lon="9.420126807163966"><ele>631.4</ele><time>2026-05-02T09:51:32.955Z</time></trkpt><trkpt lat="45.88739397576246" lon="9.42012765239672"><ele>634.0</ele><time>2026-05-02T09:51:33.955Z</time></trkpt><trkpt lat="45.887497767362795" lon="9.420147102408404"><ele>637.75</ele><time>2026-05-02T09:51:34.955Z</time></trkpt><trkpt lat="45.88760352797291" lon="9.420186429302575"><ele>641.5</ele><time>2026-05-02T09:51:35.955Z</time></trkpt><trkpt lat="45.88770235640747" lon="9.420252770987405"><ele>645.25</ele><time>2026-05-02T09:51:36.955Z</time></trkpt><trkpt lat="45.88779944658153" lon="9.420356186532745"><ele>649.0</ele><time>2026-05-02T09:51:37.955Z</time></trkpt><trkpt lat="45.887889481568244" lon="9.420471653486684"><ele>647.25</ele><time>2026-05-02T09:51:38.955Z</time></trkpt><trkpt lat="45.88797659815085" lon="9.42059389740307"><ele>645.5</ele><time>2026-05-02T09:51:39.955Z</time></trkpt><trkpt lat="45.888076079870416" lon="9.420703616169632"><ele>643.75</ele><time>2026-05-02T09:51:40.955Z</time></trkpt><trkpt lat="45.88818656627393" lon="9.420790461356262"><ele>642.0</ele><time>2026-05-02T09:51:41.955Z</time></trkpt><trkpt lat="45.88831221954397" lon="9.420856986140697"><ele>643.75</ele><time>2026-05-02T09:51:42.955Z</time></trkpt><trkpt lat="45.88845157105449" lon="9.420896921959374"><ele>645.5</ele><time>2026-05-02T09:51:43.955Z</time></trkpt><trkpt lat="45.88859261454907" lon="9.42092431529369"><ele>647.25</ele><time>2026-05-02T09:51:44.955Z</time></trkpt><trkpt lat="45.88873498535765" lon="9.420955688695278"><ele>649.0</ele><time>2026-05-02T09:51:45.955Z</time></trkpt><trkpt lat="45.888874809149435" lon="9.421008017613687"><ele>649.0</ele><time>2026-05-02T09:51:46.953Z</time></trkpt><trkpt lat="45.889015895483375" lon="9.421075371232888"><ele>649.0</ele><time>2026-05-02T09:51:47.953Z</time></trkpt><trkpt lat="45.889149810716" lon="9.421155498947089"><ele>649.0</ele><time>2026-05-02T09:51:48.953Z</time></trkpt><trkpt lat="45.88928166433509" lon="9.421241569003909"><ele>649.0</ele><time>2026-05-02T09:51:49.953Z</time></trkpt><trkpt lat="45.88940627586826" lon="9.421340316456615"><ele>649.25</ele><time>2026-05-02T09:51:50.953Z</time></trkpt><trkpt lat="45.88952377645843" lon="9.421454500681964"><ele>649.5</ele><time>2026-05-02T09:51:51.953Z</time></trkpt><trkpt lat="45.88964003698317" lon="9.421569026795622"><ele>649.75</ele><time>2026-05-02T09:51:52.953Z</time></trkpt><trkpt lat="45.88975717931708" lon="9.421687970256805"><ele>650.0</ele><time>2026-05-02T09:51:53.953Z</time></trkpt><trkpt lat="45.889870848657154" lon="9.421806432783333"><ele>650.0</ele><time>2026-05-02T09:51:54.953Z</time></trkpt><trkpt lat="45.88998610025273" lon="9.421923285185123"><ele>650.0</ele><time>2026-05-02T09:51:55.953Z</time></trkpt><trkpt lat="45.89021542445952" lon="9.42215976120955"><ele>650.0</ele><time>2026-05-02T09:51:57.953Z</time></trkpt><trkpt lat="45.890332872578995" lon="9.422277688505243"><ele>649.25</ele><time>2026-05-02T09:51:58.953Z</time></trkpt><trkpt lat="45.89045087363623" lon="9.422398696907852"><ele>648.5</ele><time>2026-05-02T09:51:59.953Z</time></trkpt><trkpt lat="45.890566575571754" lon="9.422515172645992"><ele>647.75</ele><time>2026-05-02T09:52:00.953Z</time></trkpt><trkpt lat="45.89067704731346" lon="9.42262800048527"><ele>647.0</ele><time>2026-05-02T09:52:01.953Z</time></trkpt><trkpt lat="45.890781878908356" lon="9.422733602698633"><ele>647.0</ele><time>2026-05-02T09:52:02.953Z</time></trkpt><trkpt lat="45.89088819269553" lon="9.422840410866323"><ele>647.0</ele><time>2026-05-02T09:52:03.954Z</time></trkpt><trkpt lat="45.89099713096374" lon="9.422949006271667"><ele>647.0</ele><time>2026-05-02T09:52:04.954Z</time></trkpt><trkpt lat="45.891101648656985" lon="9.4230590369391"><ele>647.0</ele><time>2026-05-02T09:52:05.954Z</time></trkpt><trkpt lat="45.89120775317384" lon="9.423172728861639"><ele>647.5</ele><time>2026-05-02T09:52:06.954Z</time></trkpt><trkpt lat="45.89131944073885" lon="9.423285836876099"><ele>648.0</ele><time>2026-05-02T09:52:07.954Z</time></trkpt><trkpt lat="45.89143273353277" lon="9.423404166271979"><ele>648.5</ele><time>2026-05-02T09:52:08.954Z</time></trkpt><trkpt lat="45.89153862639029" lon="9.423515912249922"><ele>649.0</ele><time>2026-05-02T09:52:09.954Z</time></trkpt><trkpt lat="45.89163739563804" lon="9.423618388966439"><ele>649.0</ele><time>2026-05-02T09:52:10.954Z</time></trkpt><trkpt lat="45.89173227808534" lon="9.423715310792184"><ele>649.0</ele><time>2026-05-02T09:52:11.954Z</time></trkpt><trkpt lat="45.89183021545353" lon="9.42381274488805"><ele>649.0</ele><time>2026-05-02T09:52:12.954Z</time></trkpt><trkpt lat="45.891926590200555" lon="9.423915099473668"><ele>649.0</ele><time>2026-05-02T09:52:13.954Z</time></trkpt><trkpt lat="45.89202409104637" lon="9.424020218988234"><ele>650.0</ele><time>2026-05-02T09:52:14.954Z</time></trkpt><trkpt lat="45.89212709047386" lon="9.424121065050763"><ele>651.0</ele><time>2026-05-02T09:52:15.954Z</time></trkpt><trkpt lat="45.892226710658015" lon="9.424226078813701"><ele>652.0</ele><time>2026-05-02T09:52:16.954Z</time></trkpt><trkpt lat="45.89233083867903" lon="9.424329647005615"><ele>653.0</ele><time>2026-05-02T09:52:17.954Z</time></trkpt><trkpt lat="45.89243711985711" lon="9.424436892781133"><ele>653.0</ele><time>2026-05-02T09:52:18.954Z</time></trkpt><trkpt lat="45.89254368490275" lon="9.424543623600968"><ele>653.0</ele><time>2026-05-02T09:52:19.954Z</time></trkpt><trkpt lat="45.892644268896596" lon="9.42464651348701"><ele>653.0</ele><time>2026-05-02T09:52:20.954Z</time></trkpt><trkpt lat="45.89274367775089" lon="9.424751972752645"><ele>653.0</ele><time>2026-05-02T09:52:21.954Z</time></trkpt><trkpt lat="45.89284592562028" lon="9.424855995937907"><ele>653.75</ele><time>2026-05-02T09:52:22.954Z</time></trkpt><trkpt lat="45.8929468917464" lon="9.424961871820981"><ele>654.5</ele><time>2026-05-02T09:52:23.954Z</time></trkpt><trkpt lat="45.893047629760964" lon="9.425057063562702"><ele>655.25</ele><time>2026-05-02T09:52:24.954Z</time></trkpt><trkpt lat="45.89314670200504" lon="9.425142439213309"><ele>656.0</ele><time>2026-05-02T09:52:25.954Z</time></trkpt><trkpt lat="45.893241925976206" lon="9.425215074415751"><ele>656.0</ele><time>2026-05-02T09:52:26.954Z</time></trkpt><trkpt lat="45.89333642834484" lon="9.425279050690495"><ele>656.0</ele><time>2026-05-02T09:52:27.954Z</time></trkpt><trkpt lat="45.893427242780746" lon="9.425328530155763"><ele>656.0</ele><time>2026-05-02T09:52:28.954Z</time></trkpt><trkpt lat="45.89351448458662" lon="9.425372127495486"><ele>656.0</ele><time>2026-05-02T09:52:29.954Z</time></trkpt><trkpt lat="45.893605400371136" lon="9.425410033093529"><ele>656.0</ele><time>2026-05-02T09:52:30.954Z</time></trkpt><trkpt lat="45.893694973566035" lon="9.42544578705631"><ele>657.25</ele><time>2026-05-02T09:52:31.954Z</time></trkpt><trkpt lat="45.89379097505558" lon="9.425472122312758"><ele>658.5</ele><time>2026-05-02T09:52:32.954Z</time></trkpt><trkpt lat="45.893899281032205" lon="9.425490615447917"><ele>659.75</ele><time>2026-05-02T09:52:33.954Z</time></trkpt><trkpt lat="45.89402726210589" lon="9.425496171580711"><ele>661.0</ele><time>2026-05-02T09:52:34.954Z</time></trkpt><trkpt lat="45.89416613576856" lon="9.42548961108689"><ele>662.0</ele><time>2026-05-02T09:52:35.954Z</time></trkpt><trkpt lat="45.89430860577529" lon="9.4254781543988"><ele>663.0</ele><time>2026-05-02T09:52:36.954Z</time></trkpt><trkpt lat="45.89444257219846" lon="9.425465203737206"><ele>664.0</ele><time>2026-05-02T09:52:37.954Z</time></trkpt><trkpt lat="45.89457474792749" lon="9.425447528213699"><ele>665.0</ele><time>2026-05-02T09:52:38.954Z</time></trkpt><trkpt lat="45.89470399742654" lon="9.425432373766107"><ele>665.0</ele><time>2026-05-02T09:52:39.954Z</time></trkpt><trkpt lat="45.89483477083312" lon="9.425415744372053"><ele>665.0</ele><time>2026-05-02T09:52:40.954Z</time></trkpt><trkpt lat="45.8949653597928" lon="9.4253965919878"><ele>665.0</ele><time>2026-05-02T09:52:41.954Z</time></trkpt><trkpt lat="45.89508749281552" lon="9.425380971866627"><ele>665.0</ele><time>2026-05-02T09:52:42.954Z</time></trkpt><trkpt lat="45.89520190335738" lon="9.425368135113649"><ele>665.8333333333333</ele><time>2026-05-02T09:52:43.954Z</time></trkpt><trkpt lat="45.895308156740334" lon="9.425357293916212"><ele>666.6666666666666</ele><time>2026-05-02T09:52:44.954Z</time></trkpt><trkpt lat="45.895406486561065" lon="9.425346535556711"><ele>667.5</ele><time>2026-05-02T09:52:45.954Z</time></trkpt><trkpt lat="45.89549324373599" lon="9.425336676438395"><ele>668.3333333333334</ele><time>2026-05-02T09:52:46.954Z</time></trkpt><trkpt lat="45.89557034099356" lon="9.425325625223183"><ele>669.1666666666667</ele><time>2026-05-02T09:52:47.954Z</time></trkpt><trkpt lat="45.89564416438723" lon="9.425315707196841"><ele>670.0</ele><time>2026-05-02T09:52:48.954Z</time></trkpt><trkpt lat="45.89571323511868" lon="9.42530356003391"><ele>670.0</ele><time>2026-05-02T09:52:49.954Z</time></trkpt><trkpt lat="45.895822009477286" lon="9.425290779517672"><ele>670.0</ele><time>2026-05-02T09:52:51.954Z</time></trkpt><trkpt lat="45.89590455661445" lon="9.425299968186202"><ele>670.0</ele><time>2026-05-02T09:52:53.954Z</time></trkpt><trkpt lat="45.895974239398384" lon="9.425358059003067"><ele>670.0</ele><time>2026-05-02T09:52:55.954Z</time></trkpt><trkpt lat="45.8960356975857" lon="9.425472221135868"><ele>670.0</ele><time>2026-05-02T09:52:57.954Z</time></trkpt><trkpt lat="45.89611556932036" lon="9.425609525213016"><ele>670.8571428571428</ele><time>2026-05-02T09:52:59.954Z</time></trkpt><trkpt lat="45.896179312225094" lon="9.425645260542362"><ele>671.7142857142857</ele><time>2026-05-02T09:53:00.954Z</time></trkpt><trkpt lat="45.896247503523654" lon="9.425644497484232"><ele>672.5714285714286</ele><time>2026-05-02T09:53:01.954Z</time></trkpt><trkpt lat="45.89631347298533" lon="9.425609161547222"><ele>673.4285714285713</ele><time>2026-05-02T09:53:02.954Z</time></trkpt><trkpt lat="45.89636426586201" lon="9.425530556875007"><ele>674.2857142857142</ele><time>2026-05-02T09:53:03.954Z</time></trkpt><trkpt lat="45.89639959269739" lon="9.425437122309884"><ele>675.1428571428571</ele><time>2026-05-02T09:53:04.954Z</time></trkpt><trkpt lat="45.896434922002356" lon="9.425339593718753"><ele>676.0</ele><time>2026-05-02T09:53:05.954Z</time></trkpt><trkpt lat="45.896486133477715" lon="9.425266039128335"><ele>676.0</ele><time>2026-05-02T09:53:06.954Z</time></trkpt><trkpt lat="45.896552086726984" lon="9.425233040348315"><ele>676.0</ele><time>2026-05-02T09:53:07.954Z</time></trkpt><trkpt lat="45.896632897565816" lon="9.425229688021792"><ele>676.0</ele><time>2026-05-02T09:53:08.954Z</time></trkpt><trkpt lat="45.89672325573387" lon="9.425235636649969"><ele>676.0</ele><time>2026-05-02T09:53:09.954Z</time></trkpt><trkpt lat="45.896817941108814" lon="9.42524500182726"><ele>676.0</ele><time>2026-05-02T09:53:10.955Z</time></trkpt><trkpt lat="45.89691829167719" lon="9.425259349218639"><ele>676.0</ele><time>2026-05-02T09:53:11.955Z</time></trkpt><trkpt lat="45.89702500663463" lon="9.425293067902"><ele>677.0</ele><time>2026-05-02T09:53:12.955Z</time></trkpt><trkpt lat="45.897132095997094" lon="9.425331498650317"><ele>678.0</ele><time>2026-05-02T09:53:13.955Z</time></trkpt><trkpt lat="45.89723849453053" lon="9.425384789632067"><ele>679.0</ele><time>2026-05-02T09:53:14.955Z</time></trkpt><trkpt lat="45.897346946719814" lon="9.425449395197347"><ele>680.0</ele><time>2026-05-02T09:53:15.955Z</time></trkpt><trkpt lat="45.89745261815258" lon="9.425514319586417"><ele>680.0</ele><time>2026-05-02T09:53:16.955Z</time></trkpt><trkpt lat="45.897559474157696" lon="9.425574198226375"><ele>680.0</ele><time>2026-05-02T09:53:17.955Z</time></trkpt><trkpt lat="45.897670668223014" lon="9.42563653470246"><ele>680.0</ele><time>2026-05-02T09:53:18.955Z</time></trkpt><trkpt lat="45.89777963952644" lon="9.425699665780936"><ele>680.0</ele><time>2026-05-02T09:53:19.955Z</time></trkpt><trkpt lat="45.89789212121529" lon="9.425766928476328"><ele>681.75</ele><time>2026-05-02T09:53:20.955Z</time></trkpt><trkpt lat="45.89800780616328" lon="9.425832275974738"><ele>683.5</ele><time>2026-05-02T09:53:21.955Z</time></trkpt><trkpt lat="45.89812674963204" lon="9.42589303048615"><ele>685.25</ele><time>2026-05-02T09:53:22.955Z</time></trkpt><trkpt lat="45.89824102574314" lon="9.425965166868009"><ele>687.0</ele><time>2026-05-02T09:53:23.955Z</time></trkpt><trkpt lat="45.89835802266181" lon="9.426035578962896"><ele>687.75</ele><time>2026-05-02T09:53:24.955Z</time></trkpt><trkpt lat="45.898473965959745" lon="9.42610465893472"><ele>688.5</ele><time>2026-05-02T09:53:25.955Z</time></trkpt><trkpt lat="45.8985900859506" lon="9.426173442561929"><ele>689.25</ele><time>2026-05-02T09:53:26.955Z</time></trkpt><trkpt lat="45.89870507899579" lon="9.426238485765907"><ele>690.0</ele><time>2026-05-02T09:53:27.955Z</time></trkpt><trkpt lat="45.89882080993684" lon="9.426302416738189"><ele>690.75</ele><time>2026-05-02T09:53:28.955Z</time></trkpt><trkpt lat="45.89894163811521" lon="9.42636180941744"><ele>691.5</ele><time>2026-05-02T09:53:29.955Z</time></trkpt><trkpt lat="45.89906683582617" lon="9.426414071006333"><ele>692.25</ele><time>2026-05-02T09:53:30.955Z</time></trkpt><trkpt lat="45.8991993252653" lon="9.426452664744295"><ele>693.0</ele><time>2026-05-02T09:53:31.955Z</time></trkpt><trkpt lat="45.89932884841219" lon="9.426487372418652"><ele>694.25</ele><time>2026-05-02T09:53:32.955Z</time></trkpt><trkpt lat="45.89945727654576" lon="9.426520732697846"><ele>695.5</ele><time>2026-05-02T09:53:33.955Z</time></trkpt><trkpt lat="45.899578866230016" lon="9.42655148588101"><ele>696.75</ele><time>2026-05-02T09:53:34.955Z</time></trkpt><trkpt lat="45.899696233541796" lon="9.42658064702601"><ele>698.0</ele><time>2026-05-02T09:53:35.955Z</time></trkpt><trkpt lat="45.89979975373701" lon="9.426609028921805"><ele>698.0</ele><time>2026-05-02T09:53:36.955Z</time></trkpt><trkpt lat="45.899881444971676" lon="9.426626841884232"><ele>698.0</ele><time>2026-05-02T09:53:37.955Z</time></trkpt><trkpt lat="45.89996932105994" lon="9.426643300565797"><ele>698.0</ele><time>2026-05-02T09:53:38.955Z</time></trkpt><trkpt lat="45.90006250383367" lon="9.426707248078257"><ele>698.0</ele><time>2026-05-02T09:53:39.955Z</time></trkpt><trkpt lat="45.90015854622612" lon="9.426732490080958"><ele>698.0</ele><time>2026-05-02T09:53:40.955Z</time></trkpt><trkpt lat="45.90026235170584" lon="9.426766806540611"><ele>698.75</ele><time>2026-05-02T09:53:41.955Z</time></trkpt><trkpt lat="45.900370418275045" lon="9.426801626749322"><ele>699.5</ele><time>2026-05-02T09:53:42.955Z</time></trkpt><trkpt lat="45.900492188278434" lon="9.426826394608758"><ele>700.25</ele><time>2026-05-02T09:53:43.955Z</time></trkpt><trkpt lat="45.900604252397805" lon="9.426856698444023"><ele>701.0</ele><time>2026-05-02T09:53:44.955Z</time></trkpt><trkpt lat="45.900718373039155" lon="9.42689080116666"><ele>701.0</ele><time>2026-05-02T09:53:45.955Z</time></trkpt><trkpt lat="45.90082459796691" lon="9.42692041300136"><ele>701.0</ele><time>2026-05-02T09:53:46.955Z</time></trkpt><trkpt lat="45.90093334526368" lon="9.42694883785415"><ele>701.0</ele><time>2026-05-02T09:53:47.955Z</time></trkpt><trkpt lat="45.90104679170912" lon="9.426979398851516"><ele>701.0</ele><time>2026-05-02T09:53:48.955Z</time></trkpt><trkpt lat="45.90116326907333" lon="9.427004007516228"><ele>701.0</ele><time>2026-05-02T09:53:49.955Z</time></trkpt><trkpt lat="45.90127918941614" lon="9.427035157663287"><ele>701.0</ele><time>2026-05-02T09:53:50.955Z</time></trkpt><trkpt lat="45.901398105229205" lon="9.427069263515174"><ele>701.0</ele><time>2026-05-02T09:53:51.952Z</time></trkpt><trkpt lat="45.90152097053769" lon="9.427103072104366"><ele>701.0</ele><time>2026-05-02T09:53:52.952Z</time></trkpt><trkpt lat="45.901642206747205" lon="9.427140889213389"><ele>700.25</ele><time>2026-05-02T09:53:53.953Z</time></trkpt><trkpt lat="45.901761454774764" lon="9.42717999963162"><ele>699.5</ele><time>2026-05-02T09:53:54.952Z</time></trkpt><trkpt lat="45.90188281662497" lon="9.427217707804918"><ele>698.75</ele><time>2026-05-02T09:53:55.952Z</time></trkpt><trkpt lat="45.902008441418104" lon="9.427254562419845"><ele>698.0</ele><time>2026-05-02T09:53:56.952Z</time></trkpt><trkpt lat="45.90213855494329" lon="9.427291323335824"><ele>698.0</ele><time>2026-05-02T09:53:57.952Z</time></trkpt><trkpt lat="45.90227294525956" lon="9.427326869374898"><ele>698.0</ele><time>2026-05-02T09:53:58.952Z</time></trkpt><trkpt lat="45.902410576753596" lon="9.42736537211416"><ele>698.0</ele><time>2026-05-02T09:53:59.952Z</time></trkpt><trkpt lat="45.9025484849654" lon="9.427410378756935"><ele>698.0</ele><time>2026-05-02T09:54:00.952Z</time></trkpt><trkpt lat="45.90268513529631" lon="9.42745893117275"><ele>697.5</ele><time>2026-05-02T09:54:01.952Z</time></trkpt><trkpt lat="45.902821144912835" lon="9.42751549471651"><ele>697.0</ele><time>2026-05-02T09:54:02.952Z</time></trkpt><trkpt lat="45.90296416094191" lon="9.42758266702855"><ele>696.5</ele><time>2026-05-02T09:54:03.952Z</time></trkpt><trkpt lat="45.903106169170016" lon="9.427654744923244"><ele>696.0</ele><time>2026-05-02T09:54:04.952Z</time></trkpt><trkpt lat="45.90325042918337" lon="9.427733057639072"><ele>696.0</ele><time>2026-05-02T09:54:05.952Z</time></trkpt><trkpt lat="45.90338989806827" lon="9.427808241869634"><ele>696.0</ele><time>2026-05-02T09:54:06.952Z</time></trkpt><trkpt lat="45.90352633787878" lon="9.427881895868294"><ele>696.0</ele><time>2026-05-02T09:54:07.952Z</time></trkpt><trkpt lat="45.903656261758925" lon="9.427954344135017"><ele>696.0</ele><time>2026-05-02T09:54:08.952Z</time></trkpt><trkpt lat="45.90378170376902" lon="9.42802705949414"><ele>695.5</ele><time>2026-05-02T09:54:09.952Z</time></trkpt><trkpt lat="45.903902370096375" lon="9.428099516217651"><ele>695.0</ele><time>2026-05-02T09:54:10.952Z</time></trkpt><trkpt lat="45.90402285376185" lon="9.428164660232877"><ele>694.5</ele><time>2026-05-02T09:54:11.952Z</time></trkpt><trkpt lat="45.90414130590138" lon="9.428232180689658"><ele>694.0</ele><time>2026-05-02T09:54:12.952Z</time></trkpt><trkpt lat="45.904260025579326" lon="9.428296257456154"><ele>692.75</ele><time>2026-05-02T09:54:13.952Z</time></trkpt><trkpt lat="45.904385189655734" lon="9.428366957320646"><ele>691.5</ele><time>2026-05-02T09:54:14.952Z</time></trkpt><trkpt lat="45.904514923175675" lon="9.4284382821373"><ele>690.25</ele><time>2026-05-02T09:54:15.952Z</time></trkpt><trkpt lat="45.904646828654876" lon="9.428512571340958"><ele>689.0</ele><time>2026-05-02T09:54:16.953Z</time></trkpt><trkpt lat="45.90478306757621" lon="9.42858774442339"><ele>689.0</ele><time>2026-05-02T09:54:17.953Z</time></trkpt><trkpt lat="45.90492315870512" lon="9.428661304595789"><ele>689.0</ele><time>2026-05-02T09:54:18.953Z</time></trkpt><trkpt lat="45.90506669031117" lon="9.42873992265428"><ele>689.0</ele><time>2026-05-02T09:54:19.953Z</time></trkpt><trkpt lat="45.905211754117026" lon="9.428821484295087"><ele>688.3333333333333</ele><time>2026-05-02T09:54:20.953Z</time></trkpt><trkpt lat="45.9053550822157" lon="9.428903505975084"><ele>687.6666666666666</ele><time>2026-05-02T09:54:21.953Z</time></trkpt><trkpt lat="45.90550035427299" lon="9.428987202545938"><ele>687.0</ele><time>2026-05-02T09:54:22.953Z</time></trkpt><trkpt lat="45.90564105895784" lon="9.429068398768543"><ele>687.0</ele><time>2026-05-02T09:54:23.953Z</time></trkpt><trkpt lat="45.90578375533291" lon="9.42915062221282"><ele>687.0</ele><time>2026-05-02T09:54:24.953Z</time></trkpt><trkpt lat="45.905925909038174" lon="9.429229912868523"><ele>687.0</ele><time>2026-05-02T09:54:25.953Z</time></trkpt><trkpt lat="45.90606922590874" lon="9.429310488906664"><ele>689.0</ele><time>2026-05-02T09:54:26.953Z</time></trkpt><trkpt lat="45.90620786478251" lon="9.42938784742372"><ele>691.0</ele><time>2026-05-02T09:54:27.953Z</time></trkpt><trkpt lat="45.906339988601474" lon="9.429459608992026"><ele>693.0</ele><time>2026-05-02T09:54:28.953Z</time></trkpt><trkpt lat="45.90646537300573" lon="9.429529444350209"><ele>695.0</ele><time>2026-05-02T09:54:29.953Z</time></trkpt><trkpt lat="45.9065872562519" lon="9.429599485978148"><ele>695.0</ele><time>2026-05-02T09:54:30.953Z</time></trkpt><trkpt lat="45.90670551980747" lon="9.429662367119441"><ele>695.0</ele><time>2026-05-02T09:54:31.953Z</time></trkpt><trkpt lat="45.906819218573006" lon="9.429723793383161"><ele>695.0</ele><time>2026-05-02T09:54:32.953Z</time></trkpt><trkpt lat="45.90693062126691" lon="9.429791667292495"><ele>695.0</ele><time>2026-05-02T09:54:33.953Z</time></trkpt><trkpt lat="45.90704136550026" lon="9.429851519871258"><ele>695.0</ele><time>2026-05-02T09:54:34.953Z</time></trkpt><trkpt lat="45.90715514013976" lon="9.429905560022313"><ele>695.0</ele><time>2026-05-02T09:54:35.953Z</time></trkpt><trkpt lat="45.90727089082628" lon="9.429969843400965"><ele>695.0</ele><time>2026-05-02T09:54:36.953Z</time></trkpt><trkpt lat="45.9073892452523" lon="9.43003503796018"><ele>695.0</ele><time>2026-05-02T09:54:37.953Z</time></trkpt><trkpt lat="45.90751426700714" lon="9.430113444880051"><ele>699.25</ele><time>2026-05-02T09:54:38.953Z</time></trkpt><trkpt lat="45.90764401980722" lon="9.430172138907277"><ele>703.5</ele><time>2026-05-02T09:54:39.953Z</time></trkpt><trkpt lat="45.907773378665915" lon="9.430223521978546"><ele>707.75</ele><time>2026-05-02T09:54:40.953Z</time></trkpt><trkpt lat="45.90790167588371" lon="9.43027216131196"><ele>712.0</ele><time>2026-05-02T09:54:41.953Z</time></trkpt><trkpt lat="45.908033583616294" lon="9.430330656933895"><ele>712.0</ele><time>2026-05-02T09:54:42.953Z</time></trkpt><trkpt lat="45.908169422750674" lon="9.430377546088046"><ele>712.0</ele><time>2026-05-02T09:54:43.953Z</time></trkpt><trkpt lat="45.9083072180036" lon="9.430424449944596"><ele>712.0</ele><time>2026-05-02T09:54:44.953Z</time></trkpt><trkpt lat="45.908449538950606" lon="9.430469515974037"><ele>712.0</ele><time>2026-05-02T09:54:45.953Z</time></trkpt><trkpt lat="45.908590860534844" lon="9.430507621985564"><ele>707.0</ele><time>2026-05-02T09:54:46.953Z</time></trkpt><trkpt lat="45.90873186896145" lon="9.430558211828739"><ele>702.0</ele><time>2026-05-02T09:54:47.953Z</time></trkpt><trkpt lat="45.908872277078416" lon="9.430603488457837"><ele>697.0</ele><time>2026-05-02T09:54:48.953Z</time></trkpt><trkpt lat="45.909012996687046" lon="9.43065365157078"><ele>692.0</ele><time>2026-05-02T09:54:49.953Z</time></trkpt><trkpt lat="45.90915866909875" lon="9.430694673892964"><ele>695.0</ele><time>2026-05-02T09:54:50.953Z</time></trkpt><trkpt lat="45.909305321197266" lon="9.430744490815458"><ele>698.0</ele><time>2026-05-02T09:54:51.953Z</time></trkpt><trkpt lat="45.9094497996139" lon="9.430799261715716"><ele>701.0</ele><time>2026-05-02T09:54:52.953Z</time></trkpt><trkpt lat="45.90959914364063" lon="9.430842570739218"><ele>701.0</ele><time>2026-05-02T09:54:53.953Z</time></trkpt><trkpt lat="45.909751790663165" lon="9.430897471854411"><ele>701.0</ele><time>2026-05-02T09:54:54.953Z</time></trkpt><trkpt lat="45.90990384418476" lon="9.430947877322847"><ele>701.0</ele><time>2026-05-02T09:54:55.953Z</time></trkpt><trkpt lat="45.91005649114839" lon="9.430996004464003"><ele>702.0</ele><time>2026-05-02T09:54:56.953Z</time></trkpt><trkpt lat="45.91021008693928" lon="9.431036504837905"><ele>703.0</ele><time>2026-05-02T09:54:57.953Z</time></trkpt><trkpt lat="45.910365780443755" lon="9.43108120088739"><ele>704.0</ele><time>2026-05-02T09:54:58.953Z</time></trkpt><trkpt lat="45.91051857601971" lon="9.431132864776057"><ele>704.0</ele><time>2026-05-02T09:54:59.953Z</time></trkpt><trkpt lat="45.910673689250544" lon="9.431188162311265"><ele>704.0</ele><time>2026-05-02T09:55:00.953Z</time></trkpt><trkpt lat="45.910834639841596" lon="9.431245281821328"><ele>704.0</ele><time>2026-05-02T09:55:01.953Z</time></trkpt><trkpt lat="45.91099488360637" lon="9.43130777941469"><ele>700.0</ele><time>2026-05-02T09:55:02.953Z</time></trkpt><trkpt lat="45.91115432366632" lon="9.431377689585684"><ele>696.0</ele><time>2026-05-02T09:55:03.953Z</time></trkpt><trkpt lat="45.91130919879072" lon="9.431454761788574"><ele>692.0</ele><time>2026-05-02T09:55:04.953Z</time></trkpt><trkpt lat="45.911469787188636" lon="9.431537663283711"><ele>692.0</ele><time>2026-05-02T09:55:05.953Z</time></trkpt><trkpt lat="45.91162772694777" lon="9.43162855792352"><ele>692.0</ele><time>2026-05-02T09:55:06.953Z</time></trkpt><trkpt lat="45.911784859484506" lon="9.431723133995424"><ele>692.0</ele><time>2026-05-02T09:55:07.953Z</time></trkpt><trkpt lat="45.911941548100536" lon="9.431820248666078"><ele>697.0</ele><time>2026-05-02T09:55:08.953Z</time></trkpt><trkpt lat="45.912099406879186" lon="9.43191828550645"><ele>702.0</ele><time>2026-05-02T09:55:09.953Z</time></trkpt><trkpt lat="45.91225815223923" lon="9.43202306037226"><ele>707.0</ele><time>2026-05-02T09:55:10.953Z</time></trkpt><trkpt lat="45.91242077109817" lon="9.432125769338912"><ele>703.6666666666666</ele><time>2026-05-02T09:55:11.953Z</time></trkpt><trkpt lat="45.912577426614185" lon="9.432233048735116"><ele>700.3333333333334</ele><time>2026-05-02T09:55:12.953Z</time></trkpt><trkpt lat="45.91273774710442" lon="9.432339499524968"><ele>697.0</ele><time>2026-05-02T09:55:13.953Z</time></trkpt><trkpt lat="45.91289708691488" lon="9.432445842918472"><ele>697.0</ele><time>2026-05-02T09:55:14.953Z</time></trkpt><trkpt lat="45.91305818890629" lon="9.432551904515904"><ele>697.0</ele><time>2026-05-02T09:55:15.953Z</time></trkpt><trkpt lat="45.91321948229643" lon="9.432660519343118"><ele>697.0</ele><time>2026-05-02T09:55:16.953Z</time></trkpt><trkpt lat="45.913371434136295" lon="9.43277120002735"><ele>694.6666666666667</ele><time>2026-05-02T09:55:17.953Z</time></trkpt><trkpt lat="45.91352870994438" lon="9.432879947268495"><ele>692.3333333333334</ele><time>2026-05-02T09:55:18.953Z</time></trkpt><trkpt lat="45.91368676849292" lon="9.432990693896754"><ele>690.0</ele><time>2026-05-02T09:55:19.953Z</time></trkpt><trkpt lat="45.91384162903841" lon="9.4331018820955"><ele>690.0</ele><time>2026-05-02T09:55:20.953Z</time></trkpt><trkpt lat="45.91399647445746" lon="9.433218256030816"><ele>690.0</ele><time>2026-05-02T09:55:21.953Z</time></trkpt><trkpt lat="45.914153411067076" lon="9.433333583768684"><ele>690.0</ele><time>2026-05-02T09:55:22.953Z</time></trkpt><trkpt lat="45.914310564282985" lon="9.433448786985261"><ele>697.3333333333334</ele><time>2026-05-02T09:55:23.953Z</time></trkpt><trkpt lat="45.91445983767106" lon="9.433566351304774"><ele>704.6666666666667</ele><time>2026-05-02T09:55:24.954Z</time></trkpt><trkpt lat="45.914600749265595" lon="9.433680772782447"><ele>712.0</ele><time>2026-05-02T09:55:25.954Z</time></trkpt><trkpt lat="45.91474244217098" lon="9.433792502253429"><ele>708.3333333333334</ele><time>2026-05-02T09:55:26.954Z</time></trkpt><trkpt lat="45.914882890763536" lon="9.433903235447703"><ele>704.6666666666666</ele><time>2026-05-02T09:55:27.954Z</time></trkpt><trkpt lat="45.91502127793696" lon="9.43401321180001"><ele>701.0</ele><time>2026-05-02T09:55:28.954Z</time></trkpt><trkpt lat="45.91515982799929" lon="9.434120400572281"><ele>707.75</ele><time>2026-05-02T09:55:29.954Z</time></trkpt><trkpt lat="45.915290583114555" lon="9.434227241061"><ele>714.5</ele><time>2026-05-02T09:55:30.954Z</time></trkpt><trkpt lat="45.9154209562652" lon="9.434332204958453"><ele>721.25</ele><time>2026-05-02T09:55:31.954Z</time></trkpt><trkpt lat="45.91554827003715" lon="9.434429115901146"><ele>728.0</ele><time>2026-05-02T09:55:32.954Z</time></trkpt><trkpt lat="45.915676549727216" lon="9.434527922506877"><ele>728.0</ele><time>2026-05-02T09:55:33.954Z</time></trkpt><trkpt lat="45.915803296155225" lon="9.434625246587194"><ele>728.0</ele><time>2026-05-02T09:55:34.954Z</time></trkpt><trkpt lat="45.91592581792119" lon="9.434719055551735"><ele>728.0</ele><time>2026-05-02T09:55:35.954Z</time></trkpt><trkpt lat="45.916037616431076" lon="9.434809656483438"><ele>728.0</ele><time>2026-05-02T09:55:36.954Z</time></trkpt><trkpt lat="45.916147258418405" lon="9.434894093356325"><ele>725.0</ele><time>2026-05-02T09:55:37.954Z</time></trkpt><trkpt lat="45.916255146264156" lon="9.434978055643795"><ele>722.0</ele><time>2026-05-02T09:55:38.954Z</time></trkpt><trkpt lat="45.916362396543384" lon="9.435058615487616"><ele>719.0</ele><time>2026-05-02T09:55:39.954Z</time></trkpt><trkpt lat="45.91645915544584" lon="9.435136203801413"><ele>716.0</ele><time>2026-05-02T09:55:40.954Z</time></trkpt><trkpt lat="45.916545222940286" lon="9.435202568691965"><ele>716.0</ele><time>2026-05-02T09:55:41.954Z</time></trkpt><trkpt lat="45.916632673446045" lon="9.43526757007264"><ele>716.0</ele><time>2026-05-02T09:55:42.954Z</time></trkpt><trkpt lat="45.91671994974061" lon="9.435355871832309"><ele>716.0</ele><time>2026-05-02T09:55:43.954Z</time></trkpt><trkpt lat="45.91681588115952" lon="9.435424547738625"><ele>716.0</ele><time>2026-05-02T09:55:44.954Z</time></trkpt><trkpt lat="45.916907570305625" lon="9.435490908507731"><ele>716.0</ele><time>2026-05-02T09:55:45.954Z</time></trkpt><trkpt lat="45.91700087334454" lon="9.435568795865379"><ele>715.25</ele><time>2026-05-02T09:55:46.954Z</time></trkpt><trkpt lat="45.91709926889859" lon="9.4356499255681"><ele>714.5</ele><time>2026-05-02T09:55:47.954Z</time></trkpt><trkpt lat="45.91719666793143" lon="9.435727941656792"><ele>713.75</ele><time>2026-05-02T09:55:48.954Z</time></trkpt><trkpt lat="45.91729516469368" lon="9.435805727878543"><ele>713.0</ele><time>2026-05-02T09:55:49.954Z</time></trkpt><trkpt lat="45.91739614653527" lon="9.435884579529626"><ele>713.0</ele><time>2026-05-02T09:55:50.954Z</time></trkpt><trkpt lat="45.91749698478728" lon="9.4359674152517"><ele>713.0</ele><time>2026-05-02T09:55:51.954Z</time></trkpt><trkpt lat="45.91759770866758" lon="9.436044114345416"><ele>713.0</ele><time>2026-05-02T09:55:52.954Z</time></trkpt><trkpt lat="45.91769276039556" lon="9.436118425793753"><ele>713.0</ele><time>2026-05-02T09:55:53.954Z</time></trkpt><trkpt lat="45.91778892212007" lon="9.436193897957802"><ele>713.0</ele><time>2026-05-02T09:55:54.954Z</time></trkpt><trkpt lat="45.917886677529836" lon="9.436270088908778"><ele>714.75</ele><time>2026-05-02T09:55:55.954Z</time></trkpt><trkpt lat="45.91798383115888" lon="9.436346993172124"><ele>716.5</ele><time>2026-05-02T09:55:56.954Z</time></trkpt><trkpt lat="45.91808231224241" lon="9.4364316175073"><ele>718.25</ele><time>2026-05-02T09:55:57.952Z</time></trkpt><trkpt lat="45.918185955446845" lon="9.436515147324775"><ele>720.0</ele><time>2026-05-02T09:55:58.951Z</time></trkpt><trkpt lat="45.91829258365064" lon="9.436599829462345"><ele>720.0</ele><time>2026-05-02T09:55:59.951Z</time></trkpt><trkpt lat="45.91839946591796" lon="9.436686774895819"><ele>720.0</ele><time>2026-05-02T09:56:00.951Z</time></trkpt><trkpt lat="45.91851585557055" lon="9.436779709106087"><ele>720.0</ele><time>2026-05-02T09:56:01.951Z</time></trkpt><trkpt lat="45.91862878062951" lon="9.436874674293934"><ele>720.0</ele><time>2026-05-02T09:56:02.951Z</time></trkpt><trkpt lat="45.91874852241557" lon="9.43696539814111"><ele>720.75</ele><time>2026-05-02T09:56:03.951Z</time></trkpt><trkpt lat="45.91887292764141" lon="9.437054175490982"><ele>721.5</ele><time>2026-05-02T09:56:04.951Z</time></trkpt><trkpt lat="45.91899662303684" lon="9.437143736924316"><ele>722.25</ele><time>2026-05-02T09:56:05.951Z</time></trkpt><trkpt lat="45.91911617792161" lon="9.437233528175817"><ele>723.0</ele><time>2026-05-02T09:56:06.951Z</time></trkpt><trkpt lat="45.91923517670038" lon="9.437328042038045"><ele>724.0</ele><time>2026-05-02T09:56:07.951Z</time></trkpt><trkpt lat="45.91935152461814" lon="9.43742306106738"><ele>725.0</ele><time>2026-05-02T09:56:08.951Z</time></trkpt><trkpt lat="45.91946806509874" lon="9.437514198636789"><ele>726.0</ele><time>2026-05-02T09:56:09.951Z</time></trkpt><trkpt lat="45.91958176338469" lon="9.437604104210562"><ele>727.0</ele><time>2026-05-02T09:56:10.951Z</time></trkpt><trkpt lat="45.91969264186185" lon="9.437702796832705"><ele>727.0</ele><time>2026-05-02T09:56:11.951Z</time></trkpt><trkpt lat="45.919802214468476" lon="9.437809438644702"><ele>727.0</ele><time>2026-05-02T09:56:12.951Z</time></trkpt><trkpt lat="45.91991314369827" lon="9.43791616206625"><ele>727.0</ele><time>2026-05-02T09:56:13.951Z</time></trkpt><trkpt lat="45.92001404099227" lon="9.438030709995397"><ele>727.0</ele><time>2026-05-02T09:56:14.951Z</time></trkpt><trkpt lat="45.92011326948475" lon="9.438137768922441"><ele>727.6</ele><time>2026-05-02T09:56:15.951Z</time></trkpt><trkpt lat="45.92020170272601" lon="9.438245522775928"><ele>728.2</ele><time>2026-05-02T09:56:16.951Z</time></trkpt><trkpt lat="45.920279801137376" lon="9.438343321424686"><ele>728.8</ele><time>2026-05-02T09:56:17.951Z</time></trkpt><trkpt lat="45.92035159779861" lon="9.438426911736247"><ele>729.4</ele><time>2026-05-02T09:56:18.951Z</time></trkpt><trkpt lat="45.920416972468715" lon="9.438506318801826"><ele>730.0</ele><time>2026-05-02T09:56:19.951Z</time></trkpt><trkpt lat="45.920477644039764" lon="9.438578625958895"><ele>730.0</ele><time>2026-05-02T09:56:20.951Z</time></trkpt><trkpt lat="45.920542360915434" lon="9.438662094113873"><ele>730.0</ele><time>2026-05-02T09:56:21.951Z</time></trkpt><trkpt lat="45.920605350147135" lon="9.438747480569763"><ele>730.0</ele><time>2026-05-02T09:56:22.951Z</time></trkpt><trkpt lat="45.92066654051077" lon="9.438827412846647"><ele>730.0</ele><time>2026-05-02T09:56:23.951Z</time></trkpt><trkpt lat="45.920724607103075" lon="9.438901268719356"><ele>730.0</ele><time>2026-05-02T09:56:24.951Z</time></trkpt><trkpt lat="45.92077419976415" lon="9.43897096019601"><ele>730.0</ele><time>2026-05-02T09:56:25.951Z</time></trkpt><trkpt lat="45.92081230818455" lon="9.43904819472562"><ele>730.3333333333334</ele><time>2026-05-02T09:56:26.951Z</time></trkpt><trkpt lat="45.92084342615958" lon="9.439132961123764"><ele>730.6666666666667</ele><time>2026-05-02T09:56:27.951Z</time></trkpt><trkpt lat="45.920869385512084" lon="9.439217542861057"><ele>731.0</ele><time>2026-05-02T09:56:28.951Z</time></trkpt><trkpt lat="45.920898837538935" lon="9.439305637439066"><ele>731.3333333333334</ele><time>2026-05-02T09:56:29.951Z</time></trkpt><trkpt lat="45.920986416354026" lon="9.439436508325956"><ele>731.6666666666666</ele><time>2026-05-02T09:56:31.951Z</time></trkpt><trkpt lat="45.921061201109616" lon="9.43946956100812"><ele>732.0</ele><time>2026-05-02T09:56:32.951Z</time></trkpt><trkpt lat="45.921145004959975" lon="9.439506651692573"><ele>730.8</ele><time>2026-05-02T09:56:33.951Z</time></trkpt><trkpt lat="45.921228650937195" lon="9.439560482578857"><ele>729.6</ele><time>2026-05-02T09:56:34.951Z</time></trkpt><trkpt lat="45.92131404888809" lon="9.439631770525626"><ele>728.4</ele><time>2026-05-02T09:56:35.951Z</time></trkpt><trkpt lat="45.92140051893469" lon="9.439720671676419"><ele>727.1999999999999</ele><time>2026-05-02T09:56:36.951Z</time></trkpt><trkpt lat="45.92148415266203" lon="9.439831165934628"><ele>726.0</ele><time>2026-05-02T09:56:37.951Z</time></trkpt><trkpt lat="45.92157948501998" lon="9.439941334942205"><ele>726.0</ele><time>2026-05-02T09:56:38.951Z</time></trkpt><trkpt lat="45.92167807551047" lon="9.440052644346276"><ele>726.0</ele><time>2026-05-02T09:56:39.951Z</time></trkpt><trkpt lat="45.92177606999125" lon="9.440170876613198"><ele>726.0</ele><time>2026-05-02T09:56:40.951Z</time></trkpt><trkpt lat="45.92187219446046" lon="9.44029654157395"><ele>726.0</ele><time>2026-05-02T09:56:41.951Z</time></trkpt><trkpt lat="45.92197154375367" lon="9.440429879436696"><ele>723.25</ele><time>2026-05-02T09:56:42.951Z</time></trkpt><trkpt lat="45.92205712640944" lon="9.440573004317395"><ele>720.5</ele><time>2026-05-02T09:56:43.951Z</time></trkpt><trkpt lat="45.922145062364386" lon="9.440723771905473"><ele>717.75</ele><time>2026-05-02T09:56:44.951Z</time></trkpt><trkpt lat="45.9222230897109" lon="9.440876712819449"><ele>715.0</ele><time>2026-05-02T09:56:45.951Z</time></trkpt><trkpt lat="45.922290257168285" lon="9.441035130572244"><ele>715.0</ele><time>2026-05-02T09:56:46.951Z</time></trkpt><trkpt lat="45.92235047559488" lon="9.441193876311223"><ele>715.0</ele><time>2026-05-02T09:56:47.951Z</time></trkpt><trkpt lat="45.922409428741645" lon="9.441348679298624"><ele>715.0</ele><time>2026-05-02T09:56:48.951Z</time></trkpt><trkpt lat="45.9224695443547" lon="9.441512479177854"><ele>715.0</ele><time>2026-05-02T09:56:49.951Z</time></trkpt><trkpt lat="45.922530015202746" lon="9.441676986629943"><ele>711.5</ele><time>2026-05-02T09:56:50.951Z</time></trkpt><trkpt lat="45.922590023814564" lon="9.441841332982206"><ele>708.0</ele><time>2026-05-02T09:56:51.951Z</time></trkpt><trkpt lat="45.922650757283215" lon="9.44200869044055"><ele>704.5</ele><time>2026-05-02T09:56:52.951Z</time></trkpt><trkpt lat="45.922714894504004" lon="9.442176052112254"><ele>701.0</ele><time>2026-05-02T09:56:53.951Z</time></trkpt><trkpt lat="45.92278116000098" lon="9.442341077711294"><ele>701.0</ele><time>2026-05-02T09:56:54.951Z</time></trkpt><trkpt lat="45.92284666710835" lon="9.442505421277627"><ele>701.0</ele><time>2026-05-02T09:56:55.951Z</time></trkpt><trkpt lat="45.92290729873507" lon="9.442674140418033"><ele>701.0</ele><time>2026-05-02T09:56:56.951Z</time></trkpt><trkpt lat="45.922969519187866" lon="9.442843855443668"><ele>701.0</ele><time>2026-05-02T09:56:57.951Z</time></trkpt><trkpt lat="45.92302710480435" lon="9.443016694948362"><ele>702.5</ele><time>2026-05-02T09:56:58.951Z</time></trkpt><trkpt lat="45.92308465433709" lon="9.443188285687803"><ele>704.0</ele><time>2026-05-02T09:56:59.951Z</time></trkpt><trkpt lat="45.9231464064639" lon="9.443351910985145"><ele>705.5</ele><time>2026-05-02T09:57:00.951Z</time></trkpt><trkpt lat="45.92321065732988" lon="9.44350284282835"><ele>707.0</ele><time>2026-05-02T09:57:01.951Z</time></trkpt><trkpt lat="45.92328698000155" lon="9.4436390106539"><ele>707.0</ele><time>2026-05-02T09:57:02.951Z</time></trkpt><trkpt lat="45.92337214381944" lon="9.443761006621065"><ele>707.0</ele><time>2026-05-02T09:57:03.951Z</time></trkpt><trkpt lat="45.923469142578355" lon="9.443869498300336"><ele>707.0</ele><time>2026-05-02T09:57:04.951Z</time></trkpt><trkpt lat="45.92357113602727" lon="9.443978880134305"><ele>707.0</ele><time>2026-05-02T09:57:05.951Z</time></trkpt><trkpt lat="45.92366741617938" lon="9.444093558024546"><ele>703.5</ele><time>2026-05-02T09:57:06.951Z</time></trkpt><trkpt lat="45.92377245444337" lon="9.444207600111683"><ele>700.0</ele><time>2026-05-02T09:57:07.951Z</time></trkpt><trkpt lat="45.92388546245424" lon="9.444321656592603"><ele>696.5</ele><time>2026-05-02T09:57:08.951Z</time></trkpt><trkpt lat="45.92399564091637" lon="9.44443553011261"><ele>693.0</ele><time>2026-05-02T09:57:09.951Z</time></trkpt><trkpt lat="45.92410616822361" lon="9.444542930972672"><ele>691.75</ele><time>2026-05-02T09:57:10.951Z</time></trkpt><trkpt lat="45.92420519526744" lon="9.44465654990055"><ele>690.5</ele><time>2026-05-02T09:57:11.951Z</time></trkpt><trkpt lat="45.92430371786866" lon="9.4447712148187"><ele>689.25</ele><time>2026-05-02T09:57:12.951Z</time></trkpt><trkpt lat="45.92439945576556" lon="9.444884335641548"><ele>688.0</ele><time>2026-05-02T09:57:13.951Z</time></trkpt><trkpt lat="45.92450476188988" lon="9.445000815878068"><ele>688.0</ele><time>2026-05-02T09:57:14.951Z</time></trkpt><trkpt lat="45.92460151645536" lon="9.445122641631658"><ele>688.0</ele><time>2026-05-02T09:57:15.951Z</time></trkpt><trkpt lat="45.924690795702624" lon="9.445256672903966"><ele>688.0</ele><time>2026-05-02T09:57:16.951Z</time></trkpt><trkpt lat="45.92479024458995" lon="9.44534617136802"><ele>688.0</ele><time>2026-05-02T09:57:17.952Z</time></trkpt><trkpt lat="45.92489678781076" lon="9.445420027347254"><ele>687.25</ele><time>2026-05-02T09:57:18.952Z</time></trkpt><trkpt lat="45.92502491847143" lon="9.445478379913965"><ele>686.5</ele><time>2026-05-02T09:57:19.952Z</time></trkpt><trkpt lat="45.92514740748942" lon="9.445556108919584"><ele>685.75</ele><time>2026-05-02T09:57:20.952Z</time></trkpt><trkpt lat="45.92524149345515" lon="9.44564465787088"><ele>685.0</ele><time>2026-05-02T09:57:21.952Z</time></trkpt><trkpt lat="45.925329903699094" lon="9.445735558833725"><ele>685.0</ele><time>2026-05-02T09:57:22.952Z</time></trkpt><trkpt lat="45.92543044740622" lon="9.44584997547699"><ele>685.0</ele><time>2026-05-02T09:57:23.952Z</time></trkpt><trkpt lat="45.92552797265656" lon="9.445974642116125"><ele>685.0</ele><time>2026-05-02T09:57:24.952Z</time></trkpt><trkpt lat="45.92562642398464" lon="9.446126151906038"><ele>685.0</ele><time>2026-05-02T09:57:25.952Z</time></trkpt><trkpt lat="45.925735615398935" lon="9.446290640266158"><ele>685.0</ele><time>2026-05-02T09:57:26.952Z</time></trkpt><trkpt lat="45.925844544270824" lon="9.446434456257807"><ele>685.0</ele><time>2026-05-02T09:57:27.952Z</time></trkpt><trkpt lat="45.92595864092689" lon="9.446556225503388"><ele>685.0</ele><time>2026-05-02T09:57:28.952Z</time></trkpt><trkpt lat="45.9260691372353" lon="9.446690219403658"><ele>685.0</ele><time>2026-05-02T09:57:29.952Z</time></trkpt><trkpt lat="45.92617144660449" lon="9.44683488798313"><ele>685.0</ele><time>2026-05-02T09:57:30.952Z</time></trkpt><trkpt lat="45.92627333419991" lon="9.446996712719866"><ele>685.0</ele><time>2026-05-02T09:57:31.952Z</time></trkpt><trkpt lat="45.92637315023087" lon="9.447167671095833"><ele>685.0</ele><time>2026-05-02T09:57:32.952Z</time></trkpt><trkpt lat="45.92647198895061" lon="9.447347361368076"><ele>685.3333333333334</ele><time>2026-05-02T09:57:33.952Z</time></trkpt><trkpt lat="45.92657625644858" lon="9.447532819423564"><ele>685.6666666666666</ele><time>2026-05-02T09:57:34.952Z</time></trkpt><trkpt lat="45.92668018872199" lon="9.44772737073562"><ele>686.0</ele><time>2026-05-02T09:57:35.952Z</time></trkpt><trkpt lat="45.926776781648" lon="9.44792415251468"><ele>684.0</ele><time>2026-05-02T09:57:36.952Z</time></trkpt><trkpt lat="45.92686861446025" lon="9.448109769966802"><ele>682.0</ele><time>2026-05-02T09:57:37.952Z</time></trkpt><trkpt lat="45.926960586204395" lon="9.44828913880109"><ele>680.0</ele><time>2026-05-02T09:57:38.952Z</time></trkpt><trkpt lat="45.9270516444822" lon="9.448464576860536"><ele>680.0</ele><time>2026-05-02T09:57:39.952Z</time></trkpt><trkpt lat="45.92716038309763" lon="9.448627327872838"><ele>680.0</ele><time>2026-05-02T09:57:40.952Z</time></trkpt><trkpt lat="45.92724409295448" lon="9.44879336124596"><ele>680.0</ele><time>2026-05-02T09:57:41.952Z</time></trkpt><trkpt lat="45.92736270206754" lon="9.448908189704557"><ele>680.0</ele><time>2026-05-02T09:57:42.952Z</time></trkpt><trkpt lat="45.92750685581872" lon="9.448997551892242"><ele>675.5</ele><time>2026-05-02T09:57:43.952Z</time></trkpt><trkpt lat="45.92765565316774" lon="9.44906629680902"><ele>671.0</ele><time>2026-05-02T09:57:44.952Z</time></trkpt><trkpt lat="45.92779562662824" lon="9.449107772502725"><ele>666.5</ele><time>2026-05-02T09:57:45.952Z</time></trkpt><trkpt lat="45.92794439119384" lon="9.449122418635527"><ele>662.0</ele><time>2026-05-02T09:57:46.952Z</time></trkpt><trkpt lat="45.92809793094592" lon="9.449130047984902"><ele>662.0</ele><time>2026-05-02T09:57:47.952Z</time></trkpt><trkpt lat="45.92826190321833" lon="9.44912252392886"><ele>662.0</ele><time>2026-05-02T09:57:48.952Z</time></trkpt><trkpt lat="45.92841718375209" lon="9.449117673820286"><ele>662.0</ele><time>2026-05-02T09:57:49.952Z</time></trkpt><trkpt lat="45.92857441451204" lon="9.44911215673467"><ele>662.5</ele><time>2026-05-02T09:57:50.952Z</time></trkpt><trkpt lat="45.92872570367189" lon="9.449107903312655"><ele>663.0</ele><time>2026-05-02T09:57:51.952Z</time></trkpt><trkpt lat="45.92887371762352" lon="9.449105807391321"><ele>663.5</ele><time>2026-05-02T09:57:52.952Z</time></trkpt><trkpt lat="45.92902171998889" lon="9.449099193270241"><ele>664.0</ele><time>2026-05-02T09:57:53.952Z</time></trkpt><trkpt lat="45.92916957612044" lon="9.449093784178674"><ele>663.0</ele><time>2026-05-02T09:57:54.952Z</time></trkpt><trkpt lat="45.92931324071154" lon="9.449103548063565"><ele>662.0</ele><time>2026-05-02T09:57:55.952Z</time></trkpt><trkpt lat="45.92944877934199" lon="9.44913584360004"><ele>661.0</ele><time>2026-05-02T09:57:56.952Z</time></trkpt><trkpt lat="45.929581339389415" lon="9.449200381152476"><ele>660.0</ele><time>2026-05-02T09:57:57.952Z</time></trkpt><trkpt lat="45.929719138877864" lon="9.44929669477182"><ele>660.0</ele><time>2026-05-02T09:57:58.952Z</time></trkpt><trkpt lat="45.92985864674198" lon="9.449426262433368"><ele>660.0</ele><time>2026-05-02T09:57:59.952Z</time></trkpt><trkpt lat="45.929990843214966" lon="9.449565712890351"><ele>660.0</ele><time>2026-05-02T09:58:00.952Z</time></trkpt><trkpt lat="45.93012098532738" lon="9.44971557796789"><ele>657.6666666666666</ele><time>2026-05-02T09:58:01.952Z</time></trkpt><trkpt lat="45.930250237925705" lon="9.449843393020771"><ele>655.3333333333333</ele><time>2026-05-02T09:58:02.952Z</time></trkpt><trkpt lat="45.930376414270924" lon="9.449963901365912"><ele>653.0</ele><time>2026-05-02T09:58:03.95Z</time></trkpt><trkpt lat="45.93049528814529" lon="9.450086329208109"><ele>653.0</ele><time>2026-05-02T09:58:04.951Z</time></trkpt><trkpt lat="45.93061195495938" lon="9.450210927529291"><ele>653.0</ele><time>2026-05-02T09:58:05.951Z</time></trkpt><trkpt lat="45.93072467076503" lon="9.450330255291759"><ele>653.0</ele><time>2026-05-02T09:58:06.951Z</time></trkpt><trkpt lat="45.93083708749101" lon="9.450452103340236"><ele>653.0</ele><time>2026-05-02T09:58:07.95Z</time></trkpt><trkpt lat="45.930963017809276" lon="9.450566177506744"><ele>652.3333333333333</ele><time>2026-05-02T09:58:08.95Z</time></trkpt><trkpt lat="45.93109599897269" lon="9.450665623837276"><ele>651.6666666666666</ele><time>2026-05-02T09:58:09.951Z</time></trkpt><trkpt lat="45.93123630427888" lon="9.450736676113472"><ele>651.0</ele><time>2026-05-02T09:58:10.95Z</time></trkpt><trkpt lat="45.93138429091682" lon="9.450793347324385"><ele>651.0</ele><time>2026-05-02T09:58:11.95Z</time></trkpt><trkpt lat="45.93152784399194" lon="9.450835108055285"><ele>651.0</ele><time>2026-05-02T09:58:12.95Z</time></trkpt><trkpt lat="45.931666816406604" lon="9.450875590221264"><ele>651.0</ele><time>2026-05-02T09:58:13.95Z</time></trkpt><trkpt lat="45.93179966547029" lon="9.45091863815825"><ele>651.0</ele><time>2026-05-02T09:58:14.95Z</time></trkpt><trkpt lat="45.93192490420916" lon="9.450972546511183"><ele>651.75</ele><time>2026-05-02T09:58:15.95Z</time></trkpt><trkpt lat="45.93204552688895" lon="9.451044926610715"><ele>652.5</ele><time>2026-05-02T09:58:16.951Z</time></trkpt><trkpt lat="45.93217027397041" lon="9.451143551874518"><ele>653.25</ele><time>2026-05-02T09:58:17.951Z</time></trkpt><trkpt lat="45.93228851274014" lon="9.451258511468179"><ele>654.0</ele><time>2026-05-02T09:58:18.951Z</time></trkpt><trkpt lat="45.93239363809357" lon="9.451394086252586"><ele>652.75</ele><time>2026-05-02T09:58:19.951Z</time></trkpt><trkpt lat="45.9324948216669" lon="9.451527658010995"><ele>651.5</ele><time>2026-05-02T09:58:20.951Z</time></trkpt><trkpt lat="45.93259876294848" lon="9.4516425249337"><ele>650.25</ele><time>2026-05-02T09:58:21.951Z</time></trkpt><trkpt lat="45.93271041707712" lon="9.451748781679983"><ele>649.0</ele><time>2026-05-02T09:58:22.951Z</time></trkpt><trkpt lat="45.93280785231651" lon="9.451847256863248"><ele>649.0</ele><time>2026-05-02T09:58:23.951Z</time></trkpt><trkpt lat="45.93291915471427" lon="9.451931834639364"><ele>649.0</ele><time>2026-05-02T09:58:24.951Z</time></trkpt><trkpt lat="45.93303746452872" lon="9.45200721502037"><ele>649.0</ele><time>2026-05-02T09:58:25.951Z</time></trkpt><trkpt lat="45.9331636790576" lon="9.452068407752895"><ele>649.0</ele><time>2026-05-02T09:58:26.951Z</time></trkpt><trkpt lat="45.933299173351834" lon="9.45210900956272"><ele>644.25</ele><time>2026-05-02T09:58:27.951Z</time></trkpt><trkpt lat="45.933442115836904" lon="9.452139167534474"><ele>639.5</ele><time>2026-05-02T09:58:28.951Z</time></trkpt><trkpt lat="45.93358882622689" lon="9.452168006002077"><ele>634.75</ele><time>2026-05-02T09:58:29.951Z</time></trkpt><trkpt lat="45.9337421576882" lon="9.452195198791468"><ele>630.0</ele><time>2026-05-02T09:58:30.951Z</time></trkpt><trkpt lat="45.93389155027318" lon="9.452222708695079"><ele>630.0</ele><time>2026-05-02T09:58:31.952Z</time></trkpt><trkpt lat="45.93403809040012" lon="9.45224964074956"><ele>630.0</ele><time>2026-05-02T09:58:32.953Z</time></trkpt><trkpt lat="45.9341860409509" lon="9.452276436665302"><ele>630.0</ele><time>2026-05-02T09:58:33.953Z</time></trkpt><trkpt lat="45.93433952114903" lon="9.452295643078362"><ele>628.6666666666666</ele><time>2026-05-02T09:58:34.954Z</time></trkpt><trkpt lat="45.93449703404056" lon="9.452284068002824"><ele>627.3333333333333</ele><time>2026-05-02T09:58:35.954Z</time></trkpt><trkpt lat="45.93465491610674" lon="9.452255487466847"><ele>626.0</ele><time>2026-05-02T09:58:36.955Z</time></trkpt><trkpt lat="45.93481270757307" lon="9.452216990414637"><ele>626.0</ele><time>2026-05-02T09:58:37.955Z</time></trkpt><trkpt lat="45.93497353891145" lon="9.452180855368407"><ele>626.0</ele><time>2026-05-02T09:58:38.956Z</time></trkpt><trkpt lat="45.935139683719875" lon="9.452142318490905"><ele>626.0</ele><time>2026-05-02T09:58:39.956Z</time></trkpt><trkpt lat="45.9353022233599" lon="9.452101563768569"><ele>627.3333333333333</ele><time>2026-05-02T09:58:40.957Z</time></trkpt><trkpt lat="45.935465682903015" lon="9.452058180623311"><ele>628.6666666666666</ele><time>2026-05-02T09:58:41.957Z</time></trkpt><trkpt lat="45.93562567084075" lon="9.452013732279672"><ele>630.0</ele><time>2026-05-02T09:58:42.957Z</time></trkpt><trkpt lat="45.93578760270086" lon="9.45196684433632"><ele>628.3333333333334</ele><time>2026-05-02T09:58:43.958Z</time></trkpt><trkpt lat="45.9359548611999" lon="9.451924005274893"><ele>626.6666666666667</ele><time>2026-05-02T09:58:44.958Z</time></trkpt><trkpt lat="45.93611647517449" lon="9.451877458630362"><ele>625.0</ele><time>2026-05-02T09:58:45.958Z</time></trkpt><trkpt lat="45.93627638109103" lon="9.451832949059062"><ele>625.0</ele><time>2026-05-02T09:58:46.959Z</time></trkpt><trkpt lat="45.93643635518599" lon="9.451796786398958"><ele>625.0</ele><time>2026-05-02T09:58:47.959Z</time></trkpt><trkpt lat="45.93660292701749" lon="9.451765566445198"><ele>625.0</ele><time>2026-05-02T09:58:48.959Z</time></trkpt><trkpt lat="45.93677086683344" lon="9.45175585075647"><ele>623.6666666666667</ele><time>2026-05-02T09:58:49.959Z</time></trkpt><trkpt lat="45.93693514544035" lon="9.45177394802668"><ele>622.3333333333334</ele><time>2026-05-02T09:58:50.96Z</time></trkpt><trkpt lat="45.93709840809969" lon="9.451817191644766"><ele>621.0</ele><time>2026-05-02T09:58:51.96Z</time></trkpt><trkpt lat="45.937260422623226" lon="9.451883906949371"><ele>621.0</ele><time>2026-05-02T09:58:52.96Z</time></trkpt><trkpt lat="45.93741868508745" lon="9.45197027918432"><ele>621.0</ele><time>2026-05-02T09:58:53.96Z</time></trkpt><trkpt lat="45.9375735861356" lon="9.452057673932016"><ele>621.0</ele><time>2026-05-02T09:58:54.96Z</time></trkpt><trkpt lat="45.93773188482711" lon="9.452145011126541"><ele>618.6666666666666</ele><time>2026-05-02T09:58:55.961Z</time></trkpt><trkpt lat="45.93789436218772" lon="9.452227520271641"><ele>616.3333333333333</ele><time>2026-05-02T09:58:56.961Z</time></trkpt><trkpt lat="45.938058707522735" lon="9.452298943097745"><ele>614.0</ele><time>2026-05-02T09:58:57.961Z</time></trkpt><trkpt lat="45.93823187417409" lon="9.45235182934578"><ele>614.3333333333333</ele><time>2026-05-02T09:58:58.961Z</time></trkpt><trkpt lat="45.93840398053152" lon="9.45238541581502"><ele>614.6666666666666</ele><time>2026-05-02T09:58:59.961Z</time></trkpt><trkpt lat="45.93858182496468" lon="9.452398062199627"><ele>615.0</ele><time>2026-05-02T09:59:00.961Z</time></trkpt><trkpt lat="45.93875819217183" lon="9.452383606958454"><ele>615.0</ele><time>2026-05-02T09:59:01.961Z</time></trkpt><trkpt lat="45.93893200725195" lon="9.452352116623175"><ele>615.0</ele><time>2026-05-02T09:59:02.962Z</time></trkpt><trkpt lat="45.939096820655394" lon="9.45231203935362"><ele>615.0</ele><time>2026-05-02T09:59:03.962Z</time></trkpt><trkpt lat="45.93925531193748" lon="9.452270363994273"><ele>615.0</ele><time>2026-05-02T09:59:04.962Z</time></trkpt><trkpt lat="45.93940974280255" lon="9.452236488281743"><ele>615.0</ele><time>2026-05-02T09:59:05.962Z</time></trkpt><trkpt lat="45.939558426051" lon="9.452212192929371"><ele>615.0</ele><time>2026-05-02T09:59:06.962Z</time></trkpt><trkpt lat="45.93970164623181" lon="9.452193726870046"><ele>615.0</ele><time>2026-05-02T09:59:07.962Z</time></trkpt><trkpt lat="45.93983940468172" lon="9.452199434839507"><ele>615.0</ele><time>2026-05-02T09:59:08.962Z</time></trkpt><trkpt lat="45.93998412092226" lon="9.452232078794067"><ele>615.0</ele><time>2026-05-02T09:59:09.962Z</time></trkpt><trkpt lat="45.9401223963301" lon="9.452279675808786"><ele>615.0</ele><time>2026-05-02T09:59:10.962Z</time></trkpt><trkpt lat="45.94026007250872" lon="9.452300907966986"><ele>614.0</ele><time>2026-05-02T09:59:11.962Z</time></trkpt><trkpt lat="45.940390578721036" lon="9.452287552637072"><ele>613.0</ele><time>2026-05-02T09:59:12.962Z</time></trkpt><trkpt lat="45.94053349633786" lon="9.4522292991669"><ele>612.0</ele><time>2026-05-02T09:59:13.962Z</time></trkpt><trkpt lat="45.9406733776383" lon="9.452161207203009"><ele>611.0</ele><time>2026-05-02T09:59:14.963Z</time></trkpt><trkpt lat="45.94080793399135" lon="9.452077190105028"><ele>613.0</ele><time>2026-05-02T09:59:15.963Z</time></trkpt><trkpt lat="45.94094609327764" lon="9.451996128671494"><ele>615.0</ele><time>2026-05-02T09:59:16.963Z</time></trkpt><trkpt lat="45.941084613118" lon="9.451918180413736"><ele>617.0</ele><time>2026-05-02T09:59:17.963Z</time></trkpt><trkpt lat="45.94122104955813" lon="9.451842632291852"><ele>619.0</ele><time>2026-05-02T09:59:18.963Z</time></trkpt><trkpt lat="45.9413510126391" lon="9.451771654860465"><ele>619.0</ele><time>2026-05-02T09:59:19.963Z</time></trkpt><trkpt lat="45.94147739682438" lon="9.451705975024492"><ele>619.0</ele><time>2026-05-02T09:59:20.963Z</time></trkpt><trkpt lat="45.941593217141" lon="9.451640519846652"><ele>619.0</ele><time>2026-05-02T09:59:21.963Z</time></trkpt><trkpt lat="45.94170260806968" lon="9.451582791416124"><ele>619.0</ele><time>2026-05-02T09:59:22.963Z</time></trkpt><trkpt lat="45.94179973769947" lon="9.451528591344774"><ele>616.8333333333334</ele><time>2026-05-02T09:59:23.963Z</time></trkpt><trkpt lat="45.94189185802676" lon="9.451509278706077"><ele>614.6666666666667</ele><time>2026-05-02T09:59:24.963Z</time></trkpt><trkpt lat="45.94196828979946" lon="9.451461543792073"><ele>612.5</ele><time>2026-05-02T09:59:25.963Z</time></trkpt><trkpt lat="45.94203615652757" lon="9.451435155718446"><ele>610.3333333333334</ele><time>2026-05-02T09:59:26.963Z</time></trkpt><trkpt lat="45.942105543645035" lon="9.45142098396452"><ele>608.1666666666666</ele><time>2026-05-02T09:59:27.963Z</time></trkpt><trkpt lat="45.942171938617875" lon="9.451417850695075"><ele>606.0</ele><time>2026-05-02T09:59:28.963Z</time></trkpt><trkpt lat="45.94223908047615" lon="9.451415978049008"><ele>606.0</ele><time>2026-05-02T09:59:29.963Z</time></trkpt><trkpt lat="45.94230963156847" lon="9.451410640903326"><ele>606.0</ele><time>2026-05-02T09:59:30.963Z</time></trkpt><trkpt lat="45.94238112106689" lon="9.451370839131494"><ele>606.0</ele><time>2026-05-02T09:59:31.963Z</time></trkpt><trkpt lat="45.94245222295571" lon="9.451297893889398"><ele>606.0</ele><time>2026-05-02T09:59:32.963Z</time></trkpt><trkpt lat="45.94252878126619" lon="9.451211125391481"><ele>606.0</ele><time>2026-05-02T09:59:33.963Z</time></trkpt><trkpt lat="45.94261602951972" lon="9.4511210487786"><ele>606.0</ele><time>2026-05-02T09:59:34.963Z</time></trkpt><trkpt lat="45.94271746018219" lon="9.451050430484393"><ele>606.25</ele><time>2026-05-02T09:59:35.963Z</time></trkpt><trkpt lat="45.94283139761923" lon="9.45098805513319"><ele>606.5</ele><time>2026-05-02T09:59:36.963Z</time></trkpt><trkpt lat="45.94294513979029" lon="9.450927363331285"><ele>606.75</ele><time>2026-05-02T09:59:37.963Z</time></trkpt><trkpt lat="45.94305290136552" lon="9.450869297158182"><ele>607.0</ele><time>2026-05-02T09:59:38.963Z</time></trkpt><trkpt lat="45.943155003755685" lon="9.450812724321498"><ele>607.0</ele><time>2026-05-02T09:59:39.963Z</time></trkpt><trkpt lat="45.943355430064265" lon="9.450732412608097"><ele>607.0</ele><time>2026-05-02T09:59:41.964Z</time></trkpt><trkpt lat="45.94344862301216" lon="9.450706989529287"><ele>607.0</ele><time>2026-05-02T09:59:42.964Z</time></trkpt><trkpt lat="45.94353361676087" lon="9.450687071653718"><ele>607.0</ele><time>2026-05-02T09:59:43.964Z</time></trkpt><trkpt lat="45.94362185110187" lon="9.450678392979059"><ele>605.2</ele><time>2026-05-02T09:59:44.964Z</time></trkpt><trkpt lat="45.943716497895984" lon="9.450671318837331"><ele>603.4000000000001</ele><time>2026-05-02T09:59:45.964Z</time></trkpt><trkpt lat="45.94381708539137" lon="9.450661161858752"><ele>601.5999999999999</ele><time>2026-05-02T09:59:46.964Z</time></trkpt><trkpt lat="45.943924850753646" lon="9.450644004785884"><ele>599.8</ele><time>2026-05-02T09:59:47.964Z</time></trkpt><trkpt lat="45.944047405059415" lon="9.450637197293904"><ele>598.0</ele><time>2026-05-02T09:59:48.964Z</time></trkpt><trkpt lat="45.94417588500332" lon="9.450633496968369"><ele>598.0</ele><time>2026-05-02T09:59:49.964Z</time></trkpt><trkpt lat="45.94431305016803" lon="9.450644224401266"><ele>598.0</ele><time>2026-05-02T09:59:50.964Z</time></trkpt><trkpt lat="45.94445796328319" lon="9.450669664892013"><ele>598.0</ele><time>2026-05-02T09:59:51.964Z</time></trkpt><trkpt lat="45.944606797975645" lon="9.450691130084667"><ele>598.0</ele><time>2026-05-02T09:59:52.964Z</time></trkpt><trkpt lat="45.94475838873825" lon="9.450713496877169"><ele>598.0</ele><time>2026-05-02T09:59:53.964Z</time></trkpt><trkpt lat="45.944909140918206" lon="9.450734255115963"><ele>598.0</ele><time>2026-05-02T09:59:54.964Z</time></trkpt><trkpt lat="45.945058359783935" lon="9.450759119757862"><ele>598.0</ele><time>2026-05-02T09:59:55.964Z</time></trkpt><trkpt lat="45.945205171352306" lon="9.450783880827537"><ele>598.0</ele><time>2026-05-02T09:59:56.964Z</time></trkpt><trkpt lat="45.9453597201029" lon="9.450806925310328"><ele>597.0</ele><time>2026-05-02T09:59:57.964Z</time></trkpt><trkpt lat="45.94551477955507" lon="9.4508282410273"><ele>596.0</ele><time>2026-05-02T09:59:58.964Z</time></trkpt><trkpt lat="45.94567090523019" lon="9.45085225499952"><ele>595.0</ele><time>2026-05-02T09:59:59.964Z</time></trkpt><trkpt lat="45.9458223683481" lon="9.450874522493985"><ele>594.0</ele><time>2026-05-02T10:00:00.964Z</time></trkpt><trkpt lat="45.945972371834934" lon="9.450896839033575"><ele>593.0</ele><time>2026-05-02T10:00:01.964Z</time></trkpt><trkpt lat="45.94612417569614" lon="9.45091692664192"><ele>592.0</ele><time>2026-05-02T10:00:02.964Z</time></trkpt><trkpt lat="45.94627465757042" lon="9.450938158504353"><ele>592.0</ele><time>2026-05-02T10:00:03.964Z</time></trkpt><trkpt lat="45.946419037098636" lon="9.450958272248998"><ele>592.0</ele><time>2026-05-02T10:00:04.964Z</time></trkpt><trkpt lat="45.94656059433216" lon="9.450979402675337"><ele>592.0</ele><time>2026-05-02T10:00:05.964Z</time></trkpt><trkpt lat="45.946698180182494" lon="9.45099936558586"><ele>592.0</ele><time>2026-05-02T10:00:06.964Z</time></trkpt><trkpt lat="45.946838515172836" lon="9.451019719657355"><ele>591.75</ele><time>2026-05-02T10:00:07.964Z</time></trkpt><trkpt lat="45.94697446221316" lon="9.45104201271372"><ele>591.5</ele><time>2026-05-02T10:00:08.964Z</time></trkpt><trkpt lat="45.947105206221735" lon="9.451060829556322"><ele>591.25</ele><time>2026-05-02T10:00:09.962Z</time></trkpt><trkpt lat="45.94723040563911" lon="9.451079599074331"><ele>591.0</ele><time>2026-05-02T10:00:10.962Z</time></trkpt><trkpt lat="45.94735313417312" lon="9.451097274348964"><ele>591.0</ele><time>2026-05-02T10:00:11.962Z</time></trkpt><trkpt lat="45.94746906243755" lon="9.451115383032425"><ele>591.0</ele><time>2026-05-02T10:00:12.961Z</time></trkpt><trkpt lat="45.94757386116581" lon="9.451128229596897"><ele>591.0</ele><time>2026-05-02T10:00:13.961Z</time></trkpt><trkpt lat="45.947672974884725" lon="9.451145782694635"><ele>591.0</ele><time>2026-05-02T10:00:14.961Z</time></trkpt><trkpt lat="45.947765961180096" lon="9.451161385151089"><ele>591.0</ele><time>2026-05-02T10:00:15.961Z</time></trkpt><trkpt lat="45.94784784206002" lon="9.451169062999796"><ele>590.6</ele><time>2026-05-02T10:00:16.961Z</time></trkpt><trkpt lat="45.947918640940195" lon="9.45117953977279"><ele>590.2</ele><time>2026-05-02T10:00:17.961Z</time></trkpt><trkpt lat="45.94803417968086" lon="9.451201504819085"><ele>589.8</ele><time>2026-05-02T10:00:19.961Z</time></trkpt><trkpt lat="45.948116389330295" lon="9.451255939336724"><ele>589.4</ele><time>2026-05-02T10:00:21.962Z</time></trkpt><trkpt lat="45.94818780365693" lon="9.451374495150759"><ele>589.0</ele><time>2026-05-02T10:00:28.961Z</time></trkpt><trkpt lat="45.94830231408598" lon="9.451437160992151"><ele>588.6</ele><time>2026-05-02T10:00:30.961Z</time></trkpt><trkpt lat="45.948386497388896" lon="9.451432461277863"><ele>588.2</ele><time>2026-05-02T10:00:31.961Z</time></trkpt><trkpt lat="45.94848640355426" lon="9.451411012598152"><ele>587.8000000000001</ele><time>2026-05-02T10:00:32.961Z</time></trkpt><trkpt lat="45.94860101688796" lon="9.451389339301057"><ele>587.4</ele><time>2026-05-02T10:00:33.961Z</time></trkpt><trkpt lat="45.94872485061919" lon="9.451367834083271"><ele>587.0</ele><time>2026-05-02T10:00:34.961Z</time></trkpt><trkpt lat="45.94886919328089" lon="9.451356170828857"><ele>587.0</ele><time>2026-05-02T10:00:35.961Z</time></trkpt><trkpt lat="45.94901908321321" lon="9.451356037946999"><ele>587.0</ele><time>2026-05-02T10:00:36.961Z</time></trkpt><trkpt lat="45.94917712171566" lon="9.45137128908703"><ele>587.0</ele><time>2026-05-02T10:00:37.961Z</time></trkpt><trkpt lat="45.94933695764582" lon="9.451396776271565"><ele>586.6666666666666</ele><time>2026-05-02T10:00:38.962Z</time></trkpt><trkpt lat="45.949496306884036" lon="9.45142268356385"><ele>586.3333333333334</ele><time>2026-05-02T10:00:39.962Z</time></trkpt><trkpt lat="45.94966106195872" lon="9.451451151074435"><ele>586.0</ele><time>2026-05-02T10:00:40.962Z</time></trkpt><trkpt lat="45.94983217803459" lon="9.451478575355141"><ele>586.0</ele><time>2026-05-02T10:00:41.962Z</time></trkpt><trkpt lat="45.950002931834554" lon="9.45150558677322"><ele>586.0</ele><time>2026-05-02T10:00:42.962Z</time></trkpt><trkpt lat="45.95016950045457" lon="9.451530805147485"><ele>586.0</ele><time>2026-05-02T10:00:43.962Z</time></trkpt><trkpt lat="45.950334333982" lon="9.45155795574982"><ele>585.0</ele><time>2026-05-02T10:00:44.962Z</time></trkpt><trkpt lat="45.95050127190429" lon="9.451584387163349"><ele>584.0</ele><time>2026-05-02T10:00:45.962Z</time></trkpt><trkpt lat="45.950659610451936" lon="9.451612465458238"><ele>583.0</ele><time>2026-05-02T10:00:46.962Z</time></trkpt><trkpt lat="45.950817181781446" lon="9.451638290443505"><ele>582.6666666666667</ele><time>2026-05-02T10:00:47.962Z</time></trkpt><trkpt lat="45.9509754278436" lon="9.45166498465812"><ele>582.3333333333334</ele><time>2026-05-02T10:00:48.962Z</time></trkpt><trkpt lat="45.95113475681594" lon="9.451690747541273"><ele>582.0</ele><time>2026-05-02T10:00:49.962Z</time></trkpt><trkpt lat="45.95129225616309" lon="9.45171291466006"><ele>582.0</ele><time>2026-05-02T10:00:50.962Z</time></trkpt><trkpt lat="45.951451472520375" lon="9.451731562013773"><ele>582.0</ele><time>2026-05-02T10:00:51.962Z</time></trkpt><trkpt lat="45.951611086048544" lon="9.451739949464251"><ele>582.0</ele><time>2026-05-02T10:00:52.962Z</time></trkpt><trkpt lat="45.95177193460075" lon="9.451730855786606"><ele>581.0</ele><time>2026-05-02T10:00:53.962Z</time></trkpt><trkpt lat="45.95193126230575" lon="9.451705947249172"><ele>580.0</ele><time>2026-05-02T10:00:54.962Z</time></trkpt><trkpt lat="45.952090088117465" lon="9.451666822667033"><ele>579.0</ele><time>2026-05-02T10:00:55.962Z</time></trkpt><trkpt lat="45.952248180597515" lon="9.45162525709348"><ele>579.0</ele><time>2026-05-02T10:00:56.962Z</time></trkpt><trkpt lat="45.95240949529067" lon="9.45157878714611"><ele>579.0</ele><time>2026-05-02T10:00:57.962Z</time></trkpt><trkpt lat="45.95256918170912" lon="9.451533105574395"><ele>579.0</ele><time>2026-05-02T10:00:58.962Z</time></trkpt><trkpt lat="45.95272867310937" lon="9.451486959152117"><ele>578.3333333333334</ele><time>2026-05-02T10:00:59.962Z</time></trkpt><trkpt lat="45.95288896335168" lon="9.451439973754328"><ele>577.6666666666667</ele><time>2026-05-02T10:01:00.962Z</time></trkpt><trkpt lat="45.95305106264016" lon="9.451394267218134"><ele>577.0</ele><time>2026-05-02T10:01:01.962Z</time></trkpt><trkpt lat="45.95321835157375" lon="9.451348714498268"><ele>577.0</ele><time>2026-05-02T10:01:02.962Z</time></trkpt><trkpt lat="45.95338795494354" lon="9.451306277368712"><ele>577.0</ele><time>2026-05-02T10:01:03.962Z</time></trkpt><trkpt lat="45.953554136405266" lon="9.451258374941442"><ele>577.0</ele><time>2026-05-02T10:01:04.962Z</time></trkpt><trkpt lat="45.953715322386905" lon="9.451218613178764"><ele>577.3333333333334</ele><time>2026-05-02T10:01:05.962Z</time></trkpt><trkpt lat="45.95387322285295" lon="9.451169741425575"><ele>577.6666666666666</ele><time>2026-05-02T10:01:06.962Z</time></trkpt><trkpt lat="45.954036064916224" lon="9.451125447334265"><ele>578.0</ele><time>2026-05-02T10:01:07.962Z</time></trkpt><trkpt lat="45.95419650606836" lon="9.451082109045817"><ele>577.25</ele><time>2026-05-02T10:01:08.962Z</time></trkpt><trkpt lat="45.954347388786694" lon="9.451030353753548"><ele>576.5</ele><time>2026-05-02T10:01:09.962Z</time></trkpt><trkpt lat="45.954494203342726" lon="9.450988719442181"><ele>575.75</ele><time>2026-05-02T10:01:10.962Z</time></trkpt><trkpt lat="45.95463572826505" lon="9.450946087691097"><ele>575.0</ele><time>2026-05-02T10:01:11.962Z</time></trkpt><trkpt lat="45.954779988866036" lon="9.450904752383176"><ele>575.0</ele><time>2026-05-02T10:01:12.962Z</time></trkpt><trkpt lat="45.95492790328614" lon="9.450865184015449"><ele>575.0</ele><time>2026-05-02T10:01:13.962Z</time></trkpt><trkpt lat="45.95507838415767" lon="9.450825592048297"><ele>575.0</ele><time>2026-05-02T10:01:14.962Z</time></trkpt><trkpt lat="45.955223484017615" lon="9.450782782606595"><ele>574.25</ele><time>2026-05-02T10:01:15.962Z</time></trkpt><trkpt lat="45.95537128678104" lon="9.450745851616473"><ele>573.5</ele><time>2026-05-02T10:01:16.962Z</time></trkpt><trkpt lat="45.95550386556718" lon="9.45071638074451"><ele>572.75</ele><time>2026-05-02T10:01:17.962Z</time></trkpt><trkpt lat="45.95561120118414" lon="9.450685320946434"><ele>572.0</ele><time>2026-05-02T10:01:18.962Z</time></trkpt><trkpt lat="45.955707638117914" lon="9.450661065064644"><ele>571.9999999999999</ele><time>2026-05-02T10:01:19.962Z</time></trkpt><trkpt lat="45.95578561830622" lon="9.450639951053633"><ele>572.0</ele><time>2026-05-02T10:01:20.962Z</time></trkpt><trkpt lat="45.9558522824978" lon="9.450620034867327"><ele>572.0</ele><time>2026-05-02T10:01:21.962Z</time></trkpt><trkpt lat="45.95591573878022" lon="9.450596192257766"><ele>572.0</ele><time>2026-05-02T10:01:22.962Z</time></trkpt><trkpt lat="45.9559748605436" lon="9.450564010722157"><ele>572.0</ele><time>2026-05-02T10:01:23.962Z</time></trkpt><trkpt lat="45.95605319130782" lon="9.450544473297034"><ele>571.9999999999999</ele><time>2026-05-02T10:01:24.962Z</time></trkpt><trkpt lat="45.956141759838054" lon="9.450518406851383"><ele>572.0</ele><time>2026-05-02T10:01:25.962Z</time></trkpt><trkpt lat="45.95624192426033" lon="9.450496537203295"><ele>572.0</ele><time>2026-05-02T10:01:26.962Z</time></trkpt><trkpt lat="45.95635010341134" lon="9.45046825567492"><ele>572.0</ele><time>2026-05-02T10:01:27.962Z</time></trkpt><trkpt lat="45.956455099155775" lon="9.450440138734207"><ele>572.0</ele><time>2026-05-02T10:01:28.962Z</time></trkpt><trkpt lat="45.95656553859987" lon="9.45040303808316"><ele>572.0</ele><time>2026-05-02T10:01:29.962Z</time></trkpt><trkpt lat="45.95667718106389" lon="9.450355599475182"><ele>572.0</ele><time>2026-05-02T10:01:30.962Z</time></trkpt><trkpt lat="45.956794110772904" lon="9.450304098239668"><ele>571.5</ele><time>2026-05-02T10:01:31.962Z</time></trkpt><trkpt lat="45.95691197218886" lon="9.450258272451428"><ele>571.0</ele><time>2026-05-02T10:01:32.962Z</time></trkpt><trkpt lat="45.957028193385355" lon="9.450203133551353"><ele>570.5</ele><time>2026-05-02T10:01:33.962Z</time></trkpt><trkpt lat="45.95713925070036" lon="9.450140556701731"><ele>570.0</ele><time>2026-05-02T10:01:34.962Z</time></trkpt><trkpt lat="45.95724314078854" lon="9.450077095648863"><ele>570.0</ele><time>2026-05-02T10:01:35.962Z</time></trkpt><trkpt lat="45.957356256667246" lon="9.450015893952541"><ele>570.0</ele><time>2026-05-02T10:01:36.963Z</time></trkpt><trkpt lat="45.95747373755078" lon="9.449950230949163"><ele>570.0</ele><time>2026-05-02T10:01:37.963Z</time></trkpt><trkpt lat="45.957593838512594" lon="9.449880594347718"><ele>570.0</ele><time>2026-05-02T10:01:38.963Z</time></trkpt><trkpt lat="45.9577127711613" lon="9.449812205647001"><ele>569.75</ele><time>2026-05-02T10:01:39.963Z</time></trkpt><trkpt lat="45.95782662869652" lon="9.44974564360245"><ele>569.5</ele><time>2026-05-02T10:01:40.963Z</time></trkpt><trkpt lat="45.957938667793144" lon="9.449682010350097"><ele>569.25</ele><time>2026-05-02T10:01:41.963Z</time></trkpt><trkpt lat="45.95804801775025" lon="9.44961970537761"><ele>569.0</ele><time>2026-05-02T10:01:42.963Z</time></trkpt><trkpt lat="45.9581545248831" lon="9.449562511118986"><ele>568.8333333333333</ele><time>2026-05-02T10:01:43.963Z</time></trkpt><trkpt lat="45.95825969341696" lon="9.449514191381533"><ele>568.6666666666666</ele><time>2026-05-02T10:01:44.963Z</time></trkpt><trkpt lat="45.958354512871516" lon="9.449463287859727"><ele>568.5</ele><time>2026-05-02T10:01:45.963Z</time></trkpt><trkpt lat="45.95843818739032" lon="9.449421506798567"><ele>568.3333333333334</ele><time>2026-05-02T10:01:46.963Z</time></trkpt><trkpt lat="45.95850900730163" lon="9.449385894562946"><ele>568.1666666666667</ele><time>2026-05-02T10:01:47.963Z</time></trkpt><trkpt lat="45.95857079093223" lon="9.44934432507161"><ele>568.0</ele><time>2026-05-02T10:01:48.963Z</time></trkpt><trkpt lat="45.958632191116514" lon="9.449301800920884"><ele>568.0</ele><time>2026-05-02T10:01:49.963Z</time></trkpt><trkpt lat="45.958694684367934" lon="9.449257107244588"><ele>568.0</ele><time>2026-05-02T10:01:50.963Z</time></trkpt><trkpt lat="45.95877038551467" lon="9.449210314754396"><ele>568.0</ele><time>2026-05-02T10:01:51.963Z</time></trkpt><trkpt lat="45.95885628977814" lon="9.44916338988346"><ele>568.0</ele><time>2026-05-02T10:01:52.963Z</time></trkpt><trkpt lat="45.95894895652858" lon="9.449126376467051"><ele>568.0</ele><time>2026-05-02T10:01:53.963Z</time></trkpt><trkpt lat="45.95905729730265" lon="9.44910342829937"><ele>568.0</ele><time>2026-05-02T10:01:54.963Z</time></trkpt><trkpt lat="45.95917371650498" lon="9.449099013599302"><ele>568.0</ele><time>2026-05-02T10:01:55.963Z</time></trkpt><trkpt lat="45.959292465167536" lon="9.449112650283595"><ele>568.0</ele><time>2026-05-02T10:01:56.963Z</time></trkpt><trkpt lat="45.95941859643419" lon="9.449138999856496"><ele>568.0</ele><time>2026-05-02T10:01:57.963Z</time></trkpt><trkpt lat="45.959549748236604" lon="9.449176825006385"><ele>569.5</ele><time>2026-05-02T10:01:58.963Z</time></trkpt><trkpt lat="45.95968553416254" lon="9.449217369458676"><ele>571.0</ele><time>2026-05-02T10:01:59.963Z</time></trkpt><trkpt lat="45.959825700383355" lon="9.449267287107938"><ele>572.5</ele><time>2026-05-02T10:02:00.963Z</time></trkpt><trkpt lat="45.9599664785523" lon="9.449325086834543"><ele>574.0</ele><time>2026-05-02T10:02:01.963Z</time></trkpt><trkpt lat="45.96010214496782" lon="9.449375521300633"><ele>573.0</ele><time>2026-05-02T10:02:02.963Z</time></trkpt><trkpt lat="45.960222573716095" lon="9.449432141963683"><ele>572.0</ele><time>2026-05-02T10:02:03.963Z</time></trkpt><trkpt lat="45.960336304158986" lon="9.44949738516657"><ele>571.0</ele><time>2026-05-02T10:02:04.963Z</time></trkpt><trkpt lat="45.96044357345583" lon="9.449583846073939"><ele>570.0</ele><time>2026-05-02T10:02:05.963Z</time></trkpt><trkpt lat="45.960547272180705" lon="9.449684183038956"><ele>570.0</ele><time>2026-05-02T10:02:06.963Z</time></trkpt><trkpt lat="45.960650685218575" lon="9.449796656922832"><ele>570.0</ele><time>2026-05-02T10:02:07.963Z</time></trkpt><trkpt lat="45.96075782304767" lon="9.449915510910612"><ele>570.0</ele><time>2026-05-02T10:02:08.963Z</time></trkpt><trkpt lat="45.960869154417345" lon="9.450030003685036"><ele>570.0</ele><time>2026-05-02T10:02:09.963Z</time></trkpt><trkpt lat="45.96097620008493" lon="9.450147242764743"><ele>568.75</ele><time>2026-05-02T10:02:10.963Z</time></trkpt><trkpt lat="45.96107170674281" lon="9.45028448477945"><ele>567.5</ele><time>2026-05-02T10:02:11.963Z</time></trkpt><trkpt lat="45.96118641706696" lon="9.450390233583684"><ele>566.25</ele><time>2026-05-02T10:02:12.963Z</time></trkpt><trkpt lat="45.961312270634046" lon="9.450474073873687"><ele>565.0</ele><time>2026-05-02T10:02:13.963Z</time></trkpt><trkpt lat="45.961450027133786" lon="9.45053682751026"><ele>565.0</ele><time>2026-05-02T10:02:14.963Z</time></trkpt><trkpt lat="45.96159587139724" lon="9.450583642124405"><ele>565.0</ele><time>2026-05-02T10:02:15.961Z</time></trkpt><trkpt lat="45.96174670916093" lon="9.450625977714795"><ele>565.0</ele><time>2026-05-02T10:02:16.961Z</time></trkpt><trkpt lat="45.96189221151002" lon="9.450643287957373"><ele>565.0</ele><time>2026-05-02T10:02:17.961Z</time></trkpt><trkpt lat="45.96203213945306" lon="9.450720618754776"><ele>565.0</ele><time>2026-05-02T10:02:18.961Z</time></trkpt><trkpt lat="45.96217564654957" lon="9.450759316046346"><ele>565.0</ele><time>2026-05-02T10:02:19.961Z</time></trkpt><trkpt lat="45.96231038440058" lon="9.45079797014205"><ele>565.0</ele><time>2026-05-02T10:02:20.961Z</time></trkpt><trkpt lat="45.96244827147046" lon="9.450832957120133"><ele>565.0</ele><time>2026-05-02T10:02:21.961Z</time></trkpt><trkpt lat="45.96258121987007" lon="9.450865893823597"><ele>564.25</ele><time>2026-05-02T10:02:22.961Z</time></trkpt><trkpt lat="45.962719486170435" lon="9.45090111100374"><ele>563.5</ele><time>2026-05-02T10:02:23.961Z</time></trkpt><trkpt lat="45.96285555868496" lon="9.450927048875629"><ele>562.75</ele><time>2026-05-02T10:02:24.961Z</time></trkpt><trkpt lat="45.9629834454703" lon="9.450958635591086"><ele>562.0</ele><time>2026-05-02T10:02:25.961Z</time></trkpt><trkpt lat="45.96311351998618" lon="9.450988977323448"><ele>562.0</ele><time>2026-05-02T10:02:26.961Z</time></trkpt><trkpt lat="45.963241575433635" lon="9.451025387391683"><ele>562.0</ele><time>2026-05-02T10:02:27.961Z</time></trkpt><trkpt lat="45.9633695844508" lon="9.451060763616685"><ele>562.0</ele><time>2026-05-02T10:02:28.961Z</time></trkpt><trkpt lat="45.96349885148613" lon="9.451080604177104"><ele>562.0</ele><time>2026-05-02T10:02:29.961Z</time></trkpt><trkpt lat="45.963625434420884" lon="9.451086800500539"><ele>562.0</ele><time>2026-05-02T10:02:30.961Z</time></trkpt><trkpt lat="45.96375765178315" lon="9.451081363063869"><ele>562.0</ele><time>2026-05-02T10:02:31.961Z</time></trkpt><trkpt lat="45.96389183824932" lon="9.451049921084802"><ele>562.0</ele><time>2026-05-02T10:02:32.961Z</time></trkpt><trkpt lat="45.96402951544137" lon="9.4510076572742"><ele>562.0</ele><time>2026-05-02T10:02:33.961Z</time></trkpt><trkpt lat="45.96416783417919" lon="9.450959297227058"><ele>561.75</ele><time>2026-05-02T10:02:34.961Z</time></trkpt><trkpt lat="45.96431048704027" lon="9.450906158272417"><ele>561.5</ele><time>2026-05-02T10:02:35.961Z</time></trkpt><trkpt lat="45.96445294924579" lon="9.450848968202488"><ele>561.25</ele><time>2026-05-02T10:02:36.961Z</time></trkpt><trkpt lat="45.96459826421589" lon="9.450788434556745"><ele>561.0</ele><time>2026-05-02T10:02:37.961Z</time></trkpt><trkpt lat="45.96474492497945" lon="9.45073720583403"><ele>561.0</ele><time>2026-05-02T10:02:38.961Z</time></trkpt><trkpt lat="45.96489158850618" lon="9.450674300614327"><ele>561.0</ele><time>2026-05-02T10:02:39.961Z</time></trkpt><trkpt lat="45.96503967289933" lon="9.450619392813797"><ele>561.0</ele><time>2026-05-02T10:02:40.961Z</time></trkpt><trkpt lat="45.965190298961176" lon="9.45055851612616"><ele>560.3333333333334</ele><time>2026-05-02T10:02:41.961Z</time></trkpt><trkpt lat="45.96534393857882" lon="9.450499848804577"><ele>559.6666666666667</ele><time>2026-05-02T10:02:42.961Z</time></trkpt><trkpt lat="45.96549672464217" lon="9.450425035304502"><ele>559.0</ele><time>2026-05-02T10:02:43.961Z</time></trkpt><trkpt lat="45.96564788350126" lon="9.450362148256977"><ele>559.0</ele><time>2026-05-02T10:02:44.961Z</time></trkpt><trkpt lat="45.96579129932456" lon="9.450284664224435"><ele>559.0</ele><time>2026-05-02T10:02:45.961Z</time></trkpt><trkpt lat="45.965930671689115" lon="9.4501863179545"><ele>559.0</ele><time>2026-05-02T10:02:46.961Z</time></trkpt><trkpt lat="45.96605733643321" lon="9.450066672465017"><ele>558.6666666666667</ele><time>2026-05-02T10:02:47.961Z</time></trkpt><trkpt lat="45.96618976780067" lon="9.449938610179887"><ele>558.3333333333334</ele><time>2026-05-02T10:02:48.961Z</time></trkpt><trkpt lat="45.966324132650215" lon="9.449799141263115"><ele>558.0</ele><time>2026-05-02T10:02:49.962Z</time></trkpt><trkpt lat="45.966463342942056" lon="9.449658122766776"><ele>558.0</ele><time>2026-05-02T10:02:50.962Z</time></trkpt><trkpt lat="45.96660202822021" lon="9.449512578983354"><ele>558.0</ele><time>2026-05-02T10:02:51.962Z</time></trkpt><trkpt lat="45.96674261445836" lon="9.44937251310765"><ele>558.0</ele><time>2026-05-02T10:02:52.962Z</time></trkpt><trkpt lat="45.96688914418087" lon="9.449229350796152"><ele>558.0</ele><time>2026-05-02T10:02:53.962Z</time></trkpt><trkpt lat="45.96702694328765" lon="9.449087028606826"><ele>558.0</ele><time>2026-05-02T10:02:54.962Z</time></trkpt><trkpt lat="45.96714736173844" lon="9.448960377595101"><ele>558.0</ele><time>2026-05-02T10:02:55.962Z</time></trkpt><trkpt lat="45.96725312708861" lon="9.448845262506497"><ele>557.5</ele><time>2026-05-02T10:02:56.962Z</time></trkpt><trkpt lat="45.96735547223112" lon="9.448739087040964"><ele>557.0</ele><time>2026-05-02T10:02:57.962Z</time></trkpt><trkpt lat="45.967458065626" lon="9.448632063225539"><ele>556.5</ele><time>2026-05-02T10:02:58.962Z</time></trkpt><trkpt lat="45.967561201099265" lon="9.44852352421752"><ele>556.0</ele><time>2026-05-02T10:02:59.962Z</time></trkpt><trkpt lat="45.96766220501662" lon="9.448413722677502"><ele>556.0</ele><time>2026-05-02T10:03:00.962Z</time></trkpt><trkpt lat="45.96777251294096" lon="9.448297631694741"><ele>556.0</ele><time>2026-05-02T10:03:01.962Z</time></trkpt><trkpt lat="45.967890524171324" lon="9.448173376724744"><ele>556.0</ele><time>2026-05-02T10:03:02.962Z</time></trkpt><trkpt lat="45.96801342293857" lon="9.448053040286847"><ele>556.0</ele><time>2026-05-02T10:03:03.962Z</time></trkpt><trkpt lat="45.96813656067481" lon="9.447929490694547"><ele>556.0</ele><time>2026-05-02T10:03:04.962Z</time></trkpt><trkpt lat="45.96826274649018" lon="9.447800021197297"><ele>556.0</ele><time>2026-05-02T10:03:05.962Z</time></trkpt><trkpt lat="45.968388579974004" lon="9.447669832790128"><ele>556.0</ele><time>2026-05-02T10:03:06.962Z</time></trkpt><trkpt lat="45.96851402039516" lon="9.44754189495649"><ele>557.0</ele><time>2026-05-02T10:03:07.962Z</time></trkpt><trkpt lat="45.96863646665206" lon="9.447411634978662"><ele>558.0</ele><time>2026-05-02T10:03:08.962Z</time></trkpt><trkpt lat="45.968765068376506" lon="9.447275797308187"><ele>559.0</ele><time>2026-05-02T10:03:09.962Z</time></trkpt><trkpt lat="45.968894009785416" lon="9.447144986059321"><ele>558.0</ele><time>2026-05-02T10:03:10.962Z</time></trkpt><trkpt lat="45.96902756728736" lon="9.447001313808348"><ele>557.0</ele><time>2026-05-02T10:03:11.962Z</time></trkpt><trkpt lat="45.96916147148551" lon="9.44685822897819"><ele>556.0</ele><time>2026-05-02T10:03:12.962Z</time></trkpt><trkpt lat="45.969307982733724" lon="9.446719228701884"><ele>555.6666666666667</ele><time>2026-05-02T10:03:13.962Z</time></trkpt><trkpt lat="45.96945587882497" lon="9.446586965436001"><ele>555.3333333333334</ele><time>2026-05-02T10:03:14.962Z</time></trkpt><trkpt lat="45.96960523467688" lon="9.44645718432537"><ele>555.0</ele><time>2026-05-02T10:03:15.962Z</time></trkpt><trkpt lat="45.969759010275055" lon="9.44633344965138"><ele>554.0</ele><time>2026-05-02T10:03:16.962Z</time></trkpt><trkpt lat="45.96991986226261" lon="9.44622075532111"><ele>553.0</ele><time>2026-05-02T10:03:17.962Z</time></trkpt><trkpt lat="45.970086425741876" lon="9.446115538830577"><ele>552.0</ele><time>2026-05-02T10:03:18.962Z</time></trkpt><trkpt lat="45.97025671486542" lon="9.44601621977941"><ele>552.0</ele><time>2026-05-02T10:03:19.962Z</time></trkpt><trkpt lat="45.97042922509145" lon="9.445920638786257"><ele>552.0</ele><time>2026-05-02T10:03:20.962Z</time></trkpt><trkpt lat="45.970604169333015" lon="9.445827456249233"><ele>552.0</ele><time>2026-05-02T10:03:21.962Z</time></trkpt><trkpt lat="45.97078542676938" lon="9.445755023445182"><ele>551.6666666666666</ele><time>2026-05-02T10:03:22.962Z</time></trkpt><trkpt lat="45.9709577925367" lon="9.445638701771008"><ele>551.3333333333333</ele><time>2026-05-02T10:03:23.962Z</time></trkpt><trkpt lat="45.971136448708194" lon="9.445542572717844"><ele>551.0</ele><time>2026-05-02T10:03:24.962Z</time></trkpt><trkpt lat="45.97131358431922" lon="9.44544867016546"><ele>551.0</ele><time>2026-05-02T10:03:25.962Z</time></trkpt><trkpt lat="45.9714961017033" lon="9.445350554009723"><ele>551.0</ele><time>2026-05-02T10:03:26.962Z</time></trkpt><trkpt lat="45.971679916444714" lon="9.445247434109977"><ele>551.0</ele><time>2026-05-02T10:03:27.962Z</time></trkpt><trkpt lat="45.97186446742242" lon="9.445150992494947"><ele>551.0</ele><time>2026-05-02T10:03:28.962Z</time></trkpt><trkpt lat="45.972050179131706" lon="9.445056776208656"><ele>551.0</ele><time>2026-05-02T10:03:29.962Z</time></trkpt><trkpt lat="45.972242998623024" lon="9.444973766353097"><ele>551.0</ele><time>2026-05-02T10:03:30.962Z</time></trkpt><trkpt lat="45.97242533372913" lon="9.444873636648826"><ele>550.6666666666666</ele><time>2026-05-02T10:03:31.962Z</time></trkpt><trkpt lat="45.97260916031768" lon="9.444776224179902"><ele>550.3333333333334</ele><time>2026-05-02T10:03:32.962Z</time></trkpt><trkpt lat="45.972791889674504" lon="9.444676037103719"><ele>550.0</ele><time>2026-05-02T10:03:33.962Z</time></trkpt><trkpt lat="45.97297636848612" lon="9.444573678267155"><ele>550.0</ele><time>2026-05-02T10:03:34.962Z</time></trkpt><trkpt lat="45.97315895244399" lon="9.444468645637505"><ele>550.0</ele><time>2026-05-02T10:03:35.962Z</time></trkpt><trkpt lat="45.973336400551496" lon="9.444367968301247"><ele>550.0</ele><time>2026-05-02T10:03:36.962Z</time></trkpt><trkpt lat="45.97350872144444" lon="9.444269504055084"><ele>551.3333333333334</ele><time>2026-05-02T10:03:37.962Z</time></trkpt><trkpt lat="45.97367157843748" lon="9.444182668182798"><ele>552.6666666666666</ele><time>2026-05-02T10:03:38.962Z</time></trkpt><trkpt lat="45.97382709961801" lon="9.444108685644366"><ele>554.0</ele><time>2026-05-02T10:03:39.962Z</time></trkpt><trkpt lat="45.97397928427177" lon="9.444055988835164"><ele>554.0</ele><time>2026-05-02T10:03:40.962Z</time></trkpt><trkpt lat="45.97414151239452" lon="9.444031738037172"><ele>554.0</ele><time>2026-05-02T10:03:41.962Z</time></trkpt><trkpt lat="45.97430116715397" lon="9.444044374234098"><ele>554.0</ele><time>2026-05-02T10:03:42.962Z</time></trkpt><trkpt lat="45.97445725908195" lon="9.444093626874862"><ele>554.6666666666666</ele><time>2026-05-02T10:03:43.962Z</time></trkpt><trkpt lat="45.97460387132714" lon="9.444182422006747"><ele>555.3333333333334</ele><time>2026-05-02T10:03:44.962Z</time></trkpt><trkpt lat="45.97473288025811" lon="9.444299334335211"><ele>556.0</ele><time>2026-05-02T10:03:45.962Z</time></trkpt><trkpt lat="45.974853048526626" lon="9.444435864447856"><ele>556.0</ele><time>2026-05-02T10:03:46.962Z</time></trkpt><trkpt lat="45.97495481883955" lon="9.444604872368728"><ele>556.0</ele><time>2026-05-02T10:03:47.963Z</time></trkpt><trkpt lat="45.97503572480066" lon="9.444788158645117"><ele>556.0</ele><time>2026-05-02T10:03:48.963Z</time></trkpt><trkpt lat="45.975098810558464" lon="9.444997087164117"><ele>557.3333333333334</ele><time>2026-05-02T10:03:49.963Z</time></trkpt><trkpt lat="45.97514235376432" lon="9.445213683725543"><ele>558.6666666666666</ele><time>2026-05-02T10:03:50.963Z</time></trkpt><trkpt lat="45.975174900648675" lon="9.445438885109741"><ele>560.0</ele><time>2026-05-02T10:03:51.963Z</time></trkpt><trkpt lat="45.97520494914397" lon="9.445669866104707"><ele>561.3333333333333</ele><time>2026-05-02T10:03:52.963Z</time></trkpt><trkpt lat="45.975232672774716" lon="9.445892900559791"><ele>562.6666666666666</ele><time>2026-05-02T10:03:53.963Z</time></trkpt><trkpt lat="45.97526467366296" lon="9.446121611101844"><ele>564.0</ele><time>2026-05-02T10:03:54.963Z</time></trkpt><trkpt lat="45.975296791619016" lon="9.446352356406397"><ele>566.0</ele><time>2026-05-02T10:03:55.963Z</time></trkpt><trkpt lat="45.975322938816774" lon="9.446584526811229"><ele>568.0</ele><time>2026-05-02T10:03:56.963Z</time></trkpt><trkpt lat="45.975351103203685" lon="9.44681668324759"><ele>570.0</ele><time>2026-05-02T10:03:57.963Z</time></trkpt><trkpt lat="45.975379729843226" lon="9.44704176896252"><ele>570.75</ele><time>2026-05-02T10:03:58.963Z</time></trkpt><trkpt lat="45.97540637431762" lon="9.447258369391488"><ele>571.5</ele><time>2026-05-02T10:03:59.963Z</time></trkpt><trkpt lat="45.975435785956016" lon="9.447463786788939"><ele>572.25</ele><time>2026-05-02T10:04:00.963Z</time></trkpt><trkpt lat="45.975479308037976" lon="9.44765285900119"><ele>573.0</ele><time>2026-05-02T10:04:01.963Z</time></trkpt><trkpt lat="45.975534473581945" lon="9.447821501931077"><ele>573.5</ele><time>2026-05-02T10:04:02.963Z</time></trkpt><trkpt lat="45.97560043594397" lon="9.447974918220043"><ele>574.0</ele><time>2026-05-02T10:04:03.963Z</time></trkpt><trkpt lat="45.97567241369515" lon="9.448114973731323"><ele>574.5</ele><time>2026-05-02T10:04:04.963Z</time></trkpt><trkpt lat="45.97574874836524" lon="9.448240177690163"><ele>575.0</ele><time>2026-05-02T10:04:05.963Z</time></trkpt><trkpt lat="45.97583818420662" lon="9.44835364466993"><ele>576.0</ele><time>2026-05-02T10:04:06.963Z</time></trkpt><trkpt lat="45.975942802020064" lon="9.44844835996753"><ele>577.0</ele><time>2026-05-02T10:04:07.963Z</time></trkpt><trkpt lat="45.976065105676994" lon="9.448508277218039"><ele>578.0</ele><time>2026-05-02T10:04:08.963Z</time></trkpt><trkpt lat="45.976200746776605" lon="9.448551148161638"><ele>579.0</ele><time>2026-05-02T10:04:09.963Z</time></trkpt><trkpt lat="45.97634176926031" lon="9.448600361796352"><ele>579.0</ele><time>2026-05-02T10:04:10.963Z</time></trkpt><trkpt lat="45.976485431489785" lon="9.448646163667007"><ele>579.0</ele><time>2026-05-02T10:04:11.963Z</time></trkpt><trkpt lat="45.9766261749088" lon="9.448694496342618"><ele>579.0</ele><time>2026-05-02T10:04:12.963Z</time></trkpt><trkpt lat="45.97677202428319" lon="9.448745527573095"><ele>579.0</ele><time>2026-05-02T10:04:13.963Z</time></trkpt><trkpt lat="45.976906489341616" lon="9.448793459981594"><ele>580.6</ele><time>2026-05-02T10:04:14.963Z</time></trkpt><trkpt lat="45.97702823544584" lon="9.448835744249534"><ele>582.2</ele><time>2026-05-02T10:04:15.963Z</time></trkpt><trkpt lat="45.9771309566068" lon="9.44887057457493"><ele>583.8000000000001</ele><time>2026-05-02T10:04:16.963Z</time></trkpt><trkpt lat="45.977209832759875" lon="9.448902654380626"><ele>585.4</ele><time>2026-05-02T10:04:17.963Z</time></trkpt><trkpt lat="45.97727132586472" lon="9.448926635762394"><ele>587.0</ele><time>2026-05-02T10:04:18.963Z</time></trkpt><trkpt lat="45.977375037479824" lon="9.448959308965897"><ele>587.0</ele><time>2026-05-02T10:04:20.963Z</time></trkpt><trkpt lat="45.977489661621625" lon="9.448994973643524"><ele>587.0</ele><time>2026-05-02T10:04:22.961Z</time></trkpt><trkpt lat="45.97761828655113" lon="9.448992258242084"><ele>587.0</ele><time>2026-05-02T10:04:24.96Z</time></trkpt><trkpt lat="45.97768372685198" lon="9.448978175074915"><ele>587.0</ele><time>2026-05-02T10:04:25.96Z</time></trkpt><trkpt lat="45.97775908205037" lon="9.448952812270889"><ele>587.0</ele><time>2026-05-02T10:04:26.96Z</time></trkpt><trkpt lat="45.977843176855906" lon="9.448934360846213"><ele>587.0</ele><time>2026-05-02T10:04:27.961Z</time></trkpt><trkpt lat="45.97792920236746" lon="9.44886609206787"><ele>587.0</ele><time>2026-05-02T10:04:28.96Z</time></trkpt><trkpt lat="45.978028465926855" lon="9.448823677147798"><ele>587.0</ele><time>2026-05-02T10:04:29.96Z</time></trkpt><trkpt lat="45.97813244137035" lon="9.448776457965527"><ele>587.0</ele><time>2026-05-02T10:04:30.961Z</time></trkpt><trkpt lat="45.978243211577876" lon="9.448726021240553"><ele>587.0</ele><time>2026-05-02T10:04:31.961Z</time></trkpt><trkpt lat="45.97835706826038" lon="9.44868115889821"><ele>586.25</ele><time>2026-05-02T10:04:32.961Z</time></trkpt><trkpt lat="45.97847371975875" lon="9.448634500334974"><ele>585.5</ele><time>2026-05-02T10:04:33.96Z</time></trkpt><trkpt lat="45.97859158985036" lon="9.44857631616065"><ele>584.75</ele><time>2026-05-02T10:04:34.961Z</time></trkpt><trkpt lat="45.978707895715" lon="9.448497449847535"><ele>584.0</ele><time>2026-05-02T10:04:35.961Z</time></trkpt><trkpt lat="45.978821852301124" lon="9.448394979604696"><ele>584.0</ele><time>2026-05-02T10:04:36.961Z</time></trkpt><trkpt lat="45.97893100916997" lon="9.448275672496917"><ele>584.0</ele><time>2026-05-02T10:04:37.961Z</time></trkpt><trkpt lat="45.97903126504044" lon="9.448138132856544"><ele>584.0</ele><time>2026-05-02T10:04:38.961Z</time></trkpt><trkpt lat="45.97912184286431" lon="9.447984684630597"><ele>584.0</ele><time>2026-05-02T10:04:39.961Z</time></trkpt><trkpt lat="45.97921520450538" lon="9.44782068343525"><ele>583.5</ele><time>2026-05-02T10:04:40.961Z</time></trkpt><trkpt lat="45.97927166979981" lon="9.447624896048534"><ele>583.0</ele><time>2026-05-02T10:04:41.961Z</time></trkpt><trkpt lat="45.979345194659544" lon="9.447444263771148"><ele>582.5</ele><time>2026-05-02T10:04:42.961Z</time></trkpt><trkpt lat="45.97941527011494" lon="9.447263064491425"><ele>582.0</ele><time>2026-05-02T10:04:43.961Z</time></trkpt><trkpt lat="45.97948281795547" lon="9.447086113952091"><ele>580.5</ele><time>2026-05-02T10:04:44.961Z</time></trkpt><trkpt lat="45.97956313970423" lon="9.446920003593274"><ele>579.0</ele><time>2026-05-02T10:04:45.961Z</time></trkpt><trkpt lat="45.979630169903" lon="9.44674686558716"><ele>577.5</ele><time>2026-05-02T10:04:46.961Z</time></trkpt><trkpt lat="45.9796828246101" lon="9.446563130650576"><ele>576.0</ele><time>2026-05-02T10:04:47.961Z</time></trkpt><trkpt lat="45.97975363946248" lon="9.446387458622"><ele>575.0</ele><time>2026-05-02T10:04:48.961Z</time></trkpt><trkpt lat="45.979825183590535" lon="9.446205714306954"><ele>574.0</ele><time>2026-05-02T10:04:49.961Z</time></trkpt><trkpt lat="45.97990722088605" lon="9.446034783021695"><ele>573.0</ele><time>2026-05-02T10:04:50.961Z</time></trkpt><trkpt lat="45.979961799336785" lon="9.4458440388607"><ele>572.0</ele><time>2026-05-02T10:04:51.961Z</time></trkpt><trkpt lat="45.98002168601342" lon="9.445664095062586"><ele>573.25</ele><time>2026-05-02T10:04:52.961Z</time></trkpt><trkpt lat="45.980081921555644" lon="9.445478232418314"><ele>574.5</ele><time>2026-05-02T10:04:53.961Z</time></trkpt><trkpt lat="45.980137471661756" lon="9.44528119122708"><ele>575.75</ele><time>2026-05-02T10:04:54.961Z</time></trkpt><trkpt lat="45.98018893930626" lon="9.445092366652302"><ele>577.0</ele><time>2026-05-02T10:04:55.961Z</time></trkpt><trkpt lat="45.980234904751235" lon="9.444917373092357"><ele>577.0</ele><time>2026-05-02T10:04:56.961Z</time></trkpt><trkpt lat="45.98027799804023" lon="9.444742763608359"><ele>577.0</ele><time>2026-05-02T10:04:57.961Z</time></trkpt><trkpt lat="45.980322787215584" lon="9.444575459597688"><ele>577.0</ele><time>2026-05-02T10:04:58.961Z</time></trkpt><trkpt lat="45.98036749974041" lon="9.444408423507802"><ele>577.0</ele><time>2026-05-02T10:04:59.961Z</time></trkpt><trkpt lat="45.98041009797064" lon="9.44423746568278"><ele>574.75</ele><time>2026-05-02T10:05:00.961Z</time></trkpt><trkpt lat="45.98045209105" lon="9.444061032113256"><ele>572.5</ele><time>2026-05-02T10:05:01.961Z</time></trkpt><trkpt lat="45.98049689259482" lon="9.44388093544267"><ele>570.25</ele><time>2026-05-02T10:05:02.961Z</time></trkpt><trkpt lat="45.98054342911006" lon="9.44369532655502"><ele>568.0</ele><time>2026-05-02T10:05:03.961Z</time></trkpt><trkpt lat="45.980588761568136" lon="9.443503285977568"><ele>567.5</ele><time>2026-05-02T10:05:04.961Z</time></trkpt><trkpt lat="45.98063514586851" lon="9.44331112431119"><ele>567.0</ele><time>2026-05-02T10:05:05.961Z</time></trkpt><trkpt lat="45.9806833401566" lon="9.443127099061059"><ele>566.5</ele><time>2026-05-02T10:05:06.961Z</time></trkpt><trkpt lat="45.980729379420445" lon="9.442949453084207"><ele>566.0</ele><time>2026-05-02T10:05:07.961Z</time></trkpt><trkpt lat="45.98077350512747" lon="9.44277776364284"><ele>565.75</ele><time>2026-05-02T10:05:08.961Z</time></trkpt><trkpt lat="45.980811688553274" lon="9.442610204711261"><ele>565.5</ele><time>2026-05-02T10:05:09.961Z</time></trkpt><trkpt lat="45.980849782683244" lon="9.442445538960506"><ele>565.25</ele><time>2026-05-02T10:05:10.961Z</time></trkpt><trkpt lat="45.98088528278637" lon="9.442273516762068"><ele>565.0</ele><time>2026-05-02T10:05:11.961Z</time></trkpt><trkpt lat="45.98092243714825" lon="9.442099619526156"><ele>565.0</ele><time>2026-05-02T10:05:12.962Z</time></trkpt><trkpt lat="45.98096450728141" lon="9.441932430375886"><ele>565.0</ele><time>2026-05-02T10:05:13.962Z</time></trkpt><trkpt lat="45.98101050140161" lon="9.44177486093923"><ele>565.0</ele><time>2026-05-02T10:05:14.962Z</time></trkpt><trkpt lat="45.981063236574116" lon="9.44162755115213"><ele>565.0</ele><time>2026-05-02T10:05:15.962Z</time></trkpt><trkpt lat="45.98112381497685" lon="9.441485199444351"><ele>565.0</ele><time>2026-05-02T10:05:16.962Z</time></trkpt><trkpt lat="45.98118456899876" lon="9.441359045307662"><ele>565.0</ele><time>2026-05-02T10:05:17.962Z</time></trkpt><trkpt lat="45.981249691924724" lon="9.441236294913653"><ele>565.0</ele><time>2026-05-02T10:05:18.962Z</time></trkpt><trkpt lat="45.98131670052845" lon="9.441123506884319"><ele>565.0</ele><time>2026-05-02T10:05:19.962Z</time></trkpt><trkpt lat="45.98138194950177" lon="9.441008663936039"><ele>565.0</ele><time>2026-05-02T10:05:20.962Z</time></trkpt><trkpt lat="45.9814501742394" lon="9.440889328062744"><ele>563.4</ele><time>2026-05-02T10:05:21.962Z</time></trkpt><trkpt lat="45.98151876605744" lon="9.44076829321103"><ele>561.8</ele><time>2026-05-02T10:05:22.962Z</time></trkpt><trkpt lat="45.98158640164165" lon="9.440648425867431"><ele>560.2</ele><time>2026-05-02T10:05:23.962Z</time></trkpt><trkpt lat="45.98164974473352" lon="9.440532422586635"><ele>558.6</ele><time>2026-05-02T10:05:24.962Z</time></trkpt><trkpt lat="45.9817246520322" lon="9.440438385652497"><ele>557.0</ele><time>2026-05-02T10:05:25.962Z</time></trkpt><trkpt lat="45.98178370787017" lon="9.44032868355688"><ele>557.0</ele><time>2026-05-02T10:05:26.962Z</time></trkpt><trkpt lat="45.981845715560844" lon="9.440214982190982"><ele>557.0</ele><time>2026-05-02T10:05:27.962Z</time></trkpt><trkpt lat="45.98191044180909" lon="9.440098019317391"><ele>557.0</ele><time>2026-05-02T10:05:28.962Z</time></trkpt><trkpt lat="45.98197292347422" lon="9.439982906605017"><ele>557.0</ele><time>2026-05-02T10:05:29.962Z</time></trkpt><trkpt lat="45.98203196056712" lon="9.439877902718003"><ele>557.0</ele><time>2026-05-02T10:05:30.962Z</time></trkpt><trkpt lat="45.98208702203757" lon="9.439776744257994"><ele>557.0</ele><time>2026-05-02T10:05:31.962Z</time></trkpt><trkpt lat="45.982142835359674" lon="9.439679538207063"><ele>557.0</ele><time>2026-05-02T10:05:32.962Z</time></trkpt><trkpt lat="45.98219816183116" lon="9.439578852443834"><ele>557.0</ele><time>2026-05-02T10:05:33.962Z</time></trkpt><trkpt lat="45.98226092274488" lon="9.439472561225584"><ele>557.0</ele><time>2026-05-02T10:05:34.962Z</time></trkpt><trkpt lat="45.98232803766756" lon="9.43935731253601"><ele>557.0</ele><time>2026-05-02T10:05:35.962Z</time></trkpt><trkpt lat="45.982398951869264" lon="9.439243933167253"><ele>556.6</ele><time>2026-05-02T10:05:36.962Z</time></trkpt><trkpt lat="45.982462129763825" lon="9.439124078790499"><ele>556.2</ele><time>2026-05-02T10:05:37.962Z</time></trkpt><trkpt lat="45.98252370219608" lon="9.43900943481552"><ele>555.8</ele><time>2026-05-02T10:05:38.962Z</time></trkpt><trkpt lat="45.98258258307982" lon="9.438896920123803"><ele>555.4</ele><time>2026-05-02T10:05:39.962Z</time></trkpt><trkpt lat="45.98264586742973" lon="9.438794416299602"><ele>555.0</ele><time>2026-05-02T10:05:40.962Z</time></trkpt><trkpt lat="45.982706711989614" lon="9.438699896182431"><ele>554.5714285714287</ele><time>2026-05-02T10:05:41.962Z</time></trkpt><trkpt lat="45.98276008443399" lon="9.438607433883671"><ele>554.1428571428571</ele><time>2026-05-02T10:05:42.962Z</time></trkpt><trkpt lat="45.98280807093343" lon="9.438521803534043"><ele>553.7142857142858</ele><time>2026-05-02T10:05:43.962Z</time></trkpt><trkpt lat="45.98285175405807" lon="9.438446929748183"><ele>553.2857142857143</ele><time>2026-05-02T10:05:44.962Z</time></trkpt><trkpt lat="45.982894530392905" lon="9.438374401071327"><ele>552.8571428571429</ele><time>2026-05-02T10:05:45.962Z</time></trkpt><trkpt lat="45.98293999717813" lon="9.43829947840751"><ele>552.4285714285714</ele><time>2026-05-02T10:05:46.962Z</time></trkpt><trkpt lat="45.98298582878431" lon="9.438216515486417"><ele>552.0</ele><time>2026-05-02T10:05:47.962Z</time></trkpt><trkpt lat="45.98303245871721" lon="9.438133699316458"><ele>552.0</ele><time>2026-05-02T10:05:48.962Z</time></trkpt><trkpt lat="45.98308221201164" lon="9.438049391402675"><ele>552.0</ele><time>2026-05-02T10:05:49.962Z</time></trkpt><trkpt lat="45.98312794086921" lon="9.437959808256856"><ele>552.0</ele><time>2026-05-02T10:05:50.962Z</time></trkpt><trkpt lat="45.98317328817558" lon="9.437858176160658"><ele>552.0</ele><time>2026-05-02T10:05:51.962Z</time></trkpt><trkpt lat="45.98321695781201" lon="9.437746402057781"><ele>552.0</ele><time>2026-05-02T10:05:52.962Z</time></trkpt><trkpt lat="45.98325069776229" lon="9.43762322055323"><ele>552.0</ele><time>2026-05-02T10:05:53.962Z</time></trkpt><trkpt lat="45.983286035363044" lon="9.437496693562244"><ele>551.8000000000001</ele><time>2026-05-02T10:05:54.962Z</time></trkpt><trkpt lat="45.98332387074084" lon="9.437360395502775"><ele>551.6</ele><time>2026-05-02T10:05:55.962Z</time></trkpt><trkpt lat="45.98336437824451" lon="9.437215568760566"><ele>551.4000000000001</ele><time>2026-05-02T10:05:56.962Z</time></trkpt><trkpt lat="45.98340558068647" lon="9.437065259016437"><ele>551.2</ele><time>2026-05-02T10:05:57.962Z</time></trkpt><trkpt lat="45.98344844968943" lon="9.436910041402307"><ele>551.0</ele><time>2026-05-02T10:05:58.962Z</time></trkpt><trkpt lat="45.9834859811005" lon="9.436755809280944"><ele>551.75</ele><time>2026-05-02T10:05:59.962Z</time></trkpt><trkpt lat="45.983524042771656" lon="9.436607106189614"><ele>552.5</ele><time>2026-05-02T10:06:00.962Z</time></trkpt><trkpt lat="45.98357272770388" lon="9.436459353872033"><ele>553.25</ele><time>2026-05-02T10:06:01.962Z</time></trkpt><trkpt lat="45.98363130183334" lon="9.43631559263576"><ele>554.0</ele><time>2026-05-02T10:06:02.962Z</time></trkpt><trkpt lat="45.98369995337839" lon="9.436170631449857"><ele>554.0</ele><time>2026-05-02T10:06:03.962Z</time></trkpt><trkpt lat="45.98378146896179" lon="9.43603183198995"><ele>554.0</ele><time>2026-05-02T10:06:04.962Z</time></trkpt><trkpt lat="45.983878103846436" lon="9.435897956525475"><ele>554.0</ele><time>2026-05-02T10:06:05.962Z</time></trkpt><trkpt lat="45.98398748034995" lon="9.435768977865305"><ele>554.0</ele><time>2026-05-02T10:06:06.962Z</time></trkpt><trkpt lat="45.98409772593506" lon="9.435650338201345"><ele>555.0</ele><time>2026-05-02T10:06:07.962Z</time></trkpt><trkpt lat="45.984205585366865" lon="9.43553511382899"><ele>556.0</ele><time>2026-05-02T10:06:08.962Z</time></trkpt><trkpt lat="45.98430886450756" lon="9.435426356194087"><ele>557.0</ele><time>2026-05-02T10:06:09.962Z</time></trkpt><trkpt lat="45.98440859440386" lon="9.435318936225006"><ele>558.0</ele><time>2026-05-02T10:06:10.963Z</time></trkpt><trkpt lat="45.9845091147314" lon="9.435206678989875"><ele>558.0</ele><time>2026-05-02T10:06:11.963Z</time></trkpt><trkpt lat="45.984607788633696" lon="9.435083595177659"><ele>558.0</ele><time>2026-05-02T10:06:12.963Z</time></trkpt><trkpt lat="45.98470422356977" lon="9.434944608409129"><ele>558.0</ele><time>2026-05-02T10:06:13.963Z</time></trkpt><trkpt lat="45.98479213721125" lon="9.4347913958217"><ele>558.0</ele><time>2026-05-02T10:06:14.963Z</time></trkpt><trkpt lat="45.984868065292396" lon="9.434619006356451"><ele>556.5</ele><time>2026-05-02T10:06:15.963Z</time></trkpt><trkpt lat="45.98493212418589" lon="9.434430613749512"><ele>555.0</ele><time>2026-05-02T10:06:16.963Z</time></trkpt><trkpt lat="45.98498328977271" lon="9.43423124386492"><ele>553.5</ele><time>2026-05-02T10:06:17.963Z</time></trkpt><trkpt lat="45.985024314774265" lon="9.434025626123082"><ele>552.0</ele><time>2026-05-02T10:06:18.963Z</time></trkpt><trkpt lat="45.98505975018952" lon="9.433827034055017"><ele>553.75</ele><time>2026-05-02T10:06:19.963Z</time></trkpt><trkpt lat="45.98509221549464" lon="9.433635393614932"><ele>555.5</ele><time>2026-05-02T10:06:20.963Z</time></trkpt><trkpt lat="45.98512330677738" lon="9.433451659960836"><ele>557.25</ele><time>2026-05-02T10:06:21.963Z</time></trkpt><trkpt lat="45.98514990771661" lon="9.433277254788672"><ele>559.0</ele><time>2026-05-02T10:06:22.963Z</time></trkpt><trkpt lat="45.98517717116891" lon="9.433113545123389"><ele>557.25</ele><time>2026-05-02T10:06:23.963Z</time></trkpt><trkpt lat="45.985209427866934" lon="9.432953159818721"><ele>555.5</ele><time>2026-05-02T10:06:24.963Z</time></trkpt><trkpt lat="45.98524571747517" lon="9.432803453597042"><ele>553.75</ele><time>2026-05-02T10:06:25.963Z</time></trkpt><trkpt lat="45.98529715851224" lon="9.432656904954095"><ele>552.0</ele><time>2026-05-02T10:06:26.963Z</time></trkpt><trkpt lat="45.98535445026456" lon="9.432514593341788"><ele>552.0</ele><time>2026-05-02T10:06:27.961Z</time></trkpt><trkpt lat="45.98542765677951" lon="9.432388562256929"><ele>552.0</ele><time>2026-05-02T10:06:28.96Z</time></trkpt><trkpt lat="45.98551020142942" lon="9.432275157828416"><ele>552.0</ele><time>2026-05-02T10:06:29.96Z</time></trkpt><trkpt lat="45.98559833548226" lon="9.432172527183726"><ele>552.0</ele><time>2026-05-02T10:06:30.961Z</time></trkpt><trkpt lat="45.98568499382563" lon="9.432076863677691"><ele>551.4</ele><time>2026-05-02T10:06:31.961Z</time></trkpt><trkpt lat="45.9857717129649" lon="9.431979927787612"><ele>550.8000000000001</ele><time>2026-05-02T10:06:32.961Z</time></trkpt><trkpt lat="45.985856289284825" lon="9.431882696650476"><ele>550.2</ele><time>2026-05-02T10:06:33.961Z</time></trkpt><trkpt lat="45.98593033748643" lon="9.431774067832635"><ele>549.6</ele><time>2026-05-02T10:06:34.96Z</time></trkpt><trkpt lat="45.986001328816556" lon="9.431663029404538"><ele>549.0</ele><time>2026-05-02T10:06:35.96Z</time></trkpt><trkpt lat="45.9860823935138" lon="9.431561645581791"><ele>551.2</ele><time>2026-05-02T10:06:36.96Z</time></trkpt><trkpt lat="45.986121123207795" lon="9.431407616079886"><ele>553.4</ele><time>2026-05-02T10:06:37.96Z</time></trkpt><trkpt lat="45.98617996718774" lon="9.431275634052769"><ele>555.6</ele><time>2026-05-02T10:06:38.96Z</time></trkpt><trkpt lat="45.98619586119231" lon="9.43111560902953"><ele>557.8</ele><time>2026-05-02T10:06:39.96Z</time></trkpt><trkpt lat="45.9862131196412" lon="9.430955639897292"><ele>560.0</ele><time>2026-05-02T10:06:40.96Z</time></trkpt><trkpt lat="45.98622045421467" lon="9.43080175190411"><ele>560.0</ele><time>2026-05-02T10:06:41.96Z</time></trkpt><trkpt lat="45.98629147924487" lon="9.430664650911782"><ele>560.0</ele><time>2026-05-02T10:06:42.96Z</time></trkpt><trkpt lat="45.98629816925601" lon="9.430517879786379"><ele>560.0</ele><time>2026-05-02T10:06:43.96Z</time></trkpt><trkpt lat="45.986303990946055" lon="9.430368383230016"><ele>560.0</ele><time>2026-05-02T10:06:44.96Z</time></trkpt><trkpt lat="45.98624287119499" lon="9.430202281171509"><ele>560.0</ele><time>2026-05-02T10:06:45.96Z</time></trkpt><trkpt lat="45.98625099238792" lon="9.43004939792902"><ele>560.0</ele><time>2026-05-02T10:06:46.96Z</time></trkpt><trkpt lat="45.98626278968144" lon="9.429898969020087"><ele>560.0</ele><time>2026-05-02T10:06:47.96Z</time></trkpt><trkpt lat="45.986266223049995" lon="9.429753296557486"><ele>560.0</ele><time>2026-05-02T10:06:48.961Z</time></trkpt><trkpt lat="45.986275668166336" lon="9.429612788147868"><ele>560.0</ele><time>2026-05-02T10:06:49.961Z</time></trkpt><trkpt lat="45.986279065092994" lon="9.429471647062496"><ele>560.0</ele><time>2026-05-02T10:06:50.961Z</time></trkpt><trkpt lat="45.986283763489446" lon="9.429331655162379"><ele>560.0</ele><time>2026-05-02T10:06:51.961Z</time></trkpt><trkpt lat="45.98630219658576" lon="9.429189129578928"><ele>560.0</ele><time>2026-05-02T10:06:52.961Z</time></trkpt><trkpt lat="45.98630937490908" lon="9.429045341755529"><ele>560.0</ele><time>2026-05-02T10:06:53.961Z</time></trkpt><trkpt lat="45.986303190086886" lon="9.42889998015784"><ele>560.0</ele><time>2026-05-02T10:06:54.961Z</time></trkpt><trkpt lat="45.98631158776245" lon="9.428752767690291"><ele>559.2</ele><time>2026-05-02T10:06:55.961Z</time></trkpt><trkpt lat="45.986351621029" lon="9.428610968105914"><ele>558.4</ele><time>2026-05-02T10:06:56.961Z</time></trkpt><trkpt lat="45.98636781097374" lon="9.428462059182525"><ele>557.6</ele><time>2026-05-02T10:06:57.961Z</time></trkpt><trkpt lat="45.986385867874866" lon="9.42831560878674"><ele>556.8</ele><time>2026-05-02T10:06:58.961Z</time></trkpt><trkpt lat="45.986404572069105" lon="9.428176057775422"><ele>556.0</ele><time>2026-05-02T10:06:59.961Z</time></trkpt><trkpt lat="45.98642615697785" lon="9.428032976098446"><ele>555.0</ele><time>2026-05-02T10:07:00.961Z</time></trkpt><trkpt lat="45.986446226060224" lon="9.427882354543826"><ele>554.0</ele><time>2026-05-02T10:07:01.961Z</time></trkpt><trkpt lat="45.986462359131636" lon="9.427722127488977"><ele>553.0</ele><time>2026-05-02T10:07:02.961Z</time></trkpt><trkpt lat="45.98647210885316" lon="9.4275514159886"><ele>552.0</ele><time>2026-05-02T10:07:03.961Z</time></trkpt><trkpt lat="45.98646468780459" lon="9.427370481946843"><ele>552.0</ele><time>2026-05-02T10:07:04.961Z</time></trkpt><trkpt lat="45.986446164123606" lon="9.42717539676279"><ele>552.0</ele><time>2026-05-02T10:07:05.961Z</time></trkpt><trkpt lat="45.986423374069155" lon="9.426982102429092"><ele>552.0</ele><time>2026-05-02T10:07:06.961Z</time></trkpt><trkpt lat="45.98639852486041" lon="9.426800788626304"><ele>552.0</ele><time>2026-05-02T10:07:07.961Z</time></trkpt><trkpt lat="45.986379728079484" lon="9.42662127978604"><ele>551.0</ele><time>2026-05-02T10:07:08.961Z</time></trkpt><trkpt lat="45.98637723973728" lon="9.42644152819699"><ele>550.0</ele><time>2026-05-02T10:07:09.961Z</time></trkpt><trkpt lat="45.986393168876575" lon="9.426251433283861"><ele>549.0</ele><time>2026-05-02T10:07:10.961Z</time></trkpt><trkpt lat="45.98643090499541" lon="9.426056043381394"><ele>548.0</ele><time>2026-05-02T10:07:11.961Z</time></trkpt><trkpt lat="45.98646987647131" lon="9.425863529535194"><ele>545.75</ele><time>2026-05-02T10:07:12.961Z</time></trkpt><trkpt lat="45.98651716097416" lon="9.425670028731387"><ele>543.5</ele><time>2026-05-02T10:07:13.961Z</time></trkpt><trkpt lat="45.986560624468794" lon="9.425473436584706"><ele>541.25</ele><time>2026-05-02T10:07:14.961Z</time></trkpt><trkpt lat="45.98660289970022" lon="9.42528570012373"><ele>539.0</ele><time>2026-05-02T10:07:15.961Z</time></trkpt><trkpt lat="45.98664546149347" lon="9.425105739928062"><ele>539.75</ele><time>2026-05-02T10:07:16.961Z</time></trkpt><trkpt lat="45.986689291604414" lon="9.42492902944056"><ele>540.5</ele><time>2026-05-02T10:07:17.961Z</time></trkpt><trkpt lat="45.98672819688503" lon="9.424745887062507"><ele>541.25</ele><time>2026-05-02T10:07:18.961Z</time></trkpt><trkpt lat="45.986774952407394" lon="9.424569529304282"><ele>542.0</ele><time>2026-05-02T10:07:19.961Z</time></trkpt><trkpt lat="45.98681969157939" lon="9.424390737486668"><ele>542.0</ele><time>2026-05-02T10:07:20.961Z</time></trkpt><trkpt lat="45.98686315763524" lon="9.424204214251162"><ele>542.0</ele><time>2026-05-02T10:07:21.961Z</time></trkpt><trkpt lat="45.98690352504877" lon="9.424009785757674"><ele>542.0</ele><time>2026-05-02T10:07:22.961Z</time></trkpt><trkpt lat="45.98694522390558" lon="9.423820388863088"><ele>542.0</ele><time>2026-05-02T10:07:23.961Z</time></trkpt><trkpt lat="45.986988504360106" lon="9.423630910339732"><ele>540.0</ele><time>2026-05-02T10:07:24.961Z</time></trkpt><trkpt lat="45.98703516264652" lon="9.423442986344691"><ele>538.0</ele><time>2026-05-02T10:07:25.961Z</time></trkpt><trkpt lat="45.98707811628559" lon="9.423253435171215"><ele>536.0</ele><time>2026-05-02T10:07:26.961Z</time></trkpt><trkpt lat="45.987123897676014" lon="9.423064756674698"><ele>534.0</ele><time>2026-05-02T10:07:27.961Z</time></trkpt><trkpt lat="45.98716961479792" lon="9.422875733206721"><ele>532.25</ele><time>2026-05-02T10:07:28.961Z</time></trkpt><trkpt lat="45.98721308455079" lon="9.42268465978161"><ele>530.5</ele><time>2026-05-02T10:07:29.961Z</time></trkpt><trkpt lat="45.98725765171797" lon="9.422496229497883"><ele>528.75</ele><time>2026-05-02T10:07:30.961Z</time></trkpt><trkpt lat="45.98730222076482" lon="9.422311796568758"><ele>527.0</ele><time>2026-05-02T10:07:31.961Z</time></trkpt><trkpt lat="45.987350258034766" lon="9.422125232135079"><ele>525.25</ele><time>2026-05-02T10:07:32.961Z</time></trkpt><trkpt lat="45.987399964444286" lon="9.421930211234834"><ele>523.5</ele><time>2026-05-02T10:07:33.961Z</time></trkpt><trkpt lat="45.987459714988624" lon="9.421737434330103"><ele>521.75</ele><time>2026-05-02T10:07:34.961Z</time></trkpt><trkpt lat="45.9875372742844" lon="9.421548594392124"><ele>520.0</ele><time>2026-05-02T10:07:35.961Z</time></trkpt><trkpt lat="45.987632082154676" lon="9.421369283520956"><ele>522.3333333333334</ele><time>2026-05-02T10:07:36.961Z</time></trkpt><trkpt lat="45.987733718391006" lon="9.421190564099318"><ele>524.6666666666666</ele><time>2026-05-02T10:07:37.961Z</time></trkpt><trkpt lat="45.987834236857545" lon="9.42101697726983"><ele>527.0</ele><time>2026-05-02T10:07:38.961Z</time></trkpt><trkpt lat="45.987930115597365" lon="9.420843513947837"><ele>527.0</ele><time>2026-05-02T10:07:39.961Z</time></trkpt><trkpt lat="45.988024852499464" lon="9.420665297188924"><ele>527.0</ele><time>2026-05-02T10:07:40.961Z</time></trkpt><trkpt lat="45.98811718337466" lon="9.420475927523182"><ele>527.0</ele><time>2026-05-02T10:07:41.961Z</time></trkpt><trkpt lat="45.988199932729685" lon="9.420277628774253"><ele>524.6666666666666</ele><time>2026-05-02T10:07:42.961Z</time></trkpt><trkpt lat="45.98827258964563" lon="9.420077646264886"><ele>522.3333333333334</ele><time>2026-05-02T10:07:43.961Z</time></trkpt><trkpt lat="45.98833752146793" lon="9.419874667017456"><ele>520.0</ele><time>2026-05-02T10:07:44.961Z</time></trkpt><trkpt lat="45.98841196801534" lon="9.419679596618154"><ele>523.3333333333334</ele><time>2026-05-02T10:07:45.961Z</time></trkpt><trkpt lat="45.98848556720608" lon="9.419489658271615"><ele>526.6666666666666</ele><time>2026-05-02T10:07:46.962Z</time></trkpt><trkpt lat="45.98855492374091" lon="9.41929182928645"><ele>530.0</ele><time>2026-05-02T10:07:47.962Z</time></trkpt><trkpt lat="45.98861546429934" lon="9.419093233901942"><ele>530.0</ele><time>2026-05-02T10:07:48.962Z</time></trkpt><trkpt lat="45.988659745518405" lon="9.418898861408433"><ele>530.0</ele><time>2026-05-02T10:07:49.962Z</time></trkpt><trkpt lat="45.98868238258937" lon="9.418701733958144"><ele>530.0</ele><time>2026-05-02T10:07:50.962Z</time></trkpt><trkpt lat="45.98869538990154" lon="9.418491897914247"><ele>530.0</ele><time>2026-05-02T10:07:51.962Z</time></trkpt><trkpt lat="45.988715034023606" lon="9.41828176380334"><ele>526.3333333333333</ele><time>2026-05-02T10:07:52.962Z</time></trkpt><trkpt lat="45.988761922179556" lon="9.41806768132596"><ele>522.6666666666666</ele><time>2026-05-02T10:07:53.962Z</time></trkpt><trkpt lat="45.988833322659104" lon="9.417859651227419"><ele>519.0</ele><time>2026-05-02T10:07:54.962Z</time></trkpt><trkpt lat="45.98890551393251" lon="9.417657405135934"><ele>516.6666666666666</ele><time>2026-05-02T10:07:55.962Z</time></trkpt><trkpt lat="45.988983298450485" lon="9.417457782755967"><ele>514.3333333333333</ele><time>2026-05-02T10:07:56.962Z</time></trkpt><trkpt lat="45.98906043278105" lon="9.417257266248704"><ele>512.0</ele><time>2026-05-02T10:07:57.962Z</time></trkpt><trkpt lat="45.98913534567702" lon="9.41705243559244"><ele>513.6666666666666</ele><time>2026-05-02T10:07:58.962Z</time></trkpt><trkpt lat="45.98920930348768" lon="9.416856848264228"><ele>515.3333333333334</ele><time>2026-05-02T10:07:59.962Z</time></trkpt><trkpt lat="45.989280721685496" lon="9.416666721372886"><ele>517.0</ele><time>2026-05-02T10:08:00.962Z</time></trkpt><trkpt lat="45.9893506987213" lon="9.41648386759413"><ele>515.5</ele><time>2026-05-02T10:08:01.962Z</time></trkpt><trkpt lat="45.98940395874591" lon="9.416294368408932"><ele>514.0</ele><time>2026-05-02T10:08:02.962Z</time></trkpt><trkpt lat="45.98945511649708" lon="9.416123178260728"><ele>512.5</ele><time>2026-05-02T10:08:03.962Z</time></trkpt><trkpt lat="45.98950506617317" lon="9.415966796300363"><ele>511.0</ele><time>2026-05-02T10:08:04.962Z</time></trkpt><trkpt lat="45.98955259907265" lon="9.415809554550123"><ele>511.0</ele><time>2026-05-02T10:08:05.962Z</time></trkpt><trkpt lat="45.98960428177824" lon="9.415658310508487"><ele>511.0</ele><time>2026-05-02T10:08:06.962Z</time></trkpt><trkpt lat="45.98965509806717" lon="9.41550329659742"><ele>511.0</ele><time>2026-05-02T10:08:07.962Z</time></trkpt><trkpt lat="45.98971052013133" lon="9.415337555947492"><ele>511.0</ele><time>2026-05-02T10:08:08.962Z</time></trkpt><trkpt lat="45.98976088895003" lon="9.415159703591232"><ele>509.75</ele><time>2026-05-02T10:08:09.962Z</time></trkpt><trkpt lat="45.98982174310696" lon="9.414985251053546"><ele>508.5</ele><time>2026-05-02T10:08:10.962Z</time></trkpt><trkpt lat="45.98988862624129" lon="9.41481600523289"><ele>507.25</ele><time>2026-05-02T10:08:11.962Z</time></trkpt><trkpt lat="45.98994867506224" lon="9.414631571858084"><ele>506.0</ele><time>2026-05-02T10:08:12.962Z</time></trkpt><trkpt lat="45.99001699427149" lon="9.41445167272479"><ele>506.0</ele><time>2026-05-02T10:08:13.962Z</time></trkpt><trkpt lat="45.99008945407727" lon="9.414265980415902"><ele>506.0</ele><time>2026-05-02T10:08:14.962Z</time></trkpt><trkpt lat="45.990160737947626" lon="9.414072761346636"><ele>506.0</ele><time>2026-05-02T10:08:15.962Z</time></trkpt><trkpt lat="45.99024384812761" lon="9.413889392302359"><ele>504.0</ele><time>2026-05-02T10:08:16.962Z</time></trkpt><trkpt lat="45.99034019468075" lon="9.413718917501736"><ele>502.0</ele><time>2026-05-02T10:08:17.962Z</time></trkpt><trkpt lat="45.99042932322487" lon="9.413545203297653"><ele>500.0</ele><time>2026-05-02T10:08:18.962Z</time></trkpt><trkpt lat="45.99052633022332" lon="9.413379334250884"><ele>500.0</ele><time>2026-05-02T10:08:19.962Z</time></trkpt><trkpt lat="45.990637432628155" lon="9.413225982634103"><ele>500.0</ele><time>2026-05-02T10:08:20.962Z</time></trkpt><trkpt lat="45.990764295803224" lon="9.413092849199417"><ele>500.0</ele><time>2026-05-02T10:08:21.962Z</time></trkpt><trkpt lat="45.99089623404754" lon="9.412960872739918"><ele>501.0</ele><time>2026-05-02T10:08:22.962Z</time></trkpt><trkpt lat="45.99102584693872" lon="9.412827486489633"><ele>502.0</ele><time>2026-05-02T10:08:23.962Z</time></trkpt><trkpt lat="45.99115168845215" lon="9.412697075162274"><ele>503.0</ele><time>2026-05-02T10:08:24.962Z</time></trkpt><trkpt lat="45.9912772147951" lon="9.412572501582993"><ele>503.0</ele><time>2026-05-02T10:08:25.962Z</time></trkpt><trkpt lat="45.991400365858496" lon="9.412456527956948"><ele>503.0</ele><time>2026-05-02T10:08:26.962Z</time></trkpt><trkpt lat="45.99151407235997" lon="9.41232292040126"><ele>503.0</ele><time>2026-05-02T10:08:27.962Z</time></trkpt><trkpt lat="45.99161262507776" lon="9.412154774927675"><ele>503.0</ele><time>2026-05-02T10:08:28.962Z</time></trkpt><trkpt lat="45.99170054572594" lon="9.411963305746882"><ele>504.66666666666663</ele><time>2026-05-02T10:08:29.962Z</time></trkpt><trkpt lat="45.99177463686931" lon="9.411751547453376"><ele>506.33333333333337</ele><time>2026-05-02T10:08:30.962Z</time></trkpt><trkpt lat="45.99184207953252" lon="9.411530414308354"><ele>508.0</ele><time>2026-05-02T10:08:31.962Z</time></trkpt><trkpt lat="45.991904429555866" lon="9.411303764001252"><ele>508.0</ele><time>2026-05-02T10:08:32.962Z</time></trkpt><trkpt lat="45.991965003118686" lon="9.4110693938014"><ele>508.0</ele><time>2026-05-02T10:08:33.961Z</time></trkpt><trkpt lat="45.992024106373" lon="9.41083271696893"><ele>508.0</ele><time>2026-05-02T10:08:34.96Z</time></trkpt><trkpt lat="45.99208217844347" lon="9.41059732734879"><ele>505.0</ele><time>2026-05-02T10:08:35.96Z</time></trkpt><trkpt lat="45.992139720196434" lon="9.410368157228898"><ele>502.0</ele><time>2026-05-02T10:08:36.961Z</time></trkpt><trkpt lat="45.992196259826024" lon="9.410154222171645"><ele>499.0</ele><time>2026-05-02T10:08:37.96Z</time></trkpt><trkpt lat="45.99225068259574" lon="9.409945156946248"><ele>499.0</ele><time>2026-05-02T10:08:38.96Z</time></trkpt><trkpt lat="45.9923048392917" lon="9.409747161643221"><ele>499.0</ele><time>2026-05-02T10:08:39.96Z</time></trkpt><trkpt lat="45.99235603183558" lon="9.409555336794579"><ele>499.0</ele><time>2026-05-02T10:08:40.96Z</time></trkpt><trkpt lat="45.99242738314009" lon="9.409372562074"><ele>499.0</ele><time>2026-05-02T10:08:41.96Z</time></trkpt><trkpt lat="45.992508284025604" lon="9.409194185354368"><ele>500.33333333333337</ele><time>2026-05-02T10:08:42.96Z</time></trkpt><trkpt lat="45.99260207136502" lon="9.409015063162508"><ele>501.66666666666663</ele><time>2026-05-02T10:08:43.96Z</time></trkpt><trkpt lat="45.99270107240479" lon="9.408841278095373"><ele>503.0</ele><time>2026-05-02T10:08:44.96Z</time></trkpt><trkpt lat="45.99280124150912" lon="9.408663605395981"><ele>503.0</ele><time>2026-05-02T10:08:45.961Z</time></trkpt><trkpt lat="45.99290262531766" lon="9.40848780628722"><ele>503.0</ele><time>2026-05-02T10:08:46.961Z</time></trkpt><trkpt lat="45.99300189217495" lon="9.408319168398275"><ele>503.0</ele><time>2026-05-02T10:08:47.961Z</time></trkpt><trkpt lat="45.99309874759223" lon="9.408140821862311"><ele>500.66666666666663</ele><time>2026-05-02T10:08:48.961Z</time></trkpt><trkpt lat="45.99318226832011" lon="9.407946064853068"><ele>498.33333333333337</ele><time>2026-05-02T10:08:49.961Z</time></trkpt><trkpt lat="45.99325210497347" lon="9.407731053714462"><ele>496.0</ele><time>2026-05-02T10:08:50.961Z</time></trkpt><trkpt lat="45.99329838974506" lon="9.407501543038542"><ele>496.0</ele><time>2026-05-02T10:08:51.961Z</time></trkpt><trkpt lat="45.993334426527156" lon="9.407262898086795"><ele>496.0</ele><time>2026-05-02T10:08:52.961Z</time></trkpt><trkpt lat="45.993355977284736" lon="9.40701569182292"><ele>496.0</ele><time>2026-05-02T10:08:53.961Z</time></trkpt><trkpt lat="45.99337381523619" lon="9.406760519632675"><ele>506.0</ele><time>2026-05-02T10:08:54.961Z</time></trkpt><trkpt lat="45.99338974419813" lon="9.4065135122816"><ele>516.0</ele><time>2026-05-02T10:08:55.961Z</time></trkpt><trkpt lat="45.99340666548616" lon="9.406274226447708"><ele>526.0</ele><time>2026-05-02T10:08:56.961Z</time></trkpt><trkpt lat="45.99342914277613" lon="9.40604034339673"><ele>526.0</ele><time>2026-05-02T10:08:57.961Z</time></trkpt><trkpt lat="45.993451384113165" lon="9.405806524199717"><ele>526.0</ele><time>2026-05-02T10:08:58.961Z</time></trkpt><trkpt lat="45.99348220214174" lon="9.405574754846398"><ele>526.0</ele><time>2026-05-02T10:08:59.961Z</time></trkpt><trkpt lat="45.99352119269169" lon="9.405344453089898"><ele>523.0</ele><time>2026-05-02T10:09:00.961Z</time></trkpt><trkpt lat="45.99358977098466" lon="9.405121261327928"><ele>520.0</ele><time>2026-05-02T10:09:01.961Z</time></trkpt><trkpt lat="45.99363335628833" lon="9.404879681194732"><ele>517.0</ele><time>2026-05-02T10:09:02.961Z</time></trkpt><trkpt lat="45.993697004856436" lon="9.404644912080242"><ele>512.0</ele><time>2026-05-02T10:09:03.961Z</time></trkpt><trkpt lat="45.99375894739998" lon="9.404418032765195"><ele>507.0</ele><time>2026-05-02T10:09:04.961Z</time></trkpt><trkpt lat="45.99381409725179" lon="9.404201001359185"><ele>502.0</ele><time>2026-05-02T10:09:05.961Z</time></trkpt><trkpt lat="45.993871064637545" lon="9.403993011361726"><ele>497.33333333333337</ele><time>2026-05-02T10:09:06.961Z</time></trkpt><trkpt lat="45.99392808640915" lon="9.403793365297682"><ele>492.66666666666663</ele><time>2026-05-02T10:09:07.961Z</time></trkpt><trkpt lat="45.99398991838327" lon="9.40360055881371"><ele>488.0</ele><time>2026-05-02T10:09:08.961Z</time></trkpt><trkpt lat="45.99405592283672" lon="9.403403260418534"><ele>488.0</ele><time>2026-05-02T10:09:09.961Z</time></trkpt><trkpt lat="45.99413122309569" lon="9.403198510266197"><ele>488.0</ele><time>2026-05-02T10:09:10.961Z</time></trkpt><trkpt lat="45.99420696557785" lon="9.40298387491733"><ele>488.0</ele><time>2026-05-02T10:09:11.961Z</time></trkpt><trkpt lat="45.99428479486568" lon="9.402762892483594"><ele>489.0</ele><time>2026-05-02T10:09:12.961Z</time></trkpt><trkpt lat="45.994366513409204" lon="9.402539067323378"><ele>490.0</ele><time>2026-05-02T10:09:13.961Z</time></trkpt><trkpt lat="45.99444936503234" lon="9.402318443707834"><ele>491.0</ele><time>2026-05-02T10:09:14.961Z</time></trkpt><trkpt lat="45.99453613368457" lon="9.402098469741501"><ele>491.0</ele><time>2026-05-02T10:09:15.961Z</time></trkpt><trkpt lat="45.99461755293816" lon="9.401867346183487"><ele>491.0</ele><time>2026-05-02T10:09:16.961Z</time></trkpt><trkpt lat="45.99469894220439" lon="9.401642214672616"><ele>491.0</ele><time>2026-05-02T10:09:17.961Z</time></trkpt><trkpt lat="45.99477589274483" lon="9.401419814096698"><ele>487.66666666666663</ele><time>2026-05-02T10:09:18.961Z</time></trkpt><trkpt lat="45.99485402301992" lon="9.40120014270518"><ele>484.33333333333337</ele><time>2026-05-02T10:09:19.961Z</time></trkpt><trkpt lat="45.994934052991695" lon="9.400989207366592"><ele>481.0</ele><time>2026-05-02T10:09:20.961Z</time></trkpt><trkpt lat="45.99500794118268" lon="9.400778753667279"><ele>484.33333333333337</ele><time>2026-05-02T10:09:21.961Z</time></trkpt><trkpt lat="45.99508519362383" lon="9.400564240118205"><ele>487.66666666666663</ele><time>2026-05-02T10:09:22.961Z</time></trkpt><trkpt lat="45.99516422383454" lon="9.400349182436587"><ele>491.0</ele><time>2026-05-02T10:09:23.962Z</time></trkpt><trkpt lat="45.995242212693945" lon="9.400133010240447"><ele>491.0</ele><time>2026-05-02T10:09:24.962Z</time></trkpt><trkpt lat="45.995320222085695" lon="9.399914257339793"><ele>491.0</ele><time>2026-05-02T10:09:25.962Z</time></trkpt><trkpt lat="45.99540015961337" lon="9.399697592133426"><ele>491.0</ele><time>2026-05-02T10:09:26.962Z</time></trkpt><trkpt lat="45.99547749063695" lon="9.39947897745781"><ele>487.3333333333333</ele><time>2026-05-02T10:09:27.962Z</time></trkpt><trkpt lat="45.99555901374737" lon="9.39926414576926"><ele>483.66666666666663</ele><time>2026-05-02T10:09:28.962Z</time></trkpt><trkpt lat="45.99563902478641" lon="9.399054796297712"><ele>480.0</ele><time>2026-05-02T10:09:29.962Z</time></trkpt><trkpt lat="45.995724829787086" lon="9.398849036918282"><ele>478.66666666666663</ele><time>2026-05-02T10:09:30.962Z</time></trkpt><trkpt lat="45.995819840337035" lon="9.39865239990524"><ele>477.3333333333333</ele><time>2026-05-02T10:09:31.962Z</time></trkpt><trkpt lat="45.99592540963163" lon="9.398464743764613"><ele>476.0</ele><time>2026-05-02T10:09:32.962Z</time></trkpt><trkpt lat="45.99603831748298" lon="9.398283151384163"><ele>475.3333333333333</ele><time>2026-05-02T10:09:33.962Z</time></trkpt><trkpt lat="45.99615649817649" lon="9.398105123038945"><ele>474.66666666666663</ele><time>2026-05-02T10:09:34.962Z</time></trkpt><trkpt lat="45.996273781878855" lon="9.39793830159241"><ele>474.0</ele><time>2026-05-02T10:09:35.962Z</time></trkpt><trkpt lat="45.996391621136745" lon="9.397777558461698"><ele>474.0</ele><time>2026-05-02T10:09:36.962Z</time></trkpt><trkpt lat="45.99652369789662" lon="9.397632715111568"><ele>474.0</ele><time>2026-05-02T10:09:37.962Z</time></trkpt><trkpt lat="45.99664028290973" lon="9.397473912715208"><ele>474.0</ele><time>2026-05-02T10:09:38.962Z</time></trkpt><trkpt lat="45.996760475435934" lon="9.397314472164878"><ele>474.0</ele><time>2026-05-02T10:09:39.962Z</time></trkpt><trkpt lat="45.99688022106676" lon="9.39715273215296"><ele>474.0</ele><time>2026-05-02T10:09:40.962Z</time></trkpt><trkpt lat="45.99700052631741" lon="9.396987754601659"><ele>474.0</ele><time>2026-05-02T10:09:41.962Z</time></trkpt><trkpt lat="45.99712034393288" lon="9.396822487630665"><ele>474.0</ele><time>2026-05-02T10:09:42.962Z</time></trkpt><trkpt lat="45.997241914178474" lon="9.396652934433916"><ele>474.0</ele><time>2026-05-02T10:09:43.962Z</time></trkpt><trkpt lat="45.99736289205912" lon="9.396482181529606"><ele>474.0</ele><time>2026-05-02T10:09:44.962Z</time></trkpt><trkpt lat="45.99748369109618" lon="9.396311885585337"><ele>477.33333333333337</ele><time>2026-05-02T10:09:45.962Z</time></trkpt><trkpt lat="45.99760545436951" lon="9.396142681611282"><ele>480.6666666666667</ele><time>2026-05-02T10:09:46.962Z</time></trkpt><trkpt lat="45.99773185980083" lon="9.395974182393195"><ele>484.0</ele><time>2026-05-02T10:09:47.962Z</time></trkpt><trkpt lat="45.99785533281454" lon="9.395795693252909"><ele>484.0</ele><time>2026-05-02T10:09:48.962Z</time></trkpt><trkpt lat="45.99798093517092" lon="9.395622817045723"><ele>484.0</ele><time>2026-05-02T10:09:49.962Z</time></trkpt><trkpt lat="45.99810038708301" lon="9.395456896543136"><ele>484.0</ele><time>2026-05-02T10:09:50.962Z</time></trkpt><trkpt lat="45.998216863436376" lon="9.395298167935762"><ele>487.33333333333337</ele><time>2026-05-02T10:09:51.962Z</time></trkpt><trkpt lat="45.99833266900224" lon="9.395144461029648"><ele>490.66666666666663</ele><time>2026-05-02T10:09:52.962Z</time></trkpt><trkpt lat="45.9984486779375" lon="9.3949919106806"><ele>494.0</ele><time>2026-05-02T10:09:53.962Z</time></trkpt><trkpt lat="45.99856468883809" lon="9.394827257155647"><ele>486.66666666666663</ele><time>2026-05-02T10:09:54.962Z</time></trkpt><trkpt lat="45.99868264797075" lon="9.394656523109019"><ele>479.33333333333337</ele><time>2026-05-02T10:09:55.962Z</time></trkpt><trkpt lat="45.99878999467556" lon="9.394463077913226"><ele>472.0</ele><time>2026-05-02T10:09:56.962Z</time></trkpt><trkpt lat="45.99888534066674" lon="9.394257571545705"><ele>472.0</ele><time>2026-05-02T10:09:57.962Z</time></trkpt><trkpt lat="45.99896497866513" lon="9.394043883596307"><ele>472.0</ele><time>2026-05-02T10:09:58.962Z</time></trkpt><trkpt lat="45.99903768080366" lon="9.393825378400782"><ele>472.0</ele><time>2026-05-02T10:09:59.962Z</time></trkpt><trkpt lat="45.99909595841088" lon="9.393599375712862"><ele>472.6666666666667</ele><time>2026-05-02T10:10:00.962Z</time></trkpt><trkpt lat="45.99914312329854" lon="9.393369606635357"><ele>473.33333333333337</ele><time>2026-05-02T10:10:01.962Z</time></trkpt><trkpt lat="45.99918866914284" lon="9.393142938471874"><ele>474.0</ele><time>2026-05-02T10:10:02.962Z</time></trkpt><trkpt lat="45.99923033545848" lon="9.392907796730464"><ele>474.0</ele><time>2026-05-02T10:10:03.962Z</time></trkpt><trkpt lat="45.999272760464635" lon="9.3926730399992"><ele>474.0</ele><time>2026-05-02T10:10:04.962Z</time></trkpt><trkpt lat="45.999315631690955" lon="9.392436336141362"><ele>474.0</ele><time>2026-05-02T10:10:05.962Z</time></trkpt><trkpt lat="45.999358876195075" lon="9.392200652829416"><ele>474.0</ele><time>2026-05-02T10:10:06.962Z</time></trkpt><trkpt lat="45.999400742700246" lon="9.391962090548267"><ele>474.0</ele><time>2026-05-02T10:10:07.962Z</time></trkpt><trkpt lat="45.99944501018213" lon="9.391727503976819"><ele>474.0</ele><time>2026-05-02T10:10:08.962Z</time></trkpt><trkpt lat="45.99949221613506" lon="9.391493644469785"><ele>473.66666666666663</ele><time>2026-05-02T10:10:09.962Z</time></trkpt><trkpt lat="45.99953642489472" lon="9.39126316951981"><ele>473.3333333333333</ele><time>2026-05-02T10:10:10.962Z</time></trkpt><trkpt lat="45.99957761928225" lon="9.391039021068066"><ele>473.0</ele><time>2026-05-02T10:10:11.962Z</time></trkpt><trkpt lat="45.999614253791094" lon="9.39081800915423"><ele>473.0</ele><time>2026-05-02T10:10:12.962Z</time></trkpt><trkpt lat="45.9996519257187" lon="9.39061125593572"><ele>473.0</ele><time>2026-05-02T10:10:13.962Z</time></trkpt><trkpt lat="45.99968417557701" lon="9.390413545600403"><ele>473.0</ele><time>2026-05-02T10:10:14.962Z</time></trkpt><trkpt lat="45.999718076085294" lon="9.39022612284011"><ele>473.0</ele><time>2026-05-02T10:10:15.962Z</time></trkpt><trkpt lat="45.99975195595745" lon="9.390046466944325"><ele>473.0</ele><time>2026-05-02T10:10:16.962Z</time></trkpt><trkpt lat="45.999800187198815" lon="9.389885652040068"><ele>473.0</ele><time>2026-05-02T10:10:17.962Z</time></trkpt><trkpt lat="45.99986111254182" lon="9.38973212412489"><ele>473.0</ele><time>2026-05-02T10:10:18.962Z</time></trkpt><trkpt lat="45.99993882301608" lon="9.389588127074537"><ele>473.0</ele><time>2026-05-02T10:10:19.962Z</time></trkpt><trkpt lat="46.000030125629685" lon="9.389447628957765"><ele>472.75</ele><time>2026-05-02T10:10:20.962Z</time></trkpt><trkpt lat="46.00012786863759" lon="9.389311621715724"><ele>472.5</ele><time>2026-05-02T10:10:21.963Z</time></trkpt><trkpt lat="46.000230773541645" lon="9.389177222772403"><ele>472.25</ele><time>2026-05-02T10:10:22.963Z</time></trkpt><trkpt lat="46.00034007234864" lon="9.389041995616571"><ele>472.0</ele><time>2026-05-02T10:10:23.963Z</time></trkpt><trkpt lat="46.00045139714548" lon="9.388901823613454"><ele>471.75</ele><time>2026-05-02T10:10:24.963Z</time></trkpt><trkpt lat="46.000567470881876" lon="9.38876115404703"><ele>471.5</ele><time>2026-05-02T10:10:25.963Z</time></trkpt><trkpt lat="46.00067826253139" lon="9.388623852190385"><ele>471.25</ele><time>2026-05-02T10:10:26.963Z</time></trkpt><trkpt lat="46.00078830841386" lon="9.388492731863941"><ele>471.0</ele><time>2026-05-02T10:10:27.963Z</time></trkpt><trkpt lat="46.000896170845465" lon="9.388360406586552"><ele>471.0</ele><time>2026-05-02T10:10:28.963Z</time></trkpt><trkpt lat="46.001004030532464" lon="9.388230163775045"><ele>471.0</ele><time>2026-05-02T10:10:29.963Z</time></trkpt><trkpt lat="46.001114296991496" lon="9.388105729040781"><ele>471.0</ele><time>2026-05-02T10:10:30.963Z</time></trkpt><trkpt lat="46.00122840850803" lon="9.387986380127364"><ele>471.0</ele><time>2026-05-02T10:10:31.963Z</time></trkpt><trkpt lat="46.00134649692231" lon="9.387871492905857"><ele>470.75</ele><time>2026-05-02T10:10:32.963Z</time></trkpt><trkpt lat="46.00146949189767" lon="9.387760735150426"><ele>470.5</ele><time>2026-05-02T10:10:33.963Z</time></trkpt><trkpt lat="46.00159341167581" lon="9.387648122138572"><ele>470.25</ele><time>2026-05-02T10:10:34.963Z</time></trkpt><trkpt lat="46.00171805637684" lon="9.387541332383728"><ele>470.0</ele><time>2026-05-02T10:10:35.963Z</time></trkpt><trkpt lat="46.00183434806059" lon="9.387433601720522"><ele>470.0</ele><time>2026-05-02T10:10:36.963Z</time></trkpt><trkpt lat="46.001950541611585" lon="9.38733110934567"><ele>470.0</ele><time>2026-05-02T10:10:37.963Z</time></trkpt><trkpt lat="46.00206180805977" lon="9.387222073338076"><ele>470.0</ele><time>2026-05-02T10:10:38.963Z</time></trkpt><trkpt lat="46.002178450887044" lon="9.387114324898981"><ele>470.0</ele><time>2026-05-02T10:10:39.96Z</time></trkpt><trkpt lat="46.0022968237439" lon="9.387009382011238"><ele>469.25</ele><time>2026-05-02T10:10:40.96Z</time></trkpt><trkpt lat="46.0024146772322" lon="9.386902620891055"><ele>468.5</ele><time>2026-05-02T10:10:41.96Z</time></trkpt><trkpt lat="46.00253414065606" lon="9.386799743560754"><ele>467.75</ele><time>2026-05-02T10:10:42.96Z</time></trkpt><trkpt lat="46.002650395724125" lon="9.386700678448074"><ele>467.0</ele><time>2026-05-02T10:10:43.96Z</time></trkpt><trkpt lat="46.002763669173675" lon="9.386598199741327"><ele>467.0</ele><time>2026-05-02T10:10:44.96Z</time></trkpt><trkpt lat="46.00288058089607" lon="9.386492796262907"><ele>467.0</ele><time>2026-05-02T10:10:45.961Z</time></trkpt><trkpt lat="46.00299525582117" lon="9.386390279931362"><ele>467.0</ele><time>2026-05-02T10:10:46.96Z</time></trkpt><trkpt lat="46.00310690606601" lon="9.386292544556232"><ele>467.0</ele><time>2026-05-02T10:10:47.96Z</time></trkpt><trkpt lat="46.003222233763246" lon="9.386212266949366"><ele>465.25</ele><time>2026-05-02T10:10:48.96Z</time></trkpt><trkpt lat="46.00334740036111" lon="9.386144751316905"><ele>463.5</ele><time>2026-05-02T10:10:49.961Z</time></trkpt><trkpt lat="46.003482042507414" lon="9.386083451941422"><ele>461.75</ele><time>2026-05-02T10:10:50.961Z</time></trkpt><trkpt lat="46.00362287338433" lon="9.386022264098157"><ele>460.0</ele><time>2026-05-02T10:10:51.961Z</time></trkpt><trkpt lat="46.00376541156814" lon="9.385964645527274"><ele>460.0</ele><time>2026-05-02T10:10:52.96Z</time></trkpt><trkpt lat="46.00391261870538" lon="9.385900715355701"><ele>460.0</ele><time>2026-05-02T10:10:53.96Z</time></trkpt><trkpt lat="46.004053457055484" lon="9.385822141845725"><ele>460.0</ele><time>2026-05-02T10:10:54.961Z</time></trkpt><trkpt lat="46.004190561301556" lon="9.38573568358922"><ele>459.0</ele><time>2026-05-02T10:10:55.961Z</time></trkpt><trkpt lat="46.004325366016474" lon="9.38563027345848"><ele>458.0</ele><time>2026-05-02T10:10:56.961Z</time></trkpt><trkpt lat="46.004456172993045" lon="9.385510920759854"><ele>457.0</ele><time>2026-05-02T10:10:57.961Z</time></trkpt><trkpt lat="46.00458193942788" lon="9.385374417309038"><ele>457.0</ele><time>2026-05-02T10:10:58.961Z</time></trkpt><trkpt lat="46.004710775109594" lon="9.385237495565779"><ele>457.0</ele><time>2026-05-02T10:10:59.961Z</time></trkpt><trkpt lat="46.00483936840947" lon="9.385095626268562"><ele>457.0</ele><time>2026-05-02T10:11:00.961Z</time></trkpt><trkpt lat="46.00496703303476" lon="9.384954463319017"><ele>456.0</ele><time>2026-05-02T10:11:01.961Z</time></trkpt><trkpt lat="46.005090589492696" lon="9.384806842366094"><ele>455.0</ele><time>2026-05-02T10:11:02.961Z</time></trkpt><trkpt lat="46.00520887449743" lon="9.384652986380205"><ele>454.0</ele><time>2026-05-02T10:11:03.961Z</time></trkpt><trkpt lat="46.005323592463476" lon="9.384490899125677"><ele>454.0</ele><time>2026-05-02T10:11:04.961Z</time></trkpt><trkpt lat="46.0054552518611" lon="9.384345448064801"><ele>454.0</ele><time>2026-05-02T10:11:05.961Z</time></trkpt><trkpt lat="46.005572899663356" lon="9.384173877055249"><ele>454.0</ele><time>2026-05-02T10:11:06.961Z</time></trkpt><trkpt lat="46.00568859729924" lon="9.3839935800592"><ele>454.0</ele><time>2026-05-02T10:11:07.961Z</time></trkpt><trkpt lat="46.00579922670957" lon="9.383809364033837"><ele>454.0</ele><time>2026-05-02T10:11:08.961Z</time></trkpt><trkpt lat="46.00590844789198" lon="9.383626721078167"><ele>454.0</ele><time>2026-05-02T10:11:09.961Z</time></trkpt><trkpt lat="46.006015540374094" lon="9.383447892410462"><ele>454.0</ele><time>2026-05-02T10:11:10.961Z</time></trkpt><trkpt lat="46.00613245084765" lon="9.383247795682793"><ele>454.0</ele><time>2026-05-02T10:11:12.097Z</time></trkpt><trkpt lat="46.00623319106545" lon="9.383075375258985"><ele>454.0</ele><time>2026-05-02T10:11:13.096Z</time></trkpt><trkpt lat="46.00633256413482" lon="9.38290529469852"><ele>452.5</ele><time>2026-05-02T10:11:14.097Z</time></trkpt><trkpt lat="46.00643034396663" lon="9.382737821334674"><ele>451.0</ele><time>2026-05-02T10:11:15.097Z</time></trkpt><trkpt lat="46.00656322634006" lon="9.382332312993734"><ele>450.75</ele><time>2026-05-02T10:11:16.961Z</time></trkpt><trkpt lat="46.00666358329308" lon="9.382239146670441"><ele>450.5</ele><time>2026-05-02T10:11:17.961Z</time></trkpt><trkpt lat="46.00678159595825" lon="9.382131502021116"><ele>450.25</ele><time>2026-05-02T10:11:18.961Z</time></trkpt><trkpt lat="46.006876430764926" lon="9.381967691551282"><ele>450.0</ele><time>2026-05-02T10:11:19.961Z</time></trkpt><trkpt lat="46.006968687267175" lon="9.381807904898098"><ele>449.0</ele><time>2026-05-02T10:11:20.961Z</time></trkpt><trkpt lat="46.00703223432569" lon="9.381636286622834"><ele>448.0</ele><time>2026-05-02T10:11:21.961Z</time></trkpt><trkpt lat="46.007113548353416" lon="9.381503095961172"><ele>447.0</ele><time>2026-05-02T10:11:22.961Z</time></trkpt><trkpt lat="46.007177050500914" lon="9.381398013598817"><ele>446.0</ele><time>2026-05-02T10:11:23.961Z</time></trkpt><trkpt lat="46.00723261738196" lon="9.381314685923128"><ele>445.0</ele><time>2026-05-02T10:11:24.961Z</time></trkpt><trkpt lat="46.00727823212426" lon="9.381250659123129"><ele>444.6</ele><time>2026-05-02T10:11:25.961Z</time></trkpt><trkpt lat="46.00734357027255" lon="9.381200938979982"><ele>444.2</ele><time>2026-05-02T10:11:27.961Z</time></trkpt><trkpt lat="46.00742545332312" lon="9.381280064061096"><ele>443.79999999999995</ele><time>2026-05-02T10:11:30.961Z</time></trkpt><trkpt lat="46.00748761827056" lon="9.381340772730793"><ele>443.4</ele><time>2026-05-02T10:11:32.961Z</time></trkpt><trkpt lat="46.00753549539681" lon="9.381411067476488"><ele>443.0</ele><time>2026-05-02T10:11:34.961Z</time></trkpt><trkpt lat="46.00767535308574" lon="9.3813603503288"><ele>443.0</ele><time>2026-05-02T10:11:36.961Z</time></trkpt><trkpt lat="46.00757328850612" lon="9.381488752045573"><ele>442.99999999999994</ele><time>2026-05-02T10:11:37.961Z</time></trkpt><trkpt lat="46.00755185258339" lon="9.381367537377477"><ele>442.99999999999994</ele><time>2026-05-02T10:11:43.961Z</time></trkpt><trkpt lat="46.007494578274404" lon="9.381318236362864"><ele>443.0</ele><time>2026-05-02T10:11:44.961Z</time></trkpt><trkpt lat="46.00741766562515" lon="9.381233530031901"><ele>443.0</ele><time>2026-05-02T10:11:46.961Z</time></trkpt><trkpt lat="46.00736480213508" lon="9.381173920641688"><ele>443.0</ele><time>2026-05-02T10:11:49.961Z</time></trkpt><trkpt lat="46.007300422123855" lon="9.381155937814102"><ele>442.99999999999994</ele><time>2026-05-02T10:11:55.962Z</time></trkpt><trkpt lat="46.007205280346845" lon="9.381289029855944"><ele>442.99999999999994</ele><time>2026-05-02T10:11:57.962Z</time></trkpt><trkpt lat="46.007151266175825" lon="9.381390292477938"><ele>443.0</ele><time>2026-05-02T10:11:58.962Z</time></trkpt><trkpt lat="46.007089194708605" lon="9.381499978532169"><ele>443.0</ele><time>2026-05-02T10:11:59.962Z</time></trkpt><trkpt lat="46.00702075339201" lon="9.381622253979582"><ele>443.5</ele><time>2026-05-02T10:12:00.962Z</time></trkpt><trkpt lat="46.00694605744211" lon="9.381755910068419"><ele>444.0</ele><time>2026-05-02T10:12:01.962Z</time></trkpt><trkpt lat="46.00687021050475" lon="9.381890451489943"><ele>444.5</ele><time>2026-05-02T10:12:02.962Z</time></trkpt><trkpt lat="46.00679113029388" lon="9.382032865297056"><ele>445.0</ele><time>2026-05-02T10:12:03.962Z</time></trkpt><trkpt lat="46.006706600869464" lon="9.38218076839305"><ele>446.5</ele><time>2026-05-02T10:12:04.962Z</time></trkpt><trkpt lat="46.006615799595735" lon="9.382329805625728"><ele>448.0</ele><time>2026-05-02T10:12:05.962Z</time></trkpt><trkpt lat="46.00652700676241" lon="9.38248535308128"><ele>449.5</ele><time>2026-05-02T10:12:06.962Z</time></trkpt><trkpt lat="46.006438378170685" lon="9.382648574614931"><ele>451.0</ele><time>2026-05-02T10:12:07.962Z</time></trkpt><trkpt lat="46.00634810850768" lon="9.38281848494278"><ele>451.0</ele><time>2026-05-02T10:12:08.962Z</time></trkpt><trkpt lat="46.00625276091242" lon="9.382990329381649"><ele>451.0</ele><time>2026-05-02T10:12:09.962Z</time></trkpt><trkpt lat="46.006153492733816" lon="9.383162361491197"><ele>451.0</ele><time>2026-05-02T10:12:10.962Z</time></trkpt><trkpt lat="46.0060518835684" lon="9.383340771558196"><ele>452.0</ele><time>2026-05-02T10:12:11.962Z</time></trkpt><trkpt lat="46.00593731531404" lon="9.383505101392588"><ele>453.0</ele><time>2026-05-02T10:12:12.962Z</time></trkpt><trkpt lat="46.00583398201218" lon="9.383677898415309"><ele>454.0</ele><time>2026-05-02T10:12:13.962Z</time></trkpt><trkpt lat="46.005730791817506" lon="9.38385045606399"><ele>454.0</ele><time>2026-05-02T10:12:14.962Z</time></trkpt><trkpt lat="46.00562762146088" lon="9.384020406811599"><ele>454.0</ele><time>2026-05-02T10:12:15.962Z</time></trkpt><trkpt lat="46.00552267875539" lon="9.384179940631395"><ele>454.0</ele><time>2026-05-02T10:12:16.962Z</time></trkpt><trkpt lat="46.00541634242285" lon="9.384333401878644"><ele>457.0</ele><time>2026-05-02T10:12:17.962Z</time></trkpt><trkpt lat="46.004906531099294" lon="9.38500437561518"><ele>457.0</ele><time>2026-05-02T10:12:22.962Z</time></trkpt><trkpt lat="46.00479562890168" lon="9.385135076043609"><ele>457.0</ele><time>2026-05-02T10:12:23.962Z</time></trkpt><trkpt lat="46.00466452635086" lon="9.385233377838807"><ele>457.0</ele><time>2026-05-02T10:12:24.962Z</time></trkpt><trkpt lat="46.004507792738245" lon="9.385394879209068"><ele>457.0</ele><time>2026-05-02T10:12:25.962Z</time></trkpt><trkpt lat="46.004398369914284" lon="9.385505535247276"><ele>457.0</ele><time>2026-05-02T10:12:26.962Z</time></trkpt><trkpt lat="46.00429802321515" lon="9.385619719864325"><ele>457.0</ele><time>2026-05-02T10:12:27.962Z</time></trkpt><trkpt lat="46.00419186995637" lon="9.385684833242722"><ele>457.0</ele><time>2026-05-02T10:12:28.962Z</time></trkpt><trkpt lat="46.00406782047511" lon="9.385762835114885"><ele>457.75</ele><time>2026-05-02T10:12:29.962Z</time></trkpt><trkpt lat="46.00393790915163" lon="9.385831904353385"><ele>458.5</ele><time>2026-05-02T10:12:30.962Z</time></trkpt><trkpt lat="46.00380441239696" lon="9.385892607127543"><ele>459.25</ele><time>2026-05-02T10:12:31.962Z</time></trkpt><trkpt lat="46.00367256771062" lon="9.385951050040005"><ele>460.0</ele><time>2026-05-02T10:12:32.962Z</time></trkpt><trkpt lat="46.00354383477852" lon="9.38603121072084"><ele>460.0</ele><time>2026-05-02T10:12:33.962Z</time></trkpt><trkpt lat="46.00341092506224" lon="9.386067028609416"><ele>460.0</ele><time>2026-05-02T10:12:34.962Z</time></trkpt><trkpt lat="46.00328453459241" lon="9.386124645395354"><ele>460.0</ele><time>2026-05-02T10:12:35.962Z</time></trkpt><trkpt lat="46.003161461346856" lon="9.38620067681292"><ele>460.0</ele><time>2026-05-02T10:12:36.962Z</time></trkpt><trkpt lat="46.00304665880531" lon="9.386300620792014"><ele>461.4</ele><time>2026-05-02T10:12:37.962Z</time></trkpt><trkpt lat="46.00294201558244" lon="9.386393875974141"><ele>462.8</ele><time>2026-05-02T10:12:38.962Z</time></trkpt><trkpt lat="46.00284317950484" lon="9.386481956122319"><ele>464.20000000000005</ele><time>2026-05-02T10:12:39.962Z</time></trkpt><trkpt lat="46.00275583364431" lon="9.386559796579492"><ele>465.6</ele><time>2026-05-02T10:12:40.962Z</time></trkpt><trkpt lat="46.002678347646594" lon="9.386640039778197"><ele>467.0</ele><time>2026-05-02T10:12:41.962Z</time></trkpt><trkpt lat="46.00260388419608" lon="9.38670811143985"><ele>466.99999999999994</ele><time>2026-05-02T10:12:42.962Z</time></trkpt><trkpt lat="46.00253234590053" lon="9.386771129213816"><ele>467.0</ele><time>2026-05-02T10:12:43.962Z</time></trkpt><trkpt lat="46.00246286009032" lon="9.386832493928743"><ele>467.0</ele><time>2026-05-02T10:12:44.962Z</time></trkpt><trkpt lat="46.00239465254099" lon="9.386898985167058"><ele>467.0</ele><time>2026-05-02T10:12:45.96Z</time></trkpt><trkpt lat="46.0023266520738" lon="9.386959594366582"><ele>466.99999999999994</ele><time>2026-05-02T10:12:46.96Z</time></trkpt><trkpt lat="46.002259185879176" lon="9.38701731101854"><ele>467.0</ele><time>2026-05-02T10:12:47.961Z</time></trkpt><trkpt lat="46.00219566711439" lon="9.387075698348266"><ele>466.66666666666663</ele><time>2026-05-02T10:12:48.961Z</time></trkpt><trkpt lat="46.00212763044327" lon="9.387134214024353"><ele>466.3333333333333</ele><time>2026-05-02T10:12:49.96Z</time></trkpt><trkpt lat="46.00206265388011" lon="9.387190861174673"><ele>466.0</ele><time>2026-05-02T10:12:50.96Z</time></trkpt><trkpt lat="46.001964452496665" lon="9.38728495441298"><ele>465.66666666666663</ele><time>2026-05-02T10:12:52.96Z</time></trkpt><trkpt lat="46.00189836243881" lon="9.387349992103351"><ele>465.3333333333333</ele><time>2026-05-02T10:12:54.96Z</time></trkpt><trkpt lat="46.001838178281005" lon="9.387382234449076"><ele>465.0</ele><time>2026-05-02T10:12:56.96Z</time></trkpt><trkpt lat="46.00177830531734" lon="9.387335597179291"><ele>465.0</ele><time>2026-05-02T10:13:00.96Z</time></trkpt><trkpt lat="46.00185274048613" lon="9.387279829793336"><ele>465.0</ele><time>2026-05-02T10:13:02.96Z</time></trkpt><trkpt lat="46.001943981306866" lon="9.387201991202828"><ele>465.0</ele><time>2026-05-02T10:13:04.96Z</time></trkpt><trkpt lat="46.00198357450443" lon="9.387131363305167"><ele>465.0</ele><time>2026-05-02T10:13:05.96Z</time></trkpt><trkpt lat="46.00202492651399" lon="9.387060686884523"><ele>465.0</ele><time>2026-05-02T10:13:06.96Z</time></trkpt><trkpt lat="46.00203935849548" lon="9.386960887402093"><ele>465.0</ele><time>2026-05-02T10:13:07.96Z</time></trkpt><trkpt lat="46.00203754274322" lon="9.386865021400132"><ele>465.0</ele><time>2026-05-02T10:13:08.96Z</time></trkpt><trkpt lat="46.00194055052532" lon="9.386677103748246"><ele>465.0</ele><time>2026-05-02T10:13:10.96Z</time></trkpt><trkpt lat="46.00185944112768" lon="9.386645259469628"><ele>465.0</ele><time>2026-05-02T10:13:11.961Z</time></trkpt><trkpt lat="46.00179360887261" lon="9.386569297173315"><ele>465.0</ele><time>2026-05-02T10:13:12.961Z</time></trkpt><trkpt lat="46.00173066535955" lon="9.386478939643334"><ele>465.0</ele><time>2026-05-02T10:13:13.961Z</time></trkpt><trkpt lat="46.00166270162768" lon="9.386382386958777"><ele>463.8</ele><time>2026-05-02T10:13:14.961Z</time></trkpt><trkpt lat="46.001593898365144" lon="9.386283992351744"><ele>462.6</ele><time>2026-05-02T10:13:15.961Z</time></trkpt><trkpt lat="46.00152589516746" lon="9.386193712830352"><ele>461.4</ele><time>2026-05-02T10:13:16.961Z</time></trkpt><trkpt lat="46.00150296978954" lon="9.386040943431794"><ele>460.2</ele><time>2026-05-02T10:13:17.961Z</time></trkpt><trkpt lat="46.00138528178788" lon="9.386028026912127"><ele>459.0</ele><time>2026-05-02T10:13:18.961Z</time></trkpt><trkpt lat="46.00130949189" lon="9.385950510535693"><ele>459.0</ele><time>2026-05-02T10:13:19.961Z</time></trkpt><trkpt lat="46.001237681797384" lon="9.38586298750347"><ele>459.0</ele><time>2026-05-02T10:13:20.961Z</time></trkpt><trkpt lat="46.00116349978579" lon="9.385777067919264"><ele>459.0</ele><time>2026-05-02T10:13:21.961Z</time></trkpt><trkpt lat="46.00108680519002" lon="9.385685883735897"><ele>459.0</ele><time>2026-05-02T10:13:22.961Z</time></trkpt><trkpt lat="46.00106948967312" lon="9.385490271897131"><ele>459.0</ele><time>2026-05-02T10:13:23.961Z</time></trkpt><trkpt lat="46.000970659476195" lon="9.385390863664457"><ele>458.79999999999995</ele><time>2026-05-02T10:13:24.961Z</time></trkpt><trkpt lat="46.00088282024417" lon="9.38530796581035"><ele>458.59999999999997</ele><time>2026-05-02T10:13:25.961Z</time></trkpt><trkpt lat="46.00079627045889" lon="9.385226267269966"><ele>458.4</ele><time>2026-05-02T10:13:26.961Z</time></trkpt><trkpt lat="46.00071193187351" lon="9.385145931332593"><ele>458.2</ele><time>2026-05-02T10:13:27.961Z</time></trkpt><trkpt lat="46.00063963215572" lon="9.385074600928752"><ele>458.0</ele><time>2026-05-02T10:13:28.961Z</time></trkpt><trkpt lat="46.0005731622297" lon="9.385002923980483"><ele>458.2857142857143</ele><time>2026-05-02T10:13:29.961Z</time></trkpt><trkpt lat="46.00050171863069" lon="9.38493408232509"><ele>458.57142857142856</ele><time>2026-05-02T10:13:30.961Z</time></trkpt><trkpt lat="46.00045116618005" lon="9.384850117870174"><ele>458.85714285714283</ele><time>2026-05-02T10:13:31.961Z</time></trkpt><trkpt lat="46.000417282536645" lon="9.384762049171762"><ele>459.1428571428571</ele><time>2026-05-02T10:13:32.961Z</time></trkpt><trkpt lat="46.0004167644073" lon="9.384663009865452"><ele>459.42857142857144</ele><time>2026-05-02T10:13:33.961Z</time></trkpt><trkpt lat="46.000415553723116" lon="9.384554263951765"><ele>459.71428571428567</ele><time>2026-05-02T10:13:34.961Z</time></trkpt><trkpt lat="46.000418836284545" lon="9.38446356571314"><ele>459.99999999999994</ele><time>2026-05-02T10:13:35.961Z</time></trkpt><trkpt lat="46.00042448693383" lon="9.384302502562718"><ele>461.6666666666667</ele><time>2026-05-02T10:13:37.961Z</time></trkpt><trkpt lat="46.000444857104654" lon="9.38416559680386"><ele>463.33333333333337</ele><time>2026-05-02T10:13:39.961Z</time></trkpt><trkpt lat="46.00047029719671" lon="9.38408267531205"><ele>465.0</ele><time>2026-05-02T10:13:40.961Z</time></trkpt><trkpt lat="46.00048935245083" lon="9.383976805911416"><ele>466.66666666666663</ele><time>2026-05-02T10:13:41.961Z</time></trkpt><trkpt lat="46.00053189631846" lon="9.383872926300707"><ele>468.3333333333333</ele><time>2026-05-02T10:13:42.961Z</time></trkpt><trkpt lat="46.000566584113805" lon="9.383752861689132"><ele>470.0</ele><time>2026-05-02T10:13:43.961Z</time></trkpt><trkpt lat="46.00059709520075" lon="9.383622102289147"><ele>471.4</ele><time>2026-05-02T10:13:44.961Z</time></trkpt><trkpt lat="46.000625857584" lon="9.383485712888476"><ele>472.8</ele><time>2026-05-02T10:13:45.961Z</time></trkpt><trkpt lat="46.0006556457974" lon="9.38334638560858"><ele>474.20000000000005</ele><time>2026-05-02T10:13:46.961Z</time></trkpt><trkpt lat="46.00068066187209" lon="9.383207504833086"><ele>475.6</ele><time>2026-05-02T10:13:47.961Z</time></trkpt><trkpt lat="46.00071996662946" lon="9.383073166480935"><ele>477.0</ele><time>2026-05-02T10:13:48.961Z</time></trkpt><trkpt lat="46.00072945550537" lon="9.382933912411385"><ele>477.0</ele><time>2026-05-02T10:13:49.961Z</time></trkpt><trkpt lat="46.0007633835046" lon="9.382806596344988"><ele>477.0</ele><time>2026-05-02T10:13:50.961Z</time></trkpt><trkpt lat="46.000777578496134" lon="9.382682529108559"><ele>477.0</ele><time>2026-05-02T10:13:51.961Z</time></trkpt><trkpt lat="46.0007905455608" lon="9.382567978612931"><ele>477.0</ele><time>2026-05-02T10:13:52.961Z</time></trkpt><trkpt lat="46.00080703963229" lon="9.382456800835199"><ele>477.0</ele><time>2026-05-02T10:13:53.961Z</time></trkpt><trkpt lat="46.000825525677016" lon="9.382352512262662"><ele>477.0</ele><time>2026-05-02T10:13:54.961Z</time></trkpt><trkpt lat="46.000844117209084" lon="9.382260976878472"><ele>474.20000000000005</ele><time>2026-05-02T10:13:55.961Z</time></trkpt><trkpt lat="46.000868614621865" lon="9.382149770321066"><ele>471.40000000000003</ele><time>2026-05-02T10:13:56.961Z</time></trkpt><trkpt lat="46.00090569553755" lon="9.382043126301877"><ele>468.59999999999997</ele><time>2026-05-02T10:13:57.961Z</time></trkpt><trkpt lat="46.0009318802173" lon="9.381926364352939"><ele>465.79999999999995</ele><time>2026-05-02T10:13:58.961Z</time></trkpt><trkpt lat="46.00093890986975" lon="9.381785316822242"><ele>463.0</ele><time>2026-05-02T10:13:59.961Z</time></trkpt><trkpt lat="46.00094045425997" lon="9.381634729096037"><ele>463.0</ele><time>2026-05-02T10:14:00.961Z</time></trkpt><trkpt lat="46.000926657537875" lon="9.381472923005052"><ele>463.0</ele><time>2026-05-02T10:14:01.961Z</time></trkpt><trkpt lat="46.000905719842685" lon="9.38129899435037"><ele>463.0</ele><time>2026-05-02T10:14:02.961Z</time></trkpt><trkpt lat="46.00086071129871" lon="9.381133762158626"><ele>463.0</ele><time>2026-05-02T10:14:03.961Z</time></trkpt><trkpt lat="46.00082354810641" lon="9.38097297446463"><ele>465.0</ele><time>2026-05-02T10:14:04.961Z</time></trkpt><trkpt lat="46.0007971104148" lon="9.38081167814235"><ele>467.0</ele><time>2026-05-02T10:14:05.961Z</time></trkpt><trkpt lat="46.000780359611554" lon="9.380645351283288"><ele>469.0</ele><time>2026-05-02T10:14:06.961Z</time></trkpt><trkpt lat="46.00080458742036" lon="9.380460322710283"><ele>471.0</ele><time>2026-05-02T10:14:07.961Z</time></trkpt><trkpt lat="46.00082635712095" lon="9.380270883489388"><ele>471.25</ele><time>2026-05-02T10:14:08.961Z</time></trkpt><trkpt lat="46.00085158701295" lon="9.380079972024117"><ele>471.5</ele><time>2026-05-02T10:14:09.962Z</time></trkpt><trkpt lat="46.00087626981891" lon="9.379893179411003"><ele>471.75</ele><time>2026-05-02T10:14:10.962Z</time></trkpt><trkpt lat="46.00090012000918" lon="9.379714716086415"><ele>472.0</ele><time>2026-05-02T10:14:11.962Z</time></trkpt><trkpt lat="46.00091976942101" lon="9.379545159055835"><ele>472.0</ele><time>2026-05-02T10:14:12.962Z</time></trkpt><trkpt lat="46.00093219399179" lon="9.379392222452331"><ele>472.00000000000006</ele><time>2026-05-02T10:14:13.962Z</time></trkpt><trkpt lat="46.00094486647349" lon="9.379239689682379"><ele>472.00000000000006</ele><time>2026-05-02T10:14:14.962Z</time></trkpt><trkpt lat="46.0009554997582" lon="9.379090256495425"><ele>472.0</ele><time>2026-05-02T10:14:15.962Z</time></trkpt><trkpt lat="46.00094657000094" lon="9.378947756321539"><ele>472.0</ele><time>2026-05-02T10:14:16.962Z</time></trkpt><trkpt lat="46.00094159344373" lon="9.378802017304443"><ele>474.0</ele><time>2026-05-02T10:14:17.962Z</time></trkpt><trkpt lat="46.0009392372213" lon="9.37864211374745"><ele>476.0</ele><time>2026-05-02T10:14:18.962Z</time></trkpt><trkpt lat="46.00095807533942" lon="9.378489382598705"><ele>478.0</ele><time>2026-05-02T10:14:19.962Z</time></trkpt><trkpt lat="46.000993648837294" lon="9.37832779059131"><ele>480.0</ele><time>2026-05-02T10:14:20.962Z</time></trkpt><trkpt lat="46.00104771642386" lon="9.378174454058323"><ele>480.0</ele><time>2026-05-02T10:14:21.962Z</time></trkpt><trkpt lat="46.00112410117159" lon="9.378018442185077"><ele>480.0</ele><time>2026-05-02T10:14:22.962Z</time></trkpt><trkpt lat="46.00119697833057" lon="9.377866224525627"><ele>480.0</ele><time>2026-05-02T10:14:23.962Z</time></trkpt><trkpt lat="46.001279413564305" lon="9.377720857495733"><ele>480.0</ele><time>2026-05-02T10:14:24.962Z</time></trkpt><trkpt lat="46.001374357014214" lon="9.377595827111154"><ele>479.25</ele><time>2026-05-02T10:14:25.962Z</time></trkpt><trkpt lat="46.0014901855565" lon="9.377490249689194"><ele>478.5</ele><time>2026-05-02T10:14:26.962Z</time></trkpt><trkpt lat="46.00162680488763" lon="9.377401116804034"><ele>477.75</ele><time>2026-05-02T10:14:27.962Z</time></trkpt><trkpt lat="46.001779045643886" lon="9.377328111967149"><ele>477.0</ele><time>2026-05-02T10:14:28.962Z</time></trkpt><trkpt lat="46.00192777790351" lon="9.37724436826928"><ele>481.33333333333337</ele><time>2026-05-02T10:14:29.962Z</time></trkpt><trkpt lat="46.00207357052418" lon="9.37715591323971"><ele>485.6666666666667</ele><time>2026-05-02T10:14:30.962Z</time></trkpt><trkpt lat="46.00220799611816" lon="9.3770436949493"><ele>490.0</ele><time>2026-05-02T10:14:31.962Z</time></trkpt><trkpt lat="46.002336859959094" lon="9.376917547290532"><ele>490.0</ele><time>2026-05-02T10:14:32.963Z</time></trkpt><trkpt lat="46.002459348793224" lon="9.37678586018064"><ele>490.0</ele><time>2026-05-02T10:14:33.963Z</time></trkpt><trkpt lat="46.00257637558912" lon="9.376646071678394"><ele>490.0</ele><time>2026-05-02T10:14:34.964Z</time></trkpt><trkpt lat="46.00269709823314" lon="9.376517449554923"><ele>488.25</ele><time>2026-05-02T10:14:35.964Z</time></trkpt><trkpt lat="46.00281276330328" lon="9.376376278229513"><ele>486.5</ele><time>2026-05-02T10:14:36.964Z</time></trkpt><trkpt lat="46.00293227896358" lon="9.376241937575454"><ele>484.75</ele><time>2026-05-02T10:14:37.965Z</time></trkpt><trkpt lat="46.00303905058794" lon="9.376118227536384"><ele>483.0</ele><time>2026-05-02T10:14:38.965Z</time></trkpt><trkpt lat="46.0031390783153" lon="9.376004398781335"><ele>484.75</ele><time>2026-05-02T10:14:39.965Z</time></trkpt><trkpt lat="46.003239794130636" lon="9.375889768944264"><ele>486.5</ele><time>2026-05-02T10:14:40.965Z</time></trkpt><trkpt lat="46.00333251570703" lon="9.375761871820183"><ele>488.25</ele><time>2026-05-02T10:14:41.966Z</time></trkpt><trkpt lat="46.003413295988906" lon="9.375614723344398"><ele>490.0</ele><time>2026-05-02T10:14:42.966Z</time></trkpt><trkpt lat="46.00348549230199" lon="9.375444707963295"><ele>493.33333333333337</ele><time>2026-05-02T10:14:43.966Z</time></trkpt><trkpt lat="46.003557702045" lon="9.375259730093845"><ele>496.66666666666663</ele><time>2026-05-02T10:14:44.966Z</time></trkpt><trkpt lat="46.00363463702528" lon="9.37507104434276"><ele>500.0</ele><time>2026-05-02T10:14:45.966Z</time></trkpt><trkpt lat="46.00371562079557" lon="9.374875039757601"><ele>503.75</ele><time>2026-05-02T10:14:46.967Z</time></trkpt><trkpt lat="46.00379785011414" lon="9.374684862631423"><ele>507.5</ele><time>2026-05-02T10:14:47.967Z</time></trkpt><trkpt lat="46.00387937078866" lon="9.374509395473911"><ele>511.25</ele><time>2026-05-02T10:14:48.967Z</time></trkpt><trkpt lat="46.00396185005393" lon="9.374348019863948"><ele>515.0</ele><time>2026-05-02T10:14:49.967Z</time></trkpt><trkpt lat="46.00403980975058" lon="9.37418625528252"><ele>515.0</ele><time>2026-05-02T10:14:50.967Z</time></trkpt><trkpt lat="46.004117119267605" lon="9.374017607260074"><ele>515.0</ele><time>2026-05-02T10:14:51.966Z</time></trkpt><trkpt lat="46.004182290238134" lon="9.373830686865272"><ele>515.0</ele><time>2026-05-02T10:14:52.966Z</time></trkpt><trkpt lat="46.00424206028719" lon="9.373640159985476"><ele>515.0</ele><time>2026-05-02T10:14:53.966Z</time></trkpt><trkpt lat="46.00429945484125" lon="9.373447709754483"><ele>516.75</ele><time>2026-05-02T10:14:54.966Z</time></trkpt><trkpt lat="46.00435551699825" lon="9.373257589486293"><ele>518.5</ele><time>2026-05-02T10:14:55.966Z</time></trkpt><trkpt lat="46.00442228870653" lon="9.373073607267822"><ele>520.25</ele><time>2026-05-02T10:14:56.966Z</time></trkpt><trkpt lat="46.004508210419374" lon="9.372904886216268"><ele>522.0</ele><time>2026-05-02T10:14:57.966Z</time></trkpt><trkpt lat="46.0046158166804" lon="9.37276751764833"><ele>522.0</ele><time>2026-05-02T10:14:58.966Z</time></trkpt><trkpt lat="46.004716414969955" lon="9.372591251301408"><ele>522.0</ele><time>2026-05-02T10:14:59.966Z</time></trkpt><trkpt lat="46.00482755895757" lon="9.372429676774754"><ele>522.0</ele><time>2026-05-02T10:15:00.967Z</time></trkpt><trkpt lat="46.00495021443647" lon="9.372284564690501"><ele>520.0</ele><time>2026-05-02T10:15:01.966Z</time></trkpt><trkpt lat="46.005050881580104" lon="9.372104051278608"><ele>518.0</ele><time>2026-05-02T10:15:02.966Z</time></trkpt><trkpt lat="46.00516952743801" lon="9.371949780851983"><ele>516.0</ele><time>2026-05-02T10:15:03.966Z</time></trkpt><trkpt lat="46.005311918490655" lon="9.371834892650591"><ele>516.0</ele><time>2026-05-02T10:15:04.966Z</time></trkpt><trkpt lat="46.00544763294704" lon="9.371704604665759"><ele>516.0</ele><time>2026-05-02T10:15:05.966Z</time></trkpt><trkpt lat="46.00556785464641" lon="9.371558965080112"><ele>516.0</ele><time>2026-05-02T10:15:06.967Z</time></trkpt><trkpt lat="46.005658173973515" lon="9.371372232613554"><ele>516.25</ele><time>2026-05-02T10:15:07.967Z</time></trkpt><trkpt lat="46.00574653543448" lon="9.371220121074984"><ele>516.5</ele><time>2026-05-02T10:15:08.967Z</time></trkpt><trkpt lat="46.00582130757352" lon="9.37109073392266"><ele>516.75</ele><time>2026-05-02T10:15:09.967Z</time></trkpt><trkpt lat="46.005884694414355" lon="9.370963377569902"><ele>517.0</ele><time>2026-05-02T10:15:10.967Z</time></trkpt><trkpt lat="46.00593557822979" lon="9.370829918339801"><ele>517.0</ele><time>2026-05-02T10:15:11.967Z</time></trkpt><trkpt lat="46.00598122187889" lon="9.370670635016003"><ele>517.0</ele><time>2026-05-02T10:15:12.967Z</time></trkpt><trkpt lat="46.00596616691617" lon="9.37050815362807"><ele>517.0</ele><time>2026-05-02T10:15:13.967Z</time></trkpt><trkpt lat="46.00596415986214" lon="9.370336422501842"><ele>517.0</ele><time>2026-05-02T10:15:14.967Z</time></trkpt><trkpt lat="46.0059682487735" lon="9.37016174611414"><ele>520.75</ele><time>2026-05-02T10:15:15.967Z</time></trkpt><trkpt lat="46.00598585202865" lon="9.370000906596907"><ele>524.5</ele><time>2026-05-02T10:15:16.967Z</time></trkpt><trkpt lat="46.006035170263836" lon="9.369860583888704"><ele>528.25</ele><time>2026-05-02T10:15:17.967Z</time></trkpt><trkpt lat="46.00611486965019" lon="9.369728445586414"><ele>532.0</ele><time>2026-05-02T10:15:18.967Z</time></trkpt><trkpt lat="46.00622295797208" lon="9.369641820773767"><ele>532.75</ele><time>2026-05-02T10:15:19.967Z</time></trkpt><trkpt lat="46.00633887164208" lon="9.369531933681895"><ele>533.5</ele><time>2026-05-02T10:15:20.967Z</time></trkpt><trkpt lat="46.00646339546416" lon="9.369434813405235"><ele>534.25</ele><time>2026-05-02T10:15:21.967Z</time></trkpt><trkpt lat="46.00657661103905" lon="9.369324824828315"><ele>535.0</ele><time>2026-05-02T10:15:22.967Z</time></trkpt><trkpt lat="46.006678278835935" lon="9.369207711633866"><ele>535.0</ele><time>2026-05-02T10:15:23.967Z</time></trkpt><trkpt lat="46.006776062923365" lon="9.369084234225852"><ele>535.0</ele><time>2026-05-02T10:15:24.967Z</time></trkpt><trkpt lat="46.006870775225195" lon="9.368959722944947"><ele>535.0</ele><time>2026-05-02T10:15:25.967Z</time></trkpt><trkpt lat="46.00696766144006" lon="9.368862519886475"><ele>535.0</ele><time>2026-05-02T10:15:26.967Z</time></trkpt><trkpt lat="46.00707748914331" lon="9.368788756094121"><ele>539.75</ele><time>2026-05-02T10:15:27.967Z</time></trkpt><trkpt lat="46.00720110803696" lon="9.368747978642382"><ele>544.5</ele><time>2026-05-02T10:15:28.967Z</time></trkpt><trkpt lat="46.00733410556225" lon="9.368741582815979"><ele>549.25</ele><time>2026-05-02T10:15:29.968Z</time></trkpt><trkpt lat="46.00747125295734" lon="9.368762448038952"><ele>554.0</ele><time>2026-05-02T10:15:30.968Z</time></trkpt><trkpt lat="46.00760636263854" lon="9.368773371096065"><ele>554.0</ele><time>2026-05-02T10:15:31.968Z</time></trkpt><trkpt lat="46.00772935640586" lon="9.368749041457393"><ele>554.0</ele><time>2026-05-02T10:15:32.968Z</time></trkpt><trkpt lat="46.00784525125198" lon="9.368703110167566"><ele>554.0</ele><time>2026-05-02T10:15:33.968Z</time></trkpt><trkpt lat="46.007957264230356" lon="9.368634152177531"><ele>554.0</ele><time>2026-05-02T10:15:34.968Z</time></trkpt><trkpt lat="46.008060522045334" lon="9.368526898118152"><ele>554.0</ele><time>2026-05-02T10:15:35.968Z</time></trkpt><trkpt lat="46.00815522881867" lon="9.368403627969741"><ele>554.0</ele><time>2026-05-02T10:15:36.968Z</time></trkpt><trkpt lat="46.0082417644036" lon="9.368264335174345"><ele>554.0</ele><time>2026-05-02T10:15:37.968Z</time></trkpt><trkpt lat="46.00832119708997" lon="9.368122224361704"><ele>554.0</ele><time>2026-05-02T10:15:38.968Z</time></trkpt><trkpt lat="46.00839441524861" lon="9.367973585821833"><ele>555.5</ele><time>2026-05-02T10:15:39.968Z</time></trkpt><trkpt lat="46.00844899814605" lon="9.367814052602306"><ele>557.0</ele><time>2026-05-02T10:15:40.968Z</time></trkpt><trkpt lat="46.00850672357406" lon="9.367653791249314"><ele>558.5</ele><time>2026-05-02T10:15:41.968Z</time></trkpt><trkpt lat="46.008534055074335" lon="9.367475704528806"><ele>560.0</ele><time>2026-05-02T10:15:42.968Z</time></trkpt><trkpt lat="46.008554542404845" lon="9.367292556384738"><ele>563.25</ele><time>2026-05-02T10:15:43.968Z</time></trkpt><trkpt lat="46.00859664171302" lon="9.367124154298368"><ele>566.5</ele><time>2026-05-02T10:15:44.968Z</time></trkpt><trkpt lat="46.00865959039717" lon="9.366958917393607"><ele>569.75</ele><time>2026-05-02T10:15:45.968Z</time></trkpt><trkpt lat="46.00874702654378" lon="9.366797611159887"><ele>573.0</ele><time>2026-05-02T10:15:46.968Z</time></trkpt><trkpt lat="46.00884278321115" lon="9.3666299456482"><ele>573.0</ele><time>2026-05-02T10:15:47.968Z</time></trkpt><trkpt lat="46.00893558624628" lon="9.366468791976924"><ele>573.0</ele><time>2026-05-02T10:15:48.968Z</time></trkpt><trkpt lat="46.00902732350821" lon="9.366299269496698"><ele>573.0</ele><time>2026-05-02T10:15:49.968Z</time></trkpt><trkpt lat="46.00910261301071" lon="9.366114493631812"><ele>573.0</ele><time>2026-05-02T10:15:50.968Z</time></trkpt><trkpt lat="46.00916557992269" lon="9.365907714283313"><ele>573.6666666666666</ele><time>2026-05-02T10:15:51.968Z</time></trkpt><trkpt lat="46.00921037101566" lon="9.365675986536816"><ele>574.3333333333333</ele><time>2026-05-02T10:15:52.968Z</time></trkpt><trkpt lat="46.00926952865318" lon="9.365445288989951"><ele>575.0</ele><time>2026-05-02T10:15:53.968Z</time></trkpt><trkpt lat="46.00932662946163" lon="9.365218709806692"><ele>575.0</ele><time>2026-05-02T10:15:54.968Z</time></trkpt><trkpt lat="46.0093791548836" lon="9.365012713044356"><ele>575.0</ele><time>2026-05-02T10:15:55.968Z</time></trkpt><trkpt lat="46.00942808734756" lon="9.364821231073956"><ele>575.0</ele><time>2026-05-02T10:15:56.968Z</time></trkpt><trkpt lat="46.00946483343147" lon="9.364642137845621"><ele>575.0</ele><time>2026-05-02T10:15:57.968Z</time></trkpt><trkpt lat="46.009472635875724" lon="9.364460882348663"><ele>577.75</ele><time>2026-05-02T10:15:58.968Z</time></trkpt><trkpt lat="46.00944590963113" lon="9.364280893340661"><ele>580.5</ele><time>2026-05-02T10:15:59.968Z</time></trkpt><trkpt lat="46.009412525153586" lon="9.364090520344998"><ele>583.25</ele><time>2026-05-02T10:16:00.968Z</time></trkpt><trkpt lat="46.00940498979941" lon="9.363888050084313"><ele>586.0</ele><time>2026-05-02T10:16:01.968Z</time></trkpt><trkpt lat="46.00942695978582" lon="9.363690562000878"><ele>592.0</ele><time>2026-05-02T10:16:02.968Z</time></trkpt><trkpt lat="46.009479668477894" lon="9.363494130427364"><ele>598.0</ele><time>2026-05-02T10:16:03.968Z</time></trkpt><trkpt lat="46.009569751892926" lon="9.363313147863442"><ele>604.0</ele><time>2026-05-02T10:16:04.968Z</time></trkpt><trkpt lat="46.0096407382114" lon="9.363110656017339"><ele>611.0</ele><time>2026-05-02T10:16:05.968Z</time></trkpt><trkpt lat="46.009726893860524" lon="9.362929562204494"><ele>618.0</ele><time>2026-05-02T10:16:06.968Z</time></trkpt><trkpt lat="46.00982642479967" lon="9.362753453053468"><ele>625.0</ele><time>2026-05-02T10:16:07.968Z</time></trkpt><trkpt lat="46.009940134860635" lon="9.362592878154333"><ele>621.5</ele><time>2026-05-02T10:16:08.968Z</time></trkpt><trkpt lat="46.010053749576606" lon="9.362429555494902"><ele>618.0</ele><time>2026-05-02T10:16:09.968Z</time></trkpt><trkpt lat="46.01015475200573" lon="9.362280598539856"><ele>614.5</ele><time>2026-05-02T10:16:10.968Z</time></trkpt><trkpt lat="46.01024742703836" lon="9.36214281163327"><ele>611.0</ele><time>2026-05-02T10:16:11.968Z</time></trkpt><trkpt lat="46.010339520635945" lon="9.362015807485625"><ele>611.0</ele><time>2026-05-02T10:16:12.968Z</time></trkpt><trkpt lat="46.01042261944334" lon="9.361890524903913"><ele>611.0</ele><time>2026-05-02T10:16:13.968Z</time></trkpt><trkpt lat="46.01048933230806" lon="9.361744842381011"><ele>611.0</ele><time>2026-05-02T10:16:14.968Z</time></trkpt><trkpt lat="46.01053761278292" lon="9.361569912704208"><ele>611.0</ele><time>2026-05-02T10:16:15.969Z</time></trkpt><trkpt lat="46.01056215304408" lon="9.361371275115296"><ele>614.0</ele><time>2026-05-02T10:16:16.969Z</time></trkpt><trkpt lat="46.01058251057506" lon="9.361165165237438"><ele>617.0</ele><time>2026-05-02T10:16:17.969Z</time></trkpt><trkpt lat="46.010609902736114" lon="9.360964342292082"><ele>620.0</ele><time>2026-05-02T10:16:18.969Z</time></trkpt><trkpt lat="46.01063896396708" lon="9.36076923945221"><ele>623.0</ele><time>2026-05-02T10:16:19.969Z</time></trkpt><trkpt lat="46.01067971475188" lon="9.360580765059641"><ele>621.0</ele><time>2026-05-02T10:16:20.969Z</time></trkpt><trkpt lat="46.01074619527449" lon="9.360410775640915"><ele>619.0</ele><time>2026-05-02T10:16:21.969Z</time></trkpt><trkpt lat="46.01084895925456" lon="9.360264295016691"><ele>617.0</ele><time>2026-05-02T10:16:22.969Z</time></trkpt><trkpt lat="46.01095324408599" lon="9.360098610189981"><ele>615.0</ele><time>2026-05-02T10:16:23.969Z</time></trkpt><trkpt lat="46.01105533269586" lon="9.359936415025683"><ele>615.0</ele><time>2026-05-02T10:16:24.969Z</time></trkpt><trkpt lat="46.01115341956866" lon="9.359780577644802"><ele>615.0</ele><time>2026-05-02T10:16:25.969Z</time></trkpt><trkpt lat="46.01123923579132" lon="9.35962195453747"><ele>615.0</ele><time>2026-05-02T10:16:26.969Z</time></trkpt><trkpt lat="46.011325082935564" lon="9.359485936565362"><ele>615.0</ele><time>2026-05-02T10:16:27.969Z</time></trkpt><trkpt lat="46.01140192184099" lon="9.35933974774659"><ele>617.75</ele><time>2026-05-02T10:16:28.969Z</time></trkpt><trkpt lat="46.011455533082476" lon="9.359174384313235"><ele>620.5</ele><time>2026-05-02T10:16:29.969Z</time></trkpt><trkpt lat="46.011475060520304" lon="9.359001336483663"><ele>623.25</ele><time>2026-05-02T10:16:30.969Z</time></trkpt><trkpt lat="46.01146996751912" lon="9.358819467076307"><ele>626.0</ele><time>2026-05-02T10:16:31.969Z</time></trkpt><trkpt lat="46.01144092543099" lon="9.35865004070321"><ele>627.5</ele><time>2026-05-02T10:16:32.969Z</time></trkpt><trkpt lat="46.01141992053751" lon="9.358489252790976"><ele>629.0</ele><time>2026-05-02T10:16:33.969Z</time></trkpt><trkpt lat="46.01142508375857" lon="9.35832863539656"><ele>630.5</ele><time>2026-05-02T10:16:34.969Z</time></trkpt><trkpt lat="46.01146151567079" lon="9.358170104114263"><ele>632.0</ele><time>2026-05-02T10:16:35.969Z</time></trkpt><trkpt lat="46.01153154741352" lon="9.358040888085512"><ele>633.0</ele><time>2026-05-02T10:16:36.969Z</time></trkpt><trkpt lat="46.0116335572818" lon="9.357953716554299"><ele>634.0</ele><time>2026-05-02T10:16:37.969Z</time></trkpt><trkpt lat="46.01175075561567" lon="9.35789487172623"><ele>635.0</ele><time>2026-05-02T10:16:38.969Z</time></trkpt><trkpt lat="46.01186917935772" lon="9.35784178824665"><ele>636.0</ele><time>2026-05-02T10:16:39.969Z</time></trkpt><trkpt lat="46.011980621490636" lon="9.357766513597412"><ele>637.0</ele><time>2026-05-02T10:16:40.969Z</time></trkpt><trkpt lat="46.01207307018104" lon="9.35765822707696"><ele>638.0</ele><time>2026-05-02T10:16:41.969Z</time></trkpt><trkpt lat="46.01215062577035" lon="9.357513514775516"><ele>639.0</ele><time>2026-05-02T10:16:42.969Z</time></trkpt><trkpt lat="46.012220265971116" lon="9.357339152429287"><ele>640.0</ele><time>2026-05-02T10:16:43.969Z</time></trkpt><trkpt lat="46.01229289616599" lon="9.35715726927619"><ele>640.0</ele><time>2026-05-02T10:16:44.969Z</time></trkpt><trkpt lat="46.01236989554589" lon="9.35698633985126"><ele>640.0</ele><time>2026-05-02T10:16:45.969Z</time></trkpt><trkpt lat="46.01245765393861" lon="9.356818243513976"><ele>640.0</ele><time>2026-05-02T10:16:46.969Z</time></trkpt><trkpt lat="46.01255472371431" lon="9.356654177693434"><ele>640.0</ele><time>2026-05-02T10:16:47.969Z</time></trkpt><trkpt lat="46.01266387284648" lon="9.356505192638826"><ele>638.3333333333334</ele><time>2026-05-02T10:16:48.969Z</time></trkpt><trkpt lat="46.012756841360925" lon="9.356326626601033"><ele>636.6666666666666</ele><time>2026-05-02T10:16:49.969Z</time></trkpt><trkpt lat="46.01285987942918" lon="9.356156019311097"><ele>635.0</ele><time>2026-05-02T10:16:50.969Z</time></trkpt><trkpt lat="46.012958619162404" lon="9.35599665589522"><ele>635.0</ele><time>2026-05-02T10:16:51.969Z</time></trkpt><trkpt lat="46.013057556815625" lon="9.355839031198467"><ele>635.0</ele><time>2026-05-02T10:16:52.969Z</time></trkpt><trkpt lat="46.013154622309486" lon="9.355705362670932"><ele>635.0</ele><time>2026-05-02T10:16:53.969Z</time></trkpt><trkpt lat="46.01326193301485" lon="9.355590806156057"><ele>635.0</ele><time>2026-05-02T10:16:54.969Z</time></trkpt><trkpt lat="46.01336449825519" lon="9.355475753345967"><ele>635.0</ele><time>2026-05-02T10:16:55.969Z</time></trkpt><trkpt lat="46.01345302469156" lon="9.355333130969138"><ele>635.0</ele><time>2026-05-02T10:16:56.968Z</time></trkpt><trkpt lat="46.01350473813444" lon="9.355171209752793"><ele>635.0</ele><time>2026-05-02T10:16:57.968Z</time></trkpt><trkpt lat="46.013545054745904" lon="9.355019451224834"><ele>635.0</ele><time>2026-05-02T10:16:58.968Z</time></trkpt><trkpt lat="46.013599854924195" lon="9.354902971054203"><ele>635.0</ele><time>2026-05-02T10:16:59.967Z</time></trkpt><trkpt lat="46.013687049227194" lon="9.354815623255963"><ele>635.0</ele><time>2026-05-02T10:17:00.968Z</time></trkpt><trkpt lat="46.01380010625209" lon="9.354760714633892"><ele>635.0</ele><time>2026-05-02T10:17:01.968Z</time></trkpt><trkpt lat="46.01392504182547" lon="9.354758824442623"><ele>635.0</ele><time>2026-05-02T10:17:02.968Z</time></trkpt><trkpt lat="46.01402732171072" lon="9.354725139702573"><ele>636.2</ele><time>2026-05-02T10:17:03.968Z</time></trkpt><trkpt lat="46.014124114282104" lon="9.354690604140842"><ele>637.4</ele><time>2026-05-02T10:17:04.968Z</time></trkpt><trkpt lat="46.01421293989916" lon="9.354617604209299"><ele>638.5999999999999</ele><time>2026-05-02T10:17:05.967Z</time></trkpt><trkpt lat="46.01428395850668" lon="9.354504365009289"><ele>639.8</ele><time>2026-05-02T10:17:06.968Z</time></trkpt><trkpt lat="46.014350453234265" lon="9.354352613862957"><ele>641.0</ele><time>2026-05-02T10:17:07.968Z</time></trkpt><trkpt lat="46.01443838313509" lon="9.354205820555888"><ele>641.0</ele><time>2026-05-02T10:17:08.967Z</time></trkpt><trkpt lat="46.01450692606064" lon="9.354038801209262"><ele>641.0</ele><time>2026-05-02T10:17:09.968Z</time></trkpt><trkpt lat="46.01458468035939" lon="9.353872491557542"><ele>641.0</ele><time>2026-05-02T10:17:10.968Z</time></trkpt><trkpt lat="46.01467648384954" lon="9.35371369045941"><ele>641.0</ele><time>2026-05-02T10:17:11.968Z</time></trkpt><trkpt lat="46.01477926125893" lon="9.353562952153867"><ele>641.75</ele><time>2026-05-02T10:17:12.968Z</time></trkpt><trkpt lat="46.01488183058977" lon="9.353427149162535"><ele>642.5</ele><time>2026-05-02T10:17:13.968Z</time></trkpt><trkpt lat="46.014978371418835" lon="9.353291386480496"><ele>643.25</ele><time>2026-05-02T10:17:14.968Z</time></trkpt><trkpt lat="46.01507411012896" lon="9.353162852403372"><ele>644.0</ele><time>2026-05-02T10:17:15.968Z</time></trkpt><trkpt lat="46.01516657000327" lon="9.35303895611738"><ele>649.5</ele><time>2026-05-02T10:17:16.968Z</time></trkpt><trkpt lat="46.01525512466584" lon="9.352910930007118"><ele>655.0</ele><time>2026-05-02T10:17:17.968Z</time></trkpt><trkpt lat="46.015342721606864" lon="9.352779883719952"><ele>660.5</ele><time>2026-05-02T10:17:18.968Z</time></trkpt><trkpt lat="46.01542505248383" lon="9.352636026495889"><ele>666.0</ele><time>2026-05-02T10:17:19.968Z</time></trkpt><trkpt lat="46.01549583249724" lon="9.352472254063441"><ele>666.0</ele><time>2026-05-02T10:17:20.968Z</time></trkpt><trkpt lat="46.01555497108598" lon="9.352301425252584"><ele>666.0</ele><time>2026-05-02T10:17:21.968Z</time></trkpt><trkpt lat="46.01561954207526" lon="9.352149684682258"><ele>666.0</ele><time>2026-05-02T10:17:22.968Z</time></trkpt><trkpt lat="46.01572062047912" lon="9.352043845436938"><ele>666.0</ele><time>2026-05-02T10:17:23.968Z</time></trkpt><trkpt lat="46.01582323382808" lon="9.351934744517033"><ele>665.25</ele><time>2026-05-02T10:17:24.968Z</time></trkpt><trkpt lat="46.01593337458653" lon="9.35183518930821"><ele>664.5</ele><time>2026-05-02T10:17:25.968Z</time></trkpt><trkpt lat="46.01604827411269" lon="9.351739729179178"><ele>663.75</ele><time>2026-05-02T10:17:26.968Z</time></trkpt><trkpt lat="46.016166193542865" lon="9.351686721973955"><ele>663.0</ele><time>2026-05-02T10:17:27.968Z</time></trkpt><trkpt lat="46.016288761237085" lon="9.351648498044947"><ele>663.0</ele><time>2026-05-02T10:17:28.968Z</time></trkpt><trkpt lat="46.01638560071738" lon="9.351530494541095"><ele>663.0</ele><time>2026-05-02T10:17:29.968Z</time></trkpt><trkpt lat="46.016478093245766" lon="9.351418840740756"><ele>663.0</ele><time>2026-05-02T10:17:30.968Z</time></trkpt><trkpt lat="46.016534172484945" lon="9.351267116358187"><ele>663.0</ele><time>2026-05-02T10:17:31.968Z</time></trkpt><trkpt lat="46.01661182451603" lon="9.351138503286528"><ele>662.0</ele><time>2026-05-02T10:17:32.968Z</time></trkpt><trkpt lat="46.01670910025715" lon="9.351047197634005"><ele>661.0</ele><time>2026-05-02T10:17:33.968Z</time></trkpt><trkpt lat="46.016797286615486" lon="9.350968003983724"><ele>660.0</ele><time>2026-05-02T10:17:34.968Z</time></trkpt><trkpt lat="46.01687872584752" lon="9.35089017560395"><ele>659.0</ele><time>2026-05-02T10:17:35.968Z</time></trkpt><trkpt lat="46.01695132134016" lon="9.350786842179518"><ele>658.0</ele><time>2026-05-02T10:17:36.968Z</time></trkpt><trkpt lat="46.01699681690195" lon="9.35065126377423"><ele>660.25</ele><time>2026-05-02T10:17:37.968Z</time></trkpt><trkpt lat="46.01700835488612" lon="9.350494461868276"><ele>662.5</ele><time>2026-05-02T10:17:38.968Z</time></trkpt><trkpt lat="46.01699429250264" lon="9.350331520671013"><ele>664.75</ele><time>2026-05-02T10:17:39.968Z</time></trkpt><trkpt lat="46.016960345699225" lon="9.3501589950526"><ele>667.0</ele><time>2026-05-02T10:17:40.968Z</time></trkpt><trkpt lat="46.016918484346895" lon="9.349985404617584"><ele>667.0</ele><time>2026-05-02T10:17:41.968Z</time></trkpt><trkpt lat="46.01688703221639" lon="9.349803799242824"><ele>667.0</ele><time>2026-05-02T10:17:42.968Z</time></trkpt><trkpt lat="46.01683112605667" lon="9.349651154356728"><ele>667.0</ele><time>2026-05-02T10:17:43.968Z</time></trkpt><trkpt lat="46.016811921854575" lon="9.349497220063018"><ele>667.0</ele><time>2026-05-02T10:17:44.968Z</time></trkpt><trkpt lat="46.01677434673793" lon="9.349367184940057"><ele>668.8</ele><time>2026-05-02T10:17:45.968Z</time></trkpt><trkpt lat="46.01678096502616" lon="9.349231232917713"><ele>670.6</ele><time>2026-05-02T10:17:46.968Z</time></trkpt><trkpt lat="46.016816628831876" lon="9.349100068439757"><ele>672.4</ele><time>2026-05-02T10:17:47.968Z</time></trkpt><trkpt lat="46.016873514658975" lon="9.348970859799506"><ele>674.1999999999999</ele><time>2026-05-02T10:17:48.968Z</time></trkpt><trkpt lat="46.01694020379315" lon="9.348842940050764"><ele>676.0</ele><time>2026-05-02T10:17:49.968Z</time></trkpt><trkpt lat="46.017006105393556" lon="9.348721612924363"><ele>678.0</ele><time>2026-05-02T10:17:50.968Z</time></trkpt><trkpt lat="46.01707088524168" lon="9.348601086596174"><ele>680.0</ele><time>2026-05-02T10:17:51.968Z</time></trkpt><trkpt lat="46.01713099145068" lon="9.348486060710645"><ele>682.0</ele><time>2026-05-02T10:17:52.968Z</time></trkpt><trkpt lat="46.01718782410201" lon="9.348402445455662"><ele>684.0</ele><time>2026-05-02T10:17:53.968Z</time></trkpt><trkpt lat="46.01724553188292" lon="9.348325014322453"><ele>686.0</ele><time>2026-05-02T10:17:54.968Z</time></trkpt><trkpt lat="46.017302062150215" lon="9.348264310906913"><ele>688.0</ele><time>2026-05-02T10:17:55.968Z</time></trkpt><trkpt lat="46.017361977822425" lon="9.34820764328197"><ele>688.0</ele><time>2026-05-02T10:17:56.968Z</time></trkpt><trkpt lat="46.017425024306284" lon="9.348152396943728"><ele>688.0</ele><time>2026-05-02T10:17:57.968Z</time></trkpt><trkpt lat="46.017496341042765" lon="9.348101187866977"><ele>688.0</ele><time>2026-05-02T10:17:58.968Z</time></trkpt><trkpt lat="46.01757295510932" lon="9.348056411097664"><ele>688.0</ele><time>2026-05-02T10:17:59.968Z</time></trkpt><trkpt lat="46.01765655631854" lon="9.348013833564304"><ele>688.0</ele><time>2026-05-02T10:18:00.968Z</time></trkpt><trkpt lat="46.01773806999995" lon="9.347973460626166"><ele>688.0</ele><time>2026-05-02T10:18:01.968Z</time></trkpt><trkpt lat="46.01782744747634" lon="9.347953081094303"><ele>687.1666666666667</ele><time>2026-05-02T10:18:02.969Z</time></trkpt><trkpt lat="46.01791071209194" lon="9.347909199076483"><ele>686.3333333333334</ele><time>2026-05-02T10:18:03.969Z</time></trkpt><trkpt lat="46.017988273789925" lon="9.347834955323403"><ele>685.5</ele><time>2026-05-02T10:18:04.969Z</time></trkpt><trkpt lat="46.018068022824345" lon="9.347764971108575"><ele>684.6666666666666</ele><time>2026-05-02T10:18:05.969Z</time></trkpt><trkpt lat="46.01812841869775" lon="9.347672697635632"><ele>683.8333333333333</ele><time>2026-05-02T10:18:06.969Z</time></trkpt><trkpt lat="46.0181850893401" lon="9.347579831248026"><ele>683.0</ele><time>2026-05-02T10:18:07.969Z</time></trkpt><trkpt lat="46.01821168926001" lon="9.347450046617318"><ele>683.0</ele><time>2026-05-02T10:18:08.969Z</time></trkpt><trkpt lat="46.01821008084523" lon="9.347309636567386"><ele>683.0</ele><time>2026-05-02T10:18:09.969Z</time></trkpt><trkpt lat="46.018239685376116" lon="9.347183747297088"><ele>683.0</ele><time>2026-05-02T10:18:10.969Z</time></trkpt><trkpt lat="46.018245598637115" lon="9.347054853249492"><ele>683.0</ele><time>2026-05-02T10:18:11.969Z</time></trkpt><trkpt lat="46.01825035337693" lon="9.346940832668446"><ele>683.0</ele><time>2026-05-02T10:18:12.969Z</time></trkpt><trkpt lat="46.018250374513244" lon="9.346824999209398"><ele>683.0</ele><time>2026-05-02T10:18:13.969Z</time></trkpt><trkpt lat="46.018252887293315" lon="9.346710112670877"><ele>683.0</ele><time>2026-05-02T10:18:14.969Z</time></trkpt><trkpt lat="46.01825788950672" lon="9.346583750331702"><ele>683.0</ele><time>2026-05-02T10:18:15.969Z</time></trkpt><trkpt lat="46.01827514241483" lon="9.346444663021268"><ele>683.0</ele><time>2026-05-02T10:18:16.969Z</time></trkpt><trkpt lat="46.018306049548364" lon="9.346293702014064"><ele>683.0</ele><time>2026-05-02T10:18:17.969Z</time></trkpt><trkpt lat="46.01836042071588" lon="9.346139154535777"><ele>683.0</ele><time>2026-05-02T10:18:18.969Z</time></trkpt><trkpt lat="46.01842239803652" lon="9.345996887592888"><ele>681.4</ele><time>2026-05-02T10:18:19.969Z</time></trkpt><trkpt lat="46.01848065550951" lon="9.345858909287726"><ele>679.8</ele><time>2026-05-02T10:18:20.969Z</time></trkpt><trkpt lat="46.018534840419996" lon="9.345731103040547"><ele>678.2</ele><time>2026-05-02T10:18:21.969Z</time></trkpt><trkpt lat="46.01857641413952" lon="9.34560833661351"><ele>676.6</ele><time>2026-05-02T10:18:22.969Z</time></trkpt><trkpt lat="46.018606212497424" lon="9.345489009661655"><ele>675.0</ele><time>2026-05-02T10:18:23.969Z</time></trkpt><trkpt lat="46.01864289909745" lon="9.345383866018715"><ele>675.0</ele><time>2026-05-02T10:18:24.969Z</time></trkpt><trkpt lat="46.01865325290158" lon="9.345271631563834"><ele>675.0</ele><time>2026-05-02T10:18:25.969Z</time></trkpt><trkpt lat="46.01864189248114" lon="9.34516181725059"><ele>675.0</ele><time>2026-05-02T10:18:26.969Z</time></trkpt><trkpt lat="46.01864988169572" lon="9.345055907673181"><ele>675.0</ele><time>2026-05-02T10:18:27.969Z</time></trkpt><trkpt lat="46.0186744329878" lon="9.344901324696027"><ele>675.0</ele><time>2026-05-02T10:18:29.969Z</time></trkpt><trkpt lat="46.01870899447662" lon="9.344712254616072"><ele>675.4</ele><time>2026-05-02T10:18:31.969Z</time></trkpt><trkpt lat="46.01873660324523" lon="9.344580338958151"><ele>675.8</ele><time>2026-05-02T10:18:32.969Z</time></trkpt><trkpt lat="46.01875200431921" lon="9.344433555285102"><ele>676.2</ele><time>2026-05-02T10:18:33.969Z</time></trkpt><trkpt lat="46.018807465579364" lon="9.34429787103199"><ele>676.6</ele><time>2026-05-02T10:18:34.969Z</time></trkpt><trkpt lat="46.01883568264871" lon="9.34413892490454"><ele>677.0</ele><time>2026-05-02T10:18:35.969Z</time></trkpt><trkpt lat="46.018849995691944" lon="9.34398175010615"><ele>677.6</ele><time>2026-05-02T10:18:36.969Z</time></trkpt><trkpt lat="46.018840542493336" lon="9.343836392199783"><ele>678.2</ele><time>2026-05-02T10:18:37.969Z</time></trkpt><trkpt lat="46.01880610471673" lon="9.343700569711316"><ele>678.8</ele><time>2026-05-02T10:18:38.969Z</time></trkpt><trkpt lat="46.018753760870716" lon="9.34357531358684"><ele>679.4</ele><time>2026-05-02T10:18:39.969Z</time></trkpt><trkpt lat="46.018703619681446" lon="9.343449181968534"><ele>680.0</ele><time>2026-05-02T10:18:40.969Z</time></trkpt><trkpt lat="46.01867892634126" lon="9.343316238073648"><ele>680.0</ele><time>2026-05-02T10:18:41.969Z</time></trkpt><trkpt lat="46.018678519640055" lon="9.343178947738865"><ele>680.0</ele><time>2026-05-02T10:18:42.969Z</time></trkpt><trkpt lat="46.018709111217525" lon="9.343036465112837"><ele>680.0</ele><time>2026-05-02T10:18:43.969Z</time></trkpt><trkpt lat="46.01875017119532" lon="9.34289309599414"><ele>680.0</ele><time>2026-05-02T10:18:44.969Z</time></trkpt><trkpt lat="46.01879028830323" lon="9.342765439211348"><ele>680.0</ele><time>2026-05-02T10:18:45.969Z</time></trkpt><trkpt lat="46.01881040371062" lon="9.342632219216751"><ele>680.8</ele><time>2026-05-02T10:18:46.969Z</time></trkpt><trkpt lat="46.01880553148511" lon="9.342518878518028"><ele>681.6</ele><time>2026-05-02T10:18:47.969Z</time></trkpt><trkpt lat="46.018769824274834" lon="9.342374164861864"><ele>682.4000000000001</ele><time>2026-05-02T10:18:49.969Z</time></trkpt><trkpt lat="46.0187029989146" lon="9.342299327873391"><ele>683.2</ele><time>2026-05-02T10:18:50.969Z</time></trkpt><trkpt lat="46.01858873169593" lon="9.342254925834792"><ele>684.0</ele><time>2026-05-02T10:18:51.969Z</time></trkpt><trkpt lat="46.018471456350646" lon="9.342243980786312"><ele>684.0</ele><time>2026-05-02T10:18:52.969Z</time></trkpt><trkpt lat="46.01837544811272" lon="9.342241680698226"><ele>684.0</ele><time>2026-05-02T10:18:53.969Z</time></trkpt><trkpt lat="46.01829043223191" lon="9.342226700598061"><ele>684.0</ele><time>2026-05-02T10:18:54.969Z</time></trkpt><trkpt lat="46.0182241323451" lon="9.342195237765146"><ele>684.0</ele><time>2026-05-02T10:18:55.97Z</time></trkpt><trkpt lat="46.01814646858232" lon="9.34206636279305"><ele>684.0</ele><time>2026-05-02T10:18:57.97Z</time></trkpt><trkpt lat="46.01811212714678" lon="9.341953511262604"><ele>689.2</ele><time>2026-05-02T10:18:58.97Z</time></trkpt><trkpt lat="46.018068976326816" lon="9.341815054625682"><ele>694.4000000000001</ele><time>2026-05-02T10:18:59.97Z</time></trkpt><trkpt lat="46.01801242060907" lon="9.341702923254852"><ele>699.6</ele><time>2026-05-02T10:19:00.97Z</time></trkpt><trkpt lat="46.01792077035388" lon="9.341614895377234"><ele>704.8</ele><time>2026-05-02T10:19:01.97Z</time></trkpt><trkpt lat="46.01781312528298" lon="9.341575266561739"><ele>710.0</ele><time>2026-05-02T10:19:02.968Z</time></trkpt><trkpt lat="46.017716024348154" lon="9.341556987385381"><ele>710.0</ele><time>2026-05-02T10:19:03.968Z</time></trkpt><trkpt lat="46.0176144442748" lon="9.341526013186533"><ele>710.0</ele><time>2026-05-02T10:19:04.968Z</time></trkpt><trkpt lat="46.01750849441325" lon="9.341485820432874"><ele>710.0</ele><time>2026-05-02T10:19:05.968Z</time></trkpt><trkpt lat="46.01742250002363" lon="9.341408438468177"><ele>710.0</ele><time>2026-05-02T10:19:06.968Z</time></trkpt><trkpt lat="46.01736099877481" lon="9.341315207585994"><ele>710.0</ele><time>2026-05-02T10:19:07.968Z</time></trkpt><trkpt lat="46.017329562598604" lon="9.34119182933516"><ele>716.0</ele><time>2026-05-02T10:19:08.968Z</time></trkpt><trkpt lat="46.01732949013147" lon="9.341059092665086"><ele>722.0</ele><time>2026-05-02T10:19:09.968Z</time></trkpt><trkpt lat="46.01735128849119" lon="9.340919339720257"><ele>728.0</ele><time>2026-05-02T10:19:10.968Z</time></trkpt><trkpt lat="46.01735291552998" lon="9.340775439161472"><ele>734.0</ele><time>2026-05-02T10:19:11.968Z</time></trkpt><trkpt lat="46.01733200549143" lon="9.340632398494389"><ele>740.0</ele><time>2026-05-02T10:19:12.967Z</time></trkpt><trkpt lat="46.01726301355398" lon="9.340509340059182"><ele>740.0</ele><time>2026-05-02T10:19:13.967Z</time></trkpt><trkpt lat="46.017189760471105" lon="9.340393220652897"><ele>740.0</ele><time>2026-05-02T10:19:14.968Z</time></trkpt><trkpt lat="46.01714052040633" lon="9.340287044791223"><ele>740.0</ele><time>2026-05-02T10:19:15.968Z</time></trkpt><trkpt lat="46.017119584579476" lon="9.34017545940832"><ele>740.0</ele><time>2026-05-02T10:19:16.968Z</time></trkpt><trkpt lat="46.017109675038895" lon="9.340060992882682"><ele>740.0</ele><time>2026-05-02T10:19:17.968Z</time></trkpt><trkpt lat="46.01714904570656" lon="9.339932835426762"><ele>740.0</ele><time>2026-05-02T10:19:18.968Z</time></trkpt><trkpt lat="46.017164960571925" lon="9.339796993138622"><ele>740.0</ele><time>2026-05-02T10:19:19.968Z</time></trkpt><trkpt lat="46.0171440068604" lon="9.339654865108642"><ele>740.0</ele><time>2026-05-02T10:19:20.968Z</time></trkpt><trkpt lat="46.01714030031092" lon="9.339509771009705"><ele>740.0</ele><time>2026-05-02T10:19:21.968Z</time></trkpt><trkpt lat="46.01712538174487" lon="9.339376155850877"><ele>740.0</ele><time>2026-05-02T10:19:22.968Z</time></trkpt><trkpt lat="46.01711594780143" lon="9.33924512970625"><ele>741.4</ele><time>2026-05-02T10:19:23.968Z</time></trkpt><trkpt lat="46.01717063250637" lon="9.339118544744862"><ele>742.8</ele><time>2026-05-02T10:19:24.968Z</time></trkpt><trkpt lat="46.01723536272065" lon="9.338985605398477"><ele>744.2</ele><time>2026-05-02T10:19:25.968Z</time></trkpt><trkpt lat="46.01728283392877" lon="9.338839252333827"><ele>745.6</ele><time>2026-05-02T10:19:26.968Z</time></trkpt><trkpt lat="46.01732841394073" lon="9.33870649864686"><ele>747.0</ele><time>2026-05-02T10:19:27.968Z</time></trkpt><trkpt lat="46.017391271872214" lon="9.338622388352787"><ele>749.5</ele><time>2026-05-02T10:19:28.968Z</time></trkpt><trkpt lat="46.017452976478914" lon="9.338573076366899"><ele>752.0</ele><time>2026-05-02T10:19:29.968Z</time></trkpt><trkpt lat="46.01753235348675" lon="9.338549179750121"><ele>754.5</ele><time>2026-05-02T10:19:30.968Z</time></trkpt><trkpt lat="46.01760683137501" lon="9.338519262517476"><ele>757.0</ele><time>2026-05-02T10:19:31.968Z</time></trkpt><trkpt lat="46.01766265998523" lon="9.33845287462572"><ele>759.5</ele><time>2026-05-02T10:19:32.968Z</time></trkpt><trkpt lat="46.017690565819365" lon="9.338346643509345"><ele>762.0</ele><time>2026-05-02T10:19:33.969Z</time></trkpt><trkpt lat="46.01769273032808" lon="9.338228341706936"><ele>756.4000000000001</ele><time>2026-05-02T10:19:34.969Z</time></trkpt><trkpt lat="46.01771341653389" lon="9.338096821940265"><ele>750.8000000000001</ele><time>2026-05-02T10:19:35.969Z</time></trkpt><trkpt lat="46.01771698533017" lon="9.337962696727171"><ele>745.2</ele><time>2026-05-02T10:19:36.969Z</time></trkpt><trkpt lat="46.01771645151043" lon="9.337823977912858"><ele>739.6</ele><time>2026-05-02T10:19:37.969Z</time></trkpt><trkpt lat="46.01770466114533" lon="9.337668911010923"><ele>734.0</ele><time>2026-05-02T10:19:38.969Z</time></trkpt><trkpt lat="46.01766560492783" lon="9.337510385050145"><ele>734.0</ele><time>2026-05-02T10:19:39.969Z</time></trkpt><trkpt lat="46.01759913267643" lon="9.337340076065967"><ele>734.0</ele><time>2026-05-02T10:19:40.969Z</time></trkpt><trkpt lat="46.01752378688061" lon="9.337209600622455"><ele>734.0</ele><time>2026-05-02T10:19:41.969Z</time></trkpt><trkpt lat="46.017508399663726" lon="9.337044883531346"><ele>734.0</ele><time>2026-05-02T10:19:42.969Z</time></trkpt><trkpt lat="46.01749561227081" lon="9.33687984529403"><ele>734.4000000000001</ele><time>2026-05-02T10:19:43.969Z</time></trkpt><trkpt lat="46.017488522159006" lon="9.336712905914345"><ele>734.8</ele><time>2026-05-02T10:19:44.969Z</time></trkpt><trkpt lat="46.01748922749463" lon="9.336572500561498"><ele>735.2</ele><time>2026-05-02T10:19:45.969Z</time></trkpt><trkpt lat="46.01749493623818" lon="9.336454055406659"><ele>735.5999999999999</ele><time>2026-05-02T10:19:46.969Z</time></trkpt><trkpt lat="46.01750008493389" lon="9.336350701096872"><ele>736.0</ele><time>2026-05-02T10:19:47.969Z</time></trkpt><trkpt lat="46.01749672106161" lon="9.336190983013411"><ele>754.75</ele><time>2026-05-02T10:19:49.969Z</time></trkpt><trkpt lat="46.017483270965656" lon="9.33606426227287"><ele>773.5</ele><time>2026-05-02T10:19:51.969Z</time></trkpt><trkpt lat="46.01741788083108" lon="9.335911398741201"><ele>792.25</ele><time>2026-05-02T10:19:53.969Z</time></trkpt><trkpt lat="46.01730951621307" lon="9.33594879041649"><ele>811.0</ele><time>2026-05-02T10:19:54.969Z</time></trkpt><trkpt lat="46.01729366751834" lon="9.336197122948958"><ele>811.0</ele><time>2026-05-02T10:19:55.969Z</time></trkpt><trkpt lat="46.01726671612698" lon="9.336324835903019"><ele>811.0</ele><time>2026-05-02T10:19:56.969Z</time></trkpt><trkpt lat="46.01724086776349" lon="9.336478680156468"><ele>811.0</ele><time>2026-05-02T10:19:57.969Z</time></trkpt><trkpt lat="46.01722872850654" lon="9.336643513967388"><ele>811.0</ele><time>2026-05-02T10:19:58.969Z</time></trkpt><trkpt lat="46.01718623566142" lon="9.336812287605927"><ele>811.0</ele><time>2026-05-02T10:19:59.969Z</time></trkpt><trkpt lat="46.01715795857094" lon="9.33698303657348"><ele>807.8</ele><time>2026-05-02T10:20:00.969Z</time></trkpt><trkpt lat="46.01713858206959" lon="9.33714011612117"><ele>804.5999999999999</ele><time>2026-05-02T10:20:01.969Z</time></trkpt><trkpt lat="46.01711528523316" lon="9.337285229880727"><ele>801.4</ele><time>2026-05-02T10:20:02.969Z</time></trkpt><trkpt lat="46.0170750770952" lon="9.337426034896822"><ele>798.2</ele><time>2026-05-02T10:20:03.969Z</time></trkpt><trkpt lat="46.017047593589105" lon="9.337560699667472"><ele>795.0</ele><time>2026-05-02T10:20:04.969Z</time></trkpt><trkpt lat="46.0170247514753" lon="9.337677698794772"><ele>792.0</ele><time>2026-05-02T10:20:05.969Z</time></trkpt><trkpt lat="46.01699359029916" lon="9.337769066926933"><ele>789.0</ele><time>2026-05-02T10:20:06.969Z</time></trkpt><trkpt lat="46.01694418240987" lon="9.337886569189783"><ele>786.0</ele><time>2026-05-02T10:20:08.969Z</time></trkpt><trkpt lat="46.01687573791602" lon="9.337931051432315"><ele>783.0</ele><time>2026-05-02T10:20:10.969Z</time></trkpt><trkpt lat="46.01683686868031" lon="9.33779986461661"><ele>780.0</ele><time>2026-05-02T10:20:12.969Z</time></trkpt><trkpt lat="46.01685610620395" lon="9.337692012279495"><ele>777.0</ele><time>2026-05-02T10:20:13.969Z</time></trkpt><trkpt lat="46.01690245755732" lon="9.337587128149504"><ele>777.0</ele><time>2026-05-02T10:20:14.969Z</time></trkpt><trkpt lat="46.016942668192456" lon="9.33746410072605"><ele>777.0</ele><time>2026-05-02T10:20:15.969Z</time></trkpt><trkpt lat="46.01697831252857" lon="9.337333216212894"><ele>777.0</ele><time>2026-05-02T10:20:16.969Z</time></trkpt><trkpt lat="46.017002834352986" lon="9.337181628427206"><ele>777.0</ele><time>2026-05-02T10:20:17.969Z</time></trkpt><trkpt lat="46.01701624354715" lon="9.337027127504644"><ele>777.0</ele><time>2026-05-02T10:20:18.969Z</time></trkpt><trkpt lat="46.017015802856946" lon="9.336852218413098"><ele>781.5</ele><time>2026-05-02T10:20:19.969Z</time></trkpt><trkpt lat="46.017006499942596" lon="9.336660136288321"><ele>786.0</ele><time>2026-05-02T10:20:20.969Z</time></trkpt><trkpt lat="46.01700301504056" lon="9.336472513197839"><ele>790.5</ele><time>2026-05-02T10:20:21.969Z</time></trkpt><trkpt lat="46.01700447444991" lon="9.336294295090552"><ele>795.0</ele><time>2026-05-02T10:20:22.969Z</time></trkpt><trkpt lat="46.01701364354835" lon="9.336122717768935"><ele>798.2</ele><time>2026-05-02T10:20:23.969Z</time></trkpt><trkpt lat="46.01702779143445" lon="9.335951797418168"><ele>801.4</ele><time>2026-05-02T10:20:24.969Z</time></trkpt><trkpt lat="46.01703500502271" lon="9.335802063094025"><ele>804.5999999999999</ele><time>2026-05-02T10:20:25.969Z</time></trkpt><trkpt lat="46.01705591300258" lon="9.335657607227043"><ele>807.8</ele><time>2026-05-02T10:20:26.969Z</time></trkpt><trkpt lat="46.017110287931075" lon="9.335525897789141"><ele>811.0</ele><time>2026-05-02T10:20:27.97Z</time></trkpt><trkpt lat="46.01714772869166" lon="9.335373774070678"><ele>813.75</ele><time>2026-05-02T10:20:28.97Z</time></trkpt><trkpt lat="46.017223581006675" lon="9.335222260455573"><ele>816.5</ele><time>2026-05-02T10:20:29.97Z</time></trkpt><trkpt lat="46.017291712958205" lon="9.33507732487895"><ele>819.25</ele><time>2026-05-02T10:20:30.97Z</time></trkpt><trkpt lat="46.0173428704976" lon="9.334922623990401"><ele>822.0</ele><time>2026-05-02T10:20:31.97Z</time></trkpt><trkpt lat="46.017363514716024" lon="9.334762324727478"><ele>823.1666666666666</ele><time>2026-05-02T10:20:32.97Z</time></trkpt><trkpt lat="46.017389253841685" lon="9.334610583317808"><ele>824.3333333333333</ele><time>2026-05-02T10:20:33.97Z</time></trkpt><trkpt lat="46.01740358439354" lon="9.334467084437861"><ele>825.5</ele><time>2026-05-02T10:20:34.97Z</time></trkpt><trkpt lat="46.01741001097516" lon="9.334341025300384"><ele>826.6666666666666</ele><time>2026-05-02T10:20:35.97Z</time></trkpt><trkpt lat="46.017410068636096" lon="9.33423155992351"><ele>827.8333333333333</ele><time>2026-05-02T10:20:36.97Z</time></trkpt><trkpt lat="46.01740212989616" lon="9.33412797748055"><ele>829.0</ele><time>2026-05-02T10:20:37.97Z</time></trkpt><trkpt lat="46.01738345438369" lon="9.334020517937073"><ele>829.0</ele><time>2026-05-02T10:20:38.97Z</time></trkpt><trkpt lat="46.017322159153515" lon="9.333917316831247"><ele>829.0</ele><time>2026-05-02T10:20:39.97Z</time></trkpt><trkpt lat="46.01726968564788" lon="9.33380098034867"><ele>829.0</ele><time>2026-05-02T10:20:40.97Z</time></trkpt><trkpt lat="46.01719591852152" lon="9.33369922988033"><ele>829.0</ele><time>2026-05-02T10:20:41.97Z</time></trkpt><trkpt lat="46.01712098376395" lon="9.333595976299687"><ele>829.0</ele><time>2026-05-02T10:20:42.97Z</time></trkpt><trkpt lat="46.01703833283833" lon="9.333510483448649"><ele>828.3333333333333</ele><time>2026-05-02T10:20:43.97Z</time></trkpt><trkpt lat="46.01695770016669" lon="9.333436371332871"><ele>827.6666666666666</ele><time>2026-05-02T10:20:44.97Z</time></trkpt><trkpt lat="46.01690259004284" lon="9.33335299850087"><ele>827.0</ele><time>2026-05-02T10:20:45.97Z</time></trkpt><trkpt lat="46.01686491955997" lon="9.333272438533157"><ele>826.3333333333333</ele><time>2026-05-02T10:20:46.97Z</time></trkpt><trkpt lat="46.01684916789984" lon="9.333178195225445"><ele>825.6666666666666</ele><time>2026-05-02T10:20:47.97Z</time></trkpt><trkpt lat="46.016854972658486" lon="9.333080354026652"><ele>825.0</ele><time>2026-05-02T10:20:48.97Z</time></trkpt><trkpt lat="46.01689292774643" lon="9.332986979842788"><ele>826.3333333333334</ele><time>2026-05-02T10:20:49.97Z</time></trkpt><trkpt lat="46.01696069545661" lon="9.332930480604972"><ele>827.6666666666667</ele><time>2026-05-02T10:20:50.97Z</time></trkpt><trkpt lat="46.017044753491284" lon="9.332883561074315"><ele>829.0</ele><time>2026-05-02T10:20:51.97Z</time></trkpt><trkpt lat="46.01711419126358" lon="9.332823003080582"><ele>830.3333333333334</ele><time>2026-05-02T10:20:52.97Z</time></trkpt><trkpt lat="46.01716256969917" lon="9.332722008229126"><ele>831.6666666666667</ele><time>2026-05-02T10:20:53.97Z</time></trkpt><trkpt lat="46.01720257614978" lon="9.332583673893728"><ele>833.0</ele><time>2026-05-02T10:20:54.97Z</time></trkpt><trkpt lat="46.017253100266245" lon="9.332448804720512"><ele>833.0</ele><time>2026-05-02T10:20:55.97Z</time></trkpt><trkpt lat="46.017276818150556" lon="9.332304455531956"><ele>833.0</ele><time>2026-05-02T10:20:56.97Z</time></trkpt><trkpt lat="46.01728823379209" lon="9.332154929881629"><ele>833.0</ele><time>2026-05-02T10:20:57.97Z</time></trkpt><trkpt lat="46.01729293779385" lon="9.332001466962533"><ele>833.0</ele><time>2026-05-02T10:20:58.97Z</time></trkpt><trkpt lat="46.017286857878126" lon="9.331826479929468"><ele>833.0</ele><time>2026-05-02T10:20:59.97Z</time></trkpt><trkpt lat="46.01727322813786" lon="9.331669954596123"><ele>832.8</ele><time>2026-05-02T10:21:00.97Z</time></trkpt><trkpt lat="46.01725225735245" lon="9.331535455172334"><ele>832.5999999999999</ele><time>2026-05-02T10:21:01.97Z</time></trkpt><trkpt lat="46.017219967511785" lon="9.3314113944213"><ele>832.4000000000001</ele><time>2026-05-02T10:21:02.97Z</time></trkpt><trkpt lat="46.01717992823674" lon="9.331290750734468"><ele>832.2</ele><time>2026-05-02T10:21:03.97Z</time></trkpt><trkpt lat="46.01713345764483" lon="9.331171270091135"><ele>832.0</ele><time>2026-05-02T10:21:04.97Z</time></trkpt><trkpt lat="46.01706746265215" lon="9.3310619500322"><ele>832.0</ele><time>2026-05-02T10:21:05.97Z</time></trkpt><trkpt lat="46.017044839993915" lon="9.330931856839866"><ele>832.0</ele><time>2026-05-02T10:21:06.97Z</time></trkpt><trkpt lat="46.01700150700499" lon="9.330814231126729"><ele>832.0</ele><time>2026-05-02T10:21:07.97Z</time></trkpt><trkpt lat="46.01694399661455" lon="9.330707148790264"><ele>832.0</ele><time>2026-05-02T10:21:08.968Z</time></trkpt><trkpt lat="46.01686981138621" lon="9.330601288635807"><ele>832.0</ele><time>2026-05-02T10:21:09.968Z</time></trkpt><trkpt lat="46.01677561265673" lon="9.33050540394536"><ele>838.2</ele><time>2026-05-02T10:21:10.968Z</time></trkpt><trkpt lat="46.01670638135852" lon="9.330390649102345"><ele>844.4000000000001</ele><time>2026-05-02T10:21:11.968Z</time></trkpt><trkpt lat="46.01662454762464" lon="9.330294262517475"><ele>850.5999999999999</ele><time>2026-05-02T10:21:12.968Z</time></trkpt><trkpt lat="46.01654549601825" lon="9.330200334157865"><ele>856.8</ele><time>2026-05-02T10:21:13.968Z</time></trkpt><trkpt lat="46.01648255407464" lon="9.33006190336908"><ele>863.0</ele><time>2026-05-02T10:21:14.968Z</time></trkpt><trkpt lat="46.01640944543838" lon="9.32993281490688"><ele>863.0</ele><time>2026-05-02T10:21:15.968Z</time></trkpt><trkpt lat="46.01635026590595" lon="9.329794706324519"><ele>863.0</ele><time>2026-05-02T10:21:16.968Z</time></trkpt><trkpt lat="46.016291650518376" lon="9.329665647540788"><ele>863.0</ele><time>2026-05-02T10:21:17.968Z</time></trkpt><trkpt lat="46.01623029286929" lon="9.32953477698487"><ele>863.0</ele><time>2026-05-02T10:21:18.968Z</time></trkpt><trkpt lat="46.016159394686454" lon="9.329427164923835"><ele>863.0</ele><time>2026-05-02T10:21:19.968Z</time></trkpt><trkpt lat="46.01611608677141" lon="9.32931438418376"><ele>860.3333333333334</ele><time>2026-05-02T10:21:20.968Z</time></trkpt><trkpt lat="46.016105624285636" lon="9.329200563879311"><ele>857.6666666666667</ele><time>2026-05-02T10:21:21.968Z</time></trkpt><trkpt lat="46.01609049922721" lon="9.329076266591555"><ele>855.0</ele><time>2026-05-02T10:21:22.968Z</time></trkpt><trkpt lat="46.01605309427029" lon="9.328965066828093"><ele>852.3333333333333</ele><time>2026-05-02T10:21:23.968Z</time></trkpt><trkpt lat="46.015989514664575" lon="9.32888264796028"><ele>849.6666666666666</ele><time>2026-05-02T10:21:24.968Z</time></trkpt><trkpt lat="46.01590144621541" lon="9.32883210308577"><ele>847.0</ele><time>2026-05-02T10:21:25.968Z</time></trkpt><trkpt lat="46.015793635360815" lon="9.328802420713622"><ele>847.0</ele><time>2026-05-02T10:21:26.968Z</time></trkpt><trkpt lat="46.015682042269326" lon="9.328750387114585"><ele>847.0</ele><time>2026-05-02T10:21:27.968Z</time></trkpt><trkpt lat="46.01558280493801" lon="9.32867460573019"><ele>847.0</ele><time>2026-05-02T10:21:28.968Z</time></trkpt><trkpt lat="46.015506173536295" lon="9.328585763006805"><ele>847.0</ele><time>2026-05-02T10:21:29.968Z</time></trkpt><trkpt lat="46.01543944639811" lon="9.32846503610821"><ele>847.0</ele><time>2026-05-02T10:21:30.968Z</time></trkpt><trkpt lat="46.01538223545183" lon="9.328324281662905"><ele>847.0</ele><time>2026-05-02T10:21:31.968Z</time></trkpt><trkpt lat="46.01532364720572" lon="9.328173381677948"><ele>847.0</ele><time>2026-05-02T10:21:32.968Z</time></trkpt><trkpt lat="46.01525562975938" lon="9.328020159368275"><ele>847.0</ele><time>2026-05-02T10:21:33.968Z</time></trkpt><trkpt lat="46.01519611070993" lon="9.327905768886811"><ele>847.0</ele><time>2026-05-02T10:21:34.968Z</time></trkpt><trkpt lat="46.01512988169509" lon="9.327794693186856"><ele>847.0</ele><time>2026-05-02T10:21:35.968Z</time></trkpt><trkpt lat="46.01505367578422" lon="9.327721999354"><ele>852.4999999999999</ele><time>2026-05-02T10:21:36.968Z</time></trkpt><trkpt lat="46.014969704719256" lon="9.327663562128333"><ele>858.0</ele><time>2026-05-02T10:21:37.968Z</time></trkpt><trkpt lat="46.0149146038764" lon="9.327582174112782"><ele>863.5</ele><time>2026-05-02T10:21:38.968Z</time></trkpt><trkpt lat="46.014865161867995" lon="9.32748337471411"><ele>869.0</ele><time>2026-05-02T10:21:39.968Z</time></trkpt><trkpt lat="46.01482254231037" lon="9.32738116185463"><ele>874.4999999999999</ele><time>2026-05-02T10:21:40.968Z</time></trkpt><trkpt lat="46.01480965919566" lon="9.327278185667712"><ele>880.0</ele><time>2026-05-02T10:21:41.968Z</time></trkpt><trkpt lat="46.01480207602521" lon="9.3271818009818"><ele>880.0</ele><time>2026-05-02T10:21:42.968Z</time></trkpt><trkpt lat="46.01485372230364" lon="9.327037235857281"><ele>880.0</ele><time>2026-05-02T10:21:44.968Z</time></trkpt><trkpt lat="46.01493747816304" lon="9.327013913580794"><ele>880.0</ele><time>2026-05-02T10:21:45.968Z</time></trkpt><trkpt lat="46.0150426311338" lon="9.327011439924782"><ele>880.0</ele><time>2026-05-02T10:21:46.968Z</time></trkpt><trkpt lat="46.015149191215485" lon="9.32699149092662"><ele>880.0</ele><time>2026-05-02T10:21:47.968Z</time></trkpt><trkpt lat="46.01525157847863" lon="9.32692155230384"><ele>875.1666666666666</ele><time>2026-05-02T10:21:48.968Z</time></trkpt><trkpt lat="46.015332648268526" lon="9.326840562217065"><ele>870.3333333333333</ele><time>2026-05-02T10:21:49.968Z</time></trkpt><trkpt lat="46.01540978700327" lon="9.326809055973738"><ele>865.5</ele><time>2026-05-02T10:21:50.968Z</time></trkpt><trkpt lat="46.015485488013546" lon="9.326770628864166"><ele>860.6666666666667</ele><time>2026-05-02T10:21:51.968Z</time></trkpt><trkpt lat="46.015553907188924" lon="9.326788459204854"><ele>855.8333333333334</ele><time>2026-05-02T10:21:52.969Z</time></trkpt><trkpt lat="46.01562353415321" lon="9.326856277070988"><ele>851.0</ele><time>2026-05-02T10:21:53.969Z</time></trkpt><trkpt lat="46.01569624301013" lon="9.326940148555352"><ele>851.0000000000001</ele><time>2026-05-02T10:21:54.969Z</time></trkpt><trkpt lat="46.01576853735035" lon="9.32704774939319"><ele>851.0</ele><time>2026-05-02T10:21:55.969Z</time></trkpt><trkpt lat="46.01584935108648" lon="9.327114971566711"><ele>851.0</ele><time>2026-05-02T10:21:56.969Z</time></trkpt><trkpt lat="46.01591938452314" lon="9.327147770927274"><ele>851.0</ele><time>2026-05-02T10:21:57.969Z</time></trkpt><trkpt lat="46.01598600853332" lon="9.327176917718626"><ele>851.0000000000001</ele><time>2026-05-02T10:21:58.969Z</time></trkpt><trkpt lat="46.0160554482919" lon="9.327172159798382"><ele>851.0</ele><time>2026-05-02T10:21:59.969Z</time></trkpt><trkpt lat="46.016129835315155" lon="9.32717342823788"><ele>852.6666666666667</ele><time>2026-05-02T10:22:00.969Z</time></trkpt><trkpt lat="46.016206363625514" lon="9.327160867318696"><ele>854.3333333333334</ele><time>2026-05-02T10:22:01.969Z</time></trkpt><trkpt lat="46.016281920760576" lon="9.327145292134984"><ele>856.0</ele><time>2026-05-02T10:22:02.969Z</time></trkpt><trkpt lat="46.01635151010005" lon="9.327132168518922"><ele>857.6666666666667</ele><time>2026-05-02T10:22:03.969Z</time></trkpt><trkpt lat="46.016418364415834" lon="9.327152521833206"><ele>859.3333333333334</ele><time>2026-05-02T10:22:04.969Z</time></trkpt><trkpt lat="46.016504761270525" lon="9.327172859630751"><ele>861.0</ele><time>2026-05-02T10:22:05.969Z</time></trkpt><trkpt lat="46.016597739392864" lon="9.327177200249466"><ele>862.1999999999999</ele><time>2026-05-02T10:22:06.969Z</time></trkpt><trkpt lat="46.01667939084031" lon="9.327189913401089"><ele>863.3999999999999</ele><time>2026-05-02T10:22:07.969Z</time></trkpt><trkpt lat="46.01677197446338" lon="9.327219764583536"><ele>864.6</ele><time>2026-05-02T10:22:08.969Z</time></trkpt><trkpt lat="46.01687073096131" lon="9.327206033076116"><ele>865.8</ele><time>2026-05-02T10:22:09.969Z</time></trkpt><trkpt lat="46.016976158687484" lon="9.327161033772384"><ele>867.0</ele><time>2026-05-02T10:22:10.969Z</time></trkpt><trkpt lat="46.01707300170403" lon="9.327100824458364"><ele>867.0</ele><time>2026-05-02T10:22:11.969Z</time></trkpt><trkpt lat="46.01717477511595" lon="9.327011336485553"><ele>867.0</ele><time>2026-05-02T10:22:12.969Z</time></trkpt><trkpt lat="46.01727643215236" lon="9.326890858853103"><ele>867.0</ele><time>2026-05-02T10:22:13.969Z</time></trkpt><trkpt lat="46.01737160415002" lon="9.326742281941357"><ele>867.0</ele><time>2026-05-02T10:22:14.969Z</time></trkpt><trkpt lat="46.017465534212505" lon="9.326587212842325"><ele>869.0</ele><time>2026-05-02T10:22:15.969Z</time></trkpt><trkpt lat="46.01756286001376" lon="9.32643508355555"><ele>871.0</ele><time>2026-05-02T10:22:16.969Z</time></trkpt><trkpt lat="46.0176559893599" lon="9.326291212308458"><ele>873.0</ele><time>2026-05-02T10:22:17.969Z</time></trkpt><trkpt lat="46.017739204120794" lon="9.326162658116179"><ele>875.0</ele><time>2026-05-02T10:22:18.969Z</time></trkpt><trkpt lat="46.017818936052294" lon="9.326039484164566"><ele>875.0</ele><time>2026-05-02T10:22:19.969Z</time></trkpt><trkpt lat="46.0178978709432" lon="9.325912745108697"><ele>875.0</ele><time>2026-05-02T10:22:20.969Z</time></trkpt><trkpt lat="46.01798170877168" lon="9.325789459312587"><ele>875.0</ele><time>2026-05-02T10:22:21.969Z</time></trkpt><trkpt lat="46.01805347277915" lon="9.325679772950453"><ele>875.0</ele><time>2026-05-02T10:22:22.969Z</time></trkpt><trkpt lat="46.018118253793006" lon="9.325562193068098"><ele>875.0</ele><time>2026-05-02T10:22:23.969Z</time></trkpt><trkpt lat="46.018193278630086" lon="9.325437866705702"><ele>871.0</ele><time>2026-05-02T10:22:24.969Z</time></trkpt><trkpt lat="46.01827239079592" lon="9.325307358365093"><ele>867.0</ele><time>2026-05-02T10:22:25.969Z</time></trkpt><trkpt lat="46.01834136240812" lon="9.325145952900744"><ele>863.0</ele><time>2026-05-02T10:22:26.969Z</time></trkpt><trkpt lat="46.0183928126266" lon="9.324961831911507"><ele>859.0</ele><time>2026-05-02T10:22:27.969Z</time></trkpt><trkpt lat="46.01845566112038" lon="9.324752198883992"><ele>864.75</ele><time>2026-05-02T10:22:28.969Z</time></trkpt><trkpt lat="46.018509773397994" lon="9.324547415702842"><ele>870.5</ele><time>2026-05-02T10:22:29.969Z</time></trkpt><trkpt lat="46.01857042856113" lon="9.324363809182671"><ele>876.25</ele><time>2026-05-02T10:22:30.969Z</time></trkpt><trkpt lat="46.018626473663915" lon="9.324184254717547"><ele>882.0</ele><time>2026-05-02T10:22:31.969Z</time></trkpt><trkpt lat="46.018669816662666" lon="9.32399468295249"><ele>885.5</ele><time>2026-05-02T10:22:32.969Z</time></trkpt><trkpt lat="46.01870680044233" lon="9.323800571141438"><ele>889.0</ele><time>2026-05-02T10:22:33.969Z</time></trkpt><trkpt lat="46.01873641174001" lon="9.323614987878736"><ele>892.5</ele><time>2026-05-02T10:22:34.969Z</time></trkpt><trkpt lat="46.0187780087594" lon="9.323437231068597"><ele>896.0</ele><time>2026-05-02T10:22:35.969Z</time></trkpt><trkpt lat="46.01879108057662" lon="9.323242907069776"><ele>900.0</ele><time>2026-05-02T10:22:36.969Z</time></trkpt><trkpt lat="46.018793095264044" lon="9.323038950367337"><ele>904.0</ele><time>2026-05-02T10:22:37.969Z</time></trkpt><trkpt lat="46.018785238936346" lon="9.322842480030483"><ele>908.0</ele><time>2026-05-02T10:22:38.969Z</time></trkpt><trkpt lat="46.01878480625458" lon="9.322652570787612"><ele>912.0</ele><time>2026-05-02T10:22:39.969Z</time></trkpt><trkpt lat="46.01881109157267" lon="9.322464458418002"><ele>912.0</ele><time>2026-05-02T10:22:40.969Z</time></trkpt><trkpt lat="46.01882800203508" lon="9.322269805166087"><ele>912.0</ele><time>2026-05-02T10:22:41.969Z</time></trkpt><trkpt lat="46.01886061723232" lon="9.32207562901518"><ele>912.0</ele><time>2026-05-02T10:22:42.969Z</time></trkpt><trkpt lat="46.018901123195256" lon="9.32187605515788"><ele>912.0</ele><time>2026-05-02T10:22:43.969Z</time></trkpt><trkpt lat="46.018947121414804" lon="9.321661909683144"><ele>916.0</ele><time>2026-05-02T10:22:44.969Z</time></trkpt><trkpt lat="46.018986327389165" lon="9.321458975677949"><ele>920.0</ele><time>2026-05-02T10:22:45.97Z</time></trkpt><trkpt lat="46.019021137061664" lon="9.321249020993061"><ele>924.0</ele><time>2026-05-02T10:22:46.97Z</time></trkpt><trkpt lat="46.01904296222407" lon="9.3210560825898"><ele>928.0</ele><time>2026-05-02T10:22:47.97Z</time></trkpt><trkpt lat="46.01906652900487" lon="9.320871134672192"><ele>933.75</ele><time>2026-05-02T10:22:48.97Z</time></trkpt><trkpt lat="46.01908865518335" lon="9.32069967730206"><ele>939.5</ele><time>2026-05-02T10:22:49.97Z</time></trkpt><trkpt lat="46.01911937195221" lon="9.320528855003753"><ele>945.25</ele><time>2026-05-02T10:22:50.97Z</time></trkpt><trkpt lat="46.01916219324913" lon="9.320364971345347"><ele>951.0</ele><time>2026-05-02T10:22:51.97Z</time></trkpt><trkpt lat="46.019204815886326" lon="9.320191809285909"><ele>945.0</ele><time>2026-05-02T10:22:52.97Z</time></trkpt><trkpt lat="46.01925211820888" lon="9.320026704282798"><ele>938.9999999999999</ele><time>2026-05-02T10:22:53.97Z</time></trkpt><trkpt lat="46.019250608624404" lon="9.319860514060435"><ele>932.9999999999999</ele><time>2026-05-02T10:22:54.97Z</time></trkpt><trkpt lat="46.01927106933227" lon="9.319735982708409"><ele>927.0</ele><time>2026-05-02T10:22:55.97Z</time></trkpt><trkpt lat="46.01928720639251" lon="9.319636068906593"><ele>921.0</ele><time>2026-05-02T10:22:56.97Z</time></trkpt><trkpt lat="46.01930418256298" lon="9.319517442052389"><ele>921.0</ele><time>2026-05-02T10:22:57.97Z</time></trkpt><trkpt lat="46.01936892847186" lon="9.319395715651517"><ele>920.9999999999999</ele><time>2026-05-02T10:22:58.97Z</time></trkpt><trkpt lat="46.01942840272661" lon="9.319263281491681"><ele>920.9999999999999</ele><time>2026-05-02T10:22:59.97Z</time></trkpt><trkpt lat="46.019474257363264" lon="9.319110825492015"><ele>921.0</ele><time>2026-05-02T10:23:00.97Z</time></trkpt><trkpt lat="46.019509585043586" lon="9.31895424341885"><ele>921.0</ele><time>2026-05-02T10:23:01.97Z</time></trkpt><trkpt lat="46.019558842016096" lon="9.3188068857548"><ele>929.0</ele><time>2026-05-02T10:23:02.97Z</time></trkpt><trkpt lat="46.01959826264601" lon="9.31865440097952"><ele>937.0</ele><time>2026-05-02T10:23:03.97Z</time></trkpt><trkpt lat="46.01964991962279" lon="9.318502319721768"><ele>945.0</ele><time>2026-05-02T10:23:04.97Z</time></trkpt><trkpt lat="46.019718645743346" lon="9.318353006073751"><ele>953.0</ele><time>2026-05-02T10:23:05.97Z</time></trkpt><trkpt lat="46.019772253079616" lon="9.318192152843906"><ele>943.0</ele><time>2026-05-02T10:23:06.97Z</time></trkpt><trkpt lat="46.0198036241649" lon="9.318027620755222"><ele>933.0</ele><time>2026-05-02T10:23:07.97Z</time></trkpt><trkpt lat="46.01984675033681" lon="9.31788291841276"><ele>923.0</ele><time>2026-05-02T10:23:08.97Z</time></trkpt><trkpt lat="46.0199166315864" lon="9.317734510334216"><ele>913.0</ele><time>2026-05-02T10:23:09.97Z</time></trkpt><trkpt lat="46.019999303893144" lon="9.31757459664336"><ele>913.0</ele><time>2026-05-02T10:23:10.97Z</time></trkpt><trkpt lat="46.0201017412582" lon="9.31741850826241"><ele>913.0</ele><time>2026-05-02T10:23:11.97Z</time></trkpt><trkpt lat="46.0201901362067" lon="9.317261728089091"><ele>913.0</ele><time>2026-05-02T10:23:12.97Z</time></trkpt><trkpt lat="46.02029569103033" lon="9.317121018588454"><ele>913.0</ele><time>2026-05-02T10:23:13.97Z</time></trkpt><trkpt lat="46.02037888937235" lon="9.316953976699377"><ele>924.25</ele><time>2026-05-02T10:23:14.968Z</time></trkpt><trkpt lat="46.02047303853751" lon="9.3168020799709"><ele>935.5</ele><time>2026-05-02T10:23:15.967Z</time></trkpt><trkpt lat="46.02056729115924" lon="9.316642366459229"><ele>946.75</ele><time>2026-05-02T10:23:16.967Z</time></trkpt><trkpt lat="46.02065154014349" lon="9.316467733813983"><ele>958.0</ele><time>2026-05-02T10:23:17.968Z</time></trkpt><trkpt lat="46.02073272794372" lon="9.316281662681572"><ele>948.5</ele><time>2026-05-02T10:23:18.968Z</time></trkpt><trkpt lat="46.020823253880565" lon="9.316114855245361"><ele>939.0</ele><time>2026-05-02T10:23:19.968Z</time></trkpt><trkpt lat="46.02090834280896" lon="9.31594009439386"><ele>929.5</ele><time>2026-05-02T10:23:20.967Z</time></trkpt><trkpt lat="46.020984651895375" lon="9.315762662672329"><ele>920.0</ele><time>2026-05-02T10:23:21.968Z</time></trkpt><trkpt lat="46.02105153982743" lon="9.315604431602727"><ele>927.0</ele><time>2026-05-02T10:23:22.968Z</time></trkpt><trkpt lat="46.021140402114284" lon="9.315483086124305"><ele>934.0</ele><time>2026-05-02T10:23:23.967Z</time></trkpt><trkpt lat="46.02123910606581" lon="9.315367232410859"><ele>941.0</ele><time>2026-05-02T10:23:24.968Z</time></trkpt><trkpt lat="46.021335907723056" lon="9.315227566974835"><ele>948.0</ele><time>2026-05-02T10:23:25.968Z</time></trkpt><trkpt lat="46.02146245529531" lon="9.315116781787173"><ele>948.0</ele><time>2026-05-02T10:23:26.967Z</time></trkpt><trkpt lat="46.021568998443655" lon="9.314998152585769"><ele>948.0</ele><time>2026-05-02T10:23:27.967Z</time></trkpt><trkpt lat="46.02166619906947" lon="9.314862693357643"><ele>948.0</ele><time>2026-05-02T10:23:28.967Z</time></trkpt><trkpt lat="46.02175151141672" lon="9.314707463603018"><ele>948.0</ele><time>2026-05-02T10:23:29.967Z</time></trkpt><trkpt lat="46.02182859539421" lon="9.314527988561897"><ele>943.5</ele><time>2026-05-02T10:23:30.967Z</time></trkpt><trkpt lat="46.0219026695622" lon="9.314365298510234"><ele>939.0</ele><time>2026-05-02T10:23:31.967Z</time></trkpt><trkpt lat="46.02197683415573" lon="9.314223998529735"><ele>934.5</ele><time>2026-05-02T10:23:32.967Z</time></trkpt><trkpt lat="46.022072274705984" lon="9.314132005635377"><ele>930.0</ele><time>2026-05-02T10:23:33.967Z</time></trkpt><trkpt lat="46.022136958923824" lon="9.31402214262169"><ele>933.6</ele><time>2026-05-02T10:23:34.968Z</time></trkpt><trkpt lat="46.02218703172508" lon="9.313904706635155"><ele>937.2</ele><time>2026-05-02T10:23:35.968Z</time></trkpt><trkpt lat="46.0222024739028" lon="9.313777161137551"><ele>940.8</ele><time>2026-05-02T10:23:36.968Z</time></trkpt><trkpt lat="46.0222356598911" lon="9.313654260604252"><ele>944.4</ele><time>2026-05-02T10:23:37.968Z</time></trkpt><trkpt lat="46.02225671785135" lon="9.313505533943855"><ele>948.0</ele><time>2026-05-02T10:23:38.968Z</time></trkpt><trkpt lat="46.02227887802683" lon="9.313331319180017"><ele>948.0</ele><time>2026-05-02T10:23:39.968Z</time></trkpt><trkpt lat="46.022308171419766" lon="9.31313713697286"><ele>948.0</ele><time>2026-05-02T10:23:40.968Z</time></trkpt><trkpt lat="46.022345895822944" lon="9.312940134153378"><ele>948.0</ele><time>2026-05-02T10:23:41.968Z</time></trkpt><trkpt lat="46.02238468122568" lon="9.312749128505388"><ele>948.0</ele><time>2026-05-02T10:23:42.968Z</time></trkpt><trkpt lat="46.02242058722738" lon="9.312551621397551"><ele>948.0</ele><time>2026-05-02T10:23:43.968Z</time></trkpt><trkpt lat="46.02244065941685" lon="9.312364950558562"><ele>948.0</ele><time>2026-05-02T10:23:44.968Z</time></trkpt><trkpt lat="46.02244376998741" lon="9.312173070648011"><ele>948.0</ele><time>2026-05-02T10:23:45.968Z</time></trkpt><trkpt lat="46.02243043445811" lon="9.311986528522493"><ele>948.0</ele><time>2026-05-02T10:23:46.968Z</time></trkpt><trkpt lat="46.022406819809326" lon="9.311814309598196"><ele>944.8</ele><time>2026-05-02T10:23:47.968Z</time></trkpt><trkpt lat="46.022368813050235" lon="9.311656645670743"><ele>941.5999999999999</ele><time>2026-05-02T10:23:48.968Z</time></trkpt><trkpt lat="46.022322746747044" lon="9.311531620756137"><ele>938.4000000000001</ele><time>2026-05-02T10:23:49.968Z</time></trkpt><trkpt lat="46.02227349203492" lon="9.3114371617516"><ele>935.2</ele><time>2026-05-02T10:23:50.968Z</time></trkpt><trkpt lat="46.02220133423537" lon="9.311362134509755"><ele>932.0</ele><time>2026-05-02T10:23:51.968Z</time></trkpt><trkpt lat="46.02212996746457" lon="9.311320857079792"><ele>932.0</ele><time>2026-05-02T10:23:52.968Z</time></trkpt><trkpt lat="46.022058242754625" lon="9.311296230034706"><ele>932.0</ele><time>2026-05-02T10:23:53.968Z</time></trkpt><trkpt lat="46.02195904544185" lon="9.311305736565805"><ele>932.0</ele><time>2026-05-02T10:23:54.968Z</time></trkpt><trkpt lat="46.021854196429544" lon="9.311359520982231"><ele>932.0</ele><time>2026-05-02T10:23:55.968Z</time></trkpt><trkpt lat="46.02174947306661" lon="9.311438437624336"><ele>932.0</ele><time>2026-05-02T10:23:56.968Z</time></trkpt><trkpt lat="46.02164711843647" lon="9.311522079255"><ele>932.5</ele><time>2026-05-02T10:23:57.968Z</time></trkpt><trkpt lat="46.02154142820021" lon="9.311627650219322"><ele>933.0</ele><time>2026-05-02T10:23:58.968Z</time></trkpt><trkpt lat="46.021426944998765" lon="9.311726649893188"><ele>933.5</ele><time>2026-05-02T10:23:59.968Z</time></trkpt><trkpt lat="46.02132034126808" lon="9.311825689356086"><ele>934.0</ele><time>2026-05-02T10:24:00.968Z</time></trkpt><trkpt lat="46.02121279357499" lon="9.311904786011988"><ele>934.0</ele><time>2026-05-02T10:24:01.968Z</time></trkpt><trkpt lat="46.0211004844413" lon="9.311961024893353"><ele>934.0</ele><time>2026-05-02T10:24:02.968Z</time></trkpt><trkpt lat="46.02098239062293" lon="9.311977908195065"><ele>934.0</ele><time>2026-05-02T10:24:03.968Z</time></trkpt><trkpt lat="46.020866534717236" lon="9.312005040382925"><ele>934.0</ele><time>2026-05-02T10:24:04.968Z</time></trkpt><trkpt lat="46.020739216220214" lon="9.312044360286215"><ele>935.25</ele><time>2026-05-02T10:24:05.968Z</time></trkpt><trkpt lat="46.0206079850603" lon="9.312054934055736"><ele>936.5</ele><time>2026-05-02T10:24:06.968Z</time></trkpt><trkpt lat="46.02048488810861" lon="9.312080897168968"><ele>937.75</ele><time>2026-05-02T10:24:07.968Z</time></trkpt><trkpt lat="46.02036948709471" lon="9.312127308457809"><ele>939.0</ele><time>2026-05-02T10:24:08.968Z</time></trkpt><trkpt lat="46.020252877881134" lon="9.31218116641677"><ele>939.0</ele><time>2026-05-02T10:24:09.968Z</time></trkpt><trkpt lat="46.02015066468416" lon="9.312220997222402"><ele>939.0000000000001</ele><time>2026-05-02T10:24:10.968Z</time></trkpt><trkpt lat="46.02004823164339" lon="9.312228954798888"><ele>939.0000000000001</ele><time>2026-05-02T10:24:11.968Z</time></trkpt><trkpt lat="46.01994384071193" lon="9.312215902412685"><ele>939.0</ele><time>2026-05-02T10:24:12.968Z</time></trkpt><trkpt lat="46.019834383964636" lon="9.312184686308992"><ele>939.0</ele><time>2026-05-02T10:24:13.968Z</time></trkpt><trkpt lat="46.0197165349943" lon="9.312130719488062"><ele>943.0</ele><time>2026-05-02T10:24:14.968Z</time></trkpt><trkpt lat="46.019608810612" lon="9.312069473518054"><ele>947.0000000000001</ele><time>2026-05-02T10:24:15.968Z</time></trkpt><trkpt lat="46.019511337453075" lon="9.312010000896848"><ele>951.0000000000001</ele><time>2026-05-02T10:24:16.968Z</time></trkpt><trkpt lat="46.01943833198133" lon="9.311902245422155"><ele>955.0</ele><time>2026-05-02T10:24:17.968Z</time></trkpt><trkpt lat="46.019354730041705" lon="9.3118104994652"><ele>959.0</ele><time>2026-05-02T10:24:18.968Z</time></trkpt><trkpt lat="46.019277645492" lon="9.311686467799467"><ele>959.0</ele><time>2026-05-02T10:24:19.968Z</time></trkpt><trkpt lat="46.01918048845586" lon="9.311579603260522"><ele>959.0</ele><time>2026-05-02T10:24:20.968Z</time></trkpt><trkpt lat="46.01907606401045" lon="9.311476478097537"><ele>959.0</ele><time>2026-05-02T10:24:21.968Z</time></trkpt><trkpt lat="46.018972760857984" lon="9.311340697419833"><ele>959.0</ele><time>2026-05-02T10:24:22.968Z</time></trkpt><trkpt lat="46.018851861089004" lon="9.3112380558433"><ele>963.25</ele><time>2026-05-02T10:24:23.968Z</time></trkpt><trkpt lat="46.01875400558934" lon="9.311099887464612"><ele>967.5</ele><time>2026-05-02T10:24:24.968Z</time></trkpt><trkpt lat="46.018659556938736" lon="9.310986571642399"><ele>971.75</ele><time>2026-05-02T10:24:25.968Z</time></trkpt><trkpt lat="46.01856133406569" lon="9.310886664698193"><ele>976.0</ele><time>2026-05-02T10:24:26.968Z</time></trkpt><trkpt lat="46.018463329394265" lon="9.310779566810886"><ele>975.9999999999999</ele><time>2026-05-02T10:24:27.968Z</time></trkpt><trkpt lat="46.01839746657975" lon="9.310648814880686"><ele>976.0</ele><time>2026-05-02T10:24:28.969Z</time></trkpt><trkpt lat="46.018337681278645" lon="9.310552329611085"><ele>976.0</ele><time>2026-05-02T10:24:29.969Z</time></trkpt><trkpt lat="46.01828498213687" lon="9.310469079696738"><ele>976.0</ele><time>2026-05-02T10:24:30.969Z</time></trkpt><trkpt lat="46.01823267720453" lon="9.310407217001174"><ele>975.9999999999999</ele><time>2026-05-02T10:24:31.969Z</time></trkpt><trkpt lat="46.01816275015653" lon="9.310327878925895"><ele>976.0</ele><time>2026-05-02T10:24:33.969Z</time></trkpt><trkpt lat="46.01803357071709" lon="9.310383158723116"><ele>979.1999999999999</ele><time>2026-05-02T10:24:35.969Z</time></trkpt><trkpt lat="46.01801485862164" lon="9.310533357273053"><ele>982.3999999999999</ele><time>2026-05-02T10:24:36.969Z</time></trkpt><trkpt lat="46.01810075749546" lon="9.31064475476739"><ele>985.6</ele><time>2026-05-02T10:24:37.969Z</time></trkpt><trkpt lat="46.01815814493379" lon="9.310767699536829"><ele>988.8</ele><time>2026-05-02T10:24:38.969Z</time></trkpt><trkpt lat="46.01821577420679" lon="9.310910942375369"><ele>992.0</ele><time>2026-05-02T10:24:39.969Z</time></trkpt><trkpt lat="46.01829086885181" lon="9.311055271518926"><ele>991.75</ele><time>2026-05-02T10:24:40.969Z</time></trkpt><trkpt lat="46.01836540113155" lon="9.311192559929912"><ele>991.5</ele><time>2026-05-02T10:24:41.969Z</time></trkpt><trkpt lat="46.01843684853593" lon="9.311324673298978"><ele>991.25</ele><time>2026-05-02T10:24:42.969Z</time></trkpt><trkpt lat="46.01851475889646" lon="9.31145832610363"><ele>991.0</ele><time>2026-05-02T10:24:43.969Z</time></trkpt><trkpt lat="46.01857651383813" lon="9.311624524488954"><ele>991.0</ele><time>2026-05-02T10:24:44.969Z</time></trkpt><trkpt lat="46.01863015156238" lon="9.311800686214728"><ele>991.0</ele><time>2026-05-02T10:24:45.969Z</time></trkpt><trkpt lat="46.01867565309817" lon="9.311971696910998"><ele>991.0</ele><time>2026-05-02T10:24:46.969Z</time></trkpt><trkpt lat="46.01871375120036" lon="9.312155025002292"><ele>991.0</ele><time>2026-05-02T10:24:47.969Z</time></trkpt><trkpt lat="46.01878925982007" lon="9.312313188584383"><ele>994.75</ele><time>2026-05-02T10:24:48.969Z</time></trkpt><trkpt lat="46.01885773112304" lon="9.312481555287171"><ele>998.5</ele><time>2026-05-02T10:24:49.969Z</time></trkpt><trkpt lat="46.018928786752475" lon="9.312625259971924"><ele>1002.25</ele><time>2026-05-02T10:24:50.969Z</time></trkpt><trkpt lat="46.01900601274725" lon="9.312737570948876"><ele>1006.0</ele><time>2026-05-02T10:24:51.969Z</time></trkpt><trkpt lat="46.01908169448159" lon="9.312808916906802"><ele>1005.9999999999999</ele><time>2026-05-02T10:24:52.969Z</time></trkpt><trkpt lat="46.01914848855485" lon="9.312847327098233"><ele>1006.0</ele><time>2026-05-02T10:24:53.969Z</time></trkpt><trkpt lat="46.01921474108691" lon="9.312911818231912"><ele>1006.0</ele><time>2026-05-02T10:24:55.969Z</time></trkpt><trkpt lat="46.01919206113968" lon="9.313009644849302"><ele>1006.0</ele><time>2026-05-02T10:24:57.969Z</time></trkpt><trkpt lat="46.019092708451296" lon="9.313073384661765"><ele>1005.9999999999999</ele><time>2026-05-02T10:24:59.969Z</time></trkpt><trkpt lat="46.0190192294043" lon="9.313078864856195"><ele>1006.0</ele><time>2026-05-02T10:25:00.969Z</time></trkpt><trkpt lat="46.0189237703702" lon="9.313076973157203"><ele>1005.9999999999999</ele><time>2026-05-02T10:25:01.969Z</time></trkpt><trkpt lat="46.018839021377225" lon="9.313063181003471"><ele>1006.0</ele><time>2026-05-02T10:25:02.969Z</time></trkpt><trkpt lat="46.018766763774536" lon="9.313025800835264"><ele>1006.0</ele><time>2026-05-02T10:25:03.969Z</time></trkpt><trkpt lat="46.01869976025799" lon="9.312971486231486"><ele>1006.0</ele><time>2026-05-02T10:25:04.969Z</time></trkpt><trkpt lat="46.01864848425167" lon="9.312868044015161"><ele>1005.9999999999999</ele><time>2026-05-02T10:25:05.969Z</time></trkpt><trkpt lat="46.01859927543805" lon="9.312746099866743"><ele>1006.0</ele><time>2026-05-02T10:25:06.969Z</time></trkpt><trkpt lat="46.01853403013319" lon="9.312632062328397"><ele>1006.0</ele><time>2026-05-02T10:25:07.969Z</time></trkpt><trkpt lat="46.018454868936885" lon="9.312522742932904"><ele>1005.9999999999999</ele><time>2026-05-02T10:25:08.969Z</time></trkpt><trkpt lat="46.018378021722256" lon="9.312422387099788"><ele>1005.9999999999999</ele><time>2026-05-02T10:25:09.969Z</time></trkpt><trkpt lat="46.01829857192137" lon="9.312319204839707"><ele>1006.0</ele><time>2026-05-02T10:25:10.969Z</time></trkpt><trkpt lat="46.01822535963284" lon="9.31221056874281"><ele>1006.0</ele><time>2026-05-02T10:25:11.969Z</time></trkpt><trkpt lat="46.01815284862913" lon="9.312111201551877"><ele>1006.25</ele><time>2026-05-02T10:25:12.969Z</time></trkpt><trkpt lat="46.01807729997469" lon="9.312019736770909"><ele>1006.5</ele><time>2026-05-02T10:25:13.969Z</time></trkpt><trkpt lat="46.017969464435595" lon="9.311942549866158"><ele>1006.75</ele><time>2026-05-02T10:25:14.969Z</time></trkpt><trkpt lat="46.01785923828471" lon="9.311853158461927"><ele>1007.0</ele><time>2026-05-02T10:25:15.969Z</time></trkpt><trkpt lat="46.017755970084835" lon="9.311767026404056"><ele>1007.0</ele><time>2026-05-02T10:25:16.969Z</time></trkpt><trkpt lat="46.01765781043329" lon="9.311695420362474"><ele>1007.0</ele><time>2026-05-02T10:25:17.969Z</time></trkpt><trkpt lat="46.01754383858946" lon="9.311641328610182"><ele>1007.0</ele><time>2026-05-02T10:25:18.969Z</time></trkpt><trkpt lat="46.017432609546205" lon="9.311568697550697"><ele>1007.0</ele><time>2026-05-02T10:25:19.969Z</time></trkpt><trkpt lat="46.0173194780435" lon="9.31152471345175"><ele>1007.3333333333334</ele><time>2026-05-02T10:25:20.968Z</time></trkpt><trkpt lat="46.017209393669354" lon="9.31147726075982"><ele>1007.6666666666667</ele><time>2026-05-02T10:25:21.968Z</time></trkpt><trkpt lat="46.01711652626616" lon="9.311433827264292"><ele>1008.0</ele><time>2026-05-02T10:25:22.968Z</time></trkpt><trkpt lat="46.01704081111239" lon="9.311414304816775"><ele>1008.3333333333333</ele><time>2026-05-02T10:25:23.968Z</time></trkpt><trkpt lat="46.016977284512535" lon="9.311421090583593"><ele>1008.6666666666666</ele><time>2026-05-02T10:25:24.968Z</time></trkpt><trkpt lat="46.016910908705775" lon="9.311470673480528"><ele>1009.0</ele><time>2026-05-02T10:25:25.968Z</time></trkpt><trkpt lat="46.01686346867504" lon="9.311563977532197"><ele>1009.0</ele><time>2026-05-02T10:25:26.968Z</time></trkpt><trkpt lat="46.01683575939607" lon="9.311671089531348"><ele>1009.0000000000001</ele><time>2026-05-02T10:25:27.968Z</time></trkpt><trkpt lat="46.01680149342113" lon="9.311785085627596"><ele>1009.0000000000001</ele><time>2026-05-02T10:25:28.968Z</time></trkpt><trkpt lat="46.016758018993805" lon="9.311917814036224"><ele>1009.0</ele><time>2026-05-02T10:25:29.968Z</time></trkpt><trkpt lat="46.01670368658868" lon="9.312047639636589"><ele>1009.0</ele><time>2026-05-02T10:25:30.968Z</time></trkpt><trkpt lat="46.016620964086094" lon="9.312124841934555"><ele>1011.0</ele><time>2026-05-02T10:25:31.968Z</time></trkpt><trkpt lat="46.01649950674281" lon="9.312214843389924"><ele>1013.0</ele><time>2026-05-02T10:25:32.968Z</time></trkpt><trkpt lat="46.01639068310362" lon="9.312353555795683"><ele>1015.0</ele><time>2026-05-02T10:25:33.968Z</time></trkpt><trkpt lat="46.01625456629643" lon="9.31245768508492"><ele>1017.0</ele><time>2026-05-02T10:25:34.968Z</time></trkpt><trkpt lat="46.01613949546859" lon="9.31257693462253"><ele>1017.0</ele><time>2026-05-02T10:25:35.968Z</time></trkpt><trkpt lat="46.01602811941646" lon="9.312698716573317"><ele>1017.0</ele><time>2026-05-02T10:25:36.968Z</time></trkpt><trkpt lat="46.01591570806857" lon="9.312804586627314"><ele>1017.0</ele><time>2026-05-02T10:25:37.968Z</time></trkpt><trkpt lat="46.01580610406778" lon="9.312939715374087"><ele>1017.0</ele><time>2026-05-02T10:25:38.968Z</time></trkpt><trkpt lat="46.015677856684285" lon="9.31303700980073"><ele>1022.75</ele><time>2026-05-02T10:25:39.968Z</time></trkpt><trkpt lat="46.015551079087196" lon="9.31311716462002"><ele>1028.5</ele><time>2026-05-02T10:25:40.968Z</time></trkpt><trkpt lat="46.01543074166639" lon="9.313181172555664"><ele>1034.25</ele><time>2026-05-02T10:25:41.968Z</time></trkpt><trkpt lat="46.015291348554456" lon="9.313203086498234"><ele>1040.0</ele><time>2026-05-02T10:25:42.968Z</time></trkpt><trkpt lat="46.01513302564827" lon="9.313221519525044"><ele>1038.3333333333335</ele><time>2026-05-02T10:25:43.968Z</time></trkpt><trkpt lat="46.014971289805096" lon="9.313278061997838"><ele>1036.6666666666667</ele><time>2026-05-02T10:25:44.968Z</time></trkpt><trkpt lat="46.014820923808436" lon="9.313358052713475"><ele>1035.0</ele><time>2026-05-02T10:25:45.968Z</time></trkpt><trkpt lat="46.014669888760864" lon="9.313443040605163"><ele>1035.0</ele><time>2026-05-02T10:25:46.968Z</time></trkpt><trkpt lat="46.01452190013042" lon="9.31352855084692"><ele>1035.0</ele><time>2026-05-02T10:25:47.968Z</time></trkpt><trkpt lat="46.01438134858919" lon="9.313613312026481"><ele>1035.0</ele><time>2026-05-02T10:25:48.968Z</time></trkpt><trkpt lat="46.01423719692321" lon="9.313704931790891"><ele>1032.75</ele><time>2026-05-02T10:25:49.968Z</time></trkpt><trkpt lat="46.01409620616562" lon="9.31376687914199"><ele>1030.5</ele><time>2026-05-02T10:25:50.968Z</time></trkpt><trkpt lat="46.01394569947365" lon="9.313846624915277"><ele>1028.25</ele><time>2026-05-02T10:25:51.968Z</time></trkpt><trkpt lat="46.013808881372434" lon="9.31389159264764"><ele>1026.0</ele><time>2026-05-02T10:25:52.968Z</time></trkpt><trkpt lat="46.01368178844285" lon="9.313970930415978"><ele>1026.6666666666667</ele><time>2026-05-02T10:25:53.968Z</time></trkpt><trkpt lat="46.01353509972114" lon="9.314027341663193"><ele>1027.3333333333335</ele><time>2026-05-02T10:25:54.968Z</time></trkpt><trkpt lat="46.01340305450141" lon="9.314104737504223"><ele>1028.0</ele><time>2026-05-02T10:25:55.969Z</time></trkpt><trkpt lat="46.01325975670178" lon="9.314201331940932"><ele>1028.0</ele><time>2026-05-02T10:25:56.969Z</time></trkpt><trkpt lat="46.01312785730662" lon="9.314293413617468"><ele>1028.0</ele><time>2026-05-02T10:25:57.969Z</time></trkpt><trkpt lat="46.01300291812774" lon="9.314379966184248"><ele>1028.0</ele><time>2026-05-02T10:25:58.969Z</time></trkpt><trkpt lat="46.01287446897468" lon="9.314436860683264"><ele>1028.0</ele><time>2026-05-02T10:25:59.969Z</time></trkpt><trkpt lat="46.01276999352083" lon="9.314522459823522"><ele>1028.0</ele><time>2026-05-02T10:26:00.969Z</time></trkpt><trkpt lat="46.01269855835313" lon="9.314620667493278"><ele>1028.0</ele><time>2026-05-02T10:26:01.969Z</time></trkpt><trkpt lat="46.012644024023544" lon="9.31471489732656"><ele>1028.0</ele><time>2026-05-02T10:26:02.969Z</time></trkpt><trkpt lat="46.01260127691757" lon="9.314850138172613"><ele>1028.0</ele><time>2026-05-02T10:26:03.969Z</time></trkpt><trkpt lat="46.012577337040305" lon="9.315014659380362"><ele>1028.0</ele><time>2026-05-02T10:26:04.969Z</time></trkpt><trkpt lat="46.01251465444117" lon="9.315168437185791"><ele>1029.8</ele><time>2026-05-02T10:26:05.969Z</time></trkpt><trkpt lat="46.01246701565892" lon="9.315321544522895"><ele>1031.6</ele><time>2026-05-02T10:26:06.969Z</time></trkpt><trkpt lat="46.01242109431246" lon="9.315458098446141"><ele>1033.4</ele><time>2026-05-02T10:26:07.969Z</time></trkpt><trkpt lat="46.012369908202096" lon="9.315562065373378"><ele>1035.2</ele><time>2026-05-02T10:26:08.969Z</time></trkpt><trkpt lat="46.01231190507031" lon="9.31566936804421"><ele>1037.0</ele><time>2026-05-02T10:26:09.969Z</time></trkpt><trkpt lat="46.01221627195713" lon="9.315744594665757"><ele>1045.0</ele><time>2026-05-02T10:26:10.969Z</time></trkpt><trkpt lat="46.01210672173489" lon="9.315746596114057"><ele>1053.0</ele><time>2026-05-02T10:26:11.969Z</time></trkpt><trkpt lat="46.01201306532516" lon="9.315778267036627"><ele>1061.0</ele><time>2026-05-02T10:26:12.969Z</time></trkpt><trkpt lat="46.01193796978151" lon="9.315803996948999"><ele>1069.0</ele><time>2026-05-02T10:26:13.969Z</time></trkpt><trkpt lat="46.01186822361104" lon="9.315876113263306"><ele>1077.0</ele><time>2026-05-02T10:26:15.969Z</time></trkpt><trkpt lat="46.01186980934671" lon="9.316026129997649"><ele>1077.0</ele><time>2026-05-02T10:26:17.969Z</time></trkpt><trkpt lat="46.01192295132033" lon="9.316087215029121"><ele>1077.0</ele><time>2026-05-02T10:26:18.969Z</time></trkpt><trkpt lat="46.01202978319484" lon="9.316074184563535"><ele>1077.0</ele><time>2026-05-02T10:26:19.969Z</time></trkpt><trkpt lat="46.01214620067829" lon="9.31605929107155"><ele>1077.0</ele><time>2026-05-02T10:26:20.969Z</time></trkpt><trkpt lat="46.01226337595435" lon="9.316021988881067"><ele>1077.0</ele><time>2026-05-02T10:26:21.969Z</time></trkpt><trkpt lat="46.012376375701194" lon="9.315965106213559"><ele>1077.0</ele><time>2026-05-02T10:26:22.969Z</time></trkpt><trkpt lat="46.012477910467055" lon="9.31585047092134"><ele>1077.0</ele><time>2026-05-02T10:26:23.969Z</time></trkpt><trkpt lat="46.01254626385537" lon="9.315718654388753"><ele>1077.0</ele><time>2026-05-02T10:26:24.969Z</time></trkpt><trkpt lat="46.01262171464166" lon="9.315586098963891"><ele>1077.0</ele><time>2026-05-02T10:26:25.969Z</time></trkpt><trkpt lat="46.012707089109405" lon="9.315450767058431"><ele>1072.2</ele><time>2026-05-02T10:26:26.969Z</time></trkpt><trkpt lat="46.01278423956323" lon="9.315324505876351"><ele>1067.4</ele><time>2026-05-02T10:26:27.969Z</time></trkpt><trkpt lat="46.01284967905015" lon="9.315228533942719"><ele>1062.6</ele><time>2026-05-02T10:26:28.969Z</time></trkpt><trkpt lat="46.01292116594339" lon="9.3151433096442"><ele>1057.8</ele><time>2026-05-02T10:26:29.969Z</time></trkpt><trkpt lat="46.01299766927191" lon="9.315070022814743"><ele>1053.0</ele><time>2026-05-02T10:26:30.969Z</time></trkpt><trkpt lat="46.0130874900231" lon="9.31501376422917"><ele>1053.0</ele><time>2026-05-02T10:26:31.969Z</time></trkpt><trkpt lat="46.01316802408062" lon="9.314987575318515"><ele>1053.0</ele><time>2026-05-02T10:26:32.969Z</time></trkpt><trkpt lat="46.01323986940464" lon="9.314965380936037"><ele>1053.0</ele><time>2026-05-02T10:26:33.969Z</time></trkpt><trkpt lat="46.013327285824914" lon="9.31496471291729"><ele>1053.0</ele><time>2026-05-02T10:26:35.969Z</time></trkpt><trkpt lat="46.01338343980958" lon="9.315056991711371"><ele>1053.0</ele><time>2026-05-02T10:26:37.969Z</time></trkpt><trkpt lat="46.01332241549772" lon="9.315171434311543"><ele>1053.0</ele><time>2026-05-02T10:26:39.969Z</time></trkpt><trkpt lat="46.01324498478781" lon="9.315197711360055"><ele>1053.0</ele><time>2026-05-02T10:26:40.969Z</time></trkpt><trkpt lat="46.01316485096472" lon="9.315239265485719"><ele>1053.0</ele><time>2026-05-02T10:26:41.969Z</time></trkpt><trkpt lat="46.013078321411356" lon="9.315315894057242"><ele>1053.0</ele><time>2026-05-02T10:26:42.969Z</time></trkpt><trkpt lat="46.012997108453405" lon="9.31542195939018"><ele>1053.0</ele><time>2026-05-02T10:26:43.969Z</time></trkpt><trkpt lat="46.01291486489093" lon="9.315527111676472"><ele>1053.0</ele><time>2026-05-02T10:26:44.969Z</time></trkpt><trkpt lat="46.012839122784335" lon="9.315636710321643"><ele>1059.6</ele><time>2026-05-02T10:26:45.969Z</time></trkpt><trkpt lat="46.01278343811704" lon="9.315762312182251"><ele>1066.1999999999998</ele><time>2026-05-02T10:26:46.969Z</time></trkpt><trkpt lat="46.01274042843514" lon="9.31588793702123"><ele>1072.8</ele><time>2026-05-02T10:26:47.969Z</time></trkpt><trkpt lat="46.01269720604834" lon="9.3160220856481"><ele>1079.3999999999999</ele><time>2026-05-02T10:26:48.97Z</time></trkpt><trkpt lat="46.01264529567699" lon="9.316133782083378"><ele>1086.0</ele><time>2026-05-02T10:26:49.97Z</time></trkpt><trkpt lat="46.012578594368556" lon="9.316225316489948"><ele>1084.2</ele><time>2026-05-02T10:26:50.97Z</time></trkpt><trkpt lat="46.012483919990174" lon="9.31626420918558"><ele>1082.3999999999999</ele><time>2026-05-02T10:26:51.97Z</time></trkpt><trkpt lat="46.012393342364454" lon="9.316338281772687"><ele>1080.6</ele><time>2026-05-02T10:26:52.97Z</time></trkpt><trkpt lat="46.012279083253496" lon="9.316359608564806"><ele>1078.8</ele><time>2026-05-02T10:26:53.97Z</time></trkpt><trkpt lat="46.01219060546074" lon="9.316388736192225"><ele>1077.0</ele><time>2026-05-02T10:26:54.97Z</time></trkpt><trkpt lat="46.01211369693518" lon="9.31643306004135"><ele>1085.5</ele><time>2026-05-02T10:26:55.97Z</time></trkpt><trkpt lat="46.012040281983204" lon="9.316443772744213"><ele>1094.0</ele><time>2026-05-02T10:26:56.97Z</time></trkpt><trkpt lat="46.01193006925598" lon="9.316511135076475"><ele>1102.5</ele><time>2026-05-02T10:26:58.97Z</time></trkpt><trkpt lat="46.01187258407216" lon="9.316548087540832"><ele>1111.0</ele><time>2026-05-02T10:26:59.97Z</time></trkpt><trkpt lat="46.01181089537197" lon="9.316584629304602"><ele>1119.5</ele><time>2026-05-02T10:27:00.97Z</time></trkpt><trkpt lat="46.011739857763516" lon="9.316616621601757"><ele>1128.0</ele><time>2026-05-02T10:27:01.97Z</time></trkpt><trkpt lat="46.01165396351673" lon="9.316646042410163"><ele>1132.0</ele><time>2026-05-02T10:27:02.97Z</time></trkpt><trkpt lat="46.01156615380986" lon="9.31665043189302"><ele>1136.0</ele><time>2026-05-02T10:27:03.97Z</time></trkpt><trkpt lat="46.011468679257874" lon="9.31663455389691"><ele>1140.0</ele><time>2026-05-02T10:27:04.97Z</time></trkpt><trkpt lat="46.01137532735499" lon="9.31661349136225"><ele>1144.0</ele><time>2026-05-02T10:27:05.97Z</time></trkpt><trkpt lat="46.011294683361356" lon="9.316575141802115"><ele>1148.0</ele><time>2026-05-02T10:27:06.97Z</time></trkpt><trkpt lat="46.01121663714856" lon="9.31653259138736"><ele>1152.0</ele><time>2026-05-02T10:27:07.97Z</time></trkpt><trkpt lat="46.01114012124811" lon="9.316444123282102"><ele>1146.6</ele><time>2026-05-02T10:27:08.97Z</time></trkpt><trkpt lat="46.011061593429645" lon="9.316345148053443"><ele>1141.2</ele><time>2026-05-02T10:27:09.97Z</time></trkpt><trkpt lat="46.01099092933957" lon="9.316251682478168"><ele>1135.8</ele><time>2026-05-02T10:27:10.97Z</time></trkpt><trkpt lat="46.010910723151504" lon="9.316116777048453"><ele>1130.4</ele><time>2026-05-02T10:27:11.97Z</time></trkpt><trkpt lat="46.01083586811851" lon="9.31599413816421"><ele>1125.0</ele><time>2026-05-02T10:27:12.97Z</time></trkpt><trkpt lat="46.01076468408017" lon="9.315885422833311"><ele>1125.0</ele><time>2026-05-02T10:27:13.97Z</time></trkpt><trkpt lat="46.010722450386794" lon="9.315748984944257"><ele>1125.0</ele><time>2026-05-02T10:27:14.97Z</time></trkpt><trkpt lat="46.01066594169462" lon="9.315618124389328"><ele>1125.0</ele><time>2026-05-02T10:27:15.97Z</time></trkpt><trkpt lat="46.01058599283086" lon="9.315510390685429"><ele>1125.0</ele><time>2026-05-02T10:27:16.97Z</time></trkpt><trkpt lat="46.010490038904635" lon="9.315451941473302"><ele>1125.0</ele><time>2026-05-02T10:27:17.97Z</time></trkpt><trkpt lat="46.01038085794972" lon="9.31543693448488"><ele>1115.8</ele><time>2026-05-02T10:27:18.97Z</time></trkpt><trkpt lat="46.0102679897572" lon="9.315423162140828"><ele>1106.6</ele><time>2026-05-02T10:27:19.97Z</time></trkpt><trkpt lat="46.010156477037945" lon="9.315428435256306"><ele>1097.4</ele><time>2026-05-02T10:27:20.97Z</time></trkpt><trkpt lat="46.01005955965056" lon="9.315404223259817"><ele>1088.2</ele><time>2026-05-02T10:27:21.97Z</time></trkpt><trkpt lat="46.009967028521864" lon="9.315402690032391"><ele>1079.0</ele><time>2026-05-02T10:27:22.97Z</time></trkpt><trkpt lat="46.009883153237645" lon="9.315415128980087"><ele>1079.4</ele><time>2026-05-02T10:27:23.97Z</time></trkpt><trkpt lat="46.00981615144249" lon="9.315489740915886"><ele>1079.8000000000002</ele><time>2026-05-02T10:27:24.97Z</time></trkpt><trkpt lat="46.0097648200874" lon="9.315581569862283"><ele>1080.1999999999998</ele><time>2026-05-02T10:27:25.97Z</time></trkpt><trkpt lat="46.009736644089024" lon="9.315715981689904"><ele>1080.6</ele><time>2026-05-02T10:27:26.969Z</time></trkpt><trkpt lat="46.009717532017845" lon="9.315859513475544"><ele>1081.0</ele><time>2026-05-02T10:27:27.969Z</time></trkpt><trkpt lat="46.009712436385215" lon="9.316004440008196"><ele>1081.0</ele><time>2026-05-02T10:27:28.969Z</time></trkpt><trkpt lat="46.009703482557775" lon="9.316144331563555"><ele>1081.0</ele><time>2026-05-02T10:27:29.969Z</time></trkpt><trkpt lat="46.009667015286844" lon="9.316284305473332"><ele>1081.0</ele><time>2026-05-02T10:27:30.968Z</time></trkpt><trkpt lat="46.00959785775335" lon="9.316415382567317"><ele>1081.0</ele><time>2026-05-02T10:27:31.968Z</time></trkpt><trkpt lat="46.00951640961789" lon="9.316527295335007"><ele>1081.0</ele><time>2026-05-02T10:27:32.968Z</time></trkpt><trkpt lat="46.00941937174178" lon="9.316626759767459"><ele>1076.75</ele><time>2026-05-02T10:27:33.969Z</time></trkpt><trkpt lat="46.00930507426669" lon="9.316704402599544"><ele>1072.5</ele><time>2026-05-02T10:27:34.969Z</time></trkpt><trkpt lat="46.00920154677182" lon="9.316786373235425"><ele>1068.25</ele><time>2026-05-02T10:27:35.968Z</time></trkpt><trkpt lat="46.00911389551159" lon="9.31687861849368"><ele>1064.0</ele><time>2026-05-02T10:27:36.969Z</time></trkpt><trkpt lat="46.00903265388869" lon="9.316969834609065"><ele>1064.0</ele><time>2026-05-02T10:27:37.969Z</time></trkpt><trkpt lat="46.00897158142328" lon="9.317067407918413"><ele>1064.0</ele><time>2026-05-02T10:27:38.968Z</time></trkpt><trkpt lat="46.00893348440383" lon="9.317193398107806"><ele>1064.0</ele><time>2026-05-02T10:27:39.969Z</time></trkpt><trkpt lat="46.00890257544552" lon="9.317349391998595"><ele>1064.0</ele><time>2026-05-02T10:27:40.969Z</time></trkpt><trkpt lat="46.00888293692408" lon="9.317501956779829"><ele>1064.0</ele><time>2026-05-02T10:27:41.969Z</time></trkpt><trkpt lat="46.008834782502554" lon="9.317639016339937"><ele>1070.0</ele><time>2026-05-02T10:27:42.969Z</time></trkpt><trkpt lat="46.00878997192439" lon="9.317778813452566"><ele>1076.0</ele><time>2026-05-02T10:27:43.969Z</time></trkpt><trkpt lat="46.00869826590543" lon="9.317870913695115"><ele>1082.0</ele><time>2026-05-02T10:27:44.969Z</time></trkpt><trkpt lat="46.00860117857752" lon="9.317907935997658"><ele>1088.0</ele><time>2026-05-02T10:27:45.969Z</time></trkpt><trkpt lat="46.00849278255258" lon="9.317911865775013"><ele>1094.0</ele><time>2026-05-02T10:27:46.969Z</time></trkpt><trkpt lat="46.00838661221094" lon="9.31791259009709"><ele>1094.0</ele><time>2026-05-02T10:27:47.969Z</time></trkpt><trkpt lat="46.00828549848171" lon="9.317944683034106"><ele>1094.0</ele><time>2026-05-02T10:27:48.969Z</time></trkpt><trkpt lat="46.008191862769245" lon="9.318014167770826"><ele>1094.0</ele><time>2026-05-02T10:27:49.969Z</time></trkpt><trkpt lat="46.00811409862458" lon="9.318139342829287"><ele>1094.0</ele><time>2026-05-02T10:27:50.969Z</time></trkpt><trkpt lat="46.008045270440874" lon="9.318284120667885"><ele>1094.0</ele><time>2026-05-02T10:27:51.969Z</time></trkpt><trkpt lat="46.0079652156184" lon="9.318452880665378"><ele>1100.2</ele><time>2026-05-02T10:27:52.969Z</time></trkpt><trkpt lat="46.007895278609965" lon="9.318583112113606"><ele>1106.4</ele><time>2026-05-02T10:27:53.969Z</time></trkpt><trkpt lat="46.00781220320183" lon="9.318684839255937"><ele>1112.6</ele><time>2026-05-02T10:27:54.969Z</time></trkpt><trkpt lat="46.00773241065302" lon="9.318728035787824"><ele>1118.8</ele><time>2026-05-02T10:27:55.969Z</time></trkpt><trkpt lat="46.00763148957287" lon="9.318669016297386"><ele>1125.0</ele><time>2026-05-02T10:27:56.969Z</time></trkpt><trkpt lat="46.00751493551887" lon="9.318642794724067"><ele>1129.5</ele><time>2026-05-02T10:27:57.969Z</time></trkpt><trkpt lat="46.007390893963" lon="9.318579613288254"><ele>1134.0</ele><time>2026-05-02T10:27:58.969Z</time></trkpt><trkpt lat="46.00727121962434" lon="9.31852015113905"><ele>1138.5</ele><time>2026-05-02T10:27:59.969Z</time></trkpt><trkpt lat="46.00716921090842" lon="9.318463932951728"><ele>1143.0</ele><time>2026-05-02T10:28:00.969Z</time></trkpt><trkpt lat="46.00709580358625" lon="9.318345777508648"><ele>1143.0</ele><time>2026-05-02T10:28:01.969Z</time></trkpt><trkpt lat="46.0070401885223" lon="9.31822317743935"><ele>1143.0</ele><time>2026-05-02T10:28:02.969Z</time></trkpt><trkpt lat="46.00696392575896" lon="9.318079695154188"><ele>1143.0</ele><time>2026-05-02T10:28:03.969Z</time></trkpt><trkpt lat="46.006869400769745" lon="9.317969184201015"><ele>1143.0</ele><time>2026-05-02T10:28:04.969Z</time></trkpt><trkpt lat="46.00678582724081" lon="9.317864163620564"><ele>1135.25</ele><time>2026-05-02T10:28:05.969Z</time></trkpt><trkpt lat="46.006673127098615" lon="9.317822873779274"><ele>1127.5</ele><time>2026-05-02T10:28:06.969Z</time></trkpt><trkpt lat="46.00655147506855" lon="9.317836739371884"><ele>1119.75</ele><time>2026-05-02T10:28:07.969Z</time></trkpt><trkpt lat="46.00644266571422" lon="9.317881959622515"><ele>1112.0</ele><time>2026-05-02T10:28:08.969Z</time></trkpt><trkpt lat="46.006333704212636" lon="9.31796923958526"><ele>1111.25</ele><time>2026-05-02T10:28:09.969Z</time></trkpt><trkpt lat="46.00627499651025" lon="9.318118370405532"><ele>1110.5</ele><time>2026-05-02T10:28:10.969Z</time></trkpt><trkpt lat="46.00627663859119" lon="9.318306490581508"><ele>1109.75</ele><time>2026-05-02T10:28:11.969Z</time></trkpt><trkpt lat="46.00627963661682" lon="9.318490671076777"><ele>1109.0</ele><time>2026-05-02T10:28:12.969Z</time></trkpt><trkpt lat="46.006242917384185" lon="9.318684664744795"><ele>1109.0</ele><time>2026-05-02T10:28:13.969Z</time></trkpt><trkpt lat="46.006209466058046" lon="9.318892467541406"><ele>1109.0</ele><time>2026-05-02T10:28:14.969Z</time></trkpt><trkpt lat="46.006209078589755" lon="9.319084305831165"><ele>1109.0</ele><time>2026-05-02T10:28:15.969Z</time></trkpt><trkpt lat="46.00620990760192" lon="9.319278412442047"><ele>1109.0</ele><time>2026-05-02T10:28:16.969Z</time></trkpt><trkpt lat="46.00620697226831" lon="9.319470986539228"><ele>1112.4</ele><time>2026-05-02T10:28:17.97Z</time></trkpt><trkpt lat="46.00616055268149" lon="9.3196310041281"><ele>1115.8000000000002</ele><time>2026-05-02T10:28:18.97Z</time></trkpt><trkpt lat="46.00611069813119" lon="9.319749565396878"><ele>1119.1999999999998</ele><time>2026-05-02T10:28:19.97Z</time></trkpt><trkpt lat="46.00604237881099" lon="9.319840644547869"><ele>1122.6</ele><time>2026-05-02T10:28:20.97Z</time></trkpt><trkpt lat="46.0059538307939" lon="9.319937669674912"><ele>1126.0</ele><time>2026-05-02T10:28:21.97Z</time></trkpt><trkpt lat="46.005853799282775" lon="9.320067855261986"><ele>1122.0</ele><time>2026-05-02T10:28:22.97Z</time></trkpt><trkpt lat="46.00578211060951" lon="9.320193952633597"><ele>1118.0</ele><time>2026-05-02T10:28:23.97Z</time></trkpt><trkpt lat="46.00569043050871" lon="9.32031274365292"><ele>1114.0</ele><time>2026-05-02T10:28:24.97Z</time></trkpt><trkpt lat="46.00555516949733" lon="9.320330384963203"><ele>1110.0</ele><time>2026-05-02T10:28:25.97Z</time></trkpt><trkpt lat="46.00548524480071" lon="9.320401752746104"><ele>1110.0</ele><time>2026-05-02T10:28:26.97Z</time></trkpt><trkpt lat="46.005416412382274" lon="9.320482665351697"><ele>1110.0</ele><time>2026-05-02T10:28:27.97Z</time></trkpt><trkpt lat="46.00538526321489" lon="9.320632843719078"><ele>1110.0</ele><time>2026-05-02T10:28:28.97Z</time></trkpt><trkpt lat="46.00535853674962" lon="9.320714909194038"><ele>1110.0</ele><time>2026-05-02T10:28:29.97Z</time></trkpt><trkpt lat="46.00530721250439" lon="9.320773331816202"><ele>1110.0</ele><time>2026-05-02T10:28:30.97Z</time></trkpt><trkpt lat="46.00526375213463" lon="9.320846204366985"><ele>1110.0</ele><time>2026-05-02T10:28:31.97Z</time></trkpt><trkpt lat="46.00519849304789" lon="9.321007858142414"><ele>1112.4</ele><time>2026-05-02T10:28:33.97Z</time></trkpt><trkpt lat="46.005197075840606" lon="9.321136080478226"><ele>1114.8</ele><time>2026-05-02T10:28:34.97Z</time></trkpt><trkpt lat="46.00522642815417" lon="9.321261991092916"><ele>1117.2</ele><time>2026-05-02T10:28:35.97Z</time></trkpt><trkpt lat="46.00527277822441" lon="9.321406086267867"><ele>1119.6</ele><time>2026-05-02T10:28:36.97Z</time></trkpt><trkpt lat="46.00532985884953" lon="9.32153439531048"><ele>1122.0</ele><time>2026-05-02T10:28:37.97Z</time></trkpt><trkpt lat="46.00539716597355" lon="9.321685741304053"><ele>1121.75</ele><time>2026-05-02T10:28:38.97Z</time></trkpt><trkpt lat="46.005460477151786" lon="9.321845181797915"><ele>1121.5</ele><time>2026-05-02T10:28:39.97Z</time></trkpt><trkpt lat="46.00550621929643" lon="9.322004137435968"><ele>1121.25</ele><time>2026-05-02T10:28:40.97Z</time></trkpt><trkpt lat="46.005542928864394" lon="9.322152220522982"><ele>1121.0</ele><time>2026-05-02T10:28:41.97Z</time></trkpt><trkpt lat="46.0055863005266" lon="9.322285552414408"><ele>1121.0</ele><time>2026-05-02T10:28:42.97Z</time></trkpt><trkpt lat="46.00563327108981" lon="9.322398884847725"><ele>1121.0</ele><time>2026-05-02T10:28:43.97Z</time></trkpt><trkpt lat="46.00571770640249" lon="9.322460260032788"><ele>1121.0</ele><time>2026-05-02T10:28:44.97Z</time></trkpt><trkpt lat="46.00579995705046" lon="9.322535431004415"><ele>1121.0</ele><time>2026-05-02T10:28:45.97Z</time></trkpt><trkpt lat="46.005885467553284" lon="9.322580997826298"><ele>1121.0</ele><time>2026-05-02T10:28:46.97Z</time></trkpt><trkpt lat="46.00596672578153" lon="9.322594622781585"><ele>1128.6</ele><time>2026-05-02T10:28:47.97Z</time></trkpt><trkpt lat="46.00605574360897" lon="9.322577853663438"><ele>1136.1999999999998</ele><time>2026-05-02T10:28:48.97Z</time></trkpt><trkpt lat="46.006146795515875" lon="9.322530046737683"><ele>1143.8000000000002</ele><time>2026-05-02T10:28:49.97Z</time></trkpt><trkpt lat="46.006239200706716" lon="9.322445042541856"><ele>1151.4</ele><time>2026-05-02T10:28:50.97Z</time></trkpt><trkpt lat="46.00633369025111" lon="9.322388442176234"><ele>1159.0</ele><time>2026-05-02T10:28:51.97Z</time></trkpt><trkpt lat="46.00644404545658" lon="9.322332299865112"><ele>1159.0</ele><time>2026-05-02T10:28:52.97Z</time></trkpt><trkpt lat="46.006544728695225" lon="9.322327681654635"><ele>1159.0</ele><time>2026-05-02T10:28:53.97Z</time></trkpt><trkpt lat="46.006655386654465" lon="9.322357835398677"><ele>1159.0</ele><time>2026-05-02T10:28:54.97Z</time></trkpt><trkpt lat="46.00676097987279" lon="9.322404066385813"><ele>1159.0</ele><time>2026-05-02T10:28:55.97Z</time></trkpt><trkpt lat="46.006872742731915" lon="9.322468089410604"><ele>1159.0</ele><time>2026-05-02T10:28:56.97Z</time></trkpt><trkpt lat="46.00697528845524" lon="9.322543374133312"><ele>1160.2</ele><time>2026-05-02T10:28:57.97Z</time></trkpt><trkpt lat="46.0070784838496" lon="9.32264257543163"><ele>1161.4</ele><time>2026-05-02T10:28:58.97Z</time></trkpt><trkpt lat="46.00716513244175" lon="9.322751363601132"><ele>1162.6</ele><time>2026-05-02T10:28:59.97Z</time></trkpt><trkpt lat="46.007241513327436" lon="9.32285754888639"><ele>1163.8</ele><time>2026-05-02T10:29:00.97Z</time></trkpt><trkpt lat="46.007314295480626" lon="9.322959059230449"><ele>1165.0</ele><time>2026-05-02T10:29:01.97Z</time></trkpt><trkpt lat="46.00738225386926" lon="9.323057553886326"><ele>1165.4</ele><time>2026-05-02T10:29:02.97Z</time></trkpt><trkpt lat="46.007444087193534" lon="9.323160511921408"><ele>1165.8</ele><time>2026-05-02T10:29:03.97Z</time></trkpt><trkpt lat="46.00749831785724" lon="9.323280034715376"><ele>1166.2</ele><time>2026-05-02T10:29:04.97Z</time></trkpt><trkpt lat="46.007543104560135" lon="9.323424382225962"><ele>1166.6</ele><time>2026-05-02T10:29:05.97Z</time></trkpt><trkpt lat="46.00758198123831" lon="9.32358467917787"><ele>1167.0</ele><time>2026-05-02T10:29:06.97Z</time></trkpt><trkpt lat="46.00763001600156" lon="9.3237475704635"><ele>1167.0</ele><time>2026-05-02T10:29:07.97Z</time></trkpt><trkpt lat="46.007700138406626" lon="9.323881242772396"><ele>1167.0</ele><time>2026-05-02T10:29:08.97Z</time></trkpt><trkpt lat="46.00775512324943" lon="9.324029594296574"><ele>1167.0</ele><time>2026-05-02T10:29:09.97Z</time></trkpt><trkpt lat="46.00784166405558" lon="9.324173940364874"><ele>1167.0</ele><time>2026-05-02T10:29:10.971Z</time></trkpt><trkpt lat="46.007942166126" lon="9.324316959321969"><ele>1163.5</ele><time>2026-05-02T10:29:11.971Z</time></trkpt><trkpt lat="46.008057863075315" lon="9.324446144033535"><ele>1160.0</ele><time>2026-05-02T10:29:12.971Z</time></trkpt><trkpt lat="46.008158494873314" lon="9.324609240901545"><ele>1156.5</ele><time>2026-05-02T10:29:13.971Z</time></trkpt><trkpt lat="46.008263019854205" lon="9.324764825306321"><ele>1153.0</ele><time>2026-05-02T10:29:14.971Z</time></trkpt><trkpt lat="46.008370441847056" lon="9.324925534752118"><ele>1153.0</ele><time>2026-05-02T10:29:15.971Z</time></trkpt><trkpt lat="46.008463011187146" lon="9.325073146970231"><ele>1153.0</ele><time>2026-05-02T10:29:16.971Z</time></trkpt><trkpt lat="46.00855986580493" lon="9.325216499929502"><ele>1153.0</ele><time>2026-05-02T10:29:17.971Z</time></trkpt><trkpt lat="46.00865070544121" lon="9.325351385852084"><ele>1153.0</ele><time>2026-05-02T10:29:18.971Z</time></trkpt><trkpt lat="46.008729740532324" lon="9.32546320406432"><ele>1153.0</ele><time>2026-05-02T10:29:19.971Z</time></trkpt><trkpt lat="46.00879378726296" lon="9.325551556013117"><ele>1153.0</ele><time>2026-05-02T10:29:20.971Z</time></trkpt><trkpt lat="46.00885081189542" lon="9.32561645678337"><ele>1153.0</ele><time>2026-05-02T10:29:21.971Z</time></trkpt><trkpt lat="46.008933226472244" lon="9.325715416546108"><ele>1153.0</ele><time>2026-05-02T10:29:23.971Z</time></trkpt><trkpt lat="46.009001375021334" lon="9.325797475210127"><ele>1153.0</ele><time>2026-05-02T10:29:25.971Z</time></trkpt><trkpt lat="46.00905897322769" lon="9.325888082307381"><ele>1153.0</ele><time>2026-05-02T10:29:27.971Z</time></trkpt><trkpt lat="46.00911652432062" lon="9.325985746399702"><ele>1152.6</ele><time>2026-05-02T10:29:29.971Z</time></trkpt><trkpt lat="46.00917859762456" lon="9.326124313584888"><ele>1152.1999999999998</ele><time>2026-05-02T10:29:31.971Z</time></trkpt><trkpt lat="46.00921102256079" lon="9.326220121980267"><ele>1151.8</ele><time>2026-05-02T10:29:32.97Z</time></trkpt><trkpt lat="46.009239554351694" lon="9.326330349736187"><ele>1151.3999999999999</ele><time>2026-05-02T10:29:33.969Z</time></trkpt><trkpt lat="46.009265332547145" lon="9.326457728317916"><ele>1151.0</ele><time>2026-05-02T10:29:34.969Z</time></trkpt><trkpt lat="46.00928629768795" lon="9.326596264639065"><ele>1151.0</ele><time>2026-05-02T10:29:35.969Z</time></trkpt><trkpt lat="46.00930973249472" lon="9.32675102307909"><ele>1151.0</ele><time>2026-05-02T10:29:36.969Z</time></trkpt><trkpt lat="46.00933386942333" lon="9.326910361751645"><ele>1151.0</ele><time>2026-05-02T10:29:37.969Z</time></trkpt><trkpt lat="46.009357125030554" lon="9.327067287072929"><ele>1151.0</ele><time>2026-05-02T10:29:38.969Z</time></trkpt><trkpt lat="46.00938149282713" lon="9.32722280953752"><ele>1151.0</ele><time>2026-05-02T10:29:39.969Z</time></trkpt><trkpt lat="46.009400216811905" lon="9.327380649892126"><ele>1149.6</ele><time>2026-05-02T10:29:40.969Z</time></trkpt><trkpt lat="46.00941986937694" lon="9.327537484256759"><ele>1148.1999999999998</ele><time>2026-05-02T10:29:41.97Z</time></trkpt><trkpt lat="46.00943971371" lon="9.327690762620227"><ele>1146.8000000000002</ele><time>2026-05-02T10:29:42.969Z</time></trkpt><trkpt lat="46.009459935384214" lon="9.327845022010475"><ele>1145.4</ele><time>2026-05-02T10:29:43.969Z</time></trkpt><trkpt lat="46.00947840007862" lon="9.327989540395828"><ele>1144.0</ele><time>2026-05-02T10:29:44.969Z</time></trkpt><trkpt lat="46.00949080376363" lon="9.328121126498452"><ele>1143.6000000000001</ele><time>2026-05-02T10:29:45.969Z</time></trkpt><trkpt lat="46.00948480835716" lon="9.328249688008219"><ele>1143.2</ele><time>2026-05-02T10:29:46.969Z</time></trkpt><trkpt lat="46.009440583277076" lon="9.328348118888034"><ele>1142.8000000000002</ele><time>2026-05-02T10:29:47.969Z</time></trkpt><trkpt lat="46.00937458572897" lon="9.328417960307934"><ele>1142.4</ele><time>2026-05-02T10:29:48.969Z</time></trkpt><trkpt lat="46.00928147004396" lon="9.328479790972166"><ele>1142.0</ele><time>2026-05-02T10:29:49.969Z</time></trkpt><trkpt lat="46.0091827914343" lon="9.328552543997375"><ele>1141.0</ele><time>2026-05-02T10:29:50.969Z</time></trkpt><trkpt lat="46.00907636430518" lon="9.328642016248532"><ele>1140.0</ele><time>2026-05-02T10:29:51.969Z</time></trkpt><trkpt lat="46.008956854997635" lon="9.3287578559201"><ele>1139.0</ele><time>2026-05-02T10:29:52.969Z</time></trkpt><trkpt lat="46.00883083156483" lon="9.328863896955758"><ele>1138.0</ele><time>2026-05-02T10:29:53.969Z</time></trkpt><trkpt lat="46.00870703304861" lon="9.328968827738468"><ele>1138.0</ele><time>2026-05-02T10:29:54.969Z</time></trkpt><trkpt lat="46.00858868601798" lon="9.329079964372346"><ele>1138.0</ele><time>2026-05-02T10:29:55.969Z</time></trkpt><trkpt lat="46.00847659521351" lon="9.329200566035496"><ele>1138.0</ele><time>2026-05-02T10:29:56.969Z</time></trkpt><trkpt lat="46.00836131401374" lon="9.329319795682801"><ele>1138.0</ele><time>2026-05-02T10:29:57.969Z</time></trkpt><trkpt lat="46.008245124304764" lon="9.32943874201475"><ele>1138.5</ele><time>2026-05-02T10:29:58.969Z</time></trkpt><trkpt lat="46.00814283810869" lon="9.329568235806457"><ele>1139.0</ele><time>2026-05-02T10:29:59.969Z</time></trkpt><trkpt lat="46.008051950621855" lon="9.329691619692028"><ele>1139.5</ele><time>2026-05-02T10:30:00.969Z</time></trkpt><trkpt lat="46.007980491586416" lon="9.329821163136945"><ele>1140.0</ele><time>2026-05-02T10:30:01.969Z</time></trkpt><trkpt lat="46.007885799565145" lon="9.329878297526477"><ele>1140.0</ele><time>2026-05-02T10:30:02.969Z</time></trkpt><trkpt lat="46.007788414163315" lon="9.329937669717207"><ele>1140.0</ele><time>2026-05-02T10:30:03.969Z</time></trkpt><trkpt lat="46.007691894769714" lon="9.330005508740193"><ele>1140.0</ele><time>2026-05-02T10:30:04.97Z</time></trkpt><trkpt lat="46.00760603337592" lon="9.330087291769274"><ele>1140.0</ele><time>2026-05-02T10:30:05.97Z</time></trkpt><trkpt lat="46.00751353672996" lon="9.330145347234513"><ele>1140.0</ele><time>2026-05-02T10:30:06.97Z</time></trkpt><trkpt lat="46.00743327763905" lon="9.330226448983739"><ele>1142.0</ele><time>2026-05-02T10:30:07.97Z</time></trkpt><trkpt lat="46.00734926135005" lon="9.330311663121446"><ele>1144.0</ele><time>2026-05-02T10:30:08.97Z</time></trkpt><trkpt lat="46.00726262682271" lon="9.330403718245387"><ele>1146.0</ele><time>2026-05-02T10:30:09.97Z</time></trkpt><trkpt lat="46.007174799643415" lon="9.330490542099353"><ele>1148.0</ele><time>2026-05-02T10:30:10.97Z</time></trkpt><trkpt lat="46.00709214550786" lon="9.330578105701784"><ele>1150.0</ele><time>2026-05-02T10:30:11.97Z</time></trkpt><trkpt lat="46.00702286754296" lon="9.3307102364089"><ele>1150.0</ele><time>2026-05-02T10:30:12.97Z</time></trkpt><trkpt lat="46.00701315820089" lon="9.330849582297262"><ele>1150.0</ele><time>2026-05-02T10:30:13.97Z</time></trkpt><trkpt lat="46.006996167838594" lon="9.330975269264503"><ele>1150.0</ele><time>2026-05-02T10:30:14.97Z</time></trkpt><trkpt lat="46.006948726526126" lon="9.331078011386944"><ele>1150.0</ele><time>2026-05-02T10:30:15.97Z</time></trkpt><trkpt lat="46.00689186663977" lon="9.331134274077458"><ele>1150.0</ele><time>2026-05-02T10:30:16.97Z</time></trkpt><trkpt lat="46.006803724228504" lon="9.331192101663099"><ele>1150.0</ele><time>2026-05-02T10:30:17.97Z</time></trkpt><trkpt lat="46.006693623972964" lon="9.331216228780653"><ele>1148.4</ele><time>2026-05-02T10:30:18.97Z</time></trkpt><trkpt lat="46.006580728054345" lon="9.331237540050898"><ele>1146.8</ele><time>2026-05-02T10:30:19.97Z</time></trkpt><trkpt lat="46.00646725776561" lon="9.331252284813782"><ele>1145.2</ele><time>2026-05-02T10:30:20.97Z</time></trkpt><trkpt lat="46.006372301854775" lon="9.331279769960467"><ele>1143.6</ele><time>2026-05-02T10:30:21.97Z</time></trkpt><trkpt lat="46.00627714441908" lon="9.331303217463685"><ele>1142.0</ele><time>2026-05-02T10:30:22.97Z</time></trkpt><trkpt lat="46.00619216326889" lon="9.331404239083104"><ele>1142.0</ele><time>2026-05-02T10:30:23.97Z</time></trkpt><trkpt lat="46.0061581039668" lon="9.331556436410112"><ele>1142.0</ele><time>2026-05-02T10:30:24.97Z</time></trkpt><trkpt lat="46.006127883623776" lon="9.331705911908971"><ele>1142.0</ele><time>2026-05-02T10:30:25.97Z</time></trkpt><trkpt lat="46.00611275353126" lon="9.331879183988365"><ele>1142.0</ele><time>2026-05-02T10:30:26.97Z</time></trkpt><trkpt lat="46.00609777857049" lon="9.332056437005523"><ele>1143.5</ele><time>2026-05-02T10:30:27.97Z</time></trkpt><trkpt lat="46.006084573201996" lon="9.332238309977"><ele>1145.0</ele><time>2026-05-02T10:30:28.97Z</time></trkpt><trkpt lat="46.00606128911132" lon="9.332433035939495"><ele>1146.5</ele><time>2026-05-02T10:30:29.97Z</time></trkpt><trkpt lat="46.00602815039016" lon="9.332634294194325"><ele>1148.0</ele><time>2026-05-02T10:30:30.97Z</time></trkpt><trkpt lat="46.00598040585432" lon="9.332824864588355"><ele>1148.0</ele><time>2026-05-02T10:30:31.97Z</time></trkpt><trkpt lat="46.00590888736373" lon="9.333021156434647"><ele>1148.0</ele><time>2026-05-02T10:30:32.97Z</time></trkpt><trkpt lat="46.00585331552839" lon="9.333204090925896"><ele>1148.0</ele><time>2026-05-02T10:30:33.97Z</time></trkpt><trkpt lat="46.005805461367444" lon="9.333394074294208"><ele>1148.0</ele><time>2026-05-02T10:30:34.971Z</time></trkpt><trkpt lat="46.00575270198435" lon="9.333576032051779"><ele>1148.5</ele><time>2026-05-02T10:30:35.971Z</time></trkpt><trkpt lat="46.00569400722161" lon="9.333761244170624"><ele>1149.0</ele><time>2026-05-02T10:30:36.971Z</time></trkpt><trkpt lat="46.00562691266203" lon="9.33393802526993"><ele>1149.5</ele><time>2026-05-02T10:30:37.971Z</time></trkpt><trkpt lat="46.00555410942851" lon="9.334106416947114"><ele>1150.0</ele><time>2026-05-02T10:30:38.971Z</time></trkpt><trkpt lat="46.005490554403146" lon="9.334254488257558"><ele>1150.0</ele><time>2026-05-02T10:30:39.971Z</time></trkpt><trkpt lat="46.005434236869974" lon="9.334384915192048"><ele>1150.0</ele><time>2026-05-02T10:30:40.971Z</time></trkpt><trkpt lat="46.00539764771509" lon="9.334504421402025"><ele>1150.0</ele><time>2026-05-02T10:30:41.971Z</time></trkpt><trkpt lat="46.005330159997136" lon="9.334582825674584"><ele>1150.0</ele><time>2026-05-02T10:30:42.971Z</time></trkpt><trkpt lat="46.00525206903237" lon="9.334641617624058"><ele>1150.0</ele><time>2026-05-02T10:30:43.971Z</time></trkpt><trkpt lat="46.0051544496355" lon="9.334667526462807"><ele>1150.0</ele><time>2026-05-02T10:30:44.972Z</time></trkpt><trkpt lat="46.005053713503486" lon="9.334719504307754"><ele>1150.0</ele><time>2026-05-02T10:30:45.972Z</time></trkpt><trkpt lat="46.00495179327325" lon="9.334754494132296"><ele>1150.0</ele><time>2026-05-02T10:30:46.972Z</time></trkpt><trkpt lat="46.00485289711544" lon="9.334792205693656"><ele>1150.0</ele><time>2026-05-02T10:30:47.972Z</time></trkpt><trkpt lat="46.004762655113794" lon="9.334767031626683"><ele>1150.0</ele><time>2026-05-02T10:30:48.972Z</time></trkpt><trkpt lat="46.004679971070004" lon="9.3347438906114"><ele>1151.5</ele><time>2026-05-02T10:30:49.972Z</time></trkpt><trkpt lat="46.004613191038956" lon="9.334731666027082"><ele>1153.0</ele><time>2026-05-02T10:30:50.972Z</time></trkpt><trkpt lat="46.00453676060696" lon="9.334725052823833"><ele>1154.5</ele><time>2026-05-02T10:30:51.972Z</time></trkpt><trkpt lat="46.00445584562367" lon="9.334747719430613"><ele>1156.0</ele><time>2026-05-02T10:30:52.972Z</time></trkpt><trkpt lat="46.00436533511859" lon="9.334828873053954"><ele>1157.5</ele><time>2026-05-02T10:30:53.972Z</time></trkpt><trkpt lat="46.0043168279747" lon="9.334935354143418"><ele>1159.0</ele><time>2026-05-02T10:30:54.972Z</time></trkpt><trkpt lat="46.004252438064185" lon="9.335046037924913"><ele>1159.0</ele><time>2026-05-02T10:30:55.972Z</time></trkpt><trkpt lat="46.004183294989566" lon="9.335183917306589"><ele>1159.0</ele><time>2026-05-02T10:30:56.972Z</time></trkpt><trkpt lat="46.004120115210696" lon="9.335340496486438"><ele>1159.0</ele><time>2026-05-02T10:30:57.972Z</time></trkpt><trkpt lat="46.0040692577173" lon="9.335505843875767"><ele>1159.0</ele><time>2026-05-02T10:30:58.972Z</time></trkpt><trkpt lat="46.004024946585254" lon="9.33568987898572"><ele>1153.0</ele><time>2026-05-02T10:30:59.972Z</time></trkpt><trkpt lat="46.003979657823585" lon="9.335884382126995"><ele>1147.0</ele><time>2026-05-02T10:31:00.972Z</time></trkpt><trkpt lat="46.003956184164615" lon="9.336083860874114"><ele>1141.0</ele><time>2026-05-02T10:31:01.972Z</time></trkpt><trkpt lat="46.003925129161644" lon="9.3362816396569"><ele>1135.0</ele><time>2026-05-02T10:31:02.972Z</time></trkpt><trkpt lat="46.00390803258099" lon="9.336475263040969"><ele>1135.0</ele><time>2026-05-02T10:31:03.973Z</time></trkpt><trkpt lat="46.00388293718716" lon="9.33665833677684"><ele>1135.0</ele><time>2026-05-02T10:31:04.973Z</time></trkpt><trkpt lat="46.00384209860906" lon="9.336826237951115"><ele>1135.0</ele><time>2026-05-02T10:31:05.973Z</time></trkpt><trkpt lat="46.00378377363587" lon="9.337006898543601"><ele>1135.0</ele><time>2026-05-02T10:31:06.973Z</time></trkpt><trkpt lat="46.0037300431837" lon="9.337165809928464"><ele>1136.5</ele><time>2026-05-02T10:31:07.973Z</time></trkpt><trkpt lat="46.00368872549032" lon="9.33730570136345"><ele>1138.0</ele><time>2026-05-02T10:31:08.973Z</time></trkpt><trkpt lat="46.003658523449026" lon="9.337465105278437"><ele>1139.5</ele><time>2026-05-02T10:31:09.973Z</time></trkpt><trkpt lat="46.00363660669414" lon="9.33765152257134"><ele>1141.0</ele><time>2026-05-02T10:31:10.973Z</time></trkpt><trkpt lat="46.003632859064055" lon="9.337827064325367"><ele>1141.0</ele><time>2026-05-02T10:31:11.973Z</time></trkpt><trkpt lat="46.00363857861656" lon="9.337970490264965"><ele>1141.0</ele><time>2026-05-02T10:31:12.973Z</time></trkpt><trkpt lat="46.003669015214236" lon="9.338107881099"><ele>1141.0</ele><time>2026-05-02T10:31:13.973Z</time></trkpt><trkpt lat="46.00371057647089" lon="9.338246455866217"><ele>1141.0</ele><time>2026-05-02T10:31:14.973Z</time></trkpt><trkpt lat="46.00377623781663" lon="9.33838922522784"><ele>1141.0</ele><time>2026-05-02T10:31:15.973Z</time></trkpt><trkpt lat="46.00383577546435" lon="9.338576898168299"><ele>1140.0</ele><time>2026-05-02T10:31:16.973Z</time></trkpt><trkpt lat="46.00385211260667" lon="9.33876039534091"><ele>1139.0</ele><time>2026-05-02T10:31:17.973Z</time></trkpt><trkpt lat="46.003873126689626" lon="9.338940334721114"><ele>1138.0</ele><time>2026-05-02T10:31:18.973Z</time></trkpt><trkpt lat="46.003915034341595" lon="9.33908634257039"><ele>1137.0</ele><time>2026-05-02T10:31:19.973Z</time></trkpt><trkpt lat="46.003967936894334" lon="9.339220844956555"><ele>1136.0</ele><time>2026-05-02T10:31:20.973Z</time></trkpt><trkpt lat="46.004015448599596" lon="9.339347959157548"><ele>1135.0</ele><time>2026-05-02T10:31:21.973Z</time></trkpt><trkpt lat="46.00406313159963" lon="9.33947803626709"><ele>1134.0</ele><time>2026-05-02T10:31:22.973Z</time></trkpt><trkpt lat="46.00408894429261" lon="9.339600301530464"><ele>1133.0</ele><time>2026-05-02T10:31:23.973Z</time></trkpt><trkpt lat="46.004098241947084" lon="9.339710944642633"><ele>1132.0</ele><time>2026-05-02T10:31:24.973Z</time></trkpt><trkpt lat="46.004059180387735" lon="9.339825464853154"><ele>1132.0</ele><time>2026-05-02T10:31:25.973Z</time></trkpt><trkpt lat="46.003993232740044" lon="9.339881233697856"><ele>1132.0</ele><time>2026-05-02T10:31:26.973Z</time></trkpt><trkpt lat="46.0039023800722" lon="9.339907227119078"><ele>1132.0</ele><time>2026-05-02T10:31:27.973Z</time></trkpt><trkpt lat="46.00381982604535" lon="9.339924375170375"><ele>1132.0</ele><time>2026-05-02T10:31:28.973Z</time></trkpt><trkpt lat="46.00375317482291" lon="9.339976625449726"><ele>1132.0</ele><time>2026-05-02T10:31:29.973Z</time></trkpt><trkpt lat="46.003699785042116" lon="9.340076311729245"><ele>1132.0</ele><time>2026-05-02T10:31:30.973Z</time></trkpt><trkpt lat="46.00365033379346" lon="9.340216375949746"><ele>1132.0</ele><time>2026-05-02T10:31:31.973Z</time></trkpt><trkpt lat="46.00361961716623" lon="9.340356670873678"><ele>1132.0</ele><time>2026-05-02T10:31:32.973Z</time></trkpt><trkpt lat="46.003576677168674" lon="9.340507417426133"><ele>1132.0</ele><time>2026-05-02T10:31:33.973Z</time></trkpt><trkpt lat="46.00353223098525" lon="9.340667973920926"><ele>1132.0</ele><time>2026-05-02T10:31:34.973Z</time></trkpt><trkpt lat="46.00346832974231" lon="9.340837451881985"><ele>1133.25</ele><time>2026-05-02T10:31:35.973Z</time></trkpt><trkpt lat="46.00338515747877" lon="9.340991002974333"><ele>1134.5</ele><time>2026-05-02T10:31:36.973Z</time></trkpt><trkpt lat="46.00331271714479" lon="9.341154767056537"><ele>1135.75</ele><time>2026-05-02T10:31:37.973Z</time></trkpt><trkpt lat="46.0032686919537" lon="9.341310886316156"><ele>1137.0</ele><time>2026-05-02T10:31:38.973Z</time></trkpt><trkpt lat="46.003232985263566" lon="9.341445045606156"><ele>1137.0</ele><time>2026-05-02T10:31:39.972Z</time></trkpt><trkpt lat="46.0032140793894" lon="9.341556420530262"><ele>1137.0</ele><time>2026-05-02T10:31:40.972Z</time></trkpt><trkpt lat="46.00321201315371" lon="9.341650047882275"><ele>1137.0</ele><time>2026-05-02T10:31:41.972Z</time></trkpt><trkpt lat="46.00326526331887" lon="9.341757870726017"><ele>1137.0</ele><time>2026-05-02T10:31:42.973Z</time></trkpt><trkpt lat="46.00334037620641" lon="9.341841733643914"><ele>1137.0</ele><time>2026-05-02T10:31:43.973Z</time></trkpt><trkpt lat="46.00340816124934" lon="9.341900872688575"><ele>1137.0</ele><time>2026-05-02T10:31:44.972Z</time></trkpt><trkpt lat="46.00344340595987" lon="9.341982756156945"><ele>1137.0</ele><time>2026-05-02T10:31:45.973Z</time></trkpt><trkpt lat="46.00337842399987" lon="9.342137923286662"><ele>1137.0</ele><time>2026-05-02T10:31:47.972Z</time></trkpt><trkpt lat="46.0032830846079" lon="9.34218346278873"><ele>1137.0</ele><time>2026-05-02T10:31:48.973Z</time></trkpt><trkpt lat="46.00318115291885" lon="9.342221695886842"><ele>1137.0</ele><time>2026-05-02T10:31:49.973Z</time></trkpt><trkpt lat="46.00306916054495" lon="9.34225339847521"><ele>1137.0</ele><time>2026-05-02T10:31:50.972Z</time></trkpt><trkpt lat="46.00294804628778" lon="9.342261464265869"><ele>1137.0</ele><time>2026-05-02T10:31:51.972Z</time></trkpt><trkpt lat="46.002823020429744" lon="9.342260437532715"><ele>1137.0</ele><time>2026-05-02T10:31:52.972Z</time></trkpt><trkpt lat="46.002712795332016" lon="9.342219855118847"><ele>1137.0</ele><time>2026-05-02T10:31:53.972Z</time></trkpt><trkpt lat="46.002605852474446" lon="9.34214997248831"><ele>1137.0</ele><time>2026-05-02T10:31:54.972Z</time></trkpt><trkpt lat="46.002499559349445" lon="9.342060588075666"><ele>1140.75</ele><time>2026-05-02T10:31:55.972Z</time></trkpt><trkpt lat="46.00238968158537" lon="9.341948733217931"><ele>1144.5</ele><time>2026-05-02T10:31:56.972Z</time></trkpt><trkpt lat="46.00226978804565" lon="9.341838724741951"><ele>1148.25</ele><time>2026-05-02T10:31:57.972Z</time></trkpt><trkpt lat="46.002146542894316" lon="9.341724414083078"><ele>1152.0</ele><time>2026-05-02T10:31:58.973Z</time></trkpt><trkpt lat="46.00202199307786" lon="9.341608516276636"><ele>1152.0</ele><time>2026-05-02T10:31:59.973Z</time></trkpt><trkpt lat="46.00190879354275" lon="9.341500283758075"><ele>1152.0</ele><time>2026-05-02T10:32:00.973Z</time></trkpt><trkpt lat="46.00179516572314" lon="9.341395952125508"><ele>1152.0</ele><time>2026-05-02T10:32:01.973Z</time></trkpt><trkpt lat="46.001686243307496" lon="9.341290338269616"><ele>1152.0</ele><time>2026-05-02T10:32:02.973Z</time></trkpt><trkpt lat="46.00158703224288" lon="9.341195674037719"><ele>1145.2</ele><time>2026-05-02T10:32:03.973Z</time></trkpt><trkpt lat="46.00149528864394" lon="9.341126422622336"><ele>1138.4</ele><time>2026-05-02T10:32:04.973Z</time></trkpt><trkpt lat="46.00139936486486" lon="9.34107634305869"><ele>1131.6</ele><time>2026-05-02T10:32:05.973Z</time></trkpt><trkpt lat="46.00129512826071" lon="9.34105000823218"><ele>1124.8</ele><time>2026-05-02T10:32:06.973Z</time></trkpt><trkpt lat="46.00116918511995" lon="9.341047647125848"><ele>1118.0</ele><time>2026-05-02T10:32:07.973Z</time></trkpt><trkpt lat="46.001031509970545" lon="9.340996196235034"><ele>1118.0</ele><time>2026-05-02T10:32:08.973Z</time></trkpt><trkpt lat="46.00088187028033" lon="9.34096711649301"><ele>1118.0</ele><time>2026-05-02T10:32:09.973Z</time></trkpt><trkpt lat="46.00073652077484" lon="9.340939400209628"><ele>1118.0</ele><time>2026-05-02T10:32:10.973Z</time></trkpt><trkpt lat="46.00059471858468" lon="9.340916183067051"><ele>1118.0</ele><time>2026-05-02T10:32:11.973Z</time></trkpt><trkpt lat="46.000451213379854" lon="9.340885436393418"><ele>1118.5</ele><time>2026-05-02T10:32:12.973Z</time></trkpt><trkpt lat="46.00031210657836" lon="9.340838514812425"><ele>1119.0</ele><time>2026-05-02T10:32:13.973Z</time></trkpt><trkpt lat="46.00017767506621" lon="9.340785371077809"><ele>1119.5</ele><time>2026-05-02T10:32:14.973Z</time></trkpt><trkpt lat="46.00006584151815" lon="9.340716152402281"><ele>1120.0</ele><time>2026-05-02T10:32:15.973Z</time></trkpt><trkpt lat="45.99996236407137" lon="9.340650777365333"><ele>1120.0</ele><time>2026-05-02T10:32:16.973Z</time></trkpt><trkpt lat="45.99987425507966" lon="9.34062396748832"><ele>1120.0</ele><time>2026-05-02T10:32:17.973Z</time></trkpt><trkpt lat="45.9997848508543" lon="9.34062384972178"><ele>1120.0</ele><time>2026-05-02T10:32:18.973Z</time></trkpt><trkpt lat="45.99969290741093" lon="9.340657104134483"><ele>1120.0</ele><time>2026-05-02T10:32:19.973Z</time></trkpt><trkpt lat="45.999604078909414" lon="9.340725436649683"><ele>1120.0</ele><time>2026-05-02T10:32:20.973Z</time></trkpt><trkpt lat="45.99951215954654" lon="9.340789150839646"><ele>1120.0</ele><time>2026-05-02T10:32:21.973Z</time></trkpt><trkpt lat="45.99941513128757" lon="9.340889117464279"><ele>1120.0</ele><time>2026-05-02T10:32:22.973Z</time></trkpt><trkpt lat="45.999328266993345" lon="9.3410124721734"><ele>1120.0</ele><time>2026-05-02T10:32:23.973Z</time></trkpt><trkpt lat="45.999240875413996" lon="9.341150515434416"><ele>1120.0</ele><time>2026-05-02T10:32:24.973Z</time></trkpt><trkpt lat="45.99915264051063" lon="9.3412856515211"><ele>1119.75</ele><time>2026-05-02T10:32:25.973Z</time></trkpt><trkpt lat="45.99906614250827" lon="9.341421170166074"><ele>1119.5</ele><time>2026-05-02T10:32:26.973Z</time></trkpt><trkpt lat="45.998952467129186" lon="9.341489418245109"><ele>1119.25</ele><time>2026-05-02T10:32:27.973Z</time></trkpt><trkpt lat="45.99885366856669" lon="9.341577460197428"><ele>1119.0</ele><time>2026-05-02T10:32:28.973Z</time></trkpt><trkpt lat="45.998765198073684" lon="9.341682169718538"><ele>1119.0</ele><time>2026-05-02T10:32:29.973Z</time></trkpt><trkpt lat="45.99867754264893" lon="9.34177019632002"><ele>1119.0</ele><time>2026-05-02T10:32:30.973Z</time></trkpt><trkpt lat="45.99859686369057" lon="9.341878285898215"><ele>1119.0</ele><time>2026-05-02T10:32:31.973Z</time></trkpt><trkpt lat="45.99852006134838" lon="9.34198956789307"><ele>1119.0</ele><time>2026-05-02T10:32:32.973Z</time></trkpt><trkpt lat="45.998450911269636" lon="9.342107660851832"><ele>1119.0</ele><time>2026-05-02T10:32:33.973Z</time></trkpt><trkpt lat="45.998384270570206" lon="9.34223648575242"><ele>1115.6000000000001</ele><time>2026-05-02T10:32:34.973Z</time></trkpt><trkpt lat="45.998297249149594" lon="9.342340256767967"><ele>1112.2</ele><time>2026-05-02T10:32:35.973Z</time></trkpt><trkpt lat="45.99822192721989" lon="9.342460006305846"><ele>1108.8000000000002</ele><time>2026-05-02T10:32:36.973Z</time></trkpt><trkpt lat="45.99815377720529" lon="9.342590848958748"><ele>1105.4</ele><time>2026-05-02T10:32:37.973Z</time></trkpt><trkpt lat="45.99808763911458" lon="9.342702492992817"><ele>1102.0</ele><time>2026-05-02T10:32:38.973Z</time></trkpt><trkpt lat="45.99800571429371" lon="9.3427696555115"><ele>1102.0</ele><time>2026-05-02T10:32:39.973Z</time></trkpt><trkpt lat="45.997919920655704" lon="9.342769974221563"><ele>1102.0</ele><time>2026-05-02T10:32:40.973Z</time></trkpt><trkpt lat="45.99783075517404" lon="9.342784901121991"><ele>1102.0</ele><time>2026-05-02T10:32:41.973Z</time></trkpt><trkpt lat="45.99775122856226" lon="9.342821791163978"><ele>1102.0</ele><time>2026-05-02T10:32:42.973Z</time></trkpt><trkpt lat="45.997683322507505" lon="9.342887677456515"><ele>1102.0</ele><time>2026-05-02T10:32:43.973Z</time></trkpt><trkpt lat="45.997625404710774" lon="9.342961883762754"><ele>1102.0</ele><time>2026-05-02T10:32:44.973Z</time></trkpt><trkpt lat="45.99756710075091" lon="9.343049657155301"><ele>1104.3333333333333</ele><time>2026-05-02T10:32:45.973Z</time></trkpt><trkpt lat="45.99751466957939" lon="9.343138047385391"><ele>1106.6666666666665</ele><time>2026-05-02T10:32:46.973Z</time></trkpt><trkpt lat="45.99746547584146" lon="9.343240782220585"><ele>1109.0</ele><time>2026-05-02T10:32:47.973Z</time></trkpt><trkpt lat="45.99743835040917" lon="9.343352269623207"><ele>1111.3333333333333</ele><time>2026-05-02T10:32:48.973Z</time></trkpt><trkpt lat="45.99738417915209" lon="9.343441542059175"><ele>1113.6666666666667</ele><time>2026-05-02T10:32:49.974Z</time></trkpt><trkpt lat="45.99733651665227" lon="9.343547723767923"><ele>1116.0</ele><time>2026-05-02T10:32:50.974Z</time></trkpt><trkpt lat="45.99728742677501" lon="9.343653280283394"><ele>1112.3333333333333</ele><time>2026-05-02T10:32:51.974Z</time></trkpt><trkpt lat="45.997232899925805" lon="9.343747319170237"><ele>1108.6666666666667</ele><time>2026-05-02T10:32:52.974Z</time></trkpt><trkpt lat="45.99716664909867" lon="9.343828812531365"><ele>1105.0</ele><time>2026-05-02T10:32:53.974Z</time></trkpt><trkpt lat="45.997101079181874" lon="9.343908526991108"><ele>1101.3333333333335</ele><time>2026-05-02T10:32:54.974Z</time></trkpt><trkpt lat="45.997055352469665" lon="9.34401148436974"><ele>1097.6666666666667</ele><time>2026-05-02T10:32:55.974Z</time></trkpt><trkpt lat="45.99700860521065" lon="9.344098244390326"><ele>1094.0</ele><time>2026-05-02T10:32:56.974Z</time></trkpt><trkpt lat="45.99699499896749" lon="9.344189429903519"><ele>1094.0</ele><time>2026-05-02T10:32:57.974Z</time></trkpt><trkpt lat="45.99697534767975" lon="9.344283172934134"><ele>1094.0</ele><time>2026-05-02T10:32:58.974Z</time></trkpt><trkpt lat="45.99695146104205" lon="9.344422984443355"><ele>1094.0</ele><time>2026-05-02T10:33:00.974Z</time></trkpt><trkpt lat="45.99694796192278" lon="9.344519679420221"><ele>1094.0</ele><time>2026-05-02T10:33:03.974Z</time></trkpt><trkpt lat="45.996885834614936" lon="9.344433868362545"><ele>1094.0</ele><time>2026-05-02T10:33:05.974Z</time></trkpt><trkpt lat="45.99690376300662" lon="9.344324090912172"><ele>1094.0</ele><time>2026-05-02T10:33:06.974Z</time></trkpt><trkpt lat="45.996922033560445" lon="9.344219364885616"><ele>1094.0</ele><time>2026-05-02T10:33:07.974Z</time></trkpt><trkpt lat="45.99694137686521" lon="9.3440887197916"><ele>1094.0</ele><time>2026-05-02T10:33:08.974Z</time></trkpt><trkpt lat="45.99696145415662" lon="9.34396652972604"><ele>1094.0</ele><time>2026-05-02T10:33:09.974Z</time></trkpt><trkpt lat="45.99699675907796" lon="9.343867275260124"><ele>1094.0</ele><time>2026-05-02T10:33:10.974Z</time></trkpt><trkpt lat="45.99704357637928" lon="9.343782726095677"><ele>1094.0</ele><time>2026-05-02T10:33:11.974Z</time></trkpt><trkpt lat="45.99709141423681" lon="9.343713227233403"><ele>1094.0</ele><time>2026-05-02T10:33:12.974Z</time></trkpt><trkpt lat="45.997137507977016" lon="9.343631138067233"><ele>1092.6000000000001</ele><time>2026-05-02T10:33:13.974Z</time></trkpt><trkpt lat="45.9971715319894" lon="9.343537838945709"><ele>1091.2</ele><time>2026-05-02T10:33:14.974Z</time></trkpt><trkpt lat="45.99719905091202" lon="9.34336594891167"><ele>1089.8000000000002</ele><time>2026-05-02T10:33:16.974Z</time></trkpt><trkpt lat="45.99717931273151" lon="9.343266681413368"><ele>1088.4</ele><time>2026-05-02T10:33:17.974Z</time></trkpt><trkpt lat="45.99713485401997" lon="9.343159854689102"><ele>1087.0</ele><time>2026-05-02T10:33:18.974Z</time></trkpt><trkpt lat="45.99707958503678" lon="9.343045853741929"><ele>1085.8333333333333</ele><time>2026-05-02T10:33:19.974Z</time></trkpt><trkpt lat="45.99703654950996" lon="9.342949638352609"><ele>1084.6666666666665</ele><time>2026-05-02T10:33:20.974Z</time></trkpt><trkpt lat="45.997006635948686" lon="9.34285779438701"><ele>1083.5</ele><time>2026-05-02T10:33:21.974Z</time></trkpt><trkpt lat="45.997005410104926" lon="9.34276371327115"><ele>1082.3333333333333</ele><time>2026-05-02T10:33:22.974Z</time></trkpt><trkpt lat="45.997032810369355" lon="9.342652125994785"><ele>1081.1666666666667</ele><time>2026-05-02T10:33:23.974Z</time></trkpt><trkpt lat="45.997085593270995" lon="9.342537420402984"><ele>1080.0</ele><time>2026-05-02T10:33:24.974Z</time></trkpt><trkpt lat="45.99714488565388" lon="9.342415617160889"><ele>1080.0</ele><time>2026-05-02T10:33:25.974Z</time></trkpt><trkpt lat="45.99721343070764" lon="9.342307245816285"><ele>1080.0</ele><time>2026-05-02T10:33:26.974Z</time></trkpt><trkpt lat="45.997285941929086" lon="9.34222682915109"><ele>1080.0</ele><time>2026-05-02T10:33:27.974Z</time></trkpt><trkpt lat="45.997347043226895" lon="9.342151070009018"><ele>1080.0</ele><time>2026-05-02T10:33:28.974Z</time></trkpt><trkpt lat="45.99740253884703" lon="9.34208864233215"><ele>1080.0</ele><time>2026-05-02T10:33:29.974Z</time></trkpt><trkpt lat="45.99744044391303" lon="9.341976053684245"><ele>1080.0</ele><time>2026-05-02T10:33:30.974Z</time></trkpt><trkpt lat="45.99745360117101" lon="9.341842724264103"><ele>1078.8</ele><time>2026-05-02T10:33:31.974Z</time></trkpt><trkpt lat="45.99747022298962" lon="9.341719866172244"><ele>1077.6</ele><time>2026-05-02T10:33:32.974Z</time></trkpt><trkpt lat="45.99747449200566" lon="9.341601917394032"><ele>1076.4</ele><time>2026-05-02T10:33:33.974Z</time></trkpt><trkpt lat="45.997523173921664" lon="9.341490029870277"><ele>1075.2</ele><time>2026-05-02T10:33:34.974Z</time></trkpt><trkpt lat="45.99758019201026" lon="9.341367865071701"><ele>1074.0</ele><time>2026-05-02T10:33:35.974Z</time></trkpt><trkpt lat="45.99765450976729" lon="9.341253634339274"><ele>1074.0</ele><time>2026-05-02T10:33:36.974Z</time></trkpt><trkpt lat="45.99771579586082" lon="9.341111920469578"><ele>1074.0</ele><time>2026-05-02T10:33:37.974Z</time></trkpt><trkpt lat="45.99776482848336" lon="9.340967846614268"><ele>1074.0</ele><time>2026-05-02T10:33:38.974Z</time></trkpt><trkpt lat="45.99781208775954" lon="9.340823029409227"><ele>1074.0</ele><time>2026-05-02T10:33:39.974Z</time></trkpt><trkpt lat="45.9978648594343" lon="9.34067358637001"><ele>1070.4</ele><time>2026-05-02T10:33:40.974Z</time></trkpt><trkpt lat="45.99791291802669" lon="9.340527580134191"><ele>1066.8000000000002</ele><time>2026-05-02T10:33:41.975Z</time></trkpt><trkpt lat="45.99796491507064" lon="9.340404197460721"><ele>1063.1999999999998</ele><time>2026-05-02T10:33:42.975Z</time></trkpt><trkpt lat="45.99802104545949" lon="9.340269530584107"><ele>1059.6</ele><time>2026-05-02T10:33:43.975Z</time></trkpt><trkpt lat="45.99807994983884" lon="9.340149097242818"><ele>1056.0</ele><time>2026-05-02T10:33:44.974Z</time></trkpt><trkpt lat="45.99813809778678" lon="9.340026763268572"><ele>1056.0</ele><time>2026-05-02T10:33:45.974Z</time></trkpt><trkpt lat="45.99819124657292" lon="9.339896575447849"><ele>1056.0</ele><time>2026-05-02T10:33:46.974Z</time></trkpt><trkpt lat="45.99824493384155" lon="9.339782126538193"><ele>1056.0</ele><time>2026-05-02T10:33:47.974Z</time></trkpt><trkpt lat="45.99829606178887" lon="9.339675548215476"><ele>1056.0</ele><time>2026-05-02T10:33:48.973Z</time></trkpt><trkpt lat="45.998340138110045" lon="9.339556150840396"><ele>1056.0</ele><time>2026-05-02T10:33:49.973Z</time></trkpt><trkpt lat="45.99839025518498" lon="9.339466920379456"><ele>1056.3999999999999</ele><time>2026-05-02T10:33:50.974Z</time></trkpt><trkpt lat="45.9984296381332" lon="9.33934664664244"><ele>1056.8</ele><time>2026-05-02T10:33:52.974Z</time></trkpt><trkpt lat="45.998360774588534" lon="9.339281407292017"><ele>1057.1999999999998</ele><time>2026-05-02T10:33:54.974Z</time></trkpt><trkpt lat="45.99826835195207" lon="9.339263798859822"><ele>1057.6</ele><time>2026-05-02T10:33:55.974Z</time></trkpt><trkpt lat="45.9981647864849" lon="9.33933361727577"><ele>1058.0</ele><time>2026-05-02T10:33:56.974Z</time></trkpt><trkpt lat="45.998083714446906" lon="9.339415830375641"><ele>1057.6</ele><time>2026-05-02T10:33:57.974Z</time></trkpt><trkpt lat="45.997999090232284" lon="9.339483340203115"><ele>1057.1999999999998</ele><time>2026-05-02T10:33:58.974Z</time></trkpt><trkpt lat="45.997911858467575" lon="9.339543885125835"><ele>1056.8</ele><time>2026-05-02T10:33:59.974Z</time></trkpt><trkpt lat="45.99782332757461" lon="9.33960245192071"><ele>1056.3999999999999</ele><time>2026-05-02T10:34:00.974Z</time></trkpt><trkpt lat="45.99772430438526" lon="9.33966342082674"><ele>1056.0</ele><time>2026-05-02T10:34:01.974Z</time></trkpt><trkpt lat="45.99762821983477" lon="9.339737806977887"><ele>1056.0</ele><time>2026-05-02T10:34:02.974Z</time></trkpt><trkpt lat="45.99752530206782" lon="9.339765727071914"><ele>1056.0</ele><time>2026-05-02T10:34:03.974Z</time></trkpt><trkpt lat="45.99743051966615" lon="9.339817554653349"><ele>1056.0</ele><time>2026-05-02T10:34:04.974Z</time></trkpt><trkpt lat="45.997346302458894" lon="9.339882137176588"><ele>1056.0</ele><time>2026-05-02T10:34:05.974Z</time></trkpt><trkpt lat="45.99726073866935" lon="9.33994635686156"><ele>1056.0</ele><time>2026-05-02T10:34:06.974Z</time></trkpt><trkpt lat="45.99717220341287" lon="9.340029905021868"><ele>1051.8</ele><time>2026-05-02T10:34:07.974Z</time></trkpt><trkpt lat="45.99707616369002" lon="9.340091843596852"><ele>1047.6</ele><time>2026-05-02T10:34:08.974Z</time></trkpt><trkpt lat="45.996994279554286" lon="9.340170403399364"><ele>1043.4</ele><time>2026-05-02T10:34:09.974Z</time></trkpt><trkpt lat="45.9969162615884" lon="9.340264848254936"><ele>1039.2</ele><time>2026-05-02T10:34:10.974Z</time></trkpt><trkpt lat="45.99683396600284" lon="9.340346312135738"><ele>1035.0</ele><time>2026-05-02T10:34:11.974Z</time></trkpt><trkpt lat="45.996756904529285" lon="9.340455408751057"><ele>1033.0</ele><time>2026-05-02T10:34:12.974Z</time></trkpt><trkpt lat="45.99669109824728" lon="9.340563591218421"><ele>1031.0</ele><time>2026-05-02T10:34:13.974Z</time></trkpt><trkpt lat="45.99662326706783" lon="9.34066732303337"><ele>1029.0</ele><time>2026-05-02T10:34:14.974Z</time></trkpt><trkpt lat="45.99655677953449" lon="9.340768082170143"><ele>1027.0</ele><time>2026-05-02T10:34:15.974Z</time></trkpt><trkpt lat="45.996493944674" lon="9.34086087616234"><ele>1025.0</ele><time>2026-05-02T10:34:16.974Z</time></trkpt><trkpt lat="45.99643254007501" lon="9.340937495237934"><ele>1025.0</ele><time>2026-05-02T10:34:17.974Z</time></trkpt><trkpt lat="45.99636523846598" lon="9.340990125778083"><ele>1025.0</ele><time>2026-05-02T10:34:18.974Z</time></trkpt><trkpt lat="45.99629580970066" lon="9.340994432807737"><ele>1025.0</ele><time>2026-05-02T10:34:19.974Z</time></trkpt><trkpt lat="45.9962192521991" lon="9.341012328242048"><ele>1025.0</ele><time>2026-05-02T10:34:20.974Z</time></trkpt><trkpt lat="45.99613794892772" lon="9.341045251713938"><ele>1025.0</ele><time>2026-05-02T10:34:21.974Z</time></trkpt><trkpt lat="45.99606766771753" lon="9.341116678300914"><ele>1025.0</ele><time>2026-05-02T10:34:22.974Z</time></trkpt><trkpt lat="45.99601579127179" lon="9.341231405677355"><ele>1025.0</ele><time>2026-05-02T10:34:23.974Z</time></trkpt><trkpt lat="45.99598696035179" lon="9.341359750184417"><ele>1025.0</ele><time>2026-05-02T10:34:24.974Z</time></trkpt><trkpt lat="45.99598353987729" lon="9.341510206786106"><ele>1025.0</ele><time>2026-05-02T10:34:25.974Z</time></trkpt><trkpt lat="45.995934273642966" lon="9.341662509961866"><ele>1025.0</ele><time>2026-05-02T10:34:26.974Z</time></trkpt><trkpt lat="45.995891761285336" lon="9.341830271091185"><ele>1025.0</ele><time>2026-05-02T10:34:27.974Z</time></trkpt><trkpt lat="45.99586077812406" lon="9.341978466159281"><ele>1026.8333333333335</ele><time>2026-05-02T10:34:28.974Z</time></trkpt><trkpt lat="45.99584574499409" lon="9.342106566927251"><ele>1028.6666666666667</ele><time>2026-05-02T10:34:29.974Z</time></trkpt><trkpt lat="45.99583631735298" lon="9.342231445902609"><ele>1030.5</ele><time>2026-05-02T10:34:30.974Z</time></trkpt><trkpt lat="45.995856221384805" lon="9.342335703266299"><ele>1032.3333333333333</ele><time>2026-05-02T10:34:31.974Z</time></trkpt><trkpt lat="45.99587967010785" lon="9.342439121354694"><ele>1034.1666666666665</ele><time>2026-05-02T10:34:32.974Z</time></trkpt><trkpt lat="45.99589747723407" lon="9.34255054251445"><ele>1036.0</ele><time>2026-05-02T10:34:33.974Z</time></trkpt><trkpt lat="45.995891292521854" lon="9.342655896298904"><ele>1037.0</ele><time>2026-05-02T10:34:34.974Z</time></trkpt><trkpt lat="45.99584959477384" lon="9.342741432173579"><ele>1038.0</ele><time>2026-05-02T10:34:35.974Z</time></trkpt><trkpt lat="45.99578628942765" lon="9.34280128328015"><ele>1039.0</ele><time>2026-05-02T10:34:36.974Z</time></trkpt><trkpt lat="45.99571054145371" lon="9.342847396690855"><ele>1040.0</ele><time>2026-05-02T10:34:37.974Z</time></trkpt><trkpt lat="45.995637753818585" lon="9.342861542595504"><ele>1041.0</ele><time>2026-05-02T10:34:38.974Z</time></trkpt><trkpt lat="45.995561283843344" lon="9.342852563539434"><ele>1042.0</ele><time>2026-05-02T10:34:39.974Z</time></trkpt><trkpt lat="45.99548239531265" lon="9.342810161503962"><ele>1036.2</ele><time>2026-05-02T10:34:40.974Z</time></trkpt><trkpt lat="45.995414223719735" lon="9.342763021899689"><ele>1030.4</ele><time>2026-05-02T10:34:41.974Z</time></trkpt><trkpt lat="45.99533903263438" lon="9.342700462281954"><ele>1024.6</ele><time>2026-05-02T10:34:42.974Z</time></trkpt><trkpt lat="45.995265757840926" lon="9.342624415808633"><ele>1018.8</ele><time>2026-05-02T10:34:43.974Z</time></trkpt><trkpt lat="45.995189083677516" lon="9.342531258584996"><ele>1013.0</ele><time>2026-05-02T10:34:44.975Z</time></trkpt><trkpt lat="45.99510898428915" lon="9.342443421008374"><ele>1013.0000000000001</ele><time>2026-05-02T10:34:45.975Z</time></trkpt><trkpt lat="45.9950387311717" lon="9.342377315838842"><ele>1013.0</ele><time>2026-05-02T10:34:46.975Z</time></trkpt><trkpt lat="45.994962620950766" lon="9.342338310246186"><ele>1013.0</ele><time>2026-05-02T10:34:47.975Z</time></trkpt><trkpt lat="45.994890675838604" lon="9.342313767314195"><ele>1013.0</ele><time>2026-05-02T10:34:48.975Z</time></trkpt><trkpt lat="45.99481059781361" lon="9.34230826103558"><ele>1013.0000000000001</ele><time>2026-05-02T10:34:49.975Z</time></trkpt><trkpt lat="45.99470535884852" lon="9.342300670457652"><ele>1013.0</ele><time>2026-05-02T10:34:50.975Z</time></trkpt><trkpt lat="45.9946146975211" lon="9.34225244151007"><ele>1012.1666666666667</ele><time>2026-05-02T10:34:51.975Z</time></trkpt><trkpt lat="45.99452328115189" lon="9.342237640425378"><ele>1011.3333333333334</ele><time>2026-05-02T10:34:52.975Z</time></trkpt><trkpt lat="45.9944377606872" lon="9.342263086627721"><ele>1010.5</ele><time>2026-05-02T10:34:53.975Z</time></trkpt><trkpt lat="45.99436018913259" lon="9.34229557174022"><ele>1009.6666666666667</ele><time>2026-05-02T10:34:54.975Z</time></trkpt><trkpt lat="45.99429271184187" lon="9.342313239430892"><ele>1008.8333333333334</ele><time>2026-05-02T10:34:55.975Z</time></trkpt><trkpt lat="45.99422411830975" lon="9.342294777595683"><ele>1008.0</ele><time>2026-05-02T10:34:56.975Z</time></trkpt><trkpt lat="45.994163527840435" lon="9.342239007019215"><ele>1002.8</ele><time>2026-05-02T10:34:57.975Z</time></trkpt><trkpt lat="45.99409327448819" lon="9.342156792947046"><ele>997.5999999999999</ele><time>2026-05-02T10:34:58.975Z</time></trkpt><trkpt lat="45.99403872353796" lon="9.342063237769556"><ele>992.4000000000001</ele><time>2026-05-02T10:34:59.975Z</time></trkpt><trkpt lat="45.993983596004604" lon="9.341972579431639"><ele>987.2</ele><time>2026-05-02T10:35:00.975Z</time></trkpt><trkpt lat="45.99395784106756" lon="9.34183209676087"><ele>982.0</ele><time>2026-05-02T10:35:01.975Z</time></trkpt><trkpt lat="45.99392638855256" lon="9.341692165828054"><ele>982.0</ele><time>2026-05-02T10:35:02.975Z</time></trkpt><trkpt lat="45.99388022729623" lon="9.341562457526926"><ele>982.0</ele><time>2026-05-02T10:35:03.975Z</time></trkpt><trkpt lat="45.99383036057256" lon="9.341441003060964"><ele>982.0</ele><time>2026-05-02T10:35:04.975Z</time></trkpt><trkpt lat="45.99378974977921" lon="9.341314999043638"><ele>982.0</ele><time>2026-05-02T10:35:05.975Z</time></trkpt><trkpt lat="45.993741331716706" lon="9.341209129371313"><ele>982.0</ele><time>2026-05-02T10:35:06.975Z</time></trkpt><trkpt lat="45.993691932701914" lon="9.341122031958829"><ele>979.6666666666666</ele><time>2026-05-02T10:35:07.975Z</time></trkpt><trkpt lat="45.993627544350566" lon="9.341051070256373"><ele>977.3333333333333</ele><time>2026-05-02T10:35:08.975Z</time></trkpt><trkpt lat="45.993547044465764" lon="9.341053832029814"><ele>975.0</ele><time>2026-05-02T10:35:09.975Z</time></trkpt><trkpt lat="45.993474416682936" lon="9.341083045467883"><ele>972.6666666666667</ele><time>2026-05-02T10:35:10.975Z</time></trkpt><trkpt lat="45.993409417352424" lon="9.341147415148784"><ele>970.3333333333334</ele><time>2026-05-02T10:35:11.975Z</time></trkpt><trkpt lat="45.99335487931149" lon="9.341213151129114"><ele>968.0</ele><time>2026-05-02T10:35:12.975Z</time></trkpt><trkpt lat="45.99329833507133" lon="9.341274331339585"><ele>968.0000000000001</ele><time>2026-05-02T10:35:13.975Z</time></trkpt><trkpt lat="45.99322497883556" lon="9.341370313498567"><ele>968.0</ele><time>2026-05-02T10:35:15.975Z</time></trkpt><trkpt lat="45.99315580938703" lon="9.341367488908203"><ele>968.0</ele><time>2026-05-02T10:35:18.975Z</time></trkpt><trkpt lat="45.99315732850622" lon="9.341262378928722"><ele>968.0</ele><time>2026-05-02T10:35:20.975Z</time></trkpt><trkpt lat="45.99324218677288" lon="9.341170295761355"><ele>968.0000000000001</ele><time>2026-05-02T10:35:21.975Z</time></trkpt><trkpt lat="45.99329507659552" lon="9.341094818267523"><ele>968.0</ele><time>2026-05-02T10:35:22.975Z</time></trkpt><trkpt lat="45.99336028827943" lon="9.341009932866251"><ele>966.5999999999999</ele><time>2026-05-02T10:35:23.975Z</time></trkpt><trkpt lat="45.99343955137246" lon="9.340931926399229"><ele>965.1999999999999</ele><time>2026-05-02T10:35:24.975Z</time></trkpt><trkpt lat="45.99351806838701" lon="9.340866671521544"><ele>963.8</ele><time>2026-05-02T10:35:25.975Z</time></trkpt><trkpt lat="45.993593637013724" lon="9.340806615847669"><ele>962.4</ele><time>2026-05-02T10:35:26.975Z</time></trkpt><trkpt lat="45.99365848275026" lon="9.340753231010453"><ele>961.0</ele><time>2026-05-02T10:35:27.975Z</time></trkpt><trkpt lat="45.99373204347281" lon="9.340624560387896"><ele>962.4</ele><time>2026-05-02T10:35:29.975Z</time></trkpt><trkpt lat="45.9936985048357" lon="9.340446862325027"><ele>963.8</ele><time>2026-05-02T10:35:31.975Z</time></trkpt><trkpt lat="45.99361558034794" lon="9.340448084549566"><ele>965.1999999999999</ele><time>2026-05-02T10:35:32.975Z</time></trkpt><trkpt lat="45.993526882032235" lon="9.340455933280968"><ele>966.5999999999999</ele><time>2026-05-02T10:35:33.975Z</time></trkpt><trkpt lat="45.993431098933435" lon="9.340509742897444"><ele>968.0</ele><time>2026-05-02T10:35:34.975Z</time></trkpt><trkpt lat="45.993329995033974" lon="9.340581640075433"><ele>968.0</ele><time>2026-05-02T10:35:35.975Z</time></trkpt><trkpt lat="45.99321653963772" lon="9.340660864125065"><ele>968.0</ele><time>2026-05-02T10:35:36.976Z</time></trkpt><trkpt lat="45.99310805001455" lon="9.340732998525251"><ele>968.0</ele><time>2026-05-02T10:35:37.976Z</time></trkpt><trkpt lat="45.99300758658094" lon="9.340803373818826"><ele>968.0</ele><time>2026-05-02T10:35:38.976Z</time></trkpt><trkpt lat="45.99290961549787" lon="9.34086904687993"><ele>968.0</ele><time>2026-05-02T10:35:39.976Z</time></trkpt><trkpt lat="45.99282562816114" lon="9.340934445750149"><ele>968.0</ele><time>2026-05-02T10:35:40.976Z</time></trkpt><trkpt lat="45.99271836881633" lon="9.340971550205488"><ele>968.0</ele><time>2026-05-02T10:35:41.976Z</time></trkpt><trkpt lat="45.992610030851566" lon="9.341011239626395"><ele>968.0</ele><time>2026-05-02T10:35:42.976Z</time></trkpt><trkpt lat="45.992502993018554" lon="9.341035631569316"><ele>968.0</ele><time>2026-05-02T10:35:43.976Z</time></trkpt><trkpt lat="45.9924172810066" lon="9.34106762591855"><ele>965.2</ele><time>2026-05-02T10:35:44.976Z</time></trkpt><trkpt lat="45.99234868783359" lon="9.34109907825928"><ele>962.4</ele><time>2026-05-02T10:35:45.976Z</time></trkpt><trkpt lat="45.9922396880356" lon="9.34114862863935"><ele>959.6000000000001</ele><time>2026-05-02T10:35:47.976Z</time></trkpt><trkpt lat="45.99218537177293" lon="9.341023314036354"><ele>956.8000000000001</ele><time>2026-05-02T10:35:49.976Z</time></trkpt><trkpt lat="45.99225824787042" lon="9.340878881541542"><ele>954.0</ele><time>2026-05-02T10:35:51.975Z</time></trkpt><trkpt lat="45.992316102633275" lon="9.340797192265567"><ele>954.0</ele><time>2026-05-02T10:35:52.975Z</time></trkpt><trkpt lat="45.99239232024495" lon="9.340702438955473"><ele>954.0</ele><time>2026-05-02T10:35:53.975Z</time></trkpt><trkpt lat="45.992489430268506" lon="9.340617928700754"><ele>954.0</ele><time>2026-05-02T10:35:54.975Z</time></trkpt><trkpt lat="45.99258705720084" lon="9.340504667887384"><ele>954.0</ele><time>2026-05-02T10:35:55.976Z</time></trkpt><trkpt lat="45.992679544197294" lon="9.340396722714246"><ele>953.6</ele><time>2026-05-02T10:35:56.975Z</time></trkpt><trkpt lat="45.992767864820514" lon="9.340289926379382"><ele>953.2</ele><time>2026-05-02T10:35:57.975Z</time></trkpt><trkpt lat="45.99284988631636" lon="9.340171724262529"><ele>952.8000000000001</ele><time>2026-05-02T10:35:58.975Z</time></trkpt><trkpt lat="45.99292255286512" lon="9.340060435268605"><ele>952.4000000000001</ele><time>2026-05-02T10:35:59.975Z</time></trkpt><trkpt lat="45.99298040318993" lon="9.33996316458009"><ele>952.0</ele><time>2026-05-02T10:36:00.975Z</time></trkpt><trkpt lat="45.99303286893988" lon="9.339870235427561"><ele>952.0</ele><time>2026-05-02T10:36:01.975Z</time></trkpt><trkpt lat="45.99308259177965" lon="9.339783155719005"><ele>952.0</ele><time>2026-05-02T10:36:02.975Z</time></trkpt><trkpt lat="45.9931157308251" lon="9.33969995181231"><ele>952.0</ele><time>2026-05-02T10:36:03.975Z</time></trkpt><trkpt lat="45.993099833040404" lon="9.33956283216113"><ele>952.0</ele><time>2026-05-02T10:36:05.975Z</time></trkpt><trkpt lat="45.992976716031336" lon="9.339489723750372"><ele>952.0</ele><time>2026-05-02T10:36:07.975Z</time></trkpt><trkpt lat="45.99288242567074" lon="9.339520866889853"><ele>952.0</ele><time>2026-05-02T10:36:08.975Z</time></trkpt><trkpt lat="45.99278734925691" lon="9.339577087071701"><ele>952.0</ele><time>2026-05-02T10:36:09.976Z</time></trkpt><trkpt lat="45.99269131851381" lon="9.33965119043983"><ele>952.0</ele><time>2026-05-02T10:36:10.976Z</time></trkpt><trkpt lat="45.99260488976938" lon="9.33972131400481"><ele>952.0</ele><time>2026-05-02T10:36:11.976Z</time></trkpt><trkpt lat="45.99253058491126" lon="9.33978999312322"><ele>952.0</ele><time>2026-05-02T10:36:12.976Z</time></trkpt><trkpt lat="45.99247086711091" lon="9.33984196582681"><ele>949.6</ele><time>2026-05-02T10:36:13.976Z</time></trkpt><trkpt lat="45.99238050170269" lon="9.33990027800597"><ele>947.2</ele><time>2026-05-02T10:36:15.976Z</time></trkpt><trkpt lat="45.99233120321939" lon="9.33982196658023"><ele>944.8</ele><time>2026-05-02T10:36:18.976Z</time></trkpt><trkpt lat="45.99235922377244" lon="9.339711854181143"><ele>942.4</ele><time>2026-05-02T10:36:19.976Z</time></trkpt><trkpt lat="45.99241709868113" lon="9.339610421924952"><ele>940.0</ele><time>2026-05-02T10:36:20.976Z</time></trkpt><trkpt lat="45.99248759436415" lon="9.339494318250926"><ele>939.5</ele><time>2026-05-02T10:36:21.976Z</time></trkpt><trkpt lat="45.992571399808114" lon="9.339372164460398"><ele>939.0</ele><time>2026-05-02T10:36:22.976Z</time></trkpt><trkpt lat="45.9926662867348" lon="9.339247199617354"><ele>938.5</ele><time>2026-05-02T10:36:23.976Z</time></trkpt><trkpt lat="45.992761930286974" lon="9.33912469824222"><ele>938.0</ele><time>2026-05-02T10:36:24.976Z</time></trkpt><trkpt lat="45.9928512389664" lon="9.339006324975614"><ele>938.0</ele><time>2026-05-02T10:36:25.976Z</time></trkpt><trkpt lat="45.99293542094103" lon="9.338901951854904"><ele>938.0</ele><time>2026-05-02T10:36:26.976Z</time></trkpt><trkpt lat="45.993013098351234" lon="9.33880624025475"><ele>938.0</ele><time>2026-05-02T10:36:27.976Z</time></trkpt><trkpt lat="45.993093481735144" lon="9.338727506848963"><ele>938.0</ele><time>2026-05-02T10:36:28.976Z</time></trkpt><trkpt lat="45.99317546449669" lon="9.338671662555797"><ele>938.0</ele><time>2026-05-02T10:36:29.976Z</time></trkpt><trkpt lat="45.99325828173304" lon="9.338638296270684"><ele>933.4</ele><time>2026-05-02T10:36:30.976Z</time></trkpt><trkpt lat="45.99334443604823" lon="9.338636701068248"><ele>928.8</ele><time>2026-05-02T10:36:31.976Z</time></trkpt><trkpt lat="45.99342926349103" lon="9.338662221640211"><ele>924.2</ele><time>2026-05-02T10:36:32.976Z</time></trkpt><trkpt lat="45.99352097868396" lon="9.338692190996094"><ele>919.6</ele><time>2026-05-02T10:36:33.976Z</time></trkpt><trkpt lat="45.993624805850864" lon="9.338710649808776"><ele>915.0</ele><time>2026-05-02T10:36:34.976Z</time></trkpt><trkpt lat="45.99374530211418" lon="9.338726296687543"><ele>915.0</ele><time>2026-05-02T10:36:35.976Z</time></trkpt><trkpt lat="45.99386341381529" lon="9.338758214933769"><ele>915.0</ele><time>2026-05-02T10:36:36.976Z</time></trkpt><trkpt lat="45.993978609318134" lon="9.338752232309004"><ele>915.0</ele><time>2026-05-02T10:36:37.976Z</time></trkpt><trkpt lat="45.99408436353758" lon="9.33873803016287"><ele>915.0</ele><time>2026-05-02T10:36:38.976Z</time></trkpt><trkpt lat="45.99417535265724" lon="9.338728508825138"><ele>915.0</ele><time>2026-05-02T10:36:39.976Z</time></trkpt><trkpt lat="45.994252652228255" lon="9.338717555802061"><ele>916.5</ele><time>2026-05-02T10:36:40.976Z</time></trkpt><trkpt lat="45.994324082148815" lon="9.338702290805722"><ele>918.0</ele><time>2026-05-02T10:36:41.976Z</time></trkpt><trkpt lat="45.99438042027919" lon="9.338643402061546"><ele>919.5</ele><time>2026-05-02T10:36:42.976Z</time></trkpt><trkpt lat="45.994412279913874" lon="9.338517905831543"><ele>921.0</ele><time>2026-05-02T10:36:43.976Z</time></trkpt><trkpt lat="45.9943995382132" lon="9.338387048041813"><ele>922.5</ele><time>2026-05-02T10:36:44.976Z</time></trkpt><trkpt lat="45.99436773313049" lon="9.33825835323886"><ele>924.0</ele><time>2026-05-02T10:36:45.976Z</time></trkpt><trkpt lat="45.99434744005293" lon="9.338142471123119"><ele>921.6</ele><time>2026-05-02T10:36:46.976Z</time></trkpt><trkpt lat="45.99434088230105" lon="9.337962952867084"><ele>919.2</ele><time>2026-05-02T10:36:48.976Z</time></trkpt><trkpt lat="45.99438487800453" lon="9.337873212318103"><ele>916.8000000000001</ele><time>2026-05-02T10:36:49.976Z</time></trkpt><trkpt lat="45.9944482351138" lon="9.337780637174493"><ele>914.4000000000001</ele><time>2026-05-02T10:36:50.976Z</time></trkpt><trkpt lat="45.99452198252134" lon="9.337704769614563"><ele>912.0</ele><time>2026-05-02T10:36:51.976Z</time></trkpt><trkpt lat="45.994598667015545" lon="9.33764272336051"><ele>912.0</ele><time>2026-05-02T10:36:52.976Z</time></trkpt><trkpt lat="45.99466985985752" lon="9.337605064169457"><ele>911.9999999999999</ele><time>2026-05-02T10:36:53.976Z</time></trkpt><trkpt lat="45.99474556559524" lon="9.337601306029212"><ele>912.0</ele><time>2026-05-02T10:36:54.976Z</time></trkpt><trkpt lat="45.994821361463885" lon="9.337597165309978"><ele>912.0</ele><time>2026-05-02T10:36:55.976Z</time></trkpt><trkpt lat="45.99488989991928" lon="9.337567828044357"><ele>911.9999999999999</ele><time>2026-05-02T10:36:56.976Z</time></trkpt><trkpt lat="45.99496383444639" lon="9.337562428573667"><ele>912.0</ele><time>2026-05-02T10:36:57.976Z</time></trkpt><trkpt lat="45.99502363797112" lon="9.337503415656737"><ele>912.0</ele><time>2026-05-02T10:36:58.976Z</time></trkpt><trkpt lat="45.995059442541184" lon="9.337415519578013"><ele>912.0</ele><time>2026-05-02T10:36:59.976Z</time></trkpt><trkpt lat="45.99504226997866" lon="9.337276917642642"><ele>912.0</ele><time>2026-05-02T10:37:00.976Z</time></trkpt><trkpt lat="45.99496293604382" lon="9.337222900213044"><ele>912.0</ele><time>2026-05-02T10:37:01.977Z</time></trkpt><trkpt lat="45.99489663418817" lon="9.337137968035806"><ele>912.0</ele><time>2026-05-02T10:37:02.977Z</time></trkpt><trkpt lat="45.9948208425455" lon="9.337057933187278"><ele>912.0</ele><time>2026-05-02T10:37:03.977Z</time></trkpt><trkpt lat="45.99473365796827" lon="9.336969971579597"><ele>909.4000000000001</ele><time>2026-05-02T10:37:04.977Z</time></trkpt><trkpt lat="45.99463542965692" lon="9.336903801624953"><ele>906.8000000000001</ele><time>2026-05-02T10:37:05.977Z</time></trkpt><trkpt lat="45.994531560121665" lon="9.336849712800507"><ele>904.2</ele><time>2026-05-02T10:37:06.977Z</time></trkpt><trkpt lat="45.994424707880725" lon="9.336805798612506"><ele>901.6</ele><time>2026-05-02T10:37:07.977Z</time></trkpt><trkpt lat="45.99432118289338" lon="9.33677145353806"><ele>899.0</ele><time>2026-05-02T10:37:08.977Z</time></trkpt><trkpt lat="45.994223559374795" lon="9.336754074834996"><ele>897.8333333333334</ele><time>2026-05-02T10:37:09.977Z</time></trkpt><trkpt lat="45.994139445698416" lon="9.336747403351156"><ele>896.6666666666667</ele><time>2026-05-02T10:37:10.977Z</time></trkpt><trkpt lat="45.994058080406155" lon="9.336752568599248"><ele>895.5</ele><time>2026-05-02T10:37:11.977Z</time></trkpt><trkpt lat="45.99398291149281" lon="9.336774925912481"><ele>894.3333333333333</ele><time>2026-05-02T10:37:12.977Z</time></trkpt><trkpt lat="45.99389814833765" lon="9.336791264839324"><ele>893.1666666666666</ele><time>2026-05-02T10:37:14.977Z</time></trkpt><trkpt lat="45.99385307337027" lon="9.336671349678639"><ele>892.0</ele><time>2026-05-02T10:37:17.977Z</time></trkpt><trkpt lat="45.993908829766056" lon="9.336598707963516"><ele>892.0</ele><time>2026-05-02T10:37:18.977Z</time></trkpt><trkpt lat="45.99397721971563" lon="9.336543145786898"><ele>892.0</ele><time>2026-05-02T10:37:19.977Z</time></trkpt><trkpt lat="45.99405625625807" lon="9.336470063726777"><ele>892.0</ele><time>2026-05-02T10:37:20.977Z</time></trkpt><trkpt lat="45.99414956096644" lon="9.336407449041717"><ele>892.0</ele><time>2026-05-02T10:37:21.977Z</time></trkpt><trkpt lat="45.99424743499288" lon="9.336343919522847"><ele>892.0</ele><time>2026-05-02T10:37:22.977Z</time></trkpt><trkpt lat="45.994346780999464" lon="9.336272357224356"><ele>890.4999999999999</ele><time>2026-05-02T10:37:23.977Z</time></trkpt><trkpt lat="45.99444520709514" lon="9.33622025030834"><ele>889.0</ele><time>2026-05-02T10:37:24.977Z</time></trkpt><trkpt lat="45.99453593838374" lon="9.336170391046995"><ele>887.5</ele><time>2026-05-02T10:37:25.977Z</time></trkpt><trkpt lat="45.99462355602447" lon="9.33612265837546"><ele>886.0</ele><time>2026-05-02T10:37:26.977Z</time></trkpt><trkpt lat="45.99470159875712" lon="9.336082860688819"><ele>884.4999999999999</ele><time>2026-05-02T10:37:27.977Z</time></trkpt><trkpt lat="45.99476269249968" lon="9.336059732740226"><ele>883.0</ele><time>2026-05-02T10:37:28.977Z</time></trkpt><trkpt lat="45.99487068694956" lon="9.336031707655028"><ele>883.0</ele><time>2026-05-02T10:37:30.977Z</time></trkpt><trkpt lat="45.99499749051595" lon="9.336042118482057"><ele>883.0</ele><time>2026-05-02T10:37:32.977Z</time></trkpt><trkpt lat="45.99506953465174" lon="9.336060208973253"><ele>883.0</ele><time>2026-05-02T10:37:33.977Z</time></trkpt><trkpt lat="45.99518181945068" lon="9.336051175978602"><ele>883.0</ele><time>2026-05-02T10:37:35.977Z</time></trkpt><trkpt lat="45.995247133316994" lon="9.335944006747086"><ele>883.0</ele><time>2026-05-02T10:37:37.977Z</time></trkpt><trkpt lat="45.99523535000862" lon="9.335813696112801"><ele>882.8</ele><time>2026-05-02T10:37:38.977Z</time></trkpt><trkpt lat="45.995191807062284" lon="9.335683572359384"><ele>882.5999999999999</ele><time>2026-05-02T10:37:39.977Z</time></trkpt><trkpt lat="45.9951435759715" lon="9.335558538428232"><ele>882.4000000000001</ele><time>2026-05-02T10:37:40.977Z</time></trkpt><trkpt lat="45.995097657766706" lon="9.33542190129989"><ele>882.2</ele><time>2026-05-02T10:37:41.977Z</time></trkpt><trkpt lat="45.995054950002114" lon="9.335280008246356"><ele>882.0</ele><time>2026-05-02T10:37:42.977Z</time></trkpt><trkpt lat="45.9950170713566" lon="9.335140965470046"><ele>880.2</ele><time>2026-05-02T10:37:43.977Z</time></trkpt><trkpt lat="45.99498190046862" lon="9.334996863271357"><ele>878.4000000000001</ele><time>2026-05-02T10:37:44.977Z</time></trkpt><trkpt lat="45.994950071796325" lon="9.334848935164763"><ele>876.5999999999999</ele><time>2026-05-02T10:37:45.977Z</time></trkpt><trkpt lat="45.99492217579894" lon="9.334704470305361"><ele>874.8</ele><time>2026-05-02T10:37:46.977Z</time></trkpt><trkpt lat="45.99489694378586" lon="9.334551199093772"><ele>873.0</ele><time>2026-05-02T10:37:47.977Z</time></trkpt><trkpt lat="45.99489092262938" lon="9.334392696218337"><ele>871.5</ele><time>2026-05-02T10:37:48.977Z</time></trkpt><trkpt lat="45.994874180105064" lon="9.334235065029862"><ele>870.0</ele><time>2026-05-02T10:37:49.977Z</time></trkpt><trkpt lat="45.99484407540121" lon="9.334066366999581"><ele>868.5</ele><time>2026-05-02T10:37:50.977Z</time></trkpt><trkpt lat="45.994805679403036" lon="9.333893658008321"><ele>867.0</ele><time>2026-05-02T10:37:51.977Z</time></trkpt><trkpt lat="45.99476369380469" lon="9.3337229674915"><ele>865.6666666666667</ele><time>2026-05-02T10:37:52.977Z</time></trkpt><trkpt lat="45.994721512173705" lon="9.333555725463379"><ele>864.3333333333334</ele><time>2026-05-02T10:37:53.978Z</time></trkpt><trkpt lat="45.99467386937271" lon="9.333393845871333"><ele>863.0</ele><time>2026-05-02T10:37:54.978Z</time></trkpt><trkpt lat="45.99456264996037" lon="9.333138020803265"><ele>861.8333333333334</ele><time>2026-05-02T10:37:56.977Z</time></trkpt><trkpt lat="45.99451420580274" lon="9.33301616916078"><ele>860.6666666666667</ele><time>2026-05-02T10:37:57.976Z</time></trkpt><trkpt lat="45.99445297830041" lon="9.332930457546306"><ele>859.5</ele><time>2026-05-02T10:37:58.976Z</time></trkpt><trkpt lat="45.99439387295284" lon="9.332852168248259"><ele>858.3333333333333</ele><time>2026-05-02T10:37:59.976Z</time></trkpt><trkpt lat="45.99432600646845" lon="9.332802499575603"><ele>857.1666666666666</ele><time>2026-05-02T10:38:00.977Z</time></trkpt><trkpt lat="45.99426249624077" lon="9.332779738995038"><ele>856.0</ele><time>2026-05-02T10:38:01.977Z</time></trkpt><trkpt lat="45.9941993627448" lon="9.332789180331654"><ele>856.1999999999999</ele><time>2026-05-02T10:38:02.977Z</time></trkpt><trkpt lat="45.99412034096671" lon="9.332841785913455"><ele>856.3999999999999</ele><time>2026-05-02T10:38:03.976Z</time></trkpt><trkpt lat="45.99403876811882" lon="9.332919566766273"><ele>856.6</ele><time>2026-05-02T10:38:04.976Z</time></trkpt><trkpt lat="45.993949534626786" lon="9.333004304949231"><ele>856.8</ele><time>2026-05-02T10:38:05.977Z</time></trkpt><trkpt lat="45.993863911357046" lon="9.333084133516587"><ele>857.0</ele><time>2026-05-02T10:38:06.977Z</time></trkpt><trkpt lat="45.99378332109939" lon="9.33315123026055"><ele>857.0</ele><time>2026-05-02T10:38:07.977Z</time></trkpt><trkpt lat="45.99370748591633" lon="9.333212261283188"><ele>857.0</ele><time>2026-05-02T10:38:08.977Z</time></trkpt><trkpt lat="45.993647454286766" lon="9.333254881058805"><ele>857.0</ele><time>2026-05-02T10:38:09.977Z</time></trkpt><trkpt lat="45.99354295351454" lon="9.333274394782212"><ele>857.0</ele><time>2026-05-02T10:38:11.977Z</time></trkpt><trkpt lat="45.99348585142386" lon="9.333172900766439"><ele>857.0</ele><time>2026-05-02T10:38:13.977Z</time></trkpt><trkpt lat="45.99351929178329" lon="9.333008098055723"><ele>855.8333333333334</ele><time>2026-05-02T10:38:15.977Z</time></trkpt><trkpt lat="45.99354271440861" lon="9.332899450387204"><ele>854.6666666666667</ele><time>2026-05-02T10:38:16.977Z</time></trkpt><trkpt lat="45.993563378077425" lon="9.332772514353984"><ele>853.5</ele><time>2026-05-02T10:38:17.977Z</time></trkpt><trkpt lat="45.99358984747112" lon="9.332653444511841"><ele>852.3333333333333</ele><time>2026-05-02T10:38:18.977Z</time></trkpt><trkpt lat="45.99361055075579" lon="9.332525677725478"><ele>851.1666666666666</ele><time>2026-05-02T10:38:19.977Z</time></trkpt><trkpt lat="45.99362622853631" lon="9.332390029197677"><ele>850.0</ele><time>2026-05-02T10:38:20.977Z</time></trkpt><trkpt lat="45.99366546367138" lon="9.332148122729603"><ele>850.0</ele><time>2026-05-02T10:38:22.977Z</time></trkpt><trkpt lat="45.99367941649564" lon="9.331947565445265"><ele>850.0</ele><time>2026-05-02T10:38:24.977Z</time></trkpt><trkpt lat="45.99368252613898" lon="9.33181972256813"><ele>850.0</ele><time>2026-05-02T10:38:26.977Z</time></trkpt><trkpt lat="45.99370771823725" lon="9.331627577482163"><ele>850.0</ele><time>2026-05-02T10:38:28.977Z</time></trkpt><trkpt lat="45.99370863303945" lon="9.3315048942438"><ele>850.2</ele><time>2026-05-02T10:38:29.977Z</time></trkpt><trkpt lat="45.993700704428626" lon="9.33137491664588"><ele>850.4</ele><time>2026-05-02T10:38:30.977Z</time></trkpt><trkpt lat="45.993686084653696" lon="9.331245637210225"><ele>850.5999999999999</ele><time>2026-05-02T10:38:31.977Z</time></trkpt><trkpt lat="45.99366381926435" lon="9.331109564016659"><ele>850.8</ele><time>2026-05-02T10:38:32.977Z</time></trkpt><trkpt lat="45.99363296876357" lon="9.330974956814476"><ele>851.0</ele><time>2026-05-02T10:38:33.977Z</time></trkpt><trkpt lat="45.99359521240614" lon="9.330841002231084"><ele>851.0</ele><time>2026-05-02T10:38:34.977Z</time></trkpt><trkpt lat="45.99354933067392" lon="9.330712534367015"><ele>851.0</ele><time>2026-05-02T10:38:35.977Z</time></trkpt><trkpt lat="45.993499118472116" lon="9.330599961020553"><ele>851.0</ele><time>2026-05-02T10:38:36.977Z</time></trkpt><trkpt lat="45.993430448749294" lon="9.330503121168302"><ele>851.0</ele><time>2026-05-02T10:38:37.977Z</time></trkpt><trkpt lat="45.9933861489581" lon="9.330381757974314"><ele>851.0</ele><time>2026-05-02T10:38:38.977Z</time></trkpt><trkpt lat="45.99331636765289" lon="9.330292869307762"><ele>848.0</ele><time>2026-05-02T10:38:39.977Z</time></trkpt><trkpt lat="45.993262004711426" lon="9.330194330148853"><ele>845.0</ele><time>2026-05-02T10:38:40.977Z</time></trkpt><trkpt lat="45.99320138791872" lon="9.330089019941564"><ele>842.0</ele><time>2026-05-02T10:38:41.977Z</time></trkpt><trkpt lat="45.99313576781065" lon="9.329980621790641"><ele>839.0</ele><time>2026-05-02T10:38:42.977Z</time></trkpt><trkpt lat="45.993078830074566" lon="9.329871605466462"><ele>836.0</ele><time>2026-05-02T10:38:43.977Z</time></trkpt><trkpt lat="45.9930277745931" lon="9.329766362587437"><ele>837.4</ele><time>2026-05-02T10:38:44.977Z</time></trkpt><trkpt lat="45.99298095822037" lon="9.329662534816958"><ele>838.8</ele><time>2026-05-02T10:38:45.977Z</time></trkpt><trkpt lat="45.99294269790369" lon="9.329543052583384"><ele>840.1999999999999</ele><time>2026-05-02T10:38:46.977Z</time></trkpt><trkpt lat="45.99290352831035" lon="9.329402861667194"><ele>841.5999999999999</ele><time>2026-05-02T10:38:47.977Z</time></trkpt><trkpt lat="45.99287527496037" lon="9.329241726899749"><ele>843.0</ele><time>2026-05-02T10:38:48.977Z</time></trkpt><trkpt lat="45.992840825416934" lon="9.329080460034577"><ele>843.0</ele><time>2026-05-02T10:38:49.977Z</time></trkpt><trkpt lat="45.99281655938703" lon="9.328911400209256"><ele>843.0</ele><time>2026-05-02T10:38:50.977Z</time></trkpt><trkpt lat="45.99280139055967" lon="9.32875039615673"><ele>843.0</ele><time>2026-05-02T10:38:51.977Z</time></trkpt><trkpt lat="45.99278312428823" lon="9.328587253637528"><ele>843.0</ele><time>2026-05-02T10:38:52.977Z</time></trkpt><trkpt lat="45.99278182972715" lon="9.328430630279641"><ele>842.8</ele><time>2026-05-02T10:38:53.977Z</time></trkpt><trkpt lat="45.992784386108" lon="9.328286078002577"><ele>842.5999999999999</ele><time>2026-05-02T10:38:54.977Z</time></trkpt><trkpt lat="45.99280827545449" lon="9.328147565643272"><ele>842.4000000000001</ele><time>2026-05-02T10:38:55.977Z</time></trkpt><trkpt lat="45.99284141759106" lon="9.32800498294703"><ele>842.2</ele><time>2026-05-02T10:38:56.977Z</time></trkpt><trkpt lat="45.99288283616377" lon="9.32785782412404"><ele>842.0</ele><time>2026-05-02T10:38:57.977Z</time></trkpt><trkpt lat="45.992929800383905" lon="9.327699623445897"><ele>842.0</ele><time>2026-05-02T10:38:58.978Z</time></trkpt><trkpt lat="45.99297042043195" lon="9.327529675603824"><ele>842.0</ele><time>2026-05-02T10:38:59.978Z</time></trkpt><trkpt lat="45.99300645833533" lon="9.327371967917353"><ele>842.0</ele><time>2026-05-02T10:39:00.978Z</time></trkpt><trkpt lat="45.99304332837205" lon="9.327222542884316"><ele>842.0</ele><time>2026-05-02T10:39:01.978Z</time></trkpt><trkpt lat="45.99308095261213" lon="9.32707628752945"><ele>838.6</ele><time>2026-05-02T10:39:02.978Z</time></trkpt><trkpt lat="45.993121088032076" lon="9.326931261524294"><ele>835.2</ele><time>2026-05-02T10:39:03.978Z</time></trkpt><trkpt lat="45.99316623386361" lon="9.326786895551468"><ele>831.8</ele><time>2026-05-02T10:39:04.978Z</time></trkpt><trkpt lat="45.9932144748983" lon="9.32665232516525"><ele>828.4</ele><time>2026-05-02T10:39:05.978Z</time></trkpt><trkpt lat="45.99326718203191" lon="9.32652868525739"><ele>825.0</ele><time>2026-05-02T10:39:06.978Z</time></trkpt><trkpt lat="45.993329592039615" lon="9.32640522980564"><ele>827.0</ele><time>2026-05-02T10:39:07.978Z</time></trkpt><trkpt lat="45.993410456081655" lon="9.326291774717616"><ele>829.0</ele><time>2026-05-02T10:39:08.978Z</time></trkpt><trkpt lat="45.99350475944288" lon="9.32616833634677"><ele>831.0</ele><time>2026-05-02T10:39:09.978Z</time></trkpt><trkpt lat="45.99360146051456" lon="9.326060247228185"><ele>833.0</ele><time>2026-05-02T10:39:10.978Z</time></trkpt><trkpt lat="45.99369093685679" lon="9.325943873097687"><ele>833.0</ele><time>2026-05-02T10:39:11.978Z</time></trkpt><trkpt lat="45.99377691115004" lon="9.325829409111392"><ele>833.0</ele><time>2026-05-02T10:39:12.978Z</time></trkpt><trkpt lat="45.99384420348466" lon="9.325697113209502"><ele>833.0</ele><time>2026-05-02T10:39:13.978Z</time></trkpt><trkpt lat="45.993884327327905" lon="9.325547611344904"><ele>833.0</ele><time>2026-05-02T10:39:14.978Z</time></trkpt><trkpt lat="45.993920322898504" lon="9.325393757109756"><ele>829.2</ele><time>2026-05-02T10:39:15.978Z</time></trkpt><trkpt lat="45.993939641884346" lon="9.325234911854311"><ele>825.4</ele><time>2026-05-02T10:39:16.978Z</time></trkpt><trkpt lat="45.99396202437557" lon="9.325085267125399"><ele>821.6</ele><time>2026-05-02T10:39:17.978Z</time></trkpt><trkpt lat="45.993984954559124" lon="9.324943463867548"><ele>817.8000000000001</ele><time>2026-05-02T10:39:18.978Z</time></trkpt><trkpt lat="45.994014337709565" lon="9.324802308681484"><ele>814.0</ele><time>2026-05-02T10:39:19.978Z</time></trkpt><trkpt lat="45.9940970973039" lon="9.324686196885002"><ele>804.4000000000001</ele><time>2026-05-02T10:39:20.978Z</time></trkpt><trkpt lat="45.99418947001291" lon="9.324606290452314"><ele>794.8</ele><time>2026-05-02T10:39:21.978Z</time></trkpt><trkpt lat="45.99427423714299" lon="9.324530787196462"><ele>785.2</ele><time>2026-05-02T10:39:22.978Z</time></trkpt><trkpt lat="45.99435843446327" lon="9.324469626497761"><ele>775.5999999999999</ele><time>2026-05-02T10:39:23.978Z</time></trkpt><trkpt lat="45.994454010148985" lon="9.324425646840163"><ele>766.0</ele><time>2026-05-02T10:39:24.978Z</time></trkpt><trkpt lat="45.99455466991667" lon="9.324372306915638"><ele>766.0</ele><time>2026-05-02T10:39:25.978Z</time></trkpt><trkpt lat="45.994644361172526" lon="9.324387762837759"><ele>766.0</ele><time>2026-05-02T10:39:26.978Z</time></trkpt><trkpt lat="45.994716979542126" lon="9.324437338013562"><ele>766.0</ele><time>2026-05-02T10:39:27.978Z</time></trkpt><trkpt lat="45.994772287796806" lon="9.324511094109512"><ele>766.0</ele><time>2026-05-02T10:39:28.978Z</time></trkpt><trkpt lat="45.994821112479556" lon="9.324612708473554"><ele>766.0</ele><time>2026-05-02T10:39:29.978Z</time></trkpt><trkpt lat="45.99486029960253" lon="9.324737505144835"><ele>766.0</ele><time>2026-05-02T10:39:30.978Z</time></trkpt><trkpt lat="45.9948944597734" lon="9.324861215079409"><ele>771.0</ele><time>2026-05-02T10:39:31.978Z</time></trkpt><trkpt lat="45.99492560453709" lon="9.324982503287076"><ele>776.0</ele><time>2026-05-02T10:39:32.978Z</time></trkpt><trkpt lat="45.99491196642893" lon="9.325095298989929"><ele>781.0</ele><time>2026-05-02T10:39:33.978Z</time></trkpt><trkpt lat="45.99491329379119" lon="9.325222581297647"><ele>786.0</ele><time>2026-05-02T10:39:34.978Z</time></trkpt><trkpt lat="45.9948951640311" lon="9.325346316219722"><ele>790.9999999999999</ele><time>2026-05-02T10:39:35.978Z</time></trkpt><trkpt lat="45.994883494479375" lon="9.325474423490384"><ele>796.0</ele><time>2026-05-02T10:39:36.978Z</time></trkpt><trkpt lat="45.99490368833235" lon="9.325607680170437"><ele>800.75</ele><time>2026-05-02T10:39:37.978Z</time></trkpt><trkpt lat="45.994938372919314" lon="9.325770787173758"><ele>805.5</ele><time>2026-05-02T10:39:38.978Z</time></trkpt><trkpt lat="45.99501664061105" lon="9.325903186586737"><ele>810.25</ele><time>2026-05-02T10:39:39.978Z</time></trkpt><trkpt lat="45.99508825842926" lon="9.326027474829827"><ele>815.0</ele><time>2026-05-02T10:39:40.978Z</time></trkpt><trkpt lat="45.99517114362204" lon="9.326159697746828"><ele>805.75</ele><time>2026-05-02T10:39:41.978Z</time></trkpt><trkpt lat="45.995267739524074" lon="9.326274091089543"><ele>796.5</ele><time>2026-05-02T10:39:42.978Z</time></trkpt><trkpt lat="45.995366520622575" lon="9.326375069391712"><ele>787.25</ele><time>2026-05-02T10:39:43.978Z</time></trkpt><trkpt lat="45.995443025722885" lon="9.32651413936762"><ele>778.0</ele><time>2026-05-02T10:39:44.978Z</time></trkpt><trkpt lat="45.995528250226364" lon="9.326641467455973"><ele>778.0</ele><time>2026-05-02T10:39:45.978Z</time></trkpt><trkpt lat="45.99562032573716" lon="9.326746867599246"><ele>778.0</ele><time>2026-05-02T10:39:46.978Z</time></trkpt><trkpt lat="45.99569918378793" lon="9.326831945717535"><ele>778.0</ele><time>2026-05-02T10:39:47.978Z</time></trkpt><trkpt lat="45.99575778240798" lon="9.326919928181812"><ele>778.0</ele><time>2026-05-02T10:39:48.978Z</time></trkpt><trkpt lat="45.9958125315606" lon="9.32702421561955"><ele>778.0</ele><time>2026-05-02T10:39:49.978Z</time></trkpt><trkpt lat="45.99584479653789" lon="9.327132706740462"><ele>780.5999999999999</ele><time>2026-05-02T10:39:50.979Z</time></trkpt><trkpt lat="45.9958439746621" lon="9.32724601650248"><ele>783.1999999999999</ele><time>2026-05-02T10:39:51.979Z</time></trkpt><trkpt lat="45.99580675045565" lon="9.327354366168912"><ele>785.8</ele><time>2026-05-02T10:39:52.979Z</time></trkpt><trkpt lat="45.99575694949464" lon="9.327474322596151"><ele>788.4</ele><time>2026-05-02T10:39:53.979Z</time></trkpt><trkpt lat="45.995709192662076" lon="9.327598182774983"><ele>791.0</ele><time>2026-05-02T10:39:54.979Z</time></trkpt><trkpt lat="45.99565899407831" lon="9.327732678004796"><ele>791.0</ele><time>2026-05-02T10:39:55.979Z</time></trkpt><trkpt lat="45.995609958442934" lon="9.32787160057005"><ele>791.0</ele><time>2026-05-02T10:39:56.979Z</time></trkpt><trkpt lat="45.995578262406596" lon="9.328019761139194"><ele>791.0</ele><time>2026-05-02T10:39:57.979Z</time></trkpt><trkpt lat="45.99557150452197" lon="9.32818673607735"><ele>791.0</ele><time>2026-05-02T10:39:58.979Z</time></trkpt><trkpt lat="45.99557089778519" lon="9.328356575909194"><ele>791.0</ele><time>2026-05-02T10:39:59.979Z</time></trkpt><trkpt lat="45.995548573799724" lon="9.328522080633077"><ele>791.0</ele><time>2026-05-02T10:40:00.979Z</time></trkpt><trkpt lat="45.99554387852502" lon="9.32866877213829"><ele>791.0</ele><time>2026-05-02T10:40:01.977Z</time></trkpt><trkpt lat="45.99554010536366" lon="9.328815022985273"><ele>791.0</ele><time>2026-05-02T10:40:02.978Z</time></trkpt><trkpt lat="45.995536882176864" lon="9.328940081678951"><ele>791.0</ele><time>2026-05-02T10:40:03.978Z</time></trkpt><trkpt lat="45.995542042914906" lon="9.329050570792077"><ele>791.0</ele><time>2026-05-02T10:40:04.978Z</time></trkpt><trkpt lat="45.995574079583854" lon="9.329155192722927"><ele>791.0</ele><time>2026-05-02T10:40:05.978Z</time></trkpt><trkpt lat="45.995671874565645" lon="9.329221027239841"><ele>791.0</ele><time>2026-05-02T10:40:06.978Z</time></trkpt><trkpt lat="45.995770983072994" lon="9.329211301902816"><ele>791.0</ele><time>2026-05-02T10:40:07.978Z</time></trkpt><trkpt lat="45.99586134118435" lon="9.329178966478077"><ele>791.0</ele><time>2026-05-02T10:40:08.978Z</time></trkpt><trkpt lat="45.99596692192892" lon="9.32912587641561"><ele>791.1999999999999</ele><time>2026-05-02T10:40:09.978Z</time></trkpt><trkpt lat="45.99608277314083" lon="9.329050917455264"><ele>791.4</ele><time>2026-05-02T10:40:10.978Z</time></trkpt><trkpt lat="45.99617827501691" lon="9.328970316337653"><ele>791.6</ele><time>2026-05-02T10:40:11.977Z</time></trkpt><trkpt lat="45.9962419506054" lon="9.328857115120263"><ele>791.8</ele><time>2026-05-02T10:40:12.977Z</time></trkpt><trkpt lat="45.996300515165835" lon="9.328768893950922"><ele>792.0</ele><time>2026-05-02T10:40:13.978Z</time></trkpt><trkpt lat="45.99636273070226" lon="9.32868686455336"><ele>787.3333333333334</ele><time>2026-05-02T10:40:14.978Z</time></trkpt><trkpt lat="45.99643126176146" lon="9.328632916379345"><ele>782.6666666666666</ele><time>2026-05-02T10:40:15.978Z</time></trkpt><trkpt lat="45.996511058816" lon="9.32862820730305"><ele>778.0</ele><time>2026-05-02T10:40:16.978Z</time></trkpt><trkpt lat="45.996599656023555" lon="9.328631649130603"><ele>773.3333333333333</ele><time>2026-05-02T10:40:17.978Z</time></trkpt><trkpt lat="45.996699068371996" lon="9.328636026684812"><ele>768.6666666666666</ele><time>2026-05-02T10:40:18.978Z</time></trkpt><trkpt lat="45.99679573089952" lon="9.328624069786752"><ele>764.0</ele><time>2026-05-02T10:40:19.978Z</time></trkpt><trkpt lat="45.99689673463667" lon="9.32859297234691"><ele>762.5</ele><time>2026-05-02T10:40:20.978Z</time></trkpt><trkpt lat="45.99698145958353" lon="9.32854425303723"><ele>761.0</ele><time>2026-05-02T10:40:21.978Z</time></trkpt><trkpt lat="45.9970647630266" lon="9.32848598106798"><ele>759.5</ele><time>2026-05-02T10:40:22.978Z</time></trkpt><trkpt lat="45.997140162463616" lon="9.32851707045112"><ele>758.0</ele><time>2026-05-02T10:40:23.978Z</time></trkpt><trkpt lat="45.99719787944716" lon="9.328556886298541"><ele>756.5</ele><time>2026-05-02T10:40:24.978Z</time></trkpt><trkpt lat="45.997262748235144" lon="9.328610997662137"><ele>755.0</ele><time>2026-05-02T10:40:25.978Z</time></trkpt><trkpt lat="45.99731683876113" lon="9.328702141698876"><ele>755.0</ele><time>2026-05-02T10:40:26.978Z</time></trkpt><trkpt lat="45.99737745960083" lon="9.328799585777283"><ele>755.0</ele><time>2026-05-02T10:40:27.978Z</time></trkpt><trkpt lat="45.997453442592544" lon="9.328857245263757"><ele>755.0</ele><time>2026-05-02T10:40:28.978Z</time></trkpt><trkpt lat="45.99755398263298" lon="9.328871831314876"><ele>755.0</ele><time>2026-05-02T10:40:29.978Z</time></trkpt><trkpt lat="45.99767168685885" lon="9.328861872290025"><ele>755.0</ele><time>2026-05-02T10:40:30.978Z</time></trkpt><trkpt lat="45.99777787072229" lon="9.328839724127807"><ele>759.8</ele><time>2026-05-02T10:40:31.978Z</time></trkpt><trkpt lat="45.997869760957414" lon="9.32880304508252"><ele>764.6</ele><time>2026-05-02T10:40:32.978Z</time></trkpt><trkpt lat="45.99795064567325" lon="9.328727665974357"><ele>769.4000000000001</ele><time>2026-05-02T10:40:33.978Z</time></trkpt><trkpt lat="45.99799022516025" lon="9.328633180522182"><ele>774.2</ele><time>2026-05-02T10:40:34.978Z</time></trkpt><trkpt lat="45.998000397278844" lon="9.328509767540924"><ele>779.0</ele><time>2026-05-02T10:40:35.978Z</time></trkpt><trkpt lat="45.998006083755804" lon="9.328372626290745"><ele>779.0</ele><time>2026-05-02T10:40:36.978Z</time></trkpt><trkpt lat="45.99798842324911" lon="9.328220477392962"><ele>779.0</ele><time>2026-05-02T10:40:37.978Z</time></trkpt><trkpt lat="45.997950726076034" lon="9.328059225973675"><ele>779.0</ele><time>2026-05-02T10:40:38.978Z</time></trkpt><trkpt lat="45.99791028485202" lon="9.32791841886978"><ele>779.0</ele><time>2026-05-02T10:40:39.978Z</time></trkpt><trkpt lat="45.99785912625858" lon="9.327792020877169"><ele>779.0</ele><time>2026-05-02T10:40:40.978Z</time></trkpt><trkpt lat="45.99781263683308" lon="9.327667634305596"><ele>782.6</ele><time>2026-05-02T10:40:41.978Z</time></trkpt><trkpt lat="45.99775945755548" lon="9.327539731838865"><ele>786.2</ele><time>2026-05-02T10:40:42.978Z</time></trkpt><trkpt lat="45.99772782399673" lon="9.32740902330099"><ele>789.8000000000001</ele><time>2026-05-02T10:40:43.978Z</time></trkpt><trkpt lat="45.997686947682844" lon="9.32729301529352"><ele>793.4000000000001</ele><time>2026-05-02T10:40:44.978Z</time></trkpt><trkpt lat="45.9976360409725" lon="9.327174115648914"><ele>797.0</ele><time>2026-05-02T10:40:45.978Z</time></trkpt><trkpt lat="45.99758585656731" lon="9.327037529105773"><ele>803.0</ele><time>2026-05-02T10:40:46.978Z</time></trkpt><trkpt lat="45.99755627654849" lon="9.326888199396786"><ele>809.0</ele><time>2026-05-02T10:40:47.978Z</time></trkpt><trkpt lat="45.99751457772495" lon="9.326730369792317"><ele>815.0</ele><time>2026-05-02T10:40:48.978Z</time></trkpt><trkpt lat="45.99746163382836" lon="9.326580965390765"><ele>821.0</ele><time>2026-05-02T10:40:49.978Z</time></trkpt><trkpt lat="45.99741678885495" lon="9.326407252364692"><ele>813.0</ele><time>2026-05-02T10:40:50.978Z</time></trkpt><trkpt lat="45.9973653135877" lon="9.326250282442539"><ele>805.0</ele><time>2026-05-02T10:40:51.978Z</time></trkpt><trkpt lat="45.9973161423611" lon="9.32609567789083"><ele>797.0</ele><time>2026-05-02T10:40:52.978Z</time></trkpt><trkpt lat="45.99726442527326" lon="9.32595507944751"><ele>789.0</ele><time>2026-05-02T10:40:53.978Z</time></trkpt><trkpt lat="45.99723251765089" lon="9.325818682082627"><ele>781.0</ele><time>2026-05-02T10:40:54.978Z</time></trkpt><trkpt lat="45.99722549584366" lon="9.32566249254503"><ele>780.0</ele><time>2026-05-02T10:40:55.978Z</time></trkpt><trkpt lat="45.99722594212602" lon="9.3254862809344"><ele>779.0</ele><time>2026-05-02T10:40:56.978Z</time></trkpt><trkpt lat="45.99721361692128" lon="9.325298361263108"><ele>778.0</ele><time>2026-05-02T10:40:57.978Z</time></trkpt><trkpt lat="45.99718296792741" lon="9.325119690385357"><ele>777.0</ele><time>2026-05-02T10:40:58.978Z</time></trkpt><trkpt lat="45.99715572170424" lon="9.324951884414622"><ele>777.0</ele><time>2026-05-02T10:40:59.978Z</time></trkpt><trkpt lat="45.99712740677187" lon="9.324804543138535"><ele>777.0</ele><time>2026-05-02T10:41:00.978Z</time></trkpt><trkpt lat="45.99714012250918" lon="9.324666926916043"><ele>777.0</ele><time>2026-05-02T10:41:01.978Z</time></trkpt><trkpt lat="45.99715987197282" lon="9.32455552462914"><ele>777.0</ele><time>2026-05-02T10:41:02.978Z</time></trkpt><trkpt lat="45.997192554932525" lon="9.324437247538492"><ele>777.0</ele><time>2026-05-02T10:41:03.978Z</time></trkpt><trkpt lat="45.997262692493024" lon="9.324340238130546"><ele>778.4000000000001</ele><time>2026-05-02T10:41:04.978Z</time></trkpt><trkpt lat="45.997329331690935" lon="9.324232417144277"><ele>779.8000000000001</ele><time>2026-05-02T10:41:05.979Z</time></trkpt><trkpt lat="45.9973603329201" lon="9.324100002126706"><ele>781.2</ele><time>2026-05-02T10:41:06.979Z</time></trkpt><trkpt lat="45.9973719127735" lon="9.323975498910901"><ele>782.6</ele><time>2026-05-02T10:41:07.979Z</time></trkpt><trkpt lat="45.99729727549549" lon="9.323830691487984"><ele>784.0</ele><time>2026-05-02T10:41:08.979Z</time></trkpt><trkpt lat="45.997239642236046" lon="9.323677288558365"><ele>784.0</ele><time>2026-05-02T10:41:09.979Z</time></trkpt><trkpt lat="45.99719491969002" lon="9.323501620858492"><ele>784.0</ele><time>2026-05-02T10:41:10.979Z</time></trkpt><trkpt lat="45.99713645564033" lon="9.32333567944426"><ele>784.0</ele><time>2026-05-02T10:41:11.979Z</time></trkpt><trkpt lat="45.99708566931515" lon="9.323180836522358"><ele>784.0</ele><time>2026-05-02T10:41:12.979Z</time></trkpt><trkpt lat="45.99704139009262" lon="9.323038039061231"><ele>788.75</ele><time>2026-05-02T10:41:13.979Z</time></trkpt><trkpt lat="45.99699961695026" lon="9.322886630034319"><ele>793.5</ele><time>2026-05-02T10:41:14.979Z</time></trkpt><trkpt lat="45.99696540339059" lon="9.322727484745865"><ele>798.25</ele><time>2026-05-02T10:41:15.979Z</time></trkpt><trkpt lat="45.99693590403026" lon="9.322552794802544"><ele>803.0</ele><time>2026-05-02T10:41:16.979Z</time></trkpt><trkpt lat="45.99689997853847" lon="9.322366696207686"><ele>800.25</ele><time>2026-05-02T10:41:17.979Z</time></trkpt><trkpt lat="45.99687357518512" lon="9.322163119673332"><ele>797.5</ele><time>2026-05-02T10:41:18.979Z</time></trkpt><trkpt lat="45.99684960967651" lon="9.321976151529359"><ele>794.75</ele><time>2026-05-02T10:41:19.979Z</time></trkpt><trkpt lat="45.99682964078114" lon="9.321806542267932"><ele>792.0</ele><time>2026-05-02T10:41:20.979Z</time></trkpt><trkpt lat="45.99683918890011" lon="9.321649665892032"><ele>792.0</ele><time>2026-05-02T10:41:21.979Z</time></trkpt><trkpt lat="45.996856354876854" lon="9.32152135464881"><ele>792.0</ele><time>2026-05-02T10:41:22.979Z</time></trkpt><trkpt lat="45.99688425440049" lon="9.321409502031717"><ele>792.0</ele><time>2026-05-02T10:41:23.979Z</time></trkpt><trkpt lat="45.996910634599494" lon="9.32129215045648"><ele>792.0</ele><time>2026-05-02T10:41:24.979Z</time></trkpt><trkpt lat="45.997002208059776" lon="9.321184947947136"><ele>792.0</ele><time>2026-05-02T10:41:25.979Z</time></trkpt><trkpt lat="45.99709995844736" lon="9.321079259687897"><ele>786.8</ele><time>2026-05-02T10:41:26.979Z</time></trkpt><trkpt lat="45.99719738616166" lon="9.320998938631718"><ele>781.6</ele><time>2026-05-02T10:41:27.979Z</time></trkpt><trkpt lat="45.997265931946075" lon="9.320871919714163"><ele>776.4</ele><time>2026-05-02T10:41:28.979Z</time></trkpt><trkpt lat="45.99727240411301" lon="9.320702860548648"><ele>771.1999999999999</ele><time>2026-05-02T10:41:29.979Z</time></trkpt><trkpt lat="45.99729760877363" lon="9.320574421743972"><ele>766.0</ele><time>2026-05-02T10:41:30.979Z</time></trkpt><trkpt lat="45.99734000280333" lon="9.320466648447466"><ele>759.25</ele><time>2026-05-02T10:41:31.979Z</time></trkpt><trkpt lat="45.997405619170095" lon="9.320385480066825"><ele>752.5</ele><time>2026-05-02T10:41:32.979Z</time></trkpt><trkpt lat="45.99749129577646" lon="9.320288085497047"><ele>745.75</ele><time>2026-05-02T10:41:33.979Z</time></trkpt><trkpt lat="45.9976058793182" lon="9.320196109159049"><ele>739.0</ele><time>2026-05-02T10:41:34.979Z</time></trkpt><trkpt lat="45.997711725636776" lon="9.320090205559616"><ele>743.25</ele><time>2026-05-02T10:41:35.979Z</time></trkpt><trkpt lat="45.99780414062407" lon="9.319976704749804"><ele>747.5</ele><time>2026-05-02T10:41:36.979Z</time></trkpt><trkpt lat="45.99787909303032" lon="9.319847672403633"><ele>751.75</ele><time>2026-05-02T10:41:37.979Z</time></trkpt><trkpt lat="45.99793296303291" lon="9.319708460691398"><ele>756.0</ele><time>2026-05-02T10:41:38.979Z</time></trkpt><trkpt lat="45.99796136281332" lon="9.319555817474146"><ele>756.0</ele><time>2026-05-02T10:41:39.979Z</time></trkpt><trkpt lat="45.99795096358609" lon="9.319402972824943"><ele>756.0</ele><time>2026-05-02T10:41:40.979Z</time></trkpt><trkpt lat="45.99789158792458" lon="9.319255607130147"><ele>756.0</ele><time>2026-05-02T10:41:41.979Z</time></trkpt><trkpt lat="45.997868331490935" lon="9.319125618264733"><ele>756.0</ele><time>2026-05-02T10:41:42.979Z</time></trkpt><trkpt lat="45.99785788668983" lon="9.319000470689467"><ele>756.0</ele><time>2026-05-02T10:41:43.979Z</time></trkpt><trkpt lat="45.99788785703097" lon="9.318870305194956"><ele>749.5</ele><time>2026-05-02T10:41:44.979Z</time></trkpt><trkpt lat="45.99793584571761" lon="9.318764053890725"><ele>743.0</ele><time>2026-05-02T10:41:45.979Z</time></trkpt><trkpt lat="45.99801057144586" lon="9.318681218088145"><ele>736.5</ele><time>2026-05-02T10:41:46.979Z</time></trkpt><trkpt lat="45.998084825345096" lon="9.31864945878064"><ele>730.0</ele><time>2026-05-02T10:41:47.979Z</time></trkpt><trkpt lat="45.998161101412215" lon="9.31867954314714"><ele>723.5</ele><time>2026-05-02T10:41:48.979Z</time></trkpt><trkpt lat="45.998243255134675" lon="9.318751655103958"><ele>717.0</ele><time>2026-05-02T10:41:49.979Z</time></trkpt><trkpt lat="45.99833092416418" lon="9.318839034722911"><ele>725.4000000000001</ele><time>2026-05-02T10:41:50.979Z</time></trkpt><trkpt lat="45.99842208305857" lon="9.318956873225307"><ele>733.8000000000001</ele><time>2026-05-02T10:41:51.979Z</time></trkpt><trkpt lat="45.99852121914207" lon="9.319040321768364"><ele>742.2</ele><time>2026-05-02T10:41:52.979Z</time></trkpt><trkpt lat="45.99861389228396" lon="9.319112392967538"><ele>750.6</ele><time>2026-05-02T10:41:53.979Z</time></trkpt><trkpt lat="45.99871745937086" lon="9.319147498509812"><ele>759.0</ele><time>2026-05-02T10:41:54.979Z</time></trkpt><trkpt lat="45.99882297622625" lon="9.319161673219652"><ele>759.0</ele><time>2026-05-02T10:41:55.979Z</time></trkpt><trkpt lat="45.99893789415323" lon="9.319142533902893"><ele>759.0</ele><time>2026-05-02T10:41:56.979Z</time></trkpt><trkpt lat="45.99907021014869" lon="9.319116081873865"><ele>759.0</ele><time>2026-05-02T10:41:57.979Z</time></trkpt><trkpt lat="45.99920807856151" lon="9.319067143107704"><ele>759.0</ele><time>2026-05-02T10:41:58.98Z</time></trkpt><trkpt lat="45.99934322811042" lon="9.31901916941507"><ele>760.6</ele><time>2026-05-02T10:41:59.98Z</time></trkpt><trkpt lat="45.999462172304796" lon="9.318979688433409"><ele>762.2</ele><time>2026-05-02T10:42:00.98Z</time></trkpt><trkpt lat="45.99956883322453" lon="9.318934378507468"><ele>763.8000000000001</ele><time>2026-05-02T10:42:01.98Z</time></trkpt><trkpt lat="45.99966690696246" lon="9.318913658260364"><ele>765.4000000000001</ele><time>2026-05-02T10:42:02.98Z</time></trkpt><trkpt lat="45.999769106313344" lon="9.31891492073319"><ele>767.0</ele><time>2026-05-02T10:42:03.98Z</time></trkpt><trkpt lat="45.99987931088938" lon="9.318928005417648"><ele>767.0</ele><time>2026-05-02T10:42:04.98Z</time></trkpt><trkpt lat="45.999996391542936" lon="9.318940710533486"><ele>767.0</ele><time>2026-05-02T10:42:05.98Z</time></trkpt><trkpt lat="46.000102523392165" lon="9.318938881387583"><ele>767.0</ele><time>2026-05-02T10:42:06.98Z</time></trkpt><trkpt lat="46.0001883372175" lon="9.318916238845286"><ele>767.0</ele><time>2026-05-02T10:42:07.979Z</time></trkpt><trkpt lat="46.00025203953907" lon="9.318864044812605"><ele>767.0</ele><time>2026-05-02T10:42:08.979Z</time></trkpt><trkpt lat="46.00031850932356" lon="9.318820287669773"><ele>763.4000000000001</ele><time>2026-05-02T10:42:09.979Z</time></trkpt><trkpt lat="46.00034921433416" lon="9.318706890073846"><ele>759.8000000000001</ele><time>2026-05-02T10:42:10.979Z</time></trkpt><trkpt lat="46.00028356728925" lon="9.318571253354937"><ele>756.2</ele><time>2026-05-02T10:42:11.979Z</time></trkpt><trkpt lat="46.00022563398808" lon="9.31846234845485"><ele>752.6</ele><time>2026-05-02T10:42:12.979Z</time></trkpt><trkpt lat="46.00015574440376" lon="9.318346027856492"><ele>749.0</ele><time>2026-05-02T10:42:13.979Z</time></trkpt><trkpt lat="46.00006173174406" lon="9.318239850200461"><ele>749.0</ele><time>2026-05-02T10:42:14.978Z</time></trkpt><trkpt lat="45.99999880383723" lon="9.318098458663687"><ele>749.0</ele><time>2026-05-02T10:42:15.979Z</time></trkpt><trkpt lat="45.999963863873745" lon="9.31794516019814"><ele>749.0</ele><time>2026-05-02T10:42:16.979Z</time></trkpt><trkpt lat="45.999933181206025" lon="9.317805728586848"><ele>749.0</ele><time>2026-05-02T10:42:17.979Z</time></trkpt><trkpt lat="45.99990798789981" lon="9.317659183567775"><ele>749.0</ele><time>2026-05-02T10:42:18.979Z</time></trkpt><trkpt lat="45.99989005620687" lon="9.317495374247374"><ele>750.5</ele><time>2026-05-02T10:42:19.979Z</time></trkpt><trkpt lat="45.9999002870242" lon="9.317335028665827"><ele>752.0</ele><time>2026-05-02T10:42:20.979Z</time></trkpt><trkpt lat="45.99987335259453" lon="9.317171756650888"><ele>753.5</ele><time>2026-05-02T10:42:21.979Z</time></trkpt><trkpt lat="45.99980775709079" lon="9.317025330495797"><ele>755.0</ele><time>2026-05-02T10:42:22.979Z</time></trkpt><trkpt lat="45.9997406499937" lon="9.316913306695533"><ele>756.6</ele><time>2026-05-02T10:42:23.979Z</time></trkpt><trkpt lat="45.999673253938255" lon="9.316805447920256"><ele>758.2</ele><time>2026-05-02T10:42:24.979Z</time></trkpt><trkpt lat="45.99962154110295" lon="9.316690101074903"><ele>759.8</ele><time>2026-05-02T10:42:25.979Z</time></trkpt><trkpt lat="45.999577132022274" lon="9.316562287258403"><ele>761.4</ele><time>2026-05-02T10:42:26.979Z</time></trkpt><trkpt lat="45.999508161255214" lon="9.316454630856638"><ele>763.0</ele><time>2026-05-02T10:42:27.979Z</time></trkpt><trkpt lat="45.9994349628383" lon="9.316353230793984"><ele>763.0</ele><time>2026-05-02T10:42:28.979Z</time></trkpt><trkpt lat="45.999360316238665" lon="9.316254456710379"><ele>763.0</ele><time>2026-05-02T10:42:29.979Z</time></trkpt><trkpt lat="45.999287058103675" lon="9.316173424908385"><ele>763.0</ele><time>2026-05-02T10:42:30.979Z</time></trkpt><trkpt lat="45.99921969237252" lon="9.316089673474824"><ele>763.0</ele><time>2026-05-02T10:42:31.979Z</time></trkpt><trkpt lat="45.99917631309946" lon="9.315989521956979"><ele>763.0</ele><time>2026-05-02T10:42:32.979Z</time></trkpt><trkpt lat="45.999170979250096" lon="9.315871607292332"><ele>763.0</ele><time>2026-05-02T10:42:33.979Z</time></trkpt><trkpt lat="45.999196178508555" lon="9.315764289120484"><ele>763.0</ele><time>2026-05-02T10:42:34.979Z</time></trkpt><trkpt lat="45.99925260391714" lon="9.315660547947175"><ele>763.0</ele><time>2026-05-02T10:42:35.979Z</time></trkpt><trkpt lat="45.99932567259237" lon="9.315563877708174"><ele>763.0</ele><time>2026-05-02T10:42:36.979Z</time></trkpt><trkpt lat="45.99941952119668" lon="9.315471456476144"><ele>763.0</ele><time>2026-05-02T10:42:37.979Z</time></trkpt><trkpt lat="45.99953378409546" lon="9.315398720905787"><ele>763.0</ele><time>2026-05-02T10:42:38.979Z</time></trkpt><trkpt lat="45.99965733401088" lon="9.315338072922396"><ele>759.0</ele><time>2026-05-02T10:42:39.979Z</time></trkpt><trkpt lat="45.99976451896973" lon="9.315274112825414"><ele>755.0</ele><time>2026-05-02T10:42:40.979Z</time></trkpt><trkpt lat="45.9998576257309" lon="9.315205757088242"><ele>751.0</ele><time>2026-05-02T10:42:41.98Z</time></trkpt><trkpt lat="45.99993893687149" lon="9.315142400104467"><ele>747.0</ele><time>2026-05-02T10:42:42.98Z</time></trkpt><trkpt lat="45.99999535162369" lon="9.315051955299914"><ele>743.0</ele><time>2026-05-02T10:42:43.98Z</time></trkpt><trkpt lat="46.00001746946175" lon="9.31493464037557"><ele>743.0</ele><time>2026-05-02T10:42:44.98Z</time></trkpt><trkpt lat="46.000004403986786" lon="9.314821043750293"><ele>743.0</ele><time>2026-05-02T10:42:45.98Z</time></trkpt><trkpt lat="45.99997766381393" lon="9.314668674604249"><ele>743.0</ele><time>2026-05-02T10:42:46.98Z</time></trkpt><trkpt lat="45.999915087942604" lon="9.31454149645779"><ele>743.0</ele><time>2026-05-02T10:42:47.98Z</time></trkpt><trkpt lat="45.99986206920501" lon="9.314429733221138"><ele>743.0</ele><time>2026-05-02T10:42:48.98Z</time></trkpt><trkpt lat="45.999818730822746" lon="9.314318226233556"><ele>743.8333333333333</ele><time>2026-05-02T10:42:49.98Z</time></trkpt><trkpt lat="45.9998250332974" lon="9.314212970472099"><ele>744.6666666666666</ele><time>2026-05-02T10:42:50.98Z</time></trkpt><trkpt lat="45.99985600052784" lon="9.31411811682202"><ele>745.5</ele><time>2026-05-02T10:42:51.98Z</time></trkpt><trkpt lat="45.99990796675426" lon="9.314030793787495"><ele>746.3333333333334</ele><time>2026-05-02T10:42:52.98Z</time></trkpt><trkpt lat="45.99997645272028" lon="9.313943782791062"><ele>747.1666666666667</ele><time>2026-05-02T10:42:53.98Z</time></trkpt><trkpt lat="46.000038529169906" lon="9.313851158372728"><ele>748.0</ele><time>2026-05-02T10:42:54.98Z</time></trkpt><trkpt lat="46.00009038445063" lon="9.313747934557803"><ele>748.0</ele><time>2026-05-02T10:42:55.98Z</time></trkpt><trkpt lat="46.00008707339313" lon="9.313630926288717"><ele>748.0</ele><time>2026-05-02T10:42:56.98Z</time></trkpt><trkpt lat="46.000093615488765" lon="9.313503086775137"><ele>748.0</ele><time>2026-05-02T10:42:57.98Z</time></trkpt><trkpt lat="46.000115258366634" lon="9.313391229991018"><ele>748.0</ele><time>2026-05-02T10:42:58.98Z</time></trkpt><trkpt lat="46.00017334861608" lon="9.313306705272307"><ele>748.0</ele><time>2026-05-02T10:42:59.98Z</time></trkpt><trkpt lat="46.00023678846315" lon="9.313199078994934"><ele>748.0</ele><time>2026-05-02T10:43:00.98Z</time></trkpt><trkpt lat="46.00028647033859" lon="9.313093793013975"><ele>749.0</ele><time>2026-05-02T10:43:01.98Z</time></trkpt><trkpt lat="46.00031408932017" lon="9.312959867284473"><ele>750.0</ele><time>2026-05-02T10:43:02.98Z</time></trkpt><trkpt lat="46.00031329137432" lon="9.312800784850984"><ele>751.0</ele><time>2026-05-02T10:43:03.98Z</time></trkpt><trkpt lat="46.000293411226316" lon="9.312634957857364"><ele>752.0</ele><time>2026-05-02T10:43:04.98Z</time></trkpt><trkpt lat="46.0002626721247" lon="9.312486469473921"><ele>753.0</ele><time>2026-05-02T10:43:05.98Z</time></trkpt><trkpt lat="46.00021696846396" lon="9.312336732428422"><ele>748.5999999999999</ele><time>2026-05-02T10:43:06.98Z</time></trkpt><trkpt lat="46.00015314282441" lon="9.312184641015529"><ele>744.1999999999999</ele><time>2026-05-02T10:43:07.98Z</time></trkpt><trkpt lat="46.00007298596253" lon="9.312069534489657"><ele>739.8</ele><time>2026-05-02T10:43:08.98Z</time></trkpt><trkpt lat="45.99996868934709" lon="9.312032652896333"><ele>735.4</ele><time>2026-05-02T10:43:09.98Z</time></trkpt><trkpt lat="45.99989157171659" lon="9.311967998659467"><ele>731.0</ele><time>2026-05-02T10:43:10.98Z</time></trkpt><trkpt lat="45.99980598424921" lon="9.311869822134"><ele>731.0</ele><time>2026-05-02T10:43:11.98Z</time></trkpt><trkpt lat="45.999742437326084" lon="9.311752492904406"><ele>731.0</ele><time>2026-05-02T10:43:12.98Z</time></trkpt><trkpt lat="45.999709788557986" lon="9.311629430275943"><ele>731.0</ele><time>2026-05-02T10:43:13.98Z</time></trkpt><trkpt lat="45.999688619403194" lon="9.311502084279294"><ele>731.0</ele><time>2026-05-02T10:43:14.98Z</time></trkpt><trkpt lat="45.999691556286294" lon="9.311372231530147"><ele>731.0</ele><time>2026-05-02T10:43:15.98Z</time></trkpt><trkpt lat="45.99971082719314" lon="9.311239482331077"><ele>725.8333333333333</ele><time>2026-05-02T10:43:16.98Z</time></trkpt><trkpt lat="45.99973581396142" lon="9.311112459615766"><ele>720.6666666666666</ele><time>2026-05-02T10:43:17.98Z</time></trkpt><trkpt lat="45.99977731100996" lon="9.311007904213675"><ele>715.5</ele><time>2026-05-02T10:43:18.98Z</time></trkpt><trkpt lat="45.999841004186194" lon="9.310927792314088"><ele>710.3333333333334</ele><time>2026-05-02T10:43:19.98Z</time></trkpt><trkpt lat="45.9999191657049" lon="9.310864236730179"><ele>705.1666666666667</ele><time>2026-05-02T10:43:20.98Z</time></trkpt><trkpt lat="46.00001184672189" lon="9.310823521812416"><ele>700.0</ele><time>2026-05-02T10:43:21.98Z</time></trkpt><trkpt lat="46.00011036873412" lon="9.310801572940301"><ele>700.0</ele><time>2026-05-02T10:43:22.98Z</time></trkpt><trkpt lat="46.000208684000775" lon="9.310794107494667"><ele>700.0</ele><time>2026-05-02T10:43:23.98Z</time></trkpt><trkpt lat="46.00032003666813" lon="9.310802710085111"><ele>700.0</ele><time>2026-05-02T10:43:24.98Z</time></trkpt><trkpt lat="46.00042867944001" lon="9.310780931403636"><ele>700.0</ele><time>2026-05-02T10:43:25.98Z</time></trkpt><trkpt lat="46.000545897279096" lon="9.310730860871502"><ele>700.0</ele><time>2026-05-02T10:43:26.98Z</time></trkpt><trkpt lat="46.000671654366954" lon="9.310667428385747"><ele>700.0</ele><time>2026-05-02T10:43:27.98Z</time></trkpt><trkpt lat="46.000799970775404" lon="9.310608723338191"><ele>700.0</ele><time>2026-05-02T10:43:28.98Z</time></trkpt><trkpt lat="46.00091715581342" lon="9.310512717847224"><ele>700.0</ele><time>2026-05-02T10:43:29.98Z</time></trkpt><trkpt lat="46.001017258933956" lon="9.310394371231991"><ele>700.0</ele><time>2026-05-02T10:43:30.98Z</time></trkpt><trkpt lat="46.00111651845357" lon="9.310281285457718"><ele>694.25</ele><time>2026-05-02T10:43:31.98Z</time></trkpt><trkpt lat="46.00120734501265" lon="9.310155922037861"><ele>688.5</ele><time>2026-05-02T10:43:32.98Z</time></trkpt><trkpt lat="46.00129669287775" lon="9.310010361916937"><ele>682.75</ele><time>2026-05-02T10:43:33.981Z</time></trkpt><trkpt lat="46.001380690832356" lon="9.309856623582256"><ele>677.0</ele><time>2026-05-02T10:43:34.981Z</time></trkpt><trkpt lat="46.00144447138885" lon="9.309706842731423"><ele>678.8</ele><time>2026-05-02T10:43:35.981Z</time></trkpt><trkpt lat="46.00148979072935" lon="9.30956810381969"><ele>680.6</ele><time>2026-05-02T10:43:36.981Z</time></trkpt><trkpt lat="46.00154183440786" lon="9.309455244987278"><ele>682.4</ele><time>2026-05-02T10:43:37.981Z</time></trkpt><trkpt lat="46.001613542155326" lon="9.30936398163466"><ele>684.1999999999999</ele><time>2026-05-02T10:43:38.981Z</time></trkpt><trkpt lat="46.00171315241009" lon="9.309302582467739"><ele>686.0</ele><time>2026-05-02T10:43:39.981Z</time></trkpt><trkpt lat="46.001829287362085" lon="9.309271210241372"><ele>686.0</ele><time>2026-05-02T10:43:40.981Z</time></trkpt><trkpt lat="46.001964037705065" lon="9.309267254231896"><ele>686.0</ele><time>2026-05-02T10:43:41.981Z</time></trkpt><trkpt lat="46.00209317709227" lon="9.309262812871571"><ele>686.0</ele><time>2026-05-02T10:43:42.981Z</time></trkpt><trkpt lat="46.00221287647859" lon="9.30925100491513"><ele>686.0</ele><time>2026-05-02T10:43:43.981Z</time></trkpt><trkpt lat="46.002326634283605" lon="9.309222445101149"><ele>686.0</ele><time>2026-05-02T10:43:44.981Z</time></trkpt><trkpt lat="46.0024115804963" lon="9.309136658368086"><ele>686.0</ele><time>2026-05-02T10:43:45.981Z</time></trkpt><trkpt lat="46.00249003388248" lon="9.309074495669787"><ele>686.0</ele><time>2026-05-02T10:43:46.981Z</time></trkpt><trkpt lat="46.00255038339678" lon="9.308985189254615"><ele>686.0</ele><time>2026-05-02T10:43:47.981Z</time></trkpt><trkpt lat="46.00260523600624" lon="9.308918716216013"><ele>686.0</ele><time>2026-05-02T10:43:48.981Z</time></trkpt><trkpt lat="46.00267274718335" lon="9.308880799674832"><ele>686.0</ele><time>2026-05-02T10:43:49.981Z</time></trkpt><trkpt lat="46.00277419270469" lon="9.308953391374938"><ele>687.8</ele><time>2026-05-02T10:43:51.981Z</time></trkpt><trkpt lat="46.002847209225266" lon="9.309012739303423"><ele>689.5999999999999</ele><time>2026-05-02T10:43:52.981Z</time></trkpt><trkpt lat="46.00293920826114" lon="9.309080446703618"><ele>691.4</ele><time>2026-05-02T10:43:53.981Z</time></trkpt><trkpt lat="46.0030384706359" lon="9.309109532593025"><ele>693.2</ele><time>2026-05-02T10:43:54.981Z</time></trkpt><trkpt lat="46.00313956861628" lon="9.309127309541527"><ele>695.0</ele><time>2026-05-02T10:43:55.981Z</time></trkpt><trkpt lat="46.003253746394044" lon="9.309126074752342"><ele>696.0</ele><time>2026-05-02T10:43:56.981Z</time></trkpt><trkpt lat="46.003373669198844" lon="9.309130625881215"><ele>697.0</ele><time>2026-05-02T10:43:57.981Z</time></trkpt><trkpt lat="46.0035058505214" lon="9.30915528953258"><ele>698.0</ele><time>2026-05-02T10:43:58.981Z</time></trkpt><trkpt lat="46.003632207301926" lon="9.30915308929596"><ele>699.0</ele><time>2026-05-02T10:43:59.981Z</time></trkpt><trkpt lat="46.00375077440944" lon="9.309148511343023"><ele>699.0</ele><time>2026-05-02T10:44:00.981Z</time></trkpt><trkpt lat="46.00386164584828" lon="9.309143358600197"><ele>699.0</ele><time>2026-05-02T10:44:01.981Z</time></trkpt><trkpt lat="46.00396771308791" lon="9.309124708694878"><ele>699.0</ele><time>2026-05-02T10:44:02.981Z</time></trkpt><trkpt lat="46.00406968027315" lon="9.309067854287264"><ele>699.0</ele><time>2026-05-02T10:44:03.981Z</time></trkpt><trkpt lat="46.00417431100523" lon="9.308980887545173"><ele>699.0</ele><time>2026-05-02T10:44:04.981Z</time></trkpt><trkpt lat="46.00427143937049" lon="9.308884877504163"><ele>691.8000000000001</ele><time>2026-05-02T10:44:05.981Z</time></trkpt><trkpt lat="46.00436083677819" lon="9.30878781519062"><ele>684.6</ele><time>2026-05-02T10:44:06.981Z</time></trkpt><trkpt lat="46.00445391563919" lon="9.308702338343322"><ele>677.4</ele><time>2026-05-02T10:44:07.981Z</time></trkpt><trkpt lat="46.00454691222523" lon="9.308645545017479"><ele>670.2</ele><time>2026-05-02T10:44:08.981Z</time></trkpt><trkpt lat="46.00463721339048" lon="9.308624213646592"><ele>663.0</ele><time>2026-05-02T10:44:09.981Z</time></trkpt><trkpt lat="46.00471224563241" lon="9.30860727544788"><ele>663.0</ele><time>2026-05-02T10:44:10.981Z</time></trkpt><trkpt lat="46.00483590609904" lon="9.30858676389854"><ele>663.0</ele><time>2026-05-02T10:44:12.981Z</time></trkpt><trkpt lat="46.004915376350276" lon="9.308542702356464"><ele>663.0</ele><time>2026-05-02T10:44:14.98Z</time></trkpt><trkpt lat="46.00484293434727" lon="9.308213087166129"><ele>663.0</ele><time>2026-05-02T10:44:15.98Z</time></trkpt><trkpt lat="46.00478157391208" lon="9.308094561167104"><ele>663.0</ele><time>2026-05-02T10:44:16.981Z</time></trkpt><trkpt lat="46.00471918308953" lon="9.307999229131052"><ele>663.0</ele><time>2026-05-02T10:44:17.981Z</time></trkpt><trkpt lat="46.00464880404728" lon="9.307914248832283"><ele>663.0</ele><time>2026-05-02T10:44:18.981Z</time></trkpt><trkpt lat="46.004591162090044" lon="9.307817757412174"><ele>663.0</ele><time>2026-05-02T10:44:19.981Z</time></trkpt><trkpt lat="46.00456049526309" lon="9.307706235232212"><ele>659.5999999999999</ele><time>2026-05-02T10:44:20.98Z</time></trkpt><trkpt lat="46.00455531472791" lon="9.307587637205794"><ele>656.1999999999999</ele><time>2026-05-02T10:44:21.98Z</time></trkpt><trkpt lat="46.00456460953806" lon="9.3074375998094"><ele>652.8</ele><time>2026-05-02T10:44:22.981Z</time></trkpt><trkpt lat="46.00459026651836" lon="9.307259768214116"><ele>649.4</ele><time>2026-05-02T10:44:23.98Z</time></trkpt><trkpt lat="46.00460233409083" lon="9.30710003856704"><ele>646.0</ele><time>2026-05-02T10:44:24.98Z</time></trkpt><trkpt lat="46.004606434039395" lon="9.306945169329442"><ele>643.8333333333334</ele><time>2026-05-02T10:44:25.98Z</time></trkpt><trkpt lat="46.00459067570986" lon="9.30680414971153"><ele>641.6666666666667</ele><time>2026-05-02T10:44:26.981Z</time></trkpt><trkpt lat="46.004561909540996" lon="9.306681129870126"><ele>639.5</ele><time>2026-05-02T10:44:27.981Z</time></trkpt><trkpt lat="46.00454973888587" lon="9.306564045684306"><ele>637.3333333333334</ele><time>2026-05-02T10:44:28.981Z</time></trkpt><trkpt lat="46.00456909558597" lon="9.306458373587114"><ele>635.1666666666666</ele><time>2026-05-02T10:44:29.981Z</time></trkpt><trkpt lat="46.0046172475418" lon="9.306370040188511"><ele>633.0</ele><time>2026-05-02T10:44:30.981Z</time></trkpt><trkpt lat="46.00466890216422" lon="9.306265999624655"><ele>629.6</ele><time>2026-05-02T10:44:31.981Z</time></trkpt><trkpt lat="46.004716564778306" lon="9.306150616700371"><ele>626.1999999999999</ele><time>2026-05-02T10:44:32.981Z</time></trkpt><trkpt lat="46.00472949140443" lon="9.306010630501111"><ele>622.8</ele><time>2026-05-02T10:44:33.981Z</time></trkpt><trkpt lat="46.00473116375171" lon="9.305855940015787"><ele>619.4</ele><time>2026-05-02T10:44:34.981Z</time></trkpt><trkpt lat="46.00472695603735" lon="9.30569315279895"><ele>616.0</ele><time>2026-05-02T10:44:35.981Z</time></trkpt><trkpt lat="46.00471642572818" lon="9.305544306106224"><ele>614.0</ele><time>2026-05-02T10:44:36.981Z</time></trkpt><trkpt lat="46.00470035503105" lon="9.305417767549997"><ele>612.0</ele><time>2026-05-02T10:44:37.981Z</time></trkpt><trkpt lat="46.00466543638406" lon="9.305314238481824"><ele>610.0</ele><time>2026-05-02T10:44:38.981Z</time></trkpt><trkpt lat="46.004623204945034" lon="9.305221675025733"><ele>608.0</ele><time>2026-05-02T10:44:39.981Z</time></trkpt><trkpt lat="46.00458858777862" lon="9.305135527909515"><ele>606.0</ele><time>2026-05-02T10:44:40.981Z</time></trkpt><trkpt lat="46.004568364819356" lon="9.305040503629458"><ele>604.0</ele><time>2026-05-02T10:44:41.981Z</time></trkpt><trkpt lat="46.0045774696593" lon="9.3049391816595"><ele>604.0</ele><time>2026-05-02T10:44:42.981Z</time></trkpt><trkpt lat="46.00461435050908" lon="9.304860865127997"><ele>604.0</ele><time>2026-05-02T10:44:43.981Z</time></trkpt><trkpt lat="46.00467807422996" lon="9.304806987384833"><ele>604.0</ele><time>2026-05-02T10:44:44.981Z</time></trkpt><trkpt lat="46.00475288899258" lon="9.304783532761064"><ele>604.0</ele><time>2026-05-02T10:44:45.981Z</time></trkpt><trkpt lat="46.00485241390219" lon="9.304753400049863"><ele>604.0</ele><time>2026-05-02T10:44:46.981Z</time></trkpt><trkpt lat="46.00496389832559" lon="9.304715422107952"><ele>604.0</ele><time>2026-05-02T10:44:47.981Z</time></trkpt><trkpt lat="46.00507896694217" lon="9.304678441875893"><ele>610.0</ele><time>2026-05-02T10:44:48.981Z</time></trkpt><trkpt lat="46.00519930348384" lon="9.304662874253166"><ele>616.0</ele><time>2026-05-02T10:44:49.981Z</time></trkpt><trkpt lat="46.00530419985905" lon="9.304662140527958"><ele>622.0</ele><time>2026-05-02T10:44:50.981Z</time></trkpt><trkpt lat="46.005398674247346" lon="9.304634814506025"><ele>628.0</ele><time>2026-05-02T10:44:51.981Z</time></trkpt><trkpt lat="46.005488194251335" lon="9.304580975472135"><ele>634.0</ele><time>2026-05-02T10:44:52.981Z</time></trkpt><trkpt lat="46.00558696014725" lon="9.304480437224912"><ele>634.0</ele><time>2026-05-02T10:44:53.981Z</time></trkpt><trkpt lat="46.005668188201504" lon="9.304356122242845"><ele>634.0</ele><time>2026-05-02T10:44:54.981Z</time></trkpt><trkpt lat="46.00574586201997" lon="9.304254198671282"><ele>634.0</ele><time>2026-05-02T10:44:55.981Z</time></trkpt><trkpt lat="46.00580356871571" lon="9.304153231899964"><ele>634.0</ele><time>2026-05-02T10:44:56.981Z</time></trkpt><trkpt lat="46.00586605314293" lon="9.304053452533125"><ele>634.0</ele><time>2026-05-02T10:44:57.981Z</time></trkpt><trkpt lat="46.005935519058404" lon="9.303993459444957"><ele>637.0</ele><time>2026-05-02T10:44:58.981Z</time></trkpt><trkpt lat="46.006016616752795" lon="9.303962962251527"><ele>640.0</ele><time>2026-05-02T10:44:59.981Z</time></trkpt><trkpt lat="46.00609609945386" lon="9.303988445326162"><ele>643.0</ele><time>2026-05-02T10:45:00.981Z</time></trkpt><trkpt lat="46.00618280247684" lon="9.304037223388763"><ele>646.0</ele><time>2026-05-02T10:45:01.981Z</time></trkpt><trkpt lat="46.006286862529095" lon="9.304093311890863"><ele>649.0</ele><time>2026-05-02T10:45:02.981Z</time></trkpt><trkpt lat="46.00640346419742" lon="9.304160737488788"><ele>649.0</ele><time>2026-05-02T10:45:03.981Z</time></trkpt><trkpt lat="46.00652523307197" lon="9.304242466686516"><ele>649.0</ele><time>2026-05-02T10:45:04.981Z</time></trkpt><trkpt lat="46.00664450752771" lon="9.304309678890911"><ele>649.0</ele><time>2026-05-02T10:45:05.981Z</time></trkpt><trkpt lat="46.006766014069946" lon="9.304360314982803"><ele>649.0</ele><time>2026-05-02T10:45:06.981Z</time></trkpt><trkpt lat="46.00688856121887" lon="9.304402369265533"><ele>647.5</ele><time>2026-05-02T10:45:07.981Z</time></trkpt><trkpt lat="46.00701054458823" lon="9.304424420020835"><ele>646.0</ele><time>2026-05-02T10:45:08.981Z</time></trkpt><trkpt lat="46.00712100189682" lon="9.304454195984551"><ele>644.5</ele><time>2026-05-02T10:45:09.981Z</time></trkpt><trkpt lat="46.00722914687755" lon="9.304476159209365"><ele>643.0</ele><time>2026-05-02T10:45:10.981Z</time></trkpt><trkpt lat="46.00732863921983" lon="9.304527010819548"><ele>643.0</ele><time>2026-05-02T10:45:11.982Z</time></trkpt><trkpt lat="46.007425627149615" lon="9.304595301841552"><ele>643.0</ele><time>2026-05-02T10:45:12.982Z</time></trkpt><trkpt lat="46.00752411656395" lon="9.304669737058433"><ele>643.0</ele><time>2026-05-02T10:45:13.982Z</time></trkpt><trkpt lat="46.007618170050016" lon="9.304752833163601"><ele>643.0</ele><time>2026-05-02T10:45:14.982Z</time></trkpt><trkpt lat="46.00770914671072" lon="9.304831944860794"><ele>643.0</ele><time>2026-05-02T10:45:15.982Z</time></trkpt><trkpt lat="46.0077906021033" lon="9.30490896681612"><ele>646.0</ele><time>2026-05-02T10:45:16.982Z</time></trkpt><trkpt lat="46.0078672296973" lon="9.304976139920004"><ele>649.0</ele><time>2026-05-02T10:45:17.982Z</time></trkpt><trkpt lat="46.00794118303078" lon="9.30501438311225"><ele>652.0</ele><time>2026-05-02T10:45:18.982Z</time></trkpt><trkpt lat="46.00802327997408" lon="9.304982383730447"><ele>655.0</ele><time>2026-05-02T10:45:19.982Z</time></trkpt><trkpt lat="46.008104209131865" lon="9.304943166015121"><ele>658.0</ele><time>2026-05-02T10:45:20.982Z</time></trkpt><trkpt lat="46.0081878326264" lon="9.304880492129387"><ele>661.0</ele><time>2026-05-02T10:45:21.982Z</time></trkpt><trkpt lat="46.00826750206846" lon="9.304837826365556"><ele>658.0</ele><time>2026-05-02T10:45:22.982Z</time></trkpt><trkpt lat="46.008352171308225" lon="9.304818186679674"><ele>655.0</ele><time>2026-05-02T10:45:23.982Z</time></trkpt><trkpt lat="46.00843581205456" lon="9.304839214819358"><ele>652.0</ele><time>2026-05-02T10:45:24.982Z</time></trkpt><trkpt lat="46.008521285464774" lon="9.304888408438162"><ele>649.0</ele><time>2026-05-02T10:45:25.982Z</time></trkpt><trkpt lat="46.00859881171932" lon="9.304934703318594"><ele>646.0</ele><time>2026-05-02T10:45:26.982Z</time></trkpt><trkpt lat="46.008669550879745" lon="9.30495960855341"><ele>643.0</ele><time>2026-05-02T10:45:27.982Z</time></trkpt><trkpt lat="46.00872945530062" lon="9.30492983240827"><ele>643.0</ele><time>2026-05-02T10:45:28.982Z</time></trkpt><trkpt lat="46.008774592440496" lon="9.304862318569343"><ele>643.0</ele><time>2026-05-02T10:45:29.982Z</time></trkpt><trkpt lat="46.00878603989642" lon="9.304753319413416"><ele>643.0</ele><time>2026-05-02T10:45:30.982Z</time></trkpt><trkpt lat="46.00878865990649" lon="9.30462114818244"><ele>643.0</ele><time>2026-05-02T10:45:31.982Z</time></trkpt><trkpt lat="46.008806892163456" lon="9.304488194414835"><ele>643.0</ele><time>2026-05-02T10:45:32.982Z</time></trkpt><trkpt lat="46.00882571091768" lon="9.304367213304541"><ele>643.0</ele><time>2026-05-02T10:45:33.982Z</time></trkpt><trkpt lat="46.008879302456265" lon="9.304262338192288"><ele>640.4</ele><time>2026-05-02T10:45:34.982Z</time></trkpt><trkpt lat="46.00895703127146" lon="9.304200235219898"><ele>637.8</ele><time>2026-05-02T10:45:35.982Z</time></trkpt><trkpt lat="46.00904588726556" lon="9.30416081446897"><ele>635.2</ele><time>2026-05-02T10:45:36.982Z</time></trkpt><trkpt lat="46.00916354042297" lon="9.304109560202365"><ele>632.6</ele><time>2026-05-02T10:45:37.982Z</time></trkpt><trkpt lat="46.009291652790324" lon="9.304042656701093"><ele>630.0</ele><time>2026-05-02T10:45:38.982Z</time></trkpt><trkpt lat="46.00940118420087" lon="9.303968730171778"><ele>624.6</ele><time>2026-05-02T10:45:39.982Z</time></trkpt><trkpt lat="46.009508796938775" lon="9.303912143584556"><ele>619.2</ele><time>2026-05-02T10:45:40.982Z</time></trkpt><trkpt lat="46.009590656459984" lon="9.303837119675718"><ele>613.8</ele><time>2026-05-02T10:45:41.982Z</time></trkpt><trkpt lat="46.009709652864466" lon="9.303859773009064"><ele>608.4</ele><time>2026-05-02T10:45:42.982Z</time></trkpt><trkpt lat="46.009766308633296" lon="9.303735058058207"><ele>603.0</ele><time>2026-05-02T10:45:43.982Z</time></trkpt><trkpt lat="46.009776807978135" lon="9.303569087196246"><ele>603.0</ele><time>2026-05-02T10:45:44.982Z</time></trkpt><trkpt lat="46.00977790089729" lon="9.30339405624482"><ele>603.0</ele><time>2026-05-02T10:45:45.982Z</time></trkpt><trkpt lat="46.00974359596068" lon="9.303202327436491"><ele>603.0</ele><time>2026-05-02T10:45:46.982Z</time></trkpt><trkpt lat="46.00974418590535" lon="9.303017192357052"><ele>603.0</ele><time>2026-05-02T10:45:47.982Z</time></trkpt><trkpt lat="46.00973805547784" lon="9.302856634016562"><ele>605.0</ele><time>2026-05-02T10:45:48.982Z</time></trkpt><trkpt lat="46.00973879524852" lon="9.30273446622"><ele>607.0</ele><time>2026-05-02T10:45:49.982Z</time></trkpt><trkpt lat="46.009747715371915" lon="9.302624291988343"><ele>609.0</ele><time>2026-05-02T10:45:50.982Z</time></trkpt><trkpt lat="46.00983141083036" lon="9.302513967303668"><ele>611.0</ele><time>2026-05-02T10:45:52.982Z</time></trkpt><trkpt lat="46.00989779285163" lon="9.302480020939184"><ele>613.0</ele><time>2026-05-02T10:45:53.982Z</time></trkpt><trkpt lat="46.009982270012074" lon="9.302430762680697"><ele>615.0</ele><time>2026-05-02T10:45:54.982Z</time></trkpt><trkpt lat="46.01007868967854" lon="9.30239423233096"><ele>615.0</ele><time>2026-05-02T10:45:55.982Z</time></trkpt><trkpt lat="46.01018978269666" lon="9.30234690069359"><ele>615.0</ele><time>2026-05-02T10:45:56.982Z</time></trkpt><trkpt lat="46.010274149946135" lon="9.302240104618976"><ele>615.0</ele><time>2026-05-02T10:45:57.982Z</time></trkpt><trkpt lat="46.0103169522833" lon="9.302086262602039"><ele>615.0</ele><time>2026-05-02T10:45:58.982Z</time></trkpt><trkpt lat="46.01034711877889" lon="9.301924883281075"><ele>609.8</ele><time>2026-05-02T10:45:59.982Z</time></trkpt><trkpt lat="46.010365227161635" lon="9.301770035833481"><ele>604.6</ele><time>2026-05-02T10:46:00.982Z</time></trkpt><trkpt lat="46.0103887929342" lon="9.301625807524177"><ele>599.4</ele><time>2026-05-02T10:46:01.982Z</time></trkpt><trkpt lat="46.01041536747633" lon="9.301483172813802"><ele>594.2</ele><time>2026-05-02T10:46:02.982Z</time></trkpt><trkpt lat="46.010442220119835" lon="9.30134871424065"><ele>589.0</ele><time>2026-05-02T10:46:03.983Z</time></trkpt><trkpt lat="46.01047196094699" lon="9.30121188946554"><ele>583.6666666666667</ele><time>2026-05-02T10:46:04.983Z</time></trkpt><trkpt lat="46.010501424256034" lon="9.301075377143436"><ele>578.3333333333334</ele><time>2026-05-02T10:46:05.983Z</time></trkpt><trkpt lat="46.01052914408203" lon="9.300948226497601"><ele>573.0</ele><time>2026-05-02T10:46:06.983Z</time></trkpt><trkpt lat="46.01055691676509" lon="9.300834871362973"><ele>567.6666666666666</ele><time>2026-05-02T10:46:07.983Z</time></trkpt><trkpt lat="46.01058538474183" lon="9.300728591663287"><ele>562.3333333333333</ele><time>2026-05-02T10:46:08.983Z</time></trkpt><trkpt lat="46.010592019355876" lon="9.300618331776498"><ele>557.0</ele><time>2026-05-02T10:46:09.983Z</time></trkpt><trkpt lat="46.01059542337467" lon="9.300526500106502"><ele>561.0</ele><time>2026-05-02T10:46:10.983Z</time></trkpt><trkpt lat="46.0105920142311" lon="9.300377679342885"><ele>565.0</ele><time>2026-05-02T10:46:12.983Z</time></trkpt><trkpt lat="46.01063624004115" lon="9.30027306895339"><ele>569.0</ele><time>2026-05-02T10:46:14.983Z</time></trkpt><trkpt lat="46.01074597806193" lon="9.300255167551713"><ele>573.0</ele><time>2026-05-02T10:46:16.983Z</time></trkpt><trkpt lat="46.01081946242721" lon="9.300294292290728"><ele>577.0</ele><time>2026-05-02T10:46:17.983Z</time></trkpt><trkpt lat="46.01089711320219" lon="9.300330953860165"><ele>577.0</ele><time>2026-05-02T10:46:18.983Z</time></trkpt><trkpt lat="46.010986681638265" lon="9.300376152453268"><ele>577.0</ele><time>2026-05-02T10:46:19.981Z</time></trkpt><trkpt lat="46.01108658539577" lon="9.30042746580286"><ele>577.0</ele><time>2026-05-02T10:46:20.981Z</time></trkpt><trkpt lat="46.011183145795975" lon="9.300488966314376"><ele>577.0</ele><time>2026-05-02T10:46:21.981Z</time></trkpt><trkpt lat="46.011283489446186" lon="9.300557368528054"><ele>577.0</ele><time>2026-05-02T10:46:22.981Z</time></trkpt><trkpt lat="46.011382084277855" lon="9.300641929268131"><ele>582.0</ele><time>2026-05-02T10:46:23.981Z</time></trkpt><trkpt lat="46.011471246668" lon="9.300737073326463"><ele>587.0</ele><time>2026-05-02T10:46:24.981Z</time></trkpt><trkpt lat="46.0115586397823" lon="9.300831016712221"><ele>592.0</ele><time>2026-05-02T10:46:25.982Z</time></trkpt><trkpt lat="46.01165282260582" lon="9.300903997606795"><ele>597.0</ele><time>2026-05-02T10:46:26.981Z</time></trkpt><trkpt lat="46.01175253191943" lon="9.300965445546948"><ele>602.0</ele><time>2026-05-02T10:46:27.981Z</time></trkpt><trkpt lat="46.01184875730772" lon="9.301019860185459"><ele>602.0</ele><time>2026-05-02T10:46:28.982Z</time></trkpt><trkpt lat="46.01194802588493" lon="9.301075423414398"><ele>602.0</ele><time>2026-05-02T10:46:29.981Z</time></trkpt><trkpt lat="46.01204344381386" lon="9.301156561227774"><ele>602.0</ele><time>2026-05-02T10:46:30.981Z</time></trkpt><trkpt lat="46.01213923132175" lon="9.301255720152197"><ele>602.0</ele><time>2026-05-02T10:46:31.982Z</time></trkpt><trkpt lat="46.01223382491558" lon="9.301363276769122"><ele>604.5</ele><time>2026-05-02T10:46:32.981Z</time></trkpt><trkpt lat="46.01231879827872" lon="9.301475486868338"><ele>607.0</ele><time>2026-05-02T10:46:33.981Z</time></trkpt><trkpt lat="46.0123928919681" lon="9.301597171169753"><ele>609.5</ele><time>2026-05-02T10:46:34.981Z</time></trkpt><trkpt lat="46.012462729424" lon="9.301724806056624"><ele>612.0</ele><time>2026-05-02T10:46:35.981Z</time></trkpt><trkpt lat="46.01253093812837" lon="9.301856180531264"><ele>612.0</ele><time>2026-05-02T10:46:36.981Z</time></trkpt><trkpt lat="46.012574879562386" lon="9.302006105724386"><ele>612.0</ele><time>2026-05-02T10:46:37.981Z</time></trkpt><trkpt lat="46.012643680924484" lon="9.302137016817206"><ele>612.0</ele><time>2026-05-02T10:46:38.981Z</time></trkpt><trkpt lat="46.012722892834454" lon="9.302259803995565"><ele>612.0</ele><time>2026-05-02T10:46:39.981Z</time></trkpt><trkpt lat="46.01279915033246" lon="9.302377692982647"><ele>617.0</ele><time>2026-05-02T10:46:40.981Z</time></trkpt><trkpt lat="46.01287140800111" lon="9.3024758958093"><ele>622.0</ele><time>2026-05-02T10:46:41.981Z</time></trkpt><trkpt lat="46.01294203164368" lon="9.302572521819409"><ele>627.0</ele><time>2026-05-02T10:46:42.981Z</time></trkpt><trkpt lat="46.01303823616398" lon="9.302598447170496"><ele>632.0</ele><time>2026-05-02T10:46:43.981Z</time></trkpt><trkpt lat="46.01312395962058" lon="9.30261478903618"><ele>637.0</ele><time>2026-05-02T10:46:44.981Z</time></trkpt><trkpt lat="46.01322933415716" lon="9.302543912708545"><ele>628.5</ele><time>2026-05-02T10:46:45.981Z</time></trkpt><trkpt lat="46.01332251158408" lon="9.30245942299631"><ele>620.0</ele><time>2026-05-02T10:46:46.981Z</time></trkpt><trkpt lat="46.013410784132965" lon="9.302326665842733"><ele>611.5</ele><time>2026-05-02T10:46:47.981Z</time></trkpt><trkpt lat="46.0134793913564" lon="9.302182597239394"><ele>603.0</ele><time>2026-05-02T10:46:48.981Z</time></trkpt><trkpt lat="46.01356098980718" lon="9.302068386837055"><ele>593.5</ele><time>2026-05-02T10:46:49.981Z</time></trkpt><trkpt lat="46.01366155039144" lon="9.301980369672147"><ele>584.0</ele><time>2026-05-02T10:46:50.981Z</time></trkpt><trkpt lat="46.01377536426801" lon="9.301892721238179"><ele>574.5</ele><time>2026-05-02T10:46:51.981Z</time></trkpt><trkpt lat="46.013886541361195" lon="9.301787235734071"><ele>565.0</ele><time>2026-05-02T10:46:52.981Z</time></trkpt><trkpt lat="46.013982165396136" lon="9.301666299410313"><ele>565.0</ele><time>2026-05-02T10:46:53.981Z</time></trkpt><trkpt lat="46.0140704300989" lon="9.30153177723908"><ele>565.0</ele><time>2026-05-02T10:46:54.981Z</time></trkpt><trkpt lat="46.01414847498892" lon="9.301379294887935"><ele>565.0</ele><time>2026-05-02T10:46:55.981Z</time></trkpt><trkpt lat="46.01424354764091" lon="9.301260772268906"><ele>565.0</ele><time>2026-05-02T10:46:56.981Z</time></trkpt><trkpt lat="46.014330414002934" lon="9.30112846932924"><ele>563.5</ele><time>2026-05-02T10:46:57.981Z</time></trkpt><trkpt lat="46.01441059929763" lon="9.300997619825662"><ele>562.0</ele><time>2026-05-02T10:46:58.981Z</time></trkpt><trkpt lat="46.01449744354632" lon="9.300870469390192"><ele>560.5</ele><time>2026-05-02T10:46:59.981Z</time></trkpt><trkpt lat="46.01459706061305" lon="9.300765084068491"><ele>559.0</ele><time>2026-05-02T10:47:00.981Z</time></trkpt><trkpt lat="46.014699569029794" lon="9.30063668984127"><ele>559.25</ele><time>2026-05-02T10:47:01.981Z</time></trkpt><trkpt lat="46.014812492999056" lon="9.300510911873943"><ele>559.5</ele><time>2026-05-02T10:47:02.981Z</time></trkpt><trkpt lat="46.01491142822248" lon="9.300385949859919"><ele>559.75</ele><time>2026-05-02T10:47:03.981Z</time></trkpt><trkpt lat="46.01501210189399" lon="9.30027594893317"><ele>560.0</ele><time>2026-05-02T10:47:04.981Z</time></trkpt><trkpt lat="46.01510047298546" lon="9.300151682612094"><ele>560.0</ele><time>2026-05-02T10:47:05.981Z</time></trkpt><trkpt lat="46.015181850057964" lon="9.300023952823326"><ele>560.0</ele><time>2026-05-02T10:47:06.981Z</time></trkpt><trkpt lat="46.01525274155797" lon="9.299876909197483"><ele>560.0</ele><time>2026-05-02T10:47:07.981Z</time></trkpt><trkpt lat="46.01531891829184" lon="9.299711568805417"><ele>560.0</ele><time>2026-05-02T10:47:08.981Z</time></trkpt><trkpt lat="46.0153868714233" lon="9.29956686783184"><ele>555.8</ele><time>2026-05-02T10:47:09.981Z</time></trkpt><trkpt lat="46.01545485449885" lon="9.299421181366927"><ele>551.6</ele><time>2026-05-02T10:47:10.981Z</time></trkpt><trkpt lat="46.015531187486985" lon="9.29930976816327"><ele>547.4</ele><time>2026-05-02T10:47:11.981Z</time></trkpt><trkpt lat="46.01559218075762" lon="9.299181591180252"><ele>543.2</ele><time>2026-05-02T10:47:12.981Z</time></trkpt><trkpt lat="46.01565526898777" lon="9.299063593197925"><ele>539.0</ele><time>2026-05-02T10:47:13.981Z</time></trkpt><trkpt lat="46.015725633873046" lon="9.298953941757784"><ele>540.5</ele><time>2026-05-02T10:47:14.981Z</time></trkpt><trkpt lat="46.01580796708035" lon="9.29885451073278"><ele>542.0</ele><time>2026-05-02T10:47:15.982Z</time></trkpt><trkpt lat="46.01590401399347" lon="9.298763367057377"><ele>543.5</ele><time>2026-05-02T10:47:16.982Z</time></trkpt><trkpt lat="46.01600562594568" lon="9.298670152462376"><ele>545.0</ele><time>2026-05-02T10:47:17.982Z</time></trkpt><trkpt lat="46.01609824485819" lon="9.298576285948913"><ele>545.0</ele><time>2026-05-02T10:47:18.982Z</time></trkpt><trkpt lat="46.016186596077944" lon="9.29848774811908"><ele>545.0</ele><time>2026-05-02T10:47:19.982Z</time></trkpt><trkpt lat="46.016266513105485" lon="9.29838966848928"><ele>545.0</ele><time>2026-05-02T10:47:20.982Z</time></trkpt><trkpt lat="46.016339635685526" lon="9.298275125306905"><ele>545.0</ele><time>2026-05-02T10:47:21.982Z</time></trkpt><trkpt lat="46.01641239498545" lon="9.298167250006571"><ele>545.0</ele><time>2026-05-02T10:47:22.982Z</time></trkpt><trkpt lat="46.0164892521898" lon="9.298055273464593"><ele>545.0</ele><time>2026-05-02T10:47:23.982Z</time></trkpt><trkpt lat="46.016567187184414" lon="9.297942443342055"><ele>545.0</ele><time>2026-05-02T10:47:24.982Z</time></trkpt><trkpt lat="46.016643960946865" lon="9.29781538407725"><ele>545.0</ele><time>2026-05-02T10:47:25.982Z</time></trkpt><trkpt lat="46.01671756634938" lon="9.297670321005013"><ele>545.0</ele><time>2026-05-02T10:47:26.982Z</time></trkpt><trkpt lat="46.016784188938765" lon="9.29749682600306"><ele>545.0</ele><time>2026-05-02T10:47:27.982Z</time></trkpt><trkpt lat="46.0168452715353" lon="9.297308015860635"><ele>545.0</ele><time>2026-05-02T10:47:28.982Z</time></trkpt><trkpt lat="46.01690208660184" lon="9.297130344065165"><ele>545.0</ele><time>2026-05-02T10:47:29.982Z</time></trkpt><trkpt lat="46.01695254936982" lon="9.296979154504022"><ele>545.0</ele><time>2026-05-02T10:47:30.982Z</time></trkpt><trkpt lat="46.016997259046725" lon="9.29684952375701"><ele>542.5</ele><time>2026-05-02T10:47:31.982Z</time></trkpt><trkpt lat="46.01703272858066" lon="9.296737665919103"><ele>540.0</ele><time>2026-05-02T10:47:32.982Z</time></trkpt><trkpt lat="46.01707092806119" lon="9.29664615077568"><ele>537.5</ele><time>2026-05-02T10:47:33.982Z</time></trkpt><trkpt lat="46.0171216648849" lon="9.296574203558231"><ele>535.0</ele><time>2026-05-02T10:47:34.982Z</time></trkpt><trkpt lat="46.01720663514797" lon="9.296462002529715"><ele>532.5</ele><time>2026-05-02T10:47:36.982Z</time></trkpt><trkpt lat="46.01722375544161" lon="9.296347631342378"><ele>530.0</ele><time>2026-05-02T10:47:38.982Z</time></trkpt><trkpt lat="46.01714813180069" lon="9.296278102183962"><ele>530.0</ele><time>2026-05-02T10:47:40.982Z</time></trkpt><trkpt lat="46.017028631896245" lon="9.296322066663619"><ele>530.0</ele><time>2026-05-02T10:47:41.982Z</time></trkpt><trkpt lat="46.01697569167605" lon="9.296470190830412"><ele>530.0</ele><time>2026-05-02T10:47:42.982Z</time></trkpt><trkpt lat="46.01692225406019" lon="9.296558504625317"><ele>530.0</ele><time>2026-05-02T10:47:43.982Z</time></trkpt><trkpt lat="46.01686356060767" lon="9.296650009719357"><ele>530.0</ele><time>2026-05-02T10:47:44.982Z</time></trkpt><trkpt lat="46.01680217606674" lon="9.296742776556213"><ele>530.0</ele><time>2026-05-02T10:47:45.982Z</time></trkpt><trkpt lat="46.01673494388428" lon="9.296836942086527"><ele>530.0</ele><time>2026-05-02T10:47:46.982Z</time></trkpt><trkpt lat="46.01666193160142" lon="9.296919589678076"><ele>530.0</ele><time>2026-05-02T10:47:47.982Z</time></trkpt><trkpt lat="46.01660259686744" lon="9.29696296875005"><ele>530.0</ele><time>2026-05-02T10:47:48.982Z</time></trkpt><trkpt lat="46.01653329211702" lon="9.296974952768005"><ele>530.0</ele><time>2026-05-02T10:47:49.982Z</time></trkpt><trkpt lat="46.01646034642819" lon="9.296942497019783"><ele>530.0</ele><time>2026-05-02T10:47:50.982Z</time></trkpt><trkpt lat="46.016382670989074" lon="9.296929074225845"><ele>524.0</ele><time>2026-05-02T10:47:51.982Z</time></trkpt><trkpt lat="46.01631955541452" lon="9.296914094203997"><ele>518.0</ele><time>2026-05-02T10:47:52.982Z</time></trkpt><trkpt lat="46.0162337547995" lon="9.296883029457948"><ele>512.0</ele><time>2026-05-02T10:47:54.982Z</time></trkpt><trkpt lat="46.01621647154147" lon="9.296781685834137"><ele>506.0</ele><time>2026-05-02T10:47:56.982Z</time></trkpt><trkpt lat="46.016288997947306" lon="9.296706513964535"><ele>499.99999999999994</ele><time>2026-05-02T10:47:58.982Z</time></trkpt><trkpt lat="46.01635397546449" lon="9.29672261757892"><ele>494.0</ele><time>2026-05-02T10:47:59.982Z</time></trkpt><trkpt lat="46.016431262161404" lon="9.296763551373443"><ele>493.99999999999994</ele><time>2026-05-02T10:48:00.982Z</time></trkpt><trkpt lat="46.016514741702935" lon="9.296758917677193"><ele>494.0</ele><time>2026-05-02T10:48:01.982Z</time></trkpt><trkpt lat="46.0165812200629" lon="9.296729992576942"><ele>494.0</ele><time>2026-05-02T10:48:02.982Z</time></trkpt><trkpt lat="46.01663659622164" lon="9.29664333608363"><ele>494.0</ele><time>2026-05-02T10:48:03.982Z</time></trkpt><trkpt lat="46.016683592506595" lon="9.296529930986141"><ele>493.99999999999994</ele><time>2026-05-02T10:48:04.982Z</time></trkpt><trkpt lat="46.016727109314026" lon="9.296399609705412"><ele>494.0</ele><time>2026-05-02T10:48:05.982Z</time></trkpt><trkpt lat="46.01678560091307" lon="9.296274314789756"><ele>496.3333333333333</ele><time>2026-05-02T10:48:06.982Z</time></trkpt><trkpt lat="46.016826639776625" lon="9.296165396061275"><ele>498.66666666666663</ele><time>2026-05-02T10:48:07.983Z</time></trkpt><trkpt lat="46.01686866479302" lon="9.296069194602442"><ele>501.0</ele><time>2026-05-02T10:48:08.983Z</time></trkpt><trkpt lat="46.01691659943621" lon="9.295980921933705"><ele>503.33333333333337</ele><time>2026-05-02T10:48:09.983Z</time></trkpt><trkpt lat="46.01696722104314" lon="9.295855267009296"><ele>505.6666666666667</ele><time>2026-05-02T10:48:11.983Z</time></trkpt><trkpt lat="46.01690737136839" lon="9.295754320392925"><ele>508.0</ele><time>2026-05-02T10:48:13.983Z</time></trkpt><trkpt lat="46.01684419123245" lon="9.295773002952664"><ele>508.00000000000006</ele><time>2026-05-02T10:48:14.983Z</time></trkpt><trkpt lat="46.016781291291075" lon="9.295867976986514"><ele>508.0</ele><time>2026-05-02T10:48:15.983Z</time></trkpt><trkpt lat="46.0167108485588" lon="9.29595104469607"><ele>508.0</ele><time>2026-05-02T10:48:16.983Z</time></trkpt><trkpt lat="46.016647181585526" lon="9.296040887180464"><ele>508.0</ele><time>2026-05-02T10:48:17.983Z</time></trkpt><trkpt lat="46.016581342849975" lon="9.296124546206544"><ele>508.00000000000006</ele><time>2026-05-02T10:48:18.983Z</time></trkpt><trkpt lat="46.016517076867785" lon="9.296177730350722"><ele>508.0</ele><time>2026-05-02T10:48:19.983Z</time></trkpt><trkpt lat="46.0163762129077" lon="9.296185924366076"><ele>505.2</ele><time>2026-05-02T10:48:21.983Z</time></trkpt><trkpt lat="46.01628602671742" lon="9.296193529711609"><ele>502.4</ele><time>2026-05-02T10:48:22.983Z</time></trkpt><trkpt lat="46.01619925586597" lon="9.29621654353768"><ele>499.59999999999997</ele><time>2026-05-02T10:48:23.983Z</time></trkpt><trkpt lat="46.01611774645017" lon="9.296266017297157"><ele>496.79999999999995</ele><time>2026-05-02T10:48:24.983Z</time></trkpt><trkpt lat="46.016040129416524" lon="9.296349867765949"><ele>494.0</ele><time>2026-05-02T10:48:25.982Z</time></trkpt><trkpt lat="46.016008638080756" lon="9.296498489669233"><ele>494.0</ele><time>2026-05-02T10:48:26.982Z</time></trkpt><trkpt lat="46.015967100668426" lon="9.296607602770285"><ele>494.0</ele><time>2026-05-02T10:48:27.982Z</time></trkpt><trkpt lat="46.01594146434191" lon="9.296749592551581"><ele>494.0</ele><time>2026-05-02T10:48:28.981Z</time></trkpt><trkpt lat="46.01592473177334" lon="9.296906147422323"><ele>494.0</ele><time>2026-05-02T10:48:29.981Z</time></trkpt><trkpt lat="46.01586720960443" lon="9.297012651833803"><ele>494.0</ele><time>2026-05-02T10:48:30.981Z</time></trkpt><trkpt lat="46.01581144313444" lon="9.297117806272361"><ele>491.6</ele><time>2026-05-02T10:48:31.981Z</time></trkpt><trkpt lat="46.01575242584255" lon="9.297210996819148"><ele>489.2</ele><time>2026-05-02T10:48:32.981Z</time></trkpt><trkpt lat="46.015695549547935" lon="9.297281620036236"><ele>486.80000000000007</ele><time>2026-05-02T10:48:33.981Z</time></trkpt><trkpt lat="46.01557738520549" lon="9.29738839491337"><ele>484.40000000000003</ele><time>2026-05-02T10:48:35.982Z</time></trkpt><trkpt lat="46.015485419527955" lon="9.29744604312512"><ele>482.0</ele><time>2026-05-02T10:48:36.982Z</time></trkpt><trkpt lat="46.015385688246035" lon="9.297509892564186"><ele>482.0</ele><time>2026-05-02T10:48:37.982Z</time></trkpt><trkpt lat="46.015276145150416" lon="9.297584997583277"><ele>482.0</ele><time>2026-05-02T10:48:38.981Z</time></trkpt><trkpt lat="46.015170196298" lon="9.297690637122683"><ele>482.0</ele><time>2026-05-02T10:48:39.981Z</time></trkpt><trkpt lat="46.01506476099697" lon="9.297774121241185"><ele>482.0</ele><time>2026-05-02T10:48:40.982Z</time></trkpt><trkpt lat="46.014963453103334" lon="9.297878350468315"><ele>479.75</ele><time>2026-05-02T10:48:41.982Z</time></trkpt><trkpt lat="46.014876313799796" lon="9.297999415544359"><ele>477.5</ele><time>2026-05-02T10:48:42.982Z</time></trkpt><trkpt lat="46.014786661444084" lon="9.298116383759437"><ele>475.25</ele><time>2026-05-02T10:48:43.982Z</time></trkpt><trkpt lat="46.01472521759574" lon="9.298250796853637"><ele>473.0</ele><time>2026-05-02T10:48:44.982Z</time></trkpt><trkpt lat="46.0146371681892" lon="9.298350836581156"><ele>473.0</ele><time>2026-05-02T10:48:45.982Z</time></trkpt><trkpt lat="46.0145705097556" lon="9.298473069225524"><ele>472.99999999999994</ele><time>2026-05-02T10:48:46.982Z</time></trkpt><trkpt lat="46.01449553717153" lon="9.298600172340155"><ele>472.99999999999994</ele><time>2026-05-02T10:48:47.982Z</time></trkpt><trkpt lat="46.014409609387016" lon="9.298707914994992"><ele>473.0</ele><time>2026-05-02T10:48:48.982Z</time></trkpt><trkpt lat="46.01432514349705" lon="9.298806074024364"><ele>473.0</ele><time>2026-05-02T10:48:49.982Z</time></trkpt><trkpt lat="46.01423986764251" lon="9.298905822742137"><ele>476.79999999999995</ele><time>2026-05-02T10:48:50.982Z</time></trkpt><trkpt lat="46.01417855248877" lon="9.299036397977385"><ele>480.59999999999997</ele><time>2026-05-02T10:48:51.982Z</time></trkpt><trkpt lat="46.01413447081449" lon="9.299157193571842"><ele>484.40000000000003</ele><time>2026-05-02T10:48:52.982Z</time></trkpt><trkpt lat="46.01409184827931" lon="9.29925660891497"><ele>488.20000000000005</ele><time>2026-05-02T10:48:53.982Z</time></trkpt><trkpt lat="46.014046593923254" lon="9.299398273759707"><ele>492.0</ele><time>2026-05-02T10:48:55.982Z</time></trkpt><trkpt lat="46.01399714042585" lon="9.299505700739312"><ele>492.0</ele><time>2026-05-02T10:48:57.982Z</time></trkpt><trkpt lat="46.01393410767185" lon="9.299595103996468"><ele>492.00000000000006</ele><time>2026-05-02T10:49:00.982Z</time></trkpt><trkpt lat="46.013890711589774" lon="9.299486581889493"><ele>492.00000000000006</ele><time>2026-05-02T10:49:04.982Z</time></trkpt><trkpt lat="46.01393961142452" lon="9.299395543546254"><ele>492.0</ele><time>2026-05-02T10:49:05.982Z</time></trkpt><trkpt lat="46.01401465014418" lon="9.299295246601904"><ele>492.0</ele><time>2026-05-02T10:49:06.982Z</time></trkpt><trkpt lat="46.01407806826536" lon="9.299169771577697"><ele>492.0</ele><time>2026-05-02T10:49:07.982Z</time></trkpt><trkpt lat="46.01412141874803" lon="9.299011486853841"><ele>492.0</ele><time>2026-05-02T10:49:08.982Z</time></trkpt><trkpt lat="46.01416380254717" lon="9.298841315333297"><ele>492.0</ele><time>2026-05-02T10:49:09.982Z</time></trkpt><trkpt lat="46.0141968538897" lon="9.298668135022607"><ele>492.0</ele><time>2026-05-02T10:49:10.982Z</time></trkpt><trkpt lat="46.014239971328905" lon="9.298506905736918"><ele>487.25</ele><time>2026-05-02T10:49:11.982Z</time></trkpt><trkpt lat="46.01430188300966" lon="9.298363286885984"><ele>482.5</ele><time>2026-05-02T10:49:12.982Z</time></trkpt><trkpt lat="46.014374189529" lon="9.29823190977029"><ele>477.75</ele><time>2026-05-02T10:49:13.982Z</time></trkpt><trkpt lat="46.014415252249414" lon="9.298064773220464"><ele>473.0</ele><time>2026-05-02T10:49:14.982Z</time></trkpt><trkpt lat="46.01445532707948" lon="9.297910412257618"><ele>468.4</ele><time>2026-05-02T10:49:15.982Z</time></trkpt><trkpt lat="46.01448635031589" lon="9.29776619398629"><ele>463.79999999999995</ele><time>2026-05-02T10:49:16.982Z</time></trkpt><trkpt lat="46.01451539887828" lon="9.297623907832422"><ele>459.2</ele><time>2026-05-02T10:49:17.982Z</time></trkpt><trkpt lat="46.014558021629995" lon="9.297494228688553"><ele>454.6</ele><time>2026-05-02T10:49:18.982Z</time></trkpt><trkpt lat="46.01460385988039" lon="9.297370269440396"><ele>450.0</ele><time>2026-05-02T10:49:19.982Z</time></trkpt><trkpt lat="46.01467580237124" lon="9.297277433284856"><ele>451.4</ele><time>2026-05-02T10:49:20.982Z</time></trkpt><trkpt lat="46.01474516220023" lon="9.297193603431499"><ele>452.8</ele><time>2026-05-02T10:49:21.982Z</time></trkpt><trkpt lat="46.014812429589796" lon="9.297105662948422"><ele>454.20000000000005</ele><time>2026-05-02T10:49:22.982Z</time></trkpt><trkpt lat="46.01489980778341" lon="9.297074292397514"><ele>455.6</ele><time>2026-05-02T10:49:23.982Z</time></trkpt><trkpt lat="46.014991147478604" lon="9.297034381878946"><ele>457.0</ele><time>2026-05-02T10:49:24.982Z</time></trkpt><trkpt lat="46.015077585572556" lon="9.296984839508179"><ele>457.0</ele><time>2026-05-02T10:49:25.982Z</time></trkpt><trkpt lat="46.01516440795983" lon="9.296951876060781"><ele>457.00000000000006</ele><time>2026-05-02T10:49:26.982Z</time></trkpt><trkpt lat="46.01524311945205" lon="9.296894661866318"><ele>457.00000000000006</ele><time>2026-05-02T10:49:27.982Z</time></trkpt><trkpt lat="46.01531311001396" lon="9.296810334799858"><ele>457.0</ele><time>2026-05-02T10:49:28.982Z</time></trkpt><trkpt lat="46.01538651666373" lon="9.296727449750547"><ele>457.0</ele><time>2026-05-02T10:49:29.982Z</time></trkpt><trkpt lat="46.01545156613732" lon="9.296624908379176"><ele>457.0</ele><time>2026-05-02T10:49:30.982Z</time></trkpt><trkpt lat="46.01551537613304" lon="9.296496474955216"><ele>457.0</ele><time>2026-05-02T10:49:31.982Z</time></trkpt><trkpt lat="46.01556693853353" lon="9.296331331827107"><ele>457.0</ele><time>2026-05-02T10:49:32.982Z</time></trkpt><trkpt lat="46.015614041258246" lon="9.296134004659732"><ele>457.0</ele><time>2026-05-02T10:49:33.983Z</time></trkpt><trkpt lat="46.01565918294335" lon="9.295973923204793"><ele>454.6</ele><time>2026-05-02T10:49:34.983Z</time></trkpt><trkpt lat="46.01571133915938" lon="9.295833982487824"><ele>452.20000000000005</ele><time>2026-05-02T10:49:35.983Z</time></trkpt><trkpt lat="46.015762024565326" lon="9.295692834036416"><ele>449.8</ele><time>2026-05-02T10:49:36.983Z</time></trkpt><trkpt lat="46.01580475395491" lon="9.295552951586432"><ele>447.4</ele><time>2026-05-02T10:49:37.983Z</time></trkpt><trkpt lat="46.01583760926254" lon="9.295402559485739"><ele>445.0</ele><time>2026-05-02T10:49:38.983Z</time></trkpt><trkpt lat="46.015858646897996" lon="9.295249543932803"><ele>445.0</ele><time>2026-05-02T10:49:39.983Z</time></trkpt><trkpt lat="46.01587617080284" lon="9.295098681889703"><ele>445.0</ele><time>2026-05-02T10:49:40.983Z</time></trkpt><trkpt lat="46.015894725759146" lon="9.294951141807053"><ele>445.0</ele><time>2026-05-02T10:49:41.983Z</time></trkpt><trkpt lat="46.01593469125563" lon="9.294806003865496"><ele>445.0</ele><time>2026-05-02T10:49:42.983Z</time></trkpt><trkpt lat="46.015985969577905" lon="9.294685357419194"><ele>445.0</ele><time>2026-05-02T10:49:43.983Z</time></trkpt><trkpt lat="46.016055586243354" lon="9.294597271130728"><ele>441.8</ele><time>2026-05-02T10:49:44.983Z</time></trkpt><trkpt lat="46.01614948410392" lon="9.29449907688875"><ele>438.6</ele><time>2026-05-02T10:49:45.983Z</time></trkpt><trkpt lat="46.01623738387718" lon="9.294434134350439"><ele>435.4</ele><time>2026-05-02T10:49:46.983Z</time></trkpt><trkpt lat="46.01631618012472" lon="9.294363799356294"><ele>432.2</ele><time>2026-05-02T10:49:47.983Z</time></trkpt><trkpt lat="46.01638890974532" lon="9.294299621582232"><ele>429.0</ele><time>2026-05-02T10:49:48.983Z</time></trkpt><trkpt lat="46.01643627375532" lon="9.294238728176781"><ele>429.0</ele><time>2026-05-02T10:49:49.983Z</time></trkpt><trkpt lat="46.01651414350602" lon="9.294131101035749"><ele>429.0</ele><time>2026-05-02T10:49:51.983Z</time></trkpt><trkpt lat="46.01640223235642" lon="9.29405150181387"><ele>429.0</ele><time>2026-05-02T10:49:53.983Z</time></trkpt><trkpt lat="46.01625496042679" lon="9.294143820602"><ele>429.0</ele><time>2026-05-02T10:49:55.983Z</time></trkpt><trkpt lat="46.01616432659435" lon="9.294232186308108"><ele>429.0</ele><time>2026-05-02T10:49:56.983Z</time></trkpt><trkpt lat="46.01604526216532" lon="9.294278678197578"><ele>429.0</ele><time>2026-05-02T10:49:57.983Z</time></trkpt><trkpt lat="46.01594212176549" lon="9.29429597594219"><ele>429.0</ele><time>2026-05-02T10:49:58.983Z</time></trkpt><trkpt lat="46.01581318535263" lon="9.294328027791487"><ele>429.0</ele><time>2026-05-02T10:49:59.983Z</time></trkpt><trkpt lat="46.01572585363664" lon="9.294385002263924"><ele>425.6</ele><time>2026-05-02T10:50:00.983Z</time></trkpt><trkpt lat="46.015645499424615" lon="9.294452710691262"><ele>422.2</ele><time>2026-05-02T10:50:01.983Z</time></trkpt><trkpt lat="46.01557510149874" lon="9.294576662379422"><ele>418.8</ele><time>2026-05-02T10:50:02.983Z</time></trkpt><trkpt lat="46.015518816991495" lon="9.294706342178248"><ele>415.40000000000003</ele><time>2026-05-02T10:50:03.983Z</time></trkpt><trkpt lat="46.01547270470031" lon="9.294833956224513"><ele>412.0</ele><time>2026-05-02T10:50:04.983Z</time></trkpt><trkpt lat="46.01542699065784" lon="9.295003920655404"><ele>412.0</ele><time>2026-05-02T10:50:05.983Z</time></trkpt><trkpt lat="46.01537409400023" lon="9.295164357098455"><ele>412.0</ele><time>2026-05-02T10:50:06.983Z</time></trkpt><trkpt lat="46.01532451593753" lon="9.295307817528142"><ele>412.0</ele><time>2026-05-02T10:50:07.983Z</time></trkpt><trkpt lat="46.01525308766611" lon="9.2954271703765"><ele>412.0</ele><time>2026-05-02T10:50:08.983Z</time></trkpt><trkpt lat="46.01517766445994" lon="9.295532747973496"><ele>412.0</ele><time>2026-05-02T10:50:09.983Z</time></trkpt><trkpt lat="46.01509315439809" lon="9.295632975235923"><ele>411.6</ele><time>2026-05-02T10:50:10.983Z</time></trkpt><trkpt lat="46.01500159905081" lon="9.295695640037783"><ele>411.20000000000005</ele><time>2026-05-02T10:50:11.983Z</time></trkpt><trkpt lat="46.014907323603666" lon="9.295767324457248"><ele>410.8</ele><time>2026-05-02T10:50:12.983Z</time></trkpt><trkpt lat="46.01484894287059" lon="9.295883815228775"><ele>410.4</ele><time>2026-05-02T10:50:13.983Z</time></trkpt><trkpt lat="46.01476721615309" lon="9.295936752174988"><ele>410.0</ele><time>2026-05-02T10:50:14.983Z</time></trkpt><trkpt lat="46.01467294841059" lon="9.295976609204335"><ele>410.0</ele><time>2026-05-02T10:50:15.983Z</time></trkpt><trkpt lat="46.01456995438452" lon="9.296042846286591"><ele>410.0</ele><time>2026-05-02T10:50:16.983Z</time></trkpt><trkpt lat="46.01446879021312" lon="9.296133595005925"><ele>410.0</ele><time>2026-05-02T10:50:17.983Z</time></trkpt><trkpt lat="46.01439066974569" lon="9.296230468835251"><ele>410.0</ele><time>2026-05-02T10:50:18.983Z</time></trkpt><trkpt lat="46.01429319085963" lon="9.296277306171076"><ele>410.0</ele><time>2026-05-02T10:50:19.983Z</time></trkpt><trkpt lat="46.01421604475946" lon="9.296358295923852"><ele>410.49999999999994</ele><time>2026-05-02T10:50:20.983Z</time></trkpt><trkpt lat="46.014156889505" lon="9.296422870118342"><ele>411.0</ele><time>2026-05-02T10:50:21.983Z</time></trkpt><trkpt lat="46.01409870271193" lon="9.296482024039738"><ele>411.5</ele><time>2026-05-02T10:50:22.983Z</time></trkpt><trkpt lat="46.01404613844865" lon="9.29653417744475"><ele>412.0</ele><time>2026-05-02T10:50:23.983Z</time></trkpt><trkpt lat="46.013966566119066" lon="9.296646651481632"><ele>412.49999999999994</ele><time>2026-05-02T10:50:25.984Z</time></trkpt><trkpt lat="46.01391961427351" lon="9.29671490450143"><ele>413.0</ele><time>2026-05-02T10:50:26.984Z</time></trkpt><trkpt lat="46.01386480648487" lon="9.29679078702433"><ele>413.0</ele><time>2026-05-02T10:50:27.984Z</time></trkpt><trkpt lat="46.0137998549186" lon="9.296818281740123"><ele>413.0</ele><time>2026-05-02T10:50:28.984Z</time></trkpt><trkpt lat="46.01369174329529" lon="9.296874604440788"><ele>413.0</ele><time>2026-05-02T10:50:30.984Z</time></trkpt><trkpt lat="46.013606378580675" lon="9.296849887676586"><ele>413.0</ele><time>2026-05-02T10:50:33.983Z</time></trkpt><trkpt lat="46.01368700285882" lon="9.296717640759406"><ele>413.0</ele><time>2026-05-02T10:50:35.982Z</time></trkpt><trkpt lat="46.01375280904051" lon="9.296634366107352"><ele>413.0</ele><time>2026-05-02T10:50:37.982Z</time></trkpt><trkpt lat="46.01384848817524" lon="9.296513774237896"><ele>413.0</ele><time>2026-05-02T10:50:39.982Z</time></trkpt><trkpt lat="46.013918586313096" lon="9.296429826697095"><ele>413.0</ele><time>2026-05-02T10:50:40.983Z</time></trkpt><trkpt lat="46.013978133734255" lon="9.296309971867029"><ele>413.0</ele><time>2026-05-02T10:50:41.982Z</time></trkpt><trkpt lat="46.01403759541688" lon="9.29620686637457"><ele>413.0</ele><time>2026-05-02T10:50:42.982Z</time></trkpt><trkpt lat="46.01409891252978" lon="9.29608676493555"><ele>412.4</ele><time>2026-05-02T10:50:43.982Z</time></trkpt><trkpt lat="46.01416101680859" lon="9.295970772147653"><ele>411.79999999999995</ele><time>2026-05-02T10:50:44.982Z</time></trkpt><trkpt lat="46.014223077351545" lon="9.29585893734481"><ele>411.2</ele><time>2026-05-02T10:50:45.982Z</time></trkpt><trkpt lat="46.01430069469003" lon="9.295766248475289"><ele>410.6</ele><time>2026-05-02T10:50:46.983Z</time></trkpt><trkpt lat="46.0143850831784" lon="9.295683404541805"><ele>410.0</ele><time>2026-05-02T10:50:47.983Z</time></trkpt><trkpt lat="46.014479514061534" lon="9.295604335137496"><ele>405.5</ele><time>2026-05-02T10:50:48.983Z</time></trkpt><trkpt lat="46.01457590291051" lon="9.295523404479297"><ele>401.0</ele><time>2026-05-02T10:50:49.983Z</time></trkpt><trkpt lat="46.01466897404473" lon="9.295428287274046"><ele>396.5</ele><time>2026-05-02T10:50:50.983Z</time></trkpt><trkpt lat="46.01475201202529" lon="9.295316051494247"><ele>392.0</ele><time>2026-05-02T10:50:51.983Z</time></trkpt><trkpt lat="46.01483797137632" lon="9.295215415995706"><ele>392.0</ele><time>2026-05-02T10:50:52.983Z</time></trkpt><trkpt lat="46.014919011993065" lon="9.295116001338634"><ele>392.0</ele><time>2026-05-02T10:50:53.983Z</time></trkpt><trkpt lat="46.01498998471967" lon="9.295019002280677"><ele>392.0</ele><time>2026-05-02T10:50:54.983Z</time></trkpt><trkpt lat="46.01504742405692" lon="9.294932902391944"><ele>392.0</ele><time>2026-05-02T10:50:55.983Z</time></trkpt><trkpt lat="46.015098720084" lon="9.294859623027893"><ele>392.0</ele><time>2026-05-02T10:50:56.983Z</time></trkpt><trkpt lat="46.01517216028552" lon="9.294731101038437"><ele>392.0</ele><time>2026-05-02T10:50:58.983Z</time></trkpt><trkpt lat="46.01511978778773" lon="9.29462386661096"><ele>392.0</ele><time>2026-05-02T10:51:00.983Z</time></trkpt><trkpt lat="46.01503742733226" lon="9.294555266679806"><ele>392.0</ele><time>2026-05-02T10:51:01.983Z</time></trkpt><trkpt lat="46.01493444202292" lon="9.294655819465232"><ele>392.0</ele><time>2026-05-02T10:51:02.983Z</time></trkpt><trkpt lat="46.01484350912359" lon="9.294724462048915"><ele>392.0</ele><time>2026-05-02T10:51:03.983Z</time></trkpt><trkpt lat="46.01474022685602" lon="9.294797846004068"><ele>392.0</ele><time>2026-05-02T10:51:04.983Z</time></trkpt><trkpt lat="46.014639698676405" lon="9.29487764701598"><ele>392.0</ele><time>2026-05-02T10:51:05.983Z</time></trkpt><trkpt lat="46.014542003641445" lon="9.294947254763885"><ele>392.0</ele><time>2026-05-02T10:51:06.983Z</time></trkpt><trkpt lat="46.01446167559371" lon="9.295043415747726"><ele>392.0</ele><time>2026-05-02T10:51:07.983Z</time></trkpt><trkpt lat="46.01437232713914" lon="9.295116260310545"><ele>392.0</ele><time>2026-05-02T10:51:08.983Z</time></trkpt><trkpt lat="46.01429910824914" lon="9.295190618016816"><ele>392.0</ele><time>2026-05-02T10:51:09.983Z</time></trkpt><trkpt lat="46.01422023395936" lon="9.295266927187622"><ele>392.0</ele><time>2026-05-02T10:51:10.983Z</time></trkpt><trkpt lat="46.014137503421836" lon="9.29533790951859"><ele>392.0</ele><time>2026-05-02T10:51:11.983Z</time></trkpt><trkpt lat="46.01405246728846" lon="9.295408534529766"><ele>392.0</ele><time>2026-05-02T10:51:12.983Z</time></trkpt><trkpt lat="46.01399158318314" lon="9.295449470319683"><ele>392.0</ele><time>2026-05-02T10:51:13.983Z</time></trkpt><trkpt lat="46.013897954722616" lon="9.295522869551444"><ele>390.16666666666663</ele><time>2026-05-02T10:51:15.983Z</time></trkpt><trkpt lat="46.01383233798355" lon="9.29554476991321"><ele>388.3333333333333</ele><time>2026-05-02T10:51:17.983Z</time></trkpt><trkpt lat="46.01376602021564" lon="9.295491722724156"><ele>386.5</ele><time>2026-05-02T10:51:20.983Z</time></trkpt><trkpt lat="46.01376646999211" lon="9.295341670663726"><ele>384.66666666666663</ele><time>2026-05-02T10:51:22.983Z</time></trkpt><trkpt lat="46.013807503171854" lon="9.295247490729896"><ele>382.8333333333333</ele><time>2026-05-02T10:51:23.983Z</time></trkpt><trkpt lat="46.01386225564107" lon="9.29514941514167"><ele>381.0</ele><time>2026-05-02T10:51:24.983Z</time></trkpt><trkpt lat="46.0139330581084" lon="9.29505293086405"><ele>381.0</ele><time>2026-05-02T10:51:25.983Z</time></trkpt><trkpt lat="46.014024356968015" lon="9.294973637458344"><ele>381.0</ele><time>2026-05-02T10:51:26.983Z</time></trkpt><trkpt lat="46.01411794673545" lon="9.29489182192371"><ele>381.0</ele><time>2026-05-02T10:51:27.983Z</time></trkpt><trkpt lat="46.014212471817316" lon="9.294802664003086"><ele>381.0</ele><time>2026-05-02T10:51:28.983Z</time></trkpt><trkpt lat="46.01430890018899" lon="9.29471100907335"><ele>381.0</ele><time>2026-05-02T10:51:29.983Z</time></trkpt><trkpt lat="46.01440043518661" lon="9.294628325544256"><ele>380.20000000000005</ele><time>2026-05-02T10:51:30.983Z</time></trkpt><trkpt lat="46.014487181479055" lon="9.29453612367767"><ele>379.40000000000003</ele><time>2026-05-02T10:51:31.983Z</time></trkpt><trkpt lat="46.014567848391835" lon="9.29444554696688"><ele>378.6</ele><time>2026-05-02T10:51:32.983Z</time></trkpt><trkpt lat="46.01465014788927" lon="9.294362255426126"><ele>377.8</ele><time>2026-05-02T10:51:33.983Z</time></trkpt><trkpt lat="46.014719288565125" lon="9.29426612771112"><ele>377.0</ele><time>2026-05-02T10:51:34.983Z</time></trkpt><trkpt lat="46.01477272578769" lon="9.294158723309256"><ele>377.0</ele><time>2026-05-02T10:51:35.983Z</time></trkpt><trkpt lat="46.01480474972466" lon="9.294040815127305"><ele>377.0</ele><time>2026-05-02T10:51:36.983Z</time></trkpt><trkpt lat="46.014826214844824" lon="9.293897001819754"><ele>377.0</ele><time>2026-05-02T10:51:37.983Z</time></trkpt><trkpt lat="46.01484229684608" lon="9.293775345444129"><ele>377.0</ele><time>2026-05-02T10:51:38.984Z</time></trkpt><trkpt lat="46.0148584729536" lon="9.293653993393349"><ele>377.0</ele><time>2026-05-02T10:51:39.984Z</time></trkpt><trkpt lat="46.01489950130582" lon="9.293556892711441"><ele>377.0</ele><time>2026-05-02T10:51:40.984Z</time></trkpt><trkpt lat="46.01494318903129" lon="9.293479509076677"><ele>377.0</ele><time>2026-05-02T10:51:41.984Z</time></trkpt><trkpt lat="46.01501538190314" lon="9.293431357948203"><ele>377.0</ele><time>2026-05-02T10:51:42.984Z</time></trkpt><trkpt lat="46.01507173839854" lon="9.293341571916613"><ele>377.0</ele><time>2026-05-02T10:51:43.984Z</time></trkpt><trkpt lat="46.01510481630995" lon="9.293241994247598"><ele>377.0</ele><time>2026-05-02T10:51:44.984Z</time></trkpt><trkpt lat="46.01513802212592" lon="9.293133390980099"><ele>377.0</ele><time>2026-05-02T10:51:45.984Z</time></trkpt><trkpt lat="46.01516240079212" lon="9.293001481588597"><ele>377.0</ele><time>2026-05-02T10:51:46.984Z</time></trkpt><trkpt lat="46.015216566663085" lon="9.292890785813448"><ele>374.83333333333337</ele><time>2026-05-02T10:51:47.984Z</time></trkpt><trkpt lat="46.01524367615607" lon="9.292767079870595"><ele>372.6666666666667</ele><time>2026-05-02T10:51:48.984Z</time></trkpt><trkpt lat="46.01526399948735" lon="9.292654451374899"><ele>370.5</ele><time>2026-05-02T10:51:49.984Z</time></trkpt><trkpt lat="46.01528229413498" lon="9.292539995899798"><ele>368.3333333333333</ele><time>2026-05-02T10:51:50.984Z</time></trkpt><trkpt lat="46.01530840177626" lon="9.29243942148516"><ele>366.16666666666663</ele><time>2026-05-02T10:51:51.984Z</time></trkpt><trkpt lat="46.01534975924938" lon="9.292330292970968"><ele>364.0</ele><time>2026-05-02T10:51:52.984Z</time></trkpt><trkpt lat="46.01540291842558" lon="9.29223297297608"><ele>362.8333333333333</ele><time>2026-05-02T10:51:53.984Z</time></trkpt><trkpt lat="46.01546797831714" lon="9.292138094969983"><ele>361.66666666666663</ele><time>2026-05-02T10:51:54.984Z</time></trkpt><trkpt lat="46.015532152052714" lon="9.292039751130034"><ele>360.5</ele><time>2026-05-02T10:51:55.984Z</time></trkpt><trkpt lat="46.015602947383776" lon="9.291984244384302"><ele>359.3333333333333</ele><time>2026-05-02T10:51:56.984Z</time></trkpt><trkpt lat="46.01567240086096" lon="9.291914673058834"><ele>358.1666666666667</ele><time>2026-05-02T10:51:57.984Z</time></trkpt><trkpt lat="46.01574437289265" lon="9.291831366833499"><ele>357.0</ele><time>2026-05-02T10:51:58.984Z</time></trkpt><trkpt lat="46.0158107064044" lon="9.291720128916682"><ele>355.8</ele><time>2026-05-02T10:51:59.984Z</time></trkpt><trkpt lat="46.015868488830264" lon="9.291592452426112"><ele>354.6</ele><time>2026-05-02T10:52:00.984Z</time></trkpt><trkpt lat="46.0159260201969" lon="9.291468536603386"><ele>353.40000000000003</ele><time>2026-05-02T10:52:01.984Z</time></trkpt><trkpt lat="46.015974685886476" lon="9.291360068581788"><ele>352.20000000000005</ele><time>2026-05-02T10:52:02.984Z</time></trkpt><trkpt lat="46.01602306079066" lon="9.29125703230503"><ele>351.0</ele><time>2026-05-02T10:52:03.984Z</time></trkpt><trkpt lat="46.016087904726426" lon="9.291165523753186"><ele>351.0</ele><time>2026-05-02T10:52:04.984Z</time></trkpt><trkpt lat="46.01616618058742" lon="9.291097973007293"><ele>351.0</ele><time>2026-05-02T10:52:05.984Z</time></trkpt><trkpt lat="46.01625283276051" lon="9.291008314242994"><ele>351.0</ele><time>2026-05-02T10:52:06.984Z</time></trkpt><trkpt lat="46.01633232501306" lon="9.290909372190322"><ele>351.0</ele><time>2026-05-02T10:52:07.984Z</time></trkpt><trkpt lat="46.016400261334816" lon="9.290806038717283"><ele>351.0</ele><time>2026-05-02T10:52:08.984Z</time></trkpt><trkpt lat="46.01645812083095" lon="9.290704328678782"><ele>351.0</ele><time>2026-05-02T10:52:09.984Z</time></trkpt><trkpt lat="46.01650446266678" lon="9.290595211087455"><ele>351.0</ele><time>2026-05-02T10:52:10.984Z</time></trkpt><trkpt lat="46.01654274805581" lon="9.290493017279816"><ele>351.0</ele><time>2026-05-02T10:52:11.984Z</time></trkpt><trkpt lat="46.01657490515064" lon="9.290398990372987"><ele>351.0</ele><time>2026-05-02T10:52:12.984Z</time></trkpt><trkpt lat="46.016619554295005" lon="9.29032454521542"><ele>351.0</ele><time>2026-05-02T10:52:13.984Z</time></trkpt><trkpt lat="46.01668805838063" lon="9.29028777496286"><ele>351.0</ele><time>2026-05-02T10:52:14.984Z</time></trkpt><trkpt lat="46.016769620720815" lon="9.290244385205586"><ele>349.8333333333333</ele><time>2026-05-02T10:52:15.984Z</time></trkpt><trkpt lat="46.01685310846655" lon="9.290186480604941"><ele>348.6666666666667</ele><time>2026-05-02T10:52:16.984Z</time></trkpt><trkpt lat="46.01693673877802" lon="9.290126195414732"><ele>347.5</ele><time>2026-05-02T10:52:17.984Z</time></trkpt><trkpt lat="46.01701336313436" lon="9.290074336105528"><ele>346.33333333333337</ele><time>2026-05-02T10:52:18.984Z</time></trkpt><trkpt lat="46.017090814876255" lon="9.290040104593176"><ele>345.1666666666667</ele><time>2026-05-02T10:52:19.984Z</time></trkpt><trkpt lat="46.01715437050553" lon="9.290012071789295"><ele>344.0</ele><time>2026-05-02T10:52:20.984Z</time></trkpt><trkpt lat="46.017211812037765" lon="9.289972534391325"><ele>344.0</ele><time>2026-05-02T10:52:21.984Z</time></trkpt><trkpt lat="46.017231622607106" lon="9.289840254724282"><ele>344.0</ele><time>2026-05-02T10:52:23.984Z</time></trkpt><trkpt lat="46.01722121827352" lon="9.289728117789982"><ele>344.0</ele><time>2026-05-02T10:52:24.984Z</time></trkpt><trkpt lat="46.017130692993646" lon="9.289698399531552"><ele>344.0</ele><time>2026-05-02T10:52:25.984Z</time></trkpt><trkpt lat="46.01704305216321" lon="9.289768252296906"><ele>344.0</ele><time>2026-05-02T10:52:26.984Z</time></trkpt><trkpt lat="46.0169647863101" lon="9.289835744354"><ele>344.0</ele><time>2026-05-02T10:52:27.984Z</time></trkpt><trkpt lat="46.016883735890225" lon="9.289907302030175"><ele>344.0</ele><time>2026-05-02T10:52:28.984Z</time></trkpt><trkpt lat="46.01679770923448" lon="9.289971708085034"><ele>344.0</ele><time>2026-05-02T10:52:29.984Z</time></trkpt><trkpt lat="46.01671510931979" lon="9.290012421172932"><ele>344.0</ele><time>2026-05-02T10:52:30.984Z</time></trkpt><trkpt lat="46.01661682164363" lon="9.290050339713936"><ele>344.0</ele><time>2026-05-02T10:52:31.984Z</time></trkpt><trkpt lat="46.01651015401796" lon="9.29008866884092"><ele>339.25</ele><time>2026-05-02T10:52:32.985Z</time></trkpt><trkpt lat="46.01639430937854" lon="9.290131472185506"><ele>334.5</ele><time>2026-05-02T10:52:33.985Z</time></trkpt><trkpt lat="46.01628379601335" lon="9.290197837826412"><ele>329.75</ele><time>2026-05-02T10:52:34.985Z</time></trkpt><trkpt lat="46.0161900302199" lon="9.29028261242821"><ele>325.0</ele><time>2026-05-02T10:52:35.985Z</time></trkpt><trkpt lat="46.016103349487544" lon="9.290371332257136"><ele>325.0</ele><time>2026-05-02T10:52:36.985Z</time></trkpt><trkpt lat="46.01602076904125" lon="9.290457371920995"><ele>325.0</ele><time>2026-05-02T10:52:37.982Z</time></trkpt><trkpt lat="46.015944257476036" lon="9.290539634767907"><ele>325.0</ele><time>2026-05-02T10:52:38.982Z</time></trkpt><trkpt lat="46.01588229625808" lon="9.290603977464746"><ele>325.0</ele><time>2026-05-02T10:52:39.982Z</time></trkpt><trkpt lat="46.015828826302695" lon="9.290654967414032"><ele>325.0</ele><time>2026-05-02T10:52:40.982Z</time></trkpt><trkpt lat="46.0157444157145" lon="9.290646033792344"><ele>325.0</ele><time>2026-05-02T10:52:42.982Z</time></trkpt><trkpt lat="46.01571817583468" lon="9.290504331261282"><ele>325.0</ele><time>2026-05-02T10:52:44.982Z</time></trkpt><trkpt lat="46.01584987832365" lon="9.29039469591918"><ele>325.0</ele><time>2026-05-02T10:52:46.982Z</time></trkpt><trkpt lat="46.01592484944857" lon="9.29033967322949"><ele>325.0</ele><time>2026-05-02T10:52:47.982Z</time></trkpt><trkpt lat="46.0160098883137" lon="9.290277335787708"><ele>325.0</ele><time>2026-05-02T10:52:48.982Z</time></trkpt><trkpt lat="46.01610252793247" lon="9.290195138002987"><ele>325.0</ele><time>2026-05-02T10:52:49.982Z</time></trkpt><trkpt lat="46.016195470064005" lon="9.290103470349408"><ele>325.0</ele><time>2026-05-02T10:52:50.981Z</time></trkpt><trkpt lat="46.016283662726146" lon="9.290002896443852"><ele>325.0</ele><time>2026-05-02T10:52:51.981Z</time></trkpt><trkpt lat="46.016365445968205" lon="9.289907546603667"><ele>325.0</ele><time>2026-05-02T10:52:52.981Z</time></trkpt><trkpt lat="46.016453542806545" lon="9.289832490724837"><ele>325.0</ele><time>2026-05-02T10:52:53.981Z</time></trkpt><trkpt lat="46.01654635417909" lon="9.289765465914819"><ele>325.0</ele><time>2026-05-02T10:52:54.981Z</time></trkpt><trkpt lat="46.01665105158109" lon="9.289714972076757"><ele>321.0</ele><time>2026-05-02T10:52:55.981Z</time></trkpt><trkpt lat="46.01676525142405" lon="9.289657477371266"><ele>317.0</ele><time>2026-05-02T10:52:56.981Z</time></trkpt><trkpt lat="46.016885024376094" lon="9.289594088056718"><ele>313.0</ele><time>2026-05-02T10:52:57.981Z</time></trkpt><trkpt lat="46.01700057272216" lon="9.289538480943488"><ele>309.0</ele><time>2026-05-02T10:52:58.981Z</time></trkpt><trkpt lat="46.017109608357856" lon="9.289482863499748"><ele>309.0</ele><time>2026-05-02T10:52:59.981Z</time></trkpt><trkpt lat="46.01721052159032" lon="9.289439007407434"><ele>309.0</ele><time>2026-05-02T10:53:00.981Z</time></trkpt><trkpt lat="46.0173044407741" lon="9.289382383869345"><ele>309.0</ele><time>2026-05-02T10:53:01.981Z</time></trkpt><trkpt lat="46.01738770235598" lon="9.289327643908809"><ele>309.0</ele><time>2026-05-02T10:53:02.981Z</time></trkpt><trkpt lat="46.01745653822036" lon="9.289272450131785"><ele>309.0</ele><time>2026-05-02T10:53:03.981Z</time></trkpt><trkpt lat="46.017518333239195" lon="9.289237898835745"><ele>309.0</ele><time>2026-05-02T10:53:04.981Z</time></trkpt><trkpt lat="46.01757464201966" lon="9.289123510246796"><ele>309.0</ele><time>2026-05-02T10:53:06.981Z</time></trkpt><trkpt lat="46.01752376933918" lon="9.288979881428668"><ele>309.0</ele><time>2026-05-02T10:53:08.982Z</time></trkpt><trkpt lat="46.01743156955077" lon="9.289010264318614"><ele>309.0</ele><time>2026-05-02T10:53:09.982Z</time></trkpt><trkpt lat="46.0173767917893" lon="9.289107253043412"><ele>309.0</ele><time>2026-05-02T10:53:10.982Z</time></trkpt><trkpt lat="46.01730142946049" lon="9.289183180119322"><ele>309.0</ele><time>2026-05-02T10:53:11.982Z</time></trkpt><trkpt lat="46.01721897986911" lon="9.289236414664526"><ele>309.0</ele><time>2026-05-02T10:53:12.982Z</time></trkpt><trkpt lat="46.01713926783806" lon="9.289243283745122"><ele>309.0</ele><time>2026-05-02T10:53:13.982Z</time></trkpt><trkpt lat="46.01703572599648" lon="9.289237091536542"><ele>309.0</ele><time>2026-05-02T10:53:14.982Z</time></trkpt><trkpt lat="46.01692301412684" lon="9.289237365264855"><ele>309.0</ele><time>2026-05-02T10:53:15.982Z</time></trkpt><trkpt lat="46.016811041589946" lon="9.28927611353671"><ele>309.0</ele><time>2026-05-02T10:53:16.982Z</time></trkpt><trkpt lat="46.0167005938914" lon="9.289315076648744"><ele>307.0</ele><time>2026-05-02T10:53:17.982Z</time></trkpt><trkpt lat="46.016581342291936" lon="9.289347733823563"><ele>305.0</ele><time>2026-05-02T10:53:18.982Z</time></trkpt><trkpt lat="46.01645965735211" lon="9.289377159964447"><ele>303.0</ele><time>2026-05-02T10:53:19.982Z</time></trkpt><trkpt lat="46.01634007672165" lon="9.289396608590355"><ele>301.0</ele><time>2026-05-02T10:53:20.982Z</time></trkpt><trkpt lat="46.01622978593049" lon="9.289416123913801"><ele>301.0</ele><time>2026-05-02T10:53:21.982Z</time></trkpt><trkpt lat="46.016116729756696" lon="9.289438521493832"><ele>301.0</ele><time>2026-05-02T10:53:22.982Z</time></trkpt><trkpt lat="46.01600939275548" lon="9.28947476491209"><ele>301.0</ele><time>2026-05-02T10:53:23.982Z</time></trkpt><trkpt lat="46.01591282827031" lon="9.28950676879049"><ele>301.0</ele><time>2026-05-02T10:53:24.982Z</time></trkpt><trkpt lat="46.01583447673202" lon="9.289544661395345"><ele>301.0</ele><time>2026-05-02T10:53:25.982Z</time></trkpt><trkpt lat="46.015754854784085" lon="9.28955394470458"><ele>300.75</ele><time>2026-05-02T10:53:26.982Z</time></trkpt><trkpt lat="46.01569613356034" lon="9.289487573745008"><ele>300.5</ele><time>2026-05-02T10:53:27.982Z</time></trkpt><trkpt lat="46.01556302207619" lon="9.289314457263087"><ele>300.25</ele><time>2026-05-02T10:53:29.982Z</time></trkpt><trkpt lat="46.015495892178336" lon="9.289201147300084"><ele>300.0</ele><time>2026-05-02T10:53:30.982Z</time></trkpt><trkpt lat="46.01542060120814" lon="9.289109029048397"><ele>300.0</ele><time>2026-05-02T10:53:31.982Z</time></trkpt><trkpt lat="46.015343626427274" lon="9.289022972808489"><ele>300.0</ele><time>2026-05-02T10:53:32.982Z</time></trkpt><trkpt lat="46.01526683572855" lon="9.288924100704332"><ele>300.0</ele><time>2026-05-02T10:53:33.982Z</time></trkpt><trkpt lat="46.01517035481229" lon="9.288898983379212"><ele>300.0</ele><time>2026-05-02T10:53:34.982Z</time></trkpt><trkpt lat="46.01508351998175" lon="9.28884489371583"><ele>300.0</ele><time>2026-05-02T10:53:35.982Z</time></trkpt><trkpt lat="46.01499018358163" lon="9.288853107434377"><ele>292.1666666666667</ele><time>2026-05-02T10:53:36.982Z</time></trkpt><trkpt lat="46.01492810317502" lon="9.288934212326337"><ele>284.3333333333333</ele><time>2026-05-02T10:53:37.982Z</time></trkpt><trkpt lat="46.01486840692264" lon="9.288994479419324"><ele>276.5</ele><time>2026-05-02T10:53:38.982Z</time></trkpt><trkpt lat="46.01478043083942" lon="9.2890111819987"><ele>268.66666666666663</ele><time>2026-05-02T10:53:40.982Z</time></trkpt><trkpt lat="46.01479785250971" lon="9.288899775159877"><ele>260.8333333333333</ele><time>2026-05-02T10:53:43.982Z</time></trkpt><trkpt lat="46.01488477419509" lon="9.288847305886993"><ele>253.0</ele><time>2026-05-02T10:53:44.982Z</time></trkpt><trkpt lat="46.01497684503292" lon="9.288810955321155"><ele>255.0</ele><time>2026-05-02T10:53:45.982Z</time></trkpt><trkpt lat="46.01507929754749" lon="9.288796038572636"><ele>257.0</ele><time>2026-05-02T10:53:46.982Z</time></trkpt><trkpt lat="46.01517954802211" lon="9.288792847251703"><ele>259.0</ele><time>2026-05-02T10:53:47.982Z</time></trkpt><trkpt lat="46.01528826928317" lon="9.288800764075635"><ele>261.0</ele><time>2026-05-02T10:53:48.982Z</time></trkpt><trkpt lat="46.01538054642674" lon="9.288825168721534"><ele>263.0</ele><time>2026-05-02T10:53:49.982Z</time></trkpt><trkpt lat="46.01548038198124" lon="9.28887117919533"><ele>263.0</ele><time>2026-05-02T10:53:50.982Z</time></trkpt><trkpt lat="46.015575844187346" lon="9.288912843157128"><ele>263.0</ele><time>2026-05-02T10:53:51.982Z</time></trkpt><trkpt lat="46.01568602581646" lon="9.288945231260165"><ele>263.0</ele><time>2026-05-02T10:53:52.982Z</time></trkpt><trkpt lat="46.01580093494537" lon="9.288958667083499"><ele>263.0</ele><time>2026-05-02T10:53:53.982Z</time></trkpt><trkpt lat="46.015913423914895" lon="9.288957073298912"><ele>263.0</ele><time>2026-05-02T10:53:54.982Z</time></trkpt><trkpt lat="46.01603049272376" lon="9.28893552704699"><ele>265.0</ele><time>2026-05-02T10:53:55.982Z</time></trkpt><trkpt lat="46.01613247921643" lon="9.288907642036033"><ele>267.0</ele><time>2026-05-02T10:53:56.982Z</time></trkpt><trkpt lat="46.01622963161365" lon="9.288886476286004"><ele>269.0</ele><time>2026-05-02T10:53:57.982Z</time></trkpt><trkpt lat="46.01631571246364" lon="9.288890580549689"><ele>271.0</ele><time>2026-05-02T10:53:58.982Z</time></trkpt><trkpt lat="46.01639185147192" lon="9.288901913398297"><ele>273.0</ele><time>2026-05-02T10:53:59.982Z</time></trkpt><trkpt lat="46.01649784149146" lon="9.288876243862275"><ele>273.0</ele><time>2026-05-02T10:54:01.983Z</time></trkpt><trkpt lat="46.016515644608596" lon="9.28871398979181"><ele>273.0</ele><time>2026-05-02T10:54:03.983Z</time></trkpt><trkpt lat="46.01640788050507" lon="9.288680954164375"><ele>273.0</ele><time>2026-05-02T10:54:04.983Z</time></trkpt><trkpt lat="46.01632350853138" lon="9.288694808204474"><ele>273.0</ele><time>2026-05-02T10:54:05.983Z</time></trkpt><trkpt lat="46.016227494100924" lon="9.288713019611151"><ele>273.0</ele><time>2026-05-02T10:54:06.983Z</time></trkpt><trkpt lat="46.01612628498151" lon="9.288716616773149"><ele>273.0</ele><time>2026-05-02T10:54:07.983Z</time></trkpt><trkpt lat="46.01602260300146" lon="9.288731244703252"><ele>273.0</ele><time>2026-05-02T10:54:08.983Z</time></trkpt><trkpt lat="46.015935746208264" lon="9.288673269133842"><ele>273.0</ele><time>2026-05-02T10:54:09.983Z</time></trkpt><trkpt lat="46.015836107436265" lon="9.288627357005897"><ele>273.0</ele><time>2026-05-02T10:54:10.983Z</time></trkpt><trkpt lat="46.01575189848304" lon="9.288573488547653"><ele>273.0</ele><time>2026-05-02T10:54:11.983Z</time></trkpt><trkpt lat="46.01566993902096" lon="9.288494207440777"><ele>271.0</ele><time>2026-05-02T10:54:12.983Z</time></trkpt><trkpt lat="46.01557776422862" lon="9.28843052871328"><ele>269.0</ele><time>2026-05-02T10:54:13.983Z</time></trkpt><trkpt lat="46.01548062569405" lon="9.288381447407493"><ele>267.0</ele><time>2026-05-02T10:54:14.983Z</time></trkpt><trkpt lat="46.01538521268693" lon="9.288357158713286"><ele>265.0</ele><time>2026-05-02T10:54:15.983Z</time></trkpt><trkpt lat="46.01530137684017" lon="9.288345226898892"><ele>263.0</ele><time>2026-05-02T10:54:16.983Z</time></trkpt><trkpt lat="46.01523145299893" lon="9.288340504795828"><ele>263.0</ele><time>2026-05-02T10:54:17.983Z</time></trkpt><trkpt lat="46.015165806719615" lon="9.288309691613959"><ele>263.0</ele><time>2026-05-02T10:54:19.983Z</time></trkpt><trkpt lat="46.015236867397064" lon="9.288235831796198"><ele>263.0</ele><time>2026-05-02T10:54:22.983Z</time></trkpt><trkpt lat="46.015322592853494" lon="9.288267909854428"><ele>263.0</ele><time>2026-05-02T10:54:23.983Z</time></trkpt><trkpt lat="46.01541206260098" lon="9.288286834278836"><ele>263.0</ele><time>2026-05-02T10:54:24.983Z</time></trkpt><trkpt lat="46.01551810696541" lon="9.288295696716144"><ele>263.0</ele><time>2026-05-02T10:54:25.983Z</time></trkpt><trkpt lat="46.01563274418606" lon="9.288333704221747"><ele>263.0</ele><time>2026-05-02T10:54:26.983Z</time></trkpt><trkpt lat="46.01574421685042" lon="9.288392028157483"><ele>263.0</ele><time>2026-05-02T10:54:27.983Z</time></trkpt><trkpt lat="46.01586402167139" lon="9.288452931615344"><ele>263.0</ele><time>2026-05-02T10:54:28.983Z</time></trkpt><trkpt lat="46.01597998742422" lon="9.288486457334438"><ele>263.0</ele><time>2026-05-02T10:54:29.983Z</time></trkpt><trkpt lat="46.01608038006942" lon="9.288492831215029"><ele>264.6666666666667</ele><time>2026-05-02T10:54:30.983Z</time></trkpt><trkpt lat="46.01617698922679" lon="9.288505895193673"><ele>266.33333333333337</ele><time>2026-05-02T10:54:31.983Z</time></trkpt><trkpt lat="46.016263096111" lon="9.28851590564117"><ele>268.0</ele><time>2026-05-02T10:54:32.983Z</time></trkpt><trkpt lat="46.01633228623637" lon="9.288536170357421"><ele>269.6666666666667</ele><time>2026-05-02T10:54:33.983Z</time></trkpt><trkpt lat="46.016396452770884" lon="9.288541179280974"><ele>271.3333333333333</ele><time>2026-05-02T10:54:34.983Z</time></trkpt><trkpt lat="46.01648255525617" lon="9.28846195043525"><ele>273.0</ele><time>2026-05-02T10:54:36.983Z</time></trkpt><trkpt lat="46.01643666491291" lon="9.288274218884613"><ele>273.0</ele><time>2026-05-02T10:54:38.983Z</time></trkpt><trkpt lat="46.0163132158608" lon="9.288257312506914"><ele>273.0</ele><time>2026-05-02T10:54:39.983Z</time></trkpt><trkpt lat="46.01619796511496" lon="9.288292187503902"><ele>273.0</ele><time>2026-05-02T10:54:40.983Z</time></trkpt><trkpt lat="46.0160706889999" lon="9.288290733593266"><ele>273.0</ele><time>2026-05-02T10:54:41.983Z</time></trkpt><trkpt lat="46.01597651157736" lon="9.288223263125417"><ele>273.0</ele><time>2026-05-02T10:54:42.983Z</time></trkpt><trkpt lat="46.01589425077362" lon="9.288144961990799"><ele>273.0</ele><time>2026-05-02T10:54:43.982Z</time></trkpt><trkpt lat="46.01581682435618" lon="9.288045800789757"><ele>273.0</ele><time>2026-05-02T10:54:44.981Z</time></trkpt><trkpt lat="46.01574293819721" lon="9.287932567299702"><ele>273.0</ele><time>2026-05-02T10:54:45.981Z</time></trkpt><trkpt lat="46.01567825396593" lon="9.28781908024108"><ele>273.0</ele><time>2026-05-02T10:54:46.981Z</time></trkpt><trkpt lat="46.015611499464086" lon="9.287702873302715"><ele>266.4</ele><time>2026-05-02T10:54:47.982Z</time></trkpt><trkpt lat="46.01555526477586" lon="9.287620900135874"><ele>259.8</ele><time>2026-05-02T10:54:48.982Z</time></trkpt><trkpt lat="46.01549879039975" lon="9.287569091000636"><ele>253.2</ele><time>2026-05-02T10:54:49.981Z</time></trkpt><trkpt lat="46.01543987892278" lon="9.287536592443184"><ele>246.6</ele><time>2026-05-02T10:54:50.981Z</time></trkpt><trkpt lat="46.01531318538811" lon="9.287510008576438"><ele>240.0</ele><time>2026-05-02T10:54:52.981Z</time></trkpt><trkpt lat="46.01519495273098" lon="9.287530537329529"><ele>240.0</ele><time>2026-05-02T10:54:54.981Z</time></trkpt><trkpt lat="46.01507917804011" lon="9.287557810738475"><ele>240.0</ele><time>2026-05-02T10:54:56.982Z</time></trkpt><trkpt lat="46.01497367973271" lon="9.28757931195741"><ele>240.0</ele><time>2026-05-02T10:54:58.982Z</time></trkpt><trkpt lat="46.014897748224165" lon="9.287591209352197"><ele>240.0</ele><time>2026-05-02T10:55:00.982Z</time></trkpt><trkpt lat="46.01489728050191" lon="9.287497690839496"><ele>240.0</ele><time>2026-05-02T10:55:05.982Z</time></trkpt><trkpt lat="46.01502328976898" lon="9.287514079561689"><ele>240.0</ele><time>2026-05-02T10:55:07.982Z</time></trkpt><trkpt lat="46.015098964686196" lon="9.287504864526182"><ele>240.0</ele><time>2026-05-02T10:55:08.982Z</time></trkpt><trkpt lat="46.01518277976886" lon="9.287498877796828"><ele>240.0</ele><time>2026-05-02T10:55:09.982Z</time></trkpt><trkpt lat="46.01525535549298" lon="9.28748526346902"><ele>240.0</ele><time>2026-05-02T10:55:10.982Z</time></trkpt><trkpt lat="46.01533019937986" lon="9.287480374659445"><ele>240.0</ele><time>2026-05-02T10:55:11.982Z</time></trkpt><trkpt lat="46.015400199738956" lon="9.287490612183655"><ele>240.0</ele><time>2026-05-02T10:55:12.982Z</time></trkpt><trkpt lat="46.015466840749184" lon="9.287509869539413"><ele>240.0</ele><time>2026-05-02T10:55:13.982Z</time></trkpt><trkpt lat="46.01552833826882" lon="9.287557033339954"><ele>240.0</ele><time>2026-05-02T10:55:14.982Z</time></trkpt><trkpt lat="46.015594932963694" lon="9.287608122239591"><ele>240.0</ele><time>2026-05-02T10:55:15.982Z</time></trkpt><trkpt lat="46.015670442821325" lon="9.28764164348959"><ele>240.0</ele><time>2026-05-02T10:55:16.982Z</time></trkpt><trkpt lat="46.01574585814895" lon="9.287696436598303"><ele>240.0</ele><time>2026-05-02T10:55:17.982Z</time></trkpt><trkpt lat="46.015815195779055" lon="9.287749039834164"><ele>240.0</ele><time>2026-05-02T10:55:18.982Z</time></trkpt><trkpt lat="46.015883672726254" lon="9.287809477806075"><ele>240.0</ele><time>2026-05-02T10:55:19.982Z</time></trkpt><trkpt lat="46.01595609917017" lon="9.287849123664751"><ele>240.33333333333334</ele><time>2026-05-02T10:55:20.982Z</time></trkpt><trkpt lat="46.01602909106407" lon="9.287903424610727"><ele>240.66666666666669</ele><time>2026-05-02T10:55:21.982Z</time></trkpt><trkpt lat="46.01610152612333" lon="9.287953931266806"><ele>241.0</ele><time>2026-05-02T10:55:22.982Z</time></trkpt><trkpt lat="46.016179173461104" lon="9.287999218829283"><ele>241.33333333333334</ele><time>2026-05-02T10:55:23.982Z</time></trkpt><trkpt lat="46.01625571166568" lon="9.28804309519883"><ele>241.66666666666669</ele><time>2026-05-02T10:55:24.982Z</time></trkpt><trkpt lat="46.01633470237857" lon="9.288081158977846"><ele>242.0</ele><time>2026-05-02T10:55:25.982Z</time></trkpt><trkpt lat="46.01641113958602" lon="9.288104434918916"><ele>239.0</ele><time>2026-05-02T10:55:26.982Z</time></trkpt><trkpt lat="46.01648840484504" lon="9.288108105590437"><ele>236.0</ele><time>2026-05-02T10:55:27.982Z</time></trkpt><trkpt lat="46.01661569210996" lon="9.288116436035098"><ele>233.0</ele><time>2026-05-02T10:55:29.982Z</time></trkpt><trkpt lat="46.016718087345374" lon="9.288113495294041"><ele>230.0</ele><time>2026-05-02T10:55:31.982Z</time></trkpt><trkpt lat="46.01674755813013" lon="9.287995399227036"><ele>227.0</ele><time>2026-05-02T10:55:33.982Z</time></trkpt><trkpt lat="46.016665328529605" lon="9.287889892520507"><ele>230.0</ele><time>2026-05-02T10:55:35.982Z</time></trkpt><trkpt lat="46.01655730409733" lon="9.287890113804352"><ele>233.0</ele><time>2026-05-02T10:55:36.982Z</time></trkpt><trkpt lat="46.016466951329676" lon="9.287880590774481"><ele>236.0</ele><time>2026-05-02T10:55:37.982Z</time></trkpt><trkpt lat="46.01638859125206" lon="9.287850570520776"><ele>239.0</ele><time>2026-05-02T10:55:38.982Z</time></trkpt><trkpt lat="46.01630238803708" lon="9.287803180404948"><ele>242.0</ele><time>2026-05-02T10:55:39.982Z</time></trkpt><trkpt lat="46.01623074760985" lon="9.287739480932366"><ele>242.00000000000003</ele><time>2026-05-02T10:55:40.982Z</time></trkpt><trkpt lat="46.016168371951416" lon="9.287675577159037"><ele>242.0</ele><time>2026-05-02T10:55:41.983Z</time></trkpt><trkpt lat="46.01610304228774" lon="9.28760887339088"><ele>242.0</ele><time>2026-05-02T10:55:42.983Z</time></trkpt><trkpt lat="46.01603466977002" lon="9.287573406952347"><ele>242.0</ele><time>2026-05-02T10:55:43.983Z</time></trkpt><trkpt lat="46.01597486962445" lon="9.287500999122974"><ele>242.00000000000003</ele><time>2026-05-02T10:55:44.983Z</time></trkpt><trkpt lat="46.01591190134922" lon="9.287442412085012"><ele>242.0</ele><time>2026-05-02T10:55:45.983Z</time></trkpt><trkpt lat="46.015842258488775" lon="9.287383292969514"><ele>241.66666666666669</ele><time>2026-05-02T10:55:46.983Z</time></trkpt><trkpt lat="46.015774565940696" lon="9.287315380613336"><ele>241.33333333333334</ele><time>2026-05-02T10:55:47.983Z</time></trkpt><trkpt lat="46.01571379440599" lon="9.28722756668749"><ele>241.0</ele><time>2026-05-02T10:55:48.983Z</time></trkpt><trkpt lat="46.01564571494247" lon="9.287142758781336"><ele>240.66666666666669</ele><time>2026-05-02T10:55:49.983Z</time></trkpt><trkpt lat="46.0155772142078" lon="9.28705816026997"><ele>240.33333333333334</ele><time>2026-05-02T10:55:50.983Z</time></trkpt><trkpt lat="46.015501575386246" lon="9.286976819014273"><ele>240.0</ele><time>2026-05-02T10:55:51.983Z</time></trkpt><trkpt lat="46.01542169489625" lon="9.286902189163339"><ele>237.5</ele><time>2026-05-02T10:55:52.983Z</time></trkpt><trkpt lat="46.01534070076209" lon="9.286828869338452"><ele>235.0</ele><time>2026-05-02T10:55:53.983Z</time></trkpt><trkpt lat="46.01526284028023" lon="9.286758386295993"><ele>232.5</ele><time>2026-05-02T10:55:54.983Z</time></trkpt><trkpt lat="46.01518925818353" lon="9.286691776219243"><ele>230.0</ele><time>2026-05-02T10:55:55.983Z</time></trkpt><trkpt lat="46.01511430428109" lon="9.286624418823642"><ele>227.5</ele><time>2026-05-02T10:55:56.983Z</time></trkpt><trkpt lat="46.01503631631734" lon="9.286582050674905"><ele>225.0</ele><time>2026-05-02T10:55:57.983Z</time></trkpt><trkpt lat="46.01497876753985" lon="9.28650798729303"><ele>225.0</ele><time>2026-05-02T10:55:58.983Z</time></trkpt><trkpt lat="46.01491765529658" lon="9.286439426317152"><ele>225.0</ele><time>2026-05-02T10:55:59.983Z</time></trkpt><trkpt lat="46.0148324769227" lon="9.286382096665914"><ele>225.0</ele><time>2026-05-02T10:56:01.983Z</time></trkpt><trkpt lat="46.01476952995242" lon="9.286396348524649"><ele>225.0</ele><time>2026-05-02T10:56:03.983Z</time></trkpt><trkpt lat="46.014708636241714" lon="9.286457909714333"><ele>225.0</ele><time>2026-05-02T10:56:05.983Z</time></trkpt><trkpt lat="46.01466587243997" lon="9.286527632363807"><ele>225.0</ele><time>2026-05-02T10:56:08.983Z</time></trkpt><trkpt lat="46.014630829105464" lon="9.286429888881695"><ele>225.33333333333334</ele><time>2026-05-02T10:56:12.983Z</time></trkpt><trkpt lat="46.01466063933468" lon="9.286349807930229"><ele>225.66666666666669</ele><time>2026-05-02T10:56:13.983Z</time></trkpt><trkpt lat="46.01470602706556" lon="9.286252795534171"><ele>226.0</ele><time>2026-05-02T10:56:15.983Z</time></trkpt><trkpt lat="46.01472396982467" lon="9.286160564823874"><ele>226.33333333333334</ele><time>2026-05-02T10:56:19.983Z</time></trkpt><trkpt lat="46.01475701374046" lon="9.286047911038324"><ele>226.66666666666669</ele><time>2026-05-02T10:56:22.983Z</time></trkpt><trkpt lat="46.01471998741654" lon="9.285931791257786"><ele>227.0</ele><time>2026-05-02T10:56:24.983Z</time></trkpt><trkpt lat="46.01470123530434" lon="9.285830834305543"><ele>227.0</ele><time>2026-05-02T10:56:26.983Z</time></trkpt><trkpt lat="46.01468191701894" lon="9.285700560769843"><ele>227.0</ele><time>2026-05-02T10:56:28.983Z</time></trkpt><trkpt lat="46.0146744433708" lon="9.285540517116711"><ele>227.0</ele><time>2026-05-02T10:56:30.983Z</time></trkpt><trkpt lat="46.01470036189547" lon="9.285399979162845"><ele>227.0</ele><time>2026-05-02T10:56:32.983Z</time></trkpt><trkpt lat="46.014742974885166" lon="9.285257348916758"><ele>227.0</ele><time>2026-05-02T10:56:34.984Z</time></trkpt><trkpt lat="46.01477190823977" lon="9.285163209864788"><ele>226.57142857142858</ele><time>2026-05-02T10:56:44.984Z</time></trkpt><trkpt lat="46.0147957736038" lon="9.285062466345682"><ele>226.14285714285717</ele><time>2026-05-02T10:56:47.984Z</time></trkpt><trkpt lat="46.01481380806187" lon="9.284957364311305"><ele>225.71428571428572</ele><time>2026-05-02T10:56:50.982Z</time></trkpt><trkpt lat="46.01482457422367" lon="9.284866191087792"><ele>225.28571428571428</ele><time>2026-05-02T10:56:55.981Z</time></trkpt><trkpt lat="46.014832769550665" lon="9.28476209251671"><ele>224.85714285714286</ele><time>2026-05-02T10:57:11.982Z</time></trkpt><trkpt lat="46.01483378217602" lon="9.28466918121425"><ele>224.42857142857144</ele><time>2026-05-02T10:57:23.982Z</time></trkpt><trkpt lat="46.014854680606035" lon="9.28457446447792"><ele>224.0</ele><time>2026-05-02T10:57:38.982Z</time></trkpt><trkpt lat="46.014866190536004" lon="9.28447851281305"><ele>222.33333333333334</ele><time>2026-05-02T10:57:51.982Z</time></trkpt><trkpt lat="46.01495455729503" lon="9.284561016961083"><ele>220.66666666666669</ele><time>2026-05-02T10:57:53.982Z</time></trkpt><trkpt lat="46.01501423749977" lon="9.284590933621375"><ele>219.0</ele><time>2026-05-02T10:57:54.982Z</time></trkpt><trkpt lat="46.01508496061279" lon="9.284602812652473"><ele>217.33333333333331</ele><time>2026-05-02T10:57:55.982Z</time></trkpt><trkpt lat="46.01513847793729" lon="9.284653571425999"><ele>215.66666666666666</ele><time>2026-05-02T10:57:56.982Z</time></trkpt><trkpt lat="46.01521240969653" lon="9.284666504561118"><ele>214.0</ele><time>2026-05-02T10:57:57.982Z</time></trkpt><trkpt lat="46.01527897262344" lon="9.28472625179411"><ele>213.49999999999997</ele><time>2026-05-02T10:57:58.982Z</time></trkpt><trkpt lat="46.01535367829176" lon="9.284764898359645"><ele>213.0</ele><time>2026-05-02T10:57:59.982Z</time></trkpt><trkpt lat="46.01543515091217" lon="9.284807045613285"><ele>212.5</ele><time>2026-05-02T10:58:00.982Z</time></trkpt><trkpt lat="46.01551996113956" lon="9.28482699521329"><ele>212.0</ele><time>2026-05-02T10:58:01.982Z</time></trkpt><trkpt lat="46.01559579330216" lon="9.28488582930861"><ele>211.49999999999997</ele><time>2026-05-02T10:58:02.983Z</time></trkpt><trkpt lat="46.0156606208178" lon="9.284965631250643"><ele>211.0</ele><time>2026-05-02T10:58:03.983Z</time></trkpt><trkpt lat="46.01572605437082" lon="9.285056310389487"><ele>211.0</ele><time>2026-05-02T10:58:04.983Z</time></trkpt><trkpt lat="46.01578345575252" lon="9.285151674607445"><ele>211.0</ele><time>2026-05-02T10:58:05.983Z</time></trkpt><trkpt lat="46.01583092218219" lon="9.285238041045961"><ele>211.0</ele><time>2026-05-02T10:58:06.983Z</time></trkpt><trkpt lat="46.01589646029811" lon="9.285374554270637"><ele>211.0</ele><time>2026-05-02T10:58:08.983Z</time></trkpt><trkpt lat="46.01594304748228" lon="9.285478642543904"><ele>211.0</ele><time>2026-05-02T10:58:10.983Z</time></trkpt><trkpt lat="46.016003608602425" lon="9.285625234982744"><ele>211.66666666666666</ele><time>2026-05-02T10:58:36.983Z</time></trkpt><trkpt lat="46.01604405131739" lon="9.285727710713788"><ele>212.33333333333331</ele><time>2026-05-02T10:58:39.983Z</time></trkpt><trkpt lat="46.01609421799517" lon="9.28580854618938"><ele>213.0</ele><time>2026-05-02T10:58:59.982Z</time></trkpt><trkpt lat="46.0160996384465" lon="9.285901006732763"><ele>213.66666666666669</ele><time>2026-05-02T10:59:02.982Z</time></trkpt><trkpt lat="46.01614485097169" lon="9.285995943520842"><ele>214.33333333333334</ele><time>2026-05-02T10:59:05.981Z</time></trkpt><trkpt lat="46.01617979476874" lon="9.286090714563912"><ele>215.0</ele><time>2026-05-02T10:59:08.981Z</time></trkpt><trkpt lat="46.01621347077863" lon="9.286196559651723"><ele>215.00000000000003</ele><time>2026-05-02T10:59:12.981Z</time></trkpt><trkpt lat="46.0162568958911" lon="9.28628161372802"><ele>215.0</ele><time>2026-05-02T10:59:15.981Z</time></trkpt><trkpt lat="46.016307977938624" lon="9.286380595467026"><ele>215.0</ele><time>2026-05-02T10:59:18.981Z</time></trkpt><trkpt lat="46.016351878818" lon="9.286486174400743"><ele>215.0</ele><time>2026-05-02T10:59:21.981Z</time></trkpt><trkpt lat="46.016385782652335" lon="9.286580664348397"><ele>215.00000000000003</ele><time>2026-05-02T10:59:23.981Z</time></trkpt><trkpt lat="46.01643663682668" lon="9.28668096121694"><ele>215.0</ele><time>2026-05-02T10:59:25.981Z</time></trkpt><trkpt lat="46.01648675243918" lon="9.286752720654189"><ele>216.0</ele><time>2026-05-02T10:59:27.982Z</time></trkpt><trkpt lat="46.016526644829554" lon="9.286842797268825"><ele>217.0</ele><time>2026-05-02T10:59:29.982Z</time></trkpt><trkpt lat="46.01661997715455" lon="9.286923634299729"><ele>218.0</ele><time>2026-05-02T10:59:31.982Z</time></trkpt><trkpt lat="46.01664912996868" lon="9.287015457134126"><ele>219.0</ele><time>2026-05-02T10:59:32.982Z</time></trkpt><trkpt lat="46.01675566002402" lon="9.28712981391972"><ele>220.0</ele><time>2026-05-02T10:59:34.982Z</time></trkpt><trkpt lat="46.01681641671697" lon="9.287191998873496"><ele>221.16666666666666</ele><time>2026-05-02T10:59:35.982Z</time></trkpt><trkpt lat="46.016880092970794" lon="9.287256114923037"><ele>222.33333333333331</ele><time>2026-05-02T10:59:36.982Z</time></trkpt><trkpt lat="46.01694529270127" lon="9.28731551571745"><ele>223.5</ele><time>2026-05-02T10:59:37.982Z</time></trkpt><trkpt lat="46.0170080948818" lon="9.287361068039369"><ele>224.66666666666669</ele><time>2026-05-02T10:59:38.982Z</time></trkpt><trkpt lat="46.017127984961185" lon="9.287422366809901"><ele>225.83333333333334</ele><time>2026-05-02T10:59:40.982Z</time></trkpt><trkpt lat="46.01719348482676" lon="9.287441881863451"><ele>227.0</ele><time>2026-05-02T10:59:41.982Z</time></trkpt><trkpt lat="46.01726051451177" lon="9.287451641461512"><ele>227.0</ele><time>2026-05-02T10:59:42.982Z</time></trkpt><trkpt lat="46.017323503584514" lon="9.287459248288796"><ele>227.0</ele><time>2026-05-02T10:59:43.982Z</time></trkpt><trkpt lat="46.01744042130911" lon="9.287427975571173"><ele>227.0</ele><time>2026-05-02T10:59:45.982Z</time></trkpt><trkpt lat="46.01756516062643" lon="9.287412311498642"><ele>227.0</ele><time>2026-05-02T10:59:47.982Z</time></trkpt><trkpt lat="46.01763899717716" lon="9.287402001688436"><ele>227.0</ele><time>2026-05-02T10:59:49.982Z</time></trkpt><trkpt lat="46.01804509703727" lon="9.287261666120106"><ele>228.66666666666669</ele><time>2026-05-02T10:59:53.982Z</time></trkpt><trkpt lat="46.018177427614106" lon="9.287283206811345"><ele>230.33333333333334</ele><time>2026-05-02T10:59:58.982Z</time></trkpt><trkpt lat="46.01822927986466" lon="9.287344372469635"><ele>232.0</ele><time>2026-05-02T10:59:59.982Z</time></trkpt><trkpt lat="46.018292708587204" lon="9.287301791941813"><ele>233.66666666666669</ele><time>2026-05-02T11:00:00.982Z</time></trkpt><trkpt lat="46.018370744321764" lon="9.287246213540737"><ele>235.33333333333334</ele><time>2026-05-02T11:00:01.982Z</time></trkpt><trkpt lat="46.01844619031771" lon="9.287193756205806"><ele>237.0</ele><time>2026-05-02T11:00:02.982Z</time></trkpt><trkpt lat="46.01852566794395" lon="9.287129665992852"><ele>229.8</ele><time>2026-05-02T11:00:03.982Z</time></trkpt><trkpt lat="46.01860379341152" lon="9.287058173162759"><ele>222.6</ele><time>2026-05-02T11:00:04.982Z</time></trkpt><trkpt lat="46.01868896572408" lon="9.286989749986613"><ele>215.4</ele><time>2026-05-02T11:00:05.982Z</time></trkpt><trkpt lat="46.018783567516486" lon="9.286935152023656"><ele>208.20000000000002</ele><time>2026-05-02T11:00:06.982Z</time></trkpt><trkpt lat="46.018881752310094" lon="9.286887272759122"><ele>201.0</ele><time>2026-05-02T11:00:07.982Z</time></trkpt><trkpt lat="46.01898016519067" lon="9.28685032799083"><ele>201.0</ele><time>2026-05-02T11:00:08.982Z</time></trkpt><trkpt lat="46.01908268949623" lon="9.286817441971431"><ele>201.0</ele><time>2026-05-02T11:00:09.982Z</time></trkpt><trkpt lat="46.01919494358425" lon="9.286789036980768"><ele>201.0</ele><time>2026-05-02T11:00:10.982Z</time></trkpt><trkpt lat="46.01931060157819" lon="9.28677749416445"><ele>201.0</ele><time>2026-05-02T11:00:11.982Z</time></trkpt><trkpt lat="46.019429149070234" lon="9.28678532045429"><ele>202.25</ele><time>2026-05-02T11:00:12.982Z</time></trkpt><trkpt lat="46.019547978264065" lon="9.286804919004252"><ele>203.5</ele><time>2026-05-02T11:00:13.982Z</time></trkpt><trkpt lat="46.01966315855818" lon="9.286832438577255"><ele>204.75</ele><time>2026-05-02T11:00:14.982Z</time></trkpt><trkpt lat="46.01977787543641" lon="9.286850292857109"><ele>206.0</ele><time>2026-05-02T11:00:15.982Z</time></trkpt><trkpt lat="46.019894637028166" lon="9.286878600260717"><ele>210.0</ele><time>2026-05-02T11:00:16.982Z</time></trkpt><trkpt lat="46.02001102295382" lon="9.286892839663857"><ele>214.0</ele><time>2026-05-02T11:00:17.982Z</time></trkpt><trkpt lat="46.02013075418432" lon="9.286914458886285"><ele>218.0</ele><time>2026-05-02T11:00:18.982Z</time></trkpt><trkpt lat="46.02025436726647" lon="9.286946313013287"><ele>222.0</ele><time>2026-05-02T11:00:19.983Z</time></trkpt><trkpt lat="46.02037407659856" lon="9.28696263641547"><ele>222.0</ele><time>2026-05-02T11:00:20.983Z</time></trkpt><trkpt lat="46.02049221990098" lon="9.286980547081342"><ele>222.0</ele><time>2026-05-02T11:00:21.983Z</time></trkpt><trkpt lat="46.02062360988134" lon="9.287006851573476"><ele>222.0</ele><time>2026-05-02T11:00:23.118Z</time></trkpt><trkpt lat="46.020742893178095" lon="9.287002862752493"><ele>222.0</ele><time>2026-05-02T11:00:24.118Z</time></trkpt><trkpt lat="46.02086151710085" lon="9.286974031726308"><ele>226.0</ele><time>2026-05-02T11:00:25.117Z</time></trkpt><trkpt lat="46.020974427208984" lon="9.286942458509746"><ele>230.0</ele><time>2026-05-02T11:00:26.118Z</time></trkpt><trkpt lat="46.02257385923927" lon="9.28638936216892"><ele>230.0</ele><time>2026-05-02T11:00:29.798Z</time></trkpt><trkpt lat="46.02299077397366" lon="9.286140088593275"><ele>241.5</ele><time>2026-05-02T11:00:30.803Z</time></trkpt><trkpt lat="46.02336684037352" lon="9.285794111789054"><ele>253.0</ele><time>2026-05-02T11:00:31.802Z</time></trkpt><trkpt lat="46.0236992266259" lon="9.285362433643261"><ele>240.25</ele><time>2026-05-02T11:00:32.798Z</time></trkpt><trkpt lat="46.0238033" lon="9.2852258"><ele>227.5</ele><time>2026-05-02T11:00:33.803Z</time></trkpt><trkpt lat="46.02387680362845" lon="9.285059891333914"><ele>214.75</ele><time>2026-05-02T11:00:50.983Z</time></trkpt><trkpt lat="46.023905249737496" lon="9.284931840075187"><ele>202.0</ele><time>2026-05-02T11:00:51.983Z</time></trkpt><trkpt lat="46.02409148122712" lon="9.28491327371061"><ele>201.0</ele><time>2026-05-02T11:00:52.983Z</time></trkpt><trkpt lat="46.02421381220327" lon="9.284836089207701"><ele>200.0</ele><time>2026-05-02T11:00:53.983Z</time></trkpt><trkpt lat="46.02433152211323" lon="9.284779949256306"><ele>199.0</ele><time>2026-05-02T11:00:54.983Z</time></trkpt><trkpt lat="46.024465222968324" lon="9.284721159204846"><ele>198.0</ele><time>2026-05-02T11:00:55.983Z</time></trkpt><trkpt lat="46.02460039614277" lon="9.284661499167717"><ele>198.0</ele><time>2026-05-02T11:00:56.983Z</time></trkpt><trkpt lat="46.0247396457833" lon="9.284598920686967"><ele>198.0</ele><time>2026-05-02T11:00:57.983Z</time></trkpt><trkpt lat="46.02488105732245" lon="9.28453537061607"><ele>198.0</ele><time>2026-05-02T11:00:58.983Z</time></trkpt><trkpt lat="46.02502002952747" lon="9.284471387016994"><ele>198.0</ele><time>2026-05-02T11:00:59.983Z</time></trkpt><trkpt lat="46.02516044255382" lon="9.284406427258471"><ele>202.0</ele><time>2026-05-02T11:01:00.983Z</time></trkpt><trkpt lat="46.025300461514014" lon="9.284341032976869"><ele>206.0</ele><time>2026-05-02T11:01:01.981Z</time></trkpt><trkpt lat="46.02543587260229" lon="9.28425630978371"><ele>210.0</ele><time>2026-05-02T11:01:02.982Z</time></trkpt><trkpt lat="46.02557827960787" lon="9.284212594629796"><ele>214.0</ele><time>2026-05-02T11:01:03.982Z</time></trkpt><trkpt lat="46.02570947145922" lon="9.284153366672772"><ele>213.39999999999998</ele><time>2026-05-02T11:01:04.981Z</time></trkpt><trkpt lat="46.02582390587989" lon="9.284083627420623"><ele>212.79999999999998</ele><time>2026-05-02T11:01:05.981Z</time></trkpt><trkpt lat="46.025936021405364" lon="9.284050209676863"><ele>212.2</ele><time>2026-05-02T11:01:06.981Z</time></trkpt><trkpt lat="46.02603426069641" lon="9.28405184652398"><ele>211.60000000000002</ele><time>2026-05-02T11:01:07.981Z</time></trkpt><trkpt lat="46.026128182619324" lon="9.284091221317727"><ele>211.0</ele><time>2026-05-02T11:01:08.981Z</time></trkpt><trkpt lat="46.02621751323387" lon="9.284161506560542"><ele>211.0</ele><time>2026-05-02T11:01:09.981Z</time></trkpt><trkpt lat="46.026292364169855" lon="9.284306677453987"><ele>211.0</ele><time>2026-05-02T11:01:10.981Z</time></trkpt><trkpt lat="46.02636556698776" lon="9.284467841912244"><ele>211.0</ele><time>2026-05-02T11:01:11.981Z</time></trkpt><trkpt lat="46.02644285651695" lon="9.284634042460548"><ele>211.0</ele><time>2026-05-02T11:01:12.981Z</time></trkpt><trkpt lat="46.02650926130741" lon="9.284787627766587"><ele>212.25</ele><time>2026-05-02T11:01:13.982Z</time></trkpt><trkpt lat="46.026581841220086" lon="9.284938429851257"><ele>213.5</ele><time>2026-05-02T11:01:14.982Z</time></trkpt><trkpt lat="46.026642590067084" lon="9.285095060324231"><ele>214.75</ele><time>2026-05-02T11:01:15.982Z</time></trkpt><trkpt lat="46.02671702799536" lon="9.28524509478427"><ele>216.0</ele><time>2026-05-02T11:01:16.982Z</time></trkpt><trkpt lat="46.02680217139343" lon="9.285393385160072"><ele>216.0</ele><time>2026-05-02T11:01:17.982Z</time></trkpt><trkpt lat="46.026894241959404" lon="9.285527814973598"><ele>216.0</ele><time>2026-05-02T11:01:18.982Z</time></trkpt><trkpt lat="46.02698740609014" lon="9.28565579722436"><ele>216.0</ele><time>2026-05-02T11:01:19.982Z</time></trkpt><trkpt lat="46.0270790465713" lon="9.285780967898754"><ele>216.0</ele><time>2026-05-02T11:01:20.982Z</time></trkpt><trkpt lat="46.027166408871715" lon="9.285896774928686"><ele>212.75</ele><time>2026-05-02T11:01:21.982Z</time></trkpt><trkpt lat="46.02726238193331" lon="9.286011333804279"><ele>209.5</ele><time>2026-05-02T11:01:22.982Z</time></trkpt><trkpt lat="46.027360036698106" lon="9.286136037724368"><ele>206.25</ele><time>2026-05-02T11:01:23.982Z</time></trkpt><trkpt lat="46.027458110977655" lon="9.286266577323378"><ele>203.0</ele><time>2026-05-02T11:01:24.982Z</time></trkpt><trkpt lat="46.027553096051825" lon="9.286401099482303"><ele>209.25</ele><time>2026-05-02T11:01:25.982Z</time></trkpt><trkpt lat="46.02763474743075" lon="9.286534319659818"><ele>215.5</ele><time>2026-05-02T11:01:26.982Z</time></trkpt><trkpt lat="46.02770576690099" lon="9.28666981117751"><ele>221.75</ele><time>2026-05-02T11:01:27.982Z</time></trkpt><trkpt lat="46.02776268178512" lon="9.286804432508225"><ele>228.0</ele><time>2026-05-02T11:01:28.982Z</time></trkpt><trkpt lat="46.02781937094763" lon="9.28695267219241"><ele>228.0</ele><time>2026-05-02T11:01:29.982Z</time></trkpt><trkpt lat="46.0278738281841" lon="9.287102717461577"><ele>228.0</ele><time>2026-05-02T11:01:30.982Z</time></trkpt><trkpt lat="46.02792343892565" lon="9.287262119868181"><ele>228.0</ele><time>2026-05-02T11:01:31.982Z</time></trkpt><trkpt lat="46.02797665150173" lon="9.287425593038792"><ele>228.0</ele><time>2026-05-02T11:01:32.982Z</time></trkpt><trkpt lat="46.028022006674895" lon="9.287582870991079"><ele>233.0</ele><time>2026-05-02T11:01:33.982Z</time></trkpt><trkpt lat="46.0280744517502" lon="9.287727142219598"><ele>238.0</ele><time>2026-05-02T11:01:34.982Z</time></trkpt><trkpt lat="46.02814399324766" lon="9.287865653736308"><ele>243.0</ele><time>2026-05-02T11:01:35.982Z</time></trkpt><trkpt lat="46.028233365040194" lon="9.287985007842126"><ele>248.0</ele><time>2026-05-02T11:01:36.982Z</time></trkpt><trkpt lat="46.02833369078331" lon="9.288077845680796"><ele>243.25</ele><time>2026-05-02T11:01:37.982Z</time></trkpt><trkpt lat="46.02844727684779" lon="9.288146117369424"><ele>238.5</ele><time>2026-05-02T11:01:38.982Z</time></trkpt><trkpt lat="46.02855536418232" lon="9.288218623606712"><ele>233.75</ele><time>2026-05-02T11:01:39.982Z</time></trkpt><trkpt lat="46.02866252813341" lon="9.28830046361871"><ele>229.0</ele><time>2026-05-02T11:01:40.982Z</time></trkpt><trkpt lat="46.02876562015067" lon="9.2883831035607"><ele>229.0</ele><time>2026-05-02T11:01:41.982Z</time></trkpt><trkpt lat="46.02888069463083" lon="9.288470170704619"><ele>229.0</ele><time>2026-05-02T11:01:42.982Z</time></trkpt><trkpt lat="46.02898336214855" lon="9.288576594186287"><ele>229.0</ele><time>2026-05-02T11:01:43.982Z</time></trkpt><trkpt lat="46.029085669465964" lon="9.2886888542197"><ele>229.0</ele><time>2026-05-02T11:01:44.982Z</time></trkpt><trkpt lat="46.029174233048956" lon="9.288799836216391"><ele>228.0</ele><time>2026-05-02T11:01:45.982Z</time></trkpt><trkpt lat="46.0292690037511" lon="9.288908097159023"><ele>227.0</ele><time>2026-05-02T11:01:46.982Z</time></trkpt><trkpt lat="46.02936472231576" lon="9.289018451465187"><ele>226.0</ele><time>2026-05-02T11:01:47.982Z</time></trkpt><trkpt lat="46.02945953564657" lon="9.289125449911536"><ele>225.0</ele><time>2026-05-02T11:01:48.982Z</time></trkpt><trkpt lat="46.029548056332914" lon="9.289219479692647"><ele>225.0</ele><time>2026-05-02T11:01:49.982Z</time></trkpt><trkpt lat="46.029635545300785" lon="9.289308482762257"><ele>225.0</ele><time>2026-05-02T11:01:50.982Z</time></trkpt><trkpt lat="46.02972709579519" lon="9.289389678330133"><ele>225.0</ele><time>2026-05-02T11:01:51.982Z</time></trkpt><trkpt lat="46.029811447350546" lon="9.289467068083866"><ele>225.0</ele><time>2026-05-02T11:01:52.982Z</time></trkpt><trkpt lat="46.029879200624556" lon="9.289550431902855"><ele>225.0</ele><time>2026-05-02T11:01:53.982Z</time></trkpt><trkpt lat="46.029935257970585" lon="9.289623022326426"><ele>225.0</ele><time>2026-05-02T11:01:54.982Z</time></trkpt><trkpt lat="46.02997358406077" lon="9.289715705550941"><ele>225.0</ele><time>2026-05-02T11:01:55.982Z</time></trkpt><trkpt lat="46.03001549396579" lon="9.289796974679426"><ele>225.0</ele><time>2026-05-02T11:01:56.982Z</time></trkpt><trkpt lat="46.0300800980697" lon="9.289936432189977"><ele>225.0</ele><time>2026-05-02T11:01:58.982Z</time></trkpt><trkpt lat="46.030119506081334" lon="9.290008005938695"><ele>225.0</ele><time>2026-05-02T11:01:59.982Z</time></trkpt><trkpt lat="46.030161534740586" lon="9.290075976131316"><ele>225.0</ele><time>2026-05-02T11:02:00.982Z</time></trkpt><trkpt lat="46.03023614754157" lon="9.29021029062799"><ele>224.33333333333334</ele><time>2026-05-02T11:02:02.983Z</time></trkpt><trkpt lat="46.03031087817465" lon="9.290364690563328"><ele>223.66666666666669</ele><time>2026-05-02T11:02:04.983Z</time></trkpt><trkpt lat="46.03033975518392" lon="9.290461913615667"><ele>223.0</ele><time>2026-05-02T11:02:05.983Z</time></trkpt><trkpt lat="46.03036910260767" lon="9.290547043326713"><ele>222.33333333333334</ele><time>2026-05-02T11:02:06.983Z</time></trkpt><trkpt lat="46.030399466744456" lon="9.29069827655088"><ele>221.66666666666669</ele><time>2026-05-02T11:02:08.983Z</time></trkpt><trkpt lat="46.03041465529937" lon="9.290787052445577"><ele>221.0</ele><time>2026-05-02T11:02:09.983Z</time></trkpt><trkpt lat="46.03042694012604" lon="9.290885564355243"><ele>223.71428571428572</ele><time>2026-05-02T11:02:10.983Z</time></trkpt><trkpt lat="46.030442559972705" lon="9.290989745158011"><ele>226.42857142857144</ele><time>2026-05-02T11:02:11.983Z</time></trkpt><trkpt lat="46.03045653569514" lon="9.291099182224064"><ele>229.14285714285717</ele><time>2026-05-02T11:02:12.983Z</time></trkpt><trkpt lat="46.030433119755585" lon="9.29121488683329"><ele>231.85714285714286</ele><time>2026-05-02T11:02:13.983Z</time></trkpt><trkpt lat="46.03044229754799" lon="9.29132254906386"><ele>234.57142857142856</ele><time>2026-05-02T11:02:14.983Z</time></trkpt><trkpt lat="46.030449688923945" lon="9.291420646408163"><ele>237.2857142857143</ele><time>2026-05-02T11:02:15.983Z</time></trkpt><trkpt lat="46.03046053776305" lon="9.291513421507004"><ele>240.0</ele><time>2026-05-02T11:02:16.983Z</time></trkpt><trkpt lat="46.030473714261845" lon="9.29160627299926"><ele>243.66666666666666</ele><time>2026-05-02T11:02:17.983Z</time></trkpt><trkpt lat="46.03048930973496" lon="9.29170384080537"><ele>247.33333333333331</ele><time>2026-05-02T11:02:18.983Z</time></trkpt><trkpt lat="46.0305131160129" lon="9.29181771622943"><ele>251.0</ele><time>2026-05-02T11:02:19.983Z</time></trkpt><trkpt lat="46.030553229369325" lon="9.291930202781332"><ele>254.66666666666666</ele><time>2026-05-02T11:02:20.983Z</time></trkpt><trkpt lat="46.03059952421445" lon="9.29203198248765"><ele>258.3333333333333</ele><time>2026-05-02T11:02:21.983Z</time></trkpt><trkpt lat="46.030648295543294" lon="9.29213258285764"><ele>262.0</ele><time>2026-05-02T11:02:22.983Z</time></trkpt><trkpt lat="46.03069494348665" lon="9.292228757236394"><ele>266.0</ele><time>2026-05-02T11:02:23.983Z</time></trkpt><trkpt lat="46.030742084118046" lon="9.292333044587844"><ele>270.0</ele><time>2026-05-02T11:02:24.983Z</time></trkpt><trkpt lat="46.03078977711006" lon="9.29243831843679"><ele>274.0</ele><time>2026-05-02T11:02:25.983Z</time></trkpt><trkpt lat="46.03083924846234" lon="9.292542811344955"><ele>278.0</ele><time>2026-05-02T11:02:26.983Z</time></trkpt><trkpt lat="46.03089192743858" lon="9.292649340138942"><ele>282.0</ele><time>2026-05-02T11:02:27.983Z</time></trkpt><trkpt lat="46.03094947730747" lon="9.292756905046746"><ele>286.0</ele><time>2026-05-02T11:02:28.983Z</time></trkpt><trkpt lat="46.03100798172838" lon="9.292852137626694"><ele>280.0</ele><time>2026-05-02T11:02:29.983Z</time></trkpt><trkpt lat="46.0310685247793" lon="9.29293956340559"><ele>274.0</ele><time>2026-05-02T11:02:30.983Z</time></trkpt><trkpt lat="46.03113231145039" lon="9.293026171978049"><ele>268.0</ele><time>2026-05-02T11:02:31.983Z</time></trkpt><trkpt lat="46.031200061087254" lon="9.293113422382167"><ele>262.0</ele><time>2026-05-02T11:02:32.983Z</time></trkpt><trkpt lat="46.03126365270591" lon="9.293196761067392"><ele>255.99999999999997</ele><time>2026-05-02T11:02:33.983Z</time></trkpt><trkpt lat="46.03133315535706" lon="9.293279414106586"><ele>250.0</ele><time>2026-05-02T11:02:34.983Z</time></trkpt><trkpt lat="46.03140153842886" lon="9.29335947579904"><ele>250.0</ele><time>2026-05-02T11:02:35.983Z</time></trkpt><trkpt lat="46.0314634208237" lon="9.293443227776601"><ele>250.0</ele><time>2026-05-02T11:02:36.983Z</time></trkpt><trkpt lat="46.03152218517672" lon="9.29352483928247"><ele>250.0</ele><time>2026-05-02T11:02:37.982Z</time></trkpt><trkpt lat="46.03157096200585" lon="9.293607126713473"><ele>250.0</ele><time>2026-05-02T11:02:38.982Z</time></trkpt><trkpt lat="46.0316159774696" lon="9.29368242281478"><ele>250.0</ele><time>2026-05-02T11:02:39.982Z</time></trkpt><trkpt lat="46.031656703532555" lon="9.293754311339818"><ele>250.0</ele><time>2026-05-02T11:02:40.982Z</time></trkpt><trkpt lat="46.031696410353604" lon="9.293829895897709"><ele>250.0</ele><time>2026-05-02T11:02:41.982Z</time></trkpt><trkpt lat="46.031735491259724" lon="9.29390391982086"><ele>247.57142857142856</ele><time>2026-05-02T11:02:42.982Z</time></trkpt><trkpt lat="46.0317794863497" lon="9.293982856373786"><ele>245.14285714285717</ele><time>2026-05-02T11:02:43.982Z</time></trkpt><trkpt lat="46.03181797028515" lon="9.294063801680647"><ele>242.71428571428572</ele><time>2026-05-02T11:02:44.982Z</time></trkpt><trkpt lat="46.03185490055973" lon="9.29414510170379"><ele>240.28571428571428</ele><time>2026-05-02T11:02:45.982Z</time></trkpt><trkpt lat="46.03189252035017" lon="9.294231539435739"><ele>237.85714285714283</ele><time>2026-05-02T11:02:46.982Z</time></trkpt><trkpt lat="46.03193022513904" lon="9.294313379766589"><ele>235.42857142857144</ele><time>2026-05-02T11:02:47.982Z</time></trkpt><trkpt lat="46.03197092495085" lon="9.2943953553706"><ele>233.0</ele><time>2026-05-02T11:02:48.982Z</time></trkpt><trkpt lat="46.03201560153683" lon="9.294482745945315"><ele>233.00000000000003</ele><time>2026-05-02T11:02:49.982Z</time></trkpt><trkpt lat="46.032031510111324" lon="9.29460166064055"><ele>233.0</ele><time>2026-05-02T11:02:50.982Z</time></trkpt><trkpt lat="46.03207528697856" lon="9.294697712516383"><ele>233.0</ele><time>2026-05-02T11:02:51.982Z</time></trkpt><trkpt lat="46.03212316229344" lon="9.294800181411356"><ele>233.0</ele><time>2026-05-02T11:02:52.982Z</time></trkpt><trkpt lat="46.032178975974055" lon="9.294905550128327"><ele>233.00000000000003</ele><time>2026-05-02T11:02:53.982Z</time></trkpt><trkpt lat="46.03223146784585" lon="9.295001309395643"><ele>233.0</ele><time>2026-05-02T11:02:54.982Z</time></trkpt><trkpt lat="46.03228272550927" lon="9.295096770434254"><ele>232.83333333333334</ele><time>2026-05-02T11:02:55.982Z</time></trkpt><trkpt lat="46.03233159173779" lon="9.295182734532771"><ele>232.66666666666669</ele><time>2026-05-02T11:02:56.982Z</time></trkpt><trkpt lat="46.03238033391995" lon="9.295271314286964"><ele>232.5</ele><time>2026-05-02T11:02:57.982Z</time></trkpt><trkpt lat="46.03243123956132" lon="9.295362520053796"><ele>232.33333333333331</ele><time>2026-05-02T11:02:58.982Z</time></trkpt><trkpt lat="46.03248530851294" lon="9.295459125774208"><ele>232.16666666666666</ele><time>2026-05-02T11:02:59.982Z</time></trkpt><trkpt lat="46.032542215771784" lon="9.295558870680658"><ele>232.0</ele><time>2026-05-02T11:03:00.982Z</time></trkpt><trkpt lat="46.03260803902517" lon="9.29567887679164"><ele>244.66666666666666</ele><time>2026-05-02T11:03:02.116Z</time></trkpt><trkpt lat="46.03266581794303" lon="9.295787920622969"><ele>257.3333333333333</ele><time>2026-05-02T11:03:03.117Z</time></trkpt><trkpt lat="46.032723383833975" lon="9.295895943428246"><ele>270.0</ele><time>2026-05-02T11:03:04.122Z</time></trkpt><trkpt lat="46.03296475360655" lon="9.29617227107221"><ele>270.0</ele><time>2026-05-02T11:03:07.982Z</time></trkpt><trkpt lat="46.03304283687185" lon="9.296260094999532"><ele>270.0</ele><time>2026-05-02T11:03:08.982Z</time></trkpt><trkpt lat="46.033114901867464" lon="9.296337324300564"><ele>270.0</ele><time>2026-05-02T11:03:09.982Z</time></trkpt><trkpt lat="46.033191637236584" lon="9.296421645859732"><ele>270.0</ele><time>2026-05-02T11:03:10.982Z</time></trkpt><trkpt lat="46.033254149277404" lon="9.296459918324574"><ele>270.0</ele><time>2026-05-02T11:03:11.98Z</time></trkpt><trkpt lat="46.03332677762893" lon="9.296525170562935"><ele>270.0</ele><time>2026-05-02T11:03:12.979Z</time></trkpt><trkpt lat="46.03336690007429" lon="9.296643054552142"><ele>266.0</ele><time>2026-05-02T11:03:13.979Z</time></trkpt><trkpt lat="46.033443231791736" lon="9.296735876738946"><ele>262.0</ele><time>2026-05-02T11:03:14.979Z</time></trkpt><trkpt lat="46.03352539361109" lon="9.296831776120499"><ele>258.0</ele><time>2026-05-02T11:03:15.979Z</time></trkpt><trkpt lat="46.03360249500302" lon="9.296924874232179"><ele>254.0</ele><time>2026-05-02T11:03:16.979Z</time></trkpt><trkpt lat="46.033675306722074" lon="9.297015607207847"><ele>250.0</ele><time>2026-05-02T11:03:17.979Z</time></trkpt><trkpt lat="46.0337477180714" lon="9.29710336832405"><ele>250.0</ele><time>2026-05-02T11:03:18.979Z</time></trkpt><trkpt lat="46.03381623260726" lon="9.297192170927989"><ele>250.0</ele><time>2026-05-02T11:03:19.979Z</time></trkpt><trkpt lat="46.033894565318136" lon="9.297286946772203"><ele>250.0</ele><time>2026-05-02T11:03:20.98Z</time></trkpt><trkpt lat="46.03397108074245" lon="9.297387841136732"><ele>250.0</ele><time>2026-05-02T11:03:21.979Z</time></trkpt><trkpt lat="46.03403710362972" lon="9.2974975492417"><ele>250.0</ele><time>2026-05-02T11:03:22.979Z</time></trkpt><trkpt lat="46.03410019992978" lon="9.297608466761464"><ele>250.6</ele><time>2026-05-02T11:03:23.979Z</time></trkpt><trkpt lat="46.03415994283396" lon="9.29771168995526"><ele>251.2</ele><time>2026-05-02T11:03:24.978Z</time></trkpt><trkpt lat="46.03422148106675" lon="9.297818337956011"><ele>251.8</ele><time>2026-05-02T11:03:25.978Z</time></trkpt><trkpt lat="46.03428404366647" lon="9.297927022559724"><ele>252.4</ele><time>2026-05-02T11:03:26.978Z</time></trkpt><trkpt lat="46.0343436825739" lon="9.298031323598142"><ele>253.0</ele><time>2026-05-02T11:03:27.979Z</time></trkpt><trkpt lat="46.034413461475864" lon="9.298117131295449"><ele>252.99999999999997</ele><time>2026-05-02T11:03:28.979Z</time></trkpt><trkpt lat="46.03447176653232" lon="9.29818602391703"><ele>253.0</ele><time>2026-05-02T11:03:29.979Z</time></trkpt><trkpt lat="46.03452892095871" lon="9.298237968727241"><ele>253.0</ele><time>2026-05-02T11:03:30.979Z</time></trkpt><trkpt lat="46.03464009143062" lon="9.298325953091144"><ele>253.0</ele><time>2026-05-02T11:03:32.979Z</time></trkpt><trkpt lat="46.034700346862294" lon="9.298370533363206"><ele>252.99999999999997</ele><time>2026-05-02T11:03:33.979Z</time></trkpt><trkpt lat="46.03475421369129" lon="9.298427853409796"><ele>253.0</ele><time>2026-05-02T11:03:34.979Z</time></trkpt><trkpt lat="46.03480730266137" lon="9.298490850184919"><ele>253.00000000000003</ele><time>2026-05-02T11:03:35.979Z</time></trkpt><trkpt lat="46.034853745155345" lon="9.29855348234376"><ele>253.0</ele><time>2026-05-02T11:03:36.979Z</time></trkpt><trkpt lat="46.034894432135424" lon="9.298628913095403"><ele>253.00000000000003</ele><time>2026-05-02T11:03:37.979Z</time></trkpt><trkpt lat="46.034934908488836" lon="9.29871544422857"><ele>253.00000000000003</ele><time>2026-05-02T11:03:38.979Z</time></trkpt><trkpt lat="46.03496692477078" lon="9.298801627847132"><ele>253.0</ele><time>2026-05-02T11:03:39.979Z</time></trkpt><trkpt lat="46.03497357611887" lon="9.298920776471231"><ele>253.00000000000003</ele><time>2026-05-02T11:03:40.979Z</time></trkpt><trkpt lat="46.0350083349117" lon="9.29901369365222"><ele>253.00000000000003</ele><time>2026-05-02T11:03:41.979Z</time></trkpt><trkpt lat="46.03504597113284" lon="9.299099989039643"><ele>249.99999999999997</ele><time>2026-05-02T11:03:42.979Z</time></trkpt><trkpt lat="46.035090146924055" lon="9.299175749681291"><ele>247.0</ele><time>2026-05-02T11:03:43.979Z</time></trkpt><trkpt lat="46.03514382726595" lon="9.299244751804277"><ele>244.0</ele><time>2026-05-02T11:03:44.979Z</time></trkpt><trkpt lat="46.035200448449395" lon="9.299307615542753"><ele>241.0</ele><time>2026-05-02T11:03:45.979Z</time></trkpt><trkpt lat="46.03526844172157" lon="9.299360335002424"><ele>237.99999999999997</ele><time>2026-05-02T11:03:46.979Z</time></trkpt><trkpt lat="46.03534478556752" lon="9.299399404266309"><ele>235.0</ele><time>2026-05-02T11:03:47.979Z</time></trkpt><trkpt lat="46.03542125414581" lon="9.299440072443694"><ele>234.99999999999997</ele><time>2026-05-02T11:03:48.979Z</time></trkpt><trkpt lat="46.035506892471126" lon="9.29947192342419"><ele>235.0</ele><time>2026-05-02T11:03:49.979Z</time></trkpt><trkpt lat="46.03559882876295" lon="9.299490266787428"><ele>235.0</ele><time>2026-05-02T11:03:50.979Z</time></trkpt><trkpt lat="46.035689241585345" lon="9.299499103995084"><ele>235.0</ele><time>2026-05-02T11:03:51.979Z</time></trkpt><trkpt lat="46.03577927737638" lon="9.299493006701642"><ele>234.99999999999997</ele><time>2026-05-02T11:03:52.979Z</time></trkpt><trkpt lat="46.03586062322562" lon="9.299482544508713"><ele>235.0</ele><time>2026-05-02T11:03:53.979Z</time></trkpt><trkpt lat="46.03593987125994" lon="9.299474498837561"><ele>230.66666666666666</ele><time>2026-05-02T11:03:54.979Z</time></trkpt><trkpt lat="46.03601630397851" lon="9.299468945387945"><ele>226.33333333333331</ele><time>2026-05-02T11:03:55.979Z</time></trkpt><trkpt lat="46.036100138310395" lon="9.299482555966915"><ele>222.0</ele><time>2026-05-02T11:03:56.979Z</time></trkpt><trkpt lat="46.03618222762355" lon="9.299517470218435"><ele>217.66666666666669</ele><time>2026-05-02T11:03:57.979Z</time></trkpt><trkpt lat="46.03626423546632" lon="9.299570466832925"><ele>213.33333333333334</ele><time>2026-05-02T11:03:58.979Z</time></trkpt><trkpt lat="46.03634079810545" lon="9.299639373515046"><ele>209.0</ele><time>2026-05-02T11:03:59.979Z</time></trkpt><trkpt lat="46.036427562107974" lon="9.29971047921696"><ele>210.0</ele><time>2026-05-02T11:04:00.979Z</time></trkpt><trkpt lat="46.036515458781714" lon="9.299787817696847"><ele>211.0</ele><time>2026-05-02T11:04:01.979Z</time></trkpt><trkpt lat="46.036590009487085" lon="9.299866720995865"><ele>211.99999999999997</ele><time>2026-05-02T11:04:02.979Z</time></trkpt><trkpt lat="46.036670402952716" lon="9.299932286834162"><ele>213.0</ele><time>2026-05-02T11:04:03.979Z</time></trkpt><trkpt lat="46.036752851355715" lon="9.29999647966821"><ele>214.0</ele><time>2026-05-02T11:04:04.979Z</time></trkpt><trkpt lat="46.036827139449365" lon="9.300060299044853"><ele>213.99999999999997</ele><time>2026-05-02T11:04:05.979Z</time></trkpt><trkpt lat="46.03689856609992" lon="9.300123251627692"><ele>214.0</ele><time>2026-05-02T11:04:06.979Z</time></trkpt><trkpt lat="46.036968612287765" lon="9.300185216506565"><ele>214.0</ele><time>2026-05-02T11:04:07.979Z</time></trkpt><trkpt lat="46.03703996608153" lon="9.300252061560634"><ele>214.0</ele><time>2026-05-02T11:04:08.979Z</time></trkpt><trkpt lat="46.037115757214245" lon="9.300326247799358"><ele>213.99999999999997</ele><time>2026-05-02T11:04:09.979Z</time></trkpt><trkpt lat="46.03719754746442" lon="9.300393864870143"><ele>214.0</ele><time>2026-05-02T11:04:10.979Z</time></trkpt><trkpt lat="46.03728080427735" lon="9.300469827220608"><ele>214.0</ele><time>2026-05-02T11:04:11.979Z</time></trkpt><trkpt lat="46.03736781811045" lon="9.300550816619564"><ele>213.99999999999997</ele><time>2026-05-02T11:04:12.979Z</time></trkpt><trkpt lat="46.037429479836476" lon="9.30066407615298"><ele>213.99999999999997</ele><time>2026-05-02T11:04:13.979Z</time></trkpt><trkpt lat="46.03747835656177" lon="9.30077981216083"><ele>214.0</ele><time>2026-05-02T11:04:14.979Z</time></trkpt><trkpt lat="46.037519050500414" lon="9.30087682378364"><ele>214.0</ele><time>2026-05-02T11:04:15.979Z</time></trkpt><trkpt lat="46.037560365061886" lon="9.300967252354813"><ele>214.66666666666666</ele><time>2026-05-02T11:04:16.979Z</time></trkpt><trkpt lat="46.037593946244634" lon="9.301066721749837"><ele>215.33333333333331</ele><time>2026-05-02T11:04:17.979Z</time></trkpt><trkpt lat="46.037633662907766" lon="9.301163574654787"><ele>216.0</ele><time>2026-05-02T11:04:18.979Z</time></trkpt><trkpt lat="46.037639049957136" lon="9.301285644181059"><ele>216.66666666666669</ele><time>2026-05-02T11:04:19.979Z</time></trkpt><trkpt lat="46.03767708551254" lon="9.301401677514283"><ele>217.33333333333334</ele><time>2026-05-02T11:04:20.979Z</time></trkpt><trkpt lat="46.037717103466136" lon="9.301527358760843"><ele>218.0</ele><time>2026-05-02T11:04:21.979Z</time></trkpt><trkpt lat="46.03775587678032" lon="9.301655928743438"><ele>222.16666666666669</ele><time>2026-05-02T11:04:22.979Z</time></trkpt><trkpt lat="46.037799340720674" lon="9.301772905439734"><ele>226.33333333333334</ele><time>2026-05-02T11:04:23.98Z</time></trkpt><trkpt lat="46.03785253165484" lon="9.301877838531922"><ele>230.5</ele><time>2026-05-02T11:04:24.98Z</time></trkpt><trkpt lat="46.03790952816556" lon="9.301967473062835"><ele>234.66666666666669</ele><time>2026-05-02T11:04:25.98Z</time></trkpt><trkpt lat="46.03796603736838" lon="9.302036625993003"><ele>238.83333333333334</ele><time>2026-05-02T11:04:26.98Z</time></trkpt><trkpt lat="46.03802669046985" lon="9.302092165266071"><ele>243.0</ele><time>2026-05-02T11:04:27.98Z</time></trkpt><trkpt lat="46.038095459927405" lon="9.302126646769556"><ele>243.0</ele><time>2026-05-02T11:04:28.98Z</time></trkpt><trkpt lat="46.0381671086596" lon="9.30215948439977"><ele>243.0</ele><time>2026-05-02T11:04:29.98Z</time></trkpt><trkpt lat="46.03823061674455" lon="9.30217847578261"><ele>243.0</ele><time>2026-05-02T11:04:30.98Z</time></trkpt><trkpt lat="46.038343219082165" lon="9.30220602097256"><ele>243.0</ele><time>2026-05-02T11:04:32.98Z</time></trkpt><trkpt lat="46.038415295823825" lon="9.302207680376533"><ele>243.0</ele><time>2026-05-02T11:04:34.98Z</time></trkpt><trkpt lat="46.03850784882792" lon="9.302202013938858"><ele>243.0</ele><time>2026-05-02T11:04:37.98Z</time></trkpt><trkpt lat="46.0386047219644" lon="9.302202302012692"><ele>235.4</ele><time>2026-05-02T11:04:39.98Z</time></trkpt><trkpt lat="46.03873507990215" lon="9.302199075631417"><ele>227.8</ele><time>2026-05-02T11:04:41.98Z</time></trkpt><trkpt lat="46.038808724232275" lon="9.302206261376694"><ele>220.2</ele><time>2026-05-02T11:04:42.98Z</time></trkpt><trkpt lat="46.03888067948073" lon="9.30221047702813"><ele>212.6</ele><time>2026-05-02T11:04:43.98Z</time></trkpt><trkpt lat="46.039043817356514" lon="9.302199334092926"><ele>205.0</ele><time>2026-05-02T11:04:46.98Z</time></trkpt><trkpt lat="46.0391207864168" lon="9.302215754281132"><ele>205.16666666666666</ele><time>2026-05-02T11:04:49.98Z</time></trkpt><trkpt lat="46.03921368805729" lon="9.302202975552117"><ele>205.33333333333331</ele><time>2026-05-02T11:04:52.98Z</time></trkpt><trkpt lat="46.03928106721076" lon="9.302226647675079"><ele>205.5</ele><time>2026-05-02T11:04:54.98Z</time></trkpt><trkpt lat="46.039360635249515" lon="9.30223346977343"><ele>205.66666666666669</ele><time>2026-05-02T11:04:56.98Z</time></trkpt><trkpt lat="46.03943604847809" lon="9.302228111742505"><ele>205.83333333333334</ele><time>2026-05-02T11:04:59.98Z</time></trkpt><trkpt lat="46.03951333279621" lon="9.302212729929462"><ele>206.0</ele><time>2026-05-02T11:05:06.98Z</time></trkpt><trkpt lat="46.039596505038205" lon="9.302221069706123"><ele>206.0</ele><time>2026-05-02T11:05:08.98Z</time></trkpt><trkpt lat="46.039713066905165" lon="9.30222584710371"><ele>206.0</ele><time>2026-05-02T11:05:10.98Z</time></trkpt><trkpt lat="46.0397802617955" lon="9.302232811400634"><ele>206.0</ele><time>2026-05-02T11:05:11.98Z</time></trkpt><trkpt lat="46.03985108218166" lon="9.302233014484262"><ele>206.0</ele><time>2026-05-02T11:05:12.98Z</time></trkpt><trkpt lat="46.03997565536853" lon="9.30224647926183"><ele>206.0</ele><time>2026-05-02T11:05:14.98Z</time></trkpt><trkpt lat="46.04009673934356" lon="9.30224227305443"><ele>206.0</ele><time>2026-05-02T11:05:16.981Z</time></trkpt><trkpt lat="46.040207653220776" lon="9.302235085657694"><ele>206.0</ele><time>2026-05-02T11:05:18.979Z</time></trkpt><trkpt lat="46.040324822351195" lon="9.302228471093347"><ele>206.0</ele><time>2026-05-02T11:05:20.979Z</time></trkpt><trkpt lat="46.04044555318016" lon="9.302225401122774"><ele>206.0</ele><time>2026-05-02T11:05:22.979Z</time></trkpt><trkpt lat="46.0405640965559" lon="9.302246679673566"><ele>206.00000000000003</ele><time>2026-05-02T11:05:24.978Z</time></trkpt><trkpt lat="46.0406307095359" lon="9.302248162461334"><ele>206.0</ele><time>2026-05-02T11:05:25.978Z</time></trkpt><trkpt lat="46.040704520088035" lon="9.302249334208515"><ele>206.0</ele><time>2026-05-02T11:05:26.979Z</time></trkpt><trkpt lat="46.04077979659215" lon="9.302250652433393"><ele>206.0</ele><time>2026-05-02T11:05:27.979Z</time></trkpt><trkpt lat="46.04085966714476" lon="9.302252051107791"><ele>206.00000000000003</ele><time>2026-05-02T11:05:28.979Z</time></trkpt><trkpt lat="46.0409420700902" lon="9.302253494123834"><ele>206.0</ele><time>2026-05-02T11:05:29.978Z</time></trkpt><trkpt lat="46.041024460534345" lon="9.302254936953886"><ele>206.16666666666669</ele><time>2026-05-02T11:05:30.979Z</time></trkpt><trkpt lat="46.04111493126852" lon="9.302255838777496"><ele>206.33333333333334</ele><time>2026-05-02T11:05:31.979Z</time></trkpt><trkpt lat="46.04120404059553" lon="9.3022590896408"><ele>206.5</ele><time>2026-05-02T11:05:32.979Z</time></trkpt><trkpt lat="46.04129715414847" lon="9.302262071320918"><ele>206.66666666666669</ele><time>2026-05-02T11:05:33.979Z</time></trkpt><trkpt lat="46.04138179742951" lon="9.302264781760543"><ele>206.83333333333334</ele><time>2026-05-02T11:05:34.979Z</time></trkpt><trkpt lat="46.041465041245964" lon="9.302267447390335"><ele>207.0</ele><time>2026-05-02T11:05:35.979Z</time></trkpt><trkpt lat="46.041551158586934" lon="9.302270205033333"><ele>207.0</ele><time>2026-05-02T11:05:36.979Z</time></trkpt><trkpt lat="46.04163460196234" lon="9.30227287705426"><ele>207.0</ele><time>2026-05-02T11:05:37.979Z</time></trkpt><trkpt lat="46.04172093665411" lon="9.302276024186554"><ele>207.0</ele><time>2026-05-02T11:05:38.979Z</time></trkpt><trkpt lat="46.04180982619449" lon="9.30227856388579"><ele>207.0</ele><time>2026-05-02T11:05:39.979Z</time></trkpt><trkpt lat="46.04189638720337" lon="9.302281037058691"><ele>207.0</ele><time>2026-05-02T11:05:40.979Z</time></trkpt><trkpt lat="46.04198072222513" lon="9.302284019478751"><ele>207.0</ele><time>2026-05-02T11:05:41.979Z</time></trkpt><trkpt lat="46.042054432308696" lon="9.30228626761188"><ele>207.0</ele><time>2026-05-02T11:05:42.979Z</time></trkpt><trkpt lat="46.04212006719547" lon="9.302288040362797"><ele>207.0</ele><time>2026-05-02T11:05:43.979Z</time></trkpt><trkpt lat="46.0421873365293" lon="9.302289761239143"><ele>207.0</ele><time>2026-05-02T11:05:44.979Z</time></trkpt><trkpt lat="46.04225481667849" lon="9.302281805356401"><ele>207.0</ele><time>2026-05-02T11:05:45.979Z</time></trkpt><trkpt lat="46.04236819860993" lon="9.302293578659103"><ele>207.0</ele><time>2026-05-02T11:05:47.979Z</time></trkpt><trkpt lat="46.0424494252885" lon="9.302292496572989"><ele>207.0</ele><time>2026-05-02T11:05:49.979Z</time></trkpt><trkpt lat="46.04250887592496" lon="9.302357806629583"><ele>207.39999999999998</ele><time>2026-05-02T11:05:53.979Z</time></trkpt><trkpt lat="46.042530828164864" lon="9.302466845990795"><ele>207.79999999999998</ele><time>2026-05-02T11:05:55.979Z</time></trkpt><trkpt lat="46.04255583777264" lon="9.302614349873966"><ele>208.2</ele><time>2026-05-02T11:05:57.979Z</time></trkpt><trkpt lat="46.04257678506143" lon="9.302746784429523"><ele>208.6</ele><time>2026-05-02T11:05:59.979Z</time></trkpt><trkpt lat="46.04258849738242" lon="9.302875617491093"><ele>209.0</ele><time>2026-05-02T11:06:01.979Z</time></trkpt><trkpt lat="46.042595996054196" lon="9.30299770515985"><ele>208.85714285714286</ele><time>2026-05-02T11:06:03.98Z</time></trkpt><trkpt lat="46.04261425251489" lon="9.303087443043843"><ele>208.71428571428572</ele><time>2026-05-02T11:06:05.98Z</time></trkpt><trkpt lat="46.042645685201144" lon="9.303208061527123"><ele>208.57142857142856</ele><time>2026-05-02T11:06:08.98Z</time></trkpt><trkpt lat="46.04264229965005" lon="9.303302449958252"><ele>208.42857142857144</ele><time>2026-05-02T11:06:11.98Z</time></trkpt><trkpt lat="46.04264567388709" lon="9.303401179272887"><ele>208.2857142857143</ele><time>2026-05-02T11:06:14.98Z</time></trkpt><trkpt lat="46.042647465735406" lon="9.303507436434456"><ele>208.14285714285714</ele><time>2026-05-02T11:06:18.98Z</time></trkpt><trkpt lat="46.042649642439834" lon="9.303607479332582"><ele>208.0</ele><time>2026-05-02T11:06:21.98Z</time></trkpt><trkpt lat="46.04266171581101" lon="9.303716661534787"><ele>208.0</ele><time>2026-05-02T11:06:24.98Z</time></trkpt><trkpt lat="46.042671860841935" lon="9.303826718220161"><ele>208.0</ele><time>2026-05-02T11:06:28.98Z</time></trkpt><trkpt lat="46.04271463456335" lon="9.30391530215064"><ele>208.0</ele><time>2026-05-02T11:06:31.98Z</time></trkpt><trkpt lat="46.04276934443822" lon="9.303979640473408"><ele>208.0</ele><time>2026-05-02T11:06:34.98Z</time></trkpt><trkpt lat="46.0428382517534" lon="9.304029871444444"><ele>208.0</ele><time>2026-05-02T11:06:38.98Z</time></trkpt><trkpt lat="46.042903910599634" lon="9.304059596190283"><ele>208.0</ele><time>2026-05-02T11:06:43.98Z</time></trkpt><trkpt lat="46.04297616151923" lon="9.304090310268059"><ele>208.0</ele><time>2026-05-02T11:06:55.981Z</time></trkpt><trkpt lat="46.04313445189117" lon="9.303732118323236"><ele>207.99999999999997</ele><time>2026-05-02T11:10:31.98Z</time></trkpt><trkpt lat="46.04308453598721" lon="9.303791020395408"><ele>208.0</ele><time>2026-05-02T11:11:01.98Z</time></trkpt><trkpt lat="46.04317953191974" lon="9.30389627755183"><ele>208.0</ele><time>2026-05-02T11:12:53.98Z</time></trkpt><trkpt lat="46.04312324187132" lon="9.303956364152063"><ele>208.0</ele><time>2026-05-02T11:13:09.981Z</time></trkpt><trkpt lat="46.04306518371309" lon="9.303998083996438"><ele>207.99999999999997</ele><time>2026-05-02T11:13:15.981Z</time></trkpt><trkpt lat="46.043000840398456" lon="9.304033912822645"><ele>208.0</ele><time>2026-05-02T11:13:18.981Z</time></trkpt><trkpt lat="46.042937755149104" lon="9.304063234365442"><ele>208.16666666666666</ele><time>2026-05-02T11:13:24.981Z</time></trkpt><trkpt lat="46.0428361197549" lon="9.304091770154901"><ele>208.33333333333331</ele><time>2026-05-02T11:14:24.982Z</time></trkpt><trkpt lat="46.04282467702234" lon="9.304190797787017"><ele>208.5</ele><time>2026-05-02T11:14:31.982Z</time></trkpt><trkpt lat="46.0427929604388" lon="9.304273895319149"><ele>208.66666666666669</ele><time>2026-05-02T11:14:37.982Z</time></trkpt><trkpt lat="46.04277680668729" lon="9.304366673192744"><ele>208.83333333333334</ele><time>2026-05-02T11:14:43.983Z</time></trkpt><trkpt lat="46.04272438269981" lon="9.304437875348123"><ele>209.0</ele><time>2026-05-02T11:14:48.983Z</time></trkpt><trkpt lat="46.04270246740848" lon="9.304538295698572"><ele>209.0</ele><time>2026-05-02T11:14:56.983Z</time></trkpt><trkpt lat="46.04268943257851" lon="9.304631028910412"><ele>209.0</ele><time>2026-05-02T11:15:05.983Z</time></trkpt><trkpt lat="46.04261619704619" lon="9.304629183627556"><ele>209.0</ele><time>2026-05-02T11:15:32.983Z</time></trkpt><trkpt lat="46.042566404708225" lon="9.304695455878399"><ele>209.0</ele><time>2026-05-02T11:15:37.984Z</time></trkpt><trkpt lat="46.042521385872796" lon="9.304779617761014"><ele>209.0</ele><time>2026-05-02T11:15:41.984Z</time></trkpt><trkpt lat="46.04256743533535" lon="9.304846433849058"><ele>209.0</ele><time>2026-05-02T11:18:00.987Z</time></trkpt><trkpt lat="46.04250985141022" lon="9.304883784330851"><ele>209.0</ele><time>2026-05-02T11:18:07.986Z</time></trkpt><trkpt lat="46.042444643820204" lon="9.304932166036876"><ele>212.28571428571428</ele><time>2026-05-02T11:18:26.987Z</time></trkpt><trkpt lat="46.04247406419887" lon="9.30503835792346"><ele>215.57142857142856</ele><time>2026-05-02T11:18:51.984Z</time></trkpt><trkpt lat="46.042476266697996" lon="9.305133774647494"><ele>218.8571428571429</ele><time>2026-05-02T11:19:26.983Z</time></trkpt><trkpt lat="46.042443877007" lon="9.305229335293332"><ele>222.14285714285717</ele><time>2026-05-02T11:19:38.983Z</time></trkpt><trkpt lat="46.042388946268616" lon="9.305282894407574"><ele>225.42857142857144</ele><time>2026-05-02T11:19:47.983Z</time></trkpt><trkpt lat="46.042458039824595" lon="9.305342155407399"><ele>228.71428571428575</ele><time>2026-05-02T11:20:10.982Z</time></trkpt><trkpt lat="46.04244221603567" lon="9.305245838606423"><ele>232.00000000000003</ele><time>2026-05-02T11:20:18.982Z</time></trkpt><trkpt lat="46.04238358724991" lon="9.30534470436823"><ele>233.5714285714286</ele><time>2026-05-02T11:20:33.983Z</time></trkpt><trkpt lat="46.0423571468748" lon="9.305431804536614"><ele>235.14285714285717</ele><time>2026-05-02T11:20:39.983Z</time></trkpt><trkpt lat="46.04229686337291" lon="9.305484092865441"><ele>236.71428571428572</ele><time>2026-05-02T11:20:47.983Z</time></trkpt><trkpt lat="46.04235310288947" lon="9.30557053657133"><ele>238.2857142857143</ele><time>2026-05-02T11:21:03.983Z</time></trkpt><trkpt lat="46.04242412132059" lon="9.305595263376064"><ele>239.8571428571429</ele><time>2026-05-02T11:21:17.983Z</time></trkpt><trkpt lat="46.0423671892105" lon="9.305665207889103"><ele>241.42857142857142</ele><time>2026-05-02T11:22:35.983Z</time></trkpt><trkpt lat="46.0423225324024" lon="9.305747782182646"><ele>243.0</ele><time>2026-05-02T11:22:38.983Z</time></trkpt><trkpt lat="46.042271125735915" lon="9.305804632290988"><ele>244.5</ele><time>2026-05-02T11:22:41.983Z</time></trkpt><trkpt lat="46.042233612127085" lon="9.305878946792914"><ele>246.0</ele><time>2026-05-02T11:23:14.984Z</time></trkpt><trkpt lat="46.04232956190509" lon="9.30597560976573"><ele>247.5</ele><time>2026-05-02T11:23:29.984Z</time></trkpt><trkpt lat="46.04240150920363" lon="9.306021073297487"><ele>249.0</ele><time>2026-05-02T11:23:54.984Z</time></trkpt><trkpt lat="46.04242092390393" lon="9.306156197588592"><ele>250.5</ele><time>2026-05-02T11:24:20.983Z</time></trkpt><trkpt lat="46.04235582395601" lon="9.306135538587975"><ele>252.0</ele><time>2026-05-02T11:24:33.984Z</time></trkpt><trkpt lat="46.04229544591513" lon="9.306162637968583"><ele>252.0</ele><time>2026-05-02T11:24:37.984Z</time></trkpt><trkpt lat="46.04220054003013" lon="9.306179425420789"><ele>252.0</ele><time>2026-05-02T11:25:00.984Z</time></trkpt><trkpt lat="46.04211972473258" lon="9.306280968948498"><ele>252.0</ele><time>2026-05-02T11:25:11.984Z</time></trkpt><trkpt lat="46.04201639669108" lon="9.30634533723863"><ele>252.0</ele><time>2026-05-02T11:25:28.984Z</time></trkpt><trkpt lat="46.04196163717196" lon="9.30640243593707"><ele>252.0</ele><time>2026-05-02T11:25:31.985Z</time></trkpt><trkpt lat="46.041898814268094" lon="9.30638290380513"><ele>252.0</ele><time>2026-05-02T11:25:48.985Z</time></trkpt><trkpt lat="46.041886507155986" lon="9.306279892321644"><ele>252.0</ele><time>2026-05-02T11:26:07.985Z</time></trkpt><trkpt lat="46.04182981449278" lon="9.306346363443595"><ele>252.0</ele><time>2026-05-02T11:26:12.985Z</time></trkpt><trkpt lat="46.04176932717171" lon="9.306371705635307"><ele>252.0</ele><time>2026-05-02T11:26:18.983Z</time></trkpt><trkpt lat="46.04170482253518" lon="9.3063656968092"><ele>252.0</ele><time>2026-05-02T11:26:24.983Z</time></trkpt><trkpt lat="46.0417355345742" lon="9.306284284846956"><ele>252.0</ele><time>2026-05-02T11:26:29.983Z</time></trkpt><trkpt lat="46.041727564588925" lon="9.306382594458622"><ele>252.0</ele><time>2026-05-02T11:26:54.983Z</time></trkpt><trkpt lat="46.041781016247825" lon="9.306288834324322"><ele>252.0</ele><time>2026-05-02T11:27:12.983Z</time></trkpt><trkpt lat="46.041812240158464" lon="9.306153191613971"><ele>252.0</ele><time>2026-05-02T11:28:37.981Z</time></trkpt><trkpt lat="46.041808091327425" lon="9.306246859355939"><ele>252.0</ele><time>2026-05-02T11:29:15.982Z</time></trkpt><trkpt lat="46.041867569208335" lon="9.306289793887828"><ele>252.0</ele><time>2026-05-02T11:29:20.982Z</time></trkpt><trkpt lat="46.04193686090389" lon="9.306327544400704"><ele>252.0</ele><time>2026-05-02T11:29:24.982Z</time></trkpt><trkpt lat="46.041983126521004" lon="9.306252507261462"><ele>252.0</ele><time>2026-05-02T11:29:48.982Z</time></trkpt><trkpt lat="46.04206125950027" lon="9.306336012753157"><ele>252.0</ele><time>2026-05-02T11:30:19.983Z</time></trkpt><trkpt lat="46.04211741683114" lon="9.306272193135865"><ele>252.0</ele><time>2026-05-02T11:30:38.979Z</time></trkpt><trkpt lat="46.04217355943345" lon="9.306217154477617"><ele>252.0</ele><time>2026-05-02T11:30:44.979Z</time></trkpt><trkpt lat="46.04224618006775" lon="9.306185080683242"><ele>252.0</ele><time>2026-05-02T11:30:51.98Z</time></trkpt><trkpt lat="46.04232203102261" lon="9.306177541033644"><ele>252.0</ele><time>2026-05-02T11:30:58.98Z</time></trkpt><trkpt lat="46.04235240178571" lon="9.306081996409743"><ele>252.0</ele><time>2026-05-02T11:31:05.98Z</time></trkpt><trkpt lat="46.04237833478439" lon="9.30598658694907"><ele>252.0</ele><time>2026-05-02T11:31:10.98Z</time></trkpt><trkpt lat="46.04240607910733" lon="9.305880373312482"><ele>252.0</ele><time>2026-05-02T11:31:15.98Z</time></trkpt><trkpt lat="46.042428629191676" lon="9.305790292687089"><ele>252.0</ele><time>2026-05-02T11:31:20.98Z</time></trkpt><trkpt lat="46.04246194447882" lon="9.305701486174732"><ele>251.0</ele><time>2026-05-02T11:31:30.98Z</time></trkpt><trkpt lat="46.04249815382993" lon="9.305619927514046"><ele>250.0</ele><time>2026-05-02T11:31:43.98Z</time></trkpt><trkpt lat="46.04247012674465" lon="9.305535186030841"><ele>249.0</ele><time>2026-05-02T11:31:54.981Z</time></trkpt><trkpt lat="46.042440932059385" lon="9.305439291642589"><ele>248.0</ele><time>2026-05-02T11:32:06.981Z</time></trkpt><trkpt lat="46.04240723293704" lon="9.305355207853811"><ele>247.0</ele><time>2026-05-02T11:32:36.98Z</time></trkpt><trkpt lat="46.0424722663899" lon="9.305308457411433"><ele>246.0</ele><time>2026-05-02T11:32:54.98Z</time></trkpt><trkpt lat="46.04254056133281" lon="9.305285053272037"><ele>245.0</ele><time>2026-05-02T11:33:05.98Z</time></trkpt><trkpt lat="46.04260050830772" lon="9.305315833247404"><ele>243.14285714285714</ele><time>2026-05-02T11:33:15.98Z</time></trkpt><trkpt lat="46.042587247301135" lon="9.305226234580928"><ele>241.28571428571428</ele><time>2026-05-02T11:33:38.981Z</time></trkpt><trkpt lat="46.042654238330904" lon="9.305246633180069"><ele>239.42857142857144</ele><time>2026-05-02T11:33:54.981Z</time></trkpt><trkpt lat="46.04261359298075" lon="9.305171378871858"><ele>237.57142857142858</ele><time>2026-05-02T11:34:08.981Z</time></trkpt><trkpt lat="46.04257286200816" lon="9.305091079790754"><ele>235.71428571428572</ele><time>2026-05-02T11:34:16.981Z</time></trkpt><trkpt lat="46.042627825981846" lon="9.30503786772232"><ele>233.8571428571429</ele><time>2026-05-02T11:34:23.982Z</time></trkpt><trkpt lat="46.04269133579363" lon="9.305001679426965"><ele>232.00000000000003</ele><time>2026-05-02T11:34:31.982Z</time></trkpt><trkpt lat="46.042725675733365" lon="9.304914392125596"><ele>232.00000000000003</ele><time>2026-05-02T11:34:42.981Z</time></trkpt><trkpt lat="46.04271790205522" lon="9.30482176639531"><ele>232.0</ele><time>2026-05-02T11:34:48.982Z</time></trkpt><trkpt lat="46.04278233980718" lon="9.304779536957774"><ele>232.00000000000003</ele><time>2026-05-02T11:34:57.983Z</time></trkpt><trkpt lat="46.04272333636565" lon="9.304710954337962"><ele>232.00000000000003</ele><time>2026-05-02T11:35:07.983Z</time></trkpt><trkpt lat="46.04272000256563" lon="9.304614833562324"><ele>232.0</ele><time>2026-05-02T11:35:16.983Z</time></trkpt><trkpt lat="46.042761592752605" lon="9.304534969095677"><ele>232.00000000000003</ele><time>2026-05-02T11:35:25.984Z</time></trkpt><trkpt lat="46.04279854118078" lon="9.30446116864203"><ele>232.00000000000003</ele><time>2026-05-02T11:35:32.984Z</time></trkpt><trkpt lat="46.0427940103284" lon="9.304360893672232"><ele>228.71428571428575</ele><time>2026-05-02T11:35:41.984Z</time></trkpt><trkpt lat="46.04282213310739" lon="9.304267518141968"><ele>225.42857142857144</ele><time>2026-05-02T11:35:49.984Z</time></trkpt><trkpt lat="46.04285307149811" lon="9.30417782896337"><ele>222.14285714285717</ele><time>2026-05-02T11:35:57.984Z</time></trkpt><trkpt lat="46.042862354668515" lon="9.304079997570572"><ele>218.8571428571429</ele><time>2026-05-02T11:36:06.985Z</time></trkpt><trkpt lat="46.042820343168614" lon="9.304006400778587"><ele>215.57142857142856</ele><time>2026-05-02T11:36:19.985Z</time></trkpt><trkpt lat="46.04289163802662" lon="9.304048274591095"><ele>212.28571428571428</ele><time>2026-05-02T11:39:26.987Z</time></trkpt><trkpt lat="46.04282184267497" lon="9.304068136086038"><ele>209.0</ele><time>2026-05-02T11:39:27.987Z</time></trkpt><trkpt lat="46.042895759572325" lon="9.304054034073717"><ele>209.0</ele><time>2026-05-02T11:39:34.987Z</time></trkpt><trkpt lat="46.04295759473757" lon="9.303991618232182"><ele>209.0</ele><time>2026-05-02T11:39:39.987Z</time></trkpt><trkpt lat="46.04300094146207" lon="9.303916924716852"><ele>209.0</ele><time>2026-05-02T11:39:44.987Z</time></trkpt><trkpt lat="46.04317124876416" lon="9.30385433509068"><ele>209.0</ele><time>2026-05-02T11:45:59.994Z</time></trkpt><trkpt lat="46.04310479775807" lon="9.303836665890671"><ele>209.0</ele><time>2026-05-02T11:46:38.995Z</time></trkpt><trkpt lat="46.04305196405719" lon="9.303916906468334"><ele>209.00000000000003</ele><time>2026-05-02T11:47:37.997Z</time></trkpt><trkpt lat="46.04297528327464" lon="9.303979306317398"><ele>209.0</ele><time>2026-05-02T11:47:39.997Z</time></trkpt><trkpt lat="46.042915234683655" lon="9.30402160916445"><ele>209.0</ele><time>2026-05-02T11:47:42.997Z</time></trkpt><trkpt lat="46.04283099022022" lon="9.304008966323453"><ele>209.0</ele><time>2026-05-02T11:47:50.997Z</time></trkpt><trkpt lat="46.04276784588505" lon="9.303959725432145"><ele>209.00000000000003</ele><time>2026-05-02T11:47:53.997Z</time></trkpt><trkpt lat="46.042716992651656" lon="9.303851647909742"><ele>209.0</ele><time>2026-05-02T11:47:55.997Z</time></trkpt><trkpt lat="46.04270068250386" lon="9.303721626300476"><ele>209.00000000000003</ele><time>2026-05-02T11:47:58.997Z</time></trkpt><trkpt lat="46.04269789458516" lon="9.303599853284979"><ele>209.0</ele><time>2026-05-02T11:48:00.997Z</time></trkpt><trkpt lat="46.042700035041804" lon="9.303457191846041"><ele>209.0</ele><time>2026-05-02T11:48:02.997Z</time></trkpt><trkpt lat="46.04269936992617" lon="9.303327511526566"><ele>209.0</ele><time>2026-05-02T11:48:04.997Z</time></trkpt><trkpt lat="46.04267961163007" lon="9.303203779384614"><ele>209.00000000000003</ele><time>2026-05-02T11:48:06.997Z</time></trkpt><trkpt lat="46.04265913305874" lon="9.303085476608537"><ele>209.0</ele><time>2026-05-02T11:48:08.997Z</time></trkpt><trkpt lat="46.04262924308276" lon="9.302974545912686"><ele>209.0</ele><time>2026-05-02T11:48:10.997Z</time></trkpt><trkpt lat="46.042619319798405" lon="9.302842199685406"><ele>209.0</ele><time>2026-05-02T11:48:12.997Z</time></trkpt><trkpt lat="46.0426024190396" lon="9.302742737308924"><ele>209.0</ele><time>2026-05-02T11:48:14.997Z</time></trkpt><trkpt lat="46.04255801906888" lon="9.302372421343291"><ele>209.0</ele><time>2026-05-02T11:48:30.998Z</time></trkpt><trkpt lat="46.04230355574191" lon="9.302486942348123"><ele>209.0</ele><time>2026-05-02T11:49:04.995Z</time></trkpt><trkpt lat="46.0426124430635" lon="9.302277262071854"><ele>209.0</ele><time>2026-05-02T11:49:08.997Z</time></trkpt><trkpt lat="46.042775159373896" lon="9.302288543355875"><ele>209.0</ele><time>2026-05-02T11:49:25.998Z</time></trkpt><trkpt lat="46.04284758722812" lon="9.302260246986462"><ele>209.0</ele><time>2026-05-02T11:49:26.998Z</time></trkpt><trkpt lat="46.04292390412359" lon="9.30225643128499"><ele>209.0</ele><time>2026-05-02T11:49:27.998Z</time></trkpt><trkpt lat="46.043009365141025" lon="9.302251393771261"><ele>209.0</ele><time>2026-05-02T11:49:28.998Z</time></trkpt><trkpt lat="46.04309774757346" lon="9.302276303734018"><ele>209.0</ele><time>2026-05-02T11:49:29.998Z</time></trkpt><trkpt lat="46.04342729463382" lon="9.302359686088444"><ele>209.39999999999998</ele><time>2026-05-02T11:49:34.998Z</time></trkpt><trkpt lat="46.043532947424104" lon="9.302440846246396"><ele>209.8</ele><time>2026-05-02T11:49:36.998Z</time></trkpt><trkpt lat="46.043599950151716" lon="9.30248264245174"><ele>210.2</ele><time>2026-05-02T11:49:37.998Z</time></trkpt><trkpt lat="46.043684110844396" lon="9.302543287295745"><ele>210.60000000000002</ele><time>2026-05-02T11:49:38.998Z</time></trkpt><trkpt lat="46.043754800467255" lon="9.302656809341704"><ele>211.0</ele><time>2026-05-02T11:49:39.998Z</time></trkpt><trkpt lat="46.0438042845041" lon="9.3027519766777"><ele>210.99999999999997</ele><time>2026-05-02T11:49:40.998Z</time></trkpt><trkpt lat="46.04386204483" lon="9.302837711777773"><ele>211.0</ele><time>2026-05-02T11:49:41.998Z</time></trkpt><trkpt lat="46.043919825512035" lon="9.302927393217463"><ele>211.0</ele><time>2026-05-02T11:49:42.998Z</time></trkpt><trkpt lat="46.04396764458729" lon="9.303021033096996"><ele>211.0</ele><time>2026-05-02T11:49:43.998Z</time></trkpt><trkpt lat="46.04403269302535" lon="9.303101434996103"><ele>210.99999999999997</ele><time>2026-05-02T11:49:44.998Z</time></trkpt><trkpt lat="46.04409517598043" lon="9.303182166787286"><ele>211.0</ele><time>2026-05-02T11:49:45.998Z</time></trkpt><trkpt lat="46.044166676455" lon="9.30325591565801"><ele>210.4</ele><time>2026-05-02T11:49:46.998Z</time></trkpt><trkpt lat="46.04423729223945" lon="9.303335293332877"><ele>209.8</ele><time>2026-05-02T11:49:47.998Z</time></trkpt><trkpt lat="46.0443918339797" lon="9.303511692528403"><ele>209.20000000000002</ele><time>2026-05-02T11:49:49.998Z</time></trkpt><trkpt lat="46.04444429325699" lon="9.30356666358909"><ele>208.60000000000002</ele><time>2026-05-02T11:49:50.998Z</time></trkpt><trkpt lat="46.044488386157816" lon="9.303637939420803"><ele>208.0</ele><time>2026-05-02T11:49:51.998Z</time></trkpt><trkpt lat="46.04453443020002" lon="9.303706596173557"><ele>207.99999999999997</ele><time>2026-05-02T11:49:52.998Z</time></trkpt><trkpt lat="46.04459253771866" lon="9.303767005498402"><ele>208.0</ele><time>2026-05-02T11:49:53.998Z</time></trkpt><trkpt lat="46.04465711700469" lon="9.30384711895915"><ele>208.0</ele><time>2026-05-02T11:49:54.998Z</time></trkpt><trkpt lat="46.04472252160147" lon="9.303939331164804"><ele>208.0</ele><time>2026-05-02T11:49:55.998Z</time></trkpt><trkpt lat="46.04478773212157" lon="9.304031755882027"><ele>207.99999999999997</ele><time>2026-05-02T11:49:56.998Z</time></trkpt><trkpt lat="46.04485595458833" lon="9.304128700525368"><ele>208.0</ele><time>2026-05-02T11:49:57.998Z</time></trkpt><trkpt lat="46.04492116477726" lon="9.304215961446353"><ele>207.49999999999997</ele><time>2026-05-02T11:49:58.998Z</time></trkpt><trkpt lat="46.044977243579936" lon="9.304323238291992"><ele>207.0</ele><time>2026-05-02T11:49:59.998Z</time></trkpt><trkpt lat="46.045028748816435" lon="9.304417676355719"><ele>206.5</ele><time>2026-05-02T11:50:00.998Z</time></trkpt><trkpt lat="46.04507810410729" lon="9.30450857746019"><ele>206.0</ele><time>2026-05-02T11:50:01.998Z</time></trkpt><trkpt lat="46.04512412414781" lon="9.304586351982508"><ele>205.49999999999997</ele><time>2026-05-02T11:50:02.998Z</time></trkpt><trkpt lat="46.04515695349308" lon="9.304665568794473"><ele>205.0</ele><time>2026-05-02T11:50:03.998Z</time></trkpt><trkpt lat="46.04519243376281" lon="9.304746036488588"><ele>205.83333333333331</ele><time>2026-05-02T11:50:04.998Z</time></trkpt><trkpt lat="46.045223427476955" lon="9.304827740777"><ele>206.66666666666666</ele><time>2026-05-02T11:50:05.998Z</time></trkpt><trkpt lat="46.04526126606705" lon="9.304906989900516"><ele>207.5</ele><time>2026-05-02T11:50:06.998Z</time></trkpt><trkpt lat="46.04529733288783" lon="9.30498570852464"><ele>208.33333333333331</ele><time>2026-05-02T11:50:07.998Z</time></trkpt><trkpt lat="46.04533772485749" lon="9.30507796872266"><ele>209.16666666666666</ele><time>2026-05-02T11:50:08.998Z</time></trkpt><trkpt lat="46.04539361524739" lon="9.30517938171946"><ele>210.0</ele><time>2026-05-02T11:50:09.998Z</time></trkpt><trkpt lat="46.04544699619799" lon="9.30528464656087"><ele>210.0</ele><time>2026-05-02T11:50:10.998Z</time></trkpt><trkpt lat="46.04551256696464" lon="9.305387319830581"><ele>210.0</ele><time>2026-05-02T11:50:11.998Z</time></trkpt><trkpt lat="46.04559182682559" lon="9.305474982078497"><ele>210.0</ele><time>2026-05-02T11:50:12.998Z</time></trkpt><trkpt lat="46.045695637373306" lon="9.305532430911585"><ele>210.0</ele><time>2026-05-02T11:50:13.998Z</time></trkpt><trkpt lat="46.045808907535665" lon="9.305575889998456"><ele>210.0</ele><time>2026-05-02T11:50:14.998Z</time></trkpt><trkpt lat="46.045921284963875" lon="9.305616041767175"><ele>208.6</ele><time>2026-05-02T11:50:15.999Z</time></trkpt><trkpt lat="46.04602123465138" lon="9.305629171744005"><ele>207.2</ele><time>2026-05-02T11:50:16.999Z</time></trkpt><trkpt lat="46.04612995486277" lon="9.305652240980976"><ele>205.8</ele><time>2026-05-02T11:50:17.999Z</time></trkpt><trkpt lat="46.04624008212372" lon="9.305653587193103"><ele>204.4</ele><time>2026-05-02T11:50:18.999Z</time></trkpt><trkpt lat="46.04633898362651" lon="9.305615662394137"><ele>203.0</ele><time>2026-05-02T11:50:19.999Z</time></trkpt><trkpt lat="46.046443347996075" lon="9.305577811446614"><ele>203.0</ele><time>2026-05-02T11:50:20.999Z</time></trkpt><trkpt lat="46.0465380335319" lon="9.30551857300724"><ele>203.0</ele><time>2026-05-02T11:50:21.999Z</time></trkpt><trkpt lat="46.04664380155554" lon="9.305479347591437"><ele>203.0</ele><time>2026-05-02T11:50:22.999Z</time></trkpt><trkpt lat="46.04674952471871" lon="9.305443609769997"><ele>203.0</ele><time>2026-05-02T11:50:23.999Z</time></trkpt><trkpt lat="46.04685574802562" lon="9.305413357079413"><ele>203.0</ele><time>2026-05-02T11:50:24.999Z</time></trkpt><trkpt lat="46.04696379780989" lon="9.305404851951513"><ele>203.0</ele><time>2026-05-02T11:50:25.999Z</time></trkpt><trkpt lat="46.047076344240324" lon="9.30543100481551"><ele>203.0</ele><time>2026-05-02T11:50:26.999Z</time></trkpt><trkpt lat="46.04716966323681" lon="9.30544118266894"><ele>203.0</ele><time>2026-05-02T11:50:27.999Z</time></trkpt><trkpt lat="46.04726289403342" lon="9.305462971627424"><ele>203.0</ele><time>2026-05-02T11:50:28.999Z</time></trkpt><trkpt lat="46.04735559666201" lon="9.305514008247124"><ele>203.0</ele><time>2026-05-02T11:50:29.999Z</time></trkpt><trkpt lat="46.04743851326971" lon="9.305598544207069"><ele>205.0</ele><time>2026-05-02T11:50:30.999Z</time></trkpt><trkpt lat="46.04750629921433" lon="9.305706766024043"><ele>207.0</ele><time>2026-05-02T11:50:31.999Z</time></trkpt><trkpt lat="46.04756550177622" lon="9.305823898206553"><ele>209.0</ele><time>2026-05-02T11:50:32.999Z</time></trkpt><trkpt lat="46.047608162025504" lon="9.305944414968364"><ele>211.0</ele><time>2026-05-02T11:50:33.999Z</time></trkpt><trkpt lat="46.047658913780424" lon="9.30607231981719"><ele>213.0</ele><time>2026-05-02T11:50:34.999Z</time></trkpt><trkpt lat="46.04770960398306" lon="9.30618876611805"><ele>213.0</ele><time>2026-05-02T11:50:35.999Z</time></trkpt><trkpt lat="46.04776053824369" lon="9.306307702905654"><ele>213.0</ele><time>2026-05-02T11:50:36.999Z</time></trkpt><trkpt lat="46.04780268147833" lon="9.306419980986755"><ele>213.0</ele><time>2026-05-02T11:50:37.999Z</time></trkpt><trkpt lat="46.047852664428795" lon="9.306536134414221"><ele>213.0</ele><time>2026-05-02T11:50:38.999Z</time></trkpt><trkpt lat="46.04790760956885" lon="9.306630550555457"><ele>213.0</ele><time>2026-05-02T11:50:39.999Z</time></trkpt><trkpt lat="46.04796173758511" lon="9.306722792528925"><ele>212.2</ele><time>2026-05-02T11:50:40.999Z</time></trkpt><trkpt lat="46.04803504595343" lon="9.306826877932748"><ele>211.4</ele><time>2026-05-02T11:50:41.999Z</time></trkpt><trkpt lat="46.04810987347281" lon="9.306917759334821"><ele>210.6</ele><time>2026-05-02T11:50:42.999Z</time></trkpt><trkpt lat="46.0481852786778" lon="9.306979806641905"><ele>209.79999999999998</ele><time>2026-05-02T11:50:43.999Z</time></trkpt><trkpt lat="46.048282438712725" lon="9.307018024410251"><ele>209.0</ele><time>2026-05-02T11:50:44.999Z</time></trkpt><trkpt lat="46.04838630376511" lon="9.307042614892662"><ele>209.0</ele><time>2026-05-02T11:50:45.999Z</time></trkpt><trkpt lat="46.048473799860396" lon="9.307090620850076"><ele>209.0</ele><time>2026-05-02T11:50:46.999Z</time></trkpt><trkpt lat="46.048568582830214" lon="9.307125539073013"><ele>209.0</ele><time>2026-05-02T11:50:47.999Z</time></trkpt><trkpt lat="46.048662197229056" lon="9.307166665421535"><ele>209.0</ele><time>2026-05-02T11:50:48.999Z</time></trkpt><trkpt lat="46.048760702626566" lon="9.307218601148323"><ele>209.0</ele><time>2026-05-02T11:50:49.999Z</time></trkpt><trkpt lat="46.0488478044174" lon="9.307271135180256"><ele>209.39999999999998</ele><time>2026-05-02T11:50:50.999Z</time></trkpt><trkpt lat="46.04894204119898" lon="9.307335308087179"><ele>209.8</ele><time>2026-05-02T11:50:51.999Z</time></trkpt><trkpt lat="46.04903606510218" lon="9.30741941407662"><ele>210.2</ele><time>2026-05-02T11:50:52.999Z</time></trkpt><trkpt lat="46.049128525935245" lon="9.307515922492726"><ele>210.60000000000002</ele><time>2026-05-02T11:50:53.999Z</time></trkpt><trkpt lat="46.049222460386055" lon="9.307611888084562"><ele>211.0</ele><time>2026-05-02T11:50:54.999Z</time></trkpt><trkpt lat="46.04931237086545" lon="9.307716676262602"><ele>211.0</ele><time>2026-05-02T11:50:55.999Z</time></trkpt><trkpt lat="46.0493955725051" lon="9.307831561626529"><ele>211.0</ele><time>2026-05-02T11:50:56.999Z</time></trkpt><trkpt lat="46.04946669507516" lon="9.307959726953035"><ele>211.0</ele><time>2026-05-02T11:50:57.999Z</time></trkpt><trkpt lat="46.049536715858274" lon="9.308074753337117"><ele>211.0</ele><time>2026-05-02T11:50:58.999Z</time></trkpt><trkpt lat="46.049600558333175" lon="9.308191063095629"><ele>211.0</ele><time>2026-05-02T11:50:59.999Z</time></trkpt><trkpt lat="46.04966233716824" lon="9.308300198251704"><ele>210.20000000000002</ele><time>2026-05-02T11:51:00.999Z</time></trkpt><trkpt lat="46.049727609638914" lon="9.308409594987191"><ele>209.4</ele><time>2026-05-02T11:51:01.999Z</time></trkpt><trkpt lat="46.0497924925292" lon="9.308528965815736"><ele>208.6</ele><time>2026-05-02T11:51:02.999Z</time></trkpt><trkpt lat="46.049856276636376" lon="9.308646280282531"><ele>207.8</ele><time>2026-05-02T11:51:03.999Z</time></trkpt><trkpt lat="46.049924563437834" lon="9.308761928542415"><ele>207.0</ele><time>2026-05-02T11:51:04.999Z</time></trkpt><trkpt lat="46.04999085405286" lon="9.308878081806514"><ele>208.2</ele><time>2026-05-02T11:51:05.999Z</time></trkpt><trkpt lat="46.050052337341405" lon="9.308997255672534"><ele>209.39999999999998</ele><time>2026-05-02T11:51:06.999Z</time></trkpt><trkpt lat="46.05011410729287" lon="9.30911965666474"><ele>210.60000000000002</ele><time>2026-05-02T11:51:07.999Z</time></trkpt><trkpt lat="46.05017932596043" lon="9.309239410248306"><ele>211.8</ele><time>2026-05-02T11:51:08.999Z</time></trkpt><trkpt lat="46.050251582621605" lon="9.309356431345261"><ele>213.0</ele><time>2026-05-02T11:51:10Z</time></trkpt><trkpt lat="46.0503215509122" lon="9.30947594237726"><ele>213.0</ele><time>2026-05-02T11:51:11Z</time></trkpt><trkpt lat="46.05038551330015" lon="9.309591004544796"><ele>213.0</ele><time>2026-05-02T11:51:11.998Z</time></trkpt><trkpt lat="46.05044846835847" lon="9.309701043650161"><ele>213.0</ele><time>2026-05-02T11:51:12.998Z</time></trkpt><trkpt lat="46.05050940127945" lon="9.309817052619131"><ele>213.0</ele><time>2026-05-02T11:51:13.998Z</time></trkpt><trkpt lat="46.050567826307564" lon="9.309935869361205"><ele>213.0</ele><time>2026-05-02T11:51:14.998Z</time></trkpt><trkpt lat="46.050624398999766" lon="9.31006824802439"><ele>212.0</ele><time>2026-05-02T11:51:15.997Z</time></trkpt><trkpt lat="46.05070807870593" lon="9.310175955598744"><ele>211.0</ele><time>2026-05-02T11:51:16.998Z</time></trkpt><trkpt lat="46.05079437474271" lon="9.310282553129781"><ele>210.0</ele><time>2026-05-02T11:51:17.998Z</time></trkpt><trkpt lat="46.05089170645493" lon="9.310384359178515"><ele>209.0</ele><time>2026-05-02T11:51:18.998Z</time></trkpt><trkpt lat="46.050991937945575" lon="9.31046991057416"><ele>209.0</ele><time>2026-05-02T11:51:19.998Z</time></trkpt><trkpt lat="46.051099680390536" lon="9.310546378863398"><ele>209.0</ele><time>2026-05-02T11:51:20.998Z</time></trkpt><trkpt lat="46.05120982774492" lon="9.31062356559487"><ele>209.0</ele><time>2026-05-02T11:51:21.998Z</time></trkpt><trkpt lat="46.05132609194148" lon="9.310712194985626"><ele>209.0</ele><time>2026-05-02T11:51:22.998Z</time></trkpt><trkpt lat="46.05144206077282" lon="9.310794638043737"><ele>210.25</ele><time>2026-05-02T11:51:23.998Z</time></trkpt><trkpt lat="46.051535471312384" lon="9.310891245075506"><ele>211.5</ele><time>2026-05-02T11:51:24.998Z</time></trkpt><trkpt lat="46.051644600310716" lon="9.310975062984902"><ele>212.75</ele><time>2026-05-02T11:51:25.998Z</time></trkpt><trkpt lat="46.051756139917565" lon="9.311034359792577"><ele>214.0</ele><time>2026-05-02T11:51:26.998Z</time></trkpt><trkpt lat="46.05186124151091" lon="9.311138040152048"><ele>214.0</ele><time>2026-05-02T11:51:27.998Z</time></trkpt><trkpt lat="46.051981398675146" lon="9.311219966835248"><ele>214.0</ele><time>2026-05-02T11:51:28.998Z</time></trkpt><trkpt lat="46.05209497263679" lon="9.311316391262048"><ele>214.0</ele><time>2026-05-02T11:51:29.998Z</time></trkpt><trkpt lat="46.052199320258296" lon="9.311406082893084"><ele>214.0</ele><time>2026-05-02T11:51:30.998Z</time></trkpt><trkpt lat="46.052304898711924" lon="9.311486934027453"><ele>213.75</ele><time>2026-05-02T11:51:31.999Z</time></trkpt><trkpt lat="46.05241421678466" lon="9.311559144284724"><ele>213.5</ele><time>2026-05-02T11:51:32.999Z</time></trkpt><trkpt lat="46.05252476589091" lon="9.311640785309775"><ele>213.25</ele><time>2026-05-02T11:51:33.999Z</time></trkpt><trkpt lat="46.05264044607498" lon="9.311725505036026"><ele>213.0</ele><time>2026-05-02T11:51:34.999Z</time></trkpt><trkpt lat="46.0527450376552" lon="9.3118231547935"><ele>213.0</ele><time>2026-05-02T11:51:35.999Z</time></trkpt><trkpt lat="46.052851638077996" lon="9.31191504918713"><ele>213.0</ele><time>2026-05-02T11:51:36.999Z</time></trkpt><trkpt lat="46.052962908023495" lon="9.31199867939964"><ele>213.0</ele><time>2026-05-02T11:51:37.999Z</time></trkpt><trkpt lat="46.053073086086535" lon="9.312085572533237"><ele>213.0</ele><time>2026-05-02T11:51:38.999Z</time></trkpt><trkpt lat="46.053177536401584" lon="9.312167252232374"><ele>215.75</ele><time>2026-05-02T11:51:39.999Z</time></trkpt><trkpt lat="46.05327835146839" lon="9.312250454752215"><ele>218.5</ele><time>2026-05-02T11:51:40.999Z</time></trkpt><trkpt lat="46.053381969186496" lon="9.312321612396584"><ele>221.25</ele><time>2026-05-02T11:51:41.999Z</time></trkpt><trkpt lat="46.05348270212328" lon="9.312390040657847"><ele>224.0</ele><time>2026-05-02T11:51:42.999Z</time></trkpt><trkpt lat="46.05359183995493" lon="9.312448157314625"><ele>224.0</ele><time>2026-05-02T11:51:43.999Z</time></trkpt><trkpt lat="46.05371384391057" lon="9.312483549063176"><ele>224.0</ele><time>2026-05-02T11:51:44.999Z</time></trkpt><trkpt lat="46.053843246895944" lon="9.31249787444777"><ele>224.0</ele><time>2026-05-02T11:51:45.998Z</time></trkpt><trkpt lat="46.05396980734052" lon="9.312490956374765"><ele>224.0</ele><time>2026-05-02T11:51:46.998Z</time></trkpt><trkpt lat="46.05409634690786" lon="9.312484665745444"><ele>221.75</ele><time>2026-05-02T11:51:47.998Z</time></trkpt><trkpt lat="46.05421578370579" lon="9.312477608428031"><ele>219.5</ele><time>2026-05-02T11:51:48.997Z</time></trkpt><trkpt lat="46.05433670427605" lon="9.312480621453883"><ele>217.25</ele><time>2026-05-02T11:51:49.997Z</time></trkpt><trkpt lat="46.0544572228017" lon="9.312494833869026"><ele>215.0</ele><time>2026-05-02T11:51:50.997Z</time></trkpt><trkpt lat="46.05458034887633" lon="9.312523287672763"><ele>215.0</ele><time>2026-05-02T11:51:51.997Z</time></trkpt><trkpt lat="46.054700038456005" lon="9.312583432941773"><ele>215.0</ele><time>2026-05-02T11:51:52.996Z</time></trkpt><trkpt lat="46.05481860861095" lon="9.312662803399078"><ele>215.0</ele><time>2026-05-02T11:51:53.996Z</time></trkpt><trkpt lat="46.054938862650566" lon="9.312738165445102"><ele>215.0</ele><time>2026-05-02T11:51:54.996Z</time></trkpt><trkpt lat="46.05505477340466" lon="9.312804163128554"><ele>215.0</ele><time>2026-05-02T11:51:55.996Z</time></trkpt><trkpt lat="46.055169486953396" lon="9.312884352011519"><ele>215.0</ele><time>2026-05-02T11:51:56.995Z</time></trkpt><trkpt lat="46.05529753804544" lon="9.312925184244923"><ele>215.0</ele><time>2026-05-02T11:51:57.995Z</time></trkpt><trkpt lat="46.05543280549969" lon="9.312962083269435"><ele>215.0</ele><time>2026-05-02T11:51:58.995Z</time></trkpt><trkpt lat="46.05557332159855" lon="9.312990628462273"><ele>215.0</ele><time>2026-05-02T11:51:59.995Z</time></trkpt><trkpt lat="46.05570675294873" lon="9.312993463925523"><ele>215.0</ele><time>2026-05-02T11:52:00.995Z</time></trkpt><trkpt lat="46.0558415278728" lon="9.313001638268009"><ele>215.0</ele><time>2026-05-02T11:52:01.995Z</time></trkpt><trkpt lat="46.055980735476695" lon="9.31301665033949"><ele>215.0</ele><time>2026-05-02T11:52:02.995Z</time></trkpt><trkpt lat="46.056118677569316" lon="9.313033207635103"><ele>212.5</ele><time>2026-05-02T11:52:03.994Z</time></trkpt><trkpt lat="46.056243651053045" lon="9.313037521511248"><ele>210.0</ele><time>2026-05-02T11:52:04.994Z</time></trkpt><trkpt lat="46.05636940216061" lon="9.313058148950306"><ele>207.5</ele><time>2026-05-02T11:52:05.994Z</time></trkpt><trkpt lat="46.05649414344525" lon="9.313072579474035"><ele>205.0</ele><time>2026-05-02T11:52:06.994Z</time></trkpt><trkpt lat="46.0566133366877" lon="9.313085857341028"><ele>211.25</ele><time>2026-05-02T11:52:07.994Z</time></trkpt><trkpt lat="46.05673434765776" lon="9.313089750809537"><ele>217.5</ele><time>2026-05-02T11:52:08.994Z</time></trkpt><trkpt lat="46.05685858076666" lon="9.313090145236723"><ele>223.75</ele><time>2026-05-02T11:52:09.994Z</time></trkpt><trkpt lat="46.05698119128424" lon="9.313114370345074"><ele>230.0</ele><time>2026-05-02T11:52:10.994Z</time></trkpt><trkpt lat="46.05710512471964" lon="9.313091972708227"><ele>224.5</ele><time>2026-05-02T11:52:11.994Z</time></trkpt><trkpt lat="46.05722900395781" lon="9.313052120197613"><ele>219.0</ele><time>2026-05-02T11:52:12.994Z</time></trkpt><trkpt lat="46.057351450061525" lon="9.312992697567719"><ele>213.5</ele><time>2026-05-02T11:52:13.994Z</time></trkpt><trkpt lat="46.0574784696514" lon="9.312937085410761"><ele>208.0</ele><time>2026-05-02T11:52:14.994Z</time></trkpt><trkpt lat="46.05760378300721" lon="9.31287402031642"><ele>208.0</ele><time>2026-05-02T11:52:15.994Z</time></trkpt><trkpt lat="46.057725031591524" lon="9.312817223896975"><ele>208.0</ele><time>2026-05-02T11:52:16.994Z</time></trkpt><trkpt lat="46.057841076991274" lon="9.312757629871708"><ele>208.0</ele><time>2026-05-02T11:52:17.994Z</time></trkpt><trkpt lat="46.05795979104072" lon="9.312702278091423"><ele>208.0</ele><time>2026-05-02T11:52:18.993Z</time></trkpt><trkpt lat="46.05807276777782" lon="9.31264122114444"><ele>208.0</ele><time>2026-05-02T11:52:19.993Z</time></trkpt><trkpt lat="46.058206352772665" lon="9.312644859111892"><ele>208.0</ele><time>2026-05-02T11:52:20.993Z</time></trkpt><trkpt lat="46.05833938219346" lon="9.312592436849922"><ele>208.0</ele><time>2026-05-02T11:52:21.993Z</time></trkpt><trkpt lat="46.05847570729392" lon="9.312547603969591"><ele>208.0</ele><time>2026-05-02T11:52:22.993Z</time></trkpt><trkpt lat="46.05861370744282" lon="9.312509879338837"><ele>209.75</ele><time>2026-05-02T11:52:23.993Z</time></trkpt><trkpt lat="46.05873342140046" lon="9.312486976235302"><ele>211.5</ele><time>2026-05-02T11:52:24.993Z</time></trkpt><trkpt lat="46.05884851923237" lon="9.312463066651759"><ele>213.25</ele><time>2026-05-02T11:52:25.993Z</time></trkpt><trkpt lat="46.05896345519681" lon="9.312437541312422"><ele>215.0</ele><time>2026-05-02T11:52:26.993Z</time></trkpt><trkpt lat="46.05908446762759" lon="9.312422736266296"><ele>215.75</ele><time>2026-05-02T11:52:27.993Z</time></trkpt><trkpt lat="46.05920587095548" lon="9.312426156861306"><ele>216.5</ele><time>2026-05-02T11:52:28.993Z</time></trkpt><trkpt lat="46.059324016559614" lon="9.312452642074764"><ele>217.25</ele><time>2026-05-02T11:52:29.993Z</time></trkpt><trkpt lat="46.059435925119466" lon="9.312507274290814"><ele>218.0</ele><time>2026-05-02T11:52:30.993Z</time></trkpt><trkpt lat="46.05955231887531" lon="9.312577138913635"><ele>218.0</ele><time>2026-05-02T11:52:31.993Z</time></trkpt><trkpt lat="46.059675680736284" lon="9.31263328023182"><ele>218.0</ele><time>2026-05-02T11:52:32.993Z</time></trkpt><trkpt lat="46.059807154919355" lon="9.312662487767541"><ele>218.0</ele><time>2026-05-02T11:52:33.993Z</time></trkpt><trkpt lat="46.05994066738666" lon="9.312675553566502"><ele>218.0</ele><time>2026-05-02T11:52:34.993Z</time></trkpt><trkpt lat="46.060075012645314" lon="9.312693693310637"><ele>217.25</ele><time>2026-05-02T11:52:35.993Z</time></trkpt><trkpt lat="46.060201088796596" lon="9.31270460754685"><ele>216.5</ele><time>2026-05-02T11:52:36.993Z</time></trkpt><trkpt lat="46.06031688276645" lon="9.31269840312036"><ele>215.75</ele><time>2026-05-02T11:52:37.993Z</time></trkpt><trkpt lat="46.06043385397984" lon="9.312693303079856"><ele>215.0</ele><time>2026-05-02T11:52:38.993Z</time></trkpt><trkpt lat="46.06055051678772" lon="9.312683202733231"><ele>215.0</ele><time>2026-05-02T11:52:39.993Z</time></trkpt><trkpt lat="46.06066982694307" lon="9.31266041188607"><ele>215.0</ele><time>2026-05-02T11:52:40.993Z</time></trkpt><trkpt lat="46.060792841455935" lon="9.312637126236899"><ele>215.0</ele><time>2026-05-02T11:52:41.993Z</time></trkpt><trkpt lat="46.06091161902451" lon="9.312594756151375"><ele>215.0</ele><time>2026-05-02T11:52:42.993Z</time></trkpt><trkpt lat="46.06102615172921" lon="9.31252607727379"><ele>219.0</ele><time>2026-05-02T11:52:43.993Z</time></trkpt><trkpt lat="46.061132985823804" lon="9.312433704457936"><ele>223.0</ele><time>2026-05-02T11:52:44.993Z</time></trkpt><trkpt lat="46.06123827946121" lon="9.312344712621538"><ele>227.0</ele><time>2026-05-02T11:52:45.993Z</time></trkpt><trkpt lat="46.061345169973585" lon="9.312261837498646"><ele>231.0</ele><time>2026-05-02T11:52:46.993Z</time></trkpt><trkpt lat="46.0614640389256" lon="9.31222364537058"><ele>223.25</ele><time>2026-05-02T11:52:47.993Z</time></trkpt><trkpt lat="46.061586516349564" lon="9.312206149965816"><ele>215.5</ele><time>2026-05-02T11:52:48.993Z</time></trkpt><trkpt lat="46.061711128645584" lon="9.312191754915741"><ele>207.75</ele><time>2026-05-02T11:52:49.993Z</time></trkpt><trkpt lat="46.061836078420015" lon="9.312177320937161"><ele>200.0</ele><time>2026-05-02T11:52:50.993Z</time></trkpt><trkpt lat="46.061954975778264" lon="9.31215457651239"><ele>200.0</ele><time>2026-05-02T11:52:51.993Z</time></trkpt><trkpt lat="46.062072477864895" lon="9.31211912967191"><ele>200.0</ele><time>2026-05-02T11:52:52.993Z</time></trkpt><trkpt lat="46.06218719510715" lon="9.31206120027785"><ele>200.0</ele><time>2026-05-02T11:52:53.993Z</time></trkpt><trkpt lat="46.06229270839276" lon="9.311986826466836"><ele>200.0</ele><time>2026-05-02T11:52:54.993Z</time></trkpt><trkpt lat="46.06239907959491" lon="9.311908958329862"><ele>202.25</ele><time>2026-05-02T11:52:55.993Z</time></trkpt><trkpt lat="46.062504483929395" lon="9.311818960801789"><ele>204.5</ele><time>2026-05-02T11:52:56.993Z</time></trkpt><trkpt lat="46.062613804736976" lon="9.31173756108976"><ele>206.75</ele><time>2026-05-02T11:52:57.993Z</time></trkpt><trkpt lat="46.06272362396075" lon="9.311669894215138"><ele>209.0</ele><time>2026-05-02T11:52:58.993Z</time></trkpt><trkpt lat="46.06283852149798" lon="9.311617630167744"><ele>209.0</ele><time>2026-05-02T11:52:59.994Z</time></trkpt><trkpt lat="46.06295768860182" lon="9.311589589216368"><ele>209.0</ele><time>2026-05-02T11:53:00.994Z</time></trkpt><trkpt lat="46.06307915807013" lon="9.311589839577184"><ele>209.0</ele><time>2026-05-02T11:53:01.994Z</time></trkpt><trkpt lat="46.0632080015215" lon="9.311610116942926"><ele>209.0</ele><time>2026-05-02T11:53:02.994Z</time></trkpt><trkpt lat="46.06333640560714" lon="9.31163452612321"><ele>214.75</ele><time>2026-05-02T11:53:03.994Z</time></trkpt><trkpt lat="46.06346477807033" lon="9.31165374410243"><ele>220.5</ele><time>2026-05-02T11:53:04.994Z</time></trkpt><trkpt lat="46.063595282444055" lon="9.311679736948069"><ele>226.25</ele><time>2026-05-02T11:53:05.994Z</time></trkpt><trkpt lat="46.06372256264466" lon="9.311698233933752"><ele>232.0</ele><time>2026-05-02T11:53:06.994Z</time></trkpt><trkpt lat="46.06384862921598" lon="9.311719458700907"><ele>232.0</ele><time>2026-05-02T11:53:07.994Z</time></trkpt><trkpt lat="46.06397520336668" lon="9.31171809746778"><ele>232.0</ele><time>2026-05-02T11:53:08.994Z</time></trkpt><trkpt lat="46.06409763686201" lon="9.311678675607597"><ele>232.0</ele><time>2026-05-02T11:53:09.994Z</time></trkpt><trkpt lat="46.06423034734141" lon="9.311607486225693"><ele>232.0</ele><time>2026-05-02T11:53:11.127Z</time></trkpt><trkpt lat="46.06580564536749" lon="9.310410848763777"><ele>225.0</ele><time>2026-05-02T11:53:26.994Z</time></trkpt><trkpt lat="46.0659253194949" lon="9.310213272908397"><ele>218.0</ele><time>2026-05-02T11:53:27.994Z</time></trkpt><trkpt lat="46.06601964122915" lon="9.310098666991605"><ele>211.0</ele><time>2026-05-02T11:53:28.994Z</time></trkpt><trkpt lat="46.06609853565397" lon="9.309969377155065"><ele>204.0</ele><time>2026-05-02T11:53:29.994Z</time></trkpt><trkpt lat="46.066192364369364" lon="9.309862623028001"><ele>204.0</ele><time>2026-05-02T11:53:30.994Z</time></trkpt><trkpt lat="46.06632158630927" lon="9.309782880012277"><ele>204.0</ele><time>2026-05-02T11:53:31.994Z</time></trkpt><trkpt lat="46.066442504637756" lon="9.309714287898778"><ele>204.0</ele><time>2026-05-02T11:53:32.991Z</time></trkpt><trkpt lat="46.066568527009835" lon="9.309678633766108"><ele>204.0</ele><time>2026-05-02T11:53:33.991Z</time></trkpt><trkpt lat="46.06670512520346" lon="9.30966432855642"><ele>203.5</ele><time>2026-05-02T11:53:34.991Z</time></trkpt><trkpt lat="46.06684650444382" lon="9.309668460781978"><ele>203.0</ele><time>2026-05-02T11:53:35.992Z</time></trkpt><trkpt lat="46.06698710816629" lon="9.309677092653034"><ele>202.5</ele><time>2026-05-02T11:53:36.991Z</time></trkpt><trkpt lat="46.06713473974063" lon="9.309700001992066"><ele>202.0</ele><time>2026-05-02T11:53:37.991Z</time></trkpt><trkpt lat="46.067270137174916" lon="9.30970226610261"><ele>202.0</ele><time>2026-05-02T11:53:38.991Z</time></trkpt><trkpt lat="46.06740111348878" lon="9.30971451884098"><ele>202.0</ele><time>2026-05-02T11:53:39.991Z</time></trkpt><trkpt lat="46.06752314962609" lon="9.309723765046527"><ele>202.0</ele><time>2026-05-02T11:53:40.991Z</time></trkpt><trkpt lat="46.06764386188582" lon="9.309734168789236"><ele>202.0</ele><time>2026-05-02T11:53:41.991Z</time></trkpt><trkpt lat="46.067765929085375" lon="9.309732776623072"><ele>203.0</ele><time>2026-05-02T11:53:42.991Z</time></trkpt><trkpt lat="46.067888587827454" lon="9.30973418310743"><ele>204.0</ele><time>2026-05-02T11:53:43.991Z</time></trkpt><trkpt lat="46.068013781168204" lon="9.309743674936438"><ele>205.0</ele><time>2026-05-02T11:53:44.991Z</time></trkpt><trkpt lat="46.06813620894985" lon="9.3097515537319"><ele>206.0</ele><time>2026-05-02T11:53:45.991Z</time></trkpt><trkpt lat="46.068257940112574" lon="9.30975587573474"><ele>205.75</ele><time>2026-05-02T11:53:46.991Z</time></trkpt><trkpt lat="46.068377993862754" lon="9.309728633653162"><ele>205.5</ele><time>2026-05-02T11:53:47.991Z</time></trkpt><trkpt lat="46.06850243851132" lon="9.309693452024952"><ele>205.25</ele><time>2026-05-02T11:53:48.991Z</time></trkpt><trkpt lat="46.06862053909013" lon="9.309625747916662"><ele>205.0</ele><time>2026-05-02T11:53:49.991Z</time></trkpt><trkpt lat="46.06873084748322" lon="9.309540603465368"><ele>205.0</ele><time>2026-05-02T11:53:50.992Z</time></trkpt><trkpt lat="46.068840478403864" lon="9.309458057846808"><ele>205.0</ele><time>2026-05-02T11:53:51.992Z</time></trkpt><trkpt lat="46.068955128057524" lon="9.309377665313404"><ele>205.0</ele><time>2026-05-02T11:53:52.992Z</time></trkpt><trkpt lat="46.069067977837776" lon="9.309300959778906"><ele>205.0</ele><time>2026-05-02T11:53:53.992Z</time></trkpt><trkpt lat="46.069178722353854" lon="9.309228357014856"><ele>205.2</ele><time>2026-05-02T11:53:54.992Z</time></trkpt><trkpt lat="46.06928785848118" lon="9.309158363708598"><ele>205.4</ele><time>2026-05-02T11:53:55.992Z</time></trkpt><trkpt lat="46.06938823504227" lon="9.30908363670161"><ele>205.60000000000002</ele><time>2026-05-02T11:53:56.992Z</time></trkpt><trkpt lat="46.06948408370543" lon="9.309014206615856"><ele>205.8</ele><time>2026-05-02T11:53:57.992Z</time></trkpt><trkpt lat="46.069580779646095" lon="9.308951768318572"><ele>206.0</ele><time>2026-05-02T11:53:58.992Z</time></trkpt><trkpt lat="46.0696777247859" lon="9.308888685723916"><ele>205.60000000000002</ele><time>2026-05-02T11:53:59.992Z</time></trkpt><trkpt lat="46.06977184689312" lon="9.308817953970237"><ele>205.2</ele><time>2026-05-02T11:54:00.992Z</time></trkpt><trkpt lat="46.06985922538021" lon="9.308751633856156"><ele>204.8</ele><time>2026-05-02T11:54:01.992Z</time></trkpt><trkpt lat="46.06994580436121" lon="9.308692676936314"><ele>204.39999999999998</ele><time>2026-05-02T11:54:02.992Z</time></trkpt><trkpt lat="46.07002856770395" lon="9.30863512540718"><ele>204.0</ele><time>2026-05-02T11:54:03.992Z</time></trkpt><trkpt lat="46.07011211354916" lon="9.308568202409571"><ele>203.79999999999998</ele><time>2026-05-02T11:54:04.992Z</time></trkpt><trkpt lat="46.07019427970491" lon="9.308498707874586"><ele>203.6</ele><time>2026-05-02T11:54:05.992Z</time></trkpt><trkpt lat="46.070270886121385" lon="9.308422524781204"><ele>203.4</ele><time>2026-05-02T11:54:06.992Z</time></trkpt><trkpt lat="46.07035250090684" lon="9.308342711938813"><ele>203.2</ele><time>2026-05-02T11:54:07.992Z</time></trkpt><trkpt lat="46.0704337202825" lon="9.308259011133181"><ele>203.0</ele><time>2026-05-02T11:54:08.992Z</time></trkpt><trkpt lat="46.07051491388509" lon="9.30818132316304"><ele>203.0</ele><time>2026-05-02T11:54:09.992Z</time></trkpt><trkpt lat="46.07059489734996" lon="9.308102915346002"><ele>203.0</ele><time>2026-05-02T11:54:10.992Z</time></trkpt><trkpt lat="46.07067652748473" lon="9.308026993017355"><ele>203.0</ele><time>2026-05-02T11:54:11.992Z</time></trkpt><trkpt lat="46.07075524153869" lon="9.307945142044991"><ele>203.0</ele><time>2026-05-02T11:54:12.992Z</time></trkpt><trkpt lat="46.07083373539954" lon="9.307864370508447"><ele>203.0</ele><time>2026-05-02T11:54:13.992Z</time></trkpt><trkpt lat="46.070915706013274" lon="9.307779374265525"><ele>203.60000000000002</ele><time>2026-05-02T11:54:14.992Z</time></trkpt><trkpt lat="46.07100143043979" lon="9.307694602439371"><ele>204.20000000000002</ele><time>2026-05-02T11:54:15.992Z</time></trkpt><trkpt lat="46.07108772047218" lon="9.307606821688529"><ele>204.8</ele><time>2026-05-02T11:54:16.992Z</time></trkpt><trkpt lat="46.071181125036766" lon="9.30752318311732"><ele>205.4</ele><time>2026-05-02T11:54:17.992Z</time></trkpt><trkpt lat="46.07126967892246" lon="9.307433523454035"><ele>206.0</ele><time>2026-05-02T11:54:18.992Z</time></trkpt><trkpt lat="46.07136261073256" lon="9.307345950867758"><ele>206.0</ele><time>2026-05-02T11:54:19.992Z</time></trkpt><trkpt lat="46.071451797128546" lon="9.307256209022663"><ele>206.0</ele><time>2026-05-02T11:54:20.992Z</time></trkpt><trkpt lat="46.071545791962365" lon="9.307161840526014"><ele>206.0</ele><time>2026-05-02T11:54:21.992Z</time></trkpt><trkpt lat="46.07164221798815" lon="9.307063165154371"><ele>206.0</ele><time>2026-05-02T11:54:22.992Z</time></trkpt><trkpt lat="46.0717410517728" lon="9.306966403361281"><ele>206.25</ele><time>2026-05-02T11:54:23.992Z</time></trkpt><trkpt lat="46.07184483305742" lon="9.306869932895903"><ele>206.5</ele><time>2026-05-02T11:54:24.992Z</time></trkpt><trkpt lat="46.07195225250269" lon="9.30676896873311"><ele>206.75</ele><time>2026-05-02T11:54:25.992Z</time></trkpt><trkpt lat="46.07206183723844" lon="9.306669984448675"><ele>207.0</ele><time>2026-05-02T11:54:26.992Z</time></trkpt><trkpt lat="46.072182479350545" lon="9.306586777738218"><ele>207.0</ele><time>2026-05-02T11:54:27.992Z</time></trkpt><trkpt lat="46.07229202861655" lon="9.306487695523204"><ele>207.0</ele><time>2026-05-02T11:54:28.992Z</time></trkpt><trkpt lat="46.072397328979655" lon="9.306395518136402"><ele>207.0</ele><time>2026-05-02T11:54:29.992Z</time></trkpt><trkpt lat="46.072501025211544" lon="9.306308718335998"><ele>207.0</ele><time>2026-05-02T11:54:30.992Z</time></trkpt><trkpt lat="46.07260115670301" lon="9.30621955952522"><ele>207.75</ele><time>2026-05-02T11:54:31.992Z</time></trkpt><trkpt lat="46.0727054652857" lon="9.306129362920984"><ele>208.5</ele><time>2026-05-02T11:54:32.992Z</time></trkpt><trkpt lat="46.072810959761625" lon="9.30603180001665"><ele>209.25</ele><time>2026-05-02T11:54:33.992Z</time></trkpt><trkpt lat="46.07291748212451" lon="9.305936061187127"><ele>210.0</ele><time>2026-05-02T11:54:34.992Z</time></trkpt><trkpt lat="46.07302500709643" lon="9.305850192300026"><ele>210.0</ele><time>2026-05-02T11:54:35.992Z</time></trkpt><trkpt lat="46.07312587021297" lon="9.305769164783158"><ele>210.0</ele><time>2026-05-02T11:54:36.992Z</time></trkpt><trkpt lat="46.07322215499583" lon="9.305693048698211"><ele>210.0</ele><time>2026-05-02T11:54:37.992Z</time></trkpt><trkpt lat="46.073314607017" lon="9.305620513821887"><ele>210.0</ele><time>2026-05-02T11:54:38.992Z</time></trkpt><trkpt lat="46.07341182710791" lon="9.305547703874039"><ele>210.0</ele><time>2026-05-02T11:54:39.992Z</time></trkpt><trkpt lat="46.073509741843246" lon="9.305475819076902"><ele>210.0</ele><time>2026-05-02T11:54:40.992Z</time></trkpt><trkpt lat="46.07360797484617" lon="9.305399645939982"><ele>210.0</ele><time>2026-05-02T11:54:41.992Z</time></trkpt><trkpt lat="46.073709257759596" lon="9.30531981065154"><ele>210.0</ele><time>2026-05-02T11:54:42.992Z</time></trkpt><trkpt lat="46.07381493232858" lon="9.305239786514719"><ele>210.0</ele><time>2026-05-02T11:54:43.992Z</time></trkpt><trkpt lat="46.07392072472567" lon="9.305153533749921"><ele>210.0</ele><time>2026-05-02T11:54:44.992Z</time></trkpt><trkpt lat="46.07402287048021" lon="9.305071443657269"><ele>210.0</ele><time>2026-05-02T11:54:45.992Z</time></trkpt><trkpt lat="46.07412224848586" lon="9.304996236547161"><ele>210.0</ele><time>2026-05-02T11:54:46.992Z</time></trkpt><trkpt lat="46.07422235679741" lon="9.304928388012089"><ele>210.0</ele><time>2026-05-02T11:54:47.992Z</time></trkpt><trkpt lat="46.074320996158235" lon="9.304868219474919"><ele>210.0</ele><time>2026-05-02T11:54:48.993Z</time></trkpt><trkpt lat="46.074420270290645" lon="9.30480224808294"><ele>209.6</ele><time>2026-05-02T11:54:49.993Z</time></trkpt><trkpt lat="46.07452291316813" lon="9.304736228042275"><ele>209.2</ele><time>2026-05-02T11:54:50.993Z</time></trkpt><trkpt lat="46.07462321203179" lon="9.304677968844485"><ele>208.8</ele><time>2026-05-02T11:54:51.993Z</time></trkpt><trkpt lat="46.07472497096966" lon="9.304631215599663"><ele>208.4</ele><time>2026-05-02T11:54:52.993Z</time></trkpt><trkpt lat="46.07482654718235" lon="9.304591102795582"><ele>208.0</ele><time>2026-05-02T11:54:53.993Z</time></trkpt><trkpt lat="46.07492728531737" lon="9.30455372487312"><ele>208.2</ele><time>2026-05-02T11:54:54.993Z</time></trkpt><trkpt lat="46.07503059114234" lon="9.304518792222307"><ele>208.4</ele><time>2026-05-02T11:54:55.993Z</time></trkpt><trkpt lat="46.07513257520536" lon="9.304482799687676"><ele>208.6</ele><time>2026-05-02T11:54:56.993Z</time></trkpt><trkpt lat="46.07523788308425" lon="9.304451794918053"><ele>208.79999999999998</ele><time>2026-05-02T11:54:57.993Z</time></trkpt><trkpt lat="46.07534683646049" lon="9.30443956465351"><ele>209.0</ele><time>2026-05-02T11:54:58.993Z</time></trkpt><trkpt lat="46.07545868963498" lon="9.30442204778408"><ele>209.0</ele><time>2026-05-02T11:54:59.993Z</time></trkpt><trkpt lat="46.07556072453457" lon="9.304410603408382"><ele>209.0</ele><time>2026-05-02T11:55:00.993Z</time></trkpt><trkpt lat="46.07565778970797" lon="9.304400569877691"><ele>209.0</ele><time>2026-05-02T11:55:01.993Z</time></trkpt><trkpt lat="46.07575517566523" lon="9.304402095459748"><ele>209.0</ele><time>2026-05-02T11:55:02.993Z</time></trkpt><trkpt lat="46.07584092344363" lon="9.304406956538108"><ele>209.0</ele><time>2026-05-02T11:55:03.993Z</time></trkpt><trkpt lat="46.07591147815895" lon="9.304408362411495"><ele>209.39999999999998</ele><time>2026-05-02T11:55:04.993Z</time></trkpt><trkpt lat="46.07601790963852" lon="9.304401134270384"><ele>209.8</ele><time>2026-05-02T11:55:06.993Z</time></trkpt><trkpt lat="46.07611925258967" lon="9.304429365524427"><ele>210.2</ele><time>2026-05-02T11:55:08.993Z</time></trkpt><trkpt lat="46.076200171507885" lon="9.3044381414458"><ele>210.60000000000002</ele><time>2026-05-02T11:55:10.993Z</time></trkpt><trkpt lat="46.076268142189925" lon="9.30445545948405"><ele>211.0</ele><time>2026-05-02T11:55:39.991Z</time></trkpt><trkpt lat="46.0763700518047" lon="9.304477476509527"><ele>210.99999999999997</ele><time>2026-05-02T11:55:41.991Z</time></trkpt><trkpt lat="46.07643712936885" lon="9.30449516680019"><ele>211.0</ele><time>2026-05-02T11:55:42.991Z</time></trkpt><trkpt lat="46.07650657447064" lon="9.304513481475635"><ele>211.0</ele><time>2026-05-02T11:55:43.991Z</time></trkpt><trkpt lat="46.07658104207231" lon="9.304533120731179"><ele>211.0</ele><time>2026-05-02T11:55:44.99Z</time></trkpt><trkpt lat="46.076661120582216" lon="9.304554239820373"><ele>210.99999999999997</ele><time>2026-05-02T11:55:45.991Z</time></trkpt><trkpt lat="46.076744908538316" lon="9.304570957387579"><ele>211.0</ele><time>2026-05-02T11:55:46.991Z</time></trkpt><trkpt lat="46.07682756551481" lon="9.304588027849533"><ele>210.8</ele><time>2026-05-02T11:55:47.991Z</time></trkpt><trkpt lat="46.07691437308072" lon="9.30460595549971"><ele>210.60000000000002</ele><time>2026-05-02T11:55:48.991Z</time></trkpt><trkpt lat="46.07700565158699" lon="9.304624806496872"><ele>210.4</ele><time>2026-05-02T11:55:49.991Z</time></trkpt><trkpt lat="46.07710397327817" lon="9.304647516501886"><ele>210.2</ele><time>2026-05-02T11:55:50.99Z</time></trkpt><trkpt lat="46.07721337293299" lon="9.304673574838302"><ele>210.0</ele><time>2026-05-02T11:55:51.99Z</time></trkpt><trkpt lat="46.077319278525955" lon="9.304712564352592"><ele>210.75</ele><time>2026-05-02T11:55:52.99Z</time></trkpt><trkpt lat="46.07743473275739" lon="9.304757058312296"><ele>211.5</ele><time>2026-05-02T11:55:53.99Z</time></trkpt><trkpt lat="46.07754764220667" lon="9.304810361359305"><ele>212.25</ele><time>2026-05-02T11:55:54.99Z</time></trkpt><trkpt lat="46.07766572188014" lon="9.304877048034559"><ele>213.0</ele><time>2026-05-02T11:55:55.99Z</time></trkpt><trkpt lat="46.0777882258231" lon="9.304933345663503"><ele>213.0</ele><time>2026-05-02T11:55:56.99Z</time></trkpt><trkpt lat="46.077898808801" lon="9.30501472189969"><ele>213.0</ele><time>2026-05-02T11:55:57.99Z</time></trkpt><trkpt lat="46.078005615759885" lon="9.305103982600501"><ele>213.0</ele><time>2026-05-02T11:55:58.99Z</time></trkpt><trkpt lat="46.07809769753268" lon="9.30521532396387"><ele>213.0</ele><time>2026-05-02T11:55:59.99Z</time></trkpt><trkpt lat="46.07819855658346" lon="9.305322347812073"><ele>213.25</ele><time>2026-05-02T11:56:00.99Z</time></trkpt><trkpt lat="46.07829587883213" lon="9.305434465104556"><ele>213.5</ele><time>2026-05-02T11:56:01.99Z</time></trkpt><trkpt lat="46.078401334470605" lon="9.305541538695172"><ele>213.75</ele><time>2026-05-02T11:56:02.99Z</time></trkpt><trkpt lat="46.07849529961946" lon="9.305678462552427"><ele>214.0</ele><time>2026-05-02T11:56:03.99Z</time></trkpt><trkpt lat="46.0785819850307" lon="9.305823155966687"><ele>214.25</ele><time>2026-05-02T11:56:04.99Z</time></trkpt><trkpt lat="46.07866718699136" lon="9.305964981971291"><ele>214.5</ele><time>2026-05-02T11:56:05.99Z</time></trkpt><trkpt lat="46.078741374381885" lon="9.30610836093209"><ele>214.75</ele><time>2026-05-02T11:56:06.99Z</time></trkpt><trkpt lat="46.07879583670511" lon="9.30626345443118"><ele>215.0</ele><time>2026-05-02T11:56:07.99Z</time></trkpt><trkpt lat="46.078861017768354" lon="9.306398877279245"><ele>214.6</ele><time>2026-05-02T11:56:08.99Z</time></trkpt><trkpt lat="46.07893517908504" lon="9.30651724561281"><ele>214.2</ele><time>2026-05-02T11:56:09.99Z</time></trkpt><trkpt lat="46.07899020910458" lon="9.306653492356183"><ele>213.8</ele><time>2026-05-02T11:56:10.99Z</time></trkpt><trkpt lat="46.07905596717046" lon="9.306787129299824"><ele>213.4</ele><time>2026-05-02T11:56:11.99Z</time></trkpt><trkpt lat="46.07912700977107" lon="9.306918273797638"><ele>213.0</ele><time>2026-05-02T11:56:12.99Z</time></trkpt><trkpt lat="46.07919613386806" lon="9.307054435085055"><ele>212.75</ele><time>2026-05-02T11:56:13.99Z</time></trkpt><trkpt lat="46.07926412673599" lon="9.3071980992478"><ele>212.5</ele><time>2026-05-02T11:56:14.99Z</time></trkpt><trkpt lat="46.0793245078849" lon="9.307357957366765"><ele>212.25</ele><time>2026-05-02T11:56:15.991Z</time></trkpt><trkpt lat="46.0794084847265" lon="9.30749581487939"><ele>212.0</ele><time>2026-05-02T11:56:16.991Z</time></trkpt><trkpt lat="46.07948117522747" lon="9.307648766166128"><ele>212.0</ele><time>2026-05-02T11:56:17.991Z</time></trkpt><trkpt lat="46.07955596122592" lon="9.307801418641036"><ele>212.0</ele><time>2026-05-02T11:56:18.991Z</time></trkpt><trkpt lat="46.07963105774488" lon="9.307957284987694"><ele>212.0</ele><time>2026-05-02T11:56:19.991Z</time></trkpt><trkpt lat="46.079704551096704" lon="9.308109547765481"><ele>212.0</ele><time>2026-05-02T11:56:20.991Z</time></trkpt><trkpt lat="46.07977783442181" lon="9.308261953177253"><ele>212.25</ele><time>2026-05-02T11:56:21.991Z</time></trkpt><trkpt lat="46.07985425132844" lon="9.308418232585767"><ele>212.5</ele><time>2026-05-02T11:56:22.991Z</time></trkpt><trkpt lat="46.07993172693817" lon="9.308574637209906"><ele>212.75</ele><time>2026-05-02T11:56:23.991Z</time></trkpt><trkpt lat="46.08000420773514" lon="9.308721341163631"><ele>213.0</ele><time>2026-05-02T11:56:24.991Z</time></trkpt><trkpt lat="46.08005740140509" lon="9.308874873718954"><ele>213.25</ele><time>2026-05-02T11:56:25.991Z</time></trkpt><trkpt lat="46.080120890415024" lon="9.309015409068646"><ele>213.5</ele><time>2026-05-02T11:56:26.991Z</time></trkpt><trkpt lat="46.0801898074782" lon="9.30915677189622"><ele>213.75</ele><time>2026-05-02T11:56:27.991Z</time></trkpt><trkpt lat="46.0802619867329" lon="9.309305645365905"><ele>214.0</ele><time>2026-05-02T11:56:28.991Z</time></trkpt><trkpt lat="46.08033378720506" lon="9.309451877463088"><ele>214.0</ele><time>2026-05-02T11:56:29.991Z</time></trkpt><trkpt lat="46.08040703997235" lon="9.309602409026759"><ele>214.0</ele><time>2026-05-02T11:56:30.991Z</time></trkpt><trkpt lat="46.08048218240537" lon="9.309752991286476"><ele>214.0</ele><time>2026-05-02T11:56:31.991Z</time></trkpt><trkpt lat="46.08055984238937" lon="9.309906441705715"><ele>214.0</ele><time>2026-05-02T11:56:32.991Z</time></trkpt><trkpt lat="46.08063419160892" lon="9.310055504330194"><ele>212.75</ele><time>2026-05-02T11:56:33.991Z</time></trkpt><trkpt lat="46.08072063087529" lon="9.310185978301808"><ele>211.5</ele><time>2026-05-02T11:56:34.991Z</time></trkpt><trkpt lat="46.080807977097656" lon="9.310317025531461"><ele>210.25</ele><time>2026-05-02T11:56:35.991Z</time></trkpt><trkpt lat="46.080903202191244" lon="9.310437846549258"><ele>209.0</ele><time>2026-05-02T11:56:36.991Z</time></trkpt><trkpt lat="46.08099442384717" lon="9.310533078206145"><ele>212.25</ele><time>2026-05-02T11:56:37.991Z</time></trkpt><trkpt lat="46.081080653147325" lon="9.310627624678451"><ele>215.5</ele><time>2026-05-02T11:56:38.991Z</time></trkpt><trkpt lat="46.081181392584604" lon="9.310702369682021"><ele>218.75</ele><time>2026-05-02T11:56:39.991Z</time></trkpt><trkpt lat="46.08129299901943" lon="9.310767145278497"><ele>222.0</ele><time>2026-05-02T11:56:40.991Z</time></trkpt><trkpt lat="46.08141004873976" lon="9.310825880017303"><ele>222.0</ele><time>2026-05-02T11:56:41.991Z</time></trkpt><trkpt lat="46.08153431074843" lon="9.31087380211835"><ele>222.0</ele><time>2026-05-02T11:56:42.991Z</time></trkpt><trkpt lat="46.08166498189517" lon="9.310907926416204"><ele>222.0</ele><time>2026-05-02T11:56:43.991Z</time></trkpt><trkpt lat="46.081796699900835" lon="9.310928030231825"><ele>222.0</ele><time>2026-05-02T11:56:44.991Z</time></trkpt><trkpt lat="46.08192199494139" lon="9.310941340024604"><ele>219.75</ele><time>2026-05-02T11:56:45.991Z</time></trkpt><trkpt lat="46.08204329721812" lon="9.310955165052125"><ele>217.5</ele><time>2026-05-02T11:56:46.991Z</time></trkpt><trkpt lat="46.08216663313247" lon="9.310978920481778"><ele>215.25</ele><time>2026-05-02T11:56:47.991Z</time></trkpt><trkpt lat="46.08229151851941" lon="9.31102816785517"><ele>213.0</ele><time>2026-05-02T11:56:48.991Z</time></trkpt><trkpt lat="46.082404159396795" lon="9.311140722251341"><ele>211.25</ele><time>2026-05-02T11:56:49.991Z</time></trkpt><trkpt lat="46.08253580048911" lon="9.311216844415853"><ele>209.5</ele><time>2026-05-02T11:56:50.991Z</time></trkpt><trkpt lat="46.08265082112387" lon="9.311297509840516"><ele>207.75</ele><time>2026-05-02T11:56:51.991Z</time></trkpt><trkpt lat="46.0827660853367" lon="9.311328080006763"><ele>206.0</ele><time>2026-05-02T11:56:52.991Z</time></trkpt><trkpt lat="46.08288814580706" lon="9.311327337598042"><ele>206.0</ele><time>2026-05-02T11:56:53.991Z</time></trkpt><trkpt lat="46.083025909177906" lon="9.31129378284321"><ele>206.0</ele><time>2026-05-02T11:56:54.991Z</time></trkpt><trkpt lat="46.08315789815582" lon="9.311250698401562"><ele>206.0</ele><time>2026-05-02T11:56:55.991Z</time></trkpt><trkpt lat="46.0832865067576" lon="9.31122363929404"><ele>206.0</ele><time>2026-05-02T11:56:56.991Z</time></trkpt><trkpt lat="46.08341586289726" lon="9.31119749209101"><ele>207.25</ele><time>2026-05-02T11:56:57.991Z</time></trkpt><trkpt lat="46.083542051287054" lon="9.311168686993835"><ele>208.5</ele><time>2026-05-02T11:56:58.991Z</time></trkpt><trkpt lat="46.08366729153474" lon="9.311138915993878"><ele>209.75</ele><time>2026-05-02T11:56:59.991Z</time></trkpt><trkpt lat="46.083787432727846" lon="9.31110942339476"><ele>211.0</ele><time>2026-05-02T11:57:00.991Z</time></trkpt><trkpt lat="46.08391172904712" lon="9.31107039650931"><ele>211.0</ele><time>2026-05-02T11:57:01.991Z</time></trkpt><trkpt lat="46.084046601041784" lon="9.311060693455923"><ele>211.0</ele><time>2026-05-02T11:57:02.991Z</time></trkpt><trkpt lat="46.08418204766117" lon="9.311028437735287"><ele>211.0</ele><time>2026-05-02T11:57:03.991Z</time></trkpt><trkpt lat="46.08431614025852" lon="9.310996036524768"><ele>211.0</ele><time>2026-05-02T11:57:04.991Z</time></trkpt><trkpt lat="46.084450985241325" lon="9.310967411942245"><ele>212.75</ele><time>2026-05-02T11:57:05.991Z</time></trkpt><trkpt lat="46.084585301928854" lon="9.310929819211523"><ele>214.5</ele><time>2026-05-02T11:57:06.991Z</time></trkpt><trkpt lat="46.08470699298054" lon="9.310878054830484"><ele>216.25</ele><time>2026-05-02T11:57:07.991Z</time></trkpt><trkpt lat="46.08483266339961" lon="9.310823042925568"><ele>218.0</ele><time>2026-05-02T11:57:08.991Z</time></trkpt><trkpt lat="46.08495867796506" lon="9.310766939630248"><ele>218.75</ele><time>2026-05-02T11:57:09.991Z</time></trkpt><trkpt lat="46.085088679446024" lon="9.310709635836316"><ele>219.5</ele><time>2026-05-02T11:57:10.991Z</time></trkpt><trkpt lat="46.085216789589495" lon="9.310637719755613"><ele>220.25</ele><time>2026-05-02T11:57:11.991Z</time></trkpt><trkpt lat="46.085342754349924" lon="9.310571403607858"><ele>221.0</ele><time>2026-05-02T11:57:12.991Z</time></trkpt><trkpt lat="46.08545295630029" lon="9.310512081170016"><ele>218.0</ele><time>2026-05-02T11:57:13.992Z</time></trkpt><trkpt lat="46.08555866265563" lon="9.310455630857124"><ele>215.00000000000003</ele><time>2026-05-02T11:57:14.992Z</time></trkpt><trkpt lat="46.085658210285445" lon="9.310401409290755"><ele>212.0</ele><time>2026-05-02T11:57:15.992Z</time></trkpt><trkpt lat="46.085751680066615" lon="9.310354180212661"><ele>209.0</ele><time>2026-05-02T11:57:16.992Z</time></trkpt><trkpt lat="46.0858436987499" lon="9.310309408180597"><ele>206.0</ele><time>2026-05-02T11:57:17.992Z</time></trkpt><trkpt lat="46.08592110654761" lon="9.310276010024735"><ele>206.00000000000003</ele><time>2026-05-02T11:57:18.992Z</time></trkpt><trkpt lat="46.08599225792121" lon="9.310248123541035"><ele>206.0</ele><time>2026-05-02T11:57:19.992Z</time></trkpt><trkpt lat="46.086059278925795" lon="9.310221283327968"><ele>206.0</ele><time>2026-05-02T11:57:20.992Z</time></trkpt><trkpt lat="46.08612712261494" lon="9.310194487911902"><ele>206.0</ele><time>2026-05-02T11:57:21.992Z</time></trkpt><trkpt lat="46.08620272918503" lon="9.310172083313448"><ele>206.00000000000003</ele><time>2026-05-02T11:57:22.992Z</time></trkpt><trkpt lat="46.08628219666458" lon="9.310144245137256"><ele>206.0</ele><time>2026-05-02T11:57:23.992Z</time></trkpt><trkpt lat="46.08636922063135" lon="9.310115801228529"><ele>206.0</ele><time>2026-05-02T11:57:24.992Z</time></trkpt><trkpt lat="46.086458563225946" lon="9.31009313109629"><ele>206.0</ele><time>2026-05-02T11:57:25.992Z</time></trkpt><trkpt lat="46.0865580380146" lon="9.31008031016349"><ele>206.0</ele><time>2026-05-02T11:57:26.992Z</time></trkpt><trkpt lat="46.08665837290454" lon="9.310067039059106"><ele>206.0</ele><time>2026-05-02T11:57:27.992Z</time></trkpt><trkpt lat="46.08675317641789" lon="9.310059369919498"><ele>206.0</ele><time>2026-05-02T11:57:28.992Z</time></trkpt><trkpt lat="46.08684017811659" lon="9.310048623463535"><ele>208.00000000000003</ele><time>2026-05-02T11:57:29.992Z</time></trkpt><trkpt lat="46.08692175434806" lon="9.31003933650964"><ele>210.0</ele><time>2026-05-02T11:57:30.992Z</time></trkpt><trkpt lat="46.087002675239496" lon="9.31003759952462"><ele>212.0</ele><time>2026-05-02T11:57:31.992Z</time></trkpt><trkpt lat="46.087086405841475" lon="9.310039677338947"><ele>214.0</ele><time>2026-05-02T11:57:32.992Z</time></trkpt><trkpt lat="46.087176743709485" lon="9.310068751040884"><ele>216.00000000000003</ele><time>2026-05-02T11:57:33.992Z</time></trkpt><trkpt lat="46.08726474086266" lon="9.310107963557208"><ele>218.0</ele><time>2026-05-02T11:57:34.992Z</time></trkpt><trkpt lat="46.087347611671966" lon="9.310167693915558"><ele>217.0</ele><time>2026-05-02T11:57:35.992Z</time></trkpt><trkpt lat="46.08743394367793" lon="9.310242525530217"><ele>216.0</ele><time>2026-05-02T11:57:36.992Z</time></trkpt><trkpt lat="46.0875204553438" lon="9.310322047389892"><ele>215.0</ele><time>2026-05-02T11:57:37.992Z</time></trkpt><trkpt lat="46.08761025014854" lon="9.310390583768871"><ele>214.0</ele><time>2026-05-02T11:57:38.992Z</time></trkpt><trkpt lat="46.087704723613946" lon="9.31045979653426"><ele>213.0</ele><time>2026-05-02T11:57:39.992Z</time></trkpt><trkpt lat="46.0877904367885" lon="9.310534703264658"><ele>217.8</ele><time>2026-05-02T11:57:40.992Z</time></trkpt><trkpt lat="46.087869294424905" lon="9.310605271463041"><ele>222.60000000000002</ele><time>2026-05-02T11:57:41.992Z</time></trkpt><trkpt lat="46.08794564261976" lon="9.310666998774197"><ele>227.39999999999998</ele><time>2026-05-02T11:57:42.992Z</time></trkpt><trkpt lat="46.08802034106459" lon="9.310717388049712"><ele>232.2</ele><time>2026-05-02T11:57:43.992Z</time></trkpt><trkpt lat="46.08810563484359" lon="9.310770583356929"><ele>237.0</ele><time>2026-05-02T11:57:44.99Z</time></trkpt><trkpt lat="46.08819421518238" lon="9.310824862695961"><ele>234.8</ele><time>2026-05-02T11:57:45.99Z</time></trkpt><trkpt lat="46.088273607327494" lon="9.310909391331066"><ele>232.6</ele><time>2026-05-02T11:57:46.99Z</time></trkpt><trkpt lat="46.08835452737849" lon="9.310974395528824"><ele>230.40000000000003</ele><time>2026-05-02T11:57:47.99Z</time></trkpt><trkpt lat="46.088437608354624" lon="9.3110411355759"><ele>228.20000000000002</ele><time>2026-05-02T11:57:48.99Z</time></trkpt><trkpt lat="46.08851769709827" lon="9.311105318806463"><ele>226.0</ele><time>2026-05-02T11:57:49.99Z</time></trkpt><trkpt lat="46.08859563822619" lon="9.31116771416972"><ele>226.0</ele><time>2026-05-02T11:57:50.991Z</time></trkpt><trkpt lat="46.08867756065227" lon="9.311232023818501"><ele>226.00000000000003</ele><time>2026-05-02T11:57:51.99Z</time></trkpt><trkpt lat="46.0887649432604" lon="9.311294468184576"><ele>226.00000000000003</ele><time>2026-05-02T11:57:52.99Z</time></trkpt><trkpt lat="46.08886046901037" lon="9.311327649297459"><ele>226.0</ele><time>2026-05-02T11:57:53.991Z</time></trkpt><trkpt lat="46.08894355757129" lon="9.311377021462635"><ele>226.0</ele><time>2026-05-02T11:57:54.989Z</time></trkpt><trkpt lat="46.089023816249515" lon="9.311400920082605"><ele>228.49999999999997</ele><time>2026-05-02T11:57:55.989Z</time></trkpt><trkpt lat="46.08908912222097" lon="9.311430223649637"><ele>231.0</ele><time>2026-05-02T11:57:56.989Z</time></trkpt><trkpt lat="46.08915530001865" lon="9.311443638423546"><ele>233.5</ele><time>2026-05-02T11:57:57.99Z</time></trkpt><trkpt lat="46.08925605469157" lon="9.31145196961113"><ele>236.0</ele><time>2026-05-02T11:57:59.99Z</time></trkpt><trkpt lat="46.08934198182762" lon="9.31145183131435"><ele>238.49999999999997</ele><time>2026-05-02T11:58:01.99Z</time></trkpt><trkpt lat="46.089440243501805" lon="9.311450499302374"><ele>241.0</ele><time>2026-05-02T11:58:03.99Z</time></trkpt><trkpt lat="46.08956378178225" lon="9.311441366422947"><ele>240.99999999999997</ele><time>2026-05-02T11:58:05.99Z</time></trkpt><trkpt lat="46.089638261433194" lon="9.311442862411743"><ele>241.0</ele><time>2026-05-02T11:58:06.99Z</time></trkpt><trkpt lat="46.08971403131157" lon="9.311459881234265"><ele>241.0</ele><time>2026-05-02T11:58:07.99Z</time></trkpt><trkpt lat="46.08979092208312" lon="9.311482120502175"><ele>241.0</ele><time>2026-05-02T11:58:08.99Z</time></trkpt><trkpt lat="46.08987547511241" lon="9.311515559595938"><ele>240.99999999999997</ele><time>2026-05-02T11:58:09.99Z</time></trkpt><trkpt lat="46.089964623334126" lon="9.31154971532405"><ele>241.0</ele><time>2026-05-02T11:58:10.99Z</time></trkpt><trkpt lat="46.09005722662265" lon="9.311584842755698"><ele>241.20000000000002</ele><time>2026-05-02T11:58:11.99Z</time></trkpt><trkpt lat="46.09015605002143" lon="9.311623847088043"><ele>241.40000000000003</ele><time>2026-05-02T11:58:12.99Z</time></trkpt><trkpt lat="46.090253663244894" lon="9.311664836289605"><ele>241.6</ele><time>2026-05-02T11:58:13.99Z</time></trkpt><trkpt lat="46.09035188910143" lon="9.31170527820437"><ele>241.8</ele><time>2026-05-02T11:58:14.99Z</time></trkpt><trkpt lat="46.09045779580654" lon="9.311749096805585"><ele>242.0</ele><time>2026-05-02T11:58:15.99Z</time></trkpt><trkpt lat="46.090565452256286" lon="9.31177333732468"><ele>242.0</ele><time>2026-05-02T11:58:16.99Z</time></trkpt><trkpt lat="46.09066215728332" lon="9.311842985987353"><ele>242.0</ele><time>2026-05-02T11:58:17.99Z</time></trkpt><trkpt lat="46.09075946879602" lon="9.311930658698767"><ele>242.0</ele><time>2026-05-02T11:58:18.99Z</time></trkpt><trkpt lat="46.090854887651304" lon="9.312016667641096"><ele>242.0</ele><time>2026-05-02T11:58:19.99Z</time></trkpt><trkpt lat="46.090949417063015" lon="9.312112153757111"><ele>237.25</ele><time>2026-05-02T11:58:20.991Z</time></trkpt><trkpt lat="46.09104662561237" lon="9.312214481277904"><ele>232.5</ele><time>2026-05-02T11:58:21.991Z</time></trkpt><trkpt lat="46.09114439823693" lon="9.312315817955904"><ele>227.75</ele><time>2026-05-02T11:58:22.991Z</time></trkpt><trkpt lat="46.091252781166546" lon="9.312408943705934"><ele>223.0</ele><time>2026-05-02T11:58:23.991Z</time></trkpt><trkpt lat="46.091362279835074" lon="9.312506801661206"><ele>223.75</ele><time>2026-05-02T11:58:24.991Z</time></trkpt><trkpt lat="46.09149156971927" lon="9.312540699915326"><ele>224.5</ele><time>2026-05-02T11:58:25.991Z</time></trkpt><trkpt lat="46.09160984440235" lon="9.312591784870659"><ele>225.25</ele><time>2026-05-02T11:58:26.991Z</time></trkpt><trkpt lat="46.0917189560685" lon="9.312660639369598"><ele>226.0</ele><time>2026-05-02T11:58:27.991Z</time></trkpt><trkpt lat="46.09184107137581" lon="9.312717060230971"><ele>226.0</ele><time>2026-05-02T11:58:28.991Z</time></trkpt><trkpt lat="46.09196307135378" lon="9.312786077228536"><ele>226.0</ele><time>2026-05-02T11:58:29.991Z</time></trkpt><trkpt lat="46.0920734753652" lon="9.312869376663985"><ele>226.0</ele><time>2026-05-02T11:58:30.991Z</time></trkpt><trkpt lat="46.09218695022284" lon="9.312955014501396"><ele>226.0</ele><time>2026-05-02T11:58:31.991Z</time></trkpt><trkpt lat="46.09230517614174" lon="9.313044070725056"><ele>226.5</ele><time>2026-05-02T11:58:32.991Z</time></trkpt><trkpt lat="46.09242558913882" lon="9.313133721990553"><ele>227.0</ele><time>2026-05-02T11:58:33.991Z</time></trkpt><trkpt lat="46.092548128203106" lon="9.313213725210677"><ele>227.5</ele><time>2026-05-02T11:58:34.991Z</time></trkpt><trkpt lat="46.09266531703032" lon="9.313299159816985"><ele>228.0</ele><time>2026-05-02T11:58:35.991Z</time></trkpt><trkpt lat="46.09278214989288" lon="9.31338281690681"><ele>228.0</ele><time>2026-05-02T11:58:36.991Z</time></trkpt><trkpt lat="46.09290017533299" lon="9.313465627342332"><ele>228.0</ele><time>2026-05-02T11:58:37.991Z</time></trkpt><trkpt lat="46.09301362076404" lon="9.313558535957156"><ele>228.0</ele><time>2026-05-02T11:58:38.991Z</time></trkpt><trkpt lat="46.093126272901294" lon="9.313652016631785"><ele>228.0</ele><time>2026-05-02T11:58:39.991Z</time></trkpt><trkpt lat="46.09323852821574" lon="9.31375060776014"><ele>229.25</ele><time>2026-05-02T11:58:40.991Z</time></trkpt><trkpt lat="46.09334766685133" lon="9.313847294107305"><ele>230.5</ele><time>2026-05-02T11:58:41.991Z</time></trkpt><trkpt lat="46.09345154964794" lon="9.313940423946438"><ele>231.75</ele><time>2026-05-02T11:58:42.991Z</time></trkpt><trkpt lat="46.09355253210891" lon="9.314033535566656"><ele>233.0</ele><time>2026-05-02T11:58:43.991Z</time></trkpt><trkpt lat="46.0936590330364" lon="9.314127297970478"><ele>233.0</ele><time>2026-05-02T11:58:44.991Z</time></trkpt><trkpt lat="46.09375743283639" lon="9.314234769459514"><ele>233.0</ele><time>2026-05-02T11:58:45.991Z</time></trkpt><trkpt lat="46.09385703469197" lon="9.314353580412682"><ele>233.0</ele><time>2026-05-02T11:58:46.991Z</time></trkpt><trkpt lat="46.09395841084168" lon="9.314486291762142"><ele>233.0</ele><time>2026-05-02T11:58:47.991Z</time></trkpt><trkpt lat="46.09405546327306" lon="9.314627868470852"><ele>231.0</ele><time>2026-05-02T11:58:48.991Z</time></trkpt><trkpt lat="46.09415110205251" lon="9.31476685785944"><ele>229.0</ele><time>2026-05-02T11:58:49.991Z</time></trkpt><trkpt lat="46.09424092842568" lon="9.314900230907773"><ele>227.0</ele><time>2026-05-02T11:58:50.991Z</time></trkpt><trkpt lat="46.09433331886029" lon="9.315031876647552"><ele>225.0</ele><time>2026-05-02T11:58:51.991Z</time></trkpt><trkpt lat="46.09442653750346" lon="9.315164725587898"><ele>225.0</ele><time>2026-05-02T11:58:52.991Z</time></trkpt><trkpt lat="46.09451906601045" lon="9.315296529880076"><ele>225.0</ele><time>2026-05-02T11:58:53.991Z</time></trkpt><trkpt lat="46.094588893594164" lon="9.31544637758339"><ele>225.0</ele><time>2026-05-02T11:58:54.991Z</time></trkpt><trkpt lat="46.0946760369605" lon="9.315574097499066"><ele>225.0</ele><time>2026-05-02T11:58:55.991Z</time></trkpt><trkpt lat="46.09475650451209" lon="9.315696437129255"><ele>223.6</ele><time>2026-05-02T11:58:56.991Z</time></trkpt><trkpt lat="46.09483223539684" lon="9.31581382158041"><ele>222.2</ele><time>2026-05-02T11:58:57.991Z</time></trkpt><trkpt lat="46.09490693379363" lon="9.315924417521996"><ele>220.8</ele><time>2026-05-02T11:58:58.991Z</time></trkpt><trkpt lat="46.09498055478336" lon="9.31603684269893"><ele>219.4</ele><time>2026-05-02T11:58:59.991Z</time></trkpt><trkpt lat="46.095059665041894" lon="9.316138700059255"><ele>218.0</ele><time>2026-05-02T11:59:00.991Z</time></trkpt><trkpt lat="46.0951489851672" lon="9.316227500030765"><ele>218.0</ele><time>2026-05-02T11:59:01.991Z</time></trkpt><trkpt lat="46.09524672055739" lon="9.316307280854424"><ele>218.0</ele><time>2026-05-02T11:59:02.991Z</time></trkpt><trkpt lat="46.09534833679051" lon="9.316370411257493"><ele>218.0</ele><time>2026-05-02T11:59:03.991Z</time></trkpt><trkpt lat="46.095452435234876" lon="9.316412884663618"><ele>218.0</ele><time>2026-05-02T11:59:04.991Z</time></trkpt><trkpt lat="46.095545195447166" lon="9.316434638645747"><ele>218.0</ele><time>2026-05-02T11:59:05.991Z</time></trkpt><trkpt lat="46.09562984625763" lon="9.316466931614357"><ele>219.2</ele><time>2026-05-02T11:59:06.991Z</time></trkpt><trkpt lat="46.095711225766564" lon="9.31649259291383"><ele>220.4</ele><time>2026-05-02T11:59:07.991Z</time></trkpt><trkpt lat="46.09579559692557" lon="9.31651436436372"><ele>221.59999999999997</ele><time>2026-05-02T11:59:08.991Z</time></trkpt><trkpt lat="46.09589013935066" lon="9.316544041505498"><ele>222.79999999999998</ele><time>2026-05-02T11:59:09.991Z</time></trkpt><trkpt lat="46.095984508573686" lon="9.316571918048068"><ele>224.0</ele><time>2026-05-02T11:59:10.991Z</time></trkpt><trkpt lat="46.09608179072726" lon="9.316600198471285"><ele>224.0</ele><time>2026-05-02T11:59:11.991Z</time></trkpt><trkpt lat="46.096183890712844" lon="9.316634592717195"><ele>223.99999999999997</ele><time>2026-05-02T11:59:12.991Z</time></trkpt><trkpt lat="46.0962853443327" lon="9.316665794242125"><ele>223.99999999999997</ele><time>2026-05-02T11:59:13.991Z</time></trkpt><trkpt lat="46.09638908357391" lon="9.316688507582088"><ele>224.0</ele><time>2026-05-02T11:59:14.991Z</time></trkpt><trkpt lat="46.096496456208826" lon="9.31668615453802"><ele>224.0</ele><time>2026-05-02T11:59:15.991Z</time></trkpt><trkpt lat="46.09660819131792" lon="9.31667172951438"><ele>223.6</ele><time>2026-05-02T11:59:16.991Z</time></trkpt><trkpt lat="46.09671699446086" lon="9.316654263724018"><ele>223.2</ele><time>2026-05-02T11:59:17.991Z</time></trkpt><trkpt lat="46.09681827883581" lon="9.316627046734643"><ele>222.79999999999998</ele><time>2026-05-02T11:59:18.992Z</time></trkpt><trkpt lat="46.09692061305669" lon="9.316596957186649"><ele>222.39999999999998</ele><time>2026-05-02T11:59:19.992Z</time></trkpt><trkpt lat="46.097023831185766" lon="9.316571016685836"><ele>222.0</ele><time>2026-05-02T11:59:20.992Z</time></trkpt><trkpt lat="46.0971314198014" lon="9.31656907460213"><ele>222.0</ele><time>2026-05-02T11:59:21.992Z</time></trkpt><trkpt lat="46.09723701262729" lon="9.316581417948411"><ele>222.0</ele><time>2026-05-02T11:59:22.992Z</time></trkpt><trkpt lat="46.09734343535391" lon="9.31662374566961"><ele>222.0</ele><time>2026-05-02T11:59:23.992Z</time></trkpt><trkpt lat="46.09744435783131" lon="9.31668772402037"><ele>222.0</ele><time>2026-05-02T11:59:24.992Z</time></trkpt><trkpt lat="46.09754359861334" lon="9.316762281599292"><ele>222.0</ele><time>2026-05-02T11:59:25.992Z</time></trkpt><trkpt lat="46.09764083121396" lon="9.316854609021963"><ele>220.75</ele><time>2026-05-02T11:59:26.992Z</time></trkpt><trkpt lat="46.09774607970175" lon="9.31694993721999"><ele>219.5</ele><time>2026-05-02T11:59:27.992Z</time></trkpt><trkpt lat="46.09785696689027" lon="9.317031051029781"><ele>218.25</ele><time>2026-05-02T11:59:28.992Z</time></trkpt><trkpt lat="46.09796514875984" lon="9.317120887381563"><ele>217.0</ele><time>2026-05-02T11:59:29.992Z</time></trkpt><trkpt lat="46.098096202224355" lon="9.317148800527232"><ele>217.0</ele><time>2026-05-02T11:59:30.992Z</time></trkpt><trkpt lat="46.09823167129558" lon="9.317166749661268"><ele>217.0</ele><time>2026-05-02T11:59:31.992Z</time></trkpt><trkpt lat="46.0983666281625" lon="9.317173066195611"><ele>217.0</ele><time>2026-05-02T11:59:32.992Z</time></trkpt><trkpt lat="46.098508464322244" lon="9.317171612188513"><ele>217.0</ele><time>2026-05-02T11:59:33.992Z</time></trkpt><trkpt lat="46.09864139374566" lon="9.317169696738766"><ele>215.0</ele><time>2026-05-02T11:59:34.992Z</time></trkpt><trkpt lat="46.09877396047399" lon="9.317161979003677"><ele>213.0</ele><time>2026-05-02T11:59:35.992Z</time></trkpt><trkpt lat="46.09889731239725" lon="9.317158354930068"><ele>211.0</ele><time>2026-05-02T11:59:36.992Z</time></trkpt><trkpt lat="46.09901024119301" lon="9.317155578842376"><ele>209.0</ele><time>2026-05-02T11:59:37.992Z</time></trkpt><trkpt lat="46.09912006979644" lon="9.3171542631128"><ele>208.39999999999998</ele><time>2026-05-02T11:59:38.992Z</time></trkpt><trkpt lat="46.09923093483876" lon="9.317150979770073"><ele>207.8</ele><time>2026-05-02T11:59:39.992Z</time></trkpt><trkpt lat="46.09934215433467" lon="9.317154687964457"><ele>207.2</ele><time>2026-05-02T11:59:40.992Z</time></trkpt><trkpt lat="46.09945328473252" lon="9.317159876097023"><ele>206.60000000000002</ele><time>2026-05-02T11:59:41.992Z</time></trkpt><trkpt lat="46.09956596674863" lon="9.317167911248477"><ele>206.0</ele><time>2026-05-02T11:59:42.992Z</time></trkpt><trkpt lat="46.09967827007791" lon="9.317173319081572"><ele>206.0</ele><time>2026-05-02T11:59:43.992Z</time></trkpt><trkpt lat="46.09979804350739" lon="9.317193691248123"><ele>206.0</ele><time>2026-05-02T11:59:44.992Z</time></trkpt><trkpt lat="46.099917797220186" lon="9.317226509823236"><ele>206.0</ele><time>2026-05-02T11:59:45.992Z</time></trkpt><trkpt lat="46.100040302392706" lon="9.317265842618166"><ele>206.0</ele><time>2026-05-02T11:59:46.992Z</time></trkpt><trkpt lat="46.10015982791702" lon="9.317317612027269"><ele>210.0</ele><time>2026-05-02T11:59:47.992Z</time></trkpt><trkpt lat="46.10026086844823" lon="9.317379893722023"><ele>214.0</ele><time>2026-05-02T11:59:48.992Z</time></trkpt><trkpt lat="46.10036250360639" lon="9.317446384711655"><ele>218.00000000000003</ele><time>2026-05-02T11:59:49.992Z</time></trkpt><trkpt lat="46.100461336208795" lon="9.317505693895209"><ele>222.0</ele><time>2026-05-02T11:59:50.989Z</time></trkpt><trkpt lat="46.100564200754796" lon="9.317578878994572"><ele>226.0</ele><time>2026-05-02T11:59:51.989Z</time></trkpt><trkpt lat="46.10066571479325" lon="9.317644785969135"><ele>224.0</ele><time>2026-05-02T11:59:52.989Z</time></trkpt><trkpt lat="46.10076538613578" lon="9.317719399669144"><ele>222.0</ele><time>2026-05-02T11:59:53.988Z</time></trkpt><trkpt lat="46.10086907087424" lon="9.31779147260163"><ele>220.0</ele><time>2026-05-02T11:59:54.989Z</time></trkpt><trkpt lat="46.1009757811221" lon="9.317863896867117"><ele>218.0</ele><time>2026-05-02T11:59:55.989Z</time></trkpt><trkpt lat="46.10108556268252" lon="9.317938675230371"><ele>218.0</ele><time>2026-05-02T11:59:56.989Z</time></trkpt><trkpt lat="46.101199954685256" lon="9.31801691081957"><ele>218.0</ele><time>2026-05-02T11:59:57.989Z</time></trkpt><trkpt lat="46.101316289961105" lon="9.3180926266702"><ele>218.0</ele><time>2026-05-02T11:59:58.989Z</time></trkpt><trkpt lat="46.1014333035965" lon="9.31817639703716"><ele>218.0</ele><time>2026-05-02T11:59:59.988Z</time></trkpt><trkpt lat="46.101549906682365" lon="9.318260321539512"><ele>218.25</ele><time>2026-05-02T12:00:00.988Z</time></trkpt><trkpt lat="46.10166249720602" lon="9.318340261990903"><ele>218.5</ele><time>2026-05-02T12:00:01.988Z</time></trkpt><trkpt lat="46.10176318420455" lon="9.318429786081374"><ele>218.75</ele><time>2026-05-02T12:00:02.989Z</time></trkpt><trkpt lat="46.1018521425955" lon="9.318526536263786"><ele>219.0</ele><time>2026-05-02T12:00:03.989Z</time></trkpt><trkpt lat="46.1019376592139" lon="9.318624006994726"><ele>219.0</ele><time>2026-05-02T12:00:04.989Z</time></trkpt><trkpt lat="46.10201679045603" lon="9.318741278815263"><ele>218.99999999999997</ele><time>2026-05-02T12:00:05.989Z</time></trkpt><trkpt lat="46.102085268701096" lon="9.318856571657582"><ele>218.99999999999997</ele><time>2026-05-02T12:00:06.989Z</time></trkpt><trkpt lat="46.10214757927252" lon="9.318967914422256"><ele>219.0</ele><time>2026-05-02T12:00:07.989Z</time></trkpt><trkpt lat="46.102214225736496" lon="9.319067026219614"><ele>219.0</ele><time>2026-05-02T12:00:08.989Z</time></trkpt><trkpt lat="46.1022880008611" lon="9.319161922415855"><ele>219.0</ele><time>2026-05-02T12:00:09.989Z</time></trkpt><trkpt lat="46.10237027505181" lon="9.319251207569554"><ele>218.99999999999997</ele><time>2026-05-02T12:00:10.989Z</time></trkpt><trkpt lat="46.10245732577" lon="9.319335861709664"><ele>218.99999999999997</ele><time>2026-05-02T12:00:11.989Z</time></trkpt><trkpt lat="46.10252282385318" lon="9.319439436927418"><ele>219.0</ele><time>2026-05-02T12:00:12.989Z</time></trkpt><trkpt lat="46.10261226540617" lon="9.319516780644504"><ele>219.0</ele><time>2026-05-02T12:00:13.989Z</time></trkpt><trkpt lat="46.102707259746566" lon="9.319585883203613"><ele>219.0</ele><time>2026-05-02T12:00:14.989Z</time></trkpt><trkpt lat="46.10280680766286" lon="9.31966018832804"><ele>219.0</ele><time>2026-05-02T12:00:15.989Z</time></trkpt><trkpt lat="46.10291038825735" lon="9.319737349834682"><ele>219.0</ele><time>2026-05-02T12:00:16.989Z</time></trkpt><trkpt lat="46.10301607434029" lon="9.319818587471627"><ele>219.0</ele><time>2026-05-02T12:00:17.989Z</time></trkpt><trkpt lat="46.103127814632096" lon="9.319908216185906"><ele>217.5</ele><time>2026-05-02T12:00:18.989Z</time></trkpt><trkpt lat="46.10323534506665" lon="9.3200025761913"><ele>216.0</ele><time>2026-05-02T12:00:19.989Z</time></trkpt><trkpt lat="46.10334189382004" lon="9.320101272635174"><ele>214.5</ele><time>2026-05-02T12:00:20.989Z</time></trkpt><trkpt lat="46.103447960538304" lon="9.32020217515116"><ele>213.0</ele><time>2026-05-02T12:00:21.989Z</time></trkpt><trkpt lat="46.10355420040992" lon="9.32029945249404"><ele>213.0</ele><time>2026-05-02T12:00:22.989Z</time></trkpt><trkpt lat="46.10366289526022" lon="9.320399355782163"><ele>213.0</ele><time>2026-05-02T12:00:23.989Z</time></trkpt><trkpt lat="46.10377409526456" lon="9.320504372532735"><ele>213.0</ele><time>2026-05-02T12:00:24.989Z</time></trkpt><trkpt lat="46.10388535906571" lon="9.320618602339005"><ele>213.0</ele><time>2026-05-02T12:00:25.989Z</time></trkpt><trkpt lat="46.10400377399666" lon="9.320721389446666"><ele>215.0</ele><time>2026-05-02T12:00:26.989Z</time></trkpt><trkpt lat="46.10412245291608" lon="9.320816638739917"><ele>217.0</ele><time>2026-05-02T12:00:27.989Z</time></trkpt><trkpt lat="46.104241623748884" lon="9.320903870999128"><ele>219.0</ele><time>2026-05-02T12:00:28.989Z</time></trkpt><trkpt lat="46.1043661623949" lon="9.320976216486224"><ele>221.0</ele><time>2026-05-02T12:00:29.989Z</time></trkpt><trkpt lat="46.10449068226547" lon="9.321050492980584"><ele>221.0</ele><time>2026-05-02T12:00:30.989Z</time></trkpt><trkpt lat="46.10461822541381" lon="9.321112973620524"><ele>221.0</ele><time>2026-05-02T12:00:31.989Z</time></trkpt><trkpt lat="46.10474500697868" lon="9.321159274469858"><ele>221.0</ele><time>2026-05-02T12:00:32.989Z</time></trkpt><trkpt lat="46.10487433924469" lon="9.321188862163392"><ele>221.0</ele><time>2026-05-02T12:00:33.989Z</time></trkpt><trkpt lat="46.105004966335194" lon="9.321194058156637"><ele>220.75</ele><time>2026-05-02T12:00:34.989Z</time></trkpt><trkpt lat="46.10513510888353" lon="9.321173095084227"><ele>220.5</ele><time>2026-05-02T12:00:35.989Z</time></trkpt><trkpt lat="46.1052707112552" lon="9.321133624491129"><ele>220.25</ele><time>2026-05-02T12:00:36.989Z</time></trkpt><trkpt lat="46.10540501505069" lon="9.32108399812956"><ele>220.0</ele><time>2026-05-02T12:00:37.99Z</time></trkpt><trkpt lat="46.105537227804206" lon="9.321029747377876"><ele>220.0</ele><time>2026-05-02T12:00:38.99Z</time></trkpt><trkpt lat="46.10566942249366" lon="9.320981648993895"><ele>220.0</ele><time>2026-05-02T12:00:39.99Z</time></trkpt><trkpt lat="46.10579958312708" lon="9.320940708293262"><ele>220.0</ele><time>2026-05-02T12:00:40.99Z</time></trkpt><trkpt lat="46.105925861347544" lon="9.320891690516678"><ele>220.0</ele><time>2026-05-02T12:00:41.99Z</time></trkpt><trkpt lat="46.10605307958931" lon="9.32084630743064"><ele>218.75</ele><time>2026-05-02T12:00:42.99Z</time></trkpt><trkpt lat="46.10617830372058" lon="9.320798759626358"><ele>217.5</ele><time>2026-05-02T12:00:43.99Z</time></trkpt><trkpt lat="46.10629781638136" lon="9.320747976295792"><ele>216.25</ele><time>2026-05-02T12:00:44.99Z</time></trkpt><trkpt lat="46.10641311331886" lon="9.320674401333353"><ele>215.0</ele><time>2026-05-02T12:00:45.99Z</time></trkpt><trkpt lat="46.106526821204426" lon="9.3205928699635"><ele>214.75</ele><time>2026-05-02T12:00:46.99Z</time></trkpt><trkpt lat="46.10662932059" lon="9.32050905721334"><ele>214.5</ele><time>2026-05-02T12:00:47.99Z</time></trkpt><trkpt lat="46.10673266885071" lon="9.320427049801694"><ele>214.25</ele><time>2026-05-02T12:00:48.99Z</time></trkpt><trkpt lat="46.10683091056771" lon="9.32033699804877"><ele>214.0</ele><time>2026-05-02T12:00:49.99Z</time></trkpt><trkpt lat="46.10693069022448" lon="9.320258901804083"><ele>214.0</ele><time>2026-05-02T12:00:50.99Z</time></trkpt><trkpt lat="46.107032708663695" lon="9.32018773937387"><ele>214.0</ele><time>2026-05-02T12:00:51.99Z</time></trkpt><trkpt lat="46.10714198385493" lon="9.32013500783726"><ele>214.0</ele><time>2026-05-02T12:00:52.99Z</time></trkpt><trkpt lat="46.107256398137" lon="9.32009202851381"><ele>214.0</ele><time>2026-05-02T12:00:53.99Z</time></trkpt><trkpt lat="46.107375395078165" lon="9.320052175398795"><ele>217.25</ele><time>2026-05-02T12:00:54.99Z</time></trkpt><trkpt lat="46.107501248681785" lon="9.320023107985943"><ele>220.5</ele><time>2026-05-02T12:00:55.99Z</time></trkpt><trkpt lat="46.10762509932862" lon="9.319984821918952"><ele>223.75</ele><time>2026-05-02T12:00:56.99Z</time></trkpt><trkpt lat="46.10774510318916" lon="9.319941529877354"><ele>227.0</ele><time>2026-05-02T12:00:57.99Z</time></trkpt><trkpt lat="46.10786720753675" lon="9.319902019980587"><ele>227.0</ele><time>2026-05-02T12:00:58.99Z</time></trkpt><trkpt lat="46.107988726395895" lon="9.319862492457975"><ele>227.0</ele><time>2026-05-02T12:00:59.99Z</time></trkpt><trkpt lat="46.1081098239683" lon="9.319819949587762"><ele>227.0</ele><time>2026-05-02T12:01:00.99Z</time></trkpt><trkpt lat="46.1082285250784" lon="9.319784209625706"><ele>227.0</ele><time>2026-05-02T12:01:01.99Z</time></trkpt><trkpt lat="46.10834692486558" lon="9.319745985768018"><ele>224.2</ele><time>2026-05-02T12:01:02.99Z</time></trkpt><trkpt lat="46.1084632230889" lon="9.319714016959317"><ele>221.39999999999998</ele><time>2026-05-02T12:01:03.99Z</time></trkpt><trkpt lat="46.108576603344446" lon="9.319689157821431"><ele>218.60000000000002</ele><time>2026-05-02T12:01:04.99Z</time></trkpt><trkpt lat="46.10868645623417" lon="9.319675774856785"><ele>215.8</ele><time>2026-05-02T12:01:05.99Z</time></trkpt><trkpt lat="46.10878694197566" lon="9.319670581835746"><ele>213.0</ele><time>2026-05-02T12:01:06.99Z</time></trkpt><trkpt lat="46.10888297983449" lon="9.319663491618753"><ele>213.0</ele><time>2026-05-02T12:01:07.99Z</time></trkpt><trkpt lat="46.10897209356932" lon="9.319640881937564"><ele>213.0</ele><time>2026-05-02T12:01:08.99Z</time></trkpt><trkpt lat="46.10906262036055" lon="9.319596345835057"><ele>213.0</ele><time>2026-05-02T12:01:09.99Z</time></trkpt><trkpt lat="46.10915252760199" lon="9.319534882019274"><ele>213.0</ele><time>2026-05-02T12:01:10.99Z</time></trkpt><trkpt lat="46.109240287235316" lon="9.319449914748914"><ele>213.0</ele><time>2026-05-02T12:01:11.99Z</time></trkpt><trkpt lat="46.10932673192546" lon="9.319355441182214"><ele>216.5</ele><time>2026-05-02T12:01:12.99Z</time></trkpt><trkpt lat="46.10941335658409" lon="9.319250330800008"><ele>220.0</ele><time>2026-05-02T12:01:13.99Z</time></trkpt><trkpt lat="46.10949830330062" lon="9.319143933033807"><ele>223.5</ele><time>2026-05-02T12:01:14.99Z</time></trkpt><trkpt lat="46.10958797869516" lon="9.319033612153737"><ele>227.0</ele><time>2026-05-02T12:01:15.99Z</time></trkpt><trkpt lat="46.10967434131292" lon="9.31891550913997"><ele>226.0</ele><time>2026-05-02T12:01:16.99Z</time></trkpt><trkpt lat="46.10976963497193" lon="9.31879384537876"><ele>225.0</ele><time>2026-05-02T12:01:17.99Z</time></trkpt><trkpt lat="46.10985803464736" lon="9.318681886736627"><ele>224.0</ele><time>2026-05-02T12:01:18.99Z</time></trkpt><trkpt lat="46.10994579376675" lon="9.318575152878193"><ele>223.0</ele><time>2026-05-02T12:01:19.99Z</time></trkpt><trkpt lat="46.11003887322367" lon="9.318486270766252"><ele>223.0</ele><time>2026-05-02T12:01:20.99Z</time></trkpt><trkpt lat="46.11014379217894" lon="9.31841875532197"><ele>223.0</ele><time>2026-05-02T12:01:21.99Z</time></trkpt><trkpt lat="46.11025139814137" lon="9.318365143327746"><ele>223.0</ele><time>2026-05-02T12:01:22.99Z</time></trkpt><trkpt lat="46.11035444607248" lon="9.31833692342319"><ele>223.0</ele><time>2026-05-02T12:01:23.99Z</time></trkpt><trkpt lat="46.110451942046325" lon="9.318324082919183"><ele>223.0</ele><time>2026-05-02T12:01:24.99Z</time></trkpt><trkpt lat="46.11054349601744" lon="9.31831327101211"><ele>223.0</ele><time>2026-05-02T12:01:25.99Z</time></trkpt><trkpt lat="46.110628772241945" lon="9.31828088160578"><ele>223.0</ele><time>2026-05-02T12:01:26.99Z</time></trkpt><trkpt lat="46.1107119828427" lon="9.318225234996692"><ele>223.0</ele><time>2026-05-02T12:01:27.99Z</time></trkpt><trkpt lat="46.110793857108376" lon="9.31815958194955"><ele>223.0</ele><time>2026-05-02T12:01:28.99Z</time></trkpt><trkpt lat="46.11087276769759" lon="9.318076206339448"><ele>223.0</ele><time>2026-05-02T12:01:29.99Z</time></trkpt><trkpt lat="46.11095030354029" lon="9.317982441270873"><ele>225.0</ele><time>2026-05-02T12:01:30.99Z</time></trkpt><trkpt lat="46.1110270284369" lon="9.31788704330123"><ele>227.0</ele><time>2026-05-02T12:01:31.99Z</time></trkpt><trkpt lat="46.11110349030598" lon="9.317787054750198"><ele>229.0</ele><time>2026-05-02T12:01:32.99Z</time></trkpt><trkpt lat="46.111176354694905" lon="9.317688250118797"><ele>231.0</ele><time>2026-05-02T12:01:33.99Z</time></trkpt><trkpt lat="46.11125181304523" lon="9.317602814608366"><ele>233.0</ele><time>2026-05-02T12:01:34.99Z</time></trkpt><trkpt lat="46.11132422022472" lon="9.317512462977687"><ele>233.0</ele><time>2026-05-02T12:01:35.991Z</time></trkpt><trkpt lat="46.111396213276244" lon="9.31741726486414"><ele>233.0</ele><time>2026-05-02T12:01:36.991Z</time></trkpt><trkpt lat="46.11147171811312" lon="9.317320741558046"><ele>233.0</ele><time>2026-05-02T12:01:37.991Z</time></trkpt><trkpt lat="46.11155051608645" lon="9.317224185908929"><ele>233.0</ele><time>2026-05-02T12:01:38.991Z</time></trkpt><trkpt lat="46.11163447048369" lon="9.317121972166174"><ele>233.0</ele><time>2026-05-02T12:01:39.991Z</time></trkpt><trkpt lat="46.111724024428824" lon="9.317026378708075"><ele>233.8</ele><time>2026-05-02T12:01:40.991Z</time></trkpt><trkpt lat="46.11182163768605" lon="9.316953572069792"><ele>234.60000000000002</ele><time>2026-05-02T12:01:41.991Z</time></trkpt><trkpt lat="46.111925547255616" lon="9.31690185761049"><ele>235.39999999999998</ele><time>2026-05-02T12:01:42.991Z</time></trkpt><trkpt lat="46.11203031650433" lon="9.316864191378166"><ele>236.2</ele><time>2026-05-02T12:01:43.991Z</time></trkpt><trkpt lat="46.11213539160489" lon="9.316845406363662"><ele>237.0</ele><time>2026-05-02T12:01:44.991Z</time></trkpt><trkpt lat="46.11223989258636" lon="9.31684335598771"><ele>237.0</ele><time>2026-05-02T12:01:45.991Z</time></trkpt><trkpt lat="46.112340630673316" lon="9.31684353954796"><ele>237.0</ele><time>2026-05-02T12:01:46.991Z</time></trkpt><trkpt lat="46.11244317735164" lon="9.316845385261635"><ele>237.0</ele><time>2026-05-02T12:01:47.991Z</time></trkpt><trkpt lat="46.11254920530933" lon="9.316840741275387"><ele>237.0</ele><time>2026-05-02T12:01:48.991Z</time></trkpt><trkpt lat="46.1126565128533" lon="9.316822764398179"><ele>237.0</ele><time>2026-05-02T12:01:49.991Z</time></trkpt><trkpt lat="46.11276861899033" lon="9.316792561539462"><ele>239.6</ele><time>2026-05-02T12:01:50.991Z</time></trkpt><trkpt lat="46.11287349352491" lon="9.316749449719486"><ele>242.2</ele><time>2026-05-02T12:01:51.991Z</time></trkpt><trkpt lat="46.11297720665086" lon="9.316720557781526"><ele>244.8</ele><time>2026-05-02T12:01:52.991Z</time></trkpt><trkpt lat="46.113077601669296" lon="9.316687477661159"><ele>247.4</ele><time>2026-05-02T12:01:53.991Z</time></trkpt><trkpt lat="46.1131842030314" lon="9.316661993635977"><ele>250.0</ele><time>2026-05-02T12:01:54.991Z</time></trkpt><trkpt lat="46.11329084593636" lon="9.31665855176338"><ele>250.8</ele><time>2026-05-02T12:01:55.991Z</time></trkpt><trkpt lat="46.113397934498686" lon="9.316680140312387"><ele>251.6</ele><time>2026-05-02T12:01:56.988Z</time></trkpt><trkpt lat="46.11350039813429" lon="9.316720689600922"><ele>252.39999999999998</ele><time>2026-05-02T12:01:57.987Z</time></trkpt><trkpt lat="46.11360164451565" lon="9.31679292475465"><ele>253.2</ele><time>2026-05-02T12:01:58.987Z</time></trkpt><trkpt lat="46.11369816511611" lon="9.316876335354648"><ele>254.0</ele><time>2026-05-02T12:01:59.988Z</time></trkpt><trkpt lat="46.11378974543104" lon="9.31697209566002"><ele>254.0</ele><time>2026-05-02T12:02:00.987Z</time></trkpt><trkpt lat="46.113877303309415" lon="9.31706603642286"><ele>253.99999999999997</ele><time>2026-05-02T12:02:01.987Z</time></trkpt><trkpt lat="46.11396089627097" lon="9.317166392593593"><ele>253.99999999999997</ele><time>2026-05-02T12:02:02.987Z</time></trkpt><trkpt lat="46.11404924856544" lon="9.317259251479038"><ele>254.0</ele><time>2026-05-02T12:02:03.987Z</time></trkpt><trkpt lat="46.11413303946146" lon="9.317360664547547"><ele>254.0</ele><time>2026-05-02T12:02:04.987Z</time></trkpt><trkpt lat="46.11419972534399" lon="9.31746979044479"><ele>254.16666666666669</ele><time>2026-05-02T12:02:05.988Z</time></trkpt><trkpt lat="46.11426769047292" lon="9.317590246226535"><ele>254.33333333333334</ele><time>2026-05-02T12:02:06.988Z</time></trkpt><trkpt lat="46.11433174221465" lon="9.317703729722288"><ele>254.5</ele><time>2026-05-02T12:02:07.988Z</time></trkpt><trkpt lat="46.114374617432205" lon="9.317808692179957"><ele>254.66666666666669</ele><time>2026-05-02T12:02:08.988Z</time></trkpt><trkpt lat="46.11441091112441" lon="9.317911277564384"><ele>254.83333333333334</ele><time>2026-05-02T12:02:09.987Z</time></trkpt><trkpt lat="46.11444414695459" lon="9.318001476685767"><ele>255.0</ele><time>2026-05-02T12:02:10.987Z</time></trkpt><trkpt lat="46.1144742745439" lon="9.318101756269387"><ele>255.66666666666666</ele><time>2026-05-02T12:02:11.987Z</time></trkpt><trkpt lat="46.11449709754878" lon="9.3181946741734"><ele>256.3333333333333</ele><time>2026-05-02T12:02:12.987Z</time></trkpt><trkpt lat="46.1144797765681" lon="9.318293133237875"><ele>257.0</ele><time>2026-05-02T12:02:13.987Z</time></trkpt><trkpt lat="46.11450938804091" lon="9.318447479278905"><ele>257.66666666666663</ele><time>2026-05-02T12:02:15.987Z</time></trkpt><trkpt lat="46.114523599276396" lon="9.318547728318606"><ele>258.3333333333333</ele><time>2026-05-02T12:02:16.987Z</time></trkpt><trkpt lat="46.11453283132211" lon="9.318659613420703"><ele>259.0</ele><time>2026-05-02T12:02:17.987Z</time></trkpt><trkpt lat="46.11453314668871" lon="9.318797091894531"><ele>260.75</ele><time>2026-05-02T12:02:18.987Z</time></trkpt><trkpt lat="46.114538181411085" lon="9.318951137198386"><ele>262.5</ele><time>2026-05-02T12:02:19.987Z</time></trkpt><trkpt lat="46.11453032151748" lon="9.319121444120476"><ele>264.25</ele><time>2026-05-02T12:02:20.987Z</time></trkpt><trkpt lat="46.11452477670287" lon="9.319302203926078"><ele>266.0</ele><time>2026-05-02T12:02:21.987Z</time></trkpt><trkpt lat="46.11451478960883" lon="9.319494629275514"><ele>266.0</ele><time>2026-05-02T12:02:22.987Z</time></trkpt><trkpt lat="46.11450345816096" lon="9.319691736799696"><ele>266.0</ele><time>2026-05-02T12:02:23.987Z</time></trkpt><trkpt lat="46.11449991594581" lon="9.31989802559942"><ele>266.0</ele><time>2026-05-02T12:02:24.987Z</time></trkpt><trkpt lat="46.114497407950374" lon="9.320104871796635"><ele>266.0</ele><time>2026-05-02T12:02:25.987Z</time></trkpt><trkpt lat="46.11449583559457" lon="9.320316085799051"><ele>266.33333333333337</ele><time>2026-05-02T12:02:26.988Z</time></trkpt><trkpt lat="46.11449169669332" lon="9.320528911895803"><ele>266.6666666666667</ele><time>2026-05-02T12:02:27.988Z</time></trkpt><trkpt lat="46.11444631579081" lon="9.320744581735498"><ele>267.0</ele><time>2026-05-02T12:02:28.988Z</time></trkpt><trkpt lat="46.11443758247246" lon="9.320960148223687"><ele>267.0</ele><time>2026-05-02T12:02:29.988Z</time></trkpt><trkpt lat="46.11443033808116" lon="9.321178404797362"><ele>267.0</ele><time>2026-05-02T12:02:30.988Z</time></trkpt><trkpt lat="46.11442314211359" lon="9.32139532540132"><ele>267.0</ele><time>2026-05-02T12:02:31.988Z</time></trkpt><trkpt lat="46.11441811804805" lon="9.321616783630628"><ele>267.6666666666667</ele><time>2026-05-02T12:02:32.988Z</time></trkpt><trkpt lat="46.11441783915276" lon="9.3218419792154"><ele>268.33333333333337</ele><time>2026-05-02T12:02:33.988Z</time></trkpt><trkpt lat="46.114425364698654" lon="9.322069207573572"><ele>269.0</ele><time>2026-05-02T12:02:34.988Z</time></trkpt><trkpt lat="46.11443036912164" lon="9.322299430134832"><ele>269.33333333333337</ele><time>2026-05-02T12:02:35.988Z</time></trkpt><trkpt lat="46.11443892269061" lon="9.322521697921184"><ele>269.6666666666667</ele><time>2026-05-02T12:02:36.988Z</time></trkpt><trkpt lat="46.11444876747555" lon="9.322735828112261"><ele>270.0</ele><time>2026-05-02T12:02:37.988Z</time></trkpt><trkpt lat="46.114461293610695" lon="9.32294726890828"><ele>270.6666666666667</ele><time>2026-05-02T12:02:38.988Z</time></trkpt><trkpt lat="46.11447983626918" lon="9.323159238754402"><ele>271.33333333333337</ele><time>2026-05-02T12:02:39.988Z</time></trkpt><trkpt lat="46.11451902144811" lon="9.323366146657303"><ele>272.0</ele><time>2026-05-02T12:02:40.988Z</time></trkpt><trkpt lat="46.1145689671052" lon="9.323575769779637"><ele>272.0</ele><time>2026-05-02T12:02:41.988Z</time></trkpt><trkpt lat="46.11462153736608" lon="9.323786261268099"><ele>272.0</ele><time>2026-05-02T12:02:42.988Z</time></trkpt><trkpt lat="46.114656651165454" lon="9.323998353288564"><ele>272.0</ele><time>2026-05-02T12:02:43.988Z</time></trkpt><trkpt lat="46.114654464928094" lon="9.324218021377693"><ele>271.25</ele><time>2026-05-02T12:02:44.988Z</time></trkpt><trkpt lat="46.11464221383263" lon="9.32442756188563"><ele>270.5</ele><time>2026-05-02T12:02:45.988Z</time></trkpt><trkpt lat="46.11460243145106" lon="9.324616177627949"><ele>269.75</ele><time>2026-05-02T12:02:46.988Z</time></trkpt><trkpt lat="46.11454431425976" lon="9.324788783287099"><ele>269.0</ele><time>2026-05-02T12:02:47.988Z</time></trkpt><trkpt lat="46.11448034495194" lon="9.324950263798472"><ele>265.25</ele><time>2026-05-02T12:02:48.988Z</time></trkpt><trkpt lat="46.11439721177405" lon="9.325106004622981"><ele>261.5</ele><time>2026-05-02T12:02:49.988Z</time></trkpt><trkpt lat="46.114308577957885" lon="9.3252651962282"><ele>257.75</ele><time>2026-05-02T12:02:50.988Z</time></trkpt><trkpt lat="46.114246877375415" lon="9.325439532760027"><ele>254.0</ele><time>2026-05-02T12:02:51.988Z</time></trkpt><trkpt lat="46.1141831693128" lon="9.32561214153917"><ele>250.0</ele><time>2026-05-02T12:02:52.988Z</time></trkpt><trkpt lat="46.11413976571298" lon="9.325789002674078"><ele>246.0</ele><time>2026-05-02T12:02:53.988Z</time></trkpt><trkpt lat="46.1141001824019" lon="9.325967953052057"><ele>242.0</ele><time>2026-05-02T12:02:54.988Z</time></trkpt><trkpt lat="46.1140561396894" lon="9.32614707812419"><ele>238.0</ele><time>2026-05-02T12:02:55.988Z</time></trkpt><trkpt lat="46.11401337595427" lon="9.326321309365092"><ele>250.0</ele><time>2026-05-02T12:02:56.988Z</time></trkpt><trkpt lat="46.113970811949095" lon="9.326488577992514"><ele>262.0</ele><time>2026-05-02T12:02:57.988Z</time></trkpt><trkpt lat="46.1139406476564" lon="9.326663849181818"><ele>274.0</ele><time>2026-05-02T12:02:58.988Z</time></trkpt><trkpt lat="46.113926145750995" lon="9.326844515098392"><ele>286.0</ele><time>2026-05-02T12:02:59.988Z</time></trkpt><trkpt lat="46.113921019596354" lon="9.327023405865951"><ele>286.0</ele><time>2026-05-02T12:03:00.988Z</time></trkpt><trkpt lat="46.11392589607098" lon="9.327194486722796"><ele>286.0</ele><time>2026-05-02T12:03:01.988Z</time></trkpt><trkpt lat="46.11393264421127" lon="9.327353698375298"><ele>286.0</ele><time>2026-05-02T12:03:02.988Z</time></trkpt><trkpt lat="46.11393838326836" lon="9.327513976781198"><ele>286.0</ele><time>2026-05-02T12:03:03.988Z</time></trkpt><trkpt lat="46.11394907227364" lon="9.327669355581147"><ele>286.0</ele><time>2026-05-02T12:03:04.988Z</time></trkpt><trkpt lat="46.11396468145614" lon="9.327823780370043"><ele>285.6</ele><time>2026-05-02T12:03:05.988Z</time></trkpt><trkpt lat="46.11398282431181" lon="9.327977403396297"><ele>285.20000000000005</ele><time>2026-05-02T12:03:06.988Z</time></trkpt><trkpt lat="46.11400846487415" lon="9.328124951453058"><ele>284.79999999999995</ele><time>2026-05-02T12:03:07.988Z</time></trkpt><trkpt lat="46.11405500812426" lon="9.3282636310321"><ele>284.4</ele><time>2026-05-02T12:03:08.988Z</time></trkpt><trkpt lat="46.11412146062899" lon="9.328388438650991"><ele>284.0</ele><time>2026-05-02T12:03:09.988Z</time></trkpt><trkpt lat="46.114191867374" lon="9.328509665518206"><ele>271.5</ele><time>2026-05-02T12:03:10.988Z</time></trkpt><trkpt lat="46.114249759093646" lon="9.328640664688423"><ele>259.0</ele><time>2026-05-02T12:03:11.988Z</time></trkpt><trkpt lat="46.11429626295698" lon="9.328788359361095"><ele>246.5</ele><time>2026-05-02T12:03:12.988Z</time></trkpt><trkpt lat="46.11432688497556" lon="9.32894931624099"><ele>234.0</ele><time>2026-05-02T12:03:13.988Z</time></trkpt><trkpt lat="46.114338885496736" lon="9.329117135806847"><ele>234.0</ele><time>2026-05-02T12:03:14.988Z</time></trkpt><trkpt lat="46.11434778129692" lon="9.329292997345508"><ele>234.0</ele><time>2026-05-02T12:03:15.988Z</time></trkpt><trkpt lat="46.114315026855685" lon="9.329493596774503"><ele>234.0</ele><time>2026-05-02T12:03:16.988Z</time></trkpt><trkpt lat="46.11431806140288" lon="9.329685239833317"><ele>234.0</ele><time>2026-05-02T12:03:17.988Z</time></trkpt><trkpt lat="46.114324676918535" lon="9.329882287126221"><ele>234.75</ele><time>2026-05-02T12:03:18.988Z</time></trkpt><trkpt lat="46.11433464727109" lon="9.330076367621334"><ele>235.5</ele><time>2026-05-02T12:03:19.988Z</time></trkpt><trkpt lat="46.11434247039789" lon="9.330264772335456"><ele>236.25</ele><time>2026-05-02T12:03:20.988Z</time></trkpt><trkpt lat="46.114345054449636" lon="9.330449287897439"><ele>237.0</ele><time>2026-05-02T12:03:21.988Z</time></trkpt><trkpt lat="46.114353493307355" lon="9.330634565313536"><ele>239.0</ele><time>2026-05-02T12:03:22.988Z</time></trkpt><trkpt lat="46.11436375150578" lon="9.330816279137055"><ele>241.0</ele><time>2026-05-02T12:03:23.988Z</time></trkpt><trkpt lat="46.114394134820806" lon="9.331003049233741"><ele>243.0</ele><time>2026-05-02T12:03:24.989Z</time></trkpt><trkpt lat="46.11443955066414" lon="9.331186433548071"><ele>245.0</ele><time>2026-05-02T12:03:25.989Z</time></trkpt><trkpt lat="46.114487265126314" lon="9.331371500603641"><ele>246.75</ele><time>2026-05-02T12:03:26.989Z</time></trkpt><trkpt lat="46.1145396384145" lon="9.331555960271352"><ele>248.5</ele><time>2026-05-02T12:03:27.989Z</time></trkpt><trkpt lat="46.11461264021722" lon="9.331737565291762"><ele>250.25</ele><time>2026-05-02T12:03:28.989Z</time></trkpt><trkpt lat="46.114683947124554" lon="9.331919352356358"><ele>252.0</ele><time>2026-05-02T12:03:29.989Z</time></trkpt><trkpt lat="46.114761103016484" lon="9.332099134095994"><ele>258.0</ele><time>2026-05-02T12:03:30.989Z</time></trkpt><trkpt lat="46.11483903321061" lon="9.332285037480581"><ele>264.0</ele><time>2026-05-02T12:03:31.989Z</time></trkpt><trkpt lat="46.11490469652184" lon="9.332478799909625"><ele>270.0</ele><time>2026-05-02T12:03:32.989Z</time></trkpt><trkpt lat="46.11496558858944" lon="9.332677566368032"><ele>262.3333333333333</ele><time>2026-05-02T12:03:33.989Z</time></trkpt><trkpt lat="46.115043331518244" lon="9.332870788075082"><ele>254.66666666666666</ele><time>2026-05-02T12:03:34.989Z</time></trkpt><trkpt lat="46.11514172911671" lon="9.333052384770854"><ele>247.0</ele><time>2026-05-02T12:03:35.989Z</time></trkpt><trkpt lat="46.11524284121584" lon="9.333231362245906"><ele>247.0</ele><time>2026-05-02T12:03:36.989Z</time></trkpt><trkpt lat="46.11534668783807" lon="9.333407841784037"><ele>247.0</ele><time>2026-05-02T12:03:37.989Z</time></trkpt><trkpt lat="46.11544432000474" lon="9.333584636957488"><ele>247.0</ele><time>2026-05-02T12:03:38.989Z</time></trkpt><trkpt lat="46.115536441882064" lon="9.33376723248798"><ele>239.33333333333331</ele><time>2026-05-02T12:03:39.989Z</time></trkpt><trkpt lat="46.11561936542474" lon="9.333956412570632"><ele>231.66666666666669</ele><time>2026-05-02T12:03:40.989Z</time></trkpt><trkpt lat="46.11569931303737" lon="9.334143864092793"><ele>224.0</ele><time>2026-05-02T12:03:41.989Z</time></trkpt><trkpt lat="46.11577577188113" lon="9.334335074087473"><ele>224.0</ele><time>2026-05-02T12:03:42.989Z</time></trkpt><trkpt lat="46.115831583570284" lon="9.334539737608878"><ele>224.0</ele><time>2026-05-02T12:03:43.989Z</time></trkpt><trkpt lat="46.115854538772865" lon="9.334760324545218"><ele>224.0</ele><time>2026-05-02T12:03:44.989Z</time></trkpt><trkpt lat="46.115874985663574" lon="9.334982890054471"><ele>230.0</ele><time>2026-05-02T12:03:45.989Z</time></trkpt><trkpt lat="46.11591189408116" lon="9.335200377014264"><ele>236.0</ele><time>2026-05-02T12:03:46.989Z</time></trkpt><trkpt lat="46.11598635098672" lon="9.33539833958446"><ele>242.0</ele><time>2026-05-02T12:03:47.989Z</time></trkpt><trkpt lat="46.116073941497056" lon="9.335575435132778"><ele>249.0</ele><time>2026-05-02T12:03:48.989Z</time></trkpt><trkpt lat="46.116173780147825" lon="9.335745409204748"><ele>256.0</ele><time>2026-05-02T12:03:49.989Z</time></trkpt><trkpt lat="46.11626818514738" lon="9.335918018234173"><ele>263.0</ele><time>2026-05-02T12:03:50.989Z</time></trkpt><trkpt lat="46.11636802454356" lon="9.336097049450544"><ele>263.0</ele><time>2026-05-02T12:03:51.989Z</time></trkpt><trkpt lat="46.11645772923797" lon="9.33628818642394"><ele>263.0</ele><time>2026-05-02T12:03:52.989Z</time></trkpt><trkpt lat="46.116531466727245" lon="9.3364862923947"><ele>263.0</ele><time>2026-05-02T12:03:53.989Z</time></trkpt><trkpt lat="46.11661207996968" lon="9.336682236528581"><ele>253.33333333333334</ele><time>2026-05-02T12:03:54.989Z</time></trkpt><trkpt lat="46.11669782483434" lon="9.336874292231597"><ele>243.66666666666669</ele><time>2026-05-02T12:03:55.989Z</time></trkpt><trkpt lat="46.11676404070881" lon="9.337072925541815"><ele>234.0</ele><time>2026-05-02T12:03:56.989Z</time></trkpt><trkpt lat="46.11683063692704" lon="9.337262018666014"><ele>234.0</ele><time>2026-05-02T12:03:57.989Z</time></trkpt><trkpt lat="46.11688941404984" lon="9.337447935378817"><ele>234.0</ele><time>2026-05-02T12:03:58.989Z</time></trkpt><trkpt lat="46.11693508315257" lon="9.337641530643307"><ele>234.0</ele><time>2026-05-02T12:03:59.989Z</time></trkpt><trkpt lat="46.11695236671816" lon="9.337841710782534"><ele>234.0</ele><time>2026-05-02T12:04:00.989Z</time></trkpt><trkpt lat="46.11694821432643" lon="9.338051803532151"><ele>236.0</ele><time>2026-05-02T12:04:01.989Z</time></trkpt><trkpt lat="46.116943305014225" lon="9.33826980343132"><ele>238.0</ele><time>2026-05-02T12:04:02.987Z</time></trkpt><trkpt lat="46.11693836584175" lon="9.338493699857292"><ele>240.0</ele><time>2026-05-02T12:04:03.987Z</time></trkpt><trkpt lat="46.116930793142394" lon="9.338709756911403"><ele>239.25</ele><time>2026-05-02T12:04:04.987Z</time></trkpt><trkpt lat="46.116913242310545" lon="9.338925710917765"><ele>238.5</ele><time>2026-05-02T12:04:05.987Z</time></trkpt><trkpt lat="46.11688606677796" lon="9.339134959450812"><ele>237.75</ele><time>2026-05-02T12:04:06.987Z</time></trkpt><trkpt lat="46.11685177868114" lon="9.339346985318928"><ele>237.0</ele><time>2026-05-02T12:04:07.987Z</time></trkpt><trkpt lat="46.11681631582436" lon="9.339558617104844"><ele>233.0</ele><time>2026-05-02T12:04:08.987Z</time></trkpt><trkpt lat="46.11678129404918" lon="9.339767074171142"><ele>229.0</ele><time>2026-05-02T12:04:09.987Z</time></trkpt><trkpt lat="46.1167419494665" lon="9.339975953103103"><ele>225.0</ele><time>2026-05-02T12:04:10.987Z</time></trkpt><trkpt lat="46.11669252749287" lon="9.340190325644345"><ele>225.0</ele><time>2026-05-02T12:04:11.987Z</time></trkpt><trkpt lat="46.11663778498802" lon="9.340397248853048"><ele>225.0</ele><time>2026-05-02T12:04:12.987Z</time></trkpt><trkpt lat="46.1165867881706" lon="9.340605453075135"><ele>225.0</ele><time>2026-05-02T12:04:13.987Z</time></trkpt><trkpt lat="46.116539455041156" lon="9.340804538375014"><ele>231.5</ele><time>2026-05-02T12:04:14.987Z</time></trkpt><trkpt lat="46.116508208368806" lon="9.341007530111945"><ele>238.0</ele><time>2026-05-02T12:04:15.986Z</time></trkpt><trkpt lat="46.116460853543956" lon="9.341198483348492"><ele>244.5</ele><time>2026-05-02T12:04:16.986Z</time></trkpt><trkpt lat="46.11641172882277" lon="9.341387515510625"><ele>251.0</ele><time>2026-05-02T12:04:17.986Z</time></trkpt><trkpt lat="46.11636097583236" lon="9.34157874261934"><ele>251.0</ele><time>2026-05-02T12:04:18.986Z</time></trkpt><trkpt lat="46.11630743272096" lon="9.34177117566348"><ele>251.0</ele><time>2026-05-02T12:04:19.986Z</time></trkpt><trkpt lat="46.11625477767256" lon="9.341964380461395"><ele>251.0</ele><time>2026-05-02T12:04:20.987Z</time></trkpt><trkpt lat="46.1162201339655" lon="9.342168001154647"><ele>251.0</ele><time>2026-05-02T12:04:21.987Z</time></trkpt><trkpt lat="46.11617817823206" lon="9.342370149736759"><ele>248.75</ele><time>2026-05-02T12:04:22.987Z</time></trkpt><trkpt lat="46.11616150529807" lon="9.342573022281469"><ele>246.5</ele><time>2026-05-02T12:04:23.987Z</time></trkpt><trkpt lat="46.11615697509539" lon="9.342780296072034"><ele>244.25</ele><time>2026-05-02T12:04:24.987Z</time></trkpt><trkpt lat="46.11616031509908" lon="9.34298522335158"><ele>242.0</ele><time>2026-05-02T12:04:25.987Z</time></trkpt><trkpt lat="46.116172337699055" lon="9.343190453990854"><ele>239.75</ele><time>2026-05-02T12:04:26.987Z</time></trkpt><trkpt lat="46.116201466188954" lon="9.343396763199548"><ele>237.5</ele><time>2026-05-02T12:04:27.987Z</time></trkpt><trkpt lat="46.11622158407383" lon="9.343605321985093"><ele>235.25</ele><time>2026-05-02T12:04:28.987Z</time></trkpt><trkpt lat="46.11623672885685" lon="9.343810476294228"><ele>233.0</ele><time>2026-05-02T12:04:29.987Z</time></trkpt><trkpt lat="46.11625895668843" lon="9.344013609107474"><ele>232.5</ele><time>2026-05-02T12:04:30.987Z</time></trkpt><trkpt lat="46.11627898467632" lon="9.344217669245202"><ele>232.0</ele><time>2026-05-02T12:04:31.987Z</time></trkpt><trkpt lat="46.1162959929927" lon="9.344423211339958"><ele>231.5</ele><time>2026-05-02T12:04:32.987Z</time></trkpt><trkpt lat="46.11631319596745" lon="9.344625591455062"><ele>231.0</ele><time>2026-05-02T12:04:33.987Z</time></trkpt><trkpt lat="46.11632898257071" lon="9.34482811997785"><ele>233.25</ele><time>2026-05-02T12:04:34.987Z</time></trkpt><trkpt lat="46.116346089336865" lon="9.34503203510134"><ele>235.5</ele><time>2026-05-02T12:04:35.987Z</time></trkpt><trkpt lat="46.116375386167775" lon="9.345227328591488"><ele>237.75</ele><time>2026-05-02T12:04:36.987Z</time></trkpt><trkpt lat="46.11642065942256" lon="9.345419791751517"><ele>240.0</ele><time>2026-05-02T12:04:37.987Z</time></trkpt><trkpt lat="46.11647672040994" lon="9.345597094794373"><ele>244.5</ele><time>2026-05-02T12:04:38.987Z</time></trkpt><trkpt lat="46.116547745475444" lon="9.345754223821835"><ele>249.0</ele><time>2026-05-02T12:04:39.987Z</time></trkpt><trkpt lat="46.116618046408625" lon="9.345895865793468"><ele>253.5</ele><time>2026-05-02T12:04:40.987Z</time></trkpt><trkpt lat="46.11669247039937" lon="9.34602373129193"><ele>258.0</ele><time>2026-05-02T12:04:41.987Z</time></trkpt><trkpt lat="46.116768457097926" lon="9.34615055143712"><ele>251.2</ele><time>2026-05-02T12:04:42.987Z</time></trkpt><trkpt lat="46.116843649686686" lon="9.346277497535421"><ele>244.4</ele><time>2026-05-02T12:04:43.987Z</time></trkpt><trkpt lat="46.11692335102966" lon="9.34639741483323"><ele>237.59999999999997</ele><time>2026-05-02T12:04:44.987Z</time></trkpt><trkpt lat="46.116989656397806" lon="9.3465014343563"><ele>230.79999999999998</ele><time>2026-05-02T12:04:45.987Z</time></trkpt><trkpt lat="46.11705781915329" lon="9.346583667410728"><ele>224.0</ele><time>2026-05-02T12:04:46.987Z</time></trkpt><trkpt lat="46.11709993988898" lon="9.346665180657205"><ele>224.0</ele><time>2026-05-02T12:04:47.987Z</time></trkpt><trkpt lat="46.11712688601399" lon="9.346789191373022"><ele>223.99999999999997</ele><time>2026-05-02T12:04:48.987Z</time></trkpt><trkpt lat="46.117167695232645" lon="9.346920547683997"><ele>223.99999999999997</ele><time>2026-05-02T12:04:49.987Z</time></trkpt><trkpt lat="46.11720268530043" lon="9.347060966801587"><ele>224.0</ele><time>2026-05-02T12:04:50.987Z</time></trkpt><trkpt lat="46.11720739323485" lon="9.347230031930462"><ele>224.0</ele><time>2026-05-02T12:04:51.987Z</time></trkpt><trkpt lat="46.11719985535349" lon="9.347401407874429"><ele>228.0</ele><time>2026-05-02T12:04:52.987Z</time></trkpt><trkpt lat="46.11717610450209" lon="9.34757802375802"><ele>232.0</ele><time>2026-05-02T12:04:53.987Z</time></trkpt><trkpt lat="46.11715023615347" lon="9.347755570571628"><ele>236.0</ele><time>2026-05-02T12:04:54.987Z</time></trkpt><trkpt lat="46.11714200715319" lon="9.347922385431666"><ele>240.0</ele><time>2026-05-02T12:04:55.987Z</time></trkpt><trkpt lat="46.11716445200266" lon="9.348076817383038"><ele>243.5</ele><time>2026-05-02T12:04:56.987Z</time></trkpt><trkpt lat="46.11720172015009" lon="9.348219048471389"><ele>247.0</ele><time>2026-05-02T12:04:57.987Z</time></trkpt><trkpt lat="46.117286276043664" lon="9.348345662599312"><ele>250.5</ele><time>2026-05-02T12:04:58.987Z</time></trkpt><trkpt lat="46.117370140434396" lon="9.348442426991644"><ele>254.0</ele><time>2026-05-02T12:04:59.987Z</time></trkpt><trkpt lat="46.11747698538237" lon="9.348507523971433"><ele>244.25</ele><time>2026-05-02T12:05:00.987Z</time></trkpt><trkpt lat="46.11757820240417" lon="9.348549782154441"><ele>234.5</ele><time>2026-05-02T12:05:01.987Z</time></trkpt><trkpt lat="46.117706147865945" lon="9.348569424860298"><ele>224.75</ele><time>2026-05-02T12:05:02.987Z</time></trkpt><trkpt lat="46.11783602806459" lon="9.348572159534411"><ele>215.0</ele><time>2026-05-02T12:05:03.987Z</time></trkpt><trkpt lat="46.11796827318671" lon="9.348572703908761"><ele>215.0</ele><time>2026-05-02T12:05:04.987Z</time></trkpt><trkpt lat="46.118098167570814" lon="9.348583189453688"><ele>215.0</ele><time>2026-05-02T12:05:05.987Z</time></trkpt><trkpt lat="46.1182263417155" lon="9.348589958148821"><ele>215.0</ele><time>2026-05-02T12:05:06.987Z</time></trkpt><trkpt lat="46.11835844685307" lon="9.34860504850417"><ele>215.0</ele><time>2026-05-02T12:05:07.987Z</time></trkpt><trkpt lat="46.11848328846549" lon="9.348618844102326"><ele>213.75</ele><time>2026-05-02T12:05:08.987Z</time></trkpt><trkpt lat="46.1186094046225" lon="9.348637780466111"><ele>212.5</ele><time>2026-05-02T12:05:09.987Z</time></trkpt><trkpt lat="46.11874357832617" lon="9.348669262532928"><ele>211.25</ele><time>2026-05-02T12:05:10.987Z</time></trkpt><trkpt lat="46.1188706940854" lon="9.348704513950862"><ele>210.0</ele><time>2026-05-02T12:05:11.987Z</time></trkpt><trkpt lat="46.11898462838187" lon="9.348750986934748"><ele>210.16666666666666</ele><time>2026-05-02T12:05:12.987Z</time></trkpt><trkpt lat="46.11908395323951" lon="9.348795478443005"><ele>210.33333333333331</ele><time>2026-05-02T12:05:13.987Z</time></trkpt><trkpt lat="46.11917473709519" lon="9.348837796978474"><ele>210.5</ele><time>2026-05-02T12:05:14.987Z</time></trkpt><trkpt lat="46.11925290469341" lon="9.348880276320555"><ele>210.66666666666666</ele><time>2026-05-02T12:05:15.987Z</time></trkpt><trkpt lat="46.11930641536742" lon="9.348939798008196"><ele>210.83333333333331</ele><time>2026-05-02T12:05:16.987Z</time></trkpt><trkpt lat="46.11934158044215" lon="9.349018150615352"><ele>211.0</ele><time>2026-05-02T12:05:17.987Z</time></trkpt><trkpt lat="46.119357643744515" lon="9.349119644946581"><ele>211.28571428571428</ele><time>2026-05-02T12:05:18.987Z</time></trkpt><trkpt lat="46.11937757084632" lon="9.34922739387115"><ele>211.57142857142858</ele><time>2026-05-02T12:05:19.988Z</time></trkpt><trkpt lat="46.119414826069004" lon="9.349320381836831"><ele>211.85714285714283</ele><time>2026-05-02T12:05:20.988Z</time></trkpt><trkpt lat="46.1194769650026" lon="9.349381421317222"><ele>212.14285714285714</ele><time>2026-05-02T12:05:21.988Z</time></trkpt><trkpt lat="46.11954415906459" lon="9.349385589504863"><ele>212.42857142857142</ele><time>2026-05-02T12:05:22.988Z</time></trkpt><trkpt lat="46.119608420044024" lon="9.3493394336616"><ele>212.7142857142857</ele><time>2026-05-02T12:05:23.988Z</time></trkpt><trkpt lat="46.11967287256739" lon="9.349271117076956"><ele>213.0</ele><time>2026-05-02T12:05:24.988Z</time></trkpt><trkpt lat="46.1197461839304" lon="9.349204567818223"><ele>213.0</ele><time>2026-05-02T12:05:25.988Z</time></trkpt><trkpt lat="46.119839537628906" lon="9.349167038261754"><ele>213.0</ele><time>2026-05-02T12:05:26.988Z</time></trkpt><trkpt lat="46.11994295571491" lon="9.349158200642325"><ele>213.0</ele><time>2026-05-02T12:05:27.988Z</time></trkpt><trkpt lat="46.120052865265386" lon="9.349173499634489"><ele>213.0</ele><time>2026-05-02T12:05:28.988Z</time></trkpt><trkpt lat="46.12015727748104" lon="9.349208075428923"><ele>213.0</ele><time>2026-05-02T12:05:29.988Z</time></trkpt><trkpt lat="46.12026285342428" lon="9.349247520006658"><ele>213.0</ele><time>2026-05-02T12:05:30.988Z</time></trkpt><trkpt lat="46.120380248283276" lon="9.34928779747396"><ele>213.0</ele><time>2026-05-02T12:05:31.988Z</time></trkpt><trkpt lat="46.12049952254893" lon="9.349331226058233"><ele>213.0</ele><time>2026-05-02T12:05:32.988Z</time></trkpt><trkpt lat="46.120628191190384" lon="9.349380398447877"><ele>213.0</ele><time>2026-05-02T12:05:33.988Z</time></trkpt><trkpt lat="46.12076138856778" lon="9.349434907856665"><ele>212.25</ele><time>2026-05-02T12:05:34.988Z</time></trkpt><trkpt lat="46.12089784442221" lon="9.34948591039098"><ele>211.5</ele><time>2026-05-02T12:05:35.988Z</time></trkpt><trkpt lat="46.121032072337115" lon="9.34953741873213"><ele>210.75</ele><time>2026-05-02T12:05:36.988Z</time></trkpt><trkpt lat="46.12117326537945" lon="9.349590588921345"><ele>210.0</ele><time>2026-05-02T12:05:37.988Z</time></trkpt><trkpt lat="46.12131634821495" lon="9.349643510028592"><ele>210.0</ele><time>2026-05-02T12:05:38.988Z</time></trkpt><trkpt lat="46.12145848316292" lon="9.349697806214765"><ele>210.0</ele><time>2026-05-02T12:05:39.988Z</time></trkpt><trkpt lat="46.12160338658478" lon="9.349753908969182"><ele>210.0</ele><time>2026-05-02T12:05:40.988Z</time></trkpt><trkpt lat="46.121751925216394" lon="9.349810780198823"><ele>210.75</ele><time>2026-05-02T12:05:41.988Z</time></trkpt><trkpt lat="46.12189447395297" lon="9.349864588227359"><ele>211.5</ele><time>2026-05-02T12:05:42.988Z</time></trkpt><trkpt lat="46.12203839839504" lon="9.349918610818996"><ele>212.25</ele><time>2026-05-02T12:05:43.988Z</time></trkpt><trkpt lat="46.12217923590379" lon="9.349972307327864"><ele>213.0</ele><time>2026-05-02T12:05:44.988Z</time></trkpt><trkpt lat="46.12232463241482" lon="9.350027785112106"><ele>212.75</ele><time>2026-05-02T12:05:45.988Z</time></trkpt><trkpt lat="46.122464076870706" lon="9.350081993076863"><ele>212.5</ele><time>2026-05-02T12:05:46.988Z</time></trkpt><trkpt lat="46.12260403211379" lon="9.350138681357002"><ele>212.25</ele><time>2026-05-02T12:05:47.988Z</time></trkpt><trkpt lat="46.12274805373361" lon="9.3501961296893"><ele>212.0</ele><time>2026-05-02T12:05:48.988Z</time></trkpt><trkpt lat="46.12288790653942" lon="9.350247938918075"><ele>212.0</ele><time>2026-05-02T12:05:49.988Z</time></trkpt><trkpt lat="46.12301143629094" lon="9.350295161003865"><ele>212.0</ele><time>2026-05-02T12:05:50.988Z</time></trkpt><trkpt lat="46.1231291433498" lon="9.35034756734796"><ele>212.0</ele><time>2026-05-02T12:05:51.988Z</time></trkpt><trkpt lat="46.12324902545379" lon="9.350394414896872"><ele>212.0</ele><time>2026-05-02T12:05:52.988Z</time></trkpt><trkpt lat="46.12337599141725" lon="9.35044162318657"><ele>211.75</ele><time>2026-05-02T12:05:53.988Z</time></trkpt><trkpt lat="46.12350539822643" lon="9.35049162071857"><ele>211.5</ele><time>2026-05-02T12:05:54.988Z</time></trkpt><trkpt lat="46.123639629265696" lon="9.350542906033658"><ele>211.25</ele><time>2026-05-02T12:05:55.988Z</time></trkpt><trkpt lat="46.12377386295783" lon="9.350595924734874"><ele>211.0</ele><time>2026-05-02T12:05:56.988Z</time></trkpt><trkpt lat="46.123911411121675" lon="9.350650550117107"><ele>211.5</ele><time>2026-05-02T12:05:57.988Z</time></trkpt><trkpt lat="46.12405092633115" lon="9.35070799691235"><ele>212.0</ele><time>2026-05-02T12:05:58.988Z</time></trkpt><trkpt lat="46.12419342446509" lon="9.350764113493602"><ele>212.5</ele><time>2026-05-02T12:05:59.988Z</time></trkpt><trkpt lat="46.12433515885809" lon="9.350819730482792"><ele>213.0</ele><time>2026-05-02T12:06:00.988Z</time></trkpt><trkpt lat="46.1244754730513" lon="9.350871848817805"><ele>213.0</ele><time>2026-05-02T12:06:01.988Z</time></trkpt><trkpt lat="46.12461532191594" lon="9.350921688672255"><ele>213.0</ele><time>2026-05-02T12:06:02.988Z</time></trkpt><trkpt lat="46.12474928957" lon="9.35096678328633"><ele>213.0</ele><time>2026-05-02T12:06:03.988Z</time></trkpt><trkpt lat="46.124874730848845" lon="9.351010612949642"><ele>213.0</ele><time>2026-05-02T12:06:04.988Z</time></trkpt><trkpt lat="46.12499512332401" lon="9.351070376673603"><ele>212.75</ele><time>2026-05-02T12:06:05.988Z</time></trkpt><trkpt lat="46.12510349867908" lon="9.351152753813327"><ele>212.5</ele><time>2026-05-02T12:06:06.988Z</time></trkpt><trkpt lat="46.125207387116546" lon="9.351255449773877"><ele>212.25</ele><time>2026-05-02T12:06:07.988Z</time></trkpt><trkpt lat="46.125312435933566" lon="9.351381892460466"><ele>212.0</ele><time>2026-05-02T12:06:08.986Z</time></trkpt><trkpt lat="46.12541576036196" lon="9.351510060916334"><ele>212.0</ele><time>2026-05-02T12:06:09.986Z</time></trkpt><trkpt lat="46.12551971778714" lon="9.351641285771612"><ele>212.0</ele><time>2026-05-02T12:06:10.986Z</time></trkpt><trkpt lat="46.125597210202564" lon="9.351797906848434"><ele>212.0</ele><time>2026-05-02T12:06:11.986Z</time></trkpt><trkpt lat="46.125702807361435" lon="9.351930429327684"><ele>212.0</ele><time>2026-05-02T12:06:12.987Z</time></trkpt><trkpt lat="46.12580743851022" lon="9.352066134758461"><ele>212.0</ele><time>2026-05-02T12:06:13.987Z</time></trkpt><trkpt lat="46.12591405241611" lon="9.352202296822105"><ele>212.0</ele><time>2026-05-02T12:06:14.986Z</time></trkpt><trkpt lat="46.126020399380835" lon="9.352336858664154"><ele>212.0</ele><time>2026-05-02T12:06:15.987Z</time></trkpt><trkpt lat="46.12613093565174" lon="9.3524711104576"><ele>212.0</ele><time>2026-05-02T12:06:16.987Z</time></trkpt><trkpt lat="46.12624169543085" lon="9.352608267752107"><ele>212.25</ele><time>2026-05-02T12:06:17.986Z</time></trkpt><trkpt lat="46.12634688384498" lon="9.352742042346087"><ele>212.5</ele><time>2026-05-02T12:06:18.986Z</time></trkpt><trkpt lat="46.12645026676615" lon="9.352871256270447"><ele>212.75</ele><time>2026-05-02T12:06:19.986Z</time></trkpt><trkpt lat="46.126546863769306" lon="9.35299749771301"><ele>213.0</ele><time>2026-05-02T12:06:20.986Z</time></trkpt><trkpt lat="46.12664545439237" lon="9.35311284404485"><ele>213.5</ele><time>2026-05-02T12:06:21.986Z</time></trkpt><trkpt lat="46.12673969315166" lon="9.353229670387961"><ele>214.0</ele><time>2026-05-02T12:06:22.986Z</time></trkpt><trkpt lat="46.12683160315654" lon="9.353345075327534"><ele>214.5</ele><time>2026-05-02T12:06:23.986Z</time></trkpt><trkpt lat="46.126922236232346" lon="9.35346197170134"><ele>215.0</ele><time>2026-05-02T12:06:24.986Z</time></trkpt><trkpt lat="46.127010605401225" lon="9.353575769928682"><ele>215.0</ele><time>2026-05-02T12:06:25.986Z</time></trkpt><trkpt lat="46.127101627528916" lon="9.353687803167679"><ele>215.0</ele><time>2026-05-02T12:06:26.986Z</time></trkpt><trkpt lat="46.12719274563146" lon="9.353807804329048"><ele>215.0</ele><time>2026-05-02T12:06:27.986Z</time></trkpt><trkpt lat="46.1272908845122" lon="9.353933987597832"><ele>215.0</ele><time>2026-05-02T12:06:28.986Z</time></trkpt><trkpt lat="46.12739419659325" lon="9.354060288118182"><ele>215.5</ele><time>2026-05-02T12:06:29.986Z</time></trkpt><trkpt lat="46.127498347688764" lon="9.354183245828173"><ele>216.0</ele><time>2026-05-02T12:06:30.986Z</time></trkpt><trkpt lat="46.127593679222436" lon="9.354301854230828"><ele>216.5</ele><time>2026-05-02T12:06:31.986Z</time></trkpt><trkpt lat="46.1276825066625" lon="9.354414985091527"><ele>217.0</ele><time>2026-05-02T12:06:32.987Z</time></trkpt><trkpt lat="46.12776490086548" lon="9.354521607015155"><ele>217.0</ele><time>2026-05-02T12:06:33.987Z</time></trkpt><trkpt lat="46.12784541863583" lon="9.35463106850623"><ele>217.0</ele><time>2026-05-02T12:06:34.987Z</time></trkpt><trkpt lat="46.12793276948896" lon="9.354740119165028"><ele>217.0</ele><time>2026-05-02T12:06:35.987Z</time></trkpt><trkpt lat="46.12802269789811" lon="9.354856349611188"><ele>217.0</ele><time>2026-05-02T12:06:36.987Z</time></trkpt><trkpt lat="46.1281137508028" lon="9.354970122858838"><ele>217.0</ele><time>2026-05-02T12:06:37.987Z</time></trkpt><trkpt lat="46.12820585728268" lon="9.355091116282937"><ele>217.0</ele><time>2026-05-02T12:06:38.987Z</time></trkpt><trkpt lat="46.12829889714591" lon="9.355217076677562"><ele>217.0</ele><time>2026-05-02T12:06:39.987Z</time></trkpt><trkpt lat="46.128397352401" lon="9.35534341187847"><ele>217.0</ele><time>2026-05-02T12:06:40.987Z</time></trkpt><trkpt lat="46.128499252223484" lon="9.355471745846408"><ele>218.0</ele><time>2026-05-02T12:06:41.987Z</time></trkpt><trkpt lat="46.128602637262354" lon="9.355607801759557"><ele>219.0</ele><time>2026-05-02T12:06:42.987Z</time></trkpt><trkpt lat="46.128700896844485" lon="9.355738269816118"><ele>220.0</ele><time>2026-05-02T12:06:43.987Z</time></trkpt><trkpt lat="46.12880166497045" lon="9.355871351005977"><ele>221.0</ele><time>2026-05-02T12:06:44.987Z</time></trkpt><trkpt lat="46.12889651575859" lon="9.356001352131642"><ele>221.00000000000003</ele><time>2026-05-02T12:06:45.987Z</time></trkpt><trkpt lat="46.12898074110993" lon="9.356125601610742"><ele>221.0</ele><time>2026-05-02T12:06:46.987Z</time></trkpt><trkpt lat="46.129044562970755" lon="9.356227272149617"><ele>221.0</ele><time>2026-05-02T12:06:47.987Z</time></trkpt><trkpt lat="46.129106264023505" lon="9.356313438619837"><ele>221.0</ele><time>2026-05-02T12:06:48.987Z</time></trkpt><trkpt lat="46.12916407150886" lon="9.35638870634974"><ele>221.00000000000003</ele><time>2026-05-02T12:06:49.987Z</time></trkpt><trkpt lat="46.12921392708821" lon="9.356459369796754"><ele>221.0</ele><time>2026-05-02T12:06:50.987Z</time></trkpt><trkpt lat="46.129286867524755" lon="9.356559604661474"><ele>220.60000000000002</ele><time>2026-05-02T12:06:52.987Z</time></trkpt><trkpt lat="46.129343379195404" lon="9.356712084861185"><ele>220.20000000000002</ele><time>2026-05-02T12:06:54.987Z</time></trkpt><trkpt lat="46.12939565973196" lon="9.35680005289474"><ele>219.79999999999998</ele><time>2026-05-02T12:06:55.987Z</time></trkpt><trkpt lat="46.12945343194244" lon="9.356896444102722"><ele>219.39999999999998</ele><time>2026-05-02T12:06:56.987Z</time></trkpt><trkpt lat="46.12951687544854" lon="9.357007497267507"><ele>219.0</ele><time>2026-05-02T12:06:57.987Z</time></trkpt><trkpt lat="46.12958399425384" lon="9.357132797694678"><ele>219.5</ele><time>2026-05-02T12:06:58.987Z</time></trkpt><trkpt lat="46.129654058334" lon="9.357268295502346"><ele>220.0</ele><time>2026-05-02T12:06:59.987Z</time></trkpt><trkpt lat="46.12972829770256" lon="9.357420452371382"><ele>220.5</ele><time>2026-05-02T12:07:00.987Z</time></trkpt><trkpt lat="46.12980262622757" lon="9.35758790568937"><ele>221.0</ele><time>2026-05-02T12:07:01.987Z</time></trkpt><trkpt lat="46.12988091570801" lon="9.357761099369306"><ele>219.33333333333334</ele><time>2026-05-02T12:07:02.987Z</time></trkpt><trkpt lat="46.12995721268309" lon="9.35794467383049"><ele>217.66666666666669</ele><time>2026-05-02T12:07:03.987Z</time></trkpt><trkpt lat="46.1300323450648" lon="9.358136104860248"><ele>216.0</ele><time>2026-05-02T12:07:04.987Z</time></trkpt><trkpt lat="46.13010684203997" lon="9.358336775012392"><ele>216.0</ele><time>2026-05-02T12:07:05.987Z</time></trkpt><trkpt lat="46.13018060694622" lon="9.35854075959626"><ele>216.0</ele><time>2026-05-02T12:07:06.987Z</time></trkpt><trkpt lat="46.130253503123264" lon="9.35874966052866"><ele>216.0</ele><time>2026-05-02T12:07:07.987Z</time></trkpt><trkpt lat="46.13032705521336" lon="9.358958821959593"><ele>216.33333333333331</ele><time>2026-05-02T12:07:08.987Z</time></trkpt><trkpt lat="46.13039876099502" lon="9.359166191108267"><ele>216.66666666666666</ele><time>2026-05-02T12:07:09.987Z</time></trkpt><trkpt lat="46.13047256396258" lon="9.359370915003712"><ele>217.0</ele><time>2026-05-02T12:07:10.987Z</time></trkpt><trkpt lat="46.1305423100785" lon="9.35957466477293"><ele>216.75</ele><time>2026-05-02T12:07:11.987Z</time></trkpt><trkpt lat="46.13061075520369" lon="9.359765774400481"><ele>216.5</ele><time>2026-05-02T12:07:12.987Z</time></trkpt><trkpt lat="46.13067894141932" lon="9.359954401707268"><ele>216.25</ele><time>2026-05-02T12:07:13.987Z</time></trkpt><trkpt lat="46.13074546684881" lon="9.360144009481054"><ele>216.0</ele><time>2026-05-02T12:07:14.987Z</time></trkpt><trkpt lat="46.130817429430245" lon="9.360335139880364"><ele>216.0</ele><time>2026-05-02T12:07:15.987Z</time></trkpt><trkpt lat="46.13089112821756" lon="9.36052471648099"><ele>216.0</ele><time>2026-05-02T12:07:16.987Z</time></trkpt><trkpt lat="46.13096045289897" lon="9.360716788711972"><ele>216.0</ele><time>2026-05-02T12:07:17.987Z</time></trkpt><trkpt lat="46.13102901893912" lon="9.360912257409636"><ele>216.66666666666669</ele><time>2026-05-02T12:07:18.987Z</time></trkpt><trkpt lat="46.13109957662787" lon="9.361111410427304"><ele>217.33333333333334</ele><time>2026-05-02T12:07:19.987Z</time></trkpt><trkpt lat="46.131171435324454" lon="9.361309900055044"><ele>218.0</ele><time>2026-05-02T12:07:20.987Z</time></trkpt><trkpt lat="46.131244206472815" lon="9.361508723216026"><ele>218.0</ele><time>2026-05-02T12:07:21.987Z</time></trkpt><trkpt lat="46.13131756246698" lon="9.36170889828506"><ele>218.0</ele><time>2026-05-02T12:07:22.987Z</time></trkpt><trkpt lat="46.131390768967535" lon="9.361908322062787"><ele>218.0</ele><time>2026-05-02T12:07:23.987Z</time></trkpt><trkpt lat="46.131462374343535" lon="9.362111700091829"><ele>218.66666666666669</ele><time>2026-05-02T12:07:24.987Z</time></trkpt><trkpt lat="46.13153260938796" lon="9.362317219099761"><ele>219.33333333333331</ele><time>2026-05-02T12:07:25.987Z</time></trkpt><trkpt lat="46.13160605068889" lon="9.362521167583347"><ele>220.0</ele><time>2026-05-02T12:07:26.987Z</time></trkpt><trkpt lat="46.13167763730353" lon="9.362724344271747"><ele>218.25</ele><time>2026-05-02T12:07:27.987Z</time></trkpt><trkpt lat="46.131747768747736" lon="9.362921217666107"><ele>216.5</ele><time>2026-05-02T12:07:28.987Z</time></trkpt><trkpt lat="46.13181241182559" lon="9.363108075218847"><ele>214.75</ele><time>2026-05-02T12:07:29.987Z</time></trkpt><trkpt lat="46.13187131140299" lon="9.363273804095206"><ele>213.0</ele><time>2026-05-02T12:07:30.988Z</time></trkpt><trkpt lat="46.13192875779999" lon="9.363431096510032"><ele>213.0</ele><time>2026-05-02T12:07:31.988Z</time></trkpt><trkpt lat="46.131987310148595" lon="9.363593987420984"><ele>213.0</ele><time>2026-05-02T12:07:32.988Z</time></trkpt><trkpt lat="46.1320463731815" lon="9.363754934103108"><ele>213.0</ele><time>2026-05-02T12:07:33.988Z</time></trkpt><trkpt lat="46.132099318635426" lon="9.363907229074245"><ele>213.0</ele><time>2026-05-02T12:07:34.988Z</time></trkpt><trkpt lat="46.13214756259399" lon="9.364045740067638"><ele>213.66666666666666</ele><time>2026-05-02T12:07:35.988Z</time></trkpt><trkpt lat="46.13219003194708" lon="9.364170802955584"><ele>214.33333333333331</ele><time>2026-05-02T12:07:36.988Z</time></trkpt><trkpt lat="46.132228767337274" lon="9.364282934437774"><ele>215.0</ele><time>2026-05-02T12:07:37.988Z</time></trkpt><trkpt lat="46.132261888446074" lon="9.364392182821843"><ele>215.66666666666666</ele><time>2026-05-02T12:07:38.988Z</time></trkpt><trkpt lat="46.132291587471414" lon="9.364501146515106"><ele>216.33333333333331</ele><time>2026-05-02T12:07:39.988Z</time></trkpt><trkpt lat="46.13231294228276" lon="9.364609207927252"><ele>217.0</ele><time>2026-05-02T12:07:40.988Z</time></trkpt><trkpt lat="46.13233505112424" lon="9.364736397480641"><ele>216.6</ele><time>2026-05-02T12:07:41.988Z</time></trkpt><trkpt lat="46.13240970594052" lon="9.36484550921016"><ele>216.2</ele><time>2026-05-02T12:07:42.988Z</time></trkpt><trkpt lat="46.13247113328435" lon="9.364969282276993"><ele>215.8</ele><time>2026-05-02T12:07:43.988Z</time></trkpt><trkpt lat="46.13253110351424" lon="9.365107619877223"><ele>215.4</ele><time>2026-05-02T12:07:44.988Z</time></trkpt><trkpt lat="46.132585279568254" lon="9.365250567907545"><ele>215.0</ele><time>2026-05-02T12:07:45.988Z</time></trkpt><trkpt lat="46.132638825026305" lon="9.365399891848744"><ele>215.25</ele><time>2026-05-02T12:07:46.988Z</time></trkpt><trkpt lat="46.132694539609574" lon="9.365552701522823"><ele>215.5</ele><time>2026-05-02T12:07:47.988Z</time></trkpt><trkpt lat="46.13274795007557" lon="9.365700350945401"><ele>215.75</ele><time>2026-05-02T12:07:48.988Z</time></trkpt><trkpt lat="46.132798252197325" lon="9.365845394938626"><ele>216.0</ele><time>2026-05-02T12:07:49.988Z</time></trkpt><trkpt lat="46.132850135457375" lon="9.365984441395268"><ele>216.0</ele><time>2026-05-02T12:07:50.988Z</time></trkpt><trkpt lat="46.132901686811685" lon="9.366123470209272"><ele>216.00000000000003</ele><time>2026-05-02T12:07:51.988Z</time></trkpt><trkpt lat="46.132925948792625" lon="9.366270880351033"><ele>216.00000000000003</ele><time>2026-05-02T12:07:52.988Z</time></trkpt><trkpt lat="46.132979914589775" lon="9.366395544672907"><ele>216.0</ele><time>2026-05-02T12:07:53.988Z</time></trkpt><trkpt lat="46.13303573555388" lon="9.366522861551488"><ele>216.0</ele><time>2026-05-02T12:07:54.988Z</time></trkpt><trkpt lat="46.1330933349892" lon="9.366644531765273"><ele>215.8</ele><time>2026-05-02T12:07:55.988Z</time></trkpt><trkpt lat="46.1331594934325" lon="9.36675836820379"><ele>215.60000000000002</ele><time>2026-05-02T12:07:56.988Z</time></trkpt><trkpt lat="46.13322657442649" lon="9.366873114650502"><ele>215.4</ele><time>2026-05-02T12:07:57.988Z</time></trkpt><trkpt lat="46.1332926533617" lon="9.366984473005978"><ele>215.2</ele><time>2026-05-02T12:07:58.988Z</time></trkpt><trkpt lat="46.133360862515794" lon="9.367100388308412"><ele>215.0</ele><time>2026-05-02T12:07:59.988Z</time></trkpt><trkpt lat="46.133437931573035" lon="9.367215721030659"><ele>215.5</ele><time>2026-05-02T12:08:00.988Z</time></trkpt><trkpt lat="46.133515352204434" lon="9.367333043944557"><ele>216.0</ele><time>2026-05-02T12:08:01.988Z</time></trkpt><trkpt lat="46.133594299698665" lon="9.367454865093038"><ele>216.5</ele><time>2026-05-02T12:08:02.988Z</time></trkpt><trkpt lat="46.13367098004992" lon="9.36757832001229"><ele>217.0</ele><time>2026-05-02T12:08:03.988Z</time></trkpt><trkpt lat="46.13374379892321" lon="9.367700031576462"><ele>217.0</ele><time>2026-05-02T12:08:04.988Z</time></trkpt><trkpt lat="46.13381916735106" lon="9.367817782404416"><ele>217.0</ele><time>2026-05-02T12:08:05.988Z</time></trkpt><trkpt lat="46.133893418254644" lon="9.367930008332143"><ele>217.0</ele><time>2026-05-02T12:08:06.988Z</time></trkpt><trkpt lat="46.13397021649572" lon="9.36804461351451"><ele>217.0</ele><time>2026-05-02T12:08:07.988Z</time></trkpt><trkpt lat="46.13405127102976" lon="9.368165627800467"><ele>217.0</ele><time>2026-05-02T12:08:08.988Z</time></trkpt><trkpt lat="46.13413707561798" lon="9.368293941665877"><ele>217.0</ele><time>2026-05-02T12:08:09.988Z</time></trkpt><trkpt lat="46.134213251012234" lon="9.368413688035538"><ele>217.0</ele><time>2026-05-02T12:08:10.988Z</time></trkpt><trkpt lat="46.134285662181696" lon="9.368529700482108"><ele>217.0</ele><time>2026-05-02T12:08:11.988Z</time></trkpt><trkpt lat="46.13435817607417" lon="9.368642286169312"><ele>217.0</ele><time>2026-05-02T12:08:12.988Z</time></trkpt><trkpt lat="46.134432069117196" lon="9.368760378200436"><ele>217.0</ele><time>2026-05-02T12:08:13.988Z</time></trkpt><trkpt lat="46.13450764503445" lon="9.368884298387638"><ele>217.0</ele><time>2026-05-02T12:08:14.985Z</time></trkpt><trkpt lat="46.134583641236524" lon="9.369014723189236"><ele>217.0</ele><time>2026-05-02T12:08:15.985Z</time></trkpt><trkpt lat="46.13465694787484" lon="9.369143142658897"><ele>217.0</ele><time>2026-05-02T12:08:16.985Z</time></trkpt><trkpt lat="46.13471675209062" lon="9.3692595592804"><ele>217.0</ele><time>2026-05-02T12:08:17.985Z</time></trkpt><trkpt lat="46.13477687523691" lon="9.36936339106591"><ele>217.0</ele><time>2026-05-02T12:08:18.986Z</time></trkpt><trkpt lat="46.13482907979679" lon="9.369461961657926"><ele>217.0</ele><time>2026-05-02T12:08:19.986Z</time></trkpt><trkpt lat="46.13487395553275" lon="9.369547909323623"><ele>217.0</ele><time>2026-05-02T12:08:20.985Z</time></trkpt><trkpt lat="46.13494626973844" lon="9.369687363225722"><ele>217.0</ele><time>2026-05-02T12:08:22.985Z</time></trkpt><trkpt lat="46.135009741008155" lon="9.369833023448871"><ele>217.0</ele><time>2026-05-02T12:08:24.985Z</time></trkpt><trkpt lat="46.135049201319504" lon="9.36990836869052"><ele>217.0</ele><time>2026-05-02T12:08:25.985Z</time></trkpt><trkpt lat="46.13509412002696" lon="9.369988768769145"><ele>216.71428571428572</ele><time>2026-05-02T12:08:26.984Z</time></trkpt><trkpt lat="46.135138833856594" lon="9.37007711364781"><ele>216.42857142857144</ele><time>2026-05-02T12:08:27.985Z</time></trkpt><trkpt lat="46.135186124651376" lon="9.370173159745162"><ele>216.14285714285714</ele><time>2026-05-02T12:08:28.985Z</time></trkpt><trkpt lat="46.13522922782507" lon="9.370264827244764"><ele>215.85714285714286</ele><time>2026-05-02T12:08:29.985Z</time></trkpt><trkpt lat="46.13527097069228" lon="9.370348950533703"><ele>215.57142857142858</ele><time>2026-05-02T12:08:30.985Z</time></trkpt><trkpt lat="46.13530868821002" lon="9.370431170808311"><ele>215.28571428571428</ele><time>2026-05-02T12:08:31.985Z</time></trkpt><trkpt lat="46.13534576103891" lon="9.370506169326262"><ele>215.0</ele><time>2026-05-02T12:08:32.985Z</time></trkpt><trkpt lat="46.135386153177414" lon="9.370582087948893"><ele>215.0</ele><time>2026-05-02T12:08:33.985Z</time></trkpt><trkpt lat="46.1354275149325" lon="9.370745622586359"><ele>215.0</ele><time>2026-05-02T12:08:35.984Z</time></trkpt><trkpt lat="46.135498831479744" lon="9.370866979495862"><ele>215.0</ele><time>2026-05-02T12:08:37.984Z</time></trkpt><trkpt lat="46.13554743536364" lon="9.371009482017078"><ele>215.0</ele><time>2026-05-02T12:08:39.984Z</time></trkpt><trkpt lat="46.135609107094815" lon="9.371143520298315"><ele>215.0</ele><time>2026-05-02T12:08:41.984Z</time></trkpt><trkpt lat="46.135675014174105" lon="9.371286763927834"><ele>215.0</ele><time>2026-05-02T12:08:43.983Z</time></trkpt><trkpt lat="46.13573535392268" lon="9.371418969608236"><ele>215.0</ele><time>2026-05-02T12:08:45.983Z</time></trkpt><trkpt lat="46.1358122777917" lon="9.371551353108332"><ele>215.0</ele><time>2026-05-02T12:08:47.983Z</time></trkpt><trkpt lat="46.13585612647308" lon="9.371684295947883"><ele>214.66666666666669</ele><time>2026-05-02T12:08:49.983Z</time></trkpt><trkpt lat="46.135904334065934" lon="9.37178236957928"><ele>214.33333333333334</ele><time>2026-05-02T12:08:51.983Z</time></trkpt><trkpt lat="46.1359535091862" lon="9.371884363174871"><ele>214.0</ele><time>2026-05-02T12:08:53.983Z</time></trkpt><trkpt lat="46.13598542032832" lon="9.371982961284134"><ele>213.66666666666669</ele><time>2026-05-02T12:08:54.983Z</time></trkpt><trkpt lat="46.136023993799206" lon="9.372073383683837"><ele>213.33333333333334</ele><time>2026-05-02T12:08:55.983Z</time></trkpt><trkpt lat="46.13607025329514" lon="9.372181333572321"><ele>213.0</ele><time>2026-05-02T12:08:56.983Z</time></trkpt><trkpt lat="46.13611661692433" lon="9.372289526909306"><ele>213.0</ele><time>2026-05-02T12:08:57.983Z</time></trkpt><trkpt lat="46.136177052642076" lon="9.372390486843832"><ele>213.0</ele><time>2026-05-02T12:08:58.983Z</time></trkpt><trkpt lat="46.136219771461846" lon="9.372517388450914"><ele>213.0</ele><time>2026-05-02T12:08:59.983Z</time></trkpt><trkpt lat="46.136274855720856" lon="9.372642136077788"><ele>213.0</ele><time>2026-05-02T12:09:00.983Z</time></trkpt><trkpt lat="46.136330923981724" lon="9.372755465325717"><ele>213.0</ele><time>2026-05-02T12:09:01.983Z</time></trkpt><trkpt lat="46.13638973215519" lon="9.372870254148905"><ele>213.0</ele><time>2026-05-02T12:09:02.983Z</time></trkpt><trkpt lat="46.13644613725154" lon="9.372982722153967"><ele>213.0</ele><time>2026-05-02T12:09:03.983Z</time></trkpt><trkpt lat="46.136502849865195" lon="9.373086986592757"><ele>213.0</ele><time>2026-05-02T12:09:04.983Z</time></trkpt><trkpt lat="46.136556063409586" lon="9.373191590554548"><ele>213.0</ele><time>2026-05-02T12:09:05.983Z</time></trkpt><trkpt lat="46.1366122401746" lon="9.373294894676334"><ele>213.0</ele><time>2026-05-02T12:09:06.983Z</time></trkpt><trkpt lat="46.136667864685855" lon="9.373398495217751"><ele>212.8</ele><time>2026-05-02T12:09:07.983Z</time></trkpt><trkpt lat="46.13672533977599" lon="9.373497048420809"><ele>212.60000000000002</ele><time>2026-05-02T12:09:08.983Z</time></trkpt><trkpt lat="46.13675230714489" lon="9.373643610665056"><ele>212.39999999999998</ele><time>2026-05-02T12:09:09.983Z</time></trkpt><trkpt lat="46.13680936361103" lon="9.373761702097779"><ele>212.2</ele><time>2026-05-02T12:09:10.983Z</time></trkpt><trkpt lat="46.13687017250217" lon="9.373877618350155"><ele>212.0</ele><time>2026-05-02T12:09:11.983Z</time></trkpt><trkpt lat="46.13693954941904" lon="9.373992609512177"><ele>212.39999999999998</ele><time>2026-05-02T12:09:12.983Z</time></trkpt><trkpt lat="46.1370096505041" lon="9.37410715125307"><ele>212.79999999999998</ele><time>2026-05-02T12:09:13.983Z</time></trkpt><trkpt lat="46.13706938535379" lon="9.374229273568531"><ele>213.2</ele><time>2026-05-02T12:09:14.983Z</time></trkpt><trkpt lat="46.13712636163612" lon="9.374346714345238"><ele>213.6</ele><time>2026-05-02T12:09:15.983Z</time></trkpt><trkpt lat="46.13717570146427" lon="9.374461076307457"><ele>214.0</ele><time>2026-05-02T12:09:16.983Z</time></trkpt><trkpt lat="46.13723203556778" lon="9.374573656516437"><ele>213.99999999999997</ele><time>2026-05-02T12:09:17.983Z</time></trkpt><trkpt lat="46.13728591233058" lon="9.374675462591593"><ele>214.0</ele><time>2026-05-02T12:09:18.983Z</time></trkpt><trkpt lat="46.137326108873424" lon="9.37476610870996"><ele>214.0</ele><time>2026-05-02T12:09:19.983Z</time></trkpt><trkpt lat="46.13738250505136" lon="9.374864913402819"><ele>214.0</ele><time>2026-05-02T12:09:21.983Z</time></trkpt><trkpt lat="46.13744287323904" lon="9.374928296722988"><ele>213.99999999999997</ele><time>2026-05-02T12:09:24.983Z</time></trkpt><trkpt lat="46.13748757880579" lon="9.375025994356992"><ele>214.0</ele><time>2026-05-02T12:09:26.983Z</time></trkpt><trkpt lat="46.1375672180588" lon="9.375163989508604"><ele>213.6</ele><time>2026-05-02T12:09:28.983Z</time></trkpt><trkpt lat="46.13753791366314" lon="9.375297522260503"><ele>213.2</ele><time>2026-05-02T12:09:29.983Z</time></trkpt><trkpt lat="46.13763639663104" lon="9.375328487961161"><ele>212.79999999999998</ele><time>2026-05-02T12:09:30.983Z</time></trkpt><trkpt lat="46.137685772823616" lon="9.37543123833378"><ele>212.39999999999998</ele><time>2026-05-02T12:09:31.983Z</time></trkpt><trkpt lat="46.137735298930885" lon="9.375542648754024"><ele>212.0</ele><time>2026-05-02T12:09:32.983Z</time></trkpt><trkpt lat="46.13778832816186" lon="9.375663979220015"><ele>212.0</ele><time>2026-05-02T12:09:33.983Z</time></trkpt><trkpt lat="46.13785880808986" lon="9.37578794809398"><ele>212.0</ele><time>2026-05-02T12:09:34.983Z</time></trkpt><trkpt lat="46.137919729470475" lon="9.375920336881439"><ele>212.0</ele><time>2026-05-02T12:09:35.983Z</time></trkpt><trkpt lat="46.1379806514374" lon="9.376057389718104"><ele>212.0</ele><time>2026-05-02T12:09:36.983Z</time></trkpt><trkpt lat="46.13806099901889" lon="9.376210353699623"><ele>212.25</ele><time>2026-05-02T12:09:37.983Z</time></trkpt><trkpt lat="46.138139350591366" lon="9.37636036290571"><ele>212.5</ele><time>2026-05-02T12:09:38.983Z</time></trkpt><trkpt lat="46.138204970939015" lon="9.37651323191829"><ele>212.75</ele><time>2026-05-02T12:09:39.983Z</time></trkpt><trkpt lat="46.13827363321623" lon="9.376674551242584"><ele>213.0</ele><time>2026-05-02T12:09:40.983Z</time></trkpt><trkpt lat="46.13834250980069" lon="9.376837761422744"><ele>212.5</ele><time>2026-05-02T12:09:41.983Z</time></trkpt><trkpt lat="46.13841269527985" lon="9.377001794203776"><ele>212.0</ele><time>2026-05-02T12:09:42.983Z</time></trkpt><trkpt lat="46.13848220973304" lon="9.377176620647129"><ele>211.5</ele><time>2026-05-02T12:09:43.983Z</time></trkpt><trkpt lat="46.13855536184162" lon="9.377354111646765"><ele>211.0</ele><time>2026-05-02T12:09:44.983Z</time></trkpt><trkpt lat="46.138559976321396" lon="9.377600488760914"><ele>211.0</ele><time>2026-05-02T12:09:45.983Z</time></trkpt><trkpt lat="46.13870265206849" lon="9.377712860082653"><ele>211.0</ele><time>2026-05-02T12:09:46.983Z</time></trkpt><trkpt lat="46.138771346156076" lon="9.3778875108206"><ele>211.0</ele><time>2026-05-02T12:09:47.983Z</time></trkpt><trkpt lat="46.138848660138954" lon="9.378065660947971"><ele>211.0</ele><time>2026-05-02T12:09:48.983Z</time></trkpt><trkpt lat="46.13892274190629" lon="9.378245960044858"><ele>211.0</ele><time>2026-05-02T12:09:49.983Z</time></trkpt><trkpt lat="46.138991109366565" lon="9.378432693023973"><ele>211.0</ele><time>2026-05-02T12:09:50.983Z</time></trkpt><trkpt lat="46.13905477373308" lon="9.37862295961967"><ele>211.0</ele><time>2026-05-02T12:09:51.983Z</time></trkpt><trkpt lat="46.13911423784305" lon="9.37881410598747"><ele>211.0</ele><time>2026-05-02T12:09:52.983Z</time></trkpt><trkpt lat="46.1391680470284" lon="9.37900890136623"><ele>211.0</ele><time>2026-05-02T12:09:53.983Z</time></trkpt><trkpt lat="46.13921285665188" lon="9.379194453283501"><ele>211.0</ele><time>2026-05-02T12:09:54.983Z</time></trkpt><trkpt lat="46.139188379136435" lon="9.37938973838233"><ele>211.0</ele><time>2026-05-02T12:09:55.983Z</time></trkpt><trkpt lat="46.139218994991474" lon="9.379557973647088"><ele>211.0</ele><time>2026-05-02T12:09:56.983Z</time></trkpt><trkpt lat="46.13929181244296" lon="9.379716239502105"><ele>211.5</ele><time>2026-05-02T12:09:57.983Z</time></trkpt><trkpt lat="46.13930774921596" lon="9.37989864528203"><ele>212.0</ele><time>2026-05-02T12:09:58.983Z</time></trkpt><trkpt lat="46.139320645792935" lon="9.380084899353216"><ele>212.5</ele><time>2026-05-02T12:09:59.983Z</time></trkpt><trkpt lat="46.13933314047047" lon="9.380273585724572"><ele>213.0</ele><time>2026-05-02T12:10:00.983Z</time></trkpt><trkpt lat="46.13935231775422" lon="9.380463597977581"><ele>213.75</ele><time>2026-05-02T12:10:01.983Z</time></trkpt><trkpt lat="46.139324329682246" lon="9.380647269073485"><ele>214.5</ele><time>2026-05-02T12:10:02.983Z</time></trkpt><trkpt lat="46.13933679191351" lon="9.380832522250813"><ele>215.25</ele><time>2026-05-02T12:10:03.983Z</time></trkpt><trkpt lat="46.13934864338506" lon="9.381013488588298"><ele>216.0</ele><time>2026-05-02T12:10:04.983Z</time></trkpt><trkpt lat="46.13935963942847" lon="9.381181392693554"><ele>216.5</ele><time>2026-05-02T12:10:05.983Z</time></trkpt><trkpt lat="46.13937062001235" lon="9.38134906102503"><ele>217.0</ele><time>2026-05-02T12:10:06.983Z</time></trkpt><trkpt lat="46.13938173036282" lon="9.381518710421851"><ele>217.5</ele><time>2026-05-02T12:10:07.983Z</time></trkpt><trkpt lat="46.13939240117496" lon="9.381681648698319"><ele>218.0</ele><time>2026-05-02T12:10:08.983Z</time></trkpt><trkpt lat="46.139417669460165" lon="9.381841173031868"><ele>218.0</ele><time>2026-05-02T12:10:09.983Z</time></trkpt><trkpt lat="46.13941366795761" lon="9.382012500614076"><ele>218.0</ele><time>2026-05-02T12:10:10.983Z</time></trkpt><trkpt lat="46.139421363604555" lon="9.382182540943774"><ele>218.0</ele><time>2026-05-02T12:10:11.983Z</time></trkpt><trkpt lat="46.139434286532364" lon="9.382354678053906"><ele>218.0</ele><time>2026-05-02T12:10:12.983Z</time></trkpt><trkpt lat="46.13945284403177" lon="9.38252690949491"><ele>218.25</ele><time>2026-05-02T12:10:13.983Z</time></trkpt><trkpt lat="46.139470069018294" lon="9.382698904982421"><ele>218.5</ele><time>2026-05-02T12:10:14.983Z</time></trkpt><trkpt lat="46.139482645479376" lon="9.382868301678313"><ele>218.75</ele><time>2026-05-02T12:10:15.983Z</time></trkpt><trkpt lat="46.1394927974792" lon="9.383039392578866"><ele>219.0</ele><time>2026-05-02T12:10:16.983Z</time></trkpt><trkpt lat="46.13950325966874" lon="9.383207028713006"><ele>219.16666666666666</ele><time>2026-05-02T12:10:17.983Z</time></trkpt><trkpt lat="46.13949094329533" lon="9.383370254557072"><ele>219.33333333333331</ele><time>2026-05-02T12:10:18.983Z</time></trkpt><trkpt lat="46.139499855390525" lon="9.383514395905234"><ele>219.5</ele><time>2026-05-02T12:10:19.983Z</time></trkpt><trkpt lat="46.13951080816153" lon="9.383639004131393"><ele>219.66666666666666</ele><time>2026-05-02T12:10:20.98Z</time></trkpt><trkpt lat="46.13952008522268" lon="9.383748599000722"><ele>219.83333333333331</ele><time>2026-05-02T12:10:21.98Z</time></trkpt><trkpt lat="46.13952374806828" lon="9.383842609057183"><ele>220.0</ele><time>2026-05-02T12:10:22.98Z</time></trkpt><trkpt lat="46.139496125406154" lon="9.384028707054958"><ele>219.99999999999997</ele><time>2026-05-02T12:10:24.981Z</time></trkpt><trkpt lat="46.13949765748516" lon="9.384128600095778"><ele>220.0</ele><time>2026-05-02T12:10:25.981Z</time></trkpt><trkpt lat="46.139519596078365" lon="9.384227214383815"><ele>220.0</ele><time>2026-05-02T12:10:26.981Z</time></trkpt><trkpt lat="46.13955118210222" lon="9.384324955881747"><ele>220.0</ele><time>2026-05-02T12:10:27.98Z</time></trkpt><trkpt lat="46.13958082499515" lon="9.384428065095044"><ele>219.99999999999997</ele><time>2026-05-02T12:10:28.981Z</time></trkpt><trkpt lat="46.13959532348792" lon="9.38455270544043"><ele>220.0</ele><time>2026-05-02T12:10:29.981Z</time></trkpt><trkpt lat="46.13959226839044" lon="9.384685523856438"><ele>220.0</ele><time>2026-05-02T12:10:30.981Z</time></trkpt><trkpt lat="46.13960173256021" lon="9.384827559963872"><ele>220.0</ele><time>2026-05-02T12:10:31.981Z</time></trkpt><trkpt lat="46.139611265773176" lon="9.384970632451395"><ele>220.0</ele><time>2026-05-02T12:10:32.981Z</time></trkpt><trkpt lat="46.139621602082215" lon="9.385125757607213"><ele>220.0</ele><time>2026-05-02T12:10:33.98Z</time></trkpt><trkpt lat="46.13963240246852" lon="9.38528784744707"><ele>220.0</ele><time>2026-05-02T12:10:34.98Z</time></trkpt><trkpt lat="46.13964369696401" lon="9.385457352781412"><ele>220.25</ele><time>2026-05-02T12:10:35.98Z</time></trkpt><trkpt lat="46.13965543319332" lon="9.385633487577934"><ele>220.5</ele><time>2026-05-02T12:10:36.98Z</time></trkpt><trkpt lat="46.13966738871792" lon="9.385812913482978"><ele>220.75</ele><time>2026-05-02T12:10:37.98Z</time></trkpt><trkpt lat="46.13967966229755" lon="9.385997112732625"><ele>221.0</ele><time>2026-05-02T12:10:38.98Z</time></trkpt><trkpt lat="46.139691998135184" lon="9.386182246341475"><ele>221.0</ele><time>2026-05-02T12:10:39.98Z</time></trkpt><trkpt lat="46.13970397252508" lon="9.386361955336733"><ele>221.0</ele><time>2026-05-02T12:10:40.98Z</time></trkpt><trkpt lat="46.139715758182845" lon="9.386538832011574"><ele>221.0</ele><time>2026-05-02T12:10:41.98Z</time></trkpt><trkpt lat="46.139727134025435" lon="9.386714702356715"><ele>221.0</ele><time>2026-05-02T12:10:42.98Z</time></trkpt><trkpt lat="46.13973869949828" lon="9.38689631094951"><ele>221.0</ele><time>2026-05-02T12:10:43.98Z</time></trkpt><trkpt lat="46.13977690813857" lon="9.387077498278058"><ele>221.0</ele><time>2026-05-02T12:10:44.98Z</time></trkpt><trkpt lat="46.13979844729636" lon="9.387274930977796"><ele>221.0</ele><time>2026-05-02T12:10:45.98Z</time></trkpt><trkpt lat="46.139817294594984" lon="9.38747353767913"><ele>221.0</ele><time>2026-05-02T12:10:46.98Z</time></trkpt><trkpt lat="46.13983386179311" lon="9.387679558170884"><ele>220.75</ele><time>2026-05-02T12:10:47.98Z</time></trkpt><trkpt lat="46.139851949751076" lon="9.38788473889309"><ele>220.5</ele><time>2026-05-02T12:10:48.98Z</time></trkpt><trkpt lat="46.13981775708582" lon="9.388090828879092"><ele>220.25</ele><time>2026-05-02T12:10:49.98Z</time></trkpt><trkpt lat="46.13983039106242" lon="9.3882895982595"><ele>220.0</ele><time>2026-05-02T12:10:50.98Z</time></trkpt><trkpt lat="46.13984292657402" lon="9.388485066679822"><ele>220.0</ele><time>2026-05-02T12:10:51.98Z</time></trkpt><trkpt lat="46.13985523858738" lon="9.388677051698858"><ele>220.0</ele><time>2026-05-02T12:10:52.98Z</time></trkpt><trkpt lat="46.13986842400578" lon="9.388874365604439"><ele>220.0</ele><time>2026-05-02T12:10:53.98Z</time></trkpt><trkpt lat="46.139881823659266" lon="9.38907665805332"><ele>220.0</ele><time>2026-05-02T12:10:54.98Z</time></trkpt><trkpt lat="46.13989504130952" lon="9.389279629128767"><ele>219.5</ele><time>2026-05-02T12:10:55.98Z</time></trkpt><trkpt lat="46.13997518913259" lon="9.38946876424957"><ele>219.0</ele><time>2026-05-02T12:10:56.981Z</time></trkpt><trkpt lat="46.139983817256685" lon="9.389659756918606"><ele>218.5</ele><time>2026-05-02T12:10:57.981Z</time></trkpt><trkpt lat="46.13999772927546" lon="9.389842072096815"><ele>218.0</ele><time>2026-05-02T12:10:58.981Z</time></trkpt><trkpt lat="46.14002059225929" lon="9.390019456636114"><ele>218.0</ele><time>2026-05-02T12:10:59.981Z</time></trkpt><trkpt lat="46.14004028971632" lon="9.39019279448021"><ele>218.0</ele><time>2026-05-02T12:11:00.981Z</time></trkpt><trkpt lat="46.13996613539971" lon="9.390372151301559"><ele>218.0</ele><time>2026-05-02T12:11:01.981Z</time></trkpt><trkpt lat="46.1399773054372" lon="9.390545216672136"><ele>218.0</ele><time>2026-05-02T12:11:02.981Z</time></trkpt><trkpt lat="46.13998857627102" lon="9.390719783120835"><ele>218.25</ele><time>2026-05-02T12:11:03.981Z</time></trkpt><trkpt lat="46.13999926195519" lon="9.390899833744488"><ele>218.5</ele><time>2026-05-02T12:11:04.981Z</time></trkpt><trkpt lat="46.14001047249435" lon="9.39108616990485"><ele>218.75</ele><time>2026-05-02T12:11:05.981Z</time></trkpt><trkpt lat="46.14001875924137" lon="9.391271469742964"><ele>219.0</ele><time>2026-05-02T12:11:06.981Z</time></trkpt><trkpt lat="46.14002589979208" lon="9.391457921910298"><ele>219.0</ele><time>2026-05-02T12:11:07.981Z</time></trkpt><trkpt lat="46.14003236497768" lon="9.391640687737215"><ele>219.0</ele><time>2026-05-02T12:11:08.981Z</time></trkpt><trkpt lat="46.140037288750634" lon="9.39181802308095"><ele>219.0</ele><time>2026-05-02T12:11:09.981Z</time></trkpt><trkpt lat="46.14004146137891" lon="9.391999195784129"><ele>219.0</ele><time>2026-05-02T12:11:10.981Z</time></trkpt><trkpt lat="46.1400456206648" lon="9.392179791269758"><ele>219.0</ele><time>2026-05-02T12:11:11.981Z</time></trkpt><trkpt lat="46.140049904910555" lon="9.392357976276092"><ele>219.0</ele><time>2026-05-02T12:11:12.981Z</time></trkpt><trkpt lat="46.14005347208337" lon="9.392532704235483"><ele>219.0</ele><time>2026-05-02T12:11:13.981Z</time></trkpt><trkpt lat="46.140057199518374" lon="9.392715281893507"><ele>219.0</ele><time>2026-05-02T12:11:14.981Z</time></trkpt><trkpt lat="46.140060589624206" lon="9.39289779587321"><ele>218.75</ele><time>2026-05-02T12:11:15.981Z</time></trkpt><trkpt lat="46.140063075548895" lon="9.39307578825336"><ele>218.5</ele><time>2026-05-02T12:11:16.981Z</time></trkpt><trkpt lat="46.14008118594965" lon="9.393252430819391"><ele>218.25</ele><time>2026-05-02T12:11:17.981Z</time></trkpt><trkpt lat="46.140068785853494" lon="9.393429295337397"><ele>218.0</ele><time>2026-05-02T12:11:18.981Z</time></trkpt><trkpt lat="46.14007099261746" lon="9.393612385336825"><ele>218.0</ele><time>2026-05-02T12:11:19.981Z</time></trkpt><trkpt lat="46.14007643292225" lon="9.393802361243683"><ele>218.0</ele><time>2026-05-02T12:11:20.981Z</time></trkpt><trkpt lat="46.14009253302795" lon="9.393993083352289"><ele>218.0</ele><time>2026-05-02T12:11:21.981Z</time></trkpt><trkpt lat="46.14011585470532" lon="9.394185746083108"><ele>218.0</ele><time>2026-05-02T12:11:22.981Z</time></trkpt><trkpt lat="46.14014768621962" lon="9.394383070491477"><ele>217.25</ele><time>2026-05-02T12:11:23.981Z</time></trkpt><trkpt lat="46.140192548064405" lon="9.39458079640114"><ele>216.5</ele><time>2026-05-02T12:11:24.981Z</time></trkpt><trkpt lat="46.140250346891214" lon="9.394780095925078"><ele>215.75</ele><time>2026-05-02T12:11:25.981Z</time></trkpt><trkpt lat="46.140319606457034" lon="9.394976718949245"><ele>215.0</ele><time>2026-05-02T12:11:26.981Z</time></trkpt><trkpt lat="46.14039771667837" lon="9.39517588207876"><ele>214.33333333333334</ele><time>2026-05-02T12:11:27.981Z</time></trkpt><trkpt lat="46.140479991060616" lon="9.395377292240576"><ele>213.66666666666669</ele><time>2026-05-02T12:11:28.981Z</time></trkpt><trkpt lat="46.14056563957014" lon="9.395586195481906"><ele>213.0</ele><time>2026-05-02T12:11:29.981Z</time></trkpt><trkpt lat="46.140650259095054" lon="9.395793468694958"><ele>211.66666666666669</ele><time>2026-05-02T12:11:30.981Z</time></trkpt><trkpt lat="46.140736720030496" lon="9.396006516732692"><ele>210.33333333333334</ele><time>2026-05-02T12:11:31.981Z</time></trkpt><trkpt lat="46.14081932834993" lon="9.396228423755073"><ele>209.0</ele><time>2026-05-02T12:11:32.981Z</time></trkpt><trkpt lat="46.14090598491306" lon="9.396443775067429"><ele>209.0</ele><time>2026-05-02T12:11:33.981Z</time></trkpt><trkpt lat="46.14099340727298" lon="9.396664974142537"><ele>209.0</ele><time>2026-05-02T12:11:34.981Z</time></trkpt><trkpt lat="46.1410815656459" lon="9.396875241926027"><ele>209.0</ele><time>2026-05-02T12:11:35.981Z</time></trkpt><trkpt lat="46.14116699930518" lon="9.397078228279264"><ele>208.75</ele><time>2026-05-02T12:11:36.981Z</time></trkpt><trkpt lat="46.141245700698605" lon="9.397270395895884"><ele>208.5</ele><time>2026-05-02T12:11:37.981Z</time></trkpt><trkpt lat="46.141316645949736" lon="9.397452422338167"><ele>208.25</ele><time>2026-05-02T12:11:38.981Z</time></trkpt><trkpt lat="46.14138509913587" lon="9.39762538109206"><ele>208.0</ele><time>2026-05-02T12:11:39.981Z</time></trkpt><trkpt lat="46.14144675274513" lon="9.39779118371791"><ele>208.0</ele><time>2026-05-02T12:11:40.981Z</time></trkpt><trkpt lat="46.141498093668545" lon="9.397956368916034"><ele>208.0</ele><time>2026-05-02T12:11:41.981Z</time></trkpt><trkpt lat="46.141540283181484" lon="9.398117284335473"><ele>208.0</ele><time>2026-05-02T12:11:42.981Z</time></trkpt><trkpt lat="46.141570789394244" lon="9.398267223805153"><ele>208.0</ele><time>2026-05-02T12:11:43.981Z</time></trkpt><trkpt lat="46.141593655186696" lon="9.398417991063283"><ele>207.66666666666666</ele><time>2026-05-02T12:11:44.981Z</time></trkpt><trkpt lat="46.141598045746235" lon="9.398561868145988"><ele>207.33333333333331</ele><time>2026-05-02T12:11:45.981Z</time></trkpt><trkpt lat="46.141596266886054" lon="9.398698771735697"><ele>207.0</ele><time>2026-05-02T12:11:46.981Z</time></trkpt><trkpt lat="46.14161567362377" lon="9.398818500704339"><ele>206.66666666666669</ele><time>2026-05-02T12:11:47.981Z</time></trkpt><trkpt lat="46.141665671105805" lon="9.398901190948013"><ele>206.33333333333334</ele><time>2026-05-02T12:11:48.981Z</time></trkpt><trkpt lat="46.14174244660945" lon="9.39895871661057"><ele>206.0</ele><time>2026-05-02T12:11:49.981Z</time></trkpt><trkpt lat="46.141829534890554" lon="9.39901586846835"><ele>205.5</ele><time>2026-05-02T12:11:50.981Z</time></trkpt><trkpt lat="46.1419180780277" lon="9.399113252643991"><ele>205.0</ele><time>2026-05-02T12:11:51.981Z</time></trkpt><trkpt lat="46.141991776244396" lon="9.399246083935548"><ele>204.5</ele><time>2026-05-02T12:11:52.981Z</time></trkpt><trkpt lat="46.14205019290375" lon="9.399420058416487"><ele>204.0</ele><time>2026-05-02T12:11:53.981Z</time></trkpt><trkpt lat="46.14211422604954" lon="9.399602570382845"><ele>203.75</ele><time>2026-05-02T12:11:54.981Z</time></trkpt><trkpt lat="46.14218211202878" lon="9.399777058501268"><ele>203.5</ele><time>2026-05-02T12:11:55.981Z</time></trkpt><trkpt lat="46.14225176588565" lon="9.399957754135245"><ele>203.25</ele><time>2026-05-02T12:11:56.981Z</time></trkpt><trkpt lat="46.14232009134311" lon="9.400144625219738"><ele>203.0</ele><time>2026-05-02T12:11:57.982Z</time></trkpt><trkpt lat="46.142373659635155" lon="9.4003463199032"><ele>203.0</ele><time>2026-05-02T12:11:58.982Z</time></trkpt><trkpt lat="46.14244711426619" lon="9.400541883612892"><ele>203.0</ele><time>2026-05-02T12:11:59.982Z</time></trkpt><trkpt lat="46.14252299247291" lon="9.400741833184433"><ele>203.0</ele><time>2026-05-02T12:12:00.982Z</time></trkpt><trkpt lat="46.14260586552638" lon="9.400950215355182"><ele>203.0</ele><time>2026-05-02T12:12:01.982Z</time></trkpt><trkpt lat="46.1426846225586" lon="9.401158961881473"><ele>203.0</ele><time>2026-05-02T12:12:02.982Z</time></trkpt><trkpt lat="46.14276248750019" lon="9.401371785927946"><ele>203.0</ele><time>2026-05-02T12:12:03.982Z</time></trkpt><trkpt lat="46.14283728134234" lon="9.401585670698994"><ele>202.66666666666669</ele><time>2026-05-02T12:12:04.982Z</time></trkpt><trkpt lat="46.14290739160229" lon="9.401802101009656"><ele>202.33333333333331</ele><time>2026-05-02T12:12:05.982Z</time></trkpt><trkpt lat="46.14297631358516" lon="9.40202131507079"><ele>202.0</ele><time>2026-05-02T12:12:06.982Z</time></trkpt><trkpt lat="46.14303941242843" lon="9.402247037205264"><ele>201.66666666666666</ele><time>2026-05-02T12:12:07.982Z</time></trkpt><trkpt lat="46.143098914894054" lon="9.402476552832216"><ele>201.33333333333331</ele><time>2026-05-02T12:12:08.982Z</time></trkpt><trkpt lat="46.143155650464955" lon="9.402710095014655"><ele>201.0</ele><time>2026-05-02T12:12:09.982Z</time></trkpt><trkpt lat="46.14320986538818" lon="9.402945482114239"><ele>202.0</ele><time>2026-05-02T12:12:10.982Z</time></trkpt><trkpt lat="46.14326168371812" lon="9.403184532376882"><ele>203.0</ele><time>2026-05-02T12:12:11.982Z</time></trkpt><trkpt lat="46.14330557974009" lon="9.403424143696427"><ele>204.0</ele><time>2026-05-02T12:12:12.982Z</time></trkpt><trkpt lat="46.14334321533607" lon="9.40366519739191"><ele>204.33333333333331</ele><time>2026-05-02T12:12:13.982Z</time></trkpt><trkpt lat="46.14337794675985" lon="9.403906472576507"><ele>204.66666666666666</ele><time>2026-05-02T12:12:14.982Z</time></trkpt><trkpt lat="46.143410284087935" lon="9.404147491037643"><ele>205.0</ele><time>2026-05-02T12:12:15.982Z</time></trkpt><trkpt lat="46.14343632702793" lon="9.404385264629514"><ele>205.0</ele><time>2026-05-02T12:12:16.982Z</time></trkpt><trkpt lat="46.1434603370618" lon="9.404624887245594"><ele>205.0</ele><time>2026-05-02T12:12:17.982Z</time></trkpt><trkpt lat="46.1434770147066" lon="9.404871729135623"><ele>205.0</ele><time>2026-05-02T12:12:18.982Z</time></trkpt><trkpt lat="46.14349482215836" lon="9.405116545982695"><ele>204.66666666666666</ele><time>2026-05-02T12:12:19.982Z</time></trkpt><trkpt lat="46.143510199211285" lon="9.405358935961884"><ele>204.33333333333331</ele><time>2026-05-02T12:12:20.982Z</time></trkpt><trkpt lat="46.14352361951456" lon="9.405594408276468"><ele>204.0</ele><time>2026-05-02T12:12:21.982Z</time></trkpt><trkpt lat="46.143534567214694" lon="9.405816397916617"><ele>203.5</ele><time>2026-05-02T12:12:22.982Z</time></trkpt><trkpt lat="46.143546312282254" lon="9.40603406784321"><ele>203.0</ele><time>2026-05-02T12:12:23.982Z</time></trkpt><trkpt lat="46.143557720227456" lon="9.406232132023439"><ele>202.5</ele><time>2026-05-02T12:12:24.982Z</time></trkpt><trkpt lat="46.1435669350633" lon="9.406422271814334"><ele>202.0</ele><time>2026-05-02T12:12:25.982Z</time></trkpt><trkpt lat="46.14357417829793" lon="9.406590913324624"><ele>202.0</ele><time>2026-05-02T12:12:26.979Z</time></trkpt><trkpt lat="46.143587512444256" lon="9.406739564615545"><ele>202.0</ele><time>2026-05-02T12:12:27.979Z</time></trkpt><trkpt lat="46.143607864151285" lon="9.406863198414417"><ele>202.0</ele><time>2026-05-02T12:12:28.979Z</time></trkpt><trkpt lat="46.143623590522935" lon="9.406952465634937"><ele>202.0</ele><time>2026-05-02T12:12:29.98Z</time></trkpt><trkpt lat="46.14364711107953" lon="9.40707250206511"><ele>202.0</ele><time>2026-05-02T12:12:31.979Z</time></trkpt><trkpt lat="46.14366674902032" lon="9.407237819725262"><ele>202.0</ele><time>2026-05-02T12:12:33.979Z</time></trkpt><trkpt lat="46.14365185824962" lon="9.407335234425501"><ele>202.0</ele><time>2026-05-02T12:12:34.979Z</time></trkpt><trkpt lat="46.14366688852076" lon="9.407432374733403"><ele>202.0</ele><time>2026-05-02T12:12:35.979Z</time></trkpt><trkpt lat="46.14370423774629" lon="9.407516050586223"><ele>202.0</ele><time>2026-05-02T12:12:36.979Z</time></trkpt><trkpt lat="46.14383349472644" lon="9.407582341822694"><ele>202.0</ele><time>2026-05-02T12:12:38.979Z</time></trkpt><trkpt lat="46.14395004027833" lon="9.407538789398425"><ele>201.99999999999997</ele><time>2026-05-02T12:12:40.979Z</time></trkpt><trkpt lat="46.143995198669224" lon="9.407468937055036"><ele>202.0</ele><time>2026-05-02T12:12:41.979Z</time></trkpt><trkpt lat="46.14402421455632" lon="9.407379591654902"><ele>202.0</ele><time>2026-05-02T12:12:42.979Z</time></trkpt><trkpt lat="46.14403942166444" lon="9.407278071995771"><ele>202.0</ele><time>2026-05-02T12:12:43.979Z</time></trkpt><trkpt lat="46.14405833751096" lon="9.407184335436053"><ele>201.99999999999997</ele><time>2026-05-02T12:12:44.979Z</time></trkpt><trkpt lat="46.14413811718563" lon="9.407020090382227"><ele>202.0</ele><time>2026-05-02T12:12:46.979Z</time></trkpt><trkpt lat="46.14419661359207" lon="9.406957096786353"><ele>202.0</ele><time>2026-05-02T12:12:47.979Z</time></trkpt><trkpt lat="46.144258582341706" lon="9.406916492587081"><ele>202.0</ele><time>2026-05-02T12:12:48.979Z</time></trkpt><trkpt lat="46.14432449635856" lon="9.406895969347016"><ele>202.0</ele><time>2026-05-02T12:12:49.979Z</time></trkpt><trkpt lat="46.14439746388958" lon="9.406887624408638"><ele>202.0</ele><time>2026-05-02T12:12:50.979Z</time></trkpt><trkpt lat="46.14448018683298" lon="9.406887001783158"><ele>202.0</ele><time>2026-05-02T12:12:51.979Z</time></trkpt><trkpt lat="46.144558798034915" lon="9.40688140473924"><ele>202.0</ele><time>2026-05-02T12:12:52.979Z</time></trkpt><trkpt lat="46.1446335913552" lon="9.406873203091791"><ele>202.0</ele><time>2026-05-02T12:12:53.979Z</time></trkpt><trkpt lat="46.14470205736213" lon="9.406870686812557"><ele>202.0</ele><time>2026-05-02T12:12:54.979Z</time></trkpt><trkpt lat="46.14482215162263" lon="9.406897571698867"><ele>202.0</ele><time>2026-05-02T12:12:56.979Z</time></trkpt><trkpt lat="46.144875477745366" lon="9.406968506167006"><ele>202.0</ele><time>2026-05-02T12:12:57.979Z</time></trkpt><trkpt lat="46.14489168306934" lon="9.4070952112571"><ele>202.0</ele><time>2026-05-02T12:12:58.979Z</time></trkpt><trkpt lat="46.144916520838756" lon="9.407238745689567"><ele>202.0</ele><time>2026-05-02T12:12:59.979Z</time></trkpt><trkpt lat="46.14494039691652" lon="9.407394598353196"><ele>201.75</ele><time>2026-05-02T12:13:00.979Z</time></trkpt><trkpt lat="46.14496973239575" lon="9.40757521548668"><ele>201.5</ele><time>2026-05-02T12:13:01.979Z</time></trkpt><trkpt lat="46.14499974202942" lon="9.407757907230588"><ele>201.25</ele><time>2026-05-02T12:13:02.979Z</time></trkpt><trkpt lat="46.145030046355245" lon="9.407951845805764"><ele>201.0</ele><time>2026-05-02T12:13:03.979Z</time></trkpt><trkpt lat="46.145062212191924" lon="9.408155690539726"><ele>201.0</ele><time>2026-05-02T12:13:04.979Z</time></trkpt><trkpt lat="46.14509194880797" lon="9.408368298823042"><ele>201.0</ele><time>2026-05-02T12:13:05.979Z</time></trkpt><trkpt lat="46.14512404618762" lon="9.408581201714092"><ele>201.0</ele><time>2026-05-02T12:13:06.979Z</time></trkpt><trkpt lat="46.145159242487686" lon="9.408801744806112"><ele>201.0</ele><time>2026-05-02T12:13:07.979Z</time></trkpt><trkpt lat="46.1451941585533" lon="9.4090278690711"><ele>201.0</ele><time>2026-05-02T12:13:08.98Z</time></trkpt><trkpt lat="46.145232807160916" lon="9.409256293259082"><ele>201.0</ele><time>2026-05-02T12:13:09.98Z</time></trkpt><trkpt lat="46.14526855510047" lon="9.409488165422646"><ele>201.0</ele><time>2026-05-02T12:13:10.98Z</time></trkpt><trkpt lat="46.14529965369013" lon="9.40972298527869"><ele>201.0</ele><time>2026-05-02T12:13:11.98Z</time></trkpt><trkpt lat="46.145324115820195" lon="9.409959688261667"><ele>201.0</ele><time>2026-05-02T12:13:12.98Z</time></trkpt><trkpt lat="46.14534110263758" lon="9.410197830169402"><ele>201.0</ele><time>2026-05-02T12:13:13.98Z</time></trkpt><trkpt lat="46.145353703719" lon="9.41043508489332"><ele>201.0</ele><time>2026-05-02T12:13:14.98Z</time></trkpt><trkpt lat="46.145360495066484" lon="9.410666928977399"><ele>201.0</ele><time>2026-05-02T12:13:15.98Z</time></trkpt><trkpt lat="46.14536588689326" lon="9.410895828173356"><ele>201.0</ele><time>2026-05-02T12:13:16.98Z</time></trkpt><trkpt lat="46.14537020672719" lon="9.411115643190456"><ele>201.0</ele><time>2026-05-02T12:13:17.98Z</time></trkpt><trkpt lat="46.14537296341664" lon="9.411305050098873"><ele>201.0</ele><time>2026-05-02T12:13:18.98Z</time></trkpt><trkpt lat="46.145372198542624" lon="9.411464553265986"><ele>201.0</ele><time>2026-05-02T12:13:19.98Z</time></trkpt><trkpt lat="46.14536707279656" lon="9.411588508839131"><ele>201.4</ele><time>2026-05-02T12:13:20.98Z</time></trkpt><trkpt lat="46.14536116031672" lon="9.411681345309946"><ele>201.8</ele><time>2026-05-02T12:13:21.98Z</time></trkpt><trkpt lat="46.145352489492204" lon="9.411781624861211"><ele>202.20000000000002</ele><time>2026-05-02T12:13:24.98Z</time></trkpt><trkpt lat="46.14544014054195" lon="9.411854597083627"><ele>202.60000000000002</ele><time>2026-05-02T12:13:28.98Z</time></trkpt><trkpt lat="46.14554661040604" lon="9.411820801164158"><ele>203.0</ele><time>2026-05-02T12:13:30.98Z</time></trkpt><trkpt lat="46.14567230091534" lon="9.411816786951938"><ele>203.0</ele><time>2026-05-02T12:13:32.98Z</time></trkpt><trkpt lat="46.14579253016511" lon="9.411838443161534"><ele>203.0</ele><time>2026-05-02T12:13:34.98Z</time></trkpt><trkpt lat="46.145926087211755" lon="9.411839211101183"><ele>203.0</ele><time>2026-05-02T12:13:36.98Z</time></trkpt><trkpt lat="46.145995591008145" lon="9.411712594833975"><ele>203.0</ele><time>2026-05-02T12:13:37.98Z</time></trkpt><trkpt lat="46.146078756083355" lon="9.411700582190466"><ele>203.0</ele><time>2026-05-02T12:13:38.98Z</time></trkpt><trkpt lat="46.14617228735157" lon="9.411737306978482"><ele>203.0</ele><time>2026-05-02T12:13:39.98Z</time></trkpt><trkpt lat="46.14627005316526" lon="9.411805250085724"><ele>203.0</ele><time>2026-05-02T12:13:40.98Z</time></trkpt><trkpt lat="46.14638506118937" lon="9.411852549644555"><ele>203.0</ele><time>2026-05-02T12:13:41.98Z</time></trkpt><trkpt lat="46.146496741804405" lon="9.411879757375846"><ele>203.0</ele><time>2026-05-02T12:13:42.98Z</time></trkpt><trkpt lat="46.146619958146694" lon="9.411899252634067"><ele>203.4</ele><time>2026-05-02T12:13:43.98Z</time></trkpt><trkpt lat="46.14673707359833" lon="9.411908225357788"><ele>203.8</ele><time>2026-05-02T12:13:44.98Z</time></trkpt><trkpt lat="46.14684794173255" lon="9.41190891428534"><ele>204.2</ele><time>2026-05-02T12:13:45.98Z</time></trkpt><trkpt lat="46.146955746131596" lon="9.411904855663536"><ele>204.6</ele><time>2026-05-02T12:13:46.98Z</time></trkpt><trkpt lat="46.14706098574939" lon="9.411889337286176"><ele>205.0</ele><time>2026-05-02T12:13:47.98Z</time></trkpt><trkpt lat="46.14715502131087" lon="9.411866804896691"><ele>204.99999999999997</ele><time>2026-05-02T12:13:48.98Z</time></trkpt><trkpt lat="46.1472392179611" lon="9.411846106175227"><ele>205.0</ele><time>2026-05-02T12:13:49.98Z</time></trkpt><trkpt lat="46.147314817106796" lon="9.41183464043351"><ele>205.0</ele><time>2026-05-02T12:13:50.98Z</time></trkpt><trkpt lat="46.14737858647306" lon="9.411847028696144"><ele>205.0</ele><time>2026-05-02T12:13:51.98Z</time></trkpt><trkpt lat="46.14744158978664" lon="9.411913930133892"><ele>204.99999999999997</ele><time>2026-05-02T12:13:53.98Z</time></trkpt><trkpt lat="46.147479232849676" lon="9.412025405263625"><ele>205.0</ele><time>2026-05-02T12:13:56.98Z</time></trkpt><trkpt lat="46.147496578987244" lon="9.412146535536497"><ele>205.0</ele><time>2026-05-02T12:14:05.98Z</time></trkpt><trkpt lat="46.14745590569771" lon="9.412280472563813"><ele>205.0</ele><time>2026-05-02T12:14:07.98Z</time></trkpt><trkpt lat="46.147421247122466" lon="9.412357914655233"><ele>205.0</ele><time>2026-05-02T12:14:08.981Z</time></trkpt><trkpt lat="46.14740411401486" lon="9.412449996937038"><ele>205.0</ele><time>2026-05-02T12:14:09.981Z</time></trkpt><trkpt lat="46.14741583368993" lon="9.412555226987985"><ele>205.0</ele><time>2026-05-02T12:14:10.981Z</time></trkpt><trkpt lat="46.1474492854984" lon="9.41264401460047"><ele>205.0</ele><time>2026-05-02T12:14:11.981Z</time></trkpt><trkpt lat="46.14750577758334" lon="9.412708398827405"><ele>205.0</ele><time>2026-05-02T12:14:12.981Z</time></trkpt><trkpt lat="46.147577711399286" lon="9.412749079839301"><ele>204.99999999999997</ele><time>2026-05-02T12:14:13.981Z</time></trkpt><trkpt lat="46.14765267975193" lon="9.41274716657021"><ele>205.0</ele><time>2026-05-02T12:14:14.981Z</time></trkpt><trkpt lat="46.147719880383264" lon="9.412711642897868"><ele>205.0</ele><time>2026-05-02T12:14:15.981Z</time></trkpt><trkpt lat="46.14777851062685" lon="9.412654742446533"><ele>205.0</ele><time>2026-05-02T12:14:16.981Z</time></trkpt><trkpt lat="46.14783364286205" lon="9.412561717604609"><ele>204.99999999999997</ele><time>2026-05-02T12:14:17.981Z</time></trkpt><trkpt lat="46.14788746492926" lon="9.412483256895232"><ele>205.0</ele><time>2026-05-02T12:14:18.981Z</time></trkpt><trkpt lat="46.147961182953544" lon="9.412417514157708"><ele>205.0</ele><time>2026-05-02T12:14:19.981Z</time></trkpt><trkpt lat="46.14804699654494" lon="9.412371023548697"><ele>205.0</ele><time>2026-05-02T12:14:20.981Z</time></trkpt><trkpt lat="46.14813514772513" lon="9.412346127858623"><ele>205.0</ele><time>2026-05-02T12:14:21.981Z</time></trkpt><trkpt lat="46.148226612599146" lon="9.412337580741347"><ele>205.0</ele><time>2026-05-02T12:14:22.981Z</time></trkpt><trkpt lat="46.148328228342685" lon="9.41233014263606"><ele>205.0</ele><time>2026-05-02T12:14:23.981Z</time></trkpt><trkpt lat="46.14843237225652" lon="9.412328765326269"><ele>204.75</ele><time>2026-05-02T12:14:24.981Z</time></trkpt><trkpt lat="46.14854712707679" lon="9.412331960607238"><ele>204.5</ele><time>2026-05-02T12:14:25.981Z</time></trkpt><trkpt lat="46.148663753753866" lon="9.412337768110778"><ele>204.25</ele><time>2026-05-02T12:14:26.981Z</time></trkpt><trkpt lat="46.1487854900604" lon="9.4123482231864"><ele>204.0</ele><time>2026-05-02T12:14:27.981Z</time></trkpt><trkpt lat="46.14890348032076" lon="9.412355458662311"><ele>204.0</ele><time>2026-05-02T12:14:28.981Z</time></trkpt><trkpt lat="46.14902287011895" lon="9.412364164341584"><ele>204.0</ele><time>2026-05-02T12:14:29.981Z</time></trkpt><trkpt lat="46.14914392222512" lon="9.412375611102114"><ele>204.0</ele><time>2026-05-02T12:14:30.981Z</time></trkpt><trkpt lat="46.14925630929854" lon="9.412384273758274"><ele>204.0</ele><time>2026-05-02T12:14:31.981Z</time></trkpt><trkpt lat="46.149364597011775" lon="9.4123944746404"><ele>203.79999999999998</ele><time>2026-05-02T12:14:32.978Z</time></trkpt><trkpt lat="46.14947351858833" lon="9.41240542080309"><ele>203.6</ele><time>2026-05-02T12:14:33.978Z</time></trkpt><trkpt lat="46.149582760907805" lon="9.412411804981762"><ele>203.4</ele><time>2026-05-02T12:14:34.978Z</time></trkpt><trkpt lat="46.149694861394785" lon="9.412418916930383"><ele>203.2</ele><time>2026-05-02T12:14:35.978Z</time></trkpt><trkpt lat="46.149807274002164" lon="9.412431062507949"><ele>203.0</ele><time>2026-05-02T12:14:36.978Z</time></trkpt><trkpt lat="46.14992417118433" lon="9.412442377974308"><ele>201.25</ele><time>2026-05-02T12:14:37.978Z</time></trkpt><trkpt lat="46.150042142457195" lon="9.412455029568845"><ele>199.5</ele><time>2026-05-02T12:14:38.978Z</time></trkpt><trkpt lat="46.15016499967774" lon="9.412462455723277"><ele>197.75</ele><time>2026-05-02T12:14:39.977Z</time></trkpt><trkpt lat="46.15029083217388" lon="9.412474498723226"><ele>196.0</ele><time>2026-05-02T12:14:40.977Z</time></trkpt><trkpt lat="46.15041685705301" lon="9.412489378416893"><ele>196.0</ele><time>2026-05-02T12:14:41.977Z</time></trkpt><trkpt lat="46.15053838199128" lon="9.412511141759152"><ele>196.0</ele><time>2026-05-02T12:14:42.977Z</time></trkpt><trkpt lat="46.15066305436096" lon="9.412544182355626"><ele>196.0</ele><time>2026-05-02T12:14:43.977Z</time></trkpt><trkpt lat="46.150787209534826" lon="9.412597215626551"><ele>196.0</ele><time>2026-05-02T12:14:44.977Z</time></trkpt><trkpt lat="46.15090880516688" lon="9.41266920263079"><ele>197.25</ele><time>2026-05-02T12:14:45.977Z</time></trkpt><trkpt lat="46.15102837230228" lon="9.412760839722733"><ele>198.5</ele><time>2026-05-02T12:14:46.977Z</time></trkpt><trkpt lat="46.151146205846544" lon="9.41286472499239"><ele>199.75</ele><time>2026-05-02T12:14:47.977Z</time></trkpt><trkpt lat="46.15126793321681" lon="9.412973345919125"><ele>201.0</ele><time>2026-05-02T12:14:48.977Z</time></trkpt><trkpt lat="46.15138369435019" lon="9.413087254377173"><ele>201.0</ele><time>2026-05-02T12:14:49.977Z</time></trkpt><trkpt lat="46.151506427662525" lon="9.41320222321292"><ele>201.0</ele><time>2026-05-02T12:14:50.977Z</time></trkpt><trkpt lat="46.15162562789943" lon="9.413314783914782"><ele>201.0</ele><time>2026-05-02T12:14:51.977Z</time></trkpt><trkpt lat="46.151740346290815" lon="9.413422901354721"><ele>201.0</ele><time>2026-05-02T12:14:52.977Z</time></trkpt><trkpt lat="46.151850814822836" lon="9.41353319648718"><ele>200.5</ele><time>2026-05-02T12:14:53.977Z</time></trkpt><trkpt lat="46.15196344649938" lon="9.413646625436808"><ele>200.0</ele><time>2026-05-02T12:14:54.977Z</time></trkpt><trkpt lat="46.152080723320026" lon="9.413762309815054"><ele>199.5</ele><time>2026-05-02T12:14:55.977Z</time></trkpt><trkpt lat="46.15219775451617" lon="9.413878205770942"><ele>199.0</ele><time>2026-05-02T12:14:56.978Z</time></trkpt><trkpt lat="46.15230361731141" lon="9.41398278104731"><ele>199.25</ele><time>2026-05-02T12:14:57.978Z</time></trkpt><trkpt lat="46.15240799647882" lon="9.414075914874427"><ele>199.5</ele><time>2026-05-02T12:14:58.978Z</time></trkpt><trkpt lat="46.152508983036356" lon="9.414169728386026"><ele>199.75</ele><time>2026-05-02T12:14:59.978Z</time></trkpt><trkpt lat="46.15258798890658" lon="9.414286055497824"><ele>200.0</ele><time>2026-05-02T12:15:00.978Z</time></trkpt><trkpt lat="46.152689177230066" lon="9.414383063001289"><ele>200.0</ele><time>2026-05-02T12:15:01.978Z</time></trkpt><trkpt lat="46.15278840034601" lon="9.414481546402321"><ele>200.0</ele><time>2026-05-02T12:15:02.978Z</time></trkpt><trkpt lat="46.15289002654336" lon="9.414578051661207"><ele>200.0</ele><time>2026-05-02T12:15:03.978Z</time></trkpt><trkpt lat="46.15297456900437" lon="9.41466142310779"><ele>200.0</ele><time>2026-05-02T12:15:04.978Z</time></trkpt><trkpt lat="46.15305174608151" lon="9.414731554270855"><ele>200.0</ele><time>2026-05-02T12:15:05.978Z</time></trkpt><trkpt lat="46.153124482519935" lon="9.414798023934756"><ele>199.8</ele><time>2026-05-02T12:15:06.978Z</time></trkpt><trkpt lat="46.15319830934861" lon="9.414862591510058"><ele>199.6</ele><time>2026-05-02T12:15:07.978Z</time></trkpt><trkpt lat="46.153280750503015" lon="9.414935283798805"><ele>199.39999999999998</ele><time>2026-05-02T12:15:08.978Z</time></trkpt><trkpt lat="46.15336381670999" lon="9.41502108565128"><ele>199.2</ele><time>2026-05-02T12:15:09.978Z</time></trkpt><trkpt lat="46.15345362591614" lon="9.4151056643242"><ele>199.0</ele><time>2026-05-02T12:15:10.978Z</time></trkpt><trkpt lat="46.15354386335971" lon="9.415196441132732"><ele>199.25</ele><time>2026-05-02T12:15:11.978Z</time></trkpt><trkpt lat="46.15363406617904" lon="9.415278575518068"><ele>199.5</ele><time>2026-05-02T12:15:12.978Z</time></trkpt><trkpt lat="46.153728997242915" lon="9.415366170599"><ele>199.75</ele><time>2026-05-02T12:15:13.978Z</time></trkpt><trkpt lat="46.153824416643964" lon="9.415459574286546"><ele>200.0</ele><time>2026-05-02T12:15:14.978Z</time></trkpt><trkpt lat="46.15392179931026" lon="9.4155551982876"><ele>200.0</ele><time>2026-05-02T12:15:15.978Z</time></trkpt><trkpt lat="46.15402528318974" lon="9.41565660831064"><ele>200.0</ele><time>2026-05-02T12:15:16.978Z</time></trkpt><trkpt lat="46.15412940914051" lon="9.415756809246437"><ele>200.0</ele><time>2026-05-02T12:15:17.978Z</time></trkpt><trkpt lat="46.154237911380655" lon="9.41586117291071"><ele>200.0</ele><time>2026-05-02T12:15:18.978Z</time></trkpt><trkpt lat="46.15435207027866" lon="9.415962871628901"><ele>200.5</ele><time>2026-05-02T12:15:19.978Z</time></trkpt><trkpt lat="46.15443917555387" lon="9.416092718835296"><ele>201.0</ele><time>2026-05-02T12:15:20.978Z</time></trkpt><trkpt lat="46.15454985424905" lon="9.416204805572288"><ele>201.5</ele><time>2026-05-02T12:15:21.978Z</time></trkpt><trkpt lat="46.15466564533238" lon="9.416320806654115"><ele>202.0</ele><time>2026-05-02T12:15:22.978Z</time></trkpt><trkpt lat="46.15478808079514" lon="9.41643487912043"><ele>201.5</ele><time>2026-05-02T12:15:23.978Z</time></trkpt><trkpt lat="46.15490996879765" lon="9.416555234113455"><ele>201.0</ele><time>2026-05-02T12:15:24.978Z</time></trkpt><trkpt lat="46.15503151491114" lon="9.416678941492961"><ele>200.5</ele><time>2026-05-02T12:15:25.978Z</time></trkpt><trkpt lat="46.15514862281657" lon="9.416795168827825"><ele>200.0</ele><time>2026-05-02T12:15:26.978Z</time></trkpt><trkpt lat="46.15526460991536" lon="9.416911544261785"><ele>200.0</ele><time>2026-05-02T12:15:27.978Z</time></trkpt><trkpt lat="46.1553858518707" lon="9.417019596220305"><ele>200.0</ele><time>2026-05-02T12:15:28.978Z</time></trkpt><trkpt lat="46.155511818363124" lon="9.417132671361077"><ele>200.0</ele><time>2026-05-02T12:15:29.978Z</time></trkpt><trkpt lat="46.15563349441371" lon="9.417255029134589"><ele>200.0</ele><time>2026-05-02T12:15:30.978Z</time></trkpt><trkpt lat="46.155758096902744" lon="9.417373334886227"><ele>200.0</ele><time>2026-05-02T12:15:31.978Z</time></trkpt><trkpt lat="46.1558838627809" lon="9.417496722798587"><ele>200.0</ele><time>2026-05-02T12:15:32.978Z</time></trkpt><trkpt lat="46.15600942050953" lon="9.41761488009351"><ele>200.0</ele><time>2026-05-02T12:15:33.978Z</time></trkpt><trkpt lat="46.156133059577876" lon="9.417736798152877"><ele>200.0</ele><time>2026-05-02T12:15:34.978Z</time></trkpt><trkpt lat="46.156254036194696" lon="9.417850634642907"><ele>200.0</ele><time>2026-05-02T12:15:35.978Z</time></trkpt><trkpt lat="46.1563746331242" lon="9.417965421846676"><ele>200.0</ele><time>2026-05-02T12:15:36.978Z</time></trkpt><trkpt lat="46.15649108041074" lon="9.418079970940099"><ele>200.0</ele><time>2026-05-02T12:15:37.978Z</time></trkpt><trkpt lat="46.15659991660504" lon="9.418187001057364"><ele>199.8</ele><time>2026-05-02T12:15:38.978Z</time></trkpt><trkpt lat="46.15669851681245" lon="9.418279481612812"><ele>199.6</ele><time>2026-05-02T12:15:39.978Z</time></trkpt><trkpt lat="46.15678182422815" lon="9.418357592509588"><ele>199.39999999999998</ele><time>2026-05-02T12:15:40.978Z</time></trkpt><trkpt lat="46.15684887157412" lon="9.418421845990618"><ele>199.2</ele><time>2026-05-02T12:15:41.978Z</time></trkpt><trkpt lat="46.15693204460935" lon="9.418539619455668"><ele>199.0</ele><time>2026-05-02T12:15:43.978Z</time></trkpt><trkpt lat="46.15696023970196" lon="9.418624561416353"><ele>199.0</ele><time>2026-05-02T12:15:44.978Z</time></trkpt><trkpt lat="46.15698958254301" lon="9.418716993837192"><ele>199.0</ele><time>2026-05-02T12:15:45.978Z</time></trkpt><trkpt lat="46.157035021468495" lon="9.418784735439267"><ele>199.0</ele><time>2026-05-02T12:15:46.978Z</time></trkpt><trkpt lat="46.1571488647308" lon="9.41881277794416"><ele>199.0</ele><time>2026-05-02T12:15:48.978Z</time></trkpt><trkpt lat="46.15723350749569" lon="9.418679217896464"><ele>199.0</ele><time>2026-05-02T12:15:50.978Z</time></trkpt><trkpt lat="46.1572444759303" lon="9.41855789660189"><ele>199.0</ele><time>2026-05-02T12:15:51.978Z</time></trkpt><trkpt lat="46.157261172156986" lon="9.418430035077044"><ele>199.0</ele><time>2026-05-02T12:15:52.978Z</time></trkpt><trkpt lat="46.15728812974865" lon="9.418301178609239"><ele>199.0</ele><time>2026-05-02T12:15:53.978Z</time></trkpt><trkpt lat="46.15729995148923" lon="9.418163092503045"><ele>199.0</ele><time>2026-05-02T12:15:54.978Z</time></trkpt><trkpt lat="46.15727699806434" lon="9.418026282956133"><ele>199.0</ele><time>2026-05-02T12:15:55.978Z</time></trkpt><trkpt lat="46.15722507308565" lon="9.417890541288585"><ele>199.2</ele><time>2026-05-02T12:15:56.978Z</time></trkpt><trkpt lat="46.15714152203355" lon="9.4177917348154"><ele>199.39999999999998</ele><time>2026-05-02T12:15:57.979Z</time></trkpt><trkpt lat="46.157040744314024" lon="9.41772723104898"><ele>199.6</ele><time>2026-05-02T12:15:58.979Z</time></trkpt><trkpt lat="46.15693060880655" lon="9.417696972491612"><ele>199.8</ele><time>2026-05-02T12:15:59.979Z</time></trkpt><trkpt lat="46.15682077431156" lon="9.41766902631385"><ele>200.0</ele><time>2026-05-02T12:16:00.979Z</time></trkpt><trkpt lat="46.15671316704532" lon="9.417604894124395"><ele>200.0</ele><time>2026-05-02T12:16:01.979Z</time></trkpt><trkpt lat="46.1566051986033" lon="9.417558997984317"><ele>200.0</ele><time>2026-05-02T12:16:02.979Z</time></trkpt><trkpt lat="46.156499296605965" lon="9.417506469784165"><ele>200.0</ele><time>2026-05-02T12:16:03.979Z</time></trkpt><trkpt lat="46.15641024090106" lon="9.417396738571185"><ele>200.0</ele><time>2026-05-02T12:16:04.979Z</time></trkpt><trkpt lat="46.156335616435946" lon="9.417257852693703"><ele>200.5</ele><time>2026-05-02T12:16:05.979Z</time></trkpt><trkpt lat="46.156281126913775" lon="9.417089704848834"><ele>201.0</ele><time>2026-05-02T12:16:06.979Z</time></trkpt><trkpt lat="46.15625176109027" lon="9.416915118755659"><ele>201.5</ele><time>2026-05-02T12:16:07.979Z</time></trkpt><trkpt lat="46.15625756641079" lon="9.416747318969561"><ele>202.0</ele><time>2026-05-02T12:16:08.979Z</time></trkpt><trkpt lat="46.156285915389915" lon="9.416575949364942"><ele>202.0</ele><time>2026-05-02T12:16:09.979Z</time></trkpt><trkpt lat="46.15632658421527" lon="9.416403995171624"><ele>202.0</ele><time>2026-05-02T12:16:10.979Z</time></trkpt><trkpt lat="46.1563679211956" lon="9.416226473842324"><ele>202.0</ele><time>2026-05-02T12:16:11.979Z</time></trkpt><trkpt lat="46.15645757856392" lon="9.41604609978235"><ele>202.0</ele><time>2026-05-02T12:16:12.979Z</time></trkpt><trkpt lat="46.15651437938447" lon="9.415847950045377"><ele>201.5</ele><time>2026-05-02T12:16:13.979Z</time></trkpt><trkpt lat="46.156561230262064" lon="9.41566305788434"><ele>201.0</ele><time>2026-05-02T12:16:14.979Z</time></trkpt><trkpt lat="46.15660716130953" lon="9.415470533537837"><ele>200.5</ele><time>2026-05-02T12:16:15.979Z</time></trkpt><trkpt lat="46.15665242655452" lon="9.415274995162973"><ele>200.0</ele><time>2026-05-02T12:16:16.979Z</time></trkpt><trkpt lat="46.1566849605984" lon="9.415069186910136"><ele>200.0</ele><time>2026-05-02T12:16:17.979Z</time></trkpt><trkpt lat="46.15672633712836" lon="9.414867512672586"><ele>200.0</ele><time>2026-05-02T12:16:18.979Z</time></trkpt><trkpt lat="46.15676990679698" lon="9.414684770855418"><ele>200.0</ele><time>2026-05-02T12:16:19.979Z</time></trkpt><trkpt lat="46.15681599337551" lon="9.41451787820437"><ele>200.0</ele><time>2026-05-02T12:16:20.979Z</time></trkpt><trkpt lat="46.15688541417493" lon="9.414387282875998"><ele>200.5</ele><time>2026-05-02T12:16:21.979Z</time></trkpt><trkpt lat="46.156958674253865" lon="9.41425192781903"><ele>201.0</ele><time>2026-05-02T12:16:22.979Z</time></trkpt><trkpt lat="46.15704086110115" lon="9.414109483848108"><ele>201.5</ele><time>2026-05-02T12:16:23.979Z</time></trkpt><trkpt lat="46.15714577910782" lon="9.413989587327752"><ele>202.0</ele><time>2026-05-02T12:16:24.979Z</time></trkpt><trkpt lat="46.157274953141034" lon="9.413917294258853"><ele>201.5</ele><time>2026-05-02T12:16:25.979Z</time></trkpt><trkpt lat="46.15740255601755" lon="9.413813372650425"><ele>201.0</ele><time>2026-05-02T12:16:26.979Z</time></trkpt><trkpt lat="46.15753817775527" lon="9.41373644356883"><ele>200.5</ele><time>2026-05-02T12:16:27.979Z</time></trkpt><trkpt lat="46.15767165281675" lon="9.413648916554758"><ele>200.0</ele><time>2026-05-02T12:16:28.979Z</time></trkpt><trkpt lat="46.157809298592" lon="9.413559188031428"><ele>200.0</ele><time>2026-05-02T12:16:29.979Z</time></trkpt><trkpt lat="46.157950192139964" lon="9.413468524705527"><ele>200.0</ele><time>2026-05-02T12:16:30.979Z</time></trkpt><trkpt lat="46.15809288924164" lon="9.413377025864074"><ele>200.0</ele><time>2026-05-02T12:16:31.979Z</time></trkpt><trkpt lat="46.158234483942366" lon="9.41328984660291"><ele>199.75</ele><time>2026-05-02T12:16:32.979Z</time></trkpt><trkpt lat="46.158373609947034" lon="9.413206870357218"><ele>199.5</ele><time>2026-05-02T12:16:33.979Z</time></trkpt><trkpt lat="46.158508523078865" lon="9.413125844804489"><ele>199.25</ele><time>2026-05-02T12:16:34.979Z</time></trkpt><trkpt lat="46.15864017208179" lon="9.413038722082371"><ele>199.0</ele><time>2026-05-02T12:16:35.979Z</time></trkpt><trkpt lat="46.1587694138146" lon="9.412954490550574"><ele>199.0</ele><time>2026-05-02T12:16:36.979Z</time></trkpt><trkpt lat="46.158903469491655" lon="9.412873892114797"><ele>199.0</ele><time>2026-05-02T12:16:37.979Z</time></trkpt><trkpt lat="46.159034179772235" lon="9.412787719044523"><ele>199.0</ele><time>2026-05-02T12:16:38.976Z</time></trkpt><trkpt lat="46.15916524684259" lon="9.412702231642143"><ele>199.0</ele><time>2026-05-02T12:16:39.976Z</time></trkpt><trkpt lat="46.159296443744765" lon="9.41261795156429"><ele>199.25</ele><time>2026-05-02T12:16:40.976Z</time></trkpt><trkpt lat="46.15942602295207" lon="9.412530375156214"><ele>199.5</ele><time>2026-05-02T12:16:41.976Z</time></trkpt><trkpt lat="46.1595568781045" lon="9.412437861281482"><ele>199.75</ele><time>2026-05-02T12:16:42.976Z</time></trkpt><trkpt lat="46.15969465614823" lon="9.41235422980692"><ele>200.0</ele><time>2026-05-02T12:16:43.976Z</time></trkpt><trkpt lat="46.1598290915407" lon="9.412265823156842"><ele>200.0</ele><time>2026-05-02T12:16:44.976Z</time></trkpt><trkpt lat="46.15996594654874" lon="9.41218256912347"><ele>200.0</ele><time>2026-05-02T12:16:45.977Z</time></trkpt><trkpt lat="46.16010768089307" lon="9.412093232474245"><ele>200.0</ele><time>2026-05-02T12:16:46.977Z</time></trkpt><trkpt lat="46.16025170010025" lon="9.411989628321168"><ele>200.0</ele><time>2026-05-02T12:16:47.976Z</time></trkpt><trkpt lat="46.16040454531046" lon="9.411898576206607"><ele>200.0</ele><time>2026-05-02T12:16:48.976Z</time></trkpt><trkpt lat="46.16055587963329" lon="9.411806096598779"><ele>200.0</ele><time>2026-05-02T12:16:49.976Z</time></trkpt><trkpt lat="46.16070669743001" lon="9.411707765822388"><ele>200.0</ele><time>2026-05-02T12:16:50.976Z</time></trkpt><trkpt lat="46.160853994019" lon="9.411610234561447"><ele>200.0</ele><time>2026-05-02T12:16:51.976Z</time></trkpt><trkpt lat="46.16100457200385" lon="9.411512620521547"><ele>200.0</ele><time>2026-05-02T12:16:52.976Z</time></trkpt><trkpt lat="46.16115667290452" lon="9.411413844498265"><ele>200.0</ele><time>2026-05-02T12:16:53.976Z</time></trkpt><trkpt lat="46.16130872041238" lon="9.411314737030185"><ele>200.0</ele><time>2026-05-02T12:16:54.976Z</time></trkpt><trkpt lat="46.16146160209999" lon="9.411216992399133"><ele>200.0</ele><time>2026-05-02T12:16:55.976Z</time></trkpt><trkpt lat="46.16161531794677" lon="9.411119663695166"><ele>200.0</ele><time>2026-05-02T12:16:56.976Z</time></trkpt><trkpt lat="46.16177087354905" lon="9.411020239022015"><ele>200.0</ele><time>2026-05-02T12:16:57.976Z</time></trkpt><trkpt lat="46.16192861177038" lon="9.410923779167653"><ele>200.0</ele><time>2026-05-02T12:16:58.976Z</time></trkpt><trkpt lat="46.16208730082881" lon="9.410824148951612"><ele>200.0</ele><time>2026-05-02T12:16:59.976Z</time></trkpt><trkpt lat="46.16224729182859" lon="9.410726531955156"><ele>200.0</ele><time>2026-05-02T12:17:00.976Z</time></trkpt><trkpt lat="46.16240772918095" lon="9.410628512461246"><ele>200.0</ele><time>2026-05-02T12:17:01.976Z</time></trkpt><trkpt lat="46.162566147513395" lon="9.410528806470461"><ele>199.33333333333334</ele><time>2026-05-02T12:17:02.976Z</time></trkpt><trkpt lat="46.162722554706725" lon="9.4104252099691"><ele>198.66666666666669</ele><time>2026-05-02T12:17:03.976Z</time></trkpt><trkpt lat="46.16287916627524" lon="9.410326803488362"><ele>198.0</ele><time>2026-05-02T12:17:04.976Z</time></trkpt><trkpt lat="46.16303364213465" lon="9.410233352979716"><ele>198.0</ele><time>2026-05-02T12:17:05.976Z</time></trkpt><trkpt lat="46.16318813098038" lon="9.410129946733365"><ele>198.0</ele><time>2026-05-02T12:17:06.976Z</time></trkpt><trkpt lat="46.16334548273898" lon="9.410034805363548"><ele>198.0</ele><time>2026-05-02T12:17:07.976Z</time></trkpt><trkpt lat="46.163498031573134" lon="9.409933809214735"><ele>198.33333333333331</ele><time>2026-05-02T12:17:08.976Z</time></trkpt><trkpt lat="46.16365264660164" lon="9.409830766876443"><ele>198.66666666666666</ele><time>2026-05-02T12:17:09.976Z</time></trkpt><trkpt lat="46.16380874099386" lon="9.409727208580897"><ele>199.0</ele><time>2026-05-02T12:17:10.976Z</time></trkpt><trkpt lat="46.16396562464845" lon="9.409623033286138"><ele>199.66666666666666</ele><time>2026-05-02T12:17:11.976Z</time></trkpt><trkpt lat="46.16412087841246" lon="9.409521956420338"><ele>200.33333333333331</ele><time>2026-05-02T12:17:12.976Z</time></trkpt><trkpt lat="46.16427789058921" lon="9.40941834661869"><ele>201.0</ele><time>2026-05-02T12:17:13.977Z</time></trkpt><trkpt lat="46.16443139547632" lon="9.409320134913864"><ele>201.0</ele><time>2026-05-02T12:17:14.977Z</time></trkpt><trkpt lat="46.16458529666342" lon="9.409221868718511"><ele>201.0</ele><time>2026-05-02T12:17:15.977Z</time></trkpt><trkpt lat="46.1647384239071" lon="9.40911885297865"><ele>201.0</ele><time>2026-05-02T12:17:16.977Z</time></trkpt><trkpt lat="46.164893377740604" lon="9.409016104150288"><ele>200.66666666666669</ele><time>2026-05-02T12:17:17.977Z</time></trkpt><trkpt lat="46.16504658630432" lon="9.408915601004368"><ele>200.33333333333334</ele><time>2026-05-02T12:17:18.977Z</time></trkpt><trkpt lat="46.16520181054974" lon="9.408817983268223"><ele>200.0</ele><time>2026-05-02T12:17:19.977Z</time></trkpt><trkpt lat="46.16535798430515" lon="9.408723928584815"><ele>200.0</ele><time>2026-05-02T12:17:20.977Z</time></trkpt><trkpt lat="46.16551060466579" lon="9.408626217208509"><ele>200.0</ele><time>2026-05-02T12:17:21.977Z</time></trkpt><trkpt lat="46.165659658261525" lon="9.408527385120872"><ele>200.0</ele><time>2026-05-02T12:17:22.977Z</time></trkpt><trkpt lat="46.16581042898183" lon="9.40843396495896"><ele>200.0</ele><time>2026-05-02T12:17:23.977Z</time></trkpt><trkpt lat="46.16595815988686" lon="9.408338223767752"><ele>200.0</ele><time>2026-05-02T12:17:24.977Z</time></trkpt><trkpt lat="46.16610760964641" lon="9.408239272074061"><ele>200.0</ele><time>2026-05-02T12:17:25.977Z</time></trkpt><trkpt lat="46.16625655702555" lon="9.408145498997568"><ele>200.0</ele><time>2026-05-02T12:17:26.977Z</time></trkpt><trkpt lat="46.166407663384575" lon="9.40804522204276"><ele>200.0</ele><time>2026-05-02T12:17:27.977Z</time></trkpt><trkpt lat="46.16655758377535" lon="9.407943853282122"><ele>200.0</ele><time>2026-05-02T12:17:28.977Z</time></trkpt><trkpt lat="46.16670599626784" lon="9.407843680989792"><ele>200.33333333333334</ele><time>2026-05-02T12:17:29.977Z</time></trkpt><trkpt lat="46.16685284655789" lon="9.407748823701606"><ele>200.66666666666669</ele><time>2026-05-02T12:17:30.977Z</time></trkpt><trkpt lat="46.166998965566314" lon="9.407653541965033"><ele>201.0</ele><time>2026-05-02T12:17:31.977Z</time></trkpt><trkpt lat="46.167144756193736" lon="9.407562775681457"><ele>201.0</ele><time>2026-05-02T12:17:32.977Z</time></trkpt><trkpt lat="46.1672886206327" lon="9.407478165233677"><ele>201.0</ele><time>2026-05-02T12:17:33.977Z</time></trkpt><trkpt lat="46.16743669713525" lon="9.407385447079392"><ele>201.0</ele><time>2026-05-02T12:17:34.977Z</time></trkpt><trkpt lat="46.16758370338916" lon="9.40729434455236"><ele>201.0</ele><time>2026-05-02T12:17:35.977Z</time></trkpt><trkpt lat="46.16773188456331" lon="9.407197002584871"><ele>201.0</ele><time>2026-05-02T12:17:36.977Z</time></trkpt><trkpt lat="46.1678758839741" lon="9.407101327807425"><ele>201.0</ele><time>2026-05-02T12:17:37.977Z</time></trkpt><trkpt lat="46.168023301794484" lon="9.407005810727041"><ele>200.33333333333331</ele><time>2026-05-02T12:17:38.977Z</time></trkpt><trkpt lat="46.16817145784485" lon="9.40691244243263"><ele>199.66666666666666</ele><time>2026-05-02T12:17:39.977Z</time></trkpt><trkpt lat="46.16831997036059" lon="9.406816362262925"><ele>199.0</ele><time>2026-05-02T12:17:40.977Z</time></trkpt><trkpt lat="46.168465160639926" lon="9.406721695616875"><ele>198.66666666666666</ele><time>2026-05-02T12:17:41.977Z</time></trkpt><trkpt lat="46.16860228199032" lon="9.406629848645597"><ele>198.33333333333331</ele><time>2026-05-02T12:17:42.977Z</time></trkpt><trkpt lat="46.168734247800394" lon="9.406542671343031"><ele>198.0</ele><time>2026-05-02T12:17:43.977Z</time></trkpt><trkpt lat="46.168883607882115" lon="9.406484781796983"><ele>198.0</ele><time>2026-05-02T12:17:44.977Z</time></trkpt><trkpt lat="46.16900873913129" lon="9.4063991048719"><ele>198.0</ele><time>2026-05-02T12:17:45.977Z</time></trkpt><trkpt lat="46.16914034772993" lon="9.406317599740554"><ele>198.0</ele><time>2026-05-02T12:17:46.977Z</time></trkpt><trkpt lat="46.16926822010555" lon="9.406235699223323"><ele>198.0</ele><time>2026-05-02T12:17:47.977Z</time></trkpt><trkpt lat="46.169392710259004" lon="9.406158622857559"><ele>198.0</ele><time>2026-05-02T12:17:48.977Z</time></trkpt><trkpt lat="46.16951790222422" lon="9.406082495142059"><ele>198.0</ele><time>2026-05-02T12:17:49.977Z</time></trkpt><trkpt lat="46.169642135969816" lon="9.406003193895454"><ele>198.0</ele><time>2026-05-02T12:17:50.977Z</time></trkpt><trkpt lat="46.169763189192786" lon="9.405921768718699"><ele>198.0</ele><time>2026-05-02T12:17:51.977Z</time></trkpt><trkpt lat="46.169878684900716" lon="9.405844976191068"><ele>198.0</ele><time>2026-05-02T12:17:52.977Z</time></trkpt><trkpt lat="46.16998722713667" lon="9.405773406378692"><ele>198.0</ele><time>2026-05-02T12:17:53.977Z</time></trkpt><trkpt lat="46.170093318870045" lon="9.405699236712664"><ele>198.0</ele><time>2026-05-02T12:17:54.977Z</time></trkpt><trkpt lat="46.17019505966386" lon="9.40563065476508"><ele>198.0</ele><time>2026-05-02T12:17:55.977Z</time></trkpt><trkpt lat="46.17029554841816" lon="9.40556182934341"><ele>198.5</ele><time>2026-05-02T12:17:56.977Z</time></trkpt><trkpt lat="46.170398187223014" lon="9.405494294366454"><ele>199.0</ele><time>2026-05-02T12:17:57.977Z</time></trkpt><trkpt lat="46.17050187686337" lon="9.405424966588155"><ele>199.5</ele><time>2026-05-02T12:17:58.977Z</time></trkpt><trkpt lat="46.17060681532927" lon="9.405359533784026"><ele>200.0</ele><time>2026-05-02T12:17:59.977Z</time></trkpt><trkpt lat="46.17071088694041" lon="9.405291841533536"><ele>200.4</ele><time>2026-05-02T12:18:00.977Z</time></trkpt><trkpt lat="46.17081306365803" lon="9.405225386408558"><ele>200.8</ele><time>2026-05-02T12:18:01.977Z</time></trkpt><trkpt lat="46.17091803971009" lon="9.405158634222845"><ele>201.2</ele><time>2026-05-02T12:18:02.977Z</time></trkpt><trkpt lat="46.171014461769616" lon="9.405095273224667"><ele>201.6</ele><time>2026-05-02T12:18:03.977Z</time></trkpt><trkpt lat="46.171113221489115" lon="9.40503322202329"><ele>202.0</ele><time>2026-05-02T12:18:04.977Z</time></trkpt><trkpt lat="46.17120658324293" lon="9.40497744865027"><ele>201.99999999999997</ele><time>2026-05-02T12:18:05.977Z</time></trkpt><trkpt lat="46.17129345543993" lon="9.404935566411858"><ele>202.0</ele><time>2026-05-02T12:18:06.977Z</time></trkpt><trkpt lat="46.17136689893182" lon="9.404906729476878"><ele>202.0</ele><time>2026-05-02T12:18:07.977Z</time></trkpt><trkpt lat="46.171430257173164" lon="9.40488595177013"><ele>202.0</ele><time>2026-05-02T12:18:08.977Z</time></trkpt><trkpt lat="46.171563253746044" lon="9.404902407095978"><ele>201.99999999999997</ele><time>2026-05-02T12:18:10.977Z</time></trkpt><trkpt lat="46.17163710404546" lon="9.404921407535403"><ele>202.0</ele><time>2026-05-02T12:18:11.977Z</time></trkpt><trkpt lat="46.171749877194515" lon="9.404879630363508"><ele>201.83333333333331</ele><time>2026-05-02T12:18:13.978Z</time></trkpt><trkpt lat="46.171818914706" lon="9.40473110905369"><ele>201.66666666666666</ele><time>2026-05-02T12:18:15.978Z</time></trkpt><trkpt lat="46.17185918555579" lon="9.404642372370866"><ele>201.5</ele><time>2026-05-02T12:18:16.978Z</time></trkpt><trkpt lat="46.17191286884533" lon="9.404558794573788"><ele>201.33333333333331</ele><time>2026-05-02T12:18:17.978Z</time></trkpt><trkpt lat="46.171973195259234" lon="9.404503155278741"><ele>201.16666666666666</ele><time>2026-05-02T12:18:18.978Z</time></trkpt><trkpt lat="46.172030576355276" lon="9.404455930901442"><ele>201.0</ele><time>2026-05-02T12:18:19.978Z</time></trkpt><trkpt lat="46.172091805611466" lon="9.40441019863242"><ele>201.33333333333334</ele><time>2026-05-02T12:18:20.978Z</time></trkpt><trkpt lat="46.17215964496689" lon="9.404363302493682"><ele>201.66666666666669</ele><time>2026-05-02T12:18:21.978Z</time></trkpt><trkpt lat="46.17222651084228" lon="9.404313240984692"><ele>202.0</ele><time>2026-05-02T12:18:22.978Z</time></trkpt><trkpt lat="46.172294733736585" lon="9.404267143192703"><ele>202.33333333333334</ele><time>2026-05-02T12:18:23.978Z</time></trkpt><trkpt lat="46.17236552514653" lon="9.40422000085039"><ele>202.66666666666669</ele><time>2026-05-02T12:18:24.978Z</time></trkpt><trkpt lat="46.17243703413711" lon="9.404172690917825"><ele>203.0</ele><time>2026-05-02T12:18:25.978Z</time></trkpt><trkpt lat="46.17251059385723" lon="9.4041271116615"><ele>202.00000000000003</ele><time>2026-05-02T12:18:26.978Z</time></trkpt><trkpt lat="46.172598532731854" lon="9.404111967102969"><ele>201.0</ele><time>2026-05-02T12:18:27.978Z</time></trkpt><trkpt lat="46.172673551318184" lon="9.40406484622524"><ele>200.0</ele><time>2026-05-02T12:18:28.978Z</time></trkpt><trkpt lat="46.172749344106094" lon="9.404019343725745"><ele>199.0</ele><time>2026-05-02T12:18:29.978Z</time></trkpt><trkpt lat="46.17282680300054" lon="9.40396283030476"><ele>198.00000000000003</ele><time>2026-05-02T12:18:30.978Z</time></trkpt><trkpt lat="46.1729040195205" lon="9.403916520909656"><ele>197.0</ele><time>2026-05-02T12:18:31.978Z</time></trkpt><trkpt lat="46.172988673175325" lon="9.403860903404777"><ele>198.6</ele><time>2026-05-02T12:18:32.978Z</time></trkpt><trkpt lat="46.173067703016514" lon="9.403798696836981"><ele>200.2</ele><time>2026-05-02T12:18:33.978Z</time></trkpt><trkpt lat="46.173144222337434" lon="9.403721502064906"><ele>201.8</ele><time>2026-05-02T12:18:34.978Z</time></trkpt><trkpt lat="46.173214311664054" lon="9.403622387530742"><ele>203.4</ele><time>2026-05-02T12:18:35.978Z</time></trkpt><trkpt lat="46.173259014259436" lon="9.403505968477022"><ele>205.0</ele><time>2026-05-02T12:18:36.978Z</time></trkpt><trkpt lat="46.17329008684996" lon="9.40337895475224"><ele>205.99999999999997</ele><time>2026-05-02T12:18:37.978Z</time></trkpt><trkpt lat="46.173296776840914" lon="9.403251609562144"><ele>207.0</ele><time>2026-05-02T12:18:38.978Z</time></trkpt><trkpt lat="46.173286084573746" lon="9.403133781192206"><ele>208.0</ele><time>2026-05-02T12:18:39.978Z</time></trkpt><trkpt lat="46.173263242907545" lon="9.40302646695476"><ele>209.0</ele><time>2026-05-02T12:18:40.978Z</time></trkpt><trkpt lat="46.1732558209273" lon="9.402904985835658"><ele>209.99999999999997</ele><time>2026-05-02T12:18:41.978Z</time></trkpt><trkpt lat="46.17318612595901" lon="9.40279475401039"><ele>211.0</ele><time>2026-05-02T12:18:42.978Z</time></trkpt><trkpt lat="46.17314082730049" lon="9.40266853158604"><ele>211.0</ele><time>2026-05-02T12:18:43.978Z</time></trkpt><trkpt lat="46.17309472559792" lon="9.402541142603026"><ele>211.0</ele><time>2026-05-02T12:18:44.975Z</time></trkpt><trkpt lat="46.1730466321842" lon="9.40241379000478"><ele>211.0</ele><time>2026-05-02T12:18:45.975Z</time></trkpt><trkpt lat="46.17300885948696" lon="9.402277822425901"><ele>211.0</ele><time>2026-05-02T12:18:46.975Z</time></trkpt><trkpt lat="46.17294033045043" lon="9.402173120917656"><ele>211.0</ele><time>2026-05-02T12:18:47.975Z</time></trkpt><trkpt lat="46.172903649212245" lon="9.402036100027107"><ele>210.4</ele><time>2026-05-02T12:18:48.975Z</time></trkpt><trkpt lat="46.17284633391129" lon="9.401925581407118"><ele>209.8</ele><time>2026-05-02T12:18:49.975Z</time></trkpt><trkpt lat="46.17278686592378" lon="9.401828416107412"><ele>209.20000000000002</ele><time>2026-05-02T12:18:50.975Z</time></trkpt><trkpt lat="46.17273100269269" lon="9.401724379500722"><ele>208.60000000000002</ele><time>2026-05-02T12:18:51.975Z</time></trkpt><trkpt lat="46.17267016367285" lon="9.401620405849721"><ele>208.0</ele><time>2026-05-02T12:18:52.975Z</time></trkpt><trkpt lat="46.17261553432408" lon="9.401524434568824"><ele>208.0</ele><time>2026-05-02T12:18:53.975Z</time></trkpt><trkpt lat="46.172555299078645" lon="9.401422414288806"><ele>208.0</ele><time>2026-05-02T12:18:54.975Z</time></trkpt><trkpt lat="46.17248765998101" lon="9.40131686738127"><ele>208.0</ele><time>2026-05-02T12:18:55.975Z</time></trkpt><trkpt lat="46.17242107638234" lon="9.401214206901882"><ele>208.0</ele><time>2026-05-02T12:18:56.975Z</time></trkpt><trkpt lat="46.17235818448774" lon="9.401099033409546"><ele>208.0</ele><time>2026-05-02T12:18:57.975Z</time></trkpt><trkpt lat="46.17229930225575" lon="9.400970226978176"><ele>206.75</ele><time>2026-05-02T12:18:58.975Z</time></trkpt><trkpt lat="46.17225891874978" lon="9.400829133671303"><ele>205.5</ele><time>2026-05-02T12:18:59.975Z</time></trkpt><trkpt lat="46.172237570601865" lon="9.400671658635916"><ele>204.25</ele><time>2026-05-02T12:19:00.975Z</time></trkpt><trkpt lat="46.17223292032394" lon="9.40050538889799"><ele>203.0</ele><time>2026-05-02T12:19:01.975Z</time></trkpt><trkpt lat="46.17224258674597" lon="9.400332773663969"><ele>203.0</ele><time>2026-05-02T12:19:02.975Z</time></trkpt><trkpt lat="46.17226254320139" lon="9.400159558175273"><ele>203.0</ele><time>2026-05-02T12:19:03.975Z</time></trkpt><trkpt lat="46.17227482055393" lon="9.399981238686944"><ele>203.0</ele><time>2026-05-02T12:19:04.975Z</time></trkpt><trkpt lat="46.17231659855111" lon="9.3998043712321"><ele>203.0</ele><time>2026-05-02T12:19:05.975Z</time></trkpt><trkpt lat="46.172311911187606" lon="9.399634558378267"><ele>203.2</ele><time>2026-05-02T12:19:06.975Z</time></trkpt><trkpt lat="46.172297187241234" lon="9.399474630128283"><ele>203.4</ele><time>2026-05-02T12:19:07.975Z</time></trkpt><trkpt lat="46.17229453936036" lon="9.399315960732785"><ele>203.6</ele><time>2026-05-02T12:19:08.975Z</time></trkpt><trkpt lat="46.17230117075893" lon="9.399155415021903"><ele>203.79999999999998</ele><time>2026-05-02T12:19:09.975Z</time></trkpt><trkpt lat="46.17233028870138" lon="9.399000515227428"><ele>204.0</ele><time>2026-05-02T12:19:10.975Z</time></trkpt><trkpt lat="46.17234024157168" lon="9.398837910294384"><ele>203.75</ele><time>2026-05-02T12:19:11.975Z</time></trkpt><trkpt lat="46.17235298275281" lon="9.398680999612676"><ele>203.5</ele><time>2026-05-02T12:19:12.975Z</time></trkpt><trkpt lat="46.17234448607315" lon="9.398515544906251"><ele>203.25</ele><time>2026-05-02T12:19:13.975Z</time></trkpt><trkpt lat="46.17231833784718" lon="9.39834720508042"><ele>203.0</ele><time>2026-05-02T12:19:14.975Z</time></trkpt><trkpt lat="46.17228965553215" lon="9.398174477155521"><ele>203.0</ele><time>2026-05-02T12:19:15.975Z</time></trkpt><trkpt lat="46.172255511046984" lon="9.398008638751406"><ele>203.0</ele><time>2026-05-02T12:19:16.975Z</time></trkpt><trkpt lat="46.172213128398205" lon="9.39785176262354"><ele>203.0</ele><time>2026-05-02T12:19:17.975Z</time></trkpt><trkpt lat="46.17216995889885" lon="9.397698258850467"><ele>203.0</ele><time>2026-05-02T12:19:18.975Z</time></trkpt><trkpt lat="46.17212357352389" lon="9.397545833513535"><ele>203.60000000000002</ele><time>2026-05-02T12:19:19.975Z</time></trkpt><trkpt lat="46.17208397566422" lon="9.397390738653256"><ele>204.20000000000002</ele><time>2026-05-02T12:19:20.975Z</time></trkpt><trkpt lat="46.17204514578743" lon="9.397237588099484"><ele>204.8</ele><time>2026-05-02T12:19:21.975Z</time></trkpt><trkpt lat="46.17200097914527" lon="9.397097835561828"><ele>205.4</ele><time>2026-05-02T12:19:22.975Z</time></trkpt><trkpt lat="46.171963963731415" lon="9.39695850586805"><ele>206.0</ele><time>2026-05-02T12:19:23.975Z</time></trkpt><trkpt lat="46.171944263510326" lon="9.396813772019005"><ele>206.75</ele><time>2026-05-02T12:19:24.975Z</time></trkpt><trkpt lat="46.17191696062344" lon="9.396662743722683"><ele>207.5</ele><time>2026-05-02T12:19:25.975Z</time></trkpt><trkpt lat="46.17190269904726" lon="9.396497654741072"><ele>208.25</ele><time>2026-05-02T12:19:26.975Z</time></trkpt><trkpt lat="46.17190713791382" lon="9.396332033162642"><ele>209.0</ele><time>2026-05-02T12:19:27.975Z</time></trkpt><trkpt lat="46.1719208293891" lon="9.39616374676293"><ele>209.5</ele><time>2026-05-02T12:19:28.975Z</time></trkpt><trkpt lat="46.17193412528448" lon="9.395995637223349"><ele>210.0</ele><time>2026-05-02T12:19:29.975Z</time></trkpt><trkpt lat="46.17194929760267" lon="9.395823688250255"><ele>210.5</ele><time>2026-05-02T12:19:30.975Z</time></trkpt><trkpt lat="46.17196090305542" lon="9.395648964632723"><ele>211.0</ele><time>2026-05-02T12:19:31.975Z</time></trkpt><trkpt lat="46.17197532517659" lon="9.39547389041207"><ele>209.25</ele><time>2026-05-02T12:19:32.975Z</time></trkpt><trkpt lat="46.17199112514866" lon="9.395298232628468"><ele>207.5</ele><time>2026-05-02T12:19:33.975Z</time></trkpt><trkpt lat="46.17200764820198" lon="9.395122940921896"><ele>205.75</ele><time>2026-05-02T12:19:34.975Z</time></trkpt><trkpt lat="46.172018375563006" lon="9.394946705486515"><ele>204.0</ele><time>2026-05-02T12:19:35.976Z</time></trkpt><trkpt lat="46.17203089435471" lon="9.394774223193439"><ele>203.5</ele><time>2026-05-02T12:19:36.976Z</time></trkpt><trkpt lat="46.17204739648374" lon="9.394584860126036"><ele>203.0</ele><time>2026-05-02T12:19:37.976Z</time></trkpt><trkpt lat="46.1720880783148" lon="9.394405676075946"><ele>202.5</ele><time>2026-05-02T12:19:38.976Z</time></trkpt><trkpt lat="46.17210461028046" lon="9.394216503117594"><ele>202.0</ele><time>2026-05-02T12:19:39.976Z</time></trkpt><trkpt lat="46.172121200401634" lon="9.394029398024635"><ele>202.0</ele><time>2026-05-02T12:19:40.976Z</time></trkpt><trkpt lat="46.17214062351775" lon="9.393848248998088"><ele>202.0</ele><time>2026-05-02T12:19:41.976Z</time></trkpt><trkpt lat="46.17215478158278" lon="9.393670083048406"><ele>202.0</ele><time>2026-05-02T12:19:42.976Z</time></trkpt><trkpt lat="46.172168673476236" lon="9.393510637648406"><ele>202.0</ele><time>2026-05-02T12:19:43.976Z</time></trkpt><trkpt lat="46.172179406398115" lon="9.393353090770198"><ele>202.25</ele><time>2026-05-02T12:19:44.976Z</time></trkpt><trkpt lat="46.172188984894674" lon="9.39319560475585"><ele>202.5</ele><time>2026-05-02T12:19:45.976Z</time></trkpt><trkpt lat="46.17219750466867" lon="9.393033674406619"><ele>202.75</ele><time>2026-05-02T12:19:46.976Z</time></trkpt><trkpt lat="46.17220974434937" lon="9.392862566287079"><ele>203.0</ele><time>2026-05-02T12:19:47.976Z</time></trkpt><trkpt lat="46.172196952760046" lon="9.392682145783526"><ele>203.25</ele><time>2026-05-02T12:19:48.976Z</time></trkpt><trkpt lat="46.17219225216068" lon="9.392513044839456"><ele>203.5</ele><time>2026-05-02T12:19:49.976Z</time></trkpt><trkpt lat="46.1721894343569" lon="9.392340346897107"><ele>203.75</ele><time>2026-05-02T12:19:50.976Z</time></trkpt><trkpt lat="46.17219130609171" lon="9.392168604651856"><ele>204.0</ele><time>2026-05-02T12:19:51.976Z</time></trkpt><trkpt lat="46.17220015156522" lon="9.391991965764861"><ele>204.0</ele><time>2026-05-02T12:19:52.976Z</time></trkpt><trkpt lat="46.172208290739036" lon="9.391813701820602"><ele>204.0</ele><time>2026-05-02T12:19:53.976Z</time></trkpt><trkpt lat="46.1722359026352" lon="9.391633752385376"><ele>204.0</ele><time>2026-05-02T12:19:54.976Z</time></trkpt><trkpt lat="46.17226983394227" lon="9.391462439643442"><ele>204.0</ele><time>2026-05-02T12:19:55.976Z</time></trkpt><trkpt lat="46.172299162386096" lon="9.391289900860961"><ele>203.75</ele><time>2026-05-02T12:19:56.976Z</time></trkpt><trkpt lat="46.17232838962438" lon="9.391116037989077"><ele>203.5</ele><time>2026-05-02T12:19:57.976Z</time></trkpt><trkpt lat="46.172354601269454" lon="9.390934009402628"><ele>203.25</ele><time>2026-05-02T12:19:58.976Z</time></trkpt><trkpt lat="46.17237617587193" lon="9.39074666381629"><ele>203.0</ele><time>2026-05-02T12:19:59.976Z</time></trkpt><trkpt lat="46.172396143588855" lon="9.390557506214574"><ele>206.25</ele><time>2026-05-02T12:20:00.976Z</time></trkpt><trkpt lat="46.17241334699179" lon="9.39036614672851"><ele>209.5</ele><time>2026-05-02T12:20:01.976Z</time></trkpt><trkpt lat="46.17242597468608" lon="9.39017298532332"><ele>212.75</ele><time>2026-05-02T12:20:02.976Z</time></trkpt><trkpt lat="46.17243809831963" lon="9.38998313756158"><ele>216.0</ele><time>2026-05-02T12:20:03.976Z</time></trkpt><trkpt lat="46.17244928759861" lon="9.389798531520478"><ele>213.5</ele><time>2026-05-02T12:20:04.976Z</time></trkpt><trkpt lat="46.172459799131815" lon="9.389622973932571"><ele>211.0</ele><time>2026-05-02T12:20:05.976Z</time></trkpt><trkpt lat="46.17246875531135" lon="9.389454107693398"><ele>208.5</ele><time>2026-05-02T12:20:06.976Z</time></trkpt><trkpt lat="46.172482567738456" lon="9.389292611028473"><ele>206.0</ele><time>2026-05-02T12:20:07.976Z</time></trkpt><trkpt lat="46.17249093903055" lon="9.389126940480402"><ele>206.0</ele><time>2026-05-02T12:20:08.976Z</time></trkpt><trkpt lat="46.17251069968091" lon="9.388976643705838"><ele>206.0</ele><time>2026-05-02T12:20:09.976Z</time></trkpt><trkpt lat="46.172531241246574" lon="9.388834309943586"><ele>206.0</ele><time>2026-05-02T12:20:10.976Z</time></trkpt><trkpt lat="46.172566002863654" lon="9.388706399597384"><ele>206.0</ele><time>2026-05-02T12:20:11.976Z</time></trkpt><trkpt lat="46.17260673250945" lon="9.388585926691865"><ele>206.0</ele><time>2026-05-02T12:20:12.976Z</time></trkpt><trkpt lat="46.172638507595096" lon="9.38848803044947"><ele>205.8</ele><time>2026-05-02T12:20:13.976Z</time></trkpt><trkpt lat="46.17266319313223" lon="9.388391765618087"><ele>205.60000000000002</ele><time>2026-05-02T12:20:14.976Z</time></trkpt><trkpt lat="46.172694495479725" lon="9.388273841432861"><ele>205.4</ele><time>2026-05-02T12:20:15.976Z</time></trkpt><trkpt lat="46.17273040707795" lon="9.388136649872177"><ele>205.2</ele><time>2026-05-02T12:20:16.976Z</time></trkpt><trkpt lat="46.17277106136565" lon="9.387982133614788"><ele>205.0</ele><time>2026-05-02T12:20:17.976Z</time></trkpt><trkpt lat="46.17281378163583" lon="9.38782667948728"><ele>205.0</ele><time>2026-05-02T12:20:18.976Z</time></trkpt><trkpt lat="46.172858209571594" lon="9.387661868162892"><ele>205.0</ele><time>2026-05-02T12:20:19.976Z</time></trkpt><trkpt lat="46.17290309556737" lon="9.387489714113828"><ele>205.0</ele><time>2026-05-02T12:20:20.976Z</time></trkpt><trkpt lat="46.172950931691155" lon="9.387307977379686"><ele>205.0</ele><time>2026-05-02T12:20:21.976Z</time></trkpt><trkpt lat="46.17300064798582" lon="9.387123690782397"><ele>204.25</ele><time>2026-05-02T12:20:22.976Z</time></trkpt><trkpt lat="46.17304944796168" lon="9.38693557396318"><ele>203.5</ele><time>2026-05-02T12:20:23.976Z</time></trkpt><trkpt lat="46.17310052387009" lon="9.386746017197693"><ele>202.75</ele><time>2026-05-02T12:20:24.976Z</time></trkpt><trkpt lat="46.17315144671641" lon="9.386553402775316"><ele>202.0</ele><time>2026-05-02T12:20:25.976Z</time></trkpt><trkpt lat="46.173202278489796" lon="9.386358702595555"><ele>204.0</ele><time>2026-05-02T12:20:26.976Z</time></trkpt><trkpt lat="46.17325460525992" lon="9.386164394483583"><ele>206.0</ele><time>2026-05-02T12:20:27.976Z</time></trkpt><trkpt lat="46.17330600318418" lon="9.385967842197317"><ele>208.0</ele><time>2026-05-02T12:20:28.976Z</time></trkpt><trkpt lat="46.1733579560316" lon="9.385776208389471"><ele>210.0</ele><time>2026-05-02T12:20:29.976Z</time></trkpt><trkpt lat="46.173406133980166" lon="9.385587268851967"><ele>210.75</ele><time>2026-05-02T12:20:30.976Z</time></trkpt><trkpt lat="46.17345445006667" lon="9.385402379300531"><ele>211.5</ele><time>2026-05-02T12:20:31.976Z</time></trkpt><trkpt lat="46.17350382965292" lon="9.38522134088312"><ele>212.25</ele><time>2026-05-02T12:20:32.976Z</time></trkpt><trkpt lat="46.173553420508085" lon="9.38504443547988"><ele>213.0</ele><time>2026-05-02T12:20:33.976Z</time></trkpt><trkpt lat="46.17359791248599" lon="9.384869261489813"><ele>213.0</ele><time>2026-05-02T12:20:34.976Z</time></trkpt><trkpt lat="46.173638048493466" lon="9.384701562809507"><ele>213.0</ele><time>2026-05-02T12:20:35.977Z</time></trkpt><trkpt lat="46.17367284227745" lon="9.38453244160048"><ele>213.0</ele><time>2026-05-02T12:20:36.977Z</time></trkpt><trkpt lat="46.173712974288264" lon="9.384367271715773"><ele>213.0</ele><time>2026-05-02T12:20:37.977Z</time></trkpt><trkpt lat="46.1737348917495" lon="9.384191393056245"><ele>212.75</ele><time>2026-05-02T12:20:38.977Z</time></trkpt><trkpt lat="46.1737563835782" lon="9.384021636532312"><ele>212.5</ele><time>2026-05-02T12:20:39.977Z</time></trkpt><trkpt lat="46.17377355171943" lon="9.383863140284692"><ele>212.25</ele><time>2026-05-02T12:20:40.977Z</time></trkpt><trkpt lat="46.17377743027563" lon="9.383695849847898"><ele>212.0</ele><time>2026-05-02T12:20:41.977Z</time></trkpt><trkpt lat="46.17376153450473" lon="9.38352648066163"><ele>212.0</ele><time>2026-05-02T12:20:42.977Z</time></trkpt><trkpt lat="46.17372822688587" lon="9.383354151664575"><ele>212.0</ele><time>2026-05-02T12:20:43.977Z</time></trkpt><trkpt lat="46.173674910747025" lon="9.383179982492829"><ele>212.0</ele><time>2026-05-02T12:20:44.977Z</time></trkpt><trkpt lat="46.173616166693044" lon="9.383006307029726"><ele>212.0</ele><time>2026-05-02T12:20:45.977Z</time></trkpt><trkpt lat="46.173555365785745" lon="9.382838083465739"><ele>212.0</ele><time>2026-05-02T12:20:46.977Z</time></trkpt><trkpt lat="46.17349035339227" lon="9.382674741228067"><ele>212.0</ele><time>2026-05-02T12:20:47.977Z</time></trkpt><trkpt lat="46.17341374479832" lon="9.382514802186147"><ele>212.0</ele><time>2026-05-02T12:20:48.977Z</time></trkpt><trkpt lat="46.17332280936681" lon="9.382356012703987"><ele>212.0</ele><time>2026-05-02T12:20:49.977Z</time></trkpt><trkpt lat="46.173229667073855" lon="9.382189949883648"><ele>210.0</ele><time>2026-05-02T12:20:50.975Z</time></trkpt><trkpt lat="46.17314095772496" lon="9.382025743247599"><ele>208.0</ele><time>2026-05-02T12:20:51.974Z</time></trkpt><trkpt lat="46.17304641428398" lon="9.38185692965172"><ele>206.0</ele><time>2026-05-02T12:20:52.974Z</time></trkpt><trkpt lat="46.17296430703618" lon="9.381672974999383"><ele>204.0</ele><time>2026-05-02T12:20:53.974Z</time></trkpt><trkpt lat="46.17286637603789" lon="9.381492136798009"><ele>204.0</ele><time>2026-05-02T12:20:54.974Z</time></trkpt><trkpt lat="46.17276205839756" lon="9.38131288718225"><ele>204.0</ele><time>2026-05-02T12:20:55.974Z</time></trkpt><trkpt lat="46.17265907169328" lon="9.381140966912486"><ele>204.0</ele><time>2026-05-02T12:20:56.974Z</time></trkpt><trkpt lat="46.17256190195941" lon="9.380972713317554"><ele>204.0</ele><time>2026-05-02T12:20:57.975Z</time></trkpt><trkpt lat="46.172473583075345" lon="9.380814366890649"><ele>204.0</ele><time>2026-05-02T12:20:58.975Z</time></trkpt><trkpt lat="46.172402863437775" lon="9.380662125616395"><ele>204.0</ele><time>2026-05-02T12:20:59.975Z</time></trkpt><trkpt lat="46.17235446811947" lon="9.380508508218902"><ele>204.0</ele><time>2026-05-02T12:21:00.975Z</time></trkpt><trkpt lat="46.1723199631625" lon="9.380347870483565"><ele>204.25</ele><time>2026-05-02T12:21:01.975Z</time></trkpt><trkpt lat="46.172304859797535" lon="9.380180407233876"><ele>204.5</ele><time>2026-05-02T12:21:02.974Z</time></trkpt><trkpt lat="46.172288443714194" lon="9.380015930425497"><ele>204.75</ele><time>2026-05-02T12:21:03.974Z</time></trkpt><trkpt lat="46.172262371968614" lon="9.37984605644273"><ele>205.0</ele><time>2026-05-02T12:21:04.974Z</time></trkpt><trkpt lat="46.17224307749478" lon="9.37967566566177"><ele>205.0</ele><time>2026-05-02T12:21:05.974Z</time></trkpt><trkpt lat="46.17222254713428" lon="9.37950470246906"><ele>205.0</ele><time>2026-05-02T12:21:06.974Z</time></trkpt><trkpt lat="46.17219747563847" lon="9.379330525169332"><ele>205.0</ele><time>2026-05-02T12:21:07.974Z</time></trkpt><trkpt lat="46.172177006116144" lon="9.379160915135579"><ele>205.0</ele><time>2026-05-02T12:21:08.974Z</time></trkpt><trkpt lat="46.172165539836975" lon="9.37899352506091"><ele>205.0</ele><time>2026-05-02T12:21:09.974Z</time></trkpt><trkpt lat="46.17213999832832" lon="9.378827870883084"><ele>205.0</ele><time>2026-05-02T12:21:10.974Z</time></trkpt><trkpt lat="46.17211542777535" lon="9.378658886075385"><ele>205.0</ele><time>2026-05-02T12:21:11.974Z</time></trkpt><trkpt lat="46.172099727963236" lon="9.378490466766205"><ele>205.0</ele><time>2026-05-02T12:21:12.974Z</time></trkpt><trkpt lat="46.172080785313796" lon="9.378321096765072"><ele>205.0</ele><time>2026-05-02T12:21:13.974Z</time></trkpt><trkpt lat="46.172056131277685" lon="9.378147305366644"><ele>205.0</ele><time>2026-05-02T12:21:14.974Z</time></trkpt><trkpt lat="46.17203409575324" lon="9.377963141402983"><ele>205.0</ele><time>2026-05-02T12:21:15.974Z</time></trkpt><trkpt lat="46.172009354559776" lon="9.377777244446692"><ele>205.0</ele><time>2026-05-02T12:21:16.974Z</time></trkpt><trkpt lat="46.171989524299214" lon="9.377587206496601"><ele>204.75</ele><time>2026-05-02T12:21:17.974Z</time></trkpt><trkpt lat="46.1719951398953" lon="9.377396823727084"><ele>204.5</ele><time>2026-05-02T12:21:18.974Z</time></trkpt><trkpt lat="46.17201043583355" lon="9.377214321554503"><ele>204.25</ele><time>2026-05-02T12:21:19.974Z</time></trkpt><trkpt lat="46.172043239730144" lon="9.377041276314918"><ele>204.0</ele><time>2026-05-02T12:21:20.974Z</time></trkpt><trkpt lat="46.17208499045446" lon="9.376870374217315"><ele>203.75</ele><time>2026-05-02T12:21:21.974Z</time></trkpt><trkpt lat="46.17212714310289" lon="9.37669340688292"><ele>203.5</ele><time>2026-05-02T12:21:22.974Z</time></trkpt><trkpt lat="46.17216881938044" lon="9.376518547063027"><ele>203.25</ele><time>2026-05-02T12:21:23.974Z</time></trkpt><trkpt lat="46.172210304885056" lon="9.376344487710783"><ele>203.0</ele><time>2026-05-02T12:21:24.974Z</time></trkpt><trkpt lat="46.172236499421054" lon="9.376165775458434"><ele>202.75</ele><time>2026-05-02T12:21:25.974Z</time></trkpt><trkpt lat="46.172278548035884" lon="9.37599825632153"><ele>202.5</ele><time>2026-05-02T12:21:26.974Z</time></trkpt><trkpt lat="46.17231896799113" lon="9.375833870007721"><ele>202.25</ele><time>2026-05-02T12:21:27.974Z</time></trkpt><trkpt lat="46.17235772140395" lon="9.375673436807164"><ele>202.0</ele><time>2026-05-02T12:21:28.974Z</time></trkpt><trkpt lat="46.172410372120154" lon="9.375523867495906"><ele>206.75</ele><time>2026-05-02T12:21:29.974Z</time></trkpt><trkpt lat="46.172424135210356" lon="9.375345031058327"><ele>211.5</ele><time>2026-05-02T12:21:30.975Z</time></trkpt><trkpt lat="46.172404342815504" lon="9.375157255963805"><ele>216.25</ele><time>2026-05-02T12:21:31.975Z</time></trkpt><trkpt lat="46.17238149922273" lon="9.374975257293151"><ele>221.0</ele><time>2026-05-02T12:21:32.975Z</time></trkpt><trkpt lat="46.17235955572636" lon="9.37479251771682"><ele>216.25</ele><time>2026-05-02T12:21:33.975Z</time></trkpt><trkpt lat="46.17233679662701" lon="9.374607001815185"><ele>211.5</ele><time>2026-05-02T12:21:34.975Z</time></trkpt><trkpt lat="46.17229218017151" lon="9.374428629652906"><ele>206.75</ele><time>2026-05-02T12:21:35.975Z</time></trkpt><trkpt lat="46.172263084749446" lon="9.374245269614722"><ele>202.0</ele><time>2026-05-02T12:21:36.975Z</time></trkpt><trkpt lat="46.1722294307067" lon="9.374057320678112"><ele>202.0</ele><time>2026-05-02T12:21:37.975Z</time></trkpt><trkpt lat="46.17221388053324" lon="9.37386541994343"><ele>202.0</ele><time>2026-05-02T12:21:38.975Z</time></trkpt><trkpt lat="46.172210482526225" lon="9.373674467999916"><ele>202.0</ele><time>2026-05-02T12:21:39.975Z</time></trkpt><trkpt lat="46.172199574200114" lon="9.373483995504385"><ele>202.0</ele><time>2026-05-02T12:21:40.975Z</time></trkpt><trkpt lat="46.172179868295906" lon="9.373294835404932"><ele>202.75</ele><time>2026-05-02T12:21:41.975Z</time></trkpt><trkpt lat="46.17215438377934" lon="9.373113219833055"><ele>203.5</ele><time>2026-05-02T12:21:42.975Z</time></trkpt><trkpt lat="46.172116552790214" lon="9.372938048131465"><ele>204.25</ele><time>2026-05-02T12:21:43.975Z</time></trkpt><trkpt lat="46.17206231483017" lon="9.37276984533493"><ele>205.0</ele><time>2026-05-02T12:21:44.975Z</time></trkpt><trkpt lat="46.171988393824456" lon="9.372617017678646"><ele>205.0</ele><time>2026-05-02T12:21:45.975Z</time></trkpt><trkpt lat="46.1718972174251" lon="9.372478074018632"><ele>205.0</ele><time>2026-05-02T12:21:46.975Z</time></trkpt><trkpt lat="46.17179893098262" lon="9.37236636265366"><ele>205.0</ele><time>2026-05-02T12:21:47.975Z</time></trkpt><trkpt lat="46.17169089109041" lon="9.37225936007382"><ele>205.0</ele><time>2026-05-02T12:21:48.975Z</time></trkpt><trkpt lat="46.171584177394" lon="9.372152174850878"><ele>204.75</ele><time>2026-05-02T12:21:49.975Z</time></trkpt><trkpt lat="46.1714780029752" lon="9.37203873708561"><ele>204.5</ele><time>2026-05-02T12:21:50.975Z</time></trkpt><trkpt lat="46.171373033430314" lon="9.371927051613493"><ele>204.25</ele><time>2026-05-02T12:21:51.975Z</time></trkpt><trkpt lat="46.17127022119515" lon="9.371814473306326"><ele>204.0</ele><time>2026-05-02T12:21:52.975Z</time></trkpt><trkpt lat="46.171170943574936" lon="9.371706346558891"><ele>204.0</ele><time>2026-05-02T12:21:53.975Z</time></trkpt><trkpt lat="46.17107054523457" lon="9.371606721133212"><ele>204.0</ele><time>2026-05-02T12:21:54.975Z</time></trkpt><trkpt lat="46.17096085975446" lon="9.371518531824298"><ele>204.0</ele><time>2026-05-02T12:21:55.975Z</time></trkpt><trkpt lat="46.17084545817491" lon="9.37145026507706"><ele>204.0</ele><time>2026-05-02T12:21:56.975Z</time></trkpt><trkpt lat="46.170731392160306" lon="9.371373532473799"><ele>204.75</ele><time>2026-05-02T12:21:57.975Z</time></trkpt><trkpt lat="46.170609805761266" lon="9.371332070468059"><ele>205.5</ele><time>2026-05-02T12:21:58.975Z</time></trkpt><trkpt lat="46.17048337991472" lon="9.371334067917994"><ele>206.25</ele><time>2026-05-02T12:21:59.975Z</time></trkpt><trkpt lat="46.17036486093918" lon="9.371299249240357"><ele>207.0</ele><time>2026-05-02T12:22:00.975Z</time></trkpt><trkpt lat="46.17023857687365" lon="9.371283427174461"><ele>207.0</ele><time>2026-05-02T12:22:01.975Z</time></trkpt><trkpt lat="46.170109507843186" lon="9.371254741555587"><ele>207.0</ele><time>2026-05-02T12:22:02.975Z</time></trkpt><trkpt lat="46.169977280357315" lon="9.371229708469043"><ele>207.0</ele><time>2026-05-02T12:22:03.975Z</time></trkpt><trkpt lat="46.16985291323905" lon="9.371186440431847"><ele>207.0</ele><time>2026-05-02T12:22:04.975Z</time></trkpt><trkpt lat="46.1697325297955" lon="9.371140282643026"><ele>206.2</ele><time>2026-05-02T12:22:05.975Z</time></trkpt><trkpt lat="46.16961823493574" lon="9.371086803077398"><ele>205.39999999999998</ele><time>2026-05-02T12:22:06.975Z</time></trkpt><trkpt lat="46.16951080298747" lon="9.371042406111997"><ele>204.60000000000002</ele><time>2026-05-02T12:22:07.975Z</time></trkpt><trkpt lat="46.16941749210794" lon="9.37098751956749"><ele>203.8</ele><time>2026-05-02T12:22:08.975Z</time></trkpt><trkpt lat="46.16933162534499" lon="9.370926771271884"><ele>203.0</ele><time>2026-05-02T12:22:09.975Z</time></trkpt><trkpt lat="46.16926520178541" lon="9.370822966867825"><ele>203.0</ele><time>2026-05-02T12:22:10.975Z</time></trkpt><trkpt lat="46.169206677308765" lon="9.370703821916424"><ele>203.0</ele><time>2026-05-02T12:22:11.975Z</time></trkpt><trkpt lat="46.169165694798025" lon="9.370564661264783"><ele>203.0</ele><time>2026-05-02T12:22:12.975Z</time></trkpt><trkpt lat="46.16910090292131" lon="9.370447015375126"><ele>203.0</ele><time>2026-05-02T12:22:13.975Z</time></trkpt><trkpt lat="46.16905172703579" lon="9.370307021548943"><ele>203.0</ele><time>2026-05-02T12:22:14.975Z</time></trkpt><trkpt lat="46.169007502553896" lon="9.370167687307447"><ele>203.25</ele><time>2026-05-02T12:22:15.975Z</time></trkpt><trkpt lat="46.16898237213832" lon="9.370007249095844"><ele>203.5</ele><time>2026-05-02T12:22:16.975Z</time></trkpt><trkpt lat="46.168927836981034" lon="9.369856196315265"><ele>203.75</ele><time>2026-05-02T12:22:17.975Z</time></trkpt><trkpt lat="46.168905350647464" lon="9.369683059224991"><ele>204.0</ele><time>2026-05-02T12:22:18.975Z</time></trkpt><trkpt lat="46.168871593051676" lon="9.369515124946666"><ele>204.0</ele><time>2026-05-02T12:22:19.975Z</time></trkpt><trkpt lat="46.16884507112619" lon="9.36934246625948"><ele>204.0</ele><time>2026-05-02T12:22:20.975Z</time></trkpt><trkpt lat="46.168829009676514" lon="9.369169521196449"><ele>204.0</ele><time>2026-05-02T12:22:21.975Z</time></trkpt><trkpt lat="46.168821809910156" lon="9.368995042542833"><ele>204.0</ele><time>2026-05-02T12:22:22.975Z</time></trkpt><trkpt lat="46.16882530550696" lon="9.368823192365058"><ele>204.25</ele><time>2026-05-02T12:22:23.975Z</time></trkpt><trkpt lat="46.1688355826263" lon="9.36865204032917"><ele>204.5</ele><time>2026-05-02T12:22:24.975Z</time></trkpt><trkpt lat="46.16885761467791" lon="9.368482963852681"><ele>204.75</ele><time>2026-05-02T12:22:25.975Z</time></trkpt><trkpt lat="46.168888667940834" lon="9.36831742206879"><ele>205.0</ele><time>2026-05-02T12:22:26.975Z</time></trkpt><trkpt lat="46.16892324837351" lon="9.368147413080276"><ele>204.8</ele><time>2026-05-02T12:22:27.975Z</time></trkpt><trkpt lat="46.16895769118099" lon="9.367977653115265"><ele>204.6</ele><time>2026-05-02T12:22:28.975Z</time></trkpt><trkpt lat="46.16899123465669" lon="9.367810545693642"><ele>204.39999999999998</ele><time>2026-05-02T12:22:29.975Z</time></trkpt><trkpt lat="46.16902192470658" lon="9.367662677754772"><ele>204.2</ele><time>2026-05-02T12:22:30.975Z</time></trkpt><trkpt lat="46.16905161880753" lon="9.367529745321871"><ele>204.0</ele><time>2026-05-02T12:22:31.976Z</time></trkpt><trkpt lat="46.169076683887134" lon="9.367408898901719"><ele>205.5</ele><time>2026-05-02T12:22:32.976Z</time></trkpt><trkpt lat="46.169096504677114" lon="9.367306015683477"><ele>207.0</ele><time>2026-05-02T12:22:33.976Z</time></trkpt><trkpt lat="46.16911429432274" lon="9.367218529242884"><ele>208.5</ele><time>2026-05-02T12:22:34.976Z</time></trkpt><trkpt lat="46.16913673472607" lon="9.36709585006336"><ele>210.0</ele><time>2026-05-02T12:22:36.976Z</time></trkpt><trkpt lat="46.169201913067404" lon="9.367067359837806"><ele>211.5</ele><time>2026-05-02T12:22:39.976Z</time></trkpt><trkpt lat="46.16923804634781" lon="9.367221570623855"><ele>213.0</ele><time>2026-05-02T12:22:42.976Z</time></trkpt><trkpt lat="46.16928362301598" lon="9.367372992774001"><ele>213.33333333333334</ele><time>2026-05-02T12:22:44.976Z</time></trkpt><trkpt lat="46.16932948102911" lon="9.36745409887683"><ele>213.66666666666669</ele><time>2026-05-02T12:22:45.976Z</time></trkpt><trkpt lat="46.16938404090214" lon="9.367516540437363"><ele>214.0</ele><time>2026-05-02T12:22:46.976Z</time></trkpt><trkpt lat="46.16945248169091" lon="9.367562938349028"><ele>214.33333333333334</ele><time>2026-05-02T12:22:47.976Z</time></trkpt><trkpt lat="46.16952701772822" lon="9.367616268602447"><ele>214.66666666666669</ele><time>2026-05-02T12:22:48.976Z</time></trkpt><trkpt lat="46.169598731913894" lon="9.36767538770037"><ele>215.0</ele><time>2026-05-02T12:22:49.976Z</time></trkpt><trkpt lat="46.16966914889258" lon="9.367723310901216"><ele>215.0</ele><time>2026-05-02T12:22:50.976Z</time></trkpt><trkpt lat="46.16973069882165" lon="9.367777310425243"><ele>215.0</ele><time>2026-05-02T12:22:51.976Z</time></trkpt><trkpt lat="46.16978595686753" lon="9.36784300337219"><ele>215.0</ele><time>2026-05-02T12:22:52.976Z</time></trkpt><trkpt lat="46.16983576730811" lon="9.367917364080418"><ele>215.0</ele><time>2026-05-02T12:22:53.976Z</time></trkpt><trkpt lat="46.169883847257644" lon="9.367999292936345"><ele>215.0</ele><time>2026-05-02T12:22:54.976Z</time></trkpt><trkpt lat="46.16992815203029" lon="9.368085856706557"><ele>215.0</ele><time>2026-05-02T12:22:55.976Z</time></trkpt><trkpt lat="46.169975333552905" lon="9.36816528187535"><ele>215.0</ele><time>2026-05-02T12:22:56.974Z</time></trkpt><trkpt lat="46.17001969473385" lon="9.368240156911778"><ele>216.28571428571428</ele><time>2026-05-02T12:22:57.974Z</time></trkpt><trkpt lat="46.1700643160994" lon="9.368315866894445"><ele>217.57142857142858</ele><time>2026-05-02T12:22:58.974Z</time></trkpt><trkpt lat="46.170104170280396" lon="9.368393692916094"><ele>218.85714285714286</ele><time>2026-05-02T12:22:59.973Z</time></trkpt><trkpt lat="46.17014383182606" lon="9.368469524806876"><ele>220.14285714285714</ele><time>2026-05-02T12:23:00.974Z</time></trkpt><trkpt lat="46.17019976458825" lon="9.368526078627834"><ele>221.42857142857144</ele><time>2026-05-02T12:23:01.974Z</time></trkpt><trkpt lat="46.170269192995285" lon="9.368555429488943"><ele>222.71428571428572</ele><time>2026-05-02T12:23:02.974Z</time></trkpt><trkpt lat="46.17034595149218" lon="9.368565288114436"><ele>224.0</ele><time>2026-05-02T12:23:03.974Z</time></trkpt><trkpt lat="46.17042154880596" lon="9.368558029804317"><ele>224.00000000000003</ele><time>2026-05-02T12:23:04.974Z</time></trkpt><trkpt lat="46.170494908510605" lon="9.368542146734484"><ele>224.0</ele><time>2026-05-02T12:23:05.974Z</time></trkpt><trkpt lat="46.17056091504069" lon="9.368547146958258"><ele>224.0</ele><time>2026-05-02T12:23:06.973Z</time></trkpt><trkpt lat="46.1706195040414" lon="9.368581571933278"><ele>224.0</ele><time>2026-05-02T12:23:07.973Z</time></trkpt><trkpt lat="46.17071139414406" lon="9.368718140266473"><ele>224.00000000000003</ele><time>2026-05-02T12:23:09.973Z</time></trkpt><trkpt lat="46.17077298979971" lon="9.368792959139927"><ele>224.0</ele><time>2026-05-02T12:23:10.973Z</time></trkpt><trkpt lat="46.17085809651891" lon="9.368843579079785"><ele>224.66666666666669</ele><time>2026-05-02T12:23:11.973Z</time></trkpt><trkpt lat="46.17093820876836" lon="9.368882159767065"><ele>225.33333333333334</ele><time>2026-05-02T12:23:12.973Z</time></trkpt><trkpt lat="46.1710234830363" lon="9.368915951412644"><ele>226.0</ele><time>2026-05-02T12:23:13.973Z</time></trkpt><trkpt lat="46.17111234729162" lon="9.368946983614153"><ele>226.66666666666669</ele><time>2026-05-02T12:23:14.973Z</time></trkpt><trkpt lat="46.171198978706215" lon="9.368971015472782"><ele>227.33333333333334</ele><time>2026-05-02T12:23:15.973Z</time></trkpt><trkpt lat="46.17128262987243" lon="9.368994009930248"><ele>228.0</ele><time>2026-05-02T12:23:16.973Z</time></trkpt><trkpt lat="46.171348843201756" lon="9.369021182077422"><ele>228.0</ele><time>2026-05-02T12:23:17.973Z</time></trkpt><trkpt lat="46.17142476270381" lon="9.369025942324786"><ele>228.0</ele><time>2026-05-02T12:23:18.973Z</time></trkpt><trkpt lat="46.171500610981624" lon="9.3690145516673"><ele>228.0</ele><time>2026-05-02T12:23:19.973Z</time></trkpt><trkpt lat="46.1715776643583" lon="9.36898076548542"><ele>228.0</ele><time>2026-05-02T12:23:20.973Z</time></trkpt><trkpt lat="46.17165717561312" lon="9.368944381211724"><ele>228.0</ele><time>2026-05-02T12:23:21.973Z</time></trkpt><trkpt lat="46.17173267985206" lon="9.368902035662753"><ele>228.0</ele><time>2026-05-02T12:23:22.973Z</time></trkpt><trkpt lat="46.17181197589136" lon="9.368865200195636"><ele>229.8</ele><time>2026-05-02T12:23:23.973Z</time></trkpt><trkpt lat="46.17188889593812" lon="9.368864954925442"><ele>231.60000000000002</ele><time>2026-05-02T12:23:24.973Z</time></trkpt><trkpt lat="46.17196955733684" lon="9.368900249662953"><ele>233.39999999999998</ele><time>2026-05-02T12:23:25.973Z</time></trkpt><trkpt lat="46.17206305965752" lon="9.36895164368145"><ele>235.2</ele><time>2026-05-02T12:23:26.973Z</time></trkpt><trkpt lat="46.17215723807492" lon="9.36899535468254"><ele>237.0</ele><time>2026-05-02T12:23:27.973Z</time></trkpt><trkpt lat="46.17225959986273" lon="9.36903722593344"><ele>239.6</ele><time>2026-05-02T12:23:28.973Z</time></trkpt><trkpt lat="46.172358849894316" lon="9.369088680985241"><ele>242.2</ele><time>2026-05-02T12:23:29.973Z</time></trkpt><trkpt lat="46.17244977405449" lon="9.369157084600957"><ele>244.8</ele><time>2026-05-02T12:23:30.974Z</time></trkpt><trkpt lat="46.17251393580819" lon="9.369250336031214"><ele>247.4</ele><time>2026-05-02T12:23:31.974Z</time></trkpt><trkpt lat="46.17257161815511" lon="9.369356604879195"><ele>250.0</ele><time>2026-05-02T12:23:32.974Z</time></trkpt><trkpt lat="46.172633605979506" lon="9.36945332312943"><ele>249.99999999999997</ele><time>2026-05-02T12:23:33.974Z</time></trkpt><trkpt lat="46.17270970829212" lon="9.369524010233853"><ele>250.0</ele><time>2026-05-02T12:23:34.974Z</time></trkpt><trkpt lat="46.172793439199054" lon="9.369583270810754"><ele>250.0</ele><time>2026-05-02T12:23:35.974Z</time></trkpt><trkpt lat="46.172872534724156" lon="9.369649578497203"><ele>250.0</ele><time>2026-05-02T12:23:36.974Z</time></trkpt><trkpt lat="46.17294449650041" lon="9.36971411961738"><ele>249.99999999999997</ele><time>2026-05-02T12:23:37.974Z</time></trkpt><trkpt lat="46.17299840028816" lon="9.369779980961393"><ele>250.0</ele><time>2026-05-02T12:23:38.974Z</time></trkpt><trkpt lat="46.17304815349753" lon="9.369850545232337"><ele>247.99999999999997</ele><time>2026-05-02T12:23:39.974Z</time></trkpt><trkpt lat="46.17307240389584" lon="9.36994417675115"><ele>246.0</ele><time>2026-05-02T12:23:40.974Z</time></trkpt><trkpt lat="46.173076559032026" lon="9.37005030141906"><ele>244.0</ele><time>2026-05-02T12:23:41.974Z</time></trkpt><trkpt lat="46.17309104836066" lon="9.370175376407852"><ele>242.0</ele><time>2026-05-02T12:23:42.974Z</time></trkpt><trkpt lat="46.17310827907314" lon="9.370298307827017"><ele>239.99999999999997</ele><time>2026-05-02T12:23:43.974Z</time></trkpt><trkpt lat="46.17313176776929" lon="9.37043527591557"><ele>238.0</ele><time>2026-05-02T12:23:44.974Z</time></trkpt><trkpt lat="46.17316511228829" lon="9.370576735375113"><ele>242.33333333333331</ele><time>2026-05-02T12:23:45.974Z</time></trkpt><trkpt lat="46.17319831398042" lon="9.3707163711036"><ele>246.66666666666666</ele><time>2026-05-02T12:23:46.974Z</time></trkpt><trkpt lat="46.17322315374383" lon="9.37083204898432"><ele>251.0</ele><time>2026-05-02T12:23:47.974Z</time></trkpt><trkpt lat="46.17325871708381" lon="9.370960173053541"><ele>255.33333333333331</ele><time>2026-05-02T12:23:49.974Z</time></trkpt><trkpt lat="46.17333880840273" lon="9.37097575315715"><ele>259.6666666666667</ele><time>2026-05-02T12:23:52.974Z</time></trkpt><trkpt lat="46.173371477813184" lon="9.37088492459158"><ele>264.0</ele><time>2026-05-02T12:23:53.974Z</time></trkpt><trkpt lat="46.17332665163151" lon="9.370751250593639"><ele>264.0</ele><time>2026-05-02T12:23:54.974Z</time></trkpt><trkpt lat="46.17330523791125" lon="9.370657581085776"><ele>264.0</ele><time>2026-05-02T12:23:55.974Z</time></trkpt><trkpt lat="46.17328284289235" lon="9.370549755656139"><ele>264.0</ele><time>2026-05-02T12:23:56.974Z</time></trkpt><trkpt lat="46.17326333620085" lon="9.370448068104563"><ele>264.0</ele><time>2026-05-02T12:23:57.974Z</time></trkpt><trkpt lat="46.173248818969654" lon="9.370354073784888"><ele>264.0</ele><time>2026-05-02T12:23:58.974Z</time></trkpt><trkpt lat="46.17324942510721" lon="9.370251009976629"><ele>264.0</ele><time>2026-05-02T12:23:59.974Z</time></trkpt><trkpt lat="46.17327114032529" lon="9.370142981528387"><ele>264.0</ele><time>2026-05-02T12:24:00.974Z</time></trkpt><trkpt lat="46.17330620342103" lon="9.370046349074983"><ele>264.85714285714283</ele><time>2026-05-02T12:24:01.974Z</time></trkpt><trkpt lat="46.17333011572649" lon="9.369951361047365"><ele>265.7142857142857</ele><time>2026-05-02T12:24:02.974Z</time></trkpt><trkpt lat="46.173328195724075" lon="9.36984970530183"><ele>266.57142857142856</ele><time>2026-05-02T12:24:03.974Z</time></trkpt><trkpt lat="46.173306276012" lon="9.369748960547819"><ele>267.42857142857144</ele><time>2026-05-02T12:24:04.974Z</time></trkpt><trkpt lat="46.173271640359246" lon="9.369655269491547"><ele>268.2857142857143</ele><time>2026-05-02T12:24:05.974Z</time></trkpt><trkpt lat="46.17324387469199" lon="9.369562586890728"><ele>269.1428571428571</ele><time>2026-05-02T12:24:06.974Z</time></trkpt><trkpt lat="46.173225628196086" lon="9.369468093896863"><ele>270.0</ele><time>2026-05-02T12:24:07.974Z</time></trkpt><trkpt lat="46.173213454414" lon="9.369366081276835"><ele>271.42857142857144</ele><time>2026-05-02T12:24:08.974Z</time></trkpt><trkpt lat="46.173206252357716" lon="9.369268920749812"><ele>272.85714285714283</ele><time>2026-05-02T12:24:09.974Z</time></trkpt><trkpt lat="46.1731514508551" lon="9.369195996945734"><ele>274.2857142857143</ele><time>2026-05-02T12:24:10.974Z</time></trkpt><trkpt lat="46.173098204760834" lon="9.36912828081803"><ele>275.7142857142857</ele><time>2026-05-02T12:24:11.974Z</time></trkpt><trkpt lat="46.173056727638105" lon="9.369046013445711"><ele>277.1428571428571</ele><time>2026-05-02T12:24:12.974Z</time></trkpt><trkpt lat="46.17301288017277" lon="9.368974805550229"><ele>278.57142857142856</ele><time>2026-05-02T12:24:13.974Z</time></trkpt><trkpt lat="46.172976841214016" lon="9.368883355485126"><ele>280.0</ele><time>2026-05-02T12:24:14.974Z</time></trkpt><trkpt lat="46.17295171599135" lon="9.368774573661018"><ele>276.66666666666663</ele><time>2026-05-02T12:24:15.974Z</time></trkpt><trkpt lat="46.17293499811685" lon="9.368658515033632"><ele>273.3333333333333</ele><time>2026-05-02T12:24:16.974Z</time></trkpt><trkpt lat="46.17292710573262" lon="9.368547417665404"><ele>270.0</ele><time>2026-05-02T12:24:17.974Z</time></trkpt><trkpt lat="46.17291755243823" lon="9.368424096778327"><ele>266.6666666666667</ele><time>2026-05-02T12:24:18.974Z</time></trkpt><trkpt lat="46.172892271943454" lon="9.36830462374212"><ele>263.33333333333337</ele><time>2026-05-02T12:24:19.974Z</time></trkpt><trkpt lat="46.172884166946595" lon="9.368193714797433"><ele>260.0</ele><time>2026-05-02T12:24:20.974Z</time></trkpt><trkpt lat="46.17289686127958" lon="9.368101673738753"><ele>260.0</ele><time>2026-05-02T12:24:21.974Z</time></trkpt><trkpt lat="46.1729014969375" lon="9.367995503070155"><ele>260.0</ele><time>2026-05-02T12:24:24.974Z</time></trkpt><trkpt lat="46.172957060352395" lon="9.368121795452693"><ele>260.0</ele><time>2026-05-02T12:24:27.974Z</time></trkpt><trkpt lat="46.17295868013867" lon="9.368225659276742"><ele>260.0</ele><time>2026-05-02T12:24:28.974Z</time></trkpt><trkpt lat="46.172972342935545" lon="9.368321773937437"><ele>260.0</ele><time>2026-05-02T12:24:29.974Z</time></trkpt><trkpt lat="46.17298863252689" lon="9.368424765874872"><ele>260.0</ele><time>2026-05-02T12:24:30.975Z</time></trkpt><trkpt lat="46.1730175374223" lon="9.368520820576379"><ele>260.0</ele><time>2026-05-02T12:24:31.975Z</time></trkpt><trkpt lat="46.17306236411154" lon="9.368605992012686"><ele>260.0</ele><time>2026-05-02T12:24:32.975Z</time></trkpt><trkpt lat="46.17312279461137" lon="9.368673685751311"><ele>260.0</ele><time>2026-05-02T12:24:33.975Z</time></trkpt><trkpt lat="46.17320184814899" lon="9.368733044788838"><ele>260.0</ele><time>2026-05-02T12:24:34.975Z</time></trkpt><trkpt lat="46.17327574013013" lon="9.368793432241892"><ele>260.0</ele><time>2026-05-02T12:24:35.975Z</time></trkpt><trkpt lat="46.17334034424509" lon="9.36887208431535"><ele>260.0</ele><time>2026-05-02T12:24:36.975Z</time></trkpt><trkpt lat="46.17338947591212" lon="9.368955930034844"><ele>263.33333333333337</ele><time>2026-05-02T12:24:37.975Z</time></trkpt><trkpt lat="46.17343442025181" lon="9.369042608686327"><ele>266.6666666666667</ele><time>2026-05-02T12:24:38.975Z</time></trkpt><trkpt lat="46.17348365264419" lon="9.369114819117588"><ele>270.0</ele><time>2026-05-02T12:24:39.975Z</time></trkpt><trkpt lat="46.173599426361875" lon="9.369126732701961"><ele>273.3333333333333</ele><time>2026-05-02T12:24:41.975Z</time></trkpt><trkpt lat="46.173670250361454" lon="9.36910562623429"><ele>276.66666666666663</ele><time>2026-05-02T12:24:42.975Z</time></trkpt><trkpt lat="46.173766133915045" lon="9.369199030344657"><ele>280.0</ele><time>2026-05-02T12:24:44.975Z</time></trkpt><trkpt lat="46.17378205420611" lon="9.369298510544105"><ele>280.0</ele><time>2026-05-02T12:24:45.975Z</time></trkpt><trkpt lat="46.17379643442908" lon="9.369419020070293"><ele>280.0</ele><time>2026-05-02T12:24:46.975Z</time></trkpt><trkpt lat="46.173812605895755" lon="9.36955389840534"><ele>280.0</ele><time>2026-05-02T12:24:47.975Z</time></trkpt><trkpt lat="46.173824559194045" lon="9.369685054633154"><ele>280.0</ele><time>2026-05-02T12:24:48.975Z</time></trkpt><trkpt lat="46.173847323057245" lon="9.369803901213468"><ele>280.0</ele><time>2026-05-02T12:24:49.975Z</time></trkpt><trkpt lat="46.17390207723461" lon="9.369909876576031"><ele>280.0</ele><time>2026-05-02T12:24:50.975Z</time></trkpt><trkpt lat="46.173960342456176" lon="9.370017268920677"><ele>278.0</ele><time>2026-05-02T12:24:51.975Z</time></trkpt><trkpt lat="46.17400358068524" lon="9.370121667700385"><ele>276.0</ele><time>2026-05-02T12:24:52.975Z</time></trkpt><trkpt lat="46.17400496986317" lon="9.370240896156048"><ele>274.0</ele><time>2026-05-02T12:24:53.975Z</time></trkpt><trkpt lat="46.17398192848813" lon="9.370360911998466"><ele>272.0</ele><time>2026-05-02T12:24:54.975Z</time></trkpt><trkpt lat="46.173962705459616" lon="9.370496888871376"><ele>270.0</ele><time>2026-05-02T12:24:55.975Z</time></trkpt><trkpt lat="46.1739741682234" lon="9.370643788279022"><ele>268.8</ele><time>2026-05-02T12:24:56.975Z</time></trkpt><trkpt lat="46.17400727761178" lon="9.370794953033721"><ele>267.6</ele><time>2026-05-02T12:24:57.975Z</time></trkpt><trkpt lat="46.174047803528175" lon="9.370952186281517"><ele>266.4</ele><time>2026-05-02T12:24:58.975Z</time></trkpt><trkpt lat="46.17408562057884" lon="9.37110241895953"><ele>265.2</ele><time>2026-05-02T12:24:59.975Z</time></trkpt><trkpt lat="46.17411384475003" lon="9.371239098126841"><ele>264.0</ele><time>2026-05-02T12:25:00.975Z</time></trkpt><trkpt lat="46.174148712597166" lon="9.371383412824818"><ele>272.0</ele><time>2026-05-02T12:25:01.975Z</time></trkpt><trkpt lat="46.17417384306633" lon="9.371534392781845"><ele>280.0</ele><time>2026-05-02T12:25:02.973Z</time></trkpt><trkpt lat="46.174182357491716" lon="9.371685506172302"><ele>288.0</ele><time>2026-05-02T12:25:03.972Z</time></trkpt><trkpt lat="46.174181447799334" lon="9.371839761261123"><ele>296.0</ele><time>2026-05-02T12:25:04.972Z</time></trkpt><trkpt lat="46.17419467939565" lon="9.37199950826166"><ele>304.0</ele><time>2026-05-02T12:25:05.972Z</time></trkpt><trkpt lat="46.17422172186594" lon="9.372156045662825"><ele>303.0</ele><time>2026-05-02T12:25:06.972Z</time></trkpt><trkpt lat="46.17424891691451" lon="9.372321342664332"><ele>302.0</ele><time>2026-05-02T12:25:07.972Z</time></trkpt><trkpt lat="46.17427751612279" lon="9.372490093880241"><ele>301.0</ele><time>2026-05-02T12:25:08.973Z</time></trkpt><trkpt lat="46.17430715980915" lon="9.372664525553866"><ele>300.0</ele><time>2026-05-02T12:25:09.972Z</time></trkpt><trkpt lat="46.17433412621339" lon="9.37283362856476"><ele>300.0</ele><time>2026-05-02T12:25:10.972Z</time></trkpt><trkpt lat="46.174327729747965" lon="9.37300212250642"><ele>300.0</ele><time>2026-05-02T12:25:11.972Z</time></trkpt><trkpt lat="46.17435968705346" lon="9.373164476442009"><ele>300.0</ele><time>2026-05-02T12:25:12.972Z</time></trkpt><trkpt lat="46.17439991992268" lon="9.373335671134003"><ele>300.0</ele><time>2026-05-02T12:25:13.972Z</time></trkpt><trkpt lat="46.17444896328411" lon="9.373509929978518"><ele>300.0</ele><time>2026-05-02T12:25:14.972Z</time></trkpt><trkpt lat="46.17450068284236" lon="9.373683010143326"><ele>300.0</ele><time>2026-05-02T12:25:15.972Z</time></trkpt><trkpt lat="46.17454330064954" lon="9.37387100167607"><ele>300.0</ele><time>2026-05-02T12:25:16.972Z</time></trkpt><trkpt lat="46.17457485808926" lon="9.374061687989952"><ele>300.0</ele><time>2026-05-02T12:25:17.972Z</time></trkpt><trkpt lat="46.174609699431215" lon="9.37425565002385"><ele>301.5</ele><time>2026-05-02T12:25:18.972Z</time></trkpt><trkpt lat="46.17464397938951" lon="9.374435131528822"><ele>303.0</ele><time>2026-05-02T12:25:19.972Z</time></trkpt><trkpt lat="46.174678535079565" lon="9.374606678850148"><ele>304.5</ele><time>2026-05-02T12:25:20.973Z</time></trkpt><trkpt lat="46.17471392310596" lon="9.37476043283191"><ele>306.0</ele><time>2026-05-02T12:25:21.973Z</time></trkpt><trkpt lat="46.17473413966846" lon="9.374902794505326"><ele>306.0</ele><time>2026-05-02T12:25:22.973Z</time></trkpt><trkpt lat="46.174756436176196" lon="9.375004756604934"><ele>306.0</ele><time>2026-05-02T12:25:23.973Z</time></trkpt><trkpt lat="46.17476366078268" lon="9.375103107361705"><ele>306.0</ele><time>2026-05-02T12:25:24.973Z</time></trkpt><trkpt lat="46.174768388354" lon="9.37525641966118"><ele>306.0</ele><time>2026-05-02T12:25:26.973Z</time></trkpt><trkpt lat="46.174861265117215" lon="9.37531771467696"><ele>306.0</ele><time>2026-05-02T12:25:28.973Z</time></trkpt><trkpt lat="46.17491363961164" lon="9.375155271678395"><ele>312.20000000000005</ele><time>2026-05-02T12:25:30.973Z</time></trkpt><trkpt lat="46.17489098411274" lon="9.375034213015525"><ele>318.40000000000003</ele><time>2026-05-02T12:25:31.973Z</time></trkpt><trkpt lat="46.17488461463466" lon="9.374883329520642"><ele>324.6</ele><time>2026-05-02T12:25:32.973Z</time></trkpt><trkpt lat="46.174873072009255" lon="9.374723245076359"><ele>330.8</ele><time>2026-05-02T12:25:33.973Z</time></trkpt><trkpt lat="46.17486449469108" lon="9.374549288653593"><ele>337.0</ele><time>2026-05-02T12:25:34.973Z</time></trkpt><trkpt lat="46.17485628107539" lon="9.374388363709086"><ele>337.0</ele><time>2026-05-02T12:25:35.973Z</time></trkpt><trkpt lat="46.174849515458355" lon="9.37425652562984"><ele>337.0</ele><time>2026-05-02T12:25:36.973Z</time></trkpt><trkpt lat="46.17484862654524" lon="9.374125241792633"><ele>337.0</ele><time>2026-05-02T12:25:37.973Z</time></trkpt><trkpt lat="46.17486743104223" lon="9.37399507494725"><ele>337.0</ele><time>2026-05-02T12:25:38.973Z</time></trkpt><trkpt lat="46.1749179464377" lon="9.373877346040818"><ele>337.0</ele><time>2026-05-02T12:25:39.973Z</time></trkpt><trkpt lat="46.174950063478505" lon="9.373755085186723"><ele>338.40000000000003</ele><time>2026-05-02T12:25:40.973Z</time></trkpt><trkpt lat="46.174950575839965" lon="9.373610978505923"><ele>339.8</ele><time>2026-05-02T12:25:41.973Z</time></trkpt><trkpt lat="46.17495341081417" lon="9.373452421071113"><ele>341.2</ele><time>2026-05-02T12:25:42.973Z</time></trkpt><trkpt lat="46.17495344406686" lon="9.373293064621139"><ele>342.6</ele><time>2026-05-02T12:25:43.973Z</time></trkpt><trkpt lat="46.17496478555939" lon="9.373146732238052"><ele>344.0</ele><time>2026-05-02T12:25:44.973Z</time></trkpt><trkpt lat="46.17498292263148" lon="9.373012807600492"><ele>344.4</ele><time>2026-05-02T12:25:45.973Z</time></trkpt><trkpt lat="46.174985947556216" lon="9.372874345205167"><ele>344.79999999999995</ele><time>2026-05-02T12:25:46.973Z</time></trkpt><trkpt lat="46.17497132036819" lon="9.372732529714071"><ele>345.20000000000005</ele><time>2026-05-02T12:25:47.973Z</time></trkpt><trkpt lat="46.1749588078882" lon="9.37260855959088"><ele>345.6</ele><time>2026-05-02T12:25:48.973Z</time></trkpt><trkpt lat="46.17495601630086" lon="9.372502806736195"><ele>346.0</ele><time>2026-05-02T12:25:49.973Z</time></trkpt><trkpt lat="46.174969329431185" lon="9.372320623287097"><ele>346.0</ele><time>2026-05-02T12:25:51.973Z</time></trkpt><trkpt lat="46.17497346540135" lon="9.372227454881017"><ele>346.0</ele><time>2026-05-02T12:25:52.973Z</time></trkpt><trkpt lat="46.174970021684985" lon="9.372131004734284"><ele>346.0</ele><time>2026-05-02T12:25:53.973Z</time></trkpt><trkpt lat="46.174971040676986" lon="9.372030475367497"><ele>346.0</ele><time>2026-05-02T12:25:54.973Z</time></trkpt><trkpt lat="46.17500162328436" lon="9.371866252793987"><ele>346.0</ele><time>2026-05-02T12:25:56.973Z</time></trkpt><trkpt lat="46.17504534831265" lon="9.371792431625027"><ele>346.0</ele><time>2026-05-02T12:25:57.973Z</time></trkpt><trkpt lat="46.175098512873184" lon="9.371725303581654"><ele>345.8333333333333</ele><time>2026-05-02T12:25:58.973Z</time></trkpt><trkpt lat="46.17514355224206" lon="9.371645776525723"><ele>345.66666666666663</ele><time>2026-05-02T12:25:59.973Z</time></trkpt><trkpt lat="46.17515448373063" lon="9.371542360689201"><ele>345.5</ele><time>2026-05-02T12:26:00.973Z</time></trkpt><trkpt lat="46.1751459042651" lon="9.371423750860867"><ele>345.3333333333333</ele><time>2026-05-02T12:26:01.973Z</time></trkpt><trkpt lat="46.17510998161198" lon="9.371317353223043"><ele>345.1666666666667</ele><time>2026-05-02T12:26:02.973Z</time></trkpt><trkpt lat="46.17506547054829" lon="9.371220045274281"><ele>345.0</ele><time>2026-05-02T12:26:03.973Z</time></trkpt><trkpt lat="46.175031680619" lon="9.371125594940114"><ele>346.0</ele><time>2026-05-02T12:26:04.973Z</time></trkpt><trkpt lat="46.174992664146515" lon="9.371026870568832"><ele>347.0</ele><time>2026-05-02T12:26:05.973Z</time></trkpt><trkpt lat="46.17498815421408" lon="9.370912621088639"><ele>348.0</ele><time>2026-05-02T12:26:06.973Z</time></trkpt><trkpt lat="46.17500467004449" lon="9.370780736827031"><ele>349.0</ele><time>2026-05-02T12:26:07.973Z</time></trkpt><trkpt lat="46.17497506022946" lon="9.370651512024788"><ele>350.0</ele><time>2026-05-02T12:26:08.973Z</time></trkpt><trkpt lat="46.174950972875315" lon="9.370512291303156"><ele>351.0</ele><time>2026-05-02T12:26:09.973Z</time></trkpt><trkpt lat="46.17492545772418" lon="9.370373223332015"><ele>352.6</ele><time>2026-05-02T12:26:10.973Z</time></trkpt><trkpt lat="46.17492184137474" lon="9.370234931459853"><ele>354.20000000000005</ele><time>2026-05-02T12:26:11.973Z</time></trkpt><trkpt lat="46.17492872483926" lon="9.37009220556827"><ele>355.79999999999995</ele><time>2026-05-02T12:26:12.973Z</time></trkpt><trkpt lat="46.17495433415717" lon="9.369951782850078"><ele>357.4</ele><time>2026-05-02T12:26:13.973Z</time></trkpt><trkpt lat="46.17499393039229" lon="9.369821992802123"><ele>359.0</ele><time>2026-05-02T12:26:14.973Z</time></trkpt><trkpt lat="46.17501798862618" lon="9.369683579169982"><ele>360.33333333333337</ele><time>2026-05-02T12:26:15.973Z</time></trkpt><trkpt lat="46.17501839336334" lon="9.369547068165392"><ele>361.6666666666667</ele><time>2026-05-02T12:26:16.973Z</time></trkpt><trkpt lat="46.174988786985715" lon="9.36943399566417"><ele>363.0</ele><time>2026-05-02T12:26:17.973Z</time></trkpt><trkpt lat="46.17496291644052" lon="9.369340347243229"><ele>364.3333333333333</ele><time>2026-05-02T12:26:18.973Z</time></trkpt><trkpt lat="46.17495553202073" lon="9.369239379673393"><ele>365.66666666666663</ele><time>2026-05-02T12:26:19.973Z</time></trkpt><trkpt lat="46.17496167553035" lon="9.36914088171588"><ele>367.0</ele><time>2026-05-02T12:26:20.973Z</time></trkpt><trkpt lat="46.17496044364255" lon="9.369048692732562"><ele>367.0</ele><time>2026-05-02T12:26:21.974Z</time></trkpt><trkpt lat="46.174946437405545" lon="9.368904385071707"><ele>367.0</ele><time>2026-05-02T12:26:23.974Z</time></trkpt><trkpt lat="46.174926123644426" lon="9.368804673512976"><ele>367.0</ele><time>2026-05-02T12:26:25.974Z</time></trkpt><trkpt lat="46.17499558492057" lon="9.368902394882566"><ele>367.0</ele><time>2026-05-02T12:26:30.974Z</time></trkpt><trkpt lat="46.175002777296505" lon="9.368993403407904"><ele>367.0</ele><time>2026-05-02T12:26:31.974Z</time></trkpt><trkpt lat="46.17503472954822" lon="9.369081075964818"><ele>367.0</ele><time>2026-05-02T12:26:32.974Z</time></trkpt><trkpt lat="46.17506463893781" lon="9.36917084653527"><ele>367.0</ele><time>2026-05-02T12:26:33.974Z</time></trkpt><trkpt lat="46.17508818713448" lon="9.36925957476557"><ele>367.0</ele><time>2026-05-02T12:26:34.974Z</time></trkpt><trkpt lat="46.17511462040377" lon="9.3693449022459"><ele>367.0</ele><time>2026-05-02T12:26:35.974Z</time></trkpt><trkpt lat="46.175148234807914" lon="9.3694279218095"><ele>367.0</ele><time>2026-05-02T12:26:36.974Z</time></trkpt><trkpt lat="46.175189476849845" lon="9.369513913565326"><ele>367.0</ele><time>2026-05-02T12:26:37.974Z</time></trkpt><trkpt lat="46.175229572043484" lon="9.36960478245579"><ele>367.0</ele><time>2026-05-02T12:26:38.974Z</time></trkpt><trkpt lat="46.17525670000207" lon="9.36970678034633"><ele>367.0</ele><time>2026-05-02T12:26:39.974Z</time></trkpt><trkpt lat="46.1752710117416" lon="9.36981598511119"><ele>365.66666666666663</ele><time>2026-05-02T12:26:40.974Z</time></trkpt><trkpt lat="46.17528316442772" lon="9.369924553170836"><ele>364.3333333333333</ele><time>2026-05-02T12:26:41.974Z</time></trkpt><trkpt lat="46.175296423377944" lon="9.370041643475533"><ele>363.0</ele><time>2026-05-02T12:26:42.974Z</time></trkpt><trkpt lat="46.175318293834714" lon="9.370163650788577"><ele>361.6666666666667</ele><time>2026-05-02T12:26:43.974Z</time></trkpt><trkpt lat="46.175346121281244" lon="9.370287323331684"><ele>360.33333333333337</ele><time>2026-05-02T12:26:44.974Z</time></trkpt><trkpt lat="46.17537196147953" lon="9.370407509741899"><ele>359.0</ele><time>2026-05-02T12:26:45.974Z</time></trkpt><trkpt lat="46.17539904290721" lon="9.370531591514126"><ele>357.4</ele><time>2026-05-02T12:26:46.974Z</time></trkpt><trkpt lat="46.175430416468714" lon="9.370662232308336"><ele>355.79999999999995</ele><time>2026-05-02T12:26:47.974Z</time></trkpt><trkpt lat="46.17546580473872" lon="9.370792286589523"><ele>354.20000000000005</ele><time>2026-05-02T12:26:48.974Z</time></trkpt><trkpt lat="46.17551374302774" lon="9.370921235694878"><ele>352.6</ele><time>2026-05-02T12:26:49.974Z</time></trkpt><trkpt lat="46.175571654508765" lon="9.371054826076989"><ele>351.0</ele><time>2026-05-02T12:26:50.974Z</time></trkpt><trkpt lat="46.175640349549575" lon="9.371185120260554"><ele>356.8333333333333</ele><time>2026-05-02T12:26:51.974Z</time></trkpt><trkpt lat="46.17569038789657" lon="9.3713099747523"><ele>362.66666666666663</ele><time>2026-05-02T12:26:52.974Z</time></trkpt><trkpt lat="46.175739644783555" lon="9.37140813468964"><ele>368.5</ele><time>2026-05-02T12:26:53.974Z</time></trkpt><trkpt lat="46.17577937150973" lon="9.371504809980953"><ele>374.3333333333333</ele><time>2026-05-02T12:26:54.974Z</time></trkpt><trkpt lat="46.17580385345015" lon="9.371618187212386"><ele>380.16666666666663</ele><time>2026-05-02T12:26:55.974Z</time></trkpt><trkpt lat="46.17581014796249" lon="9.371747886040145"><ele>386.0</ele><time>2026-05-02T12:26:56.974Z</time></trkpt><trkpt lat="46.1758079870334" lon="9.371871082876373"><ele>385.99999999999994</ele><time>2026-05-02T12:26:57.974Z</time></trkpt><trkpt lat="46.175811993468244" lon="9.37199638971003"><ele>386.0</ele><time>2026-05-02T12:26:58.974Z</time></trkpt><trkpt lat="46.1758030579442" lon="9.372132482001488"><ele>386.0</ele><time>2026-05-02T12:26:59.974Z</time></trkpt><trkpt lat="46.17581065663365" lon="9.372243013680437"><ele>386.0</ele><time>2026-05-02T12:27:00.974Z</time></trkpt><trkpt lat="46.17582215116426" lon="9.372347679182585"><ele>385.99999999999994</ele><time>2026-05-02T12:27:01.974Z</time></trkpt><trkpt lat="46.17584462122114" lon="9.372452344531746"><ele>386.0</ele><time>2026-05-02T12:27:02.974Z</time></trkpt><trkpt lat="46.17588181510916" lon="9.372547969288664"><ele>385.8333333333333</ele><time>2026-05-02T12:27:03.974Z</time></trkpt><trkpt lat="46.175922220396224" lon="9.372629096433544"><ele>385.66666666666663</ele><time>2026-05-02T12:27:04.974Z</time></trkpt><trkpt lat="46.17592570225378" lon="9.372727418830783"><ele>385.5</ele><time>2026-05-02T12:27:05.974Z</time></trkpt><trkpt lat="46.17593623427552" lon="9.372822462383711"><ele>385.33333333333337</ele><time>2026-05-02T12:27:06.974Z</time></trkpt><trkpt lat="46.17594798567241" lon="9.372923658408654"><ele>385.1666666666667</ele><time>2026-05-02T12:27:07.974Z</time></trkpt><trkpt lat="46.175977583242165" lon="9.373049368837838"><ele>385.0</ele><time>2026-05-02T12:27:08.971Z</time></trkpt><trkpt lat="46.17602947877873" lon="9.373167792271586"><ele>385.0</ele><time>2026-05-02T12:27:09.971Z</time></trkpt><trkpt lat="46.17607875065066" lon="9.373259554231868"><ele>385.0</ele><time>2026-05-02T12:27:10.971Z</time></trkpt><trkpt lat="46.17614296730877" lon="9.37335531380516"><ele>385.0</ele><time>2026-05-02T12:27:11.971Z</time></trkpt><trkpt lat="46.17618213735972" lon="9.373480002836844"><ele>385.0</ele><time>2026-05-02T12:27:12.971Z</time></trkpt><trkpt lat="46.17621281304769" lon="9.37360967896915"><ele>385.0</ele><time>2026-05-02T12:27:13.971Z</time></trkpt><trkpt lat="46.17622256249454" lon="9.373763170701674"><ele>384.0</ele><time>2026-05-02T12:27:14.971Z</time></trkpt><trkpt lat="46.17627503943496" lon="9.3739002895781"><ele>383.0</ele><time>2026-05-02T12:27:15.972Z</time></trkpt><trkpt lat="46.17629586685655" lon="9.37404615187861"><ele>382.0</ele><time>2026-05-02T12:27:16.972Z</time></trkpt><trkpt lat="46.1763409366823" lon="9.374183453312035"><ele>381.0</ele><time>2026-05-02T12:27:17.971Z</time></trkpt><trkpt lat="46.17638313511493" lon="9.374312542065153"><ele>380.0</ele><time>2026-05-02T12:27:18.971Z</time></trkpt><trkpt lat="46.17641999484519" lon="9.374451288035885"><ele>380.0</ele><time>2026-05-02T12:27:19.971Z</time></trkpt><trkpt lat="46.17645859308482" lon="9.374581772456207"><ele>380.0</ele><time>2026-05-02T12:27:20.971Z</time></trkpt><trkpt lat="46.17649079797914" lon="9.374717354856235"><ele>380.0</ele><time>2026-05-02T12:27:21.971Z</time></trkpt><trkpt lat="46.17651106172684" lon="9.37486530930396"><ele>380.0</ele><time>2026-05-02T12:27:22.971Z</time></trkpt><trkpt lat="46.17651968980104" lon="9.375024988053873"><ele>380.0</ele><time>2026-05-02T12:27:23.971Z</time></trkpt><trkpt lat="46.17653095094268" lon="9.375175210362071"><ele>384.1666666666667</ele><time>2026-05-02T12:27:24.971Z</time></trkpt><trkpt lat="46.176545814784994" lon="9.375309308377298"><ele>388.33333333333337</ele><time>2026-05-02T12:27:25.971Z</time></trkpt><trkpt lat="46.17656436693447" lon="9.375426546910708"><ele>392.5</ele><time>2026-05-02T12:27:26.971Z</time></trkpt><trkpt lat="46.17658318513522" lon="9.375527048534728"><ele>396.6666666666667</ele><time>2026-05-02T12:27:27.971Z</time></trkpt><trkpt lat="46.17660580934459" lon="9.375619529189036"><ele>400.8333333333333</ele><time>2026-05-02T12:27:28.971Z</time></trkpt><trkpt lat="46.176632439529236" lon="9.375717719569613"><ele>405.0</ele><time>2026-05-02T12:27:29.971Z</time></trkpt><trkpt lat="46.17666123062153" lon="9.375817463028906"><ele>405.0</ele><time>2026-05-02T12:27:30.971Z</time></trkpt><trkpt lat="46.176702326639" lon="9.375893411324169"><ele>405.0</ele><time>2026-05-02T12:27:31.971Z</time></trkpt><trkpt lat="46.17674878322076" lon="9.375983847451415"><ele>405.0</ele><time>2026-05-02T12:27:32.971Z</time></trkpt><trkpt lat="46.17680140788338" lon="9.376062017793316"><ele>405.0</ele><time>2026-05-02T12:27:33.971Z</time></trkpt><trkpt lat="46.176868382677405" lon="9.376165640750173"><ele>405.0</ele><time>2026-05-02T12:27:34.971Z</time></trkpt><trkpt lat="46.17694415608814" lon="9.37626387137855"><ele>405.0</ele><time>2026-05-02T12:27:35.971Z</time></trkpt><trkpt lat="46.177025437799635" lon="9.376353887359574"><ele>404.71428571428567</ele><time>2026-05-02T12:27:36.971Z</time></trkpt><trkpt lat="46.17709907500872" lon="9.376439207566818"><ele>404.42857142857144</ele><time>2026-05-02T12:27:37.971Z</time></trkpt><trkpt lat="46.1771631595314" lon="9.376507885171478"><ele>404.1428571428571</ele><time>2026-05-02T12:27:38.971Z</time></trkpt><trkpt lat="46.17721926175102" lon="9.376570147395805"><ele>403.85714285714283</ele><time>2026-05-02T12:27:39.971Z</time></trkpt><trkpt lat="46.177273477268585" lon="9.376623863742608"><ele>403.57142857142856</ele><time>2026-05-02T12:27:40.972Z</time></trkpt><trkpt lat="46.17732048121006" lon="9.376703809201095"><ele>403.2857142857143</ele><time>2026-05-02T12:27:41.972Z</time></trkpt><trkpt lat="46.177344410969866" lon="9.376788751059559"><ele>403.0</ele><time>2026-05-02T12:27:42.972Z</time></trkpt><trkpt lat="46.1773280716281" lon="9.376902393516746"><ele>403.00000000000006</ele><time>2026-05-02T12:27:43.972Z</time></trkpt><trkpt lat="46.177306745939006" lon="9.377011966489928"><ele>403.0</ele><time>2026-05-02T12:27:44.972Z</time></trkpt><trkpt lat="46.177279574552884" lon="9.377114307393713"><ele>403.0</ele><time>2026-05-02T12:27:45.972Z</time></trkpt><trkpt lat="46.17728119290604" lon="9.377253947222421"><ele>403.0</ele><time>2026-05-02T12:27:46.972Z</time></trkpt><trkpt lat="46.17728270739889" lon="9.377398720774508"><ele>403.00000000000006</ele><time>2026-05-02T12:27:47.972Z</time></trkpt><trkpt lat="46.17729145532207" lon="9.377535905543345"><ele>403.0</ele><time>2026-05-02T12:27:48.972Z</time></trkpt><trkpt lat="46.17730746209672" lon="9.37766776151294"><ele>401.1666666666667</ele><time>2026-05-02T12:27:49.972Z</time></trkpt><trkpt lat="46.177341511357014" lon="9.377804455809459"><ele>399.33333333333337</ele><time>2026-05-02T12:27:50.972Z</time></trkpt><trkpt lat="46.177382584553776" lon="9.377919004749154"><ele>397.5</ele><time>2026-05-02T12:27:51.972Z</time></trkpt><trkpt lat="46.177413998145184" lon="9.378028178514844"><ele>395.66666666666663</ele><time>2026-05-02T12:27:52.972Z</time></trkpt><trkpt lat="46.17743004945163" lon="9.378136198084079"><ele>393.8333333333333</ele><time>2026-05-02T12:27:53.972Z</time></trkpt><trkpt lat="46.17741664908438" lon="9.378244194261223"><ele>392.0</ele><time>2026-05-02T12:27:54.972Z</time></trkpt><trkpt lat="46.177434208332635" lon="9.378354906174106"><ele>397.3333333333333</ele><time>2026-05-02T12:27:55.972Z</time></trkpt><trkpt lat="46.177466663010655" lon="9.378469600949341"><ele>402.66666666666663</ele><time>2026-05-02T12:27:56.972Z</time></trkpt><trkpt lat="46.17751054928101" lon="9.378578106886657"><ele>408.0</ele><time>2026-05-02T12:27:57.972Z</time></trkpt><trkpt lat="46.177573032559586" lon="9.378668024806812"><ele>413.33333333333337</ele><time>2026-05-02T12:27:58.972Z</time></trkpt><trkpt lat="46.17762394874075" lon="9.378768658663935"><ele>418.6666666666667</ele><time>2026-05-02T12:27:59.972Z</time></trkpt><trkpt lat="46.177672776344835" lon="9.378856281431108"><ele>424.0</ele><time>2026-05-02T12:28:00.972Z</time></trkpt><trkpt lat="46.17767469255113" lon="9.378968701893303"><ele>424.00000000000006</ele><time>2026-05-02T12:28:01.972Z</time></trkpt><trkpt lat="46.17768018519056" lon="9.379088977489571"><ele>424.0</ele><time>2026-05-02T12:28:02.972Z</time></trkpt><trkpt lat="46.17768878707384" lon="9.379220111975881"><ele>424.0</ele><time>2026-05-02T12:28:03.972Z</time></trkpt><trkpt lat="46.17769781610621" lon="9.379358231466897"><ele>424.0</ele><time>2026-05-02T12:28:04.972Z</time></trkpt><trkpt lat="46.17770713277616" lon="9.37948431689783"><ele>424.00000000000006</ele><time>2026-05-02T12:28:05.972Z</time></trkpt><trkpt lat="46.177731593870774" lon="9.37958759669385"><ele>424.0</ele><time>2026-05-02T12:28:06.972Z</time></trkpt><trkpt lat="46.17774223179131" lon="9.379690891585243"><ele>423.2857142857143</ele><time>2026-05-02T12:28:07.972Z</time></trkpt><trkpt lat="46.17775802686172" lon="9.379783099204246"><ele>422.57142857142856</ele><time>2026-05-02T12:28:08.972Z</time></trkpt><trkpt lat="46.17779100298531" lon="9.379870623042963"><ele>421.85714285714283</ele><time>2026-05-02T12:28:09.972Z</time></trkpt><trkpt lat="46.17783670563914" lon="9.37994329017547"><ele>421.1428571428571</ele><time>2026-05-02T12:28:10.972Z</time></trkpt><trkpt lat="46.177887972570836" lon="9.380005805779925"><ele>420.42857142857144</ele><time>2026-05-02T12:28:11.972Z</time></trkpt><trkpt lat="46.17794360905221" lon="9.380067286779164"><ele>419.71428571428567</ele><time>2026-05-02T12:28:12.972Z</time></trkpt><trkpt lat="46.17800461942588" lon="9.380120299723833"><ele>419.0</ele><time>2026-05-02T12:28:13.972Z</time></trkpt><trkpt lat="46.17806923127512" lon="9.380159691972258"><ele>418.99999999999994</ele><time>2026-05-02T12:28:14.972Z</time></trkpt><trkpt lat="46.178142490696075" lon="9.380178310825036"><ele>419.0</ele><time>2026-05-02T12:28:15.972Z</time></trkpt><trkpt lat="46.178211843279826" lon="9.380213379343958"><ele>419.0</ele><time>2026-05-02T12:28:16.972Z</time></trkpt><trkpt lat="46.17828378451675" lon="9.38027941248451"><ele>419.0</ele><time>2026-05-02T12:28:17.972Z</time></trkpt><trkpt lat="46.17835388998511" lon="9.380360506662914"><ele>418.99999999999994</ele><time>2026-05-02T12:28:18.972Z</time></trkpt><trkpt lat="46.17841430490705" lon="9.380453945801259"><ele>419.0</ele><time>2026-05-02T12:28:19.972Z</time></trkpt><trkpt lat="46.178470728894155" lon="9.380552306006534"><ele>421.0</ele><time>2026-05-02T12:28:20.972Z</time></trkpt><trkpt lat="46.178530351977436" lon="9.380654529952272"><ele>423.0</ele><time>2026-05-02T12:28:21.972Z</time></trkpt><trkpt lat="46.17859599267514" lon="9.380747003602753"><ele>425.0</ele><time>2026-05-02T12:28:22.972Z</time></trkpt><trkpt lat="46.17867703293573" lon="9.380806840378181"><ele>427.0</ele><time>2026-05-02T12:28:23.972Z</time></trkpt><trkpt lat="46.17874335589512" lon="9.380892239536317"><ele>429.0</ele><time>2026-05-02T12:28:24.972Z</time></trkpt><trkpt lat="46.1788214838573" lon="9.380952890731322"><ele>429.0</ele><time>2026-05-02T12:28:25.972Z</time></trkpt><trkpt lat="46.17890245969286" lon="9.381006939365964"><ele>429.0</ele><time>2026-05-02T12:28:26.972Z</time></trkpt><trkpt lat="46.178988259388284" lon="9.381057928911687"><ele>429.0</ele><time>2026-05-02T12:28:27.972Z</time></trkpt><trkpt lat="46.179075215549645" lon="9.381092163651735"><ele>429.0</ele><time>2026-05-02T12:28:28.972Z</time></trkpt><trkpt lat="46.179149713630935" lon="9.381125679567438"><ele>429.0</ele><time>2026-05-02T12:28:29.972Z</time></trkpt><trkpt lat="46.17921512290503" lon="9.381144535534975"><ele>429.0</ele><time>2026-05-02T12:28:30.972Z</time></trkpt><trkpt lat="46.17932425259069" lon="9.381231488183634"><ele>431.6</ele><time>2026-05-02T12:28:32.972Z</time></trkpt><trkpt lat="46.179370811880865" lon="9.381302543055924"><ele>434.2</ele><time>2026-05-02T12:28:33.972Z</time></trkpt><trkpt lat="46.17941738529275" lon="9.381384765440808"><ele>436.80000000000007</ele><time>2026-05-02T12:28:34.972Z</time></trkpt><trkpt lat="46.17951254425488" lon="9.381454388081009"><ele>439.40000000000003</ele><time>2026-05-02T12:28:36.972Z</time></trkpt><trkpt lat="46.179614806240195" lon="9.381503984905649"><ele>442.0</ele><time>2026-05-02T12:28:38.972Z</time></trkpt><trkpt lat="46.179711109557076" lon="9.381483258052462"><ele>442.00000000000006</ele><time>2026-05-02T12:28:40.972Z</time></trkpt><trkpt lat="46.17978617047543" lon="9.381500170421996"><ele>442.0</ele><time>2026-05-02T12:28:42.973Z</time></trkpt><trkpt lat="46.17984947282405" lon="9.38154432660909"><ele>442.0</ele><time>2026-05-02T12:28:44.973Z</time></trkpt><trkpt lat="46.17992298545459" lon="9.381580487699997"><ele>442.0</ele><time>2026-05-02T12:28:48.973Z</time></trkpt><trkpt lat="46.179989610617454" lon="9.381674772766155"><ele>442.00000000000006</ele><time>2026-05-02T12:28:50.973Z</time></trkpt><trkpt lat="46.17999658974356" lon="9.381809054480925"><ele>442.0</ele><time>2026-05-02T12:28:52.973Z</time></trkpt><trkpt lat="46.17991020278937" lon="9.381836646799462"><ele>444.6</ele><time>2026-05-02T12:28:54.973Z</time></trkpt><trkpt lat="46.1798570674061" lon="9.381963309656003"><ele>447.20000000000005</ele><time>2026-05-02T12:28:57.973Z</time></trkpt><trkpt lat="46.17985877719345" lon="9.382115868305492"><ele>449.8</ele><time>2026-05-02T12:28:59.973Z</time></trkpt><trkpt lat="46.17987334780528" lon="9.382239548592443"><ele>452.4</ele><time>2026-05-02T12:29:01.973Z</time></trkpt><trkpt lat="46.17985449415558" lon="9.382340710995626"><ele>455.0</ele><time>2026-05-02T12:29:03.973Z</time></trkpt><trkpt lat="46.179757550863364" lon="9.382403194695886"><ele>454.99999999999994</ele><time>2026-05-02T12:29:05.973Z</time></trkpt><trkpt lat="46.17966216312121" lon="9.382397718392603"><ele>455.0</ele><time>2026-05-02T12:29:07.973Z</time></trkpt><trkpt lat="46.17958840469511" lon="9.382390985535581"><ele>455.0</ele><time>2026-05-02T12:29:09.973Z</time></trkpt><trkpt lat="46.179499746050915" lon="9.382466339837862"><ele>455.0</ele><time>2026-05-02T12:29:11.973Z</time></trkpt><trkpt lat="46.17945313700641" lon="9.38253584984807"><ele>454.99999999999994</ele><time>2026-05-02T12:29:12.973Z</time></trkpt><trkpt lat="46.179411011620836" lon="9.382620016187277"><ele>455.0</ele><time>2026-05-02T12:29:13.973Z</time></trkpt><trkpt lat="46.17937499482987" lon="9.38270869700276"><ele>454.99999999999994</ele><time>2026-05-02T12:29:14.969Z</time></trkpt><trkpt lat="46.1793700180202" lon="9.382901743018104"><ele>455.0</ele><time>2026-05-02T12:29:16.969Z</time></trkpt><trkpt lat="46.1793965675811" lon="9.382994140892942"><ele>455.0</ele><time>2026-05-02T12:29:17.97Z</time></trkpt><trkpt lat="46.1794426075221" lon="9.383082394075743"><ele>455.0</ele><time>2026-05-02T12:29:18.97Z</time></trkpt><trkpt lat="46.17950083510996" lon="9.383169066713313"><ele>454.99999999999994</ele><time>2026-05-02T12:29:19.97Z</time></trkpt><trkpt lat="46.179561246141546" lon="9.383235584882316"><ele>455.0</ele><time>2026-05-02T12:29:20.971Z</time></trkpt><trkpt lat="46.179629833508784" lon="9.38329659981246"><ele>455.4</ele><time>2026-05-02T12:29:21.971Z</time></trkpt><trkpt lat="46.17971071558589" lon="9.383353198430639"><ele>455.8</ele><time>2026-05-02T12:29:22.972Z</time></trkpt><trkpt lat="46.17978875571747" lon="9.383394268186121"><ele>456.20000000000005</ele><time>2026-05-02T12:29:23.972Z</time></trkpt><trkpt lat="46.179870833527836" lon="9.383410965520456"><ele>456.6</ele><time>2026-05-02T12:29:24.972Z</time></trkpt><trkpt lat="46.179980212388315" lon="9.383446467062226"><ele>457.0</ele><time>2026-05-02T12:29:26.973Z</time></trkpt><trkpt lat="46.18007428938018" lon="9.383468059607388"><ele>463.20000000000005</ele><time>2026-05-02T12:29:28.973Z</time></trkpt><trkpt lat="46.18017569250136" lon="9.383490454279185"><ele>469.40000000000003</ele><time>2026-05-02T12:29:30.974Z</time></trkpt><trkpt lat="46.180273399992025" lon="9.383539988642106"><ele>475.59999999999997</ele><time>2026-05-02T12:29:32.974Z</time></trkpt><trkpt lat="46.18034637519104" lon="9.383557372230122"><ele>481.79999999999995</ele><time>2026-05-02T12:29:34.975Z</time></trkpt><trkpt lat="46.18044643166746" lon="9.383589835949142"><ele>488.0</ele><time>2026-05-02T12:29:37.975Z</time></trkpt><trkpt lat="46.180532130632265" lon="9.383641407982353"><ele>488.0</ele><time>2026-05-02T12:29:39.975Z</time></trkpt><trkpt lat="46.18057912060313" lon="9.383733602852407"><ele>487.99999999999994</ele><time>2026-05-02T12:29:41.976Z</time></trkpt><trkpt lat="46.18058031902117" lon="9.38385464455591"><ele>487.99999999999994</ele><time>2026-05-02T12:29:43.976Z</time></trkpt><trkpt lat="46.180504568537316" lon="9.383917829898246"><ele>488.0</ele><time>2026-05-02T12:29:45.976Z</time></trkpt><trkpt lat="46.180400653855585" lon="9.383911142823914"><ele>488.0</ele><time>2026-05-02T12:29:47.976Z</time></trkpt><trkpt lat="46.180281420361965" lon="9.383917184157015"><ele>485.79999999999995</ele><time>2026-05-02T12:29:49.977Z</time></trkpt><trkpt lat="46.18021893370521" lon="9.383930699019785"><ele>483.59999999999997</ele><time>2026-05-02T12:29:50.977Z</time></trkpt><trkpt lat="46.18013818450437" lon="9.384028423744986"><ele>481.40000000000003</ele><time>2026-05-02T12:29:52.977Z</time></trkpt><trkpt lat="46.18011100332563" lon="9.384164903405663"><ele>479.20000000000005</ele><time>2026-05-02T12:29:54.977Z</time></trkpt><trkpt lat="46.18016792668163" lon="9.38431667835329"><ele>477.0</ele><time>2026-05-02T12:29:56.977Z</time></trkpt><trkpt lat="46.18017784405796" lon="9.384473077555114"><ele>477.0</ele><time>2026-05-02T12:29:58.977Z</time></trkpt><trkpt lat="46.180190172919076" lon="9.38457432264461"><ele>476.99999999999994</ele><time>2026-05-02T12:29:59.977Z</time></trkpt><trkpt lat="46.18020538392356" lon="9.384671381358446"><ele>477.0</ele><time>2026-05-02T12:30:00.977Z</time></trkpt><trkpt lat="46.18022576667695" lon="9.384775037040072"><ele>477.0</ele><time>2026-05-02T12:30:01.977Z</time></trkpt><trkpt lat="46.1802491710293" lon="9.384877544665276"><ele>476.99999999999994</ele><time>2026-05-02T12:30:02.977Z</time></trkpt><trkpt lat="46.18029153823595" lon="9.384971046785425"><ele>477.0</ele><time>2026-05-02T12:30:03.977Z</time></trkpt><trkpt lat="46.18033178961139" lon="9.38505542125754"><ele>477.0</ele><time>2026-05-02T12:30:04.977Z</time></trkpt><trkpt lat="46.18036595229596" lon="9.385136558035203"><ele>477.20000000000005</ele><time>2026-05-02T12:30:05.977Z</time></trkpt><trkpt lat="46.1803647021239" lon="9.385304427708023"><ele>477.40000000000003</ele><time>2026-05-02T12:30:07.978Z</time></trkpt><trkpt lat="46.18029730145909" lon="9.385451441915567"><ele>477.59999999999997</ele><time>2026-05-02T12:30:09.978Z</time></trkpt><trkpt lat="46.180288602454794" lon="9.38563969610752"><ele>477.79999999999995</ele><time>2026-05-02T12:30:11.978Z</time></trkpt><trkpt lat="46.18029945373982" lon="9.385752552340675"><ele>478.0</ele><time>2026-05-02T12:30:12.978Z</time></trkpt><trkpt lat="46.18028024411449" lon="9.385851161238014"><ele>478.33333333333337</ele><time>2026-05-02T12:30:13.978Z</time></trkpt><trkpt lat="46.18028888304981" lon="9.385981743786907"><ele>478.6666666666667</ele><time>2026-05-02T12:30:15.978Z</time></trkpt><trkpt lat="46.18030322832707" lon="9.386089541871467"><ele>479.0</ele><time>2026-05-02T12:30:19.978Z</time></trkpt><trkpt lat="46.18034212736884" lon="9.386169731302688"><ele>479.33333333333337</ele><time>2026-05-02T12:30:28.978Z</time></trkpt><trkpt lat="46.18040913486619" lon="9.386140744483393"><ele>479.6666666666667</ele><time>2026-05-02T12:30:29.978Z</time></trkpt><trkpt lat="46.180416287801066" lon="9.386022775262521"><ele>480.0</ele><time>2026-05-02T12:30:30.978Z</time></trkpt><trkpt lat="46.18043559176892" lon="9.38593118604136"><ele>480.0</ele><time>2026-05-02T12:30:31.978Z</time></trkpt><trkpt lat="46.18044944845779" lon="9.385774620146563"><ele>480.0</ele><time>2026-05-02T12:30:33.978Z</time></trkpt><trkpt lat="46.18048937189704" lon="9.38560301477906"><ele>480.0</ele><time>2026-05-02T12:30:35.978Z</time></trkpt><trkpt lat="46.18054721261826" lon="9.385532779185226"><ele>480.0</ele><time>2026-05-02T12:30:36.978Z</time></trkpt><trkpt lat="46.18061399997386" lon="9.385503889428252"><ele>480.0</ele><time>2026-05-02T12:30:37.978Z</time></trkpt><trkpt lat="46.18066503450896" lon="9.385444571374906"><ele>480.0</ele><time>2026-05-02T12:30:38.978Z</time></trkpt><trkpt lat="46.18069392809808" lon="9.38535903945455"><ele>486.6</ele><time>2026-05-02T12:30:39.978Z</time></trkpt><trkpt lat="46.1807474028601" lon="9.385198105732783"><ele>493.2</ele><time>2026-05-02T12:30:41.978Z</time></trkpt><trkpt lat="46.18074644810564" lon="9.385078498692614"><ele>499.79999999999995</ele><time>2026-05-02T12:30:43.979Z</time></trkpt><trkpt lat="46.180769386937854" lon="9.384964668363825"><ele>506.4</ele><time>2026-05-02T12:30:46.979Z</time></trkpt><trkpt lat="46.18081679263875" lon="9.38484578419941"><ele>513.0</ele><time>2026-05-02T12:30:48.979Z</time></trkpt><trkpt lat="46.18086736865308" lon="9.384667722259877"><ele>513.0</ele><time>2026-05-02T12:30:50.979Z</time></trkpt><trkpt lat="46.180916311279304" lon="9.38457308756798"><ele>513.0</ele><time>2026-05-02T12:30:51.979Z</time></trkpt><trkpt lat="46.18094546986707" lon="9.384477893692605"><ele>513.0</ele><time>2026-05-02T12:30:52.979Z</time></trkpt><trkpt lat="46.180971133151495" lon="9.384326658401905"><ele>513.0</ele><time>2026-05-02T12:30:54.979Z</time></trkpt><trkpt lat="46.181006517652925" lon="9.384237190327507"><ele>513.0</ele><time>2026-05-02T12:30:56.979Z</time></trkpt><trkpt lat="46.18103760549088" lon="9.384147500841406"><ele>513.0</ele><time>2026-05-02T12:31:00.979Z</time></trkpt><trkpt lat="46.181067139292864" lon="9.384240137839006"><ele>513.0</ele><time>2026-05-02T12:31:04.979Z</time></trkpt><trkpt lat="46.1810170804537" lon="9.384396372021207"><ele>513.0</ele><time>2026-05-02T12:31:06.979Z</time></trkpt><trkpt lat="46.18100095519138" lon="9.38448501099048"><ele>513.0</ele><time>2026-05-02T12:31:07.979Z</time></trkpt><trkpt lat="46.18098484401305" lon="9.384581061817116"><ele>513.0</ele><time>2026-05-02T12:31:08.979Z</time></trkpt><trkpt lat="46.180976220975936" lon="9.384674007505732"><ele>513.0</ele><time>2026-05-02T12:31:09.979Z</time></trkpt><trkpt lat="46.1809703361465" lon="9.384772619729102"><ele>513.0</ele><time>2026-05-02T12:31:10.979Z</time></trkpt><trkpt lat="46.180974569948454" lon="9.384879467179344"><ele>513.0</ele><time>2026-05-02T12:31:11.979Z</time></trkpt><trkpt lat="46.180979974934644" lon="9.384980133595827"><ele>513.0</ele><time>2026-05-02T12:31:12.979Z</time></trkpt><trkpt lat="46.18100677503873" lon="9.38507902987627"><ele>513.0</ele><time>2026-05-02T12:31:13.979Z</time></trkpt><trkpt lat="46.18102510721829" lon="9.385174868542762"><ele>513.0</ele><time>2026-05-02T12:31:14.979Z</time></trkpt><trkpt lat="46.18103658296324" lon="9.385275165125398"><ele>513.0</ele><time>2026-05-02T12:31:15.979Z</time></trkpt><trkpt lat="46.18102998071667" lon="9.38537130619619"><ele>513.0</ele><time>2026-05-02T12:31:16.979Z</time></trkpt><trkpt lat="46.18094399959587" lon="9.385490536849296"><ele>513.7142857142858</ele><time>2026-05-02T12:31:18.979Z</time></trkpt><trkpt lat="46.18089559638547" lon="9.385564415429272"><ele>514.4285714285714</ele><time>2026-05-02T12:31:19.979Z</time></trkpt><trkpt lat="46.18085036394982" lon="9.38564289450098"><ele>515.1428571428571</ele><time>2026-05-02T12:31:20.975Z</time></trkpt><trkpt lat="46.18081860772782" lon="9.385733457974244"><ele>515.8571428571429</ele><time>2026-05-02T12:31:21.976Z</time></trkpt><trkpt lat="46.18077948806566" lon="9.385818482980149"><ele>516.5714285714286</ele><time>2026-05-02T12:31:22.976Z</time></trkpt><trkpt lat="46.180760295590744" lon="9.385918108059265"><ele>517.2857142857143</ele><time>2026-05-02T12:31:23.975Z</time></trkpt><trkpt lat="46.18075388384342" lon="9.386021043918442"><ele>518.0</ele><time>2026-05-02T12:31:24.975Z</time></trkpt><trkpt lat="46.18074581984815" lon="9.386126125164528"><ele>518.0</ele><time>2026-05-02T12:31:25.975Z</time></trkpt><trkpt lat="46.18074416602415" lon="9.386229887720834"><ele>518.0</ele><time>2026-05-02T12:31:26.975Z</time></trkpt><trkpt lat="46.18075358395212" lon="9.386328941621937"><ele>518.0</ele><time>2026-05-02T12:31:27.975Z</time></trkpt><trkpt lat="46.18077865637381" lon="9.386429300390926"><ele>518.0</ele><time>2026-05-02T12:31:28.975Z</time></trkpt><trkpt lat="46.18079365364583" lon="9.38652753663038"><ele>518.0</ele><time>2026-05-02T12:31:29.976Z</time></trkpt><trkpt lat="46.1808137581702" lon="9.386620120670017"><ele>518.0</ele><time>2026-05-02T12:31:30.974Z</time></trkpt><trkpt lat="46.18083526128202" lon="9.386721898411622"><ele>518.0</ele><time>2026-05-02T12:31:31.974Z</time></trkpt><trkpt lat="46.18085646215724" lon="9.386829747534392"><ele>518.5</ele><time>2026-05-02T12:31:32.975Z</time></trkpt><trkpt lat="46.18088841804557" lon="9.386919381266889"><ele>519.0</ele><time>2026-05-02T12:31:33.975Z</time></trkpt><trkpt lat="46.18089611359829" lon="9.387012520055647"><ele>519.5</ele><time>2026-05-02T12:31:34.975Z</time></trkpt><trkpt lat="46.180923278506924" lon="9.387099096792554"><ele>520.0</ele><time>2026-05-02T12:31:35.975Z</time></trkpt><trkpt lat="46.180964019994605" lon="9.38717785686697"><ele>520.5</ele><time>2026-05-02T12:31:36.975Z</time></trkpt><trkpt lat="46.181032924497565" lon="9.38728671335101"><ele>521.0</ele><time>2026-05-02T12:31:38.975Z</time></trkpt><trkpt lat="46.181122974351766" lon="9.387254461089132"><ele>521.0</ele><time>2026-05-02T12:31:41.975Z</time></trkpt><trkpt lat="46.18108449060485" lon="9.387169650989577"><ele>521.0</ele><time>2026-05-02T12:31:42.975Z</time></trkpt><trkpt lat="46.18105875512391" lon="9.387082782813659"><ele>521.0</ele><time>2026-05-02T12:31:43.975Z</time></trkpt><trkpt lat="46.1810312072769" lon="9.387000404536815"><ele>521.0</ele><time>2026-05-02T12:31:44.975Z</time></trkpt><trkpt lat="46.18102228205212" lon="9.386829925292702"><ele>521.0</ele><time>2026-05-02T12:31:46.975Z</time></trkpt><trkpt lat="46.18102160233112" lon="9.386731586469809"><ele>521.0</ele><time>2026-05-02T12:31:47.975Z</time></trkpt><trkpt lat="46.18102726160778" lon="9.386624599313699"><ele>521.0</ele><time>2026-05-02T12:31:48.975Z</time></trkpt><trkpt lat="46.18103829361499" lon="9.386514426939252"><ele>521.0</ele><time>2026-05-02T12:31:49.975Z</time></trkpt><trkpt lat="46.1810559628625" lon="9.386409617839828"><ele>521.0</ele><time>2026-05-02T12:31:50.975Z</time></trkpt><trkpt lat="46.18108024036664" lon="9.386315612243143"><ele>521.0</ele><time>2026-05-02T12:31:51.975Z</time></trkpt><trkpt lat="46.18111562877198" lon="9.386236632839772"><ele>521.0</ele><time>2026-05-02T12:31:52.975Z</time></trkpt><trkpt lat="46.18121644431176" lon="9.386109475072102"><ele>521.0</ele><time>2026-05-02T12:31:54.975Z</time></trkpt><trkpt lat="46.181289394826706" lon="9.386064750909561"><ele>520.5</ele><time>2026-05-02T12:31:55.975Z</time></trkpt><trkpt lat="46.181370354243256" lon="9.386030726836102"><ele>520.0</ele><time>2026-05-02T12:31:56.975Z</time></trkpt><trkpt lat="46.18144616298111" lon="9.38600218516299"><ele>519.5</ele><time>2026-05-02T12:31:57.975Z</time></trkpt><trkpt lat="46.18150872352642" lon="9.385984371848279"><ele>519.0</ele><time>2026-05-02T12:31:58.975Z</time></trkpt><trkpt lat="46.18161980162549" lon="9.385946768329326"><ele>518.5</ele><time>2026-05-02T12:32:00.975Z</time></trkpt><trkpt lat="46.18166702085357" lon="9.3858692420421"><ele>518.0</ele><time>2026-05-02T12:32:01.975Z</time></trkpt><trkpt lat="46.181672737701895" lon="9.385769544091401"><ele>525.0</ele><time>2026-05-02T12:32:02.975Z</time></trkpt><trkpt lat="46.181650975021356" lon="9.38565611844817"><ele>532.0</ele><time>2026-05-02T12:32:03.975Z</time></trkpt><trkpt lat="46.18161770028996" lon="9.38555214819847"><ele>539.0</ele><time>2026-05-02T12:32:04.975Z</time></trkpt><trkpt lat="46.18159753711564" lon="9.385456020456015"><ele>546.0</ele><time>2026-05-02T12:32:05.975Z</time></trkpt><trkpt lat="46.1815929400958" lon="9.385346594336346"><ele>553.0</ele><time>2026-05-02T12:32:06.976Z</time></trkpt><trkpt lat="46.18159350251154" lon="9.385225924633975"><ele>560.0</ele><time>2026-05-02T12:32:07.976Z</time></trkpt><trkpt lat="46.18159316036556" lon="9.385099745388688"><ele>559.8333333333333</ele><time>2026-05-02T12:32:08.976Z</time></trkpt><trkpt lat="46.18159155140891" lon="9.384974568617267"><ele>559.6666666666666</ele><time>2026-05-02T12:32:09.976Z</time></trkpt><trkpt lat="46.18158998352721" lon="9.384852587381907"><ele>559.5</ele><time>2026-05-02T12:32:10.976Z</time></trkpt><trkpt lat="46.181588512574365" lon="9.384738147506832"><ele>559.3333333333334</ele><time>2026-05-02T12:32:11.976Z</time></trkpt><trkpt lat="46.181572836939594" lon="9.384627824913386"><ele>559.1666666666667</ele><time>2026-05-02T12:32:12.976Z</time></trkpt><trkpt lat="46.18157531384732" lon="9.38453091982332"><ele>559.0</ele><time>2026-05-02T12:32:13.976Z</time></trkpt><trkpt lat="46.18159246338029" lon="9.384357650482402"><ele>559.0</ele><time>2026-05-02T12:32:15.976Z</time></trkpt><trkpt lat="46.18159945608147" lon="9.384265877730552"><ele>559.0</ele><time>2026-05-02T12:32:16.976Z</time></trkpt><trkpt lat="46.18162778405722" lon="9.384099194383012"><ele>559.0</ele><time>2026-05-02T12:32:18.976Z</time></trkpt><trkpt lat="46.1816838905774" lon="9.384015020052553"><ele>559.0</ele><time>2026-05-02T12:32:21.976Z</time></trkpt><trkpt lat="46.18165368074577" lon="9.384105584416165"><ele>559.0</ele><time>2026-05-02T12:32:26.976Z</time></trkpt><trkpt lat="46.18165237535901" lon="9.384206792706777"><ele>559.0</ele><time>2026-05-02T12:32:28.976Z</time></trkpt><trkpt lat="46.18165766831804" lon="9.384370261635448"><ele>559.0</ele><time>2026-05-02T12:32:30.976Z</time></trkpt><trkpt lat="46.18169204205669" lon="9.384548818565072"><ele>559.0</ele><time>2026-05-02T12:32:32.976Z</time></trkpt><trkpt lat="46.181709401033565" lon="9.384647159172752"><ele>559.0</ele><time>2026-05-02T12:32:33.976Z</time></trkpt><trkpt lat="46.18172871072352" lon="9.384749050043519"><ele>559.0</ele><time>2026-05-02T12:32:34.976Z</time></trkpt><trkpt lat="46.18174603198777" lon="9.384852050516878"><ele>559.0</ele><time>2026-05-02T12:32:35.976Z</time></trkpt><trkpt lat="46.18176017533848" lon="9.384956382626813"><ele>559.0</ele><time>2026-05-02T12:32:36.976Z</time></trkpt><trkpt lat="46.18178537407709" lon="9.385053914778867"><ele>559.1428571428571</ele><time>2026-05-02T12:32:37.976Z</time></trkpt><trkpt lat="46.18180142705242" lon="9.385144640820792"><ele>559.2857142857143</ele><time>2026-05-02T12:32:38.976Z</time></trkpt><trkpt lat="46.181812908127036" lon="9.385241690423744"><ele>559.4285714285714</ele><time>2026-05-02T12:32:39.976Z</time></trkpt><trkpt lat="46.18181800998732" lon="9.385333166662935"><ele>559.5714285714286</ele><time>2026-05-02T12:32:40.976Z</time></trkpt><trkpt lat="46.181843838657315" lon="9.385505459355297"><ele>559.7142857142858</ele><time>2026-05-02T12:32:42.976Z</time></trkpt><trkpt lat="46.18187555594454" lon="9.385588133666847"><ele>559.8571428571429</ele><time>2026-05-02T12:32:43.976Z</time></trkpt><trkpt lat="46.18191199907104" lon="9.385664187232697"><ele>560.0</ele><time>2026-05-02T12:32:44.976Z</time></trkpt><trkpt lat="46.18195520056231" lon="9.385737674152603"><ele>560.0</ele><time>2026-05-02T12:32:45.976Z</time></trkpt><trkpt lat="46.182022902840366" lon="9.38588034214007"><ele>560.0</ele><time>2026-05-02T12:32:47.976Z</time></trkpt><trkpt lat="46.18205329375697" lon="9.385966541659068"><ele>560.0</ele><time>2026-05-02T12:32:48.976Z</time></trkpt><trkpt lat="46.18205896376057" lon="9.386058334750215"><ele>560.0</ele><time>2026-05-02T12:32:49.976Z</time></trkpt><trkpt lat="46.18204986454717" lon="9.386155295242157"><ele>560.0</ele><time>2026-05-02T12:32:50.976Z</time></trkpt><trkpt lat="46.18202051092812" lon="9.386241622332731"><ele>560.0</ele><time>2026-05-02T12:32:51.976Z</time></trkpt><trkpt lat="46.18197194810463" lon="9.386325399730872"><ele>561.0</ele><time>2026-05-02T12:32:52.976Z</time></trkpt><trkpt lat="46.18192404826014" lon="9.386404560202383"><ele>562.0</ele><time>2026-05-02T12:32:53.976Z</time></trkpt><trkpt lat="46.18185631868214" lon="9.386521296851381"><ele>563.0</ele><time>2026-05-02T12:32:55.976Z</time></trkpt><trkpt lat="46.18180077607108" lon="9.386619850184232"><ele>564.0</ele><time>2026-05-02T12:32:57.976Z</time></trkpt><trkpt lat="46.18178444852758" lon="9.386757888134344"><ele>565.0</ele><time>2026-05-02T12:32:59.976Z</time></trkpt><trkpt lat="46.18184425303604" lon="9.386892520269562"><ele>565.0</ele><time>2026-05-02T12:33:01.977Z</time></trkpt><trkpt lat="46.18192022685988" lon="9.386942587085095"><ele>565.0</ele><time>2026-05-02T12:33:03.977Z</time></trkpt><trkpt lat="46.18200044351903" lon="9.386981084465837"><ele>565.0</ele><time>2026-05-02T12:33:05.977Z</time></trkpt><trkpt lat="46.182070418920716" lon="9.387076008905295"><ele>565.0</ele><time>2026-05-02T12:33:07.977Z</time></trkpt><trkpt lat="46.18208711483488" lon="9.387173238740967"><ele>565.0</ele><time>2026-05-02T12:33:08.977Z</time></trkpt><trkpt lat="46.182058761373824" lon="9.387294646363909"><ele>565.0</ele><time>2026-05-02T12:33:09.977Z</time></trkpt><trkpt lat="46.18204662293924" lon="9.38740409314935"><ele>565.0</ele><time>2026-05-02T12:33:10.977Z</time></trkpt><trkpt lat="46.182014013773795" lon="9.387512758540002"><ele>565.0</ele><time>2026-05-02T12:33:11.977Z</time></trkpt><trkpt lat="46.18197571173721" lon="9.387610616979588"><ele>565.0</ele><time>2026-05-02T12:33:12.977Z</time></trkpt><trkpt lat="46.18194556158078" lon="9.387700655689034"><ele>565.0</ele><time>2026-05-02T12:33:13.977Z</time></trkpt><trkpt lat="46.18192744608586" lon="9.387800444694616"><ele>565.0</ele><time>2026-05-02T12:33:14.977Z</time></trkpt><trkpt lat="46.181925806268026" lon="9.387911699543528"><ele>565.0</ele><time>2026-05-02T12:33:15.977Z</time></trkpt><trkpt lat="46.1819491561474" lon="9.388029028132202"><ele>565.4</ele><time>2026-05-02T12:33:16.977Z</time></trkpt><trkpt lat="46.18198559874879" lon="9.388142581534646"><ele>565.8</ele><time>2026-05-02T12:33:17.977Z</time></trkpt><trkpt lat="46.182026560939086" lon="9.388284130521358"><ele>566.2</ele><time>2026-05-02T12:33:18.977Z</time></trkpt><trkpt lat="46.18206184004164" lon="9.388427083288363"><ele>566.6</ele><time>2026-05-02T12:33:19.977Z</time></trkpt><trkpt lat="46.18209423191224" lon="9.388581418409704"><ele>567.0</ele><time>2026-05-02T12:33:20.977Z</time></trkpt><trkpt lat="46.18210832837739" lon="9.388729518426683"><ele>568.4</ele><time>2026-05-02T12:33:21.977Z</time></trkpt><trkpt lat="46.18213199913279" lon="9.388863269787837"><ele>569.8000000000001</ele><time>2026-05-02T12:33:22.977Z</time></trkpt><trkpt lat="46.18214598803363" lon="9.388987350031671"><ele>571.2</ele><time>2026-05-02T12:33:23.977Z</time></trkpt><trkpt lat="46.182154329975674" lon="9.389095554837027"><ele>572.6</ele><time>2026-05-02T12:33:24.977Z</time></trkpt><trkpt lat="46.1821307522338" lon="9.389267883297293"><ele>574.0</ele><time>2026-05-02T12:33:26.974Z</time></trkpt><trkpt lat="46.18214521647455" lon="9.389393182750997"><ele>574.0</ele><time>2026-05-02T12:33:28.973Z</time></trkpt><trkpt lat="46.18216331202501" lon="9.389494552867665"><ele>574.0</ele><time>2026-05-02T12:33:30.973Z</time></trkpt><trkpt lat="46.182253227318625" lon="9.38951730416305"><ele>574.0</ele><time>2026-05-02T12:33:32.973Z</time></trkpt><trkpt lat="46.18230180936987" lon="9.389335895592865"><ele>574.0</ele><time>2026-05-02T12:33:34.973Z</time></trkpt><trkpt lat="46.18229396717905" lon="9.389224044315146"><ele>574.0</ele><time>2026-05-02T12:33:35.973Z</time></trkpt><trkpt lat="46.18229858089476" lon="9.38910503164663"><ele>574.0</ele><time>2026-05-02T12:33:36.973Z</time></trkpt><trkpt lat="46.18229327164755" lon="9.388995670280405"><ele>574.0</ele><time>2026-05-02T12:33:37.973Z</time></trkpt><trkpt lat="46.18229315160657" lon="9.388834765403637"><ele>574.0</ele><time>2026-05-02T12:33:39.974Z</time></trkpt><trkpt lat="46.182318875683094" lon="9.388729395714348"><ele>574.0</ele><time>2026-05-02T12:33:42.974Z</time></trkpt><trkpt lat="46.18239573921212" lon="9.388813043367557"><ele>574.0</ele><time>2026-05-02T12:33:44.974Z</time></trkpt><trkpt lat="46.182424973662975" lon="9.388926196973836"><ele>574.0</ele><time>2026-05-02T12:33:45.974Z</time></trkpt><trkpt lat="46.182445488721235" lon="9.389039894818032"><ele>581.6</ele><time>2026-05-02T12:33:46.974Z</time></trkpt><trkpt lat="46.182472760919836" lon="9.389176122302578"><ele>589.2</ele><time>2026-05-02T12:33:47.974Z</time></trkpt><trkpt lat="46.18250022608626" lon="9.38930723321688"><ele>596.8000000000001</ele><time>2026-05-02T12:33:48.974Z</time></trkpt><trkpt lat="46.182530537533424" lon="9.38944087708167"><ele>604.4</ele><time>2026-05-02T12:33:49.974Z</time></trkpt><trkpt lat="46.18254194594211" lon="9.389577469418196"><ele>612.0</ele><time>2026-05-02T12:33:50.974Z</time></trkpt><trkpt lat="46.18256649448373" lon="9.389710514318446"><ele>612.0</ele><time>2026-05-02T12:33:51.974Z</time></trkpt><trkpt lat="46.18259150759423" lon="9.389835748970052"><ele>612.0</ele><time>2026-05-02T12:33:52.974Z</time></trkpt><trkpt lat="46.18261580905923" lon="9.38994898057349"><ele>612.0</ele><time>2026-05-02T12:33:53.974Z</time></trkpt><trkpt lat="46.18265288985181" lon="9.390039081508604"><ele>612.0</ele><time>2026-05-02T12:33:54.974Z</time></trkpt><trkpt lat="46.182658978724845" lon="9.390130681172675"><ele>612.0</ele><time>2026-05-02T12:33:55.974Z</time></trkpt><trkpt lat="46.18267014958132" lon="9.39027310710043"><ele>612.0</ele><time>2026-05-02T12:33:57.974Z</time></trkpt><trkpt lat="46.182741783773636" lon="9.390304555608461"><ele>612.0</ele><time>2026-05-02T12:34:00.974Z</time></trkpt><trkpt lat="46.182800894382794" lon="9.390236553820703"><ele>612.0</ele><time>2026-05-02T12:34:02.974Z</time></trkpt><trkpt lat="46.1828286031367" lon="9.390081204314937"><ele>612.0</ele><time>2026-05-02T12:34:03.974Z</time></trkpt><trkpt lat="46.182815133414415" lon="9.389935944907634"><ele>612.0</ele><time>2026-05-02T12:34:04.974Z</time></trkpt><trkpt lat="46.18279508864494" lon="9.389791631969217"><ele>612.0</ele><time>2026-05-02T12:34:05.974Z</time></trkpt><trkpt lat="46.18277582042287" lon="9.389649034108837"><ele>612.6</ele><time>2026-05-02T12:34:06.974Z</time></trkpt><trkpt lat="46.18276219768952" lon="9.38951413172972"><ele>613.2</ele><time>2026-05-02T12:34:07.974Z</time></trkpt><trkpt lat="46.18275311282114" lon="9.389380549379648"><ele>613.8</ele><time>2026-05-02T12:34:08.974Z</time></trkpt><trkpt lat="46.18274684659666" lon="9.389246785824117"><ele>614.4</ele><time>2026-05-02T12:34:09.974Z</time></trkpt><trkpt lat="46.18273878202527" lon="9.389114756083542"><ele>615.0</ele><time>2026-05-02T12:34:10.974Z</time></trkpt><trkpt lat="46.18274328980542" lon="9.38898180913549"><ele>615.0</ele><time>2026-05-02T12:34:11.974Z</time></trkpt><trkpt lat="46.18274834535669" lon="9.388858376970376"><ele>615.0</ele><time>2026-05-02T12:34:12.974Z</time></trkpt><trkpt lat="46.1827533949475" lon="9.38873749039416"><ele>615.0</ele><time>2026-05-02T12:34:13.974Z</time></trkpt><trkpt lat="46.18275613262776" lon="9.388617362077333"><ele>615.0</ele><time>2026-05-02T12:34:14.974Z</time></trkpt><trkpt lat="46.18276784542535" lon="9.388497419309408"><ele>615.0</ele><time>2026-05-02T12:34:15.974Z</time></trkpt><trkpt lat="46.18278247904644" lon="9.388386131247955"><ele>615.0</ele><time>2026-05-02T12:34:16.974Z</time></trkpt><trkpt lat="46.18281284752779" lon="9.388251536718986"><ele>615.6</ele><time>2026-05-02T12:34:17.974Z</time></trkpt><trkpt lat="46.1828387536968" lon="9.388112976980183"><ele>616.2</ele><time>2026-05-02T12:34:18.974Z</time></trkpt><trkpt lat="46.182860275105625" lon="9.387973505034509"><ele>616.8</ele><time>2026-05-02T12:34:19.974Z</time></trkpt><trkpt lat="46.18288145430996" lon="9.387841693794986"><ele>617.4</ele><time>2026-05-02T12:34:20.974Z</time></trkpt><trkpt lat="46.182889047995396" lon="9.387719741832377"><ele>618.0</ele><time>2026-05-02T12:34:21.974Z</time></trkpt><trkpt lat="46.18289635601891" lon="9.387585196231901"><ele>616.8333333333334</ele><time>2026-05-02T12:34:22.974Z</time></trkpt><trkpt lat="46.18293393391117" lon="9.387482192711994"><ele>615.6666666666666</ele><time>2026-05-02T12:34:23.974Z</time></trkpt><trkpt lat="46.18296610491121" lon="9.387385308596008"><ele>614.5</ele><time>2026-05-02T12:34:24.974Z</time></trkpt><trkpt lat="46.183004393815565" lon="9.387301510363208"><ele>613.3333333333333</ele><time>2026-05-02T12:34:25.974Z</time></trkpt><trkpt lat="46.18304813742357" lon="9.387209308224556"><ele>612.1666666666666</ele><time>2026-05-02T12:34:26.974Z</time></trkpt><trkpt lat="46.18308469081999" lon="9.387109920183358"><ele>611.0</ele><time>2026-05-02T12:34:27.974Z</time></trkpt><trkpt lat="46.183111331502" lon="9.387004999290093"><ele>609.8333333333333</ele><time>2026-05-02T12:34:28.974Z</time></trkpt><trkpt lat="46.18312557998808" lon="9.386897509076768"><ele>608.6666666666666</ele><time>2026-05-02T12:34:29.974Z</time></trkpt><trkpt lat="46.18315727346109" lon="9.38678668194414"><ele>607.5</ele><time>2026-05-02T12:34:30.974Z</time></trkpt><trkpt lat="46.183171025254836" lon="9.386660554155371"><ele>606.3333333333334</ele><time>2026-05-02T12:34:31.974Z</time></trkpt><trkpt lat="46.18318392397001" lon="9.386523979881005"><ele>605.1666666666667</ele><time>2026-05-02T12:34:32.974Z</time></trkpt><trkpt lat="46.18320106696874" lon="9.386389615942475"><ele>604.0</ele><time>2026-05-02T12:34:33.974Z</time></trkpt><trkpt lat="46.183217104693135" lon="9.386259748700411"><ele>611.0</ele><time>2026-05-02T12:34:34.975Z</time></trkpt><trkpt lat="46.1832387718903" lon="9.386130055130558"><ele>618.0</ele><time>2026-05-02T12:34:35.975Z</time></trkpt><trkpt lat="46.18326011932252" lon="9.38598617453398"><ele>625.0</ele><time>2026-05-02T12:34:36.975Z</time></trkpt><trkpt lat="46.18328908634563" lon="9.385849962625219"><ele>632.0</ele><time>2026-05-02T12:34:37.975Z</time></trkpt><trkpt lat="46.183316349709926" lon="9.38573211555207"><ele>639.0</ele><time>2026-05-02T12:34:38.975Z</time></trkpt><trkpt lat="46.183328890436705" lon="9.385629759710502"><ele>639.0</ele><time>2026-05-02T12:34:39.975Z</time></trkpt><trkpt lat="46.183349521940876" lon="9.385529304282127"><ele>639.0</ele><time>2026-05-02T12:34:41.975Z</time></trkpt><trkpt lat="46.183406495289006" lon="9.385399332823487"><ele>639.0</ele><time>2026-05-02T12:34:45.975Z</time></trkpt><trkpt lat="46.18339370823202" lon="9.385289266792741"><ele>639.0</ele><time>2026-05-02T12:34:46.975Z</time></trkpt><trkpt lat="46.18341793915338" lon="9.38512186305951"><ele>639.0</ele><time>2026-05-02T12:34:48.975Z</time></trkpt><trkpt lat="46.18340489161088" lon="9.384973226176422"><ele>639.4285714285714</ele><time>2026-05-02T12:34:50.975Z</time></trkpt><trkpt lat="46.18340687719375" lon="9.384860471172452"><ele>639.8571428571429</ele><time>2026-05-02T12:34:53.975Z</time></trkpt><trkpt lat="46.18337630884689" lon="9.384775486519707"><ele>640.2857142857142</ele><time>2026-05-02T12:35:24.975Z</time></trkpt><trkpt lat="46.18338887773291" lon="9.384882018760345"><ele>640.7142857142858</ele><time>2026-05-02T12:35:47.972Z</time></trkpt><trkpt lat="46.18342048470394" lon="9.384969653858334"><ele>641.1428571428571</ele><time>2026-05-02T12:35:50.972Z</time></trkpt><trkpt lat="46.18342530653973" lon="9.385079207381077"><ele>641.5714285714286</ele><time>2026-05-02T12:35:52.972Z</time></trkpt><trkpt lat="46.18341001077727" lon="9.385192682300623"><ele>642.0</ele><time>2026-05-02T12:35:54.972Z</time></trkpt><trkpt lat="46.18340596989802" lon="9.385284073952873"><ele>642.0</ele><time>2026-05-02T12:35:56.972Z</time></trkpt><trkpt lat="46.18340436822321" lon="9.385393537579198"><ele>642.0</ele><time>2026-05-02T12:35:58.972Z</time></trkpt><trkpt lat="46.183372557314186" lon="9.38552314250967"><ele>642.0</ele><time>2026-05-02T12:36:00.972Z</time></trkpt><trkpt lat="46.183330519362045" lon="9.385704135690201"><ele>642.0</ele><time>2026-05-02T12:36:02.972Z</time></trkpt><trkpt lat="46.183435560689965" lon="9.38590490139503"><ele>641.5714285714286</ele><time>2026-05-02T12:36:03.972Z</time></trkpt><trkpt lat="46.18344627885277" lon="9.386005455009467"><ele>641.1428571428571</ele><time>2026-05-02T12:36:04.972Z</time></trkpt><trkpt lat="46.18346020472739" lon="9.386111799858366"><ele>640.7142857142858</ele><time>2026-05-02T12:36:05.972Z</time></trkpt><trkpt lat="46.18346793573826" lon="9.386218651274417"><ele>640.2857142857142</ele><time>2026-05-02T12:36:06.972Z</time></trkpt><trkpt lat="46.18347605512004" lon="9.386313550060224"><ele>639.8571428571429</ele><time>2026-05-02T12:36:07.972Z</time></trkpt><trkpt lat="46.183489702514585" lon="9.38640768952532"><ele>639.4285714285714</ele><time>2026-05-02T12:36:08.972Z</time></trkpt><trkpt lat="46.18348470024565" lon="9.386509609467874"><ele>639.0</ele><time>2026-05-02T12:36:09.972Z</time></trkpt><trkpt lat="46.18349460772387" lon="9.386609574409633"><ele>640.4</ele><time>2026-05-02T12:36:10.972Z</time></trkpt><trkpt lat="46.18349322533607" lon="9.386709581714104"><ele>641.8</ele><time>2026-05-02T12:36:11.972Z</time></trkpt><trkpt lat="46.18350409707099" lon="9.386849942753866"><ele>643.1999999999999</ele><time>2026-05-02T12:36:13.972Z</time></trkpt><trkpt lat="46.18352280452369" lon="9.386968202186784"><ele>644.5999999999999</ele><time>2026-05-02T12:36:16.972Z</time></trkpt><trkpt lat="46.18365398426621" lon="9.386897287604487"><ele>646.0</ele><time>2026-05-02T12:36:35.973Z</time></trkpt><trkpt lat="46.183687196604986" lon="9.38680417089231"><ele>646.0000000000001</ele><time>2026-05-02T12:36:36.973Z</time></trkpt><trkpt lat="46.1837156643664" lon="9.386710463715302"><ele>646.0</ele><time>2026-05-02T12:36:37.973Z</time></trkpt><trkpt lat="46.1837409166776" lon="9.386616093842331"><ele>646.0</ele><time>2026-05-02T12:36:38.973Z</time></trkpt><trkpt lat="46.183751900685934" lon="9.386520655697044"><ele>646.0</ele><time>2026-05-02T12:36:39.973Z</time></trkpt><trkpt lat="46.18379839360344" lon="9.386449452453427"><ele>646.0</ele><time>2026-05-02T12:36:40.973Z</time></trkpt><trkpt lat="46.18382973392937" lon="9.386355872083975"><ele>646.0000000000001</ele><time>2026-05-02T12:36:41.973Z</time></trkpt><trkpt lat="46.18384940087349" lon="9.386248864641125"><ele>646.0</ele><time>2026-05-02T12:36:42.973Z</time></trkpt><trkpt lat="46.18387230118031" lon="9.386149835034733"><ele>645.0000000000001</ele><time>2026-05-02T12:36:43.973Z</time></trkpt><trkpt lat="46.183892579626054" lon="9.38604622151452"><ele>644.0</ele><time>2026-05-02T12:36:44.973Z</time></trkpt><trkpt lat="46.18391963339657" lon="9.385948545733637"><ele>643.0</ele><time>2026-05-02T12:36:45.973Z</time></trkpt><trkpt lat="46.183943368420195" lon="9.385853902714464"><ele>642.0</ele><time>2026-05-02T12:36:46.973Z</time></trkpt><trkpt lat="46.18397392330236" lon="9.385756193172872"><ele>641.0</ele><time>2026-05-02T12:36:47.973Z</time></trkpt><trkpt lat="46.18400504908858" lon="9.3856601620057"><ele>640.0000000000001</ele><time>2026-05-02T12:36:48.973Z</time></trkpt><trkpt lat="46.184039908928014" lon="9.385581625909163"><ele>639.0</ele><time>2026-05-02T12:36:49.973Z</time></trkpt><trkpt lat="46.184077212922304" lon="9.385385630624516"><ele>645.1666666666666</ele><time>2026-05-02T12:36:51.973Z</time></trkpt><trkpt lat="46.18411855582178" lon="9.385306719012005"><ele>651.3333333333334</ele><time>2026-05-02T12:36:52.973Z</time></trkpt><trkpt lat="46.18413940726068" lon="9.385218063376225"><ele>657.5</ele><time>2026-05-02T12:36:53.973Z</time></trkpt><trkpt lat="46.18416974550348" lon="9.385129089508599"><ele>663.6666666666667</ele><time>2026-05-02T12:36:54.973Z</time></trkpt><trkpt lat="46.18420187499048" lon="9.385036000080868"><ele>669.8333333333334</ele><time>2026-05-02T12:36:55.973Z</time></trkpt><trkpt lat="46.18426751081845" lon="9.384890083692737"><ele>676.0</ele><time>2026-05-02T12:36:57.973Z</time></trkpt><trkpt lat="46.184292881078115" lon="9.384799398094605"><ele>676.0</ele><time>2026-05-02T12:36:58.973Z</time></trkpt><trkpt lat="46.184316270767184" lon="9.384698221460726"><ele>676.0</ele><time>2026-05-02T12:36:59.973Z</time></trkpt><trkpt lat="46.18434298434778" lon="9.384603863785044"><ele>676.0</ele><time>2026-05-02T12:37:00.973Z</time></trkpt><trkpt lat="46.184371231115655" lon="9.384511909509873"><ele>676.0</ele><time>2026-05-02T12:37:01.973Z</time></trkpt><trkpt lat="46.184396539046574" lon="9.38441116694326"><ele>676.0</ele><time>2026-05-02T12:37:02.973Z</time></trkpt><trkpt lat="46.18441206718799" lon="9.384305084564529"><ele>676.0</ele><time>2026-05-02T12:37:03.973Z</time></trkpt><trkpt lat="46.18442383289299" lon="9.384190780544124"><ele>676.0</ele><time>2026-05-02T12:37:04.973Z</time></trkpt><trkpt lat="46.18443725902152" lon="9.384087533713608"><ele>674.8333333333334</ele><time>2026-05-02T12:37:05.973Z</time></trkpt><trkpt lat="46.184453937127515" lon="9.383989074172256"><ele>673.6666666666667</ele><time>2026-05-02T12:37:06.973Z</time></trkpt><trkpt lat="46.184493532955386" lon="9.383898328435018"><ele>672.5</ele><time>2026-05-02T12:37:07.973Z</time></trkpt><trkpt lat="46.184506249792925" lon="9.38379770054907"><ele>671.3333333333334</ele><time>2026-05-02T12:37:08.973Z</time></trkpt><trkpt lat="46.18452668331782" lon="9.38370783320384"><ele>670.1666666666666</ele><time>2026-05-02T12:37:09.973Z</time></trkpt><trkpt lat="46.18455045782859" lon="9.38361664078639"><ele>669.0</ele><time>2026-05-02T12:37:10.973Z</time></trkpt><trkpt lat="46.18459316067337" lon="9.38347345706345"><ele>668.8000000000001</ele><time>2026-05-02T12:37:12.973Z</time></trkpt><trkpt lat="46.18463098848122" lon="9.383371795888232"><ele>668.6</ele><time>2026-05-02T12:37:14.973Z</time></trkpt><trkpt lat="46.18465469074448" lon="9.383280097566287"><ele>668.4</ele><time>2026-05-02T12:37:16.973Z</time></trkpt><trkpt lat="46.18470169572975" lon="9.383347309268173"><ele>668.2</ele><time>2026-05-02T12:37:20.973Z</time></trkpt><trkpt lat="46.18471837982774" lon="9.383506358671283"><ele>668.0</ele><time>2026-05-02T12:37:22.974Z</time></trkpt><trkpt lat="46.18471640999654" lon="9.383685963453189"><ele>668.1666666666666</ele><time>2026-05-02T12:37:24.974Z</time></trkpt><trkpt lat="46.184688251164864" lon="9.383867315553307"><ele>668.3333333333333</ele><time>2026-05-02T12:37:26.974Z</time></trkpt><trkpt lat="46.18468251444523" lon="9.383959966432624"><ele>668.5</ele><time>2026-05-02T12:37:27.974Z</time></trkpt><trkpt lat="46.18467725526615" lon="9.384064307749858"><ele>668.6666666666666</ele><time>2026-05-02T12:37:28.974Z</time></trkpt><trkpt lat="46.184676623292674" lon="9.38416573344454"><ele>668.8333333333334</ele><time>2026-05-02T12:37:29.974Z</time></trkpt><trkpt lat="46.18467840103008" lon="9.384268116592088"><ele>669.0</ele><time>2026-05-02T12:37:30.974Z</time></trkpt><trkpt lat="46.18468538617942" lon="9.38436109060027"><ele>669.0</ele><time>2026-05-02T12:37:31.974Z</time></trkpt><trkpt lat="46.184706236107296" lon="9.384537084258634"><ele>669.0</ele><time>2026-05-02T12:37:33.974Z</time></trkpt><trkpt lat="46.18470186614709" lon="9.384643681690918"><ele>669.0</ele><time>2026-05-02T12:37:34.974Z</time></trkpt><trkpt lat="46.18472161740534" lon="9.384812312488995"><ele>669.0</ele><time>2026-05-02T12:37:36.974Z</time></trkpt><trkpt lat="46.184725905607394" lon="9.384980491766324"><ele>669.0</ele><time>2026-05-02T12:37:38.971Z</time></trkpt><trkpt lat="46.184732249220076" lon="9.385076880593571"><ele>670.1666666666666</ele><time>2026-05-02T12:37:39.971Z</time></trkpt><trkpt lat="46.184741213734185" lon="9.38517355249216"><ele>671.3333333333334</ele><time>2026-05-02T12:37:40.971Z</time></trkpt><trkpt lat="46.184750047803085" lon="9.385280917406316"><ele>672.5</ele><time>2026-05-02T12:37:41.971Z</time></trkpt><trkpt lat="46.18474962540132" lon="9.385388394593143"><ele>673.6666666666667</ele><time>2026-05-02T12:37:42.971Z</time></trkpt><trkpt lat="46.18475410860903" lon="9.3855024165976"><ele>674.8333333333334</ele><time>2026-05-02T12:37:43.971Z</time></trkpt><trkpt lat="46.1847748015857" lon="9.385613731568846"><ele>676.0</ele><time>2026-05-02T12:37:44.97Z</time></trkpt><trkpt lat="46.18478230734278" lon="9.385726768092272"><ele>677.0</ele><time>2026-05-02T12:37:45.97Z</time></trkpt><trkpt lat="46.18479114256129" lon="9.385838877644746"><ele>678.0</ele><time>2026-05-02T12:37:46.971Z</time></trkpt><trkpt lat="46.18480139907348" lon="9.38595136749832"><ele>679.0</ele><time>2026-05-02T12:37:47.971Z</time></trkpt><trkpt lat="46.18481495690261" lon="9.386128624546368"><ele>680.0</ele><time>2026-05-02T12:37:49.971Z</time></trkpt><trkpt lat="46.18480612221591" lon="9.386224907871577"><ele>681.0</ele><time>2026-05-02T12:37:50.971Z</time></trkpt><trkpt lat="46.18480842498523" lon="9.386323009982226"><ele>682.0</ele><time>2026-05-02T12:37:51.971Z</time></trkpt><trkpt lat="46.18483019254443" lon="9.386514635638068"><ele>690.6666666666667</ele><time>2026-05-02T12:37:53.972Z</time></trkpt><trkpt lat="46.184848536975316" lon="9.386626118503242"><ele>699.3333333333334</ele><time>2026-05-02T12:37:54.972Z</time></trkpt><trkpt lat="46.18485851127633" lon="9.38674662802324"><ele>708.0</ele><time>2026-05-02T12:37:55.972Z</time></trkpt><trkpt lat="46.184877853886434" lon="9.386857288041645"><ele>716.6666666666666</ele><time>2026-05-02T12:37:56.972Z</time></trkpt><trkpt lat="46.18489101691551" lon="9.386974254558856"><ele>725.3333333333333</ele><time>2026-05-02T12:37:57.972Z</time></trkpt><trkpt lat="46.18491388118885" lon="9.387097516971828"><ele>734.0</ele><time>2026-05-02T12:37:58.972Z</time></trkpt><trkpt lat="46.184931091732416" lon="9.387213931475932"><ele>734.0</ele><time>2026-05-02T12:37:59.972Z</time></trkpt><trkpt lat="46.184944475288816" lon="9.38731390904687"><ele>734.0</ele><time>2026-05-02T12:38:00.972Z</time></trkpt><trkpt lat="46.184939791168155" lon="9.387406931689096"><ele>734.0</ele><time>2026-05-02T12:38:01.972Z</time></trkpt><trkpt lat="46.184955541946955" lon="9.387592214069565"><ele>734.0</ele><time>2026-05-02T12:38:03.972Z</time></trkpt><trkpt lat="46.18496001241992" lon="9.387701783874396"><ele>734.0</ele><time>2026-05-02T12:38:04.972Z</time></trkpt><trkpt lat="46.184955037468136" lon="9.387818172566588"><ele>734.0</ele><time>2026-05-02T12:38:05.972Z</time></trkpt><trkpt lat="46.18495072961495" lon="9.387939465343598"><ele>735.8000000000001</ele><time>2026-05-02T12:38:06.972Z</time></trkpt><trkpt lat="46.184940447193334" lon="9.388078561274845"><ele>737.6</ele><time>2026-05-02T12:38:07.972Z</time></trkpt><trkpt lat="46.18492049038138" lon="9.388217348674141"><ele>739.4</ele><time>2026-05-02T12:38:08.972Z</time></trkpt><trkpt lat="46.18488211680028" lon="9.388353995957903"><ele>741.2</ele><time>2026-05-02T12:38:09.972Z</time></trkpt><trkpt lat="46.1848770430288" lon="9.38849581648739"><ele>743.0</ele><time>2026-05-02T12:38:10.972Z</time></trkpt><trkpt lat="46.18486292343374" lon="9.388615951955572"><ele>736.5999999999999</ele><time>2026-05-02T12:38:11.972Z</time></trkpt><trkpt lat="46.184835809536885" lon="9.388731497843375"><ele>730.1999999999999</ele><time>2026-05-02T12:38:12.972Z</time></trkpt><trkpt lat="46.18482342550783" lon="9.388914680605732"><ele>723.8</ele><time>2026-05-02T12:38:14.972Z</time></trkpt><trkpt lat="46.18481036689374" lon="9.389109472143076"><ele>717.4</ele><time>2026-05-02T12:38:16.972Z</time></trkpt><trkpt lat="46.18480410754257" lon="9.389223377679938"><ele>711.0</ele><time>2026-05-02T12:38:17.972Z</time></trkpt><trkpt lat="46.18480588217594" lon="9.389335432860065"><ele>711.0</ele><time>2026-05-02T12:38:18.972Z</time></trkpt><trkpt lat="46.18480633078459" lon="9.3894420941456"><ele>711.0</ele><time>2026-05-02T12:38:19.972Z</time></trkpt><trkpt lat="46.18480665206475" lon="9.3895351156747"><ele>711.0</ele><time>2026-05-02T12:38:20.972Z</time></trkpt><trkpt lat="46.18481964381941" lon="9.389641749571387"><ele>711.0</ele><time>2026-05-02T12:38:21.972Z</time></trkpt><trkpt lat="46.184855952090516" lon="9.389751409341558"><ele>711.0</ele><time>2026-05-02T12:38:22.972Z</time></trkpt><trkpt lat="46.184849414953135" lon="9.389875667766628"><ele>711.0</ele><time>2026-05-02T12:38:23.972Z</time></trkpt><trkpt lat="46.18485974124696" lon="9.39000158112593"><ele>719.0</ele><time>2026-05-02T12:38:24.972Z</time></trkpt><trkpt lat="46.18487165316446" lon="9.390123817921639"><ele>727.0</ele><time>2026-05-02T12:38:25.972Z</time></trkpt><trkpt lat="46.1849003374129" lon="9.39025700944214"><ele>735.0</ele><time>2026-05-02T12:38:26.972Z</time></trkpt><trkpt lat="46.184902091937275" lon="9.390387761480214"><ele>743.0</ele><time>2026-05-02T12:38:27.972Z</time></trkpt><trkpt lat="46.18491792807595" lon="9.390514452157136"><ele>751.0</ele><time>2026-05-02T12:38:28.972Z</time></trkpt><trkpt lat="46.18493728588363" lon="9.390614620973626"><ele>759.0</ele><time>2026-05-02T12:38:29.972Z</time></trkpt><trkpt lat="46.184959183858766" lon="9.390788524203154"><ele>759.0</ele><time>2026-05-02T12:38:31.972Z</time></trkpt><trkpt lat="46.18498003120679" lon="9.390875666425622"><ele>759.0</ele><time>2026-05-02T12:38:32.972Z</time></trkpt><trkpt lat="46.18500400510945" lon="9.390963161759528"><ele>759.0</ele><time>2026-05-02T12:38:33.972Z</time></trkpt><trkpt lat="46.18505170753275" lon="9.3910534028436"><ele>759.0</ele><time>2026-05-02T12:38:34.972Z</time></trkpt><trkpt lat="46.18506443247988" lon="9.391169040087835"><ele>759.0</ele><time>2026-05-02T12:38:35.972Z</time></trkpt><trkpt lat="46.18510899054003" lon="9.391296695446112"><ele>759.0</ele><time>2026-05-02T12:38:36.972Z</time></trkpt><trkpt lat="46.18515933414727" lon="9.391421752348903"><ele>758.6</ele><time>2026-05-02T12:38:37.972Z</time></trkpt><trkpt lat="46.18520946300231" lon="9.391555588598651"><ele>758.2</ele><time>2026-05-02T12:38:38.972Z</time></trkpt><trkpt lat="46.185253725616924" lon="9.391681272964227"><ele>757.8000000000001</ele><time>2026-05-02T12:38:39.972Z</time></trkpt><trkpt lat="46.18528292791328" lon="9.391821024014071"><ele>757.4000000000001</ele><time>2026-05-02T12:38:40.972Z</time></trkpt><trkpt lat="46.18531295432142" lon="9.391942206169029"><ele>757.0</ele><time>2026-05-02T12:38:41.972Z</time></trkpt><trkpt lat="46.185341105021124" lon="9.39206316116927"><ele>754.3333333333334</ele><time>2026-05-02T12:38:42.972Z</time></trkpt><trkpt lat="46.185365566852965" lon="9.392177963326164"><ele>751.6666666666667</ele><time>2026-05-02T12:38:43.972Z</time></trkpt><trkpt lat="46.18538167503314" lon="9.392287224516053"><ele>749.0</ele><time>2026-05-02T12:38:44.972Z</time></trkpt><trkpt lat="46.185402042474706" lon="9.392378990290927"><ele>746.3333333333334</ele><time>2026-05-02T12:38:45.972Z</time></trkpt><trkpt lat="46.18541923244474" lon="9.392565305110512"><ele>743.6666666666666</ele><time>2026-05-02T12:38:47.973Z</time></trkpt><trkpt lat="46.18542528750394" lon="9.392666357991587"><ele>741.0</ele><time>2026-05-02T12:38:48.973Z</time></trkpt><trkpt lat="46.185450519485066" lon="9.392783397413979"><ele>741.0</ele><time>2026-05-02T12:38:49.973Z</time></trkpt><trkpt lat="46.185473691746246" lon="9.392889739244932"><ele>741.0</ele><time>2026-05-02T12:38:50.973Z</time></trkpt><trkpt lat="46.1854916989407" lon="9.392992140465214"><ele>741.0</ele><time>2026-05-02T12:38:51.973Z</time></trkpt><trkpt lat="46.185500824983706" lon="9.39309708602583"><ele>741.0</ele><time>2026-05-02T12:38:52.973Z</time></trkpt><trkpt lat="46.18550490870812" lon="9.393200807598513"><ele>741.0</ele><time>2026-05-02T12:38:53.973Z</time></trkpt><trkpt lat="46.185517168023914" lon="9.393311406588012"><ele>741.0</ele><time>2026-05-02T12:38:54.973Z</time></trkpt><trkpt lat="46.185533739443336" lon="9.393436226711913"><ele>739.0</ele><time>2026-05-02T12:38:55.973Z</time></trkpt><trkpt lat="46.185567780378804" lon="9.393541006780035"><ele>737.0</ele><time>2026-05-02T12:38:56.973Z</time></trkpt><trkpt lat="46.18561274882836" lon="9.393659511686636"><ele>735.0</ele><time>2026-05-02T12:38:57.973Z</time></trkpt><trkpt lat="46.18566313941808" lon="9.393764049429228"><ele>733.0</ele><time>2026-05-02T12:38:58.973Z</time></trkpt><trkpt lat="46.185685283709816" lon="9.393886369824166"><ele>731.0</ele><time>2026-05-02T12:38:59.973Z</time></trkpt><trkpt lat="46.18573623042175" lon="9.394020064893157"><ele>740.0</ele><time>2026-05-02T12:39:00.973Z</time></trkpt><trkpt lat="46.185781758256226" lon="9.394129230065571"><ele>749.0</ele><time>2026-05-02T12:39:01.973Z</time></trkpt><trkpt lat="46.185837047765226" lon="9.394233611049176"><ele>758.0</ele><time>2026-05-02T12:39:02.973Z</time></trkpt><trkpt lat="46.185892773681296" lon="9.39434734168255"><ele>767.0</ele><time>2026-05-02T12:39:03.973Z</time></trkpt><trkpt lat="46.18594248667353" lon="9.39447176568165"><ele>776.0</ele><time>2026-05-02T12:39:04.973Z</time></trkpt><trkpt lat="46.18600168504546" lon="9.394593231098105"><ele>772.8</ele><time>2026-05-02T12:39:05.973Z</time></trkpt><trkpt lat="46.18607729585334" lon="9.394701680256434"><ele>769.5999999999999</ele><time>2026-05-02T12:39:06.973Z</time></trkpt><trkpt lat="46.18614208564545" lon="9.394811047580957"><ele>766.4</ele><time>2026-05-02T12:39:07.973Z</time></trkpt><trkpt lat="46.186210781161456" lon="9.394931507131892"><ele>763.2</ele><time>2026-05-02T12:39:08.973Z</time></trkpt><trkpt lat="46.186272700995374" lon="9.395046760493242"><ele>760.0</ele><time>2026-05-02T12:39:09.973Z</time></trkpt><trkpt lat="46.186331836577146" lon="9.3951491960396"><ele>760.0</ele><time>2026-05-02T12:39:10.973Z</time></trkpt><trkpt lat="46.1863900950591" lon="9.395228130913328"><ele>760.0</ele><time>2026-05-02T12:39:11.973Z</time></trkpt><trkpt lat="46.18644770689076" lon="9.395325635227973"><ele>760.0</ele><time>2026-05-02T12:39:12.973Z</time></trkpt><trkpt lat="46.18650353511998" lon="9.395409357802931"><ele>760.0</ele><time>2026-05-02T12:39:13.973Z</time></trkpt><trkpt lat="46.18654285571168" lon="9.395514128376421"><ele>760.0</ele><time>2026-05-02T12:39:14.973Z</time></trkpt><trkpt lat="46.18658575954632" lon="9.39559672639269"><ele>760.0</ele><time>2026-05-02T12:39:15.973Z</time></trkpt><trkpt lat="46.18666681934328" lon="9.395744176656459"><ele>766.4</ele><time>2026-05-02T12:39:17.973Z</time></trkpt><trkpt lat="46.18671471054056" lon="9.39582356902785"><ele>772.8</ele><time>2026-05-02T12:39:18.973Z</time></trkpt><trkpt lat="46.186821520921015" lon="9.395950284972802"><ele>779.2</ele><time>2026-05-02T12:39:20.973Z</time></trkpt><trkpt lat="46.18691755293615" lon="9.39601698957924"><ele>785.6</ele><time>2026-05-02T12:39:21.973Z</time></trkpt><trkpt lat="46.18700001317601" lon="9.396051928183557"><ele>792.0</ele><time>2026-05-02T12:39:22.973Z</time></trkpt><trkpt lat="46.18707375482416" lon="9.396080778542595"><ele>792.0</ele><time>2026-05-02T12:39:23.973Z</time></trkpt><trkpt lat="46.18713796397276" lon="9.396113455033413"><ele>792.0</ele><time>2026-05-02T12:39:24.973Z</time></trkpt><trkpt lat="46.18725483516316" lon="9.39620120548525"><ele>792.0</ele><time>2026-05-02T12:39:26.973Z</time></trkpt><trkpt lat="46.18731920058265" lon="9.396258846492712"><ele>792.0</ele><time>2026-05-02T12:39:27.973Z</time></trkpt><trkpt lat="46.187393066064" lon="9.396311176659875"><ele>792.0</ele><time>2026-05-02T12:39:28.973Z</time></trkpt><trkpt lat="46.187455596185565" lon="9.39636299906377"><ele>792.0</ele><time>2026-05-02T12:39:29.973Z</time></trkpt><trkpt lat="46.18751483567463" lon="9.396443099577175"><ele>794.1666666666666</ele><time>2026-05-02T12:39:30.973Z</time></trkpt><trkpt lat="46.18757387827637" lon="9.396499976807494"><ele>796.3333333333333</ele><time>2026-05-02T12:39:31.973Z</time></trkpt><trkpt lat="46.18763123941287" lon="9.396551731739775"><ele>798.5</ele><time>2026-05-02T12:39:32.973Z</time></trkpt><trkpt lat="46.18772234538581" lon="9.396641013623443"><ele>800.6666666666666</ele><time>2026-05-02T12:39:34.973Z</time></trkpt><trkpt lat="46.187787095182344" lon="9.396706774418202"><ele>802.8333333333333</ele><time>2026-05-02T12:39:36.973Z</time></trkpt><trkpt lat="46.18785404058861" lon="9.396766396459327"><ele>805.0</ele><time>2026-05-02T12:39:38.973Z</time></trkpt><trkpt lat="46.18794274124382" lon="9.396770151728559"><ele>805.0</ele><time>2026-05-02T12:39:40.973Z</time></trkpt><trkpt lat="46.18794921713801" lon="9.396609499556948"><ele>805.0</ele><time>2026-05-02T12:39:42.974Z</time></trkpt><trkpt lat="46.18792640598037" lon="9.396419950754881"><ele>805.0</ele><time>2026-05-02T12:39:44.97Z</time></trkpt><trkpt lat="46.18787471803636" lon="9.396217765277095"><ele>805.0</ele><time>2026-05-02T12:39:46.971Z</time></trkpt><trkpt lat="46.18783744175049" lon="9.396101272481255"><ele>807.1666666666666</ele><time>2026-05-02T12:39:47.971Z</time></trkpt><trkpt lat="46.187802483318656" lon="9.395997916160768"><ele>809.3333333333333</ele><time>2026-05-02T12:39:48.971Z</time></trkpt><trkpt lat="46.18776353066422" lon="9.3958879058337"><ele>811.5</ele><time>2026-05-02T12:39:49.97Z</time></trkpt><trkpt lat="46.18770834318746" lon="9.395774762417432"><ele>813.6666666666667</ele><time>2026-05-02T12:39:50.97Z</time></trkpt><trkpt lat="46.1876895459087" lon="9.395663010298327"><ele>815.8333333333334</ele><time>2026-05-02T12:39:51.97Z</time></trkpt><trkpt lat="46.18766429628191" lon="9.39555562208103"><ele>818.0</ele><time>2026-05-02T12:39:52.97Z</time></trkpt><trkpt lat="46.18764790822294" lon="9.39545506136174"><ele>822.0000000000001</ele><time>2026-05-02T12:39:53.97Z</time></trkpt><trkpt lat="46.18760778492285" lon="9.395377146819058"><ele>826.0</ele><time>2026-05-02T12:39:54.97Z</time></trkpt><trkpt lat="46.18757606637925" lon="9.39528292787058"><ele>830.0</ele><time>2026-05-02T12:39:55.97Z</time></trkpt><trkpt lat="46.18753841289258" lon="9.395180976442894"><ele>834.0</ele><time>2026-05-02T12:39:56.971Z</time></trkpt><trkpt lat="46.18747610401935" lon="9.395104957127804"><ele>838.0000000000001</ele><time>2026-05-02T12:39:57.971Z</time></trkpt><trkpt lat="46.187428188787315" lon="9.39501724037926"><ele>842.0</ele><time>2026-05-02T12:39:58.971Z</time></trkpt><trkpt lat="46.18736952866597" lon="9.394939165931522"><ele>839.3333333333334</ele><time>2026-05-02T12:39:59.971Z</time></trkpt><trkpt lat="46.18729607585002" lon="9.394855239436474"><ele>836.6666666666667</ele><time>2026-05-02T12:40:00.971Z</time></trkpt><trkpt lat="46.18722910538072" lon="9.394777492980712"><ele>834.0</ele><time>2026-05-02T12:40:01.971Z</time></trkpt><trkpt lat="46.18716609617967" lon="9.394694476657945"><ele>831.3333333333333</ele><time>2026-05-02T12:40:02.971Z</time></trkpt><trkpt lat="46.18711283880014" lon="9.394614132085293"><ele>828.6666666666666</ele><time>2026-05-02T12:40:03.971Z</time></trkpt><trkpt lat="46.187050940446724" lon="9.394489227211565"><ele>826.0</ele><time>2026-05-02T12:40:05.971Z</time></trkpt><trkpt lat="46.18699751496493" lon="9.394365202226851"><ele>825.9999999999999</ele><time>2026-05-02T12:40:07.971Z</time></trkpt><trkpt lat="46.18693596566627" lon="9.39420009077032"><ele>826.0</ele><time>2026-05-02T12:40:09.971Z</time></trkpt><trkpt lat="46.18689187994453" lon="9.394096223615122"><ele>826.0</ele><time>2026-05-02T12:40:10.971Z</time></trkpt><trkpt lat="46.18685714155695" lon="9.393997101785043"><ele>826.0</ele><time>2026-05-02T12:40:11.971Z</time></trkpt><trkpt lat="46.18682998746136" lon="9.393909168442132"><ele>825.9999999999999</ele><time>2026-05-02T12:40:12.971Z</time></trkpt><trkpt lat="46.186816193990666" lon="9.393816745887257"><ele>826.0</ele><time>2026-05-02T12:40:13.971Z</time></trkpt><trkpt lat="46.18678504871171" lon="9.393661218149829"><ele>828.4</ele><time>2026-05-02T12:40:15.971Z</time></trkpt><trkpt lat="46.18678084542068" lon="9.393517794689433"><ele>830.8</ele><time>2026-05-02T12:40:17.971Z</time></trkpt><trkpt lat="46.18679061051155" lon="9.39333949777591"><ele>833.1999999999999</ele><time>2026-05-02T12:40:19.971Z</time></trkpt><trkpt lat="46.18680717075896" lon="9.393246774131846"><ele>835.5999999999999</ele><time>2026-05-02T12:40:20.971Z</time></trkpt><trkpt lat="46.18683902391591" lon="9.39310171669981"><ele>838.0</ele><time>2026-05-02T12:40:22.971Z</time></trkpt><trkpt lat="46.18688654876356" lon="9.393001509837768"><ele>838.0</ele><time>2026-05-02T12:40:24.971Z</time></trkpt><trkpt lat="46.18692096519329" lon="9.392897897910846"><ele>838.0</ele><time>2026-05-02T12:40:27.971Z</time></trkpt><trkpt lat="46.186948682428124" lon="9.39276104681293"><ele>838.0</ele><time>2026-05-02T12:40:30.971Z</time></trkpt><trkpt lat="46.186997163932254" lon="9.39264339482765"><ele>838.0</ele><time>2026-05-02T12:40:32.971Z</time></trkpt><trkpt lat="46.187049775705944" lon="9.392498989444203"><ele>838.0</ele><time>2026-05-02T12:40:34.971Z</time></trkpt><trkpt lat="46.187070763943375" lon="9.392401232823037"><ele>837.9999999999999</ele><time>2026-05-02T12:40:35.971Z</time></trkpt><trkpt lat="46.1871109444883" lon="9.392309134546908"><ele>838.0</ele><time>2026-05-02T12:40:36.971Z</time></trkpt><trkpt lat="46.18714474272914" lon="9.392208331340132"><ele>838.0</ele><time>2026-05-02T12:40:37.971Z</time></trkpt><trkpt lat="46.187178783425786" lon="9.392114236382147"><ele>838.0</ele><time>2026-05-02T12:40:38.971Z</time></trkpt><trkpt lat="46.18721469240615" lon="9.391929572975755"><ele>837.9999999999999</ele><time>2026-05-02T12:40:40.971Z</time></trkpt><trkpt lat="46.18723578729186" lon="9.391833774389026"><ele>838.0</ele><time>2026-05-02T12:40:41.972Z</time></trkpt><trkpt lat="46.187257822482074" lon="9.39173261241044"><ele>837.3333333333333</ele><time>2026-05-02T12:40:42.972Z</time></trkpt><trkpt lat="46.18726954589955" lon="9.391620768870487"><ele>836.6666666666666</ele><time>2026-05-02T12:40:43.972Z</time></trkpt><trkpt lat="46.18730273900473" lon="9.391511568446639"><ele>836.0</ele><time>2026-05-02T12:40:44.972Z</time></trkpt><trkpt lat="46.18733320599743" lon="9.391387569404946"><ele>835.3333333333333</ele><time>2026-05-02T12:40:45.972Z</time></trkpt><trkpt lat="46.18736016437704" lon="9.391262609367727"><ele>834.6666666666666</ele><time>2026-05-02T12:40:46.972Z</time></trkpt><trkpt lat="46.18737656982725" lon="9.391141875211682"><ele>834.0</ele><time>2026-05-02T12:40:47.972Z</time></trkpt><trkpt lat="46.187398401287496" lon="9.391022565877048"><ele>841.0</ele><time>2026-05-02T12:40:48.972Z</time></trkpt><trkpt lat="46.18740763607393" lon="9.39091416102217"><ele>848.0</ele><time>2026-05-02T12:40:49.972Z</time></trkpt><trkpt lat="46.187408065376886" lon="9.390798769989035"><ele>855.0</ele><time>2026-05-02T12:40:50.972Z</time></trkpt><trkpt lat="46.18741731090513" lon="9.390697277931142"><ele>862.0</ele><time>2026-05-02T12:40:51.972Z</time></trkpt><trkpt lat="46.18742573768806" lon="9.390595496290523"><ele>869.0</ele><time>2026-05-02T12:40:52.972Z</time></trkpt><trkpt lat="46.18743284167945" lon="9.390487918765606"><ele>876.0</ele><time>2026-05-02T12:40:53.972Z</time></trkpt><trkpt lat="46.18743888655617" lon="9.39037316741955"><ele>876.1666666666666</ele><time>2026-05-02T12:40:54.972Z</time></trkpt><trkpt lat="46.18744505172072" lon="9.390254797466014"><ele>876.3333333333333</ele><time>2026-05-02T12:40:55.972Z</time></trkpt><trkpt lat="46.18744900907199" lon="9.390126672418939"><ele>876.5</ele><time>2026-05-02T12:40:56.972Z</time></trkpt><trkpt lat="46.18744710545912" lon="9.390021538161173"><ele>876.6666666666666</ele><time>2026-05-02T12:40:57.972Z</time></trkpt><trkpt lat="46.187445331516095" lon="9.38992887261119"><ele>876.8333333333333</ele><time>2026-05-02T12:40:58.972Z</time></trkpt><trkpt lat="46.18746601322247" lon="9.38976571260403"><ele>877.0</ele><time>2026-05-02T12:41:00.972Z</time></trkpt><trkpt lat="46.18745941067753" lon="9.389587292081005"><ele>876.6666666666666</ele><time>2026-05-02T12:41:02.972Z</time></trkpt><trkpt lat="46.187471794468294" lon="9.389407960811964"><ele>876.3333333333333</ele><time>2026-05-02T12:41:04.972Z</time></trkpt><trkpt lat="46.18745173450503" lon="9.389257633430027"><ele>876.0</ele><time>2026-05-02T12:41:06.972Z</time></trkpt><trkpt lat="46.187438569056894" lon="9.389155639824498"><ele>875.6666666666667</ele><time>2026-05-02T12:41:08.972Z</time></trkpt><trkpt lat="46.18748767527476" lon="9.389092369382936"><ele>875.3333333333334</ele><time>2026-05-02T12:41:10.972Z</time></trkpt><trkpt lat="46.18751942743669" lon="9.389191887463099"><ele>875.0</ele><time>2026-05-02T12:41:13.972Z</time></trkpt><trkpt lat="46.187551934966464" lon="9.389364795020295"><ele>875.0000000000001</ele><time>2026-05-02T12:41:15.972Z</time></trkpt><trkpt lat="46.187580596952586" lon="9.38945314875613"><ele>875.0</ele><time>2026-05-02T12:41:16.972Z</time></trkpt><trkpt lat="46.1875959137536" lon="9.389551969754045"><ele>875.0</ele><time>2026-05-02T12:41:17.972Z</time></trkpt><trkpt lat="46.187633402741206" lon="9.389709187402937"><ele>875.0</ele><time>2026-05-02T12:41:19.972Z</time></trkpt><trkpt lat="46.187642048887746" lon="9.389807895336975"><ele>875.0000000000001</ele><time>2026-05-02T12:41:20.972Z</time></trkpt><trkpt lat="46.18766053816262" lon="9.389907735709498"><ele>875.0</ele><time>2026-05-02T12:41:21.972Z</time></trkpt><trkpt lat="46.18768359515203" lon="9.390082543614973"><ele>875.1428571428571</ele><time>2026-05-02T12:41:23.972Z</time></trkpt><trkpt lat="46.1876892961656" lon="9.390175770674023"><ele>875.2857142857142</ele><time>2026-05-02T12:41:24.972Z</time></trkpt><trkpt lat="46.18770679984467" lon="9.39028683432336"><ele>875.4285714285714</ele><time>2026-05-02T12:41:25.972Z</time></trkpt><trkpt lat="46.187702602034825" lon="9.39039728217338"><ele>875.5714285714286</ele><time>2026-05-02T12:41:26.972Z</time></trkpt><trkpt lat="46.18771261160815" lon="9.390497471954792"><ele>875.7142857142857</ele><time>2026-05-02T12:41:27.972Z</time></trkpt><trkpt lat="46.18772201930418" lon="9.390591725891706"><ele>875.8571428571429</ele><time>2026-05-02T12:41:28.972Z</time></trkpt><trkpt lat="46.187732020546406" lon="9.390692326096955"><ele>876.0</ele><time>2026-05-02T12:41:29.972Z</time></trkpt><trkpt lat="46.18774116347297" lon="9.390784228358802"><ele>876.0</ele><time>2026-05-02T12:41:30.972Z</time></trkpt><trkpt lat="46.187759235141165" lon="9.390963806799675"><ele>876.0</ele><time>2026-05-02T12:41:32.972Z</time></trkpt><trkpt lat="46.187785242841215" lon="9.39106045649951"><ele>876.0</ele><time>2026-05-02T12:41:33.972Z</time></trkpt><trkpt lat="46.18778243416548" lon="9.391174769203838"><ele>876.0</ele><time>2026-05-02T12:41:34.972Z</time></trkpt><trkpt lat="46.18778345270776" lon="9.391281573261612"><ele>876.0</ele><time>2026-05-02T12:41:35.972Z</time></trkpt><trkpt lat="46.18778067964698" lon="9.391383868896948"><ele>876.0</ele><time>2026-05-02T12:41:36.973Z</time></trkpt><trkpt lat="46.18778616142396" lon="9.391498076534553"><ele>876.6666666666666</ele><time>2026-05-02T12:41:37.973Z</time></trkpt><trkpt lat="46.18778874569077" lon="9.391607685161851"><ele>877.3333333333333</ele><time>2026-05-02T12:41:38.973Z</time></trkpt><trkpt lat="46.187790714859574" lon="9.391725980661356"><ele>878.0</ele><time>2026-05-02T12:41:39.973Z</time></trkpt><trkpt lat="46.18778728934021" lon="9.391838562291806"><ele>878.6666666666666</ele><time>2026-05-02T12:41:40.973Z</time></trkpt><trkpt lat="46.1877980729162" lon="9.39195476814431"><ele>879.3333333333333</ele><time>2026-05-02T12:41:41.973Z</time></trkpt><trkpt lat="46.187805363587" lon="9.392070739766856"><ele>880.0</ele><time>2026-05-02T12:41:42.973Z</time></trkpt><trkpt lat="46.18780950036193" lon="9.392186712085335"><ele>880.4999999999999</ele><time>2026-05-02T12:41:43.973Z</time></trkpt><trkpt lat="46.18782407656056" lon="9.392301547409108"><ele>881.0</ele><time>2026-05-02T12:41:44.973Z</time></trkpt><trkpt lat="46.18784263728013" lon="9.392422140765463"><ele>881.5</ele><time>2026-05-02T12:41:45.973Z</time></trkpt><trkpt lat="46.18785140746905" lon="9.392545764357886"><ele>882.0</ele><time>2026-05-02T12:41:46.973Z</time></trkpt><trkpt lat="46.1878632967782" lon="9.392681425522136"><ele>882.4999999999999</ele><time>2026-05-02T12:41:47.973Z</time></trkpt><trkpt lat="46.18787723258938" lon="9.392813923209216"><ele>883.0</ele><time>2026-05-02T12:41:48.973Z</time></trkpt><trkpt lat="46.187888479178106" lon="9.392960632342175"><ele>881.8333333333333</ele><time>2026-05-02T12:41:49.97Z</time></trkpt><trkpt lat="46.18791214698003" lon="9.393088084892916"><ele>880.6666666666666</ele><time>2026-05-02T12:41:50.971Z</time></trkpt><trkpt lat="46.187917545909286" lon="9.393206759427816"><ele>879.5</ele><time>2026-05-02T12:41:51.971Z</time></trkpt><trkpt lat="46.18793818602495" lon="9.393300026896378"><ele>878.3333333333333</ele><time>2026-05-02T12:41:52.97Z</time></trkpt><trkpt lat="46.187972660590134" lon="9.393419979639422"><ele>877.1666666666666</ele><time>2026-05-02T12:41:54.97Z</time></trkpt><trkpt lat="46.18805904660806" lon="9.393461169544219"><ele>876.0</ele><time>2026-05-02T12:41:57.971Z</time></trkpt><trkpt lat="46.18807796615458" lon="9.393275919223997"><ele>876.0</ele><time>2026-05-02T12:42:00.97Z</time></trkpt><trkpt lat="46.18807946514957" lon="9.39316435253174"><ele>876.0</ele><time>2026-05-02T12:42:01.97Z</time></trkpt><trkpt lat="46.18810403425965" lon="9.39305365733617"><ele>876.0</ele><time>2026-05-02T12:42:02.97Z</time></trkpt><trkpt lat="46.18812329613128" lon="9.392927321155264"><ele>876.0</ele><time>2026-05-02T12:42:03.97Z</time></trkpt><trkpt lat="46.188133816404736" lon="9.392803587606736"><ele>876.0</ele><time>2026-05-02T12:42:04.97Z</time></trkpt><trkpt lat="46.18815079427992" lon="9.392674438212179"><ele>876.0</ele><time>2026-05-02T12:42:05.97Z</time></trkpt><trkpt lat="46.18816819108845" lon="9.392545732649799"><ele>887.1999999999999</ele><time>2026-05-02T12:42:06.97Z</time></trkpt><trkpt lat="46.18818498156072" lon="9.392416750933283"><ele>898.3999999999999</ele><time>2026-05-02T12:42:07.97Z</time></trkpt><trkpt lat="46.188196622558195" lon="9.392283158031905"><ele>909.6</ele><time>2026-05-02T12:42:08.97Z</time></trkpt><trkpt lat="46.18820966427178" lon="9.392145793452997"><ele>920.8</ele><time>2026-05-02T12:42:09.97Z</time></trkpt><trkpt lat="46.188222712103375" lon="9.392022934903476"><ele>932.0</ele><time>2026-05-02T12:42:10.97Z</time></trkpt><trkpt lat="46.188249494944635" lon="9.391900426960536"><ele>932.2</ele><time>2026-05-02T12:42:11.97Z</time></trkpt><trkpt lat="46.1882624538983" lon="9.391764785871604"><ele>932.4000000000001</ele><time>2026-05-02T12:42:12.97Z</time></trkpt><trkpt lat="46.188276421453914" lon="9.39163590926463"><ele>932.5999999999999</ele><time>2026-05-02T12:42:13.97Z</time></trkpt><trkpt lat="46.188287264510265" lon="9.391510897847493"><ele>932.8</ele><time>2026-05-02T12:42:14.97Z</time></trkpt><trkpt lat="46.18830314353473" lon="9.391385472258545"><ele>933.0</ele><time>2026-05-02T12:42:15.97Z</time></trkpt><trkpt lat="46.188315159495936" lon="9.391252851190306"><ele>933.0</ele><time>2026-05-02T12:42:16.97Z</time></trkpt><trkpt lat="46.18833269375538" lon="9.391122593865031"><ele>933.0</ele><time>2026-05-02T12:42:17.97Z</time></trkpt><trkpt lat="46.188335334603735" lon="9.390977529103731"><ele>933.0</ele><time>2026-05-02T12:42:18.97Z</time></trkpt><trkpt lat="46.18833670119898" lon="9.390851357051362"><ele>933.0</ele><time>2026-05-02T12:42:19.97Z</time></trkpt><trkpt lat="46.18834291042379" lon="9.390742548748653"><ele>933.0</ele><time>2026-05-02T12:42:20.97Z</time></trkpt><trkpt lat="46.18836464605966" lon="9.39059819930689"><ele>933.5</ele><time>2026-05-02T12:42:22.97Z</time></trkpt><trkpt lat="46.18837469757465" lon="9.390487698192059"><ele>934.0</ele><time>2026-05-02T12:42:23.97Z</time></trkpt><trkpt lat="46.188367991811575" lon="9.390365047891171"><ele>934.5</ele><time>2026-05-02T12:42:24.97Z</time></trkpt><trkpt lat="46.18837700074523" lon="9.390253189165504"><ele>935.0</ele><time>2026-05-02T12:42:25.97Z</time></trkpt><trkpt lat="46.188387548646965" lon="9.390132440216748"><ele>935.5</ele><time>2026-05-02T12:42:26.97Z</time></trkpt><trkpt lat="46.18837505982951" lon="9.390022648594488"><ele>936.0</ele><time>2026-05-02T12:42:27.97Z</time></trkpt><trkpt lat="46.18837776678885" lon="9.389915716623209"><ele>936.0</ele><time>2026-05-02T12:42:28.97Z</time></trkpt><trkpt lat="46.18836768148546" lon="9.389797894487398"><ele>936.0</ele><time>2026-05-02T12:42:29.97Z</time></trkpt><trkpt lat="46.18836984066641" lon="9.389681471441712"><ele>936.0</ele><time>2026-05-02T12:42:30.97Z</time></trkpt><trkpt lat="46.18836941871265" lon="9.38958022772982"><ele>936.0</ele><time>2026-05-02T12:42:31.97Z</time></trkpt><trkpt lat="46.188375054009256" lon="9.389479360577237"><ele>936.0</ele><time>2026-05-02T12:42:32.971Z</time></trkpt><trkpt lat="46.18836191129219" lon="9.389372608779375"><ele>936.0</ele><time>2026-05-02T12:42:33.971Z</time></trkpt><trkpt lat="46.188360038615755" lon="9.389262282537144"><ele>936.0</ele><time>2026-05-02T12:42:34.971Z</time></trkpt><trkpt lat="46.18835752413728" lon="9.38916041569255"><ele>936.0</ele><time>2026-05-02T12:42:35.971Z</time></trkpt><trkpt lat="46.18835978341614" lon="9.389045315410923"><ele>936.0</ele><time>2026-05-02T12:42:36.971Z</time></trkpt><trkpt lat="46.18836430580501" lon="9.388937312980719"><ele>936.0</ele><time>2026-05-02T12:42:37.971Z</time></trkpt><trkpt lat="46.18836173910049" lon="9.388846028115884"><ele>936.0</ele><time>2026-05-02T12:42:38.971Z</time></trkpt><trkpt lat="46.18834046659992" lon="9.388660913567143"><ele>936.0</ele><time>2026-05-02T12:42:40.971Z</time></trkpt><trkpt lat="46.18835486962467" lon="9.388557568436148"><ele>936.0</ele><time>2026-05-02T12:42:41.971Z</time></trkpt><trkpt lat="46.18835057331559" lon="9.388379954360492"><ele>936.0</ele><time>2026-05-02T12:42:43.971Z</time></trkpt><trkpt lat="46.188364423674116" lon="9.388271892930128"><ele>936.0</ele><time>2026-05-02T12:42:44.971Z</time></trkpt><trkpt lat="46.1883780766179" lon="9.388145119421592"><ele>936.0</ele><time>2026-05-02T12:42:45.971Z</time></trkpt><trkpt lat="46.18840217761595" lon="9.388020702784525"><ele>936.0</ele><time>2026-05-02T12:42:46.971Z</time></trkpt><trkpt lat="46.188421481575084" lon="9.387925338406706"><ele>936.0</ele><time>2026-05-02T12:42:47.971Z</time></trkpt><trkpt lat="46.18844983710222" lon="9.387786305118748"><ele>936.0</ele><time>2026-05-02T12:42:49.971Z</time></trkpt><trkpt lat="46.1884886404119" lon="9.387714533061072"><ele>936.0000000000001</ele><time>2026-05-02T12:42:50.971Z</time></trkpt><trkpt lat="46.18852498643404" lon="9.387629964768223"><ele>936.0</ele><time>2026-05-02T12:42:51.971Z</time></trkpt><trkpt lat="46.18856379093621" lon="9.387539936250585"><ele>936.0</ele><time>2026-05-02T12:42:52.971Z</time></trkpt><trkpt lat="46.18860007320089" lon="9.387452976368381"><ele>936.0000000000001</ele><time>2026-05-02T12:42:53.971Z</time></trkpt><trkpt lat="46.188634768130655" lon="9.387368020542837"><ele>936.0</ele><time>2026-05-02T12:42:54.971Z</time></trkpt><trkpt lat="46.18868110414571" lon="9.38729699129403"><ele>936.0</ele><time>2026-05-02T12:42:55.971Z</time></trkpt><trkpt lat="46.188732609806266" lon="9.387236470726306"><ele>934.0</ele><time>2026-05-02T12:42:56.971Z</time></trkpt><trkpt lat="46.188800304858894" lon="9.387140994300063"><ele>931.9999999999999</ele><time>2026-05-02T12:42:58.971Z</time></trkpt><trkpt lat="46.1889019723517" lon="9.387034073303363"><ele>929.9999999999999</ele><time>2026-05-02T12:43:00.971Z</time></trkpt><trkpt lat="46.18896743091318" lon="9.38698359691305"><ele>928.0</ele><time>2026-05-02T12:43:01.971Z</time></trkpt><trkpt lat="46.18903583948052" lon="9.386941489755445"><ele>926.0</ele><time>2026-05-02T12:43:02.971Z</time></trkpt><trkpt lat="46.1891541335808" lon="9.386879640453214"><ele>931.6666666666667</ele><time>2026-05-02T12:43:04.971Z</time></trkpt><trkpt lat="46.18921451952045" lon="9.386830769853567"><ele>937.3333333333334</ele><time>2026-05-02T12:43:05.971Z</time></trkpt><trkpt lat="46.18926857794293" lon="9.386780179034766"><ele>943.0</ele><time>2026-05-02T12:43:06.971Z</time></trkpt><trkpt lat="46.18935966045417" lon="9.386715321518349"><ele>948.6666666666667</ele><time>2026-05-02T12:43:08.971Z</time></trkpt><trkpt lat="46.189442374396876" lon="9.386664220785283"><ele>954.3333333333334</ele><time>2026-05-02T12:43:10.971Z</time></trkpt><trkpt lat="46.18954159895994" lon="9.38662803894881"><ele>960.0</ele><time>2026-05-02T12:43:12.971Z</time></trkpt><trkpt lat="46.18965883814161" lon="9.386539285603991"><ele>960.0</ele><time>2026-05-02T12:43:14.971Z</time></trkpt><trkpt lat="46.18973750908789" lon="9.386440144756667"><ele>960.0</ele><time>2026-05-02T12:43:15.971Z</time></trkpt><trkpt lat="46.189799256794856" lon="9.38634065046142"><ele>960.0</ele><time>2026-05-02T12:43:16.971Z</time></trkpt><trkpt lat="46.1898542829878" lon="9.386241633672961"><ele>960.0</ele><time>2026-05-02T12:43:17.971Z</time></trkpt><trkpt lat="46.1899037736112" lon="9.38615438085009"><ele>960.0</ele><time>2026-05-02T12:43:18.971Z</time></trkpt><trkpt lat="46.18997269911512" lon="9.386049667340513"><ele>962.8333333333334</ele><time>2026-05-02T12:43:20.971Z</time></trkpt><trkpt lat="46.19003648415962" lon="9.385963579834918"><ele>965.6666666666667</ele><time>2026-05-02T12:43:22.971Z</time></trkpt><trkpt lat="46.19009023746398" lon="9.385891033430532"><ele>968.5</ele><time>2026-05-02T12:43:25.971Z</time></trkpt><trkpt lat="46.19010685312692" lon="9.385995159715307"><ele>971.3333333333334</ele><time>2026-05-02T12:43:31.972Z</time></trkpt><trkpt lat="46.190096750090156" lon="9.386111964420138"><ele>974.1666666666667</ele><time>2026-05-02T12:43:32.972Z</time></trkpt><trkpt lat="46.1900700810985" lon="9.38621504301886"><ele>977.0</ele><time>2026-05-02T12:43:33.972Z</time></trkpt><trkpt lat="46.19005220403599" lon="9.386325703956876"><ele>980.0</ele><time>2026-05-02T12:43:34.972Z</time></trkpt><trkpt lat="46.1900233285736" lon="9.386415655070397"><ele>983.0</ele><time>2026-05-02T12:43:35.972Z</time></trkpt><trkpt lat="46.18996343181421" lon="9.386563963971321"><ele>986.0</ele><time>2026-05-02T12:43:37.972Z</time></trkpt><trkpt lat="46.18994340999044" lon="9.386655462238691"><ele>989.0</ele><time>2026-05-02T12:43:38.972Z</time></trkpt><trkpt lat="46.18989089423157" lon="9.386741549369649"><ele>992.0</ele><time>2026-05-02T12:43:39.972Z</time></trkpt><trkpt lat="46.18983878666537" lon="9.386907085726882"><ele>988.0</ele><time>2026-05-02T12:43:41.972Z</time></trkpt><trkpt lat="46.18979246063977" lon="9.387053872043984"><ele>984.0</ele><time>2026-05-02T12:43:43.972Z</time></trkpt><trkpt lat="46.18973051033479" lon="9.387216149539029"><ele>980.0</ele><time>2026-05-02T12:43:45.972Z</time></trkpt><trkpt lat="46.1896978607521" lon="9.38739681087475"><ele>976.0</ele><time>2026-05-02T12:43:47.972Z</time></trkpt><trkpt lat="46.189673706632064" lon="9.387580500250563"><ele>975.9999999999999</ele><time>2026-05-02T12:43:49.972Z</time></trkpt><trkpt lat="46.189665077788305" lon="9.38768726942588"><ele>976.0</ele><time>2026-05-02T12:43:50.972Z</time></trkpt><trkpt lat="46.189631548139374" lon="9.387790668977727"><ele>976.0</ele><time>2026-05-02T12:43:51.972Z</time></trkpt><trkpt lat="46.18962157968723" lon="9.387905287974391"><ele>976.0</ele><time>2026-05-02T12:43:52.972Z</time></trkpt><trkpt lat="46.18962367868993" lon="9.388017932580988"><ele>975.9999999999999</ele><time>2026-05-02T12:43:54.972Z</time></trkpt><trkpt lat="46.18964653731118" lon="9.38811490954325"><ele>976.0</ele><time>2026-05-02T12:43:56.971Z</time></trkpt><trkpt lat="46.189725992345544" lon="9.38819103275974"><ele>976.0</ele><time>2026-05-02T12:43:58.97Z</time></trkpt><trkpt lat="46.18979044751809" lon="9.38809565281256"><ele>975.9999999999999</ele><time>2026-05-02T12:44:00.97Z</time></trkpt><trkpt lat="46.18982404369531" lon="9.387999533198153"><ele>975.9999999999999</ele><time>2026-05-02T12:44:01.97Z</time></trkpt><trkpt lat="46.18988634933299" lon="9.387877878822385"><ele>976.0</ele><time>2026-05-02T12:44:03.97Z</time></trkpt><trkpt lat="46.189938390909624" lon="9.38773457740424"><ele>976.0</ele><time>2026-05-02T12:44:05.97Z</time></trkpt><trkpt lat="46.19001492902717" lon="9.387603896098424"><ele>979.1999999999999</ele><time>2026-05-02T12:44:07.97Z</time></trkpt><trkpt lat="46.190089259792686" lon="9.387465955221385"><ele>982.3999999999999</ele><time>2026-05-02T12:44:09.97Z</time></trkpt><trkpt lat="46.19019499802047" lon="9.387370618030427"><ele>985.6</ele><time>2026-05-02T12:44:11.97Z</time></trkpt><trkpt lat="46.19024550489753" lon="9.387302564156853"><ele>988.8</ele><time>2026-05-02T12:44:12.97Z</time></trkpt><trkpt lat="46.19029435834333" lon="9.38722968059816"><ele>992.0</ele><time>2026-05-02T12:44:13.97Z</time></trkpt><trkpt lat="46.19036490655626" lon="9.387164761279482"><ele>992.0000000000001</ele><time>2026-05-02T12:44:14.97Z</time></trkpt><trkpt lat="46.19041367653256" lon="9.38707475138677"><ele>992.0</ele><time>2026-05-02T12:44:15.97Z</time></trkpt><trkpt lat="46.19047961370298" lon="9.387002362089184"><ele>992.0</ele><time>2026-05-02T12:44:16.97Z</time></trkpt><trkpt lat="46.19053502065794" lon="9.38691727066456"><ele>992.0</ele><time>2026-05-02T12:44:17.97Z</time></trkpt><trkpt lat="46.1905766986628" lon="9.386816531601523"><ele>992.0000000000001</ele><time>2026-05-02T12:44:18.97Z</time></trkpt><trkpt lat="46.19063448724115" lon="9.386748099901158"><ele>992.0</ele><time>2026-05-02T12:44:19.97Z</time></trkpt><trkpt lat="46.190680708336714" lon="9.386663739140193"><ele>997.3333333333334</ele><time>2026-05-02T12:44:20.97Z</time></trkpt><trkpt lat="46.19073439187819" lon="9.38654752840779"><ele>1002.6666666666667</ele><time>2026-05-02T12:44:22.97Z</time></trkpt><trkpt lat="46.19078708118198" lon="9.386427940077986"><ele>1008.0</ele><time>2026-05-02T12:44:24.97Z</time></trkpt><trkpt lat="46.19082082489626" lon="9.386346829660035"><ele>1013.3333333333333</ele><time>2026-05-02T12:44:26.97Z</time></trkpt><trkpt lat="46.19085530435317" lon="9.386263789802836"><ele>1018.6666666666666</ele><time>2026-05-02T12:44:29.971Z</time></trkpt><trkpt lat="46.19088491290416" lon="9.386411329507462"><ele>1024.0</ele><time>2026-05-02T12:44:33.971Z</time></trkpt><trkpt lat="46.190879149684854" lon="9.386508717788379"><ele>1027.2</ele><time>2026-05-02T12:44:34.971Z</time></trkpt><trkpt lat="46.19090012525899" lon="9.386691464668333"><ele>1030.4</ele><time>2026-05-02T12:44:36.971Z</time></trkpt><trkpt lat="46.190906851707545" lon="9.386791432977928"><ele>1033.6</ele><time>2026-05-02T12:44:37.971Z</time></trkpt><trkpt lat="46.19090900468981" lon="9.386970753098938"><ele>1036.8</ele><time>2026-05-02T12:44:39.971Z</time></trkpt><trkpt lat="46.190899525769815" lon="9.387072427895678"><ele>1040.0</ele><time>2026-05-02T12:44:40.971Z</time></trkpt><trkpt lat="46.1908936219607" lon="9.387177542196092"><ele>1041.5714285714287</ele><time>2026-05-02T12:44:41.971Z</time></trkpt><trkpt lat="46.190884150623" lon="9.387277779404972"><ele>1043.142857142857</ele><time>2026-05-02T12:44:42.971Z</time></trkpt><trkpt lat="46.19087012554632" lon="9.387380414638521"><ele>1044.7142857142858</ele><time>2026-05-02T12:44:43.971Z</time></trkpt><trkpt lat="46.190862037732686" lon="9.387480534235754"><ele>1046.2857142857142</ele><time>2026-05-02T12:44:44.971Z</time></trkpt><trkpt lat="46.190855514515036" lon="9.38758253564342"><ele>1047.857142857143</ele><time>2026-05-02T12:44:45.971Z</time></trkpt><trkpt lat="46.190849479784966" lon="9.387687411910704"><ele>1049.4285714285716</ele><time>2026-05-02T12:44:46.971Z</time></trkpt><trkpt lat="46.19084621582818" lon="9.387794718340551"><ele>1051.0</ele><time>2026-05-02T12:44:47.971Z</time></trkpt><trkpt lat="46.19084027574701" lon="9.387898810161142"><ele>1051.0</ele><time>2026-05-02T12:44:48.971Z</time></trkpt><trkpt lat="46.190818392580724" lon="9.387998496271063"><ele>1051.0</ele><time>2026-05-02T12:44:49.971Z</time></trkpt><trkpt lat="46.19080717260202" lon="9.388108743153849"><ele>1051.0</ele><time>2026-05-02T12:44:50.971Z</time></trkpt><trkpt lat="46.190795296365444" lon="9.388222074293793"><ele>1051.0</ele><time>2026-05-02T12:44:51.971Z</time></trkpt><trkpt lat="46.19078356241208" lon="9.388334047802466"><ele>1051.0</ele><time>2026-05-02T12:44:52.971Z</time></trkpt><trkpt lat="46.190771912822456" lon="9.388445216064383"><ele>1051.0</ele><time>2026-05-02T12:44:53.971Z</time></trkpt><trkpt lat="46.190758705673794" lon="9.388558891549161"><ele>1052.8333333333333</ele><time>2026-05-02T12:44:54.971Z</time></trkpt><trkpt lat="46.19074470589952" lon="9.388671063929808"><ele>1054.6666666666665</ele><time>2026-05-02T12:44:55.971Z</time></trkpt><trkpt lat="46.190728715743035" lon="9.388779138551085"><ele>1056.5</ele><time>2026-05-02T12:44:56.971Z</time></trkpt><trkpt lat="46.1907169912874" lon="9.388892449030564"><ele>1058.3333333333333</ele><time>2026-05-02T12:44:57.971Z</time></trkpt><trkpt lat="46.19068802253259" lon="9.388999464277251"><ele>1060.1666666666667</ele><time>2026-05-02T12:44:58.971Z</time></trkpt><trkpt lat="46.19066230443092" lon="9.389105868985334"><ele>1062.0</ele><time>2026-05-02T12:44:59.971Z</time></trkpt><trkpt lat="46.19063771208771" lon="9.389222039567324"><ele>1059.1666666666667</ele><time>2026-05-02T12:45:00.971Z</time></trkpt><trkpt lat="46.19062307428255" lon="9.389334963838104"><ele>1056.3333333333333</ele><time>2026-05-02T12:45:01.971Z</time></trkpt><trkpt lat="46.19061454708198" lon="9.389514208401406"><ele>1053.5</ele><time>2026-05-02T12:45:03.971Z</time></trkpt><trkpt lat="46.19062003949466" lon="9.389619202934187"><ele>1050.6666666666665</ele><time>2026-05-02T12:45:04.971Z</time></trkpt><trkpt lat="46.19063264642049" lon="9.389732694803715"><ele>1047.8333333333333</ele><time>2026-05-02T12:45:05.971Z</time></trkpt><trkpt lat="46.19062172658353" lon="9.389848115907107"><ele>1045.0</ele><time>2026-05-02T12:45:06.971Z</time></trkpt><trkpt lat="46.19063042928196" lon="9.38995723220534"><ele>1045.0</ele><time>2026-05-02T12:45:07.971Z</time></trkpt><trkpt lat="46.19062857137413" lon="9.390091157917043"><ele>1045.0</ele><time>2026-05-02T12:45:09.971Z</time></trkpt><trkpt lat="46.190640092993135" lon="9.390186588371476"><ele>1045.0</ele><time>2026-05-02T12:45:11.971Z</time></trkpt><trkpt lat="46.19068990017363" lon="9.390246980611526"><ele>1045.0</ele><time>2026-05-02T12:45:14.971Z</time></trkpt><trkpt lat="46.19079210832648" lon="9.390154417697703"><ele>1045.0</ele><time>2026-05-02T12:45:15.971Z</time></trkpt><trkpt lat="46.19086475760901" lon="9.390125057871465"><ele>1045.0</ele><time>2026-05-02T12:45:17.971Z</time></trkpt><trkpt lat="46.19092725345246" lon="9.390173006768046"><ele>1051.0</ele><time>2026-05-02T12:45:20.971Z</time></trkpt><trkpt lat="46.19092973347371" lon="9.390266055507155"><ele>1057.0</ele><time>2026-05-02T12:45:21.971Z</time></trkpt><trkpt lat="46.19093579838939" lon="9.3904382204278"><ele>1063.0</ele><time>2026-05-02T12:45:23.972Z</time></trkpt><trkpt lat="46.190948660825406" lon="9.390528000765201"><ele>1069.0</ele><time>2026-05-02T12:45:24.972Z</time></trkpt><trkpt lat="46.19096025144383" lon="9.390635741727893"><ele>1075.0</ele><time>2026-05-02T12:45:25.972Z</time></trkpt><trkpt lat="46.19098187887243" lon="9.390724824452708"><ele>1081.0</ele><time>2026-05-02T12:45:26.972Z</time></trkpt><trkpt lat="46.191016818407064" lon="9.390822530418214"><ele>1081.3333333333333</ele><time>2026-05-02T12:45:27.972Z</time></trkpt><trkpt lat="46.19104756762841" lon="9.390929076473888"><ele>1081.6666666666665</ele><time>2026-05-02T12:45:28.972Z</time></trkpt><trkpt lat="46.19107696812143" lon="9.391036482739784"><ele>1082.0</ele><time>2026-05-02T12:45:29.972Z</time></trkpt><trkpt lat="46.19111118985946" lon="9.391170040737249"><ele>1082.3333333333333</ele><time>2026-05-02T12:45:31.972Z</time></trkpt><trkpt lat="46.19114555507765" lon="9.391280691943118"><ele>1082.6666666666667</ele><time>2026-05-02T12:45:34.972Z</time></trkpt><trkpt lat="46.19119785935085" lon="9.39133706939966"><ele>1083.0</ele><time>2026-05-02T12:45:56.972Z</time></trkpt><trkpt lat="46.191025047495835" lon="9.391425765692425"><ele>1083.0</ele><time>2026-05-02T12:47:29.974Z</time></trkpt><trkpt lat="46.19109010151742" lon="9.391404420231686"><ele>1083.0</ele><time>2026-05-02T12:47:42.975Z</time></trkpt><trkpt lat="46.191021173924206" lon="9.391384132564015"><ele>1083.0</ele><time>2026-05-02T12:48:18.975Z</time></trkpt><trkpt lat="46.19096096946945" lon="9.391344894628276"><ele>1083.0</ele><time>2026-05-02T12:48:28.975Z</time></trkpt><trkpt lat="46.19089377020608" lon="9.391341133151146"><ele>1083.0</ele><time>2026-05-02T12:48:35.975Z</time></trkpt><trkpt lat="46.190842804579496" lon="9.391257652518846"><ele>1083.0</ele><time>2026-05-02T12:48:46.976Z</time></trkpt><trkpt lat="46.19079317270229" lon="9.391196724645136"><ele>1083.0</ele><time>2026-05-02T12:48:52.976Z</time></trkpt><trkpt lat="46.19076440016301" lon="9.391106198761165"><ele>1084.0</ele><time>2026-05-02T12:49:00.976Z</time></trkpt></trkseg><trkseg><trkpt lat="46.191182202882196" lon="9.391328626661222"><ele>1084.0</ele><time>2026-05-02T13:05:37.008Z</time></trkpt><trkpt lat="46.19117807524502" lon="9.391219950133074"><ele>1084.0</ele><time>2026-05-02T13:05:41.008Z</time></trkpt><trkpt lat="46.191137406445186" lon="9.391119862359176"><ele>1084.0</ele><time>2026-05-02T13:05:44.008Z</time></trkpt><trkpt lat="46.19109879974885" lon="9.391035559223456"><ele>1084.0</ele><time>2026-05-02T13:05:46.008Z</time></trkpt><trkpt lat="46.19106870538317" lon="9.390924676496759"><ele>1084.0</ele><time>2026-05-02T13:05:48.008Z</time></trkpt><trkpt lat="46.19103827916544" lon="9.390809667048424"><ele>1084.0</ele><time>2026-05-02T13:05:50.008Z</time></trkpt><trkpt lat="46.19101321211869" lon="9.390693813061535"><ele>1084.0</ele><time>2026-05-02T13:05:52.009Z</time></trkpt><trkpt lat="46.190979553739304" lon="9.39058492383206"><ele>1084.0</ele><time>2026-05-02T13:05:54.009Z</time></trkpt><trkpt lat="46.19095958519864" lon="9.390473404273282"><ele>1084.0</ele><time>2026-05-02T13:05:56.009Z</time></trkpt><trkpt lat="46.190945116512" lon="9.390349906747632"><ele>1084.0</ele><time>2026-05-02T13:05:58.009Z</time></trkpt><trkpt lat="46.19094408521011" lon="9.390239580002497"><ele>1084.0</ele><time>2026-05-02T13:06:00.009Z</time></trkpt><trkpt lat="46.1909150791378" lon="9.390158512394637"><ele>1084.0</ele><time>2026-05-02T13:06:02.009Z</time></trkpt><trkpt lat="46.19083424309623" lon="9.390133814692605"><ele>1083.5</ele><time>2026-05-02T13:06:04.009Z</time></trkpt><trkpt lat="46.190778037543566" lon="9.39017809872788"><ele>1083.0</ele><time>2026-05-02T13:06:06.009Z</time></trkpt><trkpt lat="46.19070401037574" lon="9.390233388142873"><ele>1082.5</ele><time>2026-05-02T13:06:09.009Z</time></trkpt><trkpt lat="46.19064200684603" lon="9.390158186433926"><ele>1082.0</ele><time>2026-05-02T13:06:12.009Z</time></trkpt><trkpt lat="46.19064028679913" lon="9.390056237904577"><ele>1081.5</ele><time>2026-05-02T13:06:14.009Z</time></trkpt><trkpt lat="46.19064031914091" lon="9.389935083759825"><ele>1081.0</ele><time>2026-05-02T13:06:16.009Z</time></trkpt><trkpt lat="46.190642887995594" lon="9.38980902198829"><ele>1079.0</ele><time>2026-05-02T13:06:18.009Z</time></trkpt><trkpt lat="46.19063570080934" lon="9.389680099967727"><ele>1077.0</ele><time>2026-05-02T13:06:20.009Z</time></trkpt><trkpt lat="46.19063245703764" lon="9.389542512878503"><ele>1075.0</ele><time>2026-05-02T13:06:22.009Z</time></trkpt><trkpt lat="46.190630777366955" lon="9.389404234152142"><ele>1073.0</ele><time>2026-05-02T13:06:24.009Z</time></trkpt><trkpt lat="46.19064043202603" lon="9.389252629490615"><ele>1071.0</ele><time>2026-05-02T13:06:26.009Z</time></trkpt><trkpt lat="46.19068572164093" lon="9.389178627598803"><ele>1071.0</ele><time>2026-05-02T13:06:27.009Z</time></trkpt><trkpt lat="46.19071282263925" lon="9.389022893593257"><ele>1071.0</ele><time>2026-05-02T13:06:29.009Z</time></trkpt><trkpt lat="46.19074473860998" lon="9.388877388420628"><ele>1071.0</ele><time>2026-05-02T13:06:31.009Z</time></trkpt><trkpt lat="46.19076806635897" lon="9.388729769437823"><ele>1071.0</ele><time>2026-05-02T13:06:33.009Z</time></trkpt><trkpt lat="46.19079323094549" lon="9.388600173246543"><ele>1071.0</ele><time>2026-05-02T13:06:35.009Z</time></trkpt><trkpt lat="46.19080042681965" lon="9.388485577466534"><ele>1069.2</ele><time>2026-05-02T13:06:37.01Z</time></trkpt><trkpt lat="46.19080471586557" lon="9.388363516031943"><ele>1067.3999999999999</ele><time>2026-05-02T13:06:39.01Z</time></trkpt><trkpt lat="46.19081895229402" lon="9.38823629388155"><ele>1065.6</ele><time>2026-05-02T13:06:41.01Z</time></trkpt><trkpt lat="46.19083107859619" lon="9.388112274881601"><ele>1063.8</ele><time>2026-05-02T13:06:43.01Z</time></trkpt><trkpt lat="46.19084337230561" lon="9.387964426705405"><ele>1062.0</ele><time>2026-05-02T13:06:45.01Z</time></trkpt><trkpt lat="46.190864700399665" lon="9.387839968677286"><ele>1059.8</ele><time>2026-05-02T13:06:47.01Z</time></trkpt><trkpt lat="46.190870684295504" lon="9.387725005575513"><ele>1057.6</ele><time>2026-05-02T13:06:49.01Z</time></trkpt><trkpt lat="46.19087247520062" lon="9.387612157301913"><ele>1055.3999999999999</ele><time>2026-05-02T13:06:51.01Z</time></trkpt><trkpt lat="46.19089817498446" lon="9.387456125987908"><ele>1053.2</ele><time>2026-05-02T13:06:53.01Z</time></trkpt><trkpt lat="46.19090654975813" lon="9.387295610432853"><ele>1051.0</ele><time>2026-05-02T13:06:55.01Z</time></trkpt><trkpt lat="46.19092086767371" lon="9.38714721010531"><ele>1048.8</ele><time>2026-05-02T13:06:57.01Z</time></trkpt><trkpt lat="46.19093036067367" lon="9.387003671720661"><ele>1046.6</ele><time>2026-05-02T13:06:59.01Z</time></trkpt><trkpt lat="46.19093811743735" lon="9.386872884112258"><ele>1044.4</ele><time>2026-05-02T13:07:01.01Z</time></trkpt><trkpt lat="46.19092991858817" lon="9.386737275416504"><ele>1042.2</ele><time>2026-05-02T13:07:03.01Z</time></trkpt><trkpt lat="46.19093941464805" lon="9.386599552687306"><ele>1040.0</ele><time>2026-05-02T13:07:05.01Z</time></trkpt><trkpt lat="46.190931894487576" lon="9.386463979257712"><ele>1040.0</ele><time>2026-05-02T13:07:07.01Z</time></trkpt><trkpt lat="46.19091210363762" lon="9.386344894912865"><ele>1040.0</ele><time>2026-05-02T13:07:09.01Z</time></trkpt><trkpt lat="46.190914700067616" lon="9.386243232482853"><ele>1040.0</ele><time>2026-05-02T13:07:11.01Z</time></trkpt><trkpt lat="46.19084969526422" lon="9.386207297353492"><ele>1040.0</ele><time>2026-05-02T13:07:13.01Z</time></trkpt><trkpt lat="46.190803410089885" lon="9.386270104769462"><ele>1040.0</ele><time>2026-05-02T13:07:15.01Z</time></trkpt><trkpt lat="46.19078363310814" lon="9.386394269222743"><ele>1040.0</ele><time>2026-05-02T13:07:17.01Z</time></trkpt><trkpt lat="46.19071899037978" lon="9.3864968542353"><ele>1030.4</ele><time>2026-05-02T13:07:19.01Z</time></trkpt><trkpt lat="46.190662157421315" lon="9.386611644273906"><ele>1020.8</ele><time>2026-05-02T13:07:21.011Z</time></trkpt><trkpt lat="46.19060910996431" lon="9.38674652563939"><ele>1011.2</ele><time>2026-05-02T13:07:23.011Z</time></trkpt><trkpt lat="46.190518200600394" lon="9.38685598487516"><ele>1001.6</ele><time>2026-05-02T13:07:25.011Z</time></trkpt><trkpt lat="46.190460485500665" lon="9.386950253507313"><ele>992.0</ele><time>2026-05-02T13:07:27.011Z</time></trkpt><trkpt lat="46.19039850208324" lon="9.387059815323235"><ele>992.0</ele><time>2026-05-02T13:07:29.011Z</time></trkpt><trkpt lat="46.19032967249048" lon="9.387166942480937"><ele>992.0</ele><time>2026-05-02T13:07:31.011Z</time></trkpt><trkpt lat="46.19024625220907" lon="9.387256765005208"><ele>992.0</ele><time>2026-05-02T13:07:33.011Z</time></trkpt><trkpt lat="46.190167682317515" lon="9.38734380947636"><ele>992.0</ele><time>2026-05-02T13:07:35.011Z</time></trkpt><trkpt lat="46.19008912999954" lon="9.387433581624094"><ele>992.0</ele><time>2026-05-02T13:07:37.011Z</time></trkpt><trkpt lat="46.19001066847881" lon="9.387544258927834"><ele>990.8333333333334</ele><time>2026-05-02T13:07:39.011Z</time></trkpt><trkpt lat="46.18995072854316" lon="9.387677375163971"><ele>989.6666666666667</ele><time>2026-05-02T13:07:41.011Z</time></trkpt><trkpt lat="46.18991573522189" lon="9.387761495709164"><ele>988.5</ele><time>2026-05-02T13:07:42.011Z</time></trkpt><trkpt lat="46.18988048930889" lon="9.38784132810894"><ele>987.3333333333333</ele><time>2026-05-02T13:07:43.011Z</time></trkpt><trkpt lat="46.18981144936819" lon="9.387946134416149"><ele>986.1666666666666</ele><time>2026-05-02T13:07:45.011Z</time></trkpt><trkpt lat="46.18976713561085" lon="9.38803480277353"><ele>985.0</ele><time>2026-05-02T13:07:47.011Z</time></trkpt><trkpt lat="46.18972207062243" lon="9.388122004646295"><ele>985.0</ele><time>2026-05-02T13:07:50.011Z</time></trkpt><trkpt lat="46.18967198882697" lon="9.388050309945298"><ele>985.0</ele><time>2026-05-02T13:07:53.011Z</time></trkpt><trkpt lat="46.18967967475732" lon="9.387897591128583"><ele>985.0</ele><time>2026-05-02T13:07:55.011Z</time></trkpt><trkpt lat="46.18967307381507" lon="9.387751623166755"><ele>985.0</ele><time>2026-05-02T13:07:57.011Z</time></trkpt><trkpt lat="46.18968850652308" lon="9.387603318092276"><ele>985.0</ele><time>2026-05-02T13:07:59.011Z</time></trkpt><trkpt lat="46.1897305697532" lon="9.387453253329127"><ele>986.1666666666666</ele><time>2026-05-02T13:08:01.011Z</time></trkpt><trkpt lat="46.189780504915966" lon="9.387292443982773"><ele>987.3333333333333</ele><time>2026-05-02T13:08:03.011Z</time></trkpt><trkpt lat="46.18981133273752" lon="9.387202891883202"><ele>988.5</ele><time>2026-05-02T13:08:04.012Z</time></trkpt><trkpt lat="46.18985137394163" lon="9.387106038227522"><ele>989.6666666666667</ele><time>2026-05-02T13:08:05.012Z</time></trkpt><trkpt lat="46.18987173512705" lon="9.386999353061238"><ele>990.8333333333334</ele><time>2026-05-02T13:08:06.012Z</time></trkpt><trkpt lat="46.18991125033143" lon="9.38690745374119"><ele>992.0</ele><time>2026-05-02T13:08:07.012Z</time></trkpt><trkpt lat="46.189927135670565" lon="9.386810714226778"><ele>992.0000000000001</ele><time>2026-05-02T13:08:08.012Z</time></trkpt><trkpt lat="46.1899610849621" lon="9.386712163407902"><ele>992.0</ele><time>2026-05-02T13:08:09.012Z</time></trkpt><trkpt lat="46.190001681755554" lon="9.386640332693778"><ele>992.0</ele><time>2026-05-02T13:08:10.012Z</time></trkpt><trkpt lat="46.19004677623146" lon="9.386485871091612"><ele>992.0</ele><time>2026-05-02T13:08:12.012Z</time></trkpt><trkpt lat="46.19007813498238" lon="9.386341278622558"><ele>992.0000000000001</ele><time>2026-05-02T13:08:14.012Z</time></trkpt><trkpt lat="46.19011298630261" lon="9.38623028972845"><ele>992.0</ele><time>2026-05-02T13:08:16.012Z</time></trkpt><trkpt lat="46.19015001451289" lon="9.386110853610141"><ele>989.0</ele><time>2026-05-02T13:08:18.012Z</time></trkpt><trkpt lat="46.190167544816035" lon="9.386005326536576"><ele>986.0</ele><time>2026-05-02T13:08:20.012Z</time></trkpt><trkpt lat="46.190181648706904" lon="9.38590870803473"><ele>983.0</ele><time>2026-05-02T13:08:23.012Z</time></trkpt><trkpt lat="46.190017945010126" lon="9.385922920780533"><ele>980.0</ele><time>2026-05-02T13:08:28.012Z</time></trkpt><trkpt lat="46.18994615907996" lon="9.386019806555016"><ele>977.0</ele><time>2026-05-02T13:08:30.012Z</time></trkpt><trkpt lat="46.18987648527884" lon="9.386126414880477"><ele>973.6</ele><time>2026-05-02T13:08:32.012Z</time></trkpt><trkpt lat="46.18982580284354" lon="9.386223509418937"><ele>970.2</ele><time>2026-05-02T13:08:34.012Z</time></trkpt><trkpt lat="46.18973820438494" lon="9.3863671751195"><ele>966.8</ele><time>2026-05-02T13:08:36.012Z</time></trkpt><trkpt lat="46.189699789446365" lon="9.386439767166358"><ele>963.4</ele><time>2026-05-02T13:08:37.012Z</time></trkpt><trkpt lat="46.189606884893685" lon="9.38651337175635"><ele>960.0</ele><time>2026-05-02T13:08:39.012Z</time></trkpt><trkpt lat="46.1895287794046" lon="9.386569058552816"><ele>960.0</ele><time>2026-05-02T13:08:41.012Z</time></trkpt><trkpt lat="46.18942901555919" lon="9.38664768894874"><ele>960.0</ele><time>2026-05-02T13:08:43.012Z</time></trkpt><trkpt lat="46.189365054822176" lon="9.386689361448466"><ele>960.0</ele><time>2026-05-02T13:08:44.012Z</time></trkpt><trkpt lat="46.18929027100921" lon="9.386722244706897"><ele>960.0</ele><time>2026-05-02T13:08:45.012Z</time></trkpt><trkpt lat="46.18921228648714" lon="9.386771183328687"><ele>960.0</ele><time>2026-05-02T13:08:46.012Z</time></trkpt><trkpt lat="46.189120517180726" lon="9.386805583521546"><ele>960.0</ele><time>2026-05-02T13:08:47.012Z</time></trkpt><trkpt lat="46.18905681338117" lon="9.386852275894201"><ele>956.5714285714287</ele><time>2026-05-02T13:08:48.013Z</time></trkpt><trkpt lat="46.18899896911522" lon="9.386893575496686"><ele>953.1428571428571</ele><time>2026-05-02T13:08:49.013Z</time></trkpt><trkpt lat="46.18893635031811" lon="9.386936043829483"><ele>949.7142857142858</ele><time>2026-05-02T13:08:50.013Z</time></trkpt><trkpt lat="46.188873838028044" lon="9.386980976891142"><ele>946.2857142857143</ele><time>2026-05-02T13:08:51.013Z</time></trkpt><trkpt lat="46.188811516689626" lon="9.387037050394072"><ele>942.8571428571429</ele><time>2026-05-02T13:08:52.013Z</time></trkpt><trkpt lat="46.188755133047025" lon="9.387098631933613"><ele>939.4285714285714</ele><time>2026-05-02T13:08:53.013Z</time></trkpt><trkpt lat="46.18870582516151" lon="9.387155539090049"><ele>936.0</ele><time>2026-05-02T13:08:54.013Z</time></trkpt><trkpt lat="46.18865814233135" lon="9.38721993803098"><ele>936.0</ele><time>2026-05-02T13:08:55.013Z</time></trkpt><trkpt lat="46.18861351320883" lon="9.387298417011298"><ele>936.0000000000001</ele><time>2026-05-02T13:08:56.013Z</time></trkpt><trkpt lat="46.1885846504877" lon="9.387384542660728"><ele>936.0</ele><time>2026-05-02T13:08:57.013Z</time></trkpt><trkpt lat="46.18854626750939" lon="9.387459429728617"><ele>936.0</ele><time>2026-05-02T13:08:58.013Z</time></trkpt><trkpt lat="46.18851513453348" lon="9.38754179673324"><ele>936.0000000000001</ele><time>2026-05-02T13:08:59.013Z</time></trkpt><trkpt lat="46.1884841116827" lon="9.387625760133341"><ele>936.0</ele><time>2026-05-02T13:09:00.013Z</time></trkpt><trkpt lat="46.18843601904791" lon="9.387778148842154"><ele>936.0</ele><time>2026-05-02T13:09:02.013Z</time></trkpt><trkpt lat="46.188403813642914" lon="9.387872404038937"><ele>936.0</ele><time>2026-05-02T13:09:03.013Z</time></trkpt><trkpt lat="46.18837412276268" lon="9.387969415600974"><ele>935.9999999999999</ele><time>2026-05-02T13:09:04.013Z</time></trkpt><trkpt lat="46.188353157178334" lon="9.388071244306035"><ele>935.9999999999999</ele><time>2026-05-02T13:09:05.013Z</time></trkpt><trkpt lat="46.18832868653035" lon="9.388243785783663"><ele>936.0</ele><time>2026-05-02T13:09:07.013Z</time></trkpt><trkpt lat="46.188320423353204" lon="9.388433540476052"><ele>936.0</ele><time>2026-05-02T13:09:09.013Z</time></trkpt><trkpt lat="46.188320456125204" lon="9.388550066702939"><ele>936.0</ele><time>2026-05-02T13:09:10.013Z</time></trkpt><trkpt lat="46.18832184810929" lon="9.388650478338912"><ele>936.0</ele><time>2026-05-02T13:09:11.013Z</time></trkpt><trkpt lat="46.18831518052733" lon="9.388860734616934"><ele>936.0</ele><time>2026-05-02T13:09:13.013Z</time></trkpt><trkpt lat="46.188330539690355" lon="9.388967400430532"><ele>936.0</ele><time>2026-05-02T13:09:14.013Z</time></trkpt><trkpt lat="46.18834259146901" lon="9.389072716033244"><ele>936.0</ele><time>2026-05-02T13:09:15.013Z</time></trkpt><trkpt lat="46.188328340294184" lon="9.389183457697218"><ele>936.0</ele><time>2026-05-02T13:09:16.013Z</time></trkpt><trkpt lat="46.18832751240792" lon="9.389287855406222"><ele>936.0</ele><time>2026-05-02T13:09:17.013Z</time></trkpt><trkpt lat="46.188332871952866" lon="9.389458089026647"><ele>935.9999999999999</ele><time>2026-05-02T13:09:19.013Z</time></trkpt><trkpt lat="46.188328608915896" lon="9.389636196693777"><ele>935.9999999999999</ele><time>2026-05-02T13:09:21.013Z</time></trkpt><trkpt lat="46.188328698098424" lon="9.389736365308092"><ele>936.0</ele><time>2026-05-02T13:09:22.013Z</time></trkpt><trkpt lat="46.18833155400341" lon="9.38983128062162"><ele>936.0</ele><time>2026-05-02T13:09:23.013Z</time></trkpt><trkpt lat="46.18833628206257" lon="9.389985474019545"><ele>936.0</ele><time>2026-05-02T13:09:25.013Z</time></trkpt><trkpt lat="46.18832631078341" lon="9.390077272373755"><ele>936.0</ele><time>2026-05-02T13:09:26.013Z</time></trkpt><trkpt lat="46.1883190793419" lon="9.390257311351254"><ele>936.0</ele><time>2026-05-02T13:09:28.013Z</time></trkpt><trkpt lat="46.18831096625816" lon="9.390355857954262"><ele>936.0</ele><time>2026-05-02T13:09:29.013Z</time></trkpt><trkpt lat="46.18830865178485" lon="9.390467095435167"><ele>936.0</ele><time>2026-05-02T13:09:30.013Z</time></trkpt><trkpt lat="46.188303512850524" lon="9.390579290590951"><ele>936.0</ele><time>2026-05-02T13:09:31.013Z</time></trkpt><trkpt lat="46.18830229408703" lon="9.390680345294577"><ele>935.4</ele><time>2026-05-02T13:09:32.014Z</time></trkpt><trkpt lat="46.18829150818134" lon="9.390866383644894"><ele>934.8</ele><time>2026-05-02T13:09:34.014Z</time></trkpt><trkpt lat="46.18828096903232" lon="9.39095707962759"><ele>934.1999999999999</ele><time>2026-05-02T13:09:35.014Z</time></trkpt><trkpt lat="46.1882801310617" lon="9.391129578877601"><ele>933.5999999999999</ele><time>2026-05-02T13:09:37.014Z</time></trkpt><trkpt lat="46.188261515042676" lon="9.391307844902725"><ele>933.0</ele><time>2026-05-02T13:09:39.014Z</time></trkpt><trkpt lat="46.18826720258438" lon="9.391410590343229"><ele>933.0</ele><time>2026-05-02T13:09:40.014Z</time></trkpt><trkpt lat="46.18823859525157" lon="9.391508587778956"><ele>933.0</ele><time>2026-05-02T13:09:41.014Z</time></trkpt><trkpt lat="46.188237787083686" lon="9.39161659393895"><ele>933.0</ele><time>2026-05-02T13:09:42.014Z</time></trkpt><trkpt lat="46.188217970042864" lon="9.39179351019898"><ele>933.0</ele><time>2026-05-02T13:09:44.014Z</time></trkpt><trkpt lat="46.18820026867047" lon="9.391891723036776"><ele>933.0</ele><time>2026-05-02T13:09:45.014Z</time></trkpt><trkpt lat="46.188183224033644" lon="9.391980171368646"><ele>933.0</ele><time>2026-05-02T13:09:46.014Z</time></trkpt><trkpt lat="46.18817498052785" lon="9.39207370719637"><ele>924.6666666666666</ele><time>2026-05-02T13:09:47.014Z</time></trkpt><trkpt lat="46.188169105881016" lon="9.392165633886982"><ele>916.3333333333333</ele><time>2026-05-02T13:09:48.014Z</time></trkpt><trkpt lat="46.18814905677876" lon="9.392335309167176"><ele>908.0</ele><time>2026-05-02T13:09:50.014Z</time></trkpt><trkpt lat="46.18813757040109" lon="9.392440452783552"><ele>899.6666666666666</ele><time>2026-05-02T13:09:51.014Z</time></trkpt><trkpt lat="46.18812044347766" lon="9.392555112169857"><ele>891.3333333333333</ele><time>2026-05-02T13:09:52.014Z</time></trkpt><trkpt lat="46.18811429042133" lon="9.39266266255809"><ele>883.0</ele><time>2026-05-02T13:09:53.014Z</time></trkpt><trkpt lat="46.18810182858519" lon="9.392760733766467"><ele>882.9999999999999</ele><time>2026-05-02T13:09:54.014Z</time></trkpt><trkpt lat="46.18808765222524" lon="9.392855417647713"><ele>883.0</ele><time>2026-05-02T13:09:55.014Z</time></trkpt><trkpt lat="46.18808015517233" lon="9.393010219634016"><ele>883.0</ele><time>2026-05-02T13:09:57.014Z</time></trkpt><trkpt lat="46.18806083663358" lon="9.393149985179882"><ele>883.0</ele><time>2026-05-02T13:09:59.014Z</time></trkpt><trkpt lat="46.188044817347766" lon="9.393268587782915"><ele>882.9999999999999</ele><time>2026-05-02T13:10:01.014Z</time></trkpt><trkpt lat="46.188029159510194" lon="9.393367514776767"><ele>883.0</ele><time>2026-05-02T13:10:04.014Z</time></trkpt><trkpt lat="46.187964557461406" lon="9.39328754826943"><ele>882.9999999999999</ele><time>2026-05-02T13:10:08.014Z</time></trkpt><trkpt lat="46.187934869729105" lon="9.393109392187661"><ele>883.0</ele><time>2026-05-02T13:10:10.014Z</time></trkpt><trkpt lat="46.1879146633854" lon="9.393008731790557"><ele>883.0</ele><time>2026-05-02T13:10:11.014Z</time></trkpt><trkpt lat="46.18789712207771" lon="9.392905238512727"><ele>883.0</ele><time>2026-05-02T13:10:12.014Z</time></trkpt><trkpt lat="46.187883392592084" lon="9.392803832147056"><ele>882.9999999999999</ele><time>2026-05-02T13:10:13.014Z</time></trkpt><trkpt lat="46.18788764918691" lon="9.392698501062084"><ele>883.0</ele><time>2026-05-02T13:10:14.014Z</time></trkpt><trkpt lat="46.1878712671434" lon="9.392511738122575"><ele>883.0</ele><time>2026-05-02T13:10:16.015Z</time></trkpt><trkpt lat="46.18786576885675" lon="9.392419155672215"><ele>883.0</ele><time>2026-05-02T13:10:17.015Z</time></trkpt><trkpt lat="46.18785684215546" lon="9.392324201490979"><ele>883.0</ele><time>2026-05-02T13:10:18.015Z</time></trkpt><trkpt lat="46.18785046111893" lon="9.39222357680992"><ele>883.0</ele><time>2026-05-02T13:10:19.015Z</time></trkpt><trkpt lat="46.18784041916717" lon="9.392114692694994"><ele>883.0</ele><time>2026-05-02T13:10:20.015Z</time></trkpt><trkpt lat="46.187848690193064" lon="9.39200731905643"><ele>883.0</ele><time>2026-05-02T13:10:21.015Z</time></trkpt><trkpt lat="46.187842685068375" lon="9.39189218591202"><ele>883.0</ele><time>2026-05-02T13:10:22.015Z</time></trkpt><trkpt lat="46.18783907050866" lon="9.391792623948898"><ele>882.4</ele><time>2026-05-02T13:10:23.015Z</time></trkpt><trkpt lat="46.18784113035431" lon="9.391694612574131"><ele>881.8</ele><time>2026-05-02T13:10:24.015Z</time></trkpt><trkpt lat="46.18784423698284" lon="9.391550783659218"><ele>881.2</ele><time>2026-05-02T13:10:26.015Z</time></trkpt><trkpt lat="46.18785926009668" lon="9.391384948771762"><ele>880.6</ele><time>2026-05-02T13:10:28.015Z</time></trkpt><trkpt lat="46.18783997003541" lon="9.391295657007321"><ele>880.0</ele><time>2026-05-02T13:10:29.015Z</time></trkpt><trkpt lat="46.18784062123701" lon="9.391130977850338"><ele>879.5714285714286</ele><time>2026-05-02T13:10:31.015Z</time></trkpt><trkpt lat="46.187820081553426" lon="9.391041208698944"><ele>879.1428571428571</ele><time>2026-05-02T13:10:32.015Z</time></trkpt><trkpt lat="46.18780611391631" lon="9.390948068173236"><ele>878.7142857142858</ele><time>2026-05-02T13:10:33.015Z</time></trkpt><trkpt lat="46.187787799733584" lon="9.390857513573387"><ele>878.2857142857142</ele><time>2026-05-02T13:10:34.015Z</time></trkpt><trkpt lat="46.18777102476576" lon="9.390752655104883"><ele>877.8571428571429</ele><time>2026-05-02T13:10:35.015Z</time></trkpt><trkpt lat="46.18776505923857" lon="9.390658978179598"><ele>877.4285714285714</ele><time>2026-05-02T13:10:36.015Z</time></trkpt><trkpt lat="46.18776627250076" lon="9.390560067034288"><ele>877.0</ele><time>2026-05-02T13:10:37.015Z</time></trkpt><trkpt lat="46.1877320776851" lon="9.39047600617439"><ele>877.0000000000001</ele><time>2026-05-02T13:10:38.015Z</time></trkpt><trkpt lat="46.187719810386504" lon="9.390371469747894"><ele>877.0</ele><time>2026-05-02T13:10:39.015Z</time></trkpt><trkpt lat="46.187727278488794" lon="9.390250431313167"><ele>877.0</ele><time>2026-05-02T13:10:40.015Z</time></trkpt><trkpt lat="46.18771360674023" lon="9.390134518649768"><ele>877.0</ele><time>2026-05-02T13:10:41.015Z</time></trkpt><trkpt lat="46.187705611273046" lon="9.390030381128913"><ele>877.0</ele><time>2026-05-02T13:10:42.015Z</time></trkpt><trkpt lat="46.18768649499728" lon="9.389935301057946"><ele>877.0000000000001</ele><time>2026-05-02T13:10:43.015Z</time></trkpt><trkpt lat="46.18768706768357" lon="9.389840271533767"><ele>877.0</ele><time>2026-05-02T13:10:44.015Z</time></trkpt><trkpt lat="46.187663725140915" lon="9.389749897460431"><ele>876.6666666666666</ele><time>2026-05-02T13:10:45.015Z</time></trkpt><trkpt lat="46.187656335012" lon="9.389620219448176"><ele>876.3333333333333</ele><time>2026-05-02T13:10:47.015Z</time></trkpt><trkpt lat="46.18763580889784" lon="9.389456051807716"><ele>876.0</ele><time>2026-05-02T13:10:49.015Z</time></trkpt><trkpt lat="46.18762238927976" lon="9.38935537613622"><ele>875.6666666666667</ele><time>2026-05-02T13:10:50.015Z</time></trkpt><trkpt lat="46.187604627154705" lon="9.389267294574625"><ele>875.3333333333334</ele><time>2026-05-02T13:10:51.015Z</time></trkpt><trkpt lat="46.18757385429032" lon="9.38915207930388"><ele>875.0</ele><time>2026-05-02T13:10:53.015Z</time></trkpt><trkpt lat="46.187518173928886" lon="9.389080647908159"><ele>875.0</ele><time>2026-05-02T13:10:56.015Z</time></trkpt><trkpt lat="46.18740567906835" lon="9.389141781451862"><ele>875.0</ele><time>2026-05-02T13:10:58.015Z</time></trkpt><trkpt lat="46.187400510764505" lon="9.38928753289445"><ele>875.0</ele><time>2026-05-02T13:10:59.015Z</time></trkpt><trkpt lat="46.18740550533412" lon="9.389402414519784"><ele>875.0</ele><time>2026-05-02T13:11:00.016Z</time></trkpt><trkpt lat="46.18741100603762" lon="9.389546622159981"><ele>875.0</ele><time>2026-05-02T13:11:01.016Z</time></trkpt><trkpt lat="46.18742525583022" lon="9.38965370121702"><ele>875.3333333333334</ele><time>2026-05-02T13:11:02.016Z</time></trkpt><trkpt lat="46.187426241532904" lon="9.389760611729896"><ele>875.6666666666667</ele><time>2026-05-02T13:11:03.016Z</time></trkpt><trkpt lat="46.18741152832839" lon="9.389864004315294"><ele>876.0</ele><time>2026-05-02T13:11:04.016Z</time></trkpt><trkpt lat="46.18741563615766" lon="9.389965990605683"><ele>876.3333333333333</ele><time>2026-05-02T13:11:05.016Z</time></trkpt><trkpt lat="46.18740295068575" lon="9.390065464699115"><ele>876.6666666666666</ele><time>2026-05-02T13:11:06.016Z</time></trkpt><trkpt lat="46.18741193028206" lon="9.39024664415283"><ele>877.0</ele><time>2026-05-02T13:11:08.016Z</time></trkpt><trkpt lat="46.18739354701733" lon="9.390341490220594"><ele>876.9999999999999</ele><time>2026-05-02T13:11:09.016Z</time></trkpt><trkpt lat="46.18738852828886" lon="9.390448351156198"><ele>877.0</ele><time>2026-05-02T13:11:10.016Z</time></trkpt><trkpt lat="46.18736463131633" lon="9.390565406103914"><ele>877.0</ele><time>2026-05-02T13:11:11.016Z</time></trkpt><trkpt lat="46.18734720474959" lon="9.39067945559532"><ele>877.0</ele><time>2026-05-02T13:11:12.016Z</time></trkpt><trkpt lat="46.18733230844437" lon="9.39078393254552"><ele>876.9999999999999</ele><time>2026-05-02T13:11:13.016Z</time></trkpt><trkpt lat="46.187326188552404" lon="9.39087574128283"><ele>877.0</ele><time>2026-05-02T13:11:14.016Z</time></trkpt><trkpt lat="46.187319066190646" lon="9.391054250182137"><ele>869.8333333333333</ele><time>2026-05-02T13:11:16.016Z</time></trkpt><trkpt lat="46.18729161807632" lon="9.391145688179698"><ele>862.6666666666666</ele><time>2026-05-02T13:11:17.016Z</time></trkpt><trkpt lat="46.18728147981293" lon="9.391260121270987"><ele>855.5</ele><time>2026-05-02T13:11:18.016Z</time></trkpt><trkpt lat="46.187263447056885" lon="9.39137244974859"><ele>848.3333333333333</ele><time>2026-05-02T13:11:19.016Z</time></trkpt><trkpt lat="46.18724724409028" lon="9.391468499606692"><ele>841.1666666666666</ele><time>2026-05-02T13:11:20.016Z</time></trkpt><trkpt lat="46.187214176050034" lon="9.391627460239173"><ele>834.0</ele><time>2026-05-02T13:11:22.016Z</time></trkpt><trkpt lat="46.187218165581854" lon="9.391729959052169"><ele>834.0</ele><time>2026-05-02T13:11:23.016Z</time></trkpt><trkpt lat="46.187205509382714" lon="9.391841376491216"><ele>834.0</ele><time>2026-05-02T13:11:24.016Z</time></trkpt><trkpt lat="46.18717638762324" lon="9.391926629842326"><ele>834.0</ele><time>2026-05-02T13:11:25.016Z</time></trkpt><trkpt lat="46.18714599779282" lon="9.392018541376956"><ele>834.0</ele><time>2026-05-02T13:11:26.016Z</time></trkpt><trkpt lat="46.18709931628944" lon="9.392114109408343"><ele>834.0</ele><time>2026-05-02T13:11:27.016Z</time></trkpt><trkpt lat="46.187083005089114" lon="9.39221985461428"><ele>834.0</ele><time>2026-05-02T13:11:28.016Z</time></trkpt><trkpt lat="46.18705255983859" lon="9.392323858296848"><ele>834.0</ele><time>2026-05-02T13:11:29.016Z</time></trkpt><trkpt lat="46.18702051992437" lon="9.39242289771404"><ele>834.6666666666666</ele><time>2026-05-02T13:11:30.016Z</time></trkpt><trkpt lat="46.18697843334764" lon="9.392500507884632"><ele>835.3333333333333</ele><time>2026-05-02T13:11:31.016Z</time></trkpt><trkpt lat="46.18696555410146" lon="9.392608513930321"><ele>836.0</ele><time>2026-05-02T13:11:32.016Z</time></trkpt><trkpt lat="46.186930752546225" lon="9.392707953601946"><ele>836.6666666666666</ele><time>2026-05-02T13:11:33.016Z</time></trkpt><trkpt lat="46.186882056421226" lon="9.392819056757844"><ele>837.3333333333333</ele><time>2026-05-02T13:11:34.016Z</time></trkpt><trkpt lat="46.18684017521668" lon="9.392915365562537"><ele>838.0</ele><time>2026-05-02T13:11:35.016Z</time></trkpt><trkpt lat="46.18679605828444" lon="9.393011235311112"><ele>838.0</ele><time>2026-05-02T13:11:36.016Z</time></trkpt><trkpt lat="46.18677764478565" lon="9.393135460805007"><ele>838.0</ele><time>2026-05-02T13:11:37.016Z</time></trkpt><trkpt lat="46.18674258328496" lon="9.393319665716339"><ele>838.0</ele><time>2026-05-02T13:11:39.016Z</time></trkpt><trkpt lat="46.18673025812898" lon="9.393493206831725"><ele>838.0</ele><time>2026-05-02T13:11:41.016Z</time></trkpt><trkpt lat="46.186732659118086" lon="9.393591522136386"><ele>838.0</ele><time>2026-05-02T13:11:42.016Z</time></trkpt><trkpt lat="46.18676979647354" lon="9.39378644759416"><ele>835.9999999999999</ele><time>2026-05-02T13:11:44.017Z</time></trkpt><trkpt lat="46.18679178529975" lon="9.393886273712605"><ele>834.0</ele><time>2026-05-02T13:11:45.017Z</time></trkpt><trkpt lat="46.186818432482234" lon="9.39396962822357"><ele>832.0</ele><time>2026-05-02T13:11:46.017Z</time></trkpt><trkpt lat="46.18684387053401" lon="9.394057592244133"><ele>830.0</ele><time>2026-05-02T13:11:47.017Z</time></trkpt><trkpt lat="46.186895512399154" lon="9.394206635518758"><ele>827.9999999999999</ele><time>2026-05-02T13:11:49.017Z</time></trkpt><trkpt lat="46.18693421530513" lon="9.394358011608498"><ele>826.0</ele><time>2026-05-02T13:11:51.017Z</time></trkpt><trkpt lat="46.186987759761045" lon="9.39447971346498"><ele>826.0</ele><time>2026-05-02T13:11:53.017Z</time></trkpt><trkpt lat="46.187025586560445" lon="9.394561418171659"><ele>826.0</ele><time>2026-05-02T13:11:54.017Z</time></trkpt><trkpt lat="46.18706955018689" lon="9.394645040884692"><ele>826.0</ele><time>2026-05-02T13:11:55.017Z</time></trkpt><trkpt lat="46.18711772180156" lon="9.394726728622215"><ele>826.0</ele><time>2026-05-02T13:11:56.017Z</time></trkpt><trkpt lat="46.18716301888178" lon="9.394815991486338"><ele>826.0</ele><time>2026-05-02T13:11:57.017Z</time></trkpt><trkpt lat="46.18721899828074" lon="9.394888952721221"><ele>826.0</ele><time>2026-05-02T13:11:58.017Z</time></trkpt><trkpt lat="46.18728306773269" lon="9.394932376793536"><ele>826.0</ele><time>2026-05-02T13:11:59.017Z</time></trkpt><trkpt lat="46.18733150063257" lon="9.395006807895108"><ele>824.4</ele><time>2026-05-02T13:12:00.017Z</time></trkpt><trkpt lat="46.18738333931316" lon="9.395064837031265"><ele>822.8</ele><time>2026-05-02T13:12:01.017Z</time></trkpt><trkpt lat="46.187461503555255" lon="9.395190061696702"><ele>821.1999999999999</ele><time>2026-05-02T13:12:03.017Z</time></trkpt><trkpt lat="46.18752790311915" lon="9.395326985375213"><ele>819.5999999999999</ele><time>2026-05-02T13:12:05.017Z</time></trkpt><trkpt lat="46.18755955517388" lon="9.395410646379663"><ele>818.0</ele><time>2026-05-02T13:12:06.017Z</time></trkpt><trkpt lat="46.18760348803035" lon="9.395569167981053"><ele>818.0000000000001</ele><time>2026-05-02T13:12:08.017Z</time></trkpt><trkpt lat="46.187648022872715" lon="9.395741996558906"><ele>818.0</ele><time>2026-05-02T13:12:10.017Z</time></trkpt><trkpt lat="46.18767297829265" lon="9.39583940713514"><ele>818.0</ele><time>2026-05-02T13:12:11.017Z</time></trkpt><trkpt lat="46.18771810057683" lon="9.39593062532476"><ele>818.0</ele><time>2026-05-02T13:12:12.017Z</time></trkpt><trkpt lat="46.187746689050144" lon="9.396024929672679"><ele>818.0000000000001</ele><time>2026-05-02T13:12:13.017Z</time></trkpt><trkpt lat="46.187776434818154" lon="9.396119291738115"><ele>818.0</ele><time>2026-05-02T13:12:14.017Z</time></trkpt><trkpt lat="46.187805442157504" lon="9.396207229701467"><ele>818.0000000000001</ele><time>2026-05-02T13:12:15.017Z</time></trkpt><trkpt lat="46.187838368631574" lon="9.396293325597762"><ele>818.0</ele><time>2026-05-02T13:12:16.017Z</time></trkpt><trkpt lat="46.187886788946955" lon="9.39643772051566"><ele>818.0</ele><time>2026-05-02T13:12:18.017Z</time></trkpt><trkpt lat="46.187913051773755" lon="9.396553741366938"><ele>818.0</ele><time>2026-05-02T13:12:20.017Z</time></trkpt><trkpt lat="46.18792134047208" lon="9.396653741259886"><ele>818.0000000000001</ele><time>2026-05-02T13:12:22.017Z</time></trkpt><trkpt lat="46.187882933289025" lon="9.396740596503715"><ele>818.0</ele><time>2026-05-02T13:12:26.017Z</time></trkpt><trkpt lat="46.187787602801365" lon="9.39665624898063"><ele>818.0</ele><time>2026-05-02T13:12:28.018Z</time></trkpt><trkpt lat="46.187722282833924" lon="9.39660307268738"><ele>818.0</ele><time>2026-05-02T13:12:29.018Z</time></trkpt><trkpt lat="46.187677614583386" lon="9.39653753107544"><ele>818.0</ele><time>2026-05-02T13:12:30.018Z</time></trkpt><trkpt lat="46.18762213038048" lon="9.396486481764148"><ele>818.0</ele><time>2026-05-02T13:12:31.018Z</time></trkpt><trkpt lat="46.18756698815077" lon="9.39643574717533"><ele>818.0</ele><time>2026-05-02T13:12:32.018Z</time></trkpt><trkpt lat="46.18751025573439" lon="9.396381031242296"><ele>818.0</ele><time>2026-05-02T13:12:33.018Z</time></trkpt><trkpt lat="46.187454341395316" lon="9.396327169253187"><ele>818.0</ele><time>2026-05-02T13:12:34.018Z</time></trkpt><trkpt lat="46.187394607203586" lon="9.396295526956361"><ele>812.8</ele><time>2026-05-02T13:12:35.018Z</time></trkpt><trkpt lat="46.18734332874711" lon="9.396224127585189"><ele>807.5999999999999</ele><time>2026-05-02T13:12:36.018Z</time></trkpt><trkpt lat="46.18725058787439" lon="9.396142192628663"><ele>802.4000000000001</ele><time>2026-05-02T13:12:38.018Z</time></trkpt><trkpt lat="46.187138567760265" lon="9.396060758648739"><ele>797.2</ele><time>2026-05-02T13:12:40.018Z</time></trkpt><trkpt lat="46.187026328718176" lon="9.396008963662094"><ele>792.0</ele><time>2026-05-02T13:12:42.018Z</time></trkpt><trkpt lat="46.18691224455537" lon="9.395975694812995"><ele>792.0</ele><time>2026-05-02T13:12:44.018Z</time></trkpt><trkpt lat="46.1868185367731" lon="9.39592335007518"><ele>792.0</ele><time>2026-05-02T13:12:46.018Z</time></trkpt><trkpt lat="46.186767514152784" lon="9.395832083945658"><ele>792.0</ele><time>2026-05-02T13:12:47.018Z</time></trkpt><trkpt lat="46.18672090218542" lon="9.395766514385112"><ele>792.0</ele><time>2026-05-02T13:12:48.018Z</time></trkpt><trkpt lat="46.18663420363499" lon="9.39560997891752"><ele>792.0</ele><time>2026-05-02T13:12:50.018Z</time></trkpt><trkpt lat="46.186587361439685" lon="9.395519798810568"><ele>795.8333333333334</ele><time>2026-05-02T13:12:51.018Z</time></trkpt><trkpt lat="46.18654319920204" lon="9.395434777825534"><ele>799.6666666666667</ele><time>2026-05-02T13:12:52.018Z</time></trkpt><trkpt lat="46.1865022689744" lon="9.395356781898597"><ele>803.5</ele><time>2026-05-02T13:12:53.018Z</time></trkpt><trkpt lat="46.18645445759247" lon="9.395268629750593"><ele>807.3333333333334</ele><time>2026-05-02T13:12:54.018Z</time></trkpt><trkpt lat="46.18640112332488" lon="9.395203850916149"><ele>811.1666666666667</ele><time>2026-05-02T13:12:55.018Z</time></trkpt><trkpt lat="46.18637479160091" lon="9.395112017082356"><ele>815.0</ele><time>2026-05-02T13:12:56.018Z</time></trkpt><trkpt lat="46.18629016160906" lon="9.394987505597122"><ele>808.5000000000001</ele><time>2026-05-02T13:12:58.018Z</time></trkpt><trkpt lat="46.186255107329984" lon="9.394895568026168"><ele>802.0</ele><time>2026-05-02T13:12:59.018Z</time></trkpt><trkpt lat="46.18618117930306" lon="9.394760867686287"><ele>795.5</ele><time>2026-05-02T13:13:01.018Z</time></trkpt><trkpt lat="46.18614065359741" lon="9.394674536997849"><ele>789.0</ele><time>2026-05-02T13:13:02.018Z</time></trkpt><trkpt lat="46.1861040748839" lon="9.394600100388248"><ele>782.5000000000001</ele><time>2026-05-02T13:13:03.018Z</time></trkpt><trkpt lat="46.18605016419426" lon="9.394540205775964"><ele>776.0</ele><time>2026-05-02T13:13:04.018Z</time></trkpt><trkpt lat="46.18598368441773" lon="9.394417453191007"><ele>776.0</ele><time>2026-05-02T13:13:06.018Z</time></trkpt><trkpt lat="46.18594231896387" lon="9.394340675683901"><ele>776.0</ele><time>2026-05-02T13:13:07.018Z</time></trkpt><trkpt lat="46.18587315056494" lon="9.394199606222688"><ele>776.0</ele><time>2026-05-02T13:13:09.018Z</time></trkpt><trkpt lat="46.18580945250497" lon="9.394059225499063"><ele>776.0</ele><time>2026-05-02T13:13:11.018Z</time></trkpt><trkpt lat="46.185775085713416" lon="9.39397315480402"><ele>776.0</ele><time>2026-05-02T13:13:12.019Z</time></trkpt><trkpt lat="46.18572817963131" lon="9.393797309612264"><ele>778.1666666666667</ele><time>2026-05-02T13:13:14.019Z</time></trkpt><trkpt lat="46.185695097535806" lon="9.393706033750366"><ele>780.3333333333334</ele><time>2026-05-02T13:13:15.019Z</time></trkpt><trkpt lat="46.18563577824262" lon="9.39352806260398"><ele>782.5</ele><time>2026-05-02T13:13:17.019Z</time></trkpt><trkpt lat="46.18561081399136" lon="9.393393268177425"><ele>784.6666666666667</ele><time>2026-05-02T13:13:18.019Z</time></trkpt><trkpt lat="46.18559532790196" lon="9.393291720046673"><ele>786.8333333333334</ele><time>2026-05-02T13:13:19.019Z</time></trkpt><trkpt lat="46.18559900671259" lon="9.393187992697602"><ele>789.0</ele><time>2026-05-02T13:13:20.019Z</time></trkpt><trkpt lat="46.18556884044744" lon="9.393067529944988"><ele>781.0</ele><time>2026-05-02T13:13:21.019Z</time></trkpt><trkpt lat="46.18554925206186" lon="9.392952067258824"><ele>773.0</ele><time>2026-05-02T13:13:22.019Z</time></trkpt><trkpt lat="46.185531942027154" lon="9.392843139976659"><ele>765.0</ele><time>2026-05-02T13:13:23.019Z</time></trkpt><trkpt lat="46.18551601116025" lon="9.392734572656824"><ele>757.0</ele><time>2026-05-02T13:13:24.019Z</time></trkpt><trkpt lat="46.185504989756645" lon="9.392616958565135"><ele>749.0</ele><time>2026-05-02T13:13:25.019Z</time></trkpt><trkpt lat="46.1854895677957" lon="9.392506639839981"><ele>741.0</ele><time>2026-05-02T13:13:26.019Z</time></trkpt><trkpt lat="46.185463945300135" lon="9.392412559777698"><ele>741.0</ele><time>2026-05-02T13:13:27.019Z</time></trkpt><trkpt lat="46.185442816693495" lon="9.392263476200037"><ele>741.0</ele><time>2026-05-02T13:13:29.019Z</time></trkpt><trkpt lat="46.18541500211545" lon="9.392118801550371"><ele>741.0</ele><time>2026-05-02T13:13:31.019Z</time></trkpt><trkpt lat="46.18538342732876" lon="9.391959652943363"><ele>741.0</ele><time>2026-05-02T13:13:33.019Z</time></trkpt><trkpt lat="46.18534774037661" lon="9.391866736682546"><ele>741.0</ele><time>2026-05-02T13:13:34.019Z</time></trkpt><trkpt lat="46.185314963628926" lon="9.39176966463028"><ele>743.6666666666666</ele><time>2026-05-02T13:13:35.019Z</time></trkpt><trkpt lat="46.18528125858508" lon="9.391669906460868"><ele>746.3333333333334</ele><time>2026-05-02T13:13:36.019Z</time></trkpt><trkpt lat="46.18524633847536" lon="9.391564301245426"><ele>749.0</ele><time>2026-05-02T13:13:37.019Z</time></trkpt><trkpt lat="46.18521244968242" lon="9.391455713425717"><ele>751.6666666666667</ele><time>2026-05-02T13:13:38.019Z</time></trkpt><trkpt lat="46.18518069491862" lon="9.391358738922563"><ele>754.3333333333334</ele><time>2026-05-02T13:13:39.019Z</time></trkpt><trkpt lat="46.18514593736515" lon="9.391270020069793"><ele>757.0</ele><time>2026-05-02T13:13:40.019Z</time></trkpt><trkpt lat="46.18510728895333" lon="9.391185563912451"><ele>757.4000000000001</ele><time>2026-05-02T13:13:41.019Z</time></trkpt><trkpt lat="46.185067282952566" lon="9.391032650275436"><ele>757.8000000000001</ele><time>2026-05-02T13:13:43.019Z</time></trkpt><trkpt lat="46.185035014202796" lon="9.390897406613469"><ele>758.2</ele><time>2026-05-02T13:13:45.019Z</time></trkpt><trkpt lat="46.18501411271879" lon="9.390766609384789"><ele>758.6</ele><time>2026-05-02T13:13:47.019Z</time></trkpt><trkpt lat="46.184996245530485" lon="9.39060737806475"><ele>759.0</ele><time>2026-05-02T13:13:49.019Z</time></trkpt><trkpt lat="46.18496628189676" lon="9.39049559752294"><ele>759.0</ele><time>2026-05-02T13:13:50.019Z</time></trkpt><trkpt lat="46.18494857385566" lon="9.390383623017296"><ele>759.0</ele><time>2026-05-02T13:13:51.019Z</time></trkpt><trkpt lat="46.18494250746289" lon="9.39028695680952"><ele>759.0</ele><time>2026-05-02T13:13:52.019Z</time></trkpt><trkpt lat="46.18492295699832" lon="9.390132955762722"><ele>759.0</ele><time>2026-05-02T13:13:54.019Z</time></trkpt><trkpt lat="46.184907521074955" lon="9.38997623635246"><ele>759.0</ele><time>2026-05-02T13:13:56.02Z</time></trkpt><trkpt lat="46.18487019299666" lon="9.389834430942807"><ele>759.0</ele><time>2026-05-02T13:13:58.02Z</time></trkpt><trkpt lat="46.184871518630864" lon="9.389698875244404"><ele>759.0</ele><time>2026-05-02T13:14:00.02Z</time></trkpt><trkpt lat="46.184863993965564" lon="9.389536275086279"><ele>759.0</ele><time>2026-05-02T13:14:02.02Z</time></trkpt><trkpt lat="46.18486653043989" lon="9.389419907699041"><ele>759.0</ele><time>2026-05-02T13:14:03.02Z</time></trkpt><trkpt lat="46.18486427841497" lon="9.38929964056356"><ele>759.0</ele><time>2026-05-02T13:14:04.02Z</time></trkpt><trkpt lat="46.18487357698231" lon="9.389122119816118"><ele>758.5714285714286</ele><time>2026-05-02T13:14:06.02Z</time></trkpt><trkpt lat="46.184885236751015" lon="9.389028423301529"><ele>758.1428571428571</ele><time>2026-05-02T13:14:07.02Z</time></trkpt><trkpt lat="46.1848936965344" lon="9.388936230859795"><ele>757.7142857142858</ele><time>2026-05-02T13:14:08.02Z</time></trkpt><trkpt lat="46.18490266096358" lon="9.38883708868782"><ele>757.2857142857142</ele><time>2026-05-02T13:14:09.02Z</time></trkpt><trkpt lat="46.184905970594194" lon="9.388737239164218"><ele>756.8571428571429</ele><time>2026-05-02T13:14:10.02Z</time></trkpt><trkpt lat="46.1849170338157" lon="9.388645733228953"><ele>756.4285714285714</ele><time>2026-05-02T13:14:11.02Z</time></trkpt><trkpt lat="46.18493767577509" lon="9.388556975080636"><ele>756.0</ele><time>2026-05-02T13:14:12.02Z</time></trkpt><trkpt lat="46.18493906312761" lon="9.3884488075992"><ele>753.8333333333334</ele><time>2026-05-02T13:14:13.02Z</time></trkpt><trkpt lat="46.18494344176144" lon="9.388321758598474"><ele>751.6666666666666</ele><time>2026-05-02T13:14:14.02Z</time></trkpt><trkpt lat="46.18497530524689" lon="9.388195980748582"><ele>749.5</ele><time>2026-05-02T13:14:15.02Z</time></trkpt><trkpt lat="46.184975595261555" lon="9.388068565985959"><ele>747.3333333333333</ele><time>2026-05-02T13:14:16.02Z</time></trkpt><trkpt lat="46.18499354277251" lon="9.387958256747142"><ele>745.1666666666666</ele><time>2026-05-02T13:14:17.02Z</time></trkpt><trkpt lat="46.184998204712926" lon="9.387852511950102"><ele>743.0</ele><time>2026-05-02T13:14:18.02Z</time></trkpt><trkpt lat="46.18499298376422" lon="9.38773717903779"><ele>741.5</ele><time>2026-05-02T13:14:19.02Z</time></trkpt><trkpt lat="46.184987574287916" lon="9.387617666343893"><ele>740.0</ele><time>2026-05-02T13:14:20.02Z</time></trkpt><trkpt lat="46.184983132538584" lon="9.38750258840717"><ele>738.5</ele><time>2026-05-02T13:14:21.02Z</time></trkpt><trkpt lat="46.18497839954986" lon="9.387393357430684"><ele>737.0</ele><time>2026-05-02T13:14:22.02Z</time></trkpt><trkpt lat="46.18497023704811" lon="9.387282632284993"><ele>735.5</ele><time>2026-05-02T13:14:23.02Z</time></trkpt><trkpt lat="46.18496360629336" lon="9.387183518174224"><ele>734.0</ele><time>2026-05-02T13:14:24.02Z</time></trkpt><trkpt lat="46.1849445817912" lon="9.387004317651297"><ele>734.0</ele><time>2026-05-02T13:14:26.02Z</time></trkpt><trkpt lat="46.18491937831395" lon="9.386909548402842"><ele>734.0</ele><time>2026-05-02T13:14:27.02Z</time></trkpt><trkpt lat="46.18491954776552" lon="9.38674878606972"><ele>734.0</ele><time>2026-05-02T13:14:29.02Z</time></trkpt><trkpt lat="46.18490618515745" lon="9.386555442417336"><ele>734.0</ele><time>2026-05-02T13:14:31.02Z</time></trkpt><trkpt lat="46.184890440318576" lon="9.386452750487669"><ele>734.0</ele><time>2026-05-02T13:14:32.02Z</time></trkpt><trkpt lat="46.18486783409538" lon="9.3863357154523"><ele>733.8333333333333</ele><time>2026-05-02T13:14:33.02Z</time></trkpt><trkpt lat="46.18485947263042" lon="9.386203237033238"><ele>733.6666666666666</ele><time>2026-05-02T13:14:34.02Z</time></trkpt><trkpt lat="46.18484857446355" lon="9.386086937137732"><ele>733.5</ele><time>2026-05-02T13:14:35.02Z</time></trkpt><trkpt lat="46.18483810772277" lon="9.38598112483134"><ele>733.3333333333334</ele><time>2026-05-02T13:14:36.02Z</time></trkpt><trkpt lat="46.18482534256431" lon="9.385888637951366"><ele>733.1666666666667</ele><time>2026-05-02T13:14:37.02Z</time></trkpt><trkpt lat="46.18481886099631" lon="9.385785722067613"><ele>733.0</ele><time>2026-05-02T13:14:38.02Z</time></trkpt><trkpt lat="46.18480743698786" lon="9.385680210359284"><ele>725.8571428571428</ele><time>2026-05-02T13:14:39.02Z</time></trkpt><trkpt lat="46.18478857537825" lon="9.385567725589226"><ele>718.7142857142857</ele><time>2026-05-02T13:14:40.021Z</time></trkpt><trkpt lat="46.184786620380656" lon="9.385476370091757"><ele>711.5714285714286</ele><time>2026-05-02T13:14:41.021Z</time></trkpt><trkpt lat="46.18478382348269" lon="9.385356105518488"><ele>704.4285714285713</ele><time>2026-05-02T13:14:42.021Z</time></trkpt><trkpt lat="46.184771508068934" lon="9.385244920325194"><ele>697.2857142857142</ele><time>2026-05-02T13:14:43.021Z</time></trkpt><trkpt lat="46.184762610793605" lon="9.385142482080306"><ele>690.1428571428571</ele><time>2026-05-02T13:14:44.021Z</time></trkpt><trkpt lat="46.18475943411185" lon="9.38504691062724"><ele>683.0</ele><time>2026-05-02T13:14:45.021Z</time></trkpt><trkpt lat="46.184751331471254" lon="9.384948522715387"><ele>681.8333333333333</ele><time>2026-05-02T13:14:46.021Z</time></trkpt><trkpt lat="46.18473122950439" lon="9.3847658550747"><ele>680.6666666666666</ele><time>2026-05-02T13:14:48.021Z</time></trkpt><trkpt lat="46.18472237558196" lon="9.384666591587147"><ele>679.5</ele><time>2026-05-02T13:14:49.021Z</time></trkpt><trkpt lat="46.184725676404426" lon="9.3845464985666"><ele>678.3333333333334</ele><time>2026-05-02T13:14:50.021Z</time></trkpt><trkpt lat="46.1847168511799" lon="9.384453264582032"><ele>677.1666666666667</ele><time>2026-05-02T13:14:51.021Z</time></trkpt><trkpt lat="46.18472085322807" lon="9.384341455211576"><ele>676.0</ele><time>2026-05-02T13:14:52.021Z</time></trkpt><trkpt lat="46.18472704539656" lon="9.384155125388023"><ele>675.0</ele><time>2026-05-02T13:14:54.021Z</time></trkpt><trkpt lat="46.18473350301352" lon="9.384048521124564"><ele>674.0</ele><time>2026-05-02T13:14:55.021Z</time></trkpt><trkpt lat="46.184732456176086" lon="9.38394890708772"><ele>673.0</ele><time>2026-05-02T13:14:56.021Z</time></trkpt><trkpt lat="46.18473725666124" lon="9.383856876421504"><ele>672.0</ele><time>2026-05-02T13:14:57.021Z</time></trkpt><trkpt lat="46.18474068075164" lon="9.383758831383732"><ele>671.0</ele><time>2026-05-02T13:14:58.021Z</time></trkpt><trkpt lat="46.1847460248633" lon="9.383665980868624"><ele>670.0</ele><time>2026-05-02T13:14:59.021Z</time></trkpt><trkpt lat="46.184742701133914" lon="9.3835100040486"><ele>669.0</ele><time>2026-05-02T13:15:01.021Z</time></trkpt><trkpt lat="46.18476199186543" lon="9.383386557484252"><ele>668.75</ele><time>2026-05-02T13:15:03.021Z</time></trkpt><trkpt lat="46.18468198054677" lon="9.383208187524831"><ele>668.5</ele><time>2026-05-02T13:15:06.021Z</time></trkpt><trkpt lat="46.18460501951062" lon="9.383266653757953"><ele>668.25</ele><time>2026-05-02T13:15:07.021Z</time></trkpt><trkpt lat="46.18458229668551" lon="9.383408334187914"><ele>668.0</ele><time>2026-05-02T13:15:08.021Z</time></trkpt><trkpt lat="46.18453707204171" lon="9.383591160538916"><ele>668.0</ele><time>2026-05-02T13:15:10.021Z</time></trkpt><trkpt lat="46.18451298406261" lon="9.383683984102658"><ele>668.0</ele><time>2026-05-02T13:15:11.021Z</time></trkpt><trkpt lat="46.18448645231283" lon="9.383786205146196"><ele>668.0</ele><time>2026-05-02T13:15:12.021Z</time></trkpt><trkpt lat="46.18446116646823" lon="9.383886283946195"><ele>668.0</ele><time>2026-05-02T13:15:13.021Z</time></trkpt><trkpt lat="46.18443564004904" lon="9.383988004915242"><ele>668.0</ele><time>2026-05-02T13:15:14.021Z</time></trkpt><trkpt lat="46.18440769431611" lon="9.384099366703996"><ele>668.0</ele><time>2026-05-02T13:15:15.021Z</time></trkpt><trkpt lat="46.18437500381328" lon="9.38422825426284"><ele>668.1666666666666</ele><time>2026-05-02T13:15:16.021Z</time></trkpt><trkpt lat="46.18434411398525" lon="9.384348155682067"><ele>668.3333333333333</ele><time>2026-05-02T13:15:17.021Z</time></trkpt><trkpt lat="46.18431332426809" lon="9.384467668313535"><ele>668.5</ele><time>2026-05-02T13:15:18.021Z</time></trkpt><trkpt lat="46.18428148179889" lon="9.384585908369598"><ele>668.6666666666666</ele><time>2026-05-02T13:15:19.021Z</time></trkpt><trkpt lat="46.18426283970765" lon="9.38470905050486"><ele>668.8333333333334</ele><time>2026-05-02T13:15:20.021Z</time></trkpt><trkpt lat="46.18421916937829" lon="9.384814458333894"><ele>669.0</ele><time>2026-05-02T13:15:21.021Z</time></trkpt><trkpt lat="46.184179288123" lon="9.384920934258668"><ele>670.1666666666666</ele><time>2026-05-02T13:15:22.021Z</time></trkpt><trkpt lat="46.184144592161694" lon="9.385019088096112"><ele>671.3333333333334</ele><time>2026-05-02T13:15:23.021Z</time></trkpt><trkpt lat="46.18410772044136" lon="9.385119078657453"><ele>672.5</ele><time>2026-05-02T13:15:24.022Z</time></trkpt><trkpt lat="46.18407491994324" lon="9.385225580387026"><ele>673.6666666666667</ele><time>2026-05-02T13:15:25.022Z</time></trkpt><trkpt lat="46.18404503530763" lon="9.385342056421173"><ele>674.8333333333334</ele><time>2026-05-02T13:15:26.022Z</time></trkpt><trkpt lat="46.18400889705322" lon="9.385464165865313"><ele>676.0</ele><time>2026-05-02T13:15:27.022Z</time></trkpt><trkpt lat="46.18398406586433" lon="9.385569870989624"><ele>669.8333333333334</ele><time>2026-05-02T13:15:28.022Z</time></trkpt><trkpt lat="46.18395323831553" lon="9.385684831635695"><ele>663.6666666666667</ele><time>2026-05-02T13:15:29.022Z</time></trkpt><trkpt lat="46.18392302324538" lon="9.385796364101346"><ele>657.5</ele><time>2026-05-02T13:15:30.022Z</time></trkpt><trkpt lat="46.1838867281694" lon="9.385909394499691"><ele>651.3333333333334</ele><time>2026-05-02T13:15:31.022Z</time></trkpt><trkpt lat="46.18385078424029" lon="9.386014128089764"><ele>645.1666666666666</ele><time>2026-05-02T13:15:32.022Z</time></trkpt><trkpt lat="46.18382173132574" lon="9.386128178766478"><ele>639.0</ele><time>2026-05-02T13:15:33.022Z</time></trkpt><trkpt lat="46.18379121977316" lon="9.386240922253206"><ele>640.4</ele><time>2026-05-02T13:15:34.022Z</time></trkpt><trkpt lat="46.18376874822858" lon="9.386354377320567"><ele>641.8</ele><time>2026-05-02T13:15:35.022Z</time></trkpt><trkpt lat="46.1837552154203" lon="9.386468172337755"><ele>643.1999999999999</ele><time>2026-05-02T13:15:36.022Z</time></trkpt><trkpt lat="46.18371235124456" lon="9.386636756763169"><ele>644.5999999999999</ele><time>2026-05-02T13:15:38.022Z</time></trkpt><trkpt lat="46.18367044325014" lon="9.386765778926554"><ele>646.0</ele><time>2026-05-02T13:15:40.022Z</time></trkpt><trkpt lat="46.18363511704598" lon="9.386853569662751"><ele>646.0</ele><time>2026-05-02T13:15:42.022Z</time></trkpt><trkpt lat="46.183599158257586" lon="9.386953639514624"><ele>646.0</ele><time>2026-05-02T13:15:45.022Z</time></trkpt><trkpt lat="46.18355457834624" lon="9.386876640001246"><ele>646.0</ele><time>2026-05-02T13:15:48.022Z</time></trkpt><trkpt lat="46.18354820527427" lon="9.386724999727441"><ele>646.0</ele><time>2026-05-02T13:15:50.022Z</time></trkpt><trkpt lat="46.18354412685664" lon="9.38662879857597"><ele>646.0</ele><time>2026-05-02T13:15:51.022Z</time></trkpt><trkpt lat="46.18353246129394" lon="9.386522551473073"><ele>646.0</ele><time>2026-05-02T13:15:52.022Z</time></trkpt><trkpt lat="46.18352092087835" lon="9.38641009170618"><ele>644.8333333333334</ele><time>2026-05-02T13:15:53.022Z</time></trkpt><trkpt lat="46.18350622533843" lon="9.386293226414772"><ele>643.6666666666667</ele><time>2026-05-02T13:15:54.022Z</time></trkpt><trkpt lat="46.1834901871854" lon="9.386185136180535"><ele>642.5</ele><time>2026-05-02T13:15:55.022Z</time></trkpt><trkpt lat="46.18347797921571" lon="9.386082383673218"><ele>641.3333333333334</ele><time>2026-05-02T13:15:56.022Z</time></trkpt><trkpt lat="46.18348219659575" lon="9.385983133804887"><ele>640.1666666666666</ele><time>2026-05-02T13:15:57.022Z</time></trkpt><trkpt lat="46.183463748182" lon="9.385804865679837"><ele>639.0</ele><time>2026-05-02T13:15:59.022Z</time></trkpt><trkpt lat="46.18345762647915" lon="9.385650530789588"><ele>639.0</ele><time>2026-05-02T13:16:01.022Z</time></trkpt><trkpt lat="46.183446498208426" lon="9.385538235775108"><ele>639.0</ele><time>2026-05-02T13:16:03.022Z</time></trkpt><trkpt lat="46.18341834602306" lon="9.385446436647891"><ele>639.0</ele><time>2026-05-02T13:16:06.022Z</time></trkpt><trkpt lat="46.18329581221912" lon="9.385620457915513"><ele>639.0</ele><time>2026-05-02T13:16:10.023Z</time></trkpt><trkpt lat="46.18327348959714" lon="9.385733303892094"><ele>639.0</ele><time>2026-05-02T13:16:11.023Z</time></trkpt><trkpt lat="46.18325188603869" lon="9.385858354131209"><ele>639.0</ele><time>2026-05-02T13:16:12.023Z</time></trkpt><trkpt lat="46.1832278081687" lon="9.386000784394348"><ele>639.0</ele><time>2026-05-02T13:16:13.023Z</time></trkpt><trkpt lat="46.183207628595646" lon="9.386138372967647"><ele>639.0</ele><time>2026-05-02T13:16:14.023Z</time></trkpt><trkpt lat="46.18320045238066" lon="9.386280815249403"><ele>639.0</ele><time>2026-05-02T13:16:15.023Z</time></trkpt><trkpt lat="46.18317617263248" lon="9.386407474139022"><ele>639.0</ele><time>2026-05-02T13:16:16.023Z</time></trkpt><trkpt lat="46.18315903060139" lon="9.386531391915877"><ele>634.3333333333334</ele><time>2026-05-02T13:16:17.023Z</time></trkpt><trkpt lat="46.18314335916849" lon="9.386654708941528"><ele>629.6666666666666</ele><time>2026-05-02T13:16:18.023Z</time></trkpt><trkpt lat="46.183126444479065" lon="9.38677726797166"><ele>625.0</ele><time>2026-05-02T13:16:19.023Z</time></trkpt><trkpt lat="46.183106523404795" lon="9.386899470576484"><ele>620.3333333333333</ele><time>2026-05-02T13:16:20.023Z</time></trkpt><trkpt lat="46.1830758260367" lon="9.387006928103668"><ele>615.6666666666666</ele><time>2026-05-02T13:16:21.023Z</time></trkpt><trkpt lat="46.183024490208055" lon="9.38709728015429"><ele>611.0</ele><time>2026-05-02T13:16:22.023Z</time></trkpt><trkpt lat="46.18298061887458" lon="9.387186192062806"><ele>611.0</ele><time>2026-05-02T13:16:23.023Z</time></trkpt><trkpt lat="46.1829345400125" lon="9.387281409988075"><ele>611.0</ele><time>2026-05-02T13:16:24.023Z</time></trkpt><trkpt lat="46.18290017423036" lon="9.3874117844963"><ele>611.0</ele><time>2026-05-02T13:16:25.023Z</time></trkpt><trkpt lat="46.18288029279015" lon="9.387559508251869"><ele>611.0</ele><time>2026-05-02T13:16:26.023Z</time></trkpt><trkpt lat="46.18286237880095" lon="9.387714207261794"><ele>611.0</ele><time>2026-05-02T13:16:27.023Z</time></trkpt><trkpt lat="46.1828194608991" lon="9.387860413310817"><ele>611.0</ele><time>2026-05-02T13:16:28.023Z</time></trkpt><trkpt lat="46.18279398374054" lon="9.388005582644693"><ele>611.0</ele><time>2026-05-02T13:16:29.023Z</time></trkpt><trkpt lat="46.18277220490838" lon="9.388138295814205"><ele>611.0</ele><time>2026-05-02T13:16:30.023Z</time></trkpt><trkpt lat="46.18275533506067" lon="9.388264185687795"><ele>611.0</ele><time>2026-05-02T13:16:31.023Z</time></trkpt><trkpt lat="46.182729882904205" lon="9.388387505050938"><ele>611.0</ele><time>2026-05-02T13:16:32.023Z</time></trkpt><trkpt lat="46.18271030255373" lon="9.388521775778907"><ele>611.8</ele><time>2026-05-02T13:16:33.023Z</time></trkpt><trkpt lat="46.182696543502324" lon="9.388662243755812"><ele>612.6</ele><time>2026-05-02T13:16:34.023Z</time></trkpt><trkpt lat="46.18268928354791" lon="9.38880197897691"><ele>613.4</ele><time>2026-05-02T13:16:35.023Z</time></trkpt><trkpt lat="46.182689399851654" lon="9.388944992314528"><ele>614.2</ele><time>2026-05-02T13:16:36.023Z</time></trkpt><trkpt lat="46.182685700600715" lon="9.389087995018931"><ele>615.0</ele><time>2026-05-02T13:16:37.023Z</time></trkpt><trkpt lat="46.182685592079864" lon="9.389228517421577"><ele>615.0</ele><time>2026-05-02T13:16:38.023Z</time></trkpt><trkpt lat="46.18268927788165" lon="9.389363882170063"><ele>615.0</ele><time>2026-05-02T13:16:39.023Z</time></trkpt><trkpt lat="46.18269551635513" lon="9.389494259480765"><ele>615.0</ele><time>2026-05-02T13:16:40.023Z</time></trkpt><trkpt lat="46.18270666849657" lon="9.38961239077587"><ele>615.0</ele><time>2026-05-02T13:16:41.023Z</time></trkpt><trkpt lat="46.18272065647441" lon="9.389722272175659"><ele>615.0</ele><time>2026-05-02T13:16:42.023Z</time></trkpt><trkpt lat="46.182748049648474" lon="9.389817628639562"><ele>615.0</ele><time>2026-05-02T13:16:43.023Z</time></trkpt><trkpt lat="46.18276692690074" lon="9.389985084564078"><ele>614.5</ele><time>2026-05-02T13:16:45.023Z</time></trkpt><trkpt lat="46.182771439566" lon="9.390117806105112"><ele>614.0</ele><time>2026-05-02T13:16:47.023Z</time></trkpt><trkpt lat="46.18277377656584" lon="9.390218871714719"><ele>613.5</ele><time>2026-05-02T13:16:49.023Z</time></trkpt><trkpt lat="46.18270752332029" lon="9.390216621687392"><ele>613.0</ele><time>2026-05-02T13:16:52.024Z</time></trkpt><trkpt lat="46.18268445824358" lon="9.390091289511703"><ele>612.5</ele><time>2026-05-02T13:16:54.024Z</time></trkpt><trkpt lat="46.1826560678642" lon="9.389972415156832"><ele>612.0</ele><time>2026-05-02T13:16:55.024Z</time></trkpt><trkpt lat="46.18261889854602" lon="9.389799870583488"><ele>612.75</ele><time>2026-05-02T13:16:56.024Z</time></trkpt><trkpt lat="46.18258327527064" lon="9.389614817359584"><ele>613.5</ele><time>2026-05-02T13:16:57.024Z</time></trkpt><trkpt lat="46.18254765804967" lon="9.389421784230455"><ele>614.25</ele><time>2026-05-02T13:16:58.024Z</time></trkpt><trkpt lat="46.18251713398437" lon="9.389261607110468"><ele>615.0</ele><time>2026-05-02T13:16:59.024Z</time></trkpt><trkpt lat="46.18249094516946" lon="9.389126062969193"><ele>615.0</ele><time>2026-05-02T13:17:00.024Z</time></trkpt><trkpt lat="46.18247087567781" lon="9.38902219056199"><ele>615.0</ele><time>2026-05-02T13:17:01.024Z</time></trkpt><trkpt lat="46.18243953948693" lon="9.388941990168844"><ele>615.0</ele><time>2026-05-02T13:17:02.024Z</time></trkpt><trkpt lat="46.182407727317205" lon="9.388781680497017"><ele>615.0</ele><time>2026-05-02T13:17:04.024Z</time></trkpt><trkpt lat="46.18233779848463" lon="9.3887196346179"><ele>615.0</ele><time>2026-05-02T13:17:06.024Z</time></trkpt><trkpt lat="46.18224160567329" lon="9.38881592460834"><ele>606.8</ele><time>2026-05-02T13:17:08.024Z</time></trkpt><trkpt lat="46.1822751786782" lon="9.388970419494452"><ele>598.6</ele><time>2026-05-02T13:17:09.024Z</time></trkpt><trkpt lat="46.18228161005067" lon="9.389118855351544"><ele>590.4</ele><time>2026-05-02T13:17:10.024Z</time></trkpt><trkpt lat="46.18227256794941" lon="9.389239786578326"><ele>582.2</ele><time>2026-05-02T13:17:11.024Z</time></trkpt><trkpt lat="46.182272858107304" lon="9.389345570412354"><ele>574.0</ele><time>2026-05-02T13:17:12.024Z</time></trkpt><trkpt lat="46.18225211833724" lon="9.389464273675225"><ele>574.0</ele><time>2026-05-02T13:17:14.024Z</time></trkpt><trkpt lat="46.18217805325074" lon="9.389401639526847"><ele>574.0</ele><time>2026-05-02T13:17:17.024Z</time></trkpt><trkpt lat="46.18217566510081" lon="9.389270474983531"><ele>574.0</ele><time>2026-05-02T13:17:18.024Z</time></trkpt><trkpt lat="46.182175638462766" lon="9.389128276223015"><ele>574.0</ele><time>2026-05-02T13:17:19.024Z</time></trkpt><trkpt lat="46.18218140259142" lon="9.388970787063853"><ele>574.0</ele><time>2026-05-02T13:17:20.024Z</time></trkpt><trkpt lat="46.18215954552352" lon="9.388821918760335"><ele>572.6</ele><time>2026-05-02T13:17:21.024Z</time></trkpt><trkpt lat="46.18212855402784" lon="9.388679392542631"><ele>571.2</ele><time>2026-05-02T13:17:22.024Z</time></trkpt><trkpt lat="46.182096005948324" lon="9.388541537594675"><ele>569.8000000000001</ele><time>2026-05-02T13:17:23.024Z</time></trkpt><trkpt lat="46.182072876174324" lon="9.3884044186108"><ele>568.4</ele><time>2026-05-02T13:17:24.024Z</time></trkpt><trkpt lat="46.1820644289285" lon="9.388271017139754"><ele>567.0</ele><time>2026-05-02T13:17:25.024Z</time></trkpt><trkpt lat="46.182034119170154" lon="9.388150787372831"><ele>567.0</ele><time>2026-05-02T13:17:26.024Z</time></trkpt><trkpt lat="46.18200212428409" lon="9.38804920650119"><ele>567.0</ele><time>2026-05-02T13:17:27.024Z</time></trkpt><trkpt lat="46.18197623048922" lon="9.387961220769098"><ele>567.0</ele><time>2026-05-02T13:17:28.024Z</time></trkpt><trkpt lat="46.181962234667616" lon="9.387866469109118"><ele>567.0</ele><time>2026-05-02T13:17:29.024Z</time></trkpt><trkpt lat="46.18198035404064" lon="9.387772463973205"><ele>567.0</ele><time>2026-05-02T13:17:30.024Z</time></trkpt><trkpt lat="46.182007926199034" lon="9.387645472592268"><ele>567.0</ele><time>2026-05-02T13:17:31.024Z</time></trkpt><trkpt lat="46.182042063400246" lon="9.387502518938554"><ele>566.6</ele><time>2026-05-02T13:17:32.024Z</time></trkpt><trkpt lat="46.18209422491955" lon="9.387392188854756"><ele>566.2</ele><time>2026-05-02T13:17:33.024Z</time></trkpt><trkpt lat="46.18212105643433" lon="9.387277329846741"><ele>565.8</ele><time>2026-05-02T13:17:34.024Z</time></trkpt><trkpt lat="46.18213756394046" lon="9.387154280248145"><ele>565.4</ele><time>2026-05-02T13:17:35.024Z</time></trkpt><trkpt lat="46.18211884552423" lon="9.387018172452745"><ele>565.0</ele><time>2026-05-02T13:17:36.025Z</time></trkpt><trkpt lat="46.18201010062767" lon="9.386932547228108"><ele>565.0</ele><time>2026-05-02T13:17:37.025Z</time></trkpt><trkpt lat="46.181922710192104" lon="9.386893660101158"><ele>565.0</ele><time>2026-05-02T13:17:38.025Z</time></trkpt><trkpt lat="46.181832299334545" lon="9.386834387643471"><ele>565.0</ele><time>2026-05-02T13:17:40.025Z</time></trkpt><trkpt lat="46.18181984928696" lon="9.38674192299854"><ele>565.0</ele><time>2026-05-02T13:17:42.025Z</time></trkpt><trkpt lat="46.181840075999425" lon="9.38659999976101"><ele>565.0</ele><time>2026-05-02T13:17:44.025Z</time></trkpt><trkpt lat="46.18188736417092" lon="9.386534387241595"><ele>565.0</ele><time>2026-05-02T13:17:45.025Z</time></trkpt><trkpt lat="46.18194550216863" lon="9.386450619235806"><ele>565.0</ele><time>2026-05-02T13:17:46.025Z</time></trkpt><trkpt lat="46.18199316541893" lon="9.386372843825814"><ele>565.0</ele><time>2026-05-02T13:17:47.025Z</time></trkpt><trkpt lat="46.18203107935183" lon="9.386298550353096"><ele>565.0</ele><time>2026-05-02T13:17:48.025Z</time></trkpt><trkpt lat="46.182097087107934" lon="9.386160342456876"><ele>565.0</ele><time>2026-05-02T13:17:50.025Z</time></trkpt><trkpt lat="46.18210345159089" lon="9.386017245462368"><ele>565.0</ele><time>2026-05-02T13:17:51.025Z</time></trkpt><trkpt lat="46.18205023812462" lon="9.385868797191513"><ele>564.6666666666667</ele><time>2026-05-02T13:17:52.025Z</time></trkpt><trkpt lat="46.181999326531574" lon="9.385757694331891"><ele>564.3333333333334</ele><time>2026-05-02T13:17:53.025Z</time></trkpt><trkpt lat="46.181956366764474" lon="9.38568277032942"><ele>564.0</ele><time>2026-05-02T13:17:54.025Z</time></trkpt><trkpt lat="46.181912698269926" lon="9.385602188715689"><ele>563.6666666666666</ele><time>2026-05-02T13:17:55.025Z</time></trkpt><trkpt lat="46.18186911815307" lon="9.385456587932909"><ele>563.3333333333333</ele><time>2026-05-02T13:17:57.025Z</time></trkpt><trkpt lat="46.181854131482254" lon="9.385362924207364"><ele>563.0</ele><time>2026-05-02T13:17:58.025Z</time></trkpt><trkpt lat="46.18183661771812" lon="9.385248005328323"><ele>563.0</ele><time>2026-05-02T13:17:59.025Z</time></trkpt><trkpt lat="46.18181871186267" lon="9.385117430286869"><ele>563.0</ele><time>2026-05-02T13:18:00.025Z</time></trkpt><trkpt lat="46.181799571107184" lon="9.384971480246424"><ele>563.0</ele><time>2026-05-02T13:18:01.025Z</time></trkpt><trkpt lat="46.18177845827189" lon="9.38482495891667"><ele>563.0</ele><time>2026-05-02T13:18:02.025Z</time></trkpt><trkpt lat="46.181742691286004" lon="9.384692740598842"><ele>563.0</ele><time>2026-05-02T13:18:03.025Z</time></trkpt><trkpt lat="46.181733115051976" lon="9.384557278079606"><ele>562.1999999999999</ele><time>2026-05-02T13:18:04.025Z</time></trkpt><trkpt lat="46.181713508926734" lon="9.384441978936396"><ele>561.4</ele><time>2026-05-02T13:18:05.025Z</time></trkpt><trkpt lat="46.181690311194" lon="9.384280847366348"><ele>560.5999999999999</ele><time>2026-05-02T13:18:07.025Z</time></trkpt><trkpt lat="46.18171749414428" lon="9.384152432307953"><ele>559.8</ele><time>2026-05-02T13:18:09.025Z</time></trkpt><trkpt lat="46.181701417801904" lon="9.38402688993513"><ele>559.0</ele><time>2026-05-02T13:18:12.025Z</time></trkpt><trkpt lat="46.181605156058374" lon="9.384045143746562"><ele>559.0</ele><time>2026-05-02T13:18:15.025Z</time></trkpt><trkpt lat="46.18157612678605" lon="9.384148022565158"><ele>559.0</ele><time>2026-05-02T13:18:16.025Z</time></trkpt><trkpt lat="46.18156595711279" lon="9.38426419392506"><ele>559.0</ele><time>2026-05-02T13:18:17.025Z</time></trkpt><trkpt lat="46.181557357690856" lon="9.38438797622213"><ele>559.0</ele><time>2026-05-02T13:18:18.025Z</time></trkpt><trkpt lat="46.18155505799144" lon="9.38452732179976"><ele>559.0</ele><time>2026-05-02T13:18:19.025Z</time></trkpt><trkpt lat="46.18157066365804" lon="9.384684950862253"><ele>559.8</ele><time>2026-05-02T13:18:20.026Z</time></trkpt><trkpt lat="46.18156933594371" lon="9.384838229583096"><ele>560.5999999999999</ele><time>2026-05-02T13:18:21.026Z</time></trkpt><trkpt lat="46.18155833657229" lon="9.384980395585078"><ele>561.4</ele><time>2026-05-02T13:18:22.026Z</time></trkpt><trkpt lat="46.181559977049986" lon="9.385108024827824"><ele>562.1999999999999</ele><time>2026-05-02T13:18:23.026Z</time></trkpt><trkpt lat="46.18156021669565" lon="9.385226144478906"><ele>563.0</ele><time>2026-05-02T13:18:24.026Z</time></trkpt><trkpt lat="46.18157093836758" lon="9.385334385025253"><ele>563.0</ele><time>2026-05-02T13:18:25.026Z</time></trkpt><trkpt lat="46.1815683123085" lon="9.385437708082353"><ele>563.0</ele><time>2026-05-02T13:18:26.026Z</time></trkpt><trkpt lat="46.18157819593598" lon="9.385534484931492"><ele>563.0</ele><time>2026-05-02T13:18:27.026Z</time></trkpt><trkpt lat="46.18162436724235" lon="9.385696895567493"><ele>563.0</ele><time>2026-05-02T13:18:29.026Z</time></trkpt><trkpt lat="46.18164223517038" lon="9.385835860488546"><ele>563.0</ele><time>2026-05-02T13:18:31.026Z</time></trkpt><trkpt lat="46.18154221290229" lon="9.385937741099776"><ele>555.5</ele><time>2026-05-02T13:18:33.026Z</time></trkpt><trkpt lat="46.18146409049677" lon="9.38596161898625"><ele>548.0</ele><time>2026-05-02T13:18:34.026Z</time></trkpt><trkpt lat="46.1813768219106" lon="9.385988811595645"><ele>540.5</ele><time>2026-05-02T13:18:35.026Z</time></trkpt><trkpt lat="46.18130211448468" lon="9.386026281878587"><ele>533.0</ele><time>2026-05-02T13:18:36.026Z</time></trkpt><trkpt lat="46.181235426698564" lon="9.386055393805647"><ele>525.5</ele><time>2026-05-02T13:18:37.026Z</time></trkpt><trkpt lat="46.18117639515018" lon="9.386096520429206"><ele>518.0</ele><time>2026-05-02T13:18:38.026Z</time></trkpt><trkpt lat="46.18112131834975" lon="9.386151226310472"><ele>518.0</ele><time>2026-05-02T13:18:39.026Z</time></trkpt><trkpt lat="46.18107855623968" lon="9.386224844180518"><ele>518.0</ele><time>2026-05-02T13:18:40.026Z</time></trkpt><trkpt lat="46.18104603581449" lon="9.386310675840098"><ele>518.0</ele><time>2026-05-02T13:18:41.026Z</time></trkpt><trkpt lat="46.18102861213789" lon="9.386414955713128"><ele>518.0</ele><time>2026-05-02T13:18:42.026Z</time></trkpt><trkpt lat="46.18101469405634" lon="9.386534841399534"><ele>518.0</ele><time>2026-05-02T13:18:43.026Z</time></trkpt><trkpt lat="46.180997316193675" lon="9.38666402101447"><ele>518.0</ele><time>2026-05-02T13:18:44.026Z</time></trkpt><trkpt lat="46.18098279765418" lon="9.386787462841562"><ele>518.5</ele><time>2026-05-02T13:18:45.026Z</time></trkpt><trkpt lat="46.18097812441048" lon="9.38689457330697"><ele>519.0</ele><time>2026-05-02T13:18:46.026Z</time></trkpt><trkpt lat="46.18098233335982" lon="9.38698725703287"><ele>519.5</ele><time>2026-05-02T13:18:47.026Z</time></trkpt><trkpt lat="46.18102557940501" lon="9.3871110455044"><ele>520.0</ele><time>2026-05-02T13:18:49.026Z</time></trkpt><trkpt lat="46.181069541069526" lon="9.387210006609982"><ele>520.5</ele><time>2026-05-02T13:18:52.026Z</time></trkpt><trkpt lat="46.181017256970684" lon="9.387261172077638"><ele>521.0</ele><time>2026-05-02T13:18:55.026Z</time></trkpt><trkpt lat="46.18095400880574" lon="9.387128489844788"><ele>521.0</ele><time>2026-05-02T13:18:57.026Z</time></trkpt><trkpt lat="46.18093055205111" lon="9.387040833394337"><ele>521.0</ele><time>2026-05-02T13:18:58.026Z</time></trkpt><trkpt lat="46.180913461867945" lon="9.386943739484787"><ele>521.0</ele><time>2026-05-02T13:18:59.026Z</time></trkpt><trkpt lat="46.18088002161429" lon="9.3868484630488"><ele>521.0</ele><time>2026-05-02T13:19:00.026Z</time></trkpt><trkpt lat="46.180864064311635" lon="9.386751202503449"><ele>521.0</ele><time>2026-05-02T13:19:01.026Z</time></trkpt><trkpt lat="46.18084894322313" lon="9.386657842689784"><ele>521.0</ele><time>2026-05-02T13:19:02.026Z</time></trkpt><trkpt lat="46.1808164791144" lon="9.386486421770732"><ele>520.4</ele><time>2026-05-02T13:19:04.027Z</time></trkpt><trkpt lat="46.180775217805234" lon="9.386316345710886"><ele>519.8</ele><time>2026-05-02T13:19:06.027Z</time></trkpt><trkpt lat="46.18076732461415" lon="9.386216957076229"><ele>519.1999999999999</ele><time>2026-05-02T13:19:07.027Z</time></trkpt><trkpt lat="46.18076219560589" lon="9.386103071095608"><ele>518.6</ele><time>2026-05-02T13:19:08.027Z</time></trkpt><trkpt lat="46.18076549986716" lon="9.385999264780743"><ele>518.0</ele><time>2026-05-02T13:19:09.027Z</time></trkpt><trkpt lat="46.180810929856285" lon="9.385843575213245"><ele>518.0</ele><time>2026-05-02T13:19:11.027Z</time></trkpt><trkpt lat="46.180860228435876" lon="9.3856872301678"><ele>518.0</ele><time>2026-05-02T13:19:13.027Z</time></trkpt><trkpt lat="46.18090944886628" lon="9.38560478205334"><ele>518.0</ele><time>2026-05-02T13:19:14.027Z</time></trkpt><trkpt lat="46.180957466908644" lon="9.385520187047806"><ele>518.0</ele><time>2026-05-02T13:19:15.027Z</time></trkpt><trkpt lat="46.181010822906714" lon="9.385456622199067"><ele>518.0</ele><time>2026-05-02T13:19:16.027Z</time></trkpt><trkpt lat="46.181074593126134" lon="9.385303158621278"><ele>517.2857142857143</ele><time>2026-05-02T13:19:18.027Z</time></trkpt><trkpt lat="46.18107325225242" lon="9.385205397939545"><ele>516.5714285714286</ele><time>2026-05-02T13:19:19.027Z</time></trkpt><trkpt lat="46.181046747712365" lon="9.38510581959105"><ele>515.8571428571429</ele><time>2026-05-02T13:19:20.027Z</time></trkpt><trkpt lat="46.18102725153315" lon="9.385006303768865"><ele>515.1428571428571</ele><time>2026-05-02T13:19:21.027Z</time></trkpt><trkpt lat="46.18101020800389" lon="9.384911094113155"><ele>514.4285714285714</ele><time>2026-05-02T13:19:22.027Z</time></trkpt><trkpt lat="46.180998550281494" lon="9.384806443655727"><ele>513.7142857142858</ele><time>2026-05-02T13:19:23.027Z</time></trkpt><trkpt lat="46.18099488214529" lon="9.384708548871775"><ele>513.0</ele><time>2026-05-02T13:19:24.027Z</time></trkpt><trkpt lat="46.18100565841908" lon="9.384615084869774"><ele>513.0</ele><time>2026-05-02T13:19:25.027Z</time></trkpt><trkpt lat="46.18104543332376" lon="9.38446645270579"><ele>513.0</ele><time>2026-05-02T13:19:27.027Z</time></trkpt><trkpt lat="46.181080936779814" lon="9.384329437819945"><ele>513.0</ele><time>2026-05-02T13:19:29.027Z</time></trkpt><trkpt lat="46.18110629624573" lon="9.384214295709864"><ele>513.0</ele><time>2026-05-02T13:19:31.027Z</time></trkpt><trkpt lat="46.18105560817827" lon="9.384127140342104"><ele>513.0</ele><time>2026-05-02T13:19:33.027Z</time></trkpt><trkpt lat="46.18097200331746" lon="9.38421281222122"><ele>513.0</ele><time>2026-05-02T13:19:36.027Z</time></trkpt><trkpt lat="46.18095139398964" lon="9.38431190979205"><ele>513.0</ele><time>2026-05-02T13:19:37.027Z</time></trkpt><trkpt lat="46.18091303156471" lon="9.38446280277616"><ele>513.0</ele><time>2026-05-02T13:19:39.027Z</time></trkpt><trkpt lat="46.18086171032469" lon="9.384620392106916"><ele>513.0</ele><time>2026-05-02T13:19:41.027Z</time></trkpt><trkpt lat="46.18081980871154" lon="9.38477558368825"><ele>513.0</ele><time>2026-05-02T13:19:43.027Z</time></trkpt><trkpt lat="46.180756170703276" lon="9.384902411312474"><ele>513.0</ele><time>2026-05-02T13:19:45.027Z</time></trkpt><trkpt lat="46.180727264689835" lon="9.385073570968222"><ele>513.0</ele><time>2026-05-02T13:19:47.027Z</time></trkpt><trkpt lat="46.1807108578817" lon="9.38517222506134"><ele>513.0</ele><time>2026-05-02T13:19:48.028Z</time></trkpt><trkpt lat="46.18069594896096" lon="9.385347162308614"><ele>513.0</ele><time>2026-05-02T13:19:50.013Z</time></trkpt><trkpt lat="46.18065558817995" lon="9.385417800656922"><ele>513.0</ele><time>2026-05-02T13:19:51.013Z</time></trkpt><trkpt lat="46.18059561651392" lon="9.385474948194652"><ele>507.5</ele><time>2026-05-02T13:19:52.013Z</time></trkpt><trkpt lat="46.18053508606323" lon="9.385536177540672"><ele>502.0</ele><time>2026-05-02T13:19:53.013Z</time></trkpt><trkpt lat="46.18046323203099" lon="9.385593358360119"><ele>496.5</ele><time>2026-05-02T13:19:54.013Z</time></trkpt><trkpt lat="46.18042681632391" lon="9.38568985752375"><ele>491.0</ele><time>2026-05-02T13:19:55.013Z</time></trkpt><trkpt lat="46.18042511826836" lon="9.385792165916875"><ele>485.5</ele><time>2026-05-02T13:19:56.013Z</time></trkpt><trkpt lat="46.18041213918481" lon="9.385939070613762"><ele>480.0</ele><time>2026-05-02T13:19:58.013Z</time></trkpt><trkpt lat="46.18039063971868" lon="9.386050706500146"><ele>480.0</ele><time>2026-05-02T13:20:00.013Z</time></trkpt><trkpt lat="46.18032366691317" lon="9.386057103180816"><ele>480.0</ele><time>2026-05-02T13:20:04.013Z</time></trkpt><trkpt lat="46.18032379442155" lon="9.385869435496833"><ele>480.0</ele><time>2026-05-02T13:20:06.014Z</time></trkpt><trkpt lat="46.18032036734111" lon="9.385771820093229"><ele>480.0</ele><time>2026-05-02T13:20:07.014Z</time></trkpt><trkpt lat="46.180312126917535" lon="9.385665735165365"><ele>480.0</ele><time>2026-05-02T13:20:08.014Z</time></trkpt><trkpt lat="46.180306083838296" lon="9.385563964432743"><ele>480.0</ele><time>2026-05-02T13:20:09.014Z</time></trkpt><trkpt lat="46.18031265732066" lon="9.385464500567837"><ele>479.6666666666667</ele><time>2026-05-02T13:20:10.014Z</time></trkpt><trkpt lat="46.18033792570719" lon="9.385376199579722"><ele>479.33333333333337</ele><time>2026-05-02T13:20:11.014Z</time></trkpt><trkpt lat="46.180404326815705" lon="9.385239515571529"><ele>479.0</ele><time>2026-05-02T13:20:13.014Z</time></trkpt><trkpt lat="46.18039998512768" lon="9.385139098102819"><ele>478.6666666666667</ele><time>2026-05-02T13:20:14.014Z</time></trkpt><trkpt lat="46.18036801073783" lon="9.385043969217731"><ele>478.33333333333337</ele><time>2026-05-02T13:20:15.014Z</time></trkpt><trkpt lat="46.1803216569999" lon="9.384944919247445"><ele>478.0</ele><time>2026-05-02T13:20:16.014Z</time></trkpt><trkpt lat="46.180283064822845" lon="9.384864638442043"><ele>478.0</ele><time>2026-05-02T13:20:17.014Z</time></trkpt><trkpt lat="46.18024290670979" lon="9.384778537163573"><ele>477.99999999999994</ele><time>2026-05-02T13:20:18.014Z</time></trkpt><trkpt lat="46.18022233904103" lon="9.384686058330253"><ele>477.99999999999994</ele><time>2026-05-02T13:20:19.014Z</time></trkpt><trkpt lat="46.18020793242924" lon="9.384524019110263"><ele>478.0</ele><time>2026-05-02T13:20:21.014Z</time></trkpt><trkpt lat="46.18022147862396" lon="9.384367751772752"><ele>478.0</ele><time>2026-05-02T13:20:23.014Z</time></trkpt><trkpt lat="46.18018592294218" lon="9.384229765872828"><ele>477.79999999999995</ele><time>2026-05-02T13:20:25.014Z</time></trkpt><trkpt lat="46.18015525820771" lon="9.384118778739069"><ele>477.59999999999997</ele><time>2026-05-02T13:20:27.014Z</time></trkpt><trkpt lat="46.18019793319569" lon="9.384011974001135"><ele>477.40000000000003</ele><time>2026-05-02T13:20:29.014Z</time></trkpt><trkpt lat="46.18031353403153" lon="9.383988721876792"><ele>477.20000000000005</ele><time>2026-05-02T13:20:31.014Z</time></trkpt><trkpt lat="46.18037844636837" lon="9.383982121863218"><ele>477.0</ele><time>2026-05-02T13:20:32.014Z</time></trkpt><trkpt lat="46.18049470601395" lon="9.383954021336203"><ele>477.0</ele><time>2026-05-02T13:20:34.014Z</time></trkpt><trkpt lat="46.18059024469126" lon="9.38389686002199"><ele>477.0</ele><time>2026-05-02T13:20:36.011Z</time></trkpt><trkpt lat="46.18061725678513" lon="9.383802888746514"><ele>477.0</ele><time>2026-05-02T13:20:37.011Z</time></trkpt><trkpt lat="46.180616021499354" lon="9.383698603341216"><ele>477.0</ele><time>2026-05-02T13:20:38.011Z</time></trkpt><trkpt lat="46.1805674899616" lon="9.383583118771714"><ele>477.0</ele><time>2026-05-02T13:20:39.011Z</time></trkpt><trkpt lat="46.180463141853195" lon="9.383533669208154"><ele>477.0</ele><time>2026-05-02T13:20:40.01Z</time></trkpt><trkpt lat="46.180375011761505" lon="9.3834993969622"><ele>479.20000000000005</ele><time>2026-05-02T13:20:41.01Z</time></trkpt><trkpt lat="46.18027123304594" lon="9.383466948923273"><ele>481.40000000000003</ele><time>2026-05-02T13:20:42.011Z</time></trkpt><trkpt lat="46.18017489795478" lon="9.38346023809995"><ele>483.59999999999997</ele><time>2026-05-02T13:20:43.011Z</time></trkpt><trkpt lat="46.180091375160785" lon="9.383430612026961"><ele>485.79999999999995</ele><time>2026-05-02T13:20:44.011Z</time></trkpt><trkpt lat="46.180011603150355" lon="9.383405376175723"><ele>488.0</ele><time>2026-05-02T13:20:45.011Z</time></trkpt><trkpt lat="46.17992999193374" lon="9.383401368292201"><ele>487.99999999999994</ele><time>2026-05-02T13:20:46.011Z</time></trkpt><trkpt lat="46.17985272590101" lon="9.3833779890336"><ele>488.0</ele><time>2026-05-02T13:20:47.011Z</time></trkpt><trkpt lat="46.17977969374081" lon="9.383361504455795"><ele>488.0</ele><time>2026-05-02T13:20:48.011Z</time></trkpt><trkpt lat="46.17971100500107" lon="9.383330956301743"><ele>488.0</ele><time>2026-05-02T13:20:49.011Z</time></trkpt><trkpt lat="46.17963965667317" lon="9.383282293104953"><ele>487.99999999999994</ele><time>2026-05-02T13:20:50.011Z</time></trkpt><trkpt lat="46.17958175158465" lon="9.38319745387254"><ele>488.0</ele><time>2026-05-02T13:20:51.011Z</time></trkpt><trkpt lat="46.17952264550042" lon="9.383129747684869"><ele>481.79999999999995</ele><time>2026-05-02T13:20:52.011Z</time></trkpt><trkpt lat="46.17947299923802" lon="9.38305813800545"><ele>475.59999999999997</ele><time>2026-05-02T13:20:53.011Z</time></trkpt><trkpt lat="46.17941589080893" lon="9.382914097740327"><ele>469.40000000000003</ele><time>2026-05-02T13:20:55.011Z</time></trkpt><trkpt lat="46.179401121364954" lon="9.382779798748691"><ele>463.20000000000005</ele><time>2026-05-02T13:20:57.011Z</time></trkpt><trkpt lat="46.17945162307767" lon="9.382634406448288"><ele>457.0</ele><time>2026-05-02T13:20:59.011Z</time></trkpt><trkpt lat="46.17952070744458" lon="9.382542009591734"><ele>456.6</ele><time>2026-05-02T13:21:01.011Z</time></trkpt><trkpt lat="46.179589086611216" lon="9.382466686751634"><ele>456.20000000000005</ele><time>2026-05-02T13:21:03.011Z</time></trkpt><trkpt lat="46.179690980764974" lon="9.382469682543206"><ele>455.8</ele><time>2026-05-02T13:21:05.011Z</time></trkpt><trkpt lat="46.179809769612426" lon="9.382460136322273"><ele>455.4</ele><time>2026-05-02T13:21:07.011Z</time></trkpt><trkpt lat="46.17988068215678" lon="9.382407514142908"><ele>455.0</ele><time>2026-05-02T13:21:08.011Z</time></trkpt><trkpt lat="46.17992240858301" lon="9.382311016199447"><ele>459.16666666666663</ele><time>2026-05-02T13:21:09.011Z</time></trkpt><trkpt lat="46.179929742228964" lon="9.382190605775811"><ele>463.3333333333333</ele><time>2026-05-02T13:21:10.011Z</time></trkpt><trkpt lat="46.179898524146395" lon="9.382101248350098"><ele>467.5</ele><time>2026-05-02T13:21:11.011Z</time></trkpt><trkpt lat="46.17990200454249" lon="9.38198170033263"><ele>471.66666666666663</ele><time>2026-05-02T13:21:13.011Z</time></trkpt><trkpt lat="46.17994796533818" lon="9.38190578781138"><ele>475.8333333333333</ele><time>2026-05-02T13:21:15.012Z</time></trkpt><trkpt lat="46.18000019605276" lon="9.381834599959465"><ele>480.0</ele><time>2026-05-02T13:21:17.012Z</time></trkpt><trkpt lat="46.180049378328135" lon="9.381751747892652"><ele>480.0</ele><time>2026-05-02T13:21:18.012Z</time></trkpt><trkpt lat="46.179974599388125" lon="9.38156618551166"><ele>480.0</ele><time>2026-05-02T13:21:20.012Z</time></trkpt><trkpt lat="46.17985548080359" lon="9.381485720100773"><ele>480.0</ele><time>2026-05-02T13:21:22.012Z</time></trkpt><trkpt lat="46.1797727417888" lon="9.381452273529819"><ele>480.0</ele><time>2026-05-02T13:21:23.012Z</time></trkpt><trkpt lat="46.17967009167134" lon="9.381433840669148"><ele>477.8333333333333</ele><time>2026-05-02T13:21:24.012Z</time></trkpt><trkpt lat="46.1796003151984" lon="9.381429708110627"><ele>475.66666666666663</ele><time>2026-05-02T13:21:25.012Z</time></trkpt><trkpt lat="46.17952806348723" lon="9.381385588048433"><ele>473.5</ele><time>2026-05-02T13:21:27.012Z</time></trkpt><trkpt lat="46.17943033006732" lon="9.38128811441397"><ele>471.3333333333333</ele><time>2026-05-02T13:21:29.012Z</time></trkpt><trkpt lat="46.179362141697425" lon="9.381216678959143"><ele>469.16666666666663</ele><time>2026-05-02T13:21:30.012Z</time></trkpt><trkpt lat="46.17928756850117" lon="9.38114696088507"><ele>467.0</ele><time>2026-05-02T13:21:31.012Z</time></trkpt><trkpt lat="46.179215961843205" lon="9.381092081013758"><ele>466.99999999999994</ele><time>2026-05-02T13:21:32.012Z</time></trkpt><trkpt lat="46.179158812838466" lon="9.381053854855042"><ele>467.0</ele><time>2026-05-02T13:21:33.012Z</time></trkpt><trkpt lat="46.17909836238717" lon="9.381017539473413"><ele>466.99999999999994</ele><time>2026-05-02T13:21:34.012Z</time></trkpt><trkpt lat="46.17903559066565" lon="9.380984649296726"><ele>466.99999999999994</ele><time>2026-05-02T13:21:35.012Z</time></trkpt><trkpt lat="46.178972672712796" lon="9.380951840241561"><ele>467.0</ele><time>2026-05-02T13:21:36.012Z</time></trkpt><trkpt lat="46.17890620478548" lon="9.380912675763009"><ele>466.99999999999994</ele><time>2026-05-02T13:21:37.012Z</time></trkpt><trkpt lat="46.178833310031905" lon="9.380859827669205"><ele>466.99999999999994</ele><time>2026-05-02T13:21:38.012Z</time></trkpt><trkpt lat="46.17877237419532" lon="9.38080863785312"><ele>465.49999999999994</ele><time>2026-05-02T13:21:39.012Z</time></trkpt><trkpt lat="46.178711416171986" lon="9.380753471366697"><ele>464.0</ele><time>2026-05-02T13:21:40.012Z</time></trkpt><trkpt lat="46.17864770237725" lon="9.380690548006044"><ele>462.5</ele><time>2026-05-02T13:21:41.012Z</time></trkpt><trkpt lat="46.178592874177355" lon="9.380612957246232"><ele>461.0</ele><time>2026-05-02T13:21:42.012Z</time></trkpt><trkpt lat="46.1785359073829" lon="9.380524007254298"><ele>459.49999999999994</ele><time>2026-05-02T13:21:43.012Z</time></trkpt><trkpt lat="46.17848029465094" lon="9.380443639932382"><ele>458.0</ele><time>2026-05-02T13:21:44.012Z</time></trkpt><trkpt lat="46.17842425184759" lon="9.380363671746"><ele>458.0</ele><time>2026-05-02T13:21:45.012Z</time></trkpt><trkpt lat="46.17837444164702" lon="9.38029373411314"><ele>458.0</ele><time>2026-05-02T13:21:46.012Z</time></trkpt><trkpt lat="46.17831517345702" lon="9.380225277828998"><ele>458.0</ele><time>2026-05-02T13:21:47.012Z</time></trkpt><trkpt lat="46.17825430066958" lon="9.380177336166032"><ele>458.0</ele><time>2026-05-02T13:21:48.012Z</time></trkpt><trkpt lat="46.178188918368875" lon="9.380140449413643"><ele>458.0</ele><time>2026-05-02T13:21:49.012Z</time></trkpt><trkpt lat="46.17811933367014" lon="9.380105719575111"><ele>458.0</ele><time>2026-05-02T13:21:50.012Z</time></trkpt><trkpt lat="46.17805343757732" lon="9.380076546803767"><ele>458.0</ele><time>2026-05-02T13:21:51.012Z</time></trkpt><trkpt lat="46.177964459427784" lon="9.38003436684437"><ele>451.2</ele><time>2026-05-02T13:21:53.012Z</time></trkpt><trkpt lat="46.17791309495096" lon="9.379943391166014"><ele>444.4</ele><time>2026-05-02T13:22:01.013Z</time></trkpt><trkpt lat="46.177853575604615" lon="9.37984875447017"><ele>437.59999999999997</ele><time>2026-05-02T13:22:03.013Z</time></trkpt><trkpt lat="46.177772360850724" lon="9.379726450025291"><ele>430.79999999999995</ele><time>2026-05-02T13:22:05.013Z</time></trkpt><trkpt lat="46.177740059899364" lon="9.379560948443496"><ele>424.0</ele><time>2026-05-02T13:22:07.013Z</time></trkpt><trkpt lat="46.17773487378809" lon="9.379458846386546"><ele>424.0</ele><time>2026-05-02T13:22:08.013Z</time></trkpt><trkpt lat="46.17773570081049" lon="9.379350494287436"><ele>424.0</ele><time>2026-05-02T13:22:09.013Z</time></trkpt><trkpt lat="46.17772750066737" lon="9.379241137643536"><ele>424.0</ele><time>2026-05-02T13:22:10.013Z</time></trkpt><trkpt lat="46.17771926337534" lon="9.379137361546556"><ele>424.0</ele><time>2026-05-02T13:22:11.013Z</time></trkpt><trkpt lat="46.17770544714028" lon="9.379026372076334"><ele>424.0</ele><time>2026-05-02T13:22:12.013Z</time></trkpt><trkpt lat="46.17769117896028" lon="9.37892398538893"><ele>424.0</ele><time>2026-05-02T13:22:13.013Z</time></trkpt><trkpt lat="46.17768273834187" lon="9.378822014995574"><ele>424.0</ele><time>2026-05-02T13:22:14.013Z</time></trkpt><trkpt lat="46.177644569628704" lon="9.378731358547656"><ele>425.1666666666667</ele><time>2026-05-02T13:22:15.013Z</time></trkpt><trkpt lat="46.177586436706264" lon="9.378641951175345"><ele>426.33333333333337</ele><time>2026-05-02T13:22:16.013Z</time></trkpt><trkpt lat="46.17752888842271" lon="9.378559654572971"><ele>427.5</ele><time>2026-05-02T13:22:17.013Z</time></trkpt><trkpt lat="46.17748937877137" lon="9.378460944938473"><ele>428.66666666666663</ele><time>2026-05-02T13:22:18.013Z</time></trkpt><trkpt lat="46.1774607420815" lon="9.378357684494466"><ele>429.8333333333333</ele><time>2026-05-02T13:22:19.013Z</time></trkpt><trkpt lat="46.17743989797327" lon="9.378250707457404"><ele>431.0</ele><time>2026-05-02T13:22:20.013Z</time></trkpt><trkpt lat="46.17743467961939" lon="9.378140962005945"><ele>430.99999999999994</ele><time>2026-05-02T13:22:21.013Z</time></trkpt><trkpt lat="46.17744686957165" lon="9.37802110170578"><ele>431.0</ele><time>2026-05-02T13:22:22.013Z</time></trkpt><trkpt lat="46.17742397733687" lon="9.37790174859611"><ele>431.0</ele><time>2026-05-02T13:22:23.013Z</time></trkpt><trkpt lat="46.17737343300276" lon="9.377793846234988"><ele>431.0</ele><time>2026-05-02T13:22:24.013Z</time></trkpt><trkpt lat="46.177342809590016" lon="9.377676363302314"><ele>430.99999999999994</ele><time>2026-05-02T13:22:25.013Z</time></trkpt><trkpt lat="46.17733173590231" lon="9.37754615932394"><ele>431.0</ele><time>2026-05-02T13:22:26.013Z</time></trkpt><trkpt lat="46.17732311431912" lon="9.377416264544173"><ele>431.66666666666663</ele><time>2026-05-02T13:22:27.013Z</time></trkpt><trkpt lat="46.17731273475913" lon="9.37729533918035"><ele>432.3333333333333</ele><time>2026-05-02T13:22:28.013Z</time></trkpt><trkpt lat="46.17730752084527" lon="9.377175439027392"><ele>433.0</ele><time>2026-05-02T13:22:29.013Z</time></trkpt><trkpt lat="46.17731888898002" lon="9.377058540830056"><ele>433.66666666666663</ele><time>2026-05-02T13:22:30.013Z</time></trkpt><trkpt lat="46.177341704421714" lon="9.376946499075002"><ele>434.3333333333333</ele><time>2026-05-02T13:22:31.013Z</time></trkpt><trkpt lat="46.177357373063884" lon="9.376845929028516"><ele>435.0</ele><time>2026-05-02T13:22:32.013Z</time></trkpt><trkpt lat="46.17736400626893" lon="9.37674875426842"><ele>430.0</ele><time>2026-05-02T13:22:33.013Z</time></trkpt><trkpt lat="46.17734451827572" lon="9.37665593258599"><ele>425.0</ele><time>2026-05-02T13:22:34.013Z</time></trkpt><trkpt lat="46.177310233437986" lon="9.376567758588736"><ele>420.0</ele><time>2026-05-02T13:22:35.013Z</time></trkpt><trkpt lat="46.17722792902604" lon="9.376537616540627"><ele>415.0</ele><time>2026-05-02T13:22:36.013Z</time></trkpt><trkpt lat="46.17715291931257" lon="9.376460168145394"><ele>410.0</ele><time>2026-05-02T13:22:37.013Z</time></trkpt><trkpt lat="46.17708358261339" lon="9.376380755549004"><ele>405.0</ele><time>2026-05-02T13:22:38.013Z</time></trkpt><trkpt lat="46.177018587096796" lon="9.376290565557351"><ele>405.0</ele><time>2026-05-02T13:22:39.013Z</time></trkpt><trkpt lat="46.17695092557068" lon="9.376204601787231"><ele>405.0</ele><time>2026-05-02T13:22:40.013Z</time></trkpt><trkpt lat="46.17688308666776" lon="9.37612618425837"><ele>405.0</ele><time>2026-05-02T13:22:41.013Z</time></trkpt><trkpt lat="46.176835455232904" lon="9.376032909780095"><ele>405.0</ele><time>2026-05-02T13:22:42.01Z</time></trkpt><trkpt lat="46.176782934794225" lon="9.375963896442167"><ele>405.0</ele><time>2026-05-02T13:22:43.01Z</time></trkpt><trkpt lat="46.176737463772916" lon="9.375886312352655"><ele>405.0</ele><time>2026-05-02T13:22:44.01Z</time></trkpt><trkpt lat="46.17670005652174" lon="9.375801271804951"><ele>404.99999999999994</ele><time>2026-05-02T13:22:45.011Z</time></trkpt><trkpt lat="46.17667520408193" lon="9.37570931970239"><ele>405.0</ele><time>2026-05-02T13:22:46.011Z</time></trkpt><trkpt lat="46.17665112173435" lon="9.375619348129456"><ele>405.0</ele><time>2026-05-02T13:22:47.011Z</time></trkpt><trkpt lat="46.17662317839875" lon="9.375528687942532"><ele>405.0</ele><time>2026-05-02T13:22:48.011Z</time></trkpt><trkpt lat="46.17660146621672" lon="9.375438698800728"><ele>405.0</ele><time>2026-05-02T13:22:49.011Z</time></trkpt><trkpt lat="46.17658169902755" lon="9.375345535698534"><ele>404.99999999999994</ele><time>2026-05-02T13:22:50.011Z</time></trkpt><trkpt lat="46.176569322571915" lon="9.37525452063249"><ele>405.0</ele><time>2026-05-02T13:22:51.01Z</time></trkpt><trkpt lat="46.17656193369429" lon="9.375157422002397"><ele>406.3333333333333</ele><time>2026-05-02T13:22:52.011Z</time></trkpt><trkpt lat="46.17655459056635" lon="9.375064205714489"><ele>407.66666666666663</ele><time>2026-05-02T13:22:53.011Z</time></trkpt><trkpt lat="46.1765534594633" lon="9.374972283885867"><ele>409.0</ele><time>2026-05-02T13:22:54.01Z</time></trkpt><trkpt lat="46.176546175337336" lon="9.374878035589994"><ele>410.3333333333333</ele><time>2026-05-02T13:22:55.011Z</time></trkpt><trkpt lat="46.17654170164552" lon="9.374782186488046"><ele>411.66666666666663</ele><time>2026-05-02T13:22:56.011Z</time></trkpt><trkpt lat="46.17653685469544" lon="9.374690272477299"><ele>413.0</ele><time>2026-05-02T13:22:57.011Z</time></trkpt><trkpt lat="46.17649866757388" lon="9.374513543100267"><ele>407.49999999999994</ele><time>2026-05-02T13:22:59.011Z</time></trkpt><trkpt lat="46.176477322141324" lon="9.37442304084893"><ele>402.0</ele><time>2026-05-02T13:23:00.011Z</time></trkpt><trkpt lat="46.17644240251439" lon="9.374336395667966"><ele>396.5</ele><time>2026-05-02T13:23:01.011Z</time></trkpt><trkpt lat="46.17640910548123" lon="9.374241656714792"><ele>391.0</ele><time>2026-05-02T13:23:02.011Z</time></trkpt><trkpt lat="46.17637353099869" lon="9.374141195978929"><ele>385.5</ele><time>2026-05-02T13:23:03.011Z</time></trkpt><trkpt lat="46.176346305028076" lon="9.374036746723009"><ele>380.0</ele><time>2026-05-02T13:23:04.011Z</time></trkpt><trkpt lat="46.17631426191854" lon="9.373922421941254"><ele>380.83333333333337</ele><time>2026-05-02T13:23:05.011Z</time></trkpt><trkpt lat="46.17628210984502" lon="9.373810239250195"><ele>381.6666666666667</ele><time>2026-05-02T13:23:06.011Z</time></trkpt><trkpt lat="46.17625495155222" lon="9.373704501374403"><ele>382.5</ele><time>2026-05-02T13:23:07.011Z</time></trkpt><trkpt lat="46.17623808792427" lon="9.373602262751781"><ele>383.33333333333337</ele><time>2026-05-02T13:23:08.011Z</time></trkpt><trkpt lat="46.17620859557137" lon="9.373501011504253"><ele>384.1666666666667</ele><time>2026-05-02T13:23:09.011Z</time></trkpt><trkpt lat="46.17617436855678" lon="9.373401230415299"><ele>385.0</ele><time>2026-05-02T13:23:10.011Z</time></trkpt><trkpt lat="46.17613422406429" lon="9.373305109108854"><ele>385.00000000000006</ele><time>2026-05-02T13:23:11.011Z</time></trkpt><trkpt lat="46.17608409868555" lon="9.373219769586537"><ele>385.0</ele><time>2026-05-02T13:23:12.011Z</time></trkpt><trkpt lat="46.17603249215319" lon="9.373131812629108"><ele>385.0</ele><time>2026-05-02T13:23:13.011Z</time></trkpt><trkpt lat="46.17599583021171" lon="9.37303955686247"><ele>385.0</ele><time>2026-05-02T13:23:14.011Z</time></trkpt><trkpt lat="46.17597234916596" lon="9.372939154722843"><ele>385.00000000000006</ele><time>2026-05-02T13:23:15.011Z</time></trkpt><trkpt lat="46.175970515081154" lon="9.372831833246769"><ele>385.0</ele><time>2026-05-02T13:23:16.011Z</time></trkpt><trkpt lat="46.175960055484964" lon="9.372728341110303"><ele>385.0</ele><time>2026-05-02T13:23:17.011Z</time></trkpt><trkpt lat="46.17594210538957" lon="9.372625809638352"><ele>385.0</ele><time>2026-05-02T13:23:18.011Z</time></trkpt><trkpt lat="46.175915334899834" lon="9.372527268015782"><ele>385.0</ele><time>2026-05-02T13:23:19.011Z</time></trkpt><trkpt lat="46.175877964360204" lon="9.372443348826145"><ele>385.0</ele><time>2026-05-02T13:23:20.011Z</time></trkpt><trkpt lat="46.17584554834506" lon="9.372356875040584"><ele>385.0</ele><time>2026-05-02T13:23:21.011Z</time></trkpt><trkpt lat="46.17584516399936" lon="9.372257999907683"><ele>385.0</ele><time>2026-05-02T13:23:22.011Z</time></trkpt><trkpt lat="46.17583770974395" lon="9.372150000125483"><ele>385.0</ele><time>2026-05-02T13:23:23.011Z</time></trkpt><trkpt lat="46.17582993863074" lon="9.372021666587464"><ele>385.1666666666667</ele><time>2026-05-02T13:23:24.011Z</time></trkpt><trkpt lat="46.1758251613176" lon="9.371899026265258"><ele>385.33333333333337</ele><time>2026-05-02T13:23:25.011Z</time></trkpt><trkpt lat="46.17582844246077" lon="9.371790593457803"><ele>385.5</ele><time>2026-05-02T13:23:26.011Z</time></trkpt><trkpt lat="46.17582632183308" lon="9.371678546269324"><ele>385.66666666666663</ele><time>2026-05-02T13:23:27.011Z</time></trkpt><trkpt lat="46.175815963328866" lon="9.371575778421045"><ele>385.8333333333333</ele><time>2026-05-02T13:23:28.011Z</time></trkpt><trkpt lat="46.17578458471701" lon="9.371462149174295"><ele>386.0</ele><time>2026-05-02T13:23:29.011Z</time></trkpt><trkpt lat="46.17573775422873" lon="9.371346512347367"><ele>379.0</ele><time>2026-05-02T13:23:30.011Z</time></trkpt><trkpt lat="46.17568549198421" lon="9.37122633900843"><ele>372.0</ele><time>2026-05-02T13:23:31.011Z</time></trkpt><trkpt lat="46.17562748430071" lon="9.37112534109575"><ele>365.0</ele><time>2026-05-02T13:23:32.011Z</time></trkpt><trkpt lat="46.175613870549064" lon="9.37103480487811"><ele>358.0</ele><time>2026-05-02T13:23:33.011Z</time></trkpt><trkpt lat="46.17556315603666" lon="9.370914105159352"><ele>351.0</ele><time>2026-05-02T13:23:35.012Z</time></trkpt><trkpt lat="46.17551492398648" lon="9.370762178131445"><ele>351.00000000000006</ele><time>2026-05-02T13:23:37.012Z</time></trkpt><trkpt lat="46.17549040951393" lon="9.370677263142072"><ele>351.0</ele><time>2026-05-02T13:23:38.012Z</time></trkpt><trkpt lat="46.175468561999665" lon="9.370579632264622"><ele>351.0</ele><time>2026-05-02T13:23:39.012Z</time></trkpt><trkpt lat="46.17544671739281" lon="9.370476764822454"><ele>351.0</ele><time>2026-05-02T13:23:40.012Z</time></trkpt><trkpt lat="46.17542932049203" lon="9.370385294973369"><ele>351.0</ele><time>2026-05-02T13:23:41.012Z</time></trkpt><trkpt lat="46.17540902356017" lon="9.370279003128848"><ele>351.00000000000006</ele><time>2026-05-02T13:23:42.012Z</time></trkpt><trkpt lat="46.175381028096005" lon="9.37017521531098"><ele>351.0</ele><time>2026-05-02T13:23:43.012Z</time></trkpt><trkpt lat="46.175356855456975" lon="9.370073936921889"><ele>352.14285714285717</ele><time>2026-05-02T13:23:44.012Z</time></trkpt><trkpt lat="46.17534445570592" lon="9.369962951381027"><ele>353.2857142857143</ele><time>2026-05-02T13:23:45.012Z</time></trkpt><trkpt lat="46.17532606223924" lon="9.369860261757399"><ele>354.42857142857144</ele><time>2026-05-02T13:23:46.012Z</time></trkpt><trkpt lat="46.17531960494025" lon="9.369763349126767"><ele>355.57142857142856</ele><time>2026-05-02T13:23:47.012Z</time></trkpt><trkpt lat="46.17529564924286" lon="9.369667164260658"><ele>356.7142857142857</ele><time>2026-05-02T13:23:48.012Z</time></trkpt><trkpt lat="46.175273768220855" lon="9.369572789570157"><ele>357.8571428571429</ele><time>2026-05-02T13:23:49.012Z</time></trkpt><trkpt lat="46.17524303177971" lon="9.369480086918275"><ele>359.0</ele><time>2026-05-02T13:23:50.012Z</time></trkpt><trkpt lat="46.17520761180304" lon="9.369385379530849"><ele>360.33333333333337</ele><time>2026-05-02T13:23:51.012Z</time></trkpt><trkpt lat="46.17516862856903" lon="9.369292688232422"><ele>361.6666666666667</ele><time>2026-05-02T13:23:52.012Z</time></trkpt><trkpt lat="46.17514146829684" lon="9.369209917853125"><ele>363.0</ele><time>2026-05-02T13:23:53.012Z</time></trkpt><trkpt lat="46.17508701645321" lon="9.369062408005883"><ele>364.3333333333333</ele><time>2026-05-02T13:23:55.012Z</time></trkpt><trkpt lat="46.175050286861165" lon="9.368921956914688"><ele>365.66666666666663</ele><time>2026-05-02T13:23:57.012Z</time></trkpt><trkpt lat="46.17502550314776" lon="9.368797317126305"><ele>367.0</ele><time>2026-05-02T13:23:59.012Z</time></trkpt><trkpt lat="46.17499759702058" lon="9.368701364688079"><ele>367.0</ele><time>2026-05-02T13:24:01.012Z</time></trkpt><trkpt lat="46.174900666107064" lon="9.368684684489876"><ele>367.0</ele><time>2026-05-02T13:24:04.012Z</time></trkpt><trkpt lat="46.174895260909906" lon="9.368807370900473"><ele>367.0</ele><time>2026-05-02T13:24:06.012Z</time></trkpt><trkpt lat="46.17491916795303" lon="9.368939088868666"><ele>367.0</ele><time>2026-05-02T13:24:08.012Z</time></trkpt><trkpt lat="46.174933141972126" lon="9.369066722061518"><ele>367.0</ele><time>2026-05-02T13:24:10.012Z</time></trkpt><trkpt lat="46.174920151627106" lon="9.36921988523382"><ele>367.0</ele><time>2026-05-02T13:24:12.012Z</time></trkpt><trkpt lat="46.17492460805145" lon="9.369322160452718"><ele>367.0</ele><time>2026-05-02T13:24:13.012Z</time></trkpt><trkpt lat="46.17495530204645" lon="9.369413309810552"><ele>367.0</ele><time>2026-05-02T13:24:14.012Z</time></trkpt><trkpt lat="46.174989370520656" lon="9.369555340659739"><ele>367.0</ele><time>2026-05-02T13:24:16.012Z</time></trkpt><trkpt lat="46.174988401939245" lon="9.369692034266487"><ele>367.0</ele><time>2026-05-02T13:24:18.013Z</time></trkpt><trkpt lat="46.174951643623515" lon="9.369841460630008"><ele>365.66666666666663</ele><time>2026-05-02T13:24:20.013Z</time></trkpt><trkpt lat="46.17491688839236" lon="9.369942790195443"><ele>364.3333333333333</ele><time>2026-05-02T13:24:21.013Z</time></trkpt><trkpt lat="46.17489909028324" lon="9.370055727582649"><ele>363.0</ele><time>2026-05-02T13:24:22.013Z</time></trkpt><trkpt lat="46.1748951315776" lon="9.37017336588555"><ele>361.6666666666667</ele><time>2026-05-02T13:24:23.013Z</time></trkpt><trkpt lat="46.17489890023004" lon="9.370286041264926"><ele>360.33333333333337</ele><time>2026-05-02T13:24:24.013Z</time></trkpt><trkpt lat="46.174906541034154" lon="9.370395191734534"><ele>359.0</ele><time>2026-05-02T13:24:25.013Z</time></trkpt><trkpt lat="46.17492294023083" lon="9.370511004275748"><ele>357.6666666666667</ele><time>2026-05-02T13:24:26.013Z</time></trkpt><trkpt lat="46.17494721646827" lon="9.370611968098414"><ele>356.33333333333337</ele><time>2026-05-02T13:24:27.013Z</time></trkpt><trkpt lat="46.174964151205145" lon="9.370700345896259"><ele>355.0</ele><time>2026-05-02T13:24:28.013Z</time></trkpt><trkpt lat="46.17497238436274" lon="9.370877200847799"><ele>353.6666666666667</ele><time>2026-05-02T13:24:30.013Z</time></trkpt><trkpt lat="46.17496866631445" lon="9.37098052034548"><ele>352.3333333333333</ele><time>2026-05-02T13:24:31.013Z</time></trkpt><trkpt lat="46.17498647900304" lon="9.371094875358454"><ele>351.0</ele><time>2026-05-02T13:24:32.013Z</time></trkpt><trkpt lat="46.175019570537" lon="9.371201535048206"><ele>351.0</ele><time>2026-05-02T13:24:33.013Z</time></trkpt><trkpt lat="46.175060230796824" lon="9.371296260262678"><ele>351.0</ele><time>2026-05-02T13:24:34.013Z</time></trkpt><trkpt lat="46.17511424716948" lon="9.371438624538506"><ele>351.0</ele><time>2026-05-02T13:24:36.013Z</time></trkpt><trkpt lat="46.175130503656156" lon="9.371572184889702"><ele>351.0</ele><time>2026-05-02T13:24:38.013Z</time></trkpt><trkpt lat="46.17511739489046" lon="9.371667498191304"><ele>351.0</ele><time>2026-05-02T13:24:39.013Z</time></trkpt><trkpt lat="46.17506712478945" lon="9.371729918701307"><ele>351.0</ele><time>2026-05-02T13:24:40.013Z</time></trkpt><trkpt lat="46.1750090249326" lon="9.371776578377888"><ele>350.1666666666667</ele><time>2026-05-02T13:24:41.013Z</time></trkpt><trkpt lat="46.174970749607375" lon="9.371851364039907"><ele>349.3333333333333</ele><time>2026-05-02T13:24:42.013Z</time></trkpt><trkpt lat="46.17494702812442" lon="9.371968343350794"><ele>348.5</ele><time>2026-05-02T13:24:43.013Z</time></trkpt><trkpt lat="46.1749455768883" lon="9.37208051207805"><ele>347.66666666666663</ele><time>2026-05-02T13:24:44.013Z</time></trkpt><trkpt lat="46.1749460108808" lon="9.372201451766546"><ele>346.8333333333333</ele><time>2026-05-02T13:24:45.013Z</time></trkpt><trkpt lat="46.174945073597414" lon="9.372315571977715"><ele>346.0</ele><time>2026-05-02T13:24:46.013Z</time></trkpt><trkpt lat="46.17494007363825" lon="9.372429718506698"><ele>346.0</ele><time>2026-05-02T13:24:47.013Z</time></trkpt><trkpt lat="46.174921662078106" lon="9.372551673996753"><ele>346.0</ele><time>2026-05-02T13:24:48.01Z</time></trkpt><trkpt lat="46.174929465886606" lon="9.372666768190644"><ele>346.0</ele><time>2026-05-02T13:24:49.01Z</time></trkpt><trkpt lat="46.17495187871244" lon="9.372779278833331"><ele>346.0</ele><time>2026-05-02T13:24:50.01Z</time></trkpt><trkpt lat="46.174966940411295" lon="9.372879491059104"><ele>346.0</ele><time>2026-05-02T13:24:51.01Z</time></trkpt><trkpt lat="46.17495750699621" lon="9.372988523904871"><ele>346.0</ele><time>2026-05-02T13:24:52.01Z</time></trkpt><trkpt lat="46.17493372166521" lon="9.373104298763383"><ele>345.7142857142857</ele><time>2026-05-02T13:24:53.01Z</time></trkpt><trkpt lat="46.17492239313133" lon="9.373226439038515"><ele>345.42857142857144</ele><time>2026-05-02T13:24:54.01Z</time></trkpt><trkpt lat="46.1749187990753" lon="9.373348226261259"><ele>345.14285714285717</ele><time>2026-05-02T13:24:55.01Z</time></trkpt><trkpt lat="46.174919848288965" lon="9.37345404125039"><ele>344.8571428571429</ele><time>2026-05-02T13:24:56.01Z</time></trkpt><trkpt lat="46.174920866127316" lon="9.373556692416068"><ele>344.57142857142856</ele><time>2026-05-02T13:24:57.01Z</time></trkpt><trkpt lat="46.174920673523594" lon="9.373655732111194"><ele>344.28571428571433</ele><time>2026-05-02T13:24:58.01Z</time></trkpt><trkpt lat="46.17491928129438" lon="9.373748901748003"><ele>344.0</ele><time>2026-05-02T13:24:59.01Z</time></trkpt><trkpt lat="46.17485783941334" lon="9.373901423655921"><ele>338.1666666666667</ele><time>2026-05-02T13:25:01.009Z</time></trkpt><trkpt lat="46.174828428118076" lon="9.374003352140429"><ele>332.33333333333337</ele><time>2026-05-02T13:25:02.009Z</time></trkpt><trkpt lat="46.17481651822658" lon="9.374125281108673"><ele>326.5</ele><time>2026-05-02T13:25:03.009Z</time></trkpt><trkpt lat="46.17481682147592" lon="9.374269812943249"><ele>320.6666666666667</ele><time>2026-05-02T13:25:04.009Z</time></trkpt><trkpt lat="46.174823891912986" lon="9.374407591019915"><ele>314.8333333333333</ele><time>2026-05-02T13:25:05.009Z</time></trkpt><trkpt lat="46.17484417150896" lon="9.374534498240369"><ele>309.0</ele><time>2026-05-02T13:25:06.009Z</time></trkpt><trkpt lat="46.174835106418705" lon="9.374640935919698"><ele>308.5</ele><time>2026-05-02T13:25:07.009Z</time></trkpt><trkpt lat="46.17484272146858" lon="9.374777791958847"><ele>308.0</ele><time>2026-05-02T13:25:09.009Z</time></trkpt><trkpt lat="46.17485041409256" lon="9.374895542145495"><ele>307.5</ele><time>2026-05-02T13:25:11.009Z</time></trkpt><trkpt lat="46.174867765641444" lon="9.375016340576884"><ele>307.0</ele><time>2026-05-02T13:25:13.009Z</time></trkpt><trkpt lat="46.174899408496564" lon="9.375123535261775"><ele>306.5</ele><time>2026-05-02T13:25:15.009Z</time></trkpt><trkpt lat="46.174906106968564" lon="9.37521781002986"><ele>306.0</ele><time>2026-05-02T13:25:17.01Z</time></trkpt><trkpt lat="46.17484478913036" lon="9.375262722951899"><ele>306.0</ele><time>2026-05-02T13:25:19.01Z</time></trkpt><trkpt lat="46.174798166420935" lon="9.375170744935895"><ele>306.0</ele><time>2026-05-02T13:25:21.01Z</time></trkpt><trkpt lat="46.17478483014292" lon="9.374971031360333"><ele>306.0</ele><time>2026-05-02T13:25:23.01Z</time></trkpt><trkpt lat="46.174756884165056" lon="9.374851090158556"><ele>306.0</ele><time>2026-05-02T13:25:24.01Z</time></trkpt><trkpt lat="46.174725699551665" lon="9.374722298286741"><ele>306.0</ele><time>2026-05-02T13:25:25.01Z</time></trkpt><trkpt lat="46.174691446249426" lon="9.374601546268957"><ele>306.6</ele><time>2026-05-02T13:25:26.01Z</time></trkpt><trkpt lat="46.174663512626445" lon="9.374467871362686"><ele>307.20000000000005</ele><time>2026-05-02T13:25:27.01Z</time></trkpt><trkpt lat="46.17463313156314" lon="9.374323183318019"><ele>307.79999999999995</ele><time>2026-05-02T13:25:28.01Z</time></trkpt><trkpt lat="46.17460481349687" lon="9.37417655370913"><ele>308.4</ele><time>2026-05-02T13:25:29.01Z</time></trkpt><trkpt lat="46.17458268850656" lon="9.374033685459576"><ele>309.0</ele><time>2026-05-02T13:25:30.01Z</time></trkpt><trkpt lat="46.17455729178315" lon="9.373899609804921"><ele>307.2</ele><time>2026-05-02T13:25:31.01Z</time></trkpt><trkpt lat="46.174532285893804" lon="9.373768088732787"><ele>305.4</ele><time>2026-05-02T13:25:32.01Z</time></trkpt><trkpt lat="46.17451854121833" lon="9.373626496117634"><ele>303.6</ele><time>2026-05-02T13:25:33.01Z</time></trkpt><trkpt lat="46.17447807382553" lon="9.373515659591384"><ele>301.8</ele><time>2026-05-02T13:25:34.01Z</time></trkpt><trkpt lat="46.17443680478868" lon="9.373403108481382"><ele>300.0</ele><time>2026-05-02T13:25:35.01Z</time></trkpt><trkpt lat="46.17440455862557" lon="9.373273205693845"><ele>300.0</ele><time>2026-05-02T13:25:36.01Z</time></trkpt><trkpt lat="46.17438324284343" lon="9.373129471037124"><ele>300.0</ele><time>2026-05-02T13:25:37.01Z</time></trkpt><trkpt lat="46.1743658471074" lon="9.372979516619614"><ele>300.0</ele><time>2026-05-02T13:25:38.01Z</time></trkpt><trkpt lat="46.174351634890556" lon="9.37282893089598"><ele>300.0</ele><time>2026-05-02T13:25:39.01Z</time></trkpt><trkpt lat="46.17433964702247" lon="9.372686741071808"><ele>300.0</ele><time>2026-05-02T13:25:40.01Z</time></trkpt><trkpt lat="46.174317967377796" lon="9.372544787856768"><ele>300.0</ele><time>2026-05-02T13:25:41.01Z</time></trkpt><trkpt lat="46.17429156272889" lon="9.372399477543622"><ele>300.0</ele><time>2026-05-02T13:25:42.01Z</time></trkpt><trkpt lat="46.1742652487311" lon="9.37226158932481"><ele>300.0</ele><time>2026-05-02T13:25:43.01Z</time></trkpt><trkpt lat="46.17423841373805" lon="9.372126695879256"><ele>300.0</ele><time>2026-05-02T13:25:44.01Z</time></trkpt><trkpt lat="46.174214562577" lon="9.371992259796947"><ele>300.0</ele><time>2026-05-02T13:25:45.01Z</time></trkpt><trkpt lat="46.17420386323442" lon="9.37185704733124"><ele>300.8</ele><time>2026-05-02T13:25:46.01Z</time></trkpt><trkpt lat="46.17420594539187" lon="9.37172667671718"><ele>301.6</ele><time>2026-05-02T13:25:47.01Z</time></trkpt><trkpt lat="46.174206088687995" lon="9.371603904767086"><ele>302.4</ele><time>2026-05-02T13:25:48.01Z</time></trkpt><trkpt lat="46.17420308562648" lon="9.37148172863806"><ele>303.2</ele><time>2026-05-02T13:25:49.01Z</time></trkpt><trkpt lat="46.17418299000986" lon="9.371349174642845"><ele>304.0</ele><time>2026-05-02T13:25:50.01Z</time></trkpt><trkpt lat="46.17415065032162" lon="9.371212070419755"><ele>305.4</ele><time>2026-05-02T13:25:51.01Z</time></trkpt><trkpt lat="46.174112268220355" lon="9.37106634125953"><ele>306.79999999999995</ele><time>2026-05-02T13:25:52.01Z</time></trkpt><trkpt lat="46.17407554460222" lon="9.370928918457246"><ele>308.20000000000005</ele><time>2026-05-02T13:25:53.01Z</time></trkpt><trkpt lat="46.174044893348665" lon="9.37081112728028"><ele>309.6</ele><time>2026-05-02T13:25:54.01Z</time></trkpt><trkpt lat="46.174014639631245" lon="9.370700078956913"><ele>311.0</ele><time>2026-05-02T13:25:55.01Z</time></trkpt><trkpt lat="46.173988216090656" lon="9.370592416499033"><ele>311.5</ele><time>2026-05-02T13:25:56.01Z</time></trkpt><trkpt lat="46.1739874692854" lon="9.370479933490591"><ele>312.0</ele><time>2026-05-02T13:25:57.01Z</time></trkpt><trkpt lat="46.17400906517978" lon="9.370369944857938"><ele>312.5</ele><time>2026-05-02T13:25:58.01Z</time></trkpt><trkpt lat="46.174033561085494" lon="9.37026556895605"><ele>313.0</ele><time>2026-05-02T13:25:59.01Z</time></trkpt><trkpt lat="46.17404568341103" lon="9.370168230721202"><ele>313.5</ele><time>2026-05-02T13:26:00.011Z</time></trkpt><trkpt lat="46.17404088340047" lon="9.370052109463987"><ele>314.0</ele><time>2026-05-02T13:26:01.011Z</time></trkpt><trkpt lat="46.1739809235195" lon="9.369976125314107"><ele>309.1428571428571</ele><time>2026-05-02T13:26:02.011Z</time></trkpt><trkpt lat="46.17393022578842" lon="9.369894241795151"><ele>304.2857142857143</ele><time>2026-05-02T13:26:03.011Z</time></trkpt><trkpt lat="46.17388325565869" lon="9.369802957752585"><ele>299.42857142857144</ele><time>2026-05-02T13:26:04.011Z</time></trkpt><trkpt lat="46.17385666818076" lon="9.369703879471077"><ele>294.57142857142856</ele><time>2026-05-02T13:26:05.011Z</time></trkpt><trkpt lat="46.173853231451126" lon="9.369593075477379"><ele>289.7142857142857</ele><time>2026-05-02T13:26:06.011Z</time></trkpt><trkpt lat="46.1738483100447" lon="9.36949745766774"><ele>284.85714285714283</ele><time>2026-05-02T13:26:07.011Z</time></trkpt><trkpt lat="46.173841130078465" lon="9.369403963151036"><ele>280.0</ele><time>2026-05-02T13:26:08.011Z</time></trkpt><trkpt lat="46.1738185143482" lon="9.369226386338516"><ele>280.0</ele><time>2026-05-02T13:26:10.011Z</time></trkpt><trkpt lat="46.17377821845536" lon="9.369098283115656"><ele>280.0</ele><time>2026-05-02T13:26:12.011Z</time></trkpt><trkpt lat="46.17366490994586" lon="9.369069931535206"><ele>280.0</ele><time>2026-05-02T13:26:14.011Z</time></trkpt><trkpt lat="46.17359967018431" lon="9.369097477792378"><ele>280.0</ele><time>2026-05-02T13:26:15.011Z</time></trkpt><trkpt lat="46.1735104833449" lon="9.369097180994801"><ele>280.0</ele><time>2026-05-02T13:26:17.011Z</time></trkpt><trkpt lat="46.173436427441445" lon="9.368964211214564"><ele>280.0</ele><time>2026-05-02T13:26:19.011Z</time></trkpt><trkpt lat="46.17339166474874" lon="9.36889450336097"><ele>280.0</ele><time>2026-05-02T13:26:20.011Z</time></trkpt><trkpt lat="46.173340524403976" lon="9.368823270998565"><ele>280.0</ele><time>2026-05-02T13:26:21.011Z</time></trkpt><trkpt lat="46.17328236186064" lon="9.368763017336686"><ele>280.0</ele><time>2026-05-02T13:26:22.011Z</time></trkpt><trkpt lat="46.17323124269408" lon="9.36869293832344"><ele>280.0</ele><time>2026-05-02T13:26:23.011Z</time></trkpt><trkpt lat="46.17316499303466" lon="9.368670078400877"><ele>280.0</ele><time>2026-05-02T13:26:24.011Z</time></trkpt><trkpt lat="46.17311005027898" lon="9.368622230440257"><ele>280.0</ele><time>2026-05-02T13:26:25.011Z</time></trkpt><trkpt lat="46.17303305310318" lon="9.368503002095766"><ele>276.8</ele><time>2026-05-02T13:26:27.011Z</time></trkpt><trkpt lat="46.172997143480565" lon="9.368356008627993"><ele>273.6</ele><time>2026-05-02T13:26:29.011Z</time></trkpt><trkpt lat="46.17297635509875" lon="9.368220788066559"><ele>270.4</ele><time>2026-05-02T13:26:31.011Z</time></trkpt><trkpt lat="46.172965343323234" lon="9.368097765101691"><ele>267.2</ele><time>2026-05-02T13:26:33.011Z</time></trkpt><trkpt lat="46.172955508675216" lon="9.36800446785594"><ele>264.0</ele><time>2026-05-02T13:26:35.011Z</time></trkpt><trkpt lat="46.172854651249686" lon="9.368010326196922"><ele>263.3333333333333</ele><time>2026-05-02T13:26:38.011Z</time></trkpt><trkpt lat="46.172867268160566" lon="9.36811421536038"><ele>262.6666666666667</ele><time>2026-05-02T13:26:39.011Z</time></trkpt><trkpt lat="46.17288398097659" lon="9.368276064667866"><ele>262.0</ele><time>2026-05-02T13:26:41.011Z</time></trkpt><trkpt lat="46.17290075035157" lon="9.368454545380224"><ele>261.33333333333337</ele><time>2026-05-02T13:26:43.011Z</time></trkpt><trkpt lat="46.17290757108337" lon="9.36855414985781"><ele>260.6666666666667</ele><time>2026-05-02T13:26:44.012Z</time></trkpt><trkpt lat="46.17291452649297" lon="9.368651473071553"><ele>260.0</ele><time>2026-05-02T13:26:45.012Z</time></trkpt><trkpt lat="46.17294278673748" lon="9.36882265307294"><ele>258.33333333333337</ele><time>2026-05-02T13:26:47.012Z</time></trkpt><trkpt lat="46.172951291579345" lon="9.368915236212548"><ele>256.6666666666667</ele><time>2026-05-02T13:26:48.012Z</time></trkpt><trkpt lat="46.172985323895674" lon="9.369000216432404"><ele>255.0</ele><time>2026-05-02T13:26:49.012Z</time></trkpt><trkpt lat="46.173029795016916" lon="9.369076542382777"><ele>253.33333333333331</ele><time>2026-05-02T13:26:50.012Z</time></trkpt><trkpt lat="46.17307776536562" lon="9.369135803880638"><ele>251.66666666666666</ele><time>2026-05-02T13:26:51.012Z</time></trkpt><trkpt lat="46.17316424524338" lon="9.36925427736273"><ele>250.0</ele><time>2026-05-02T13:26:53.012Z</time></trkpt><trkpt lat="46.17318978653807" lon="9.36940730074348"><ele>254.0</ele><time>2026-05-02T13:26:55.008Z</time></trkpt><trkpt lat="46.17322034520175" lon="9.369605238347294"><ele>258.0</ele><time>2026-05-02T13:26:57.009Z</time></trkpt><trkpt lat="46.17324994479798" lon="9.369691013309493"><ele>262.0</ele><time>2026-05-02T13:26:58.009Z</time></trkpt><trkpt lat="46.17330081722539" lon="9.369841552960178"><ele>266.0</ele><time>2026-05-02T13:27:00.009Z</time></trkpt><trkpt lat="46.17329345447327" lon="9.369984754436206"><ele>270.0</ele><time>2026-05-02T13:27:02.009Z</time></trkpt><trkpt lat="46.1732334514674" lon="9.37015509958007"><ele>270.0</ele><time>2026-05-02T13:27:04.009Z</time></trkpt><trkpt lat="46.173222298798265" lon="9.370259285601144"><ele>270.0</ele><time>2026-05-02T13:27:05.009Z</time></trkpt><trkpt lat="46.17322646315533" lon="9.370375203395648"><ele>270.0</ele><time>2026-05-02T13:27:06.009Z</time></trkpt><trkpt lat="46.173242016955406" lon="9.37048241611181"><ele>270.0</ele><time>2026-05-02T13:27:07.009Z</time></trkpt><trkpt lat="46.17326108345378" lon="9.37057447217243"><ele>270.0</ele><time>2026-05-02T13:27:08.009Z</time></trkpt><trkpt lat="46.173293840407986" lon="9.370729171347113"><ele>270.0</ele><time>2026-05-02T13:27:10.009Z</time></trkpt><trkpt lat="46.17331434282448" lon="9.370847243792605"><ele>269.0</ele><time>2026-05-02T13:27:12.009Z</time></trkpt><trkpt lat="46.173252960213915" lon="9.370817883273586"><ele>268.0</ele><time>2026-05-02T13:27:17.009Z</time></trkpt><trkpt lat="46.17324093764369" lon="9.370713024091902"><ele>267.0</ele><time>2026-05-02T13:27:18.009Z</time></trkpt><trkpt lat="46.17321860856182" lon="9.370613807747894"><ele>266.0</ele><time>2026-05-02T13:27:19.009Z</time></trkpt><trkpt lat="46.17318836742835" lon="9.37049815935721"><ele>265.0</ele><time>2026-05-02T13:27:20.009Z</time></trkpt><trkpt lat="46.17316474901374" lon="9.37037418662266"><ele>264.0</ele><time>2026-05-02T13:27:21.009Z</time></trkpt><trkpt lat="46.17314444705799" lon="9.370263475278655"><ele>261.6666666666667</ele><time>2026-05-02T13:27:22.009Z</time></trkpt><trkpt lat="46.173132403858446" lon="9.370156766016049"><ele>259.3333333333333</ele><time>2026-05-02T13:27:23.009Z</time></trkpt><trkpt lat="46.17312699509699" lon="9.370053592721225"><ele>257.0</ele><time>2026-05-02T13:27:24.009Z</time></trkpt><trkpt lat="46.173114990719" lon="9.369958552805464"><ele>254.66666666666666</ele><time>2026-05-02T13:27:25.009Z</time></trkpt><trkpt lat="46.17309677489842" lon="9.369864995048987"><ele>252.33333333333331</ele><time>2026-05-02T13:27:26.009Z</time></trkpt><trkpt lat="46.173020070370725" lon="9.369714885981558"><ele>250.0</ele><time>2026-05-02T13:27:28.009Z</time></trkpt><trkpt lat="46.17295326005837" lon="9.369651623880635"><ele>250.0</ele><time>2026-05-02T13:27:29.009Z</time></trkpt><trkpt lat="46.17288183937401" lon="9.369593020323354"><ele>250.0</ele><time>2026-05-02T13:27:30.009Z</time></trkpt><trkpt lat="46.17281358781433" lon="9.369545816336819"><ele>250.0</ele><time>2026-05-02T13:27:31.009Z</time></trkpt><trkpt lat="46.172747751282735" lon="9.369510163429807"><ele>250.0</ele><time>2026-05-02T13:27:32.009Z</time></trkpt><trkpt lat="46.17268194618496" lon="9.369467032793288"><ele>250.0</ele><time>2026-05-02T13:27:33.009Z</time></trkpt><trkpt lat="46.172629078267136" lon="9.369397259814603"><ele>250.0</ele><time>2026-05-02T13:27:34.009Z</time></trkpt><trkpt lat="46.17258355180304" lon="9.36930935484561"><ele>250.0</ele><time>2026-05-02T13:27:35.009Z</time></trkpt><trkpt lat="46.17253196698603" lon="9.369223497802963"><ele>250.0</ele><time>2026-05-02T13:27:36.009Z</time></trkpt><trkpt lat="46.1724698442463" lon="9.369145577028988"><ele>250.0</ele><time>2026-05-02T13:27:37.009Z</time></trkpt><trkpt lat="46.17239677332856" lon="9.36907836501007"><ele>250.0</ele><time>2026-05-02T13:27:38.009Z</time></trkpt><trkpt lat="46.17230841688691" lon="9.369022363783829"><ele>250.0</ele><time>2026-05-02T13:27:39.009Z</time></trkpt><trkpt lat="46.172215094414774" lon="9.368981498791193"><ele>250.0</ele><time>2026-05-02T13:27:40.009Z</time></trkpt><trkpt lat="46.172126991447506" lon="9.368944742185716"><ele>248.83333333333331</ele><time>2026-05-02T13:27:41.009Z</time></trkpt><trkpt lat="46.172045811022066" lon="9.368909704482583"><ele>247.66666666666666</ele><time>2026-05-02T13:27:42.009Z</time></trkpt><trkpt lat="46.17196895500796" lon="9.368872801998178"><ele>246.5</ele><time>2026-05-02T13:27:43.009Z</time></trkpt><trkpt lat="46.17189342901854" lon="9.368845765355953"><ele>245.33333333333331</ele><time>2026-05-02T13:27:44.009Z</time></trkpt><trkpt lat="46.17181400990229" lon="9.368845342645875"><ele>244.16666666666666</ele><time>2026-05-02T13:27:45.009Z</time></trkpt><trkpt lat="46.17173183858985" lon="9.368852880953378"><ele>243.0</ele><time>2026-05-02T13:27:46.009Z</time></trkpt><trkpt lat="46.17164647916129" lon="9.368891635683672"><ele>242.0</ele><time>2026-05-02T13:27:47.009Z</time></trkpt><trkpt lat="46.17156640426571" lon="9.368930941495444"><ele>241.0</ele><time>2026-05-02T13:27:48.009Z</time></trkpt><trkpt lat="46.17149798579525" lon="9.368965844683396"><ele>240.0</ele><time>2026-05-02T13:27:49.01Z</time></trkpt><trkpt lat="46.17142793474008" lon="9.368998914937636"><ele>239.0</ele><time>2026-05-02T13:27:50.01Z</time></trkpt><trkpt lat="46.17135634793098" lon="9.368996447321845"><ele>238.0</ele><time>2026-05-02T13:27:51.01Z</time></trkpt><trkpt lat="46.17128593711249" lon="9.368953041580479"><ele>237.0</ele><time>2026-05-02T13:27:52.01Z</time></trkpt><trkpt lat="46.17121237479602" lon="9.368926770338284"><ele>236.57142857142856</ele><time>2026-05-02T13:27:53.01Z</time></trkpt><trkpt lat="46.17113633177578" lon="9.368903208311375"><ele>236.14285714285714</ele><time>2026-05-02T13:27:54.01Z</time></trkpt><trkpt lat="46.17106193479096" lon="9.368881031729094"><ele>235.71428571428572</ele><time>2026-05-02T13:27:55.01Z</time></trkpt><trkpt lat="46.170987693026284" lon="9.368858901428858"><ele>235.28571428571428</ele><time>2026-05-02T13:27:56.01Z</time></trkpt><trkpt lat="46.17091714003198" lon="9.368837352352598"><ele>234.8571428571429</ele><time>2026-05-02T13:27:57.01Z</time></trkpt><trkpt lat="46.170854982125" lon="9.368807724256081"><ele>234.42857142857144</ele><time>2026-05-02T13:27:58.01Z</time></trkpt><trkpt lat="46.170792677983926" lon="9.368783730680706"><ele>234.0</ele><time>2026-05-02T13:27:59.01Z</time></trkpt><trkpt lat="46.17074223943805" lon="9.368722182429162"><ele>234.0</ele><time>2026-05-02T13:28:00.01Z</time></trkpt><trkpt lat="46.17069676740448" lon="9.368655909362692"><ele>234.0</ele><time>2026-05-02T13:28:01.01Z</time></trkpt><trkpt lat="46.170645962348765" lon="9.368585757591811"><ele>234.0</ele><time>2026-05-02T13:28:02.01Z</time></trkpt><trkpt lat="46.1705900512535" lon="9.368513558124604"><ele>234.0</ele><time>2026-05-02T13:28:03.01Z</time></trkpt><trkpt lat="46.17052382877428" lon="9.36848767548004"><ele>234.0</ele><time>2026-05-02T13:28:04.01Z</time></trkpt><trkpt lat="46.170457015746855" lon="9.368523522166823"><ele>234.0</ele><time>2026-05-02T13:28:05.01Z</time></trkpt><trkpt lat="46.17033802900071" lon="9.368519196763435"><ele>232.0</ele><time>2026-05-02T13:28:07.01Z</time></trkpt><trkpt lat="46.17022608984355" lon="9.368522559857041"><ele>229.99999999999997</ele><time>2026-05-02T13:28:09.01Z</time></trkpt><trkpt lat="46.1701330138053" lon="9.368415019039409"><ele>227.99999999999997</ele><time>2026-05-02T13:28:11.01Z</time></trkpt><trkpt lat="46.17009982505653" lon="9.36832127337826"><ele>226.0</ele><time>2026-05-02T13:28:12.01Z</time></trkpt><trkpt lat="46.17005193501221" lon="9.368238978298724"><ele>224.0</ele><time>2026-05-02T13:28:13.01Z</time></trkpt><trkpt lat="46.17000614806241" lon="9.368160297287883"><ele>224.0</ele><time>2026-05-02T13:28:14.01Z</time></trkpt><trkpt lat="46.169961684037936" lon="9.36808388955615"><ele>224.0</ele><time>2026-05-02T13:28:15.01Z</time></trkpt><trkpt lat="46.169908709731956" lon="9.368025465600033"><ele>224.0</ele><time>2026-05-02T13:28:16.01Z</time></trkpt><trkpt lat="46.169876144967425" lon="9.367944073167076"><ele>224.0</ele><time>2026-05-02T13:28:17.01Z</time></trkpt><trkpt lat="46.16983600359281" lon="9.36787210668527"><ele>224.0</ele><time>2026-05-02T13:28:18.01Z</time></trkpt><trkpt lat="46.16979271518607" lon="9.367800586516992"><ele>224.0</ele><time>2026-05-02T13:28:19.01Z</time></trkpt><trkpt lat="46.16974110337751" lon="9.36774000437747"><ele>224.0</ele><time>2026-05-02T13:28:20.01Z</time></trkpt><trkpt lat="46.169682321110756" lon="9.367687606583717"><ele>222.50000000000003</ele><time>2026-05-02T13:28:21.01Z</time></trkpt><trkpt lat="46.169618437131255" lon="9.367639291875587"><ele>221.0</ele><time>2026-05-02T13:28:22.01Z</time></trkpt><trkpt lat="46.1695586993406" lon="9.367593187974974"><ele>219.5</ele><time>2026-05-02T13:28:23.01Z</time></trkpt><trkpt lat="46.1695000938914" lon="9.367554817782924"><ele>218.0</ele><time>2026-05-02T13:28:24.01Z</time></trkpt><trkpt lat="46.169442516467605" lon="9.367515435809175"><ele>216.50000000000003</ele><time>2026-05-02T13:28:25.01Z</time></trkpt><trkpt lat="46.1693384719118" lon="9.367424687201556"><ele>215.0</ele><time>2026-05-02T13:28:27.01Z</time></trkpt><trkpt lat="46.16928101941188" lon="9.367292146949849"><ele>214.66666666666669</ele><time>2026-05-02T13:28:29.01Z</time></trkpt><trkpt lat="46.169253442613915" lon="9.367148318447292"><ele>214.33333333333334</ele><time>2026-05-02T13:28:31.01Z</time></trkpt><trkpt lat="46.16924323246636" lon="9.367033851182205"><ele>214.0</ele><time>2026-05-02T13:28:33.011Z</time></trkpt><trkpt lat="46.16920373422119" lon="9.36696113608837"><ele>213.66666666666669</ele><time>2026-05-02T13:28:36.011Z</time></trkpt><trkpt lat="46.169154663463175" lon="9.36688777055814"><ele>213.33333333333334</ele><time>2026-05-02T13:28:45.011Z</time></trkpt><trkpt lat="46.169217773354355" lon="9.366728230873813"><ele>213.0</ele><time>2026-05-02T13:28:46.011Z</time></trkpt><trkpt lat="46.16923752488294" lon="9.366627528564692"><ele>213.0</ele><time>2026-05-02T13:28:47.011Z</time></trkpt><trkpt lat="46.16926331209133" lon="9.366502937342192"><ele>213.0</ele><time>2026-05-02T13:28:48.011Z</time></trkpt><trkpt lat="46.16929156849428" lon="9.366370276207364"><ele>213.0</ele><time>2026-05-02T13:28:49.011Z</time></trkpt><trkpt lat="46.16932123315449" lon="9.366225077064191"><ele>213.0</ele><time>2026-05-02T13:28:50.011Z</time></trkpt><trkpt lat="46.16935372129411" lon="9.366073165809432"><ele>213.0</ele><time>2026-05-02T13:28:51.011Z</time></trkpt><trkpt lat="46.16938479612684" lon="9.365909798623605"><ele>212.25</ele><time>2026-05-02T13:28:52.011Z</time></trkpt><trkpt lat="46.16941949036167" lon="9.365740170619317"><ele>211.5</ele><time>2026-05-02T13:28:53.011Z</time></trkpt><trkpt lat="46.169454231919346" lon="9.365564765260302"><ele>210.75</ele><time>2026-05-02T13:28:54.011Z</time></trkpt><trkpt lat="46.169490818441744" lon="9.36538811458828"><ele>210.0</ele><time>2026-05-02T13:28:55.011Z</time></trkpt><trkpt lat="46.169528983922994" lon="9.365210159480775"><ele>209.0</ele><time>2026-05-02T13:28:56.011Z</time></trkpt><trkpt lat="46.16956411451581" lon="9.365034069876625"><ele>208.0</ele><time>2026-05-02T13:28:57.011Z</time></trkpt><trkpt lat="46.16960173380931" lon="9.364858549947572"><ele>207.0</ele><time>2026-05-02T13:28:58.011Z</time></trkpt><trkpt lat="46.16964181253791" lon="9.364690513131613"><ele>206.0</ele><time>2026-05-02T13:28:59.011Z</time></trkpt><trkpt lat="46.169674952556925" lon="9.364526476218288"><ele>205.5</ele><time>2026-05-02T13:29:00.008Z</time></trkpt><trkpt lat="46.169711996589065" lon="9.36435804015549"><ele>205.0</ele><time>2026-05-02T13:29:01.008Z</time></trkpt><trkpt lat="46.16975601941875" lon="9.364195603308904"><ele>204.5</ele><time>2026-05-02T13:29:02.008Z</time></trkpt><trkpt lat="46.16978420069029" lon="9.36401577452435"><ele>204.0</ele><time>2026-05-02T13:29:03.008Z</time></trkpt><trkpt lat="46.16981422767892" lon="9.363834404803558"><ele>203.75</ele><time>2026-05-02T13:29:04.007Z</time></trkpt><trkpt lat="46.169840841486966" lon="9.363639646559918"><ele>203.5</ele><time>2026-05-02T13:29:05.008Z</time></trkpt><trkpt lat="46.169861383968346" lon="9.363441206086081"><ele>203.25</ele><time>2026-05-02T13:29:06.007Z</time></trkpt><trkpt lat="46.169893637847075" lon="9.363236786153394"><ele>203.0</ele><time>2026-05-02T13:29:07.007Z</time></trkpt><trkpt lat="46.16990759377736" lon="9.363038582381344"><ele>207.25</ele><time>2026-05-02T13:29:08.007Z</time></trkpt><trkpt lat="46.16992296118743" lon="9.362848131927715"><ele>211.5</ele><time>2026-05-02T13:29:09.008Z</time></trkpt><trkpt lat="46.16993078024043" lon="9.362667360344878"><ele>215.75</ele><time>2026-05-02T13:29:10.008Z</time></trkpt><trkpt lat="46.169936551354205" lon="9.362489383356568"><ele>220.0</ele><time>2026-05-02T13:29:11.008Z</time></trkpt><trkpt lat="46.16992080073923" lon="9.362306487770304"><ele>222.0</ele><time>2026-05-02T13:29:12.008Z</time></trkpt><trkpt lat="46.169884323431006" lon="9.362111824481078"><ele>224.0</ele><time>2026-05-02T13:29:13.007Z</time></trkpt><trkpt lat="46.169835870836835" lon="9.361925853864154"><ele>226.0</ele><time>2026-05-02T13:29:14.007Z</time></trkpt><trkpt lat="46.16977729714883" lon="9.361747264597149"><ele>228.0</ele><time>2026-05-02T13:29:15.007Z</time></trkpt><trkpt lat="46.169724926975604" lon="9.361578780224612"><ele>223.0</ele><time>2026-05-02T13:29:16.007Z</time></trkpt><trkpt lat="46.169671698825645" lon="9.36142667250468"><ele>218.0</ele><time>2026-05-02T13:29:17.007Z</time></trkpt><trkpt lat="46.1696291908931" lon="9.361277668958605"><ele>213.0</ele><time>2026-05-02T13:29:18.007Z</time></trkpt><trkpt lat="46.16958455517613" lon="9.361137115655904"><ele>208.0</ele><time>2026-05-02T13:29:19.007Z</time></trkpt><trkpt lat="46.16953692710588" lon="9.360996538214813"><ele>203.0</ele><time>2026-05-02T13:29:20.007Z</time></trkpt><trkpt lat="46.16948908465393" lon="9.36084430909981"><ele>203.0</ele><time>2026-05-02T13:29:21.007Z</time></trkpt><trkpt lat="46.16943988668091" lon="9.360686613125136"><ele>203.0</ele><time>2026-05-02T13:29:22.007Z</time></trkpt><trkpt lat="46.16939331196568" lon="9.360531466279092"><ele>203.0</ele><time>2026-05-02T13:29:23.007Z</time></trkpt><trkpt lat="46.16935586019877" lon="9.360383017162672"><ele>203.0</ele><time>2026-05-02T13:29:24.007Z</time></trkpt><trkpt lat="46.16933496603116" lon="9.360224860587694"><ele>204.75</ele><time>2026-05-02T13:29:25.008Z</time></trkpt><trkpt lat="46.16934045737246" lon="9.36005212438139"><ele>206.5</ele><time>2026-05-02T13:29:26.008Z</time></trkpt><trkpt lat="46.16933924368772" lon="9.359883217469177"><ele>208.25</ele><time>2026-05-02T13:29:27.008Z</time></trkpt><trkpt lat="46.169332270855946" lon="9.359711233132826"><ele>210.0</ele><time>2026-05-02T13:29:28.008Z</time></trkpt><trkpt lat="46.169320080177734" lon="9.359545798676583"><ele>210.6</ele><time>2026-05-02T13:29:29.008Z</time></trkpt><trkpt lat="46.169309331697335" lon="9.359388040620695"><ele>211.2</ele><time>2026-05-02T13:29:30.008Z</time></trkpt><trkpt lat="46.169286133139764" lon="9.359242815892122"><ele>211.8</ele><time>2026-05-02T13:29:31.008Z</time></trkpt><trkpt lat="46.16925689255392" lon="9.35910446040603"><ele>212.4</ele><time>2026-05-02T13:29:32.008Z</time></trkpt><trkpt lat="46.169211221157845" lon="9.358965452259573"><ele>213.0</ele><time>2026-05-02T13:29:33.008Z</time></trkpt><trkpt lat="46.16916374115243" lon="9.35882362032199"><ele>215.0</ele><time>2026-05-02T13:29:34.008Z</time></trkpt><trkpt lat="46.16911283399109" lon="9.358697984694864"><ele>217.0</ele><time>2026-05-02T13:29:35.008Z</time></trkpt><trkpt lat="46.169063901974035" lon="9.358584649405953"><ele>219.0</ele><time>2026-05-02T13:29:36.008Z</time></trkpt><trkpt lat="46.1690183588859" lon="9.358473396890954"><ele>221.0</ele><time>2026-05-02T13:29:37.008Z</time></trkpt><trkpt lat="46.168966082215235" lon="9.358359874357388"><ele>223.0</ele><time>2026-05-02T13:29:38.008Z</time></trkpt><trkpt lat="46.16891313364658" lon="9.358233589887774"><ele>219.8</ele><time>2026-05-02T13:29:39.008Z</time></trkpt><trkpt lat="46.168860680464505" lon="9.358101614385138"><ele>216.60000000000002</ele><time>2026-05-02T13:29:40.008Z</time></trkpt><trkpt lat="46.16880512035233" lon="9.357966917432664"><ele>213.39999999999998</ele><time>2026-05-02T13:29:41.008Z</time></trkpt><trkpt lat="46.1687570307299" lon="9.357837121213983"><ele>210.2</ele><time>2026-05-02T13:29:42.008Z</time></trkpt><trkpt lat="46.16871120595135" lon="9.357715636277508"><ele>207.0</ele><time>2026-05-02T13:29:43.008Z</time></trkpt><trkpt lat="46.1686672103225" lon="9.357602261141908"><ele>207.0</ele><time>2026-05-02T13:29:44.008Z</time></trkpt><trkpt lat="46.16862441729746" lon="9.357491486241845"><ele>207.0</ele><time>2026-05-02T13:29:45.008Z</time></trkpt><trkpt lat="46.16858348146772" lon="9.357385180895067"><ele>207.0</ele><time>2026-05-02T13:29:46.008Z</time></trkpt><trkpt lat="46.168541349456675" lon="9.357284409299936"><ele>207.0</ele><time>2026-05-02T13:29:47.008Z</time></trkpt><trkpt lat="46.16850258182017" lon="9.357195146723514"><ele>207.0</ele><time>2026-05-02T13:29:48.008Z</time></trkpt><trkpt lat="46.168465295072586" lon="9.357110360527622"><ele>207.0</ele><time>2026-05-02T13:29:49.008Z</time></trkpt><trkpt lat="46.168421590035415" lon="9.357012000109934"><ele>205.8</ele><time>2026-05-02T13:29:50.008Z</time></trkpt><trkpt lat="46.1683788253768" lon="9.356901555866326"><ele>204.6</ele><time>2026-05-02T13:29:51.008Z</time></trkpt><trkpt lat="46.16832979623442" lon="9.35678288127366"><ele>203.4</ele><time>2026-05-02T13:29:52.008Z</time></trkpt><trkpt lat="46.168273520208054" lon="9.356654262677878"><ele>202.20000000000002</ele><time>2026-05-02T13:29:53.008Z</time></trkpt><trkpt lat="46.16822017170003" lon="9.356525528224653"><ele>201.0</ele><time>2026-05-02T13:29:54.008Z</time></trkpt><trkpt lat="46.16816452543173" lon="9.35639333320088"><ele>201.60000000000002</ele><time>2026-05-02T13:29:55.008Z</time></trkpt><trkpt lat="46.16811215331141" lon="9.356264168517125"><ele>202.2</ele><time>2026-05-02T13:29:56.008Z</time></trkpt><trkpt lat="46.16808182955807" lon="9.356122248545306"><ele>202.8</ele><time>2026-05-02T13:29:57.008Z</time></trkpt><trkpt lat="46.16803473163986" lon="9.355993939775356"><ele>203.39999999999998</ele><time>2026-05-02T13:29:58.008Z</time></trkpt><trkpt lat="46.167986275603155" lon="9.355853880825311"><ele>204.0</ele><time>2026-05-02T13:29:59.008Z</time></trkpt><trkpt lat="46.167931735566384" lon="9.355710951422424"><ele>204.0</ele><time>2026-05-02T13:30:00.008Z</time></trkpt><trkpt lat="46.167879626670675" lon="9.355559578648444"><ele>204.0</ele><time>2026-05-02T13:30:01.008Z</time></trkpt><trkpt lat="46.16782245278649" lon="9.355399822202571"><ele>204.0</ele><time>2026-05-02T13:30:02.008Z</time></trkpt><trkpt lat="46.16777153869631" lon="9.355239847536598"><ele>204.0</ele><time>2026-05-02T13:30:03.008Z</time></trkpt><trkpt lat="46.167715217379936" lon="9.355084822623605"><ele>205.25</ele><time>2026-05-02T13:30:04.008Z</time></trkpt><trkpt lat="46.167659010727554" lon="9.354930251517212"><ele>206.5</ele><time>2026-05-02T13:30:05.008Z</time></trkpt><trkpt lat="46.16761125887582" lon="9.354768402226066"><ele>207.75</ele><time>2026-05-02T13:30:06.008Z</time></trkpt><trkpt lat="46.16755914107585" lon="9.354613404275076"><ele>209.0</ele><time>2026-05-02T13:30:07.008Z</time></trkpt><trkpt lat="46.1674982245177" lon="9.354463081916835"><ele>207.5</ele><time>2026-05-02T13:30:08.008Z</time></trkpt><trkpt lat="46.167436066316334" lon="9.354313988293864"><ele>206.0</ele><time>2026-05-02T13:30:09.009Z</time></trkpt><trkpt lat="46.16737086204285" lon="9.354165288941255"><ele>204.5</ele><time>2026-05-02T13:30:10.009Z</time></trkpt><trkpt lat="46.16730503592037" lon="9.354035507428533"><ele>203.0</ele><time>2026-05-02T13:30:11.009Z</time></trkpt><trkpt lat="46.167233142901416" lon="9.353904649413955"><ele>204.5</ele><time>2026-05-02T13:30:12.009Z</time></trkpt><trkpt lat="46.167160505384345" lon="9.353773231436056"><ele>206.0</ele><time>2026-05-02T13:30:13.009Z</time></trkpt><trkpt lat="46.16708879836466" lon="9.353640389061178"><ele>207.5</ele><time>2026-05-02T13:30:14.009Z</time></trkpt><trkpt lat="46.16701774473056" lon="9.353513009880835"><ele>209.0</ele><time>2026-05-02T13:30:15.009Z</time></trkpt><trkpt lat="46.16694739049778" lon="9.353388729601821"><ele>209.0</ele><time>2026-05-02T13:30:16.009Z</time></trkpt><trkpt lat="46.16687936530601" lon="9.353268869795164"><ele>209.0</ele><time>2026-05-02T13:30:17.009Z</time></trkpt><trkpt lat="46.16680604682245" lon="9.353155693268295"><ele>209.0</ele><time>2026-05-02T13:30:18.009Z</time></trkpt><trkpt lat="46.16673759191731" lon="9.353043013268117"><ele>209.0</ele><time>2026-05-02T13:30:19.009Z</time></trkpt><trkpt lat="46.16666699330865" lon="9.352934249777613"><ele>209.0</ele><time>2026-05-02T13:30:20.009Z</time></trkpt><trkpt lat="46.16659498601247" lon="9.352825938046612"><ele>208.2</ele><time>2026-05-02T13:30:21.009Z</time></trkpt><trkpt lat="46.16652314226962" lon="9.352714601362235"><ele>207.39999999999998</ele><time>2026-05-02T13:30:22.009Z</time></trkpt><trkpt lat="46.16645066989977" lon="9.352601744595825"><ele>206.6</ele><time>2026-05-02T13:30:23.009Z</time></trkpt><trkpt lat="46.16637596454749" lon="9.352486851670196"><ele>205.8</ele><time>2026-05-02T13:30:24.009Z</time></trkpt><trkpt lat="46.1662980859988" lon="9.35236360944683"><ele>205.0</ele><time>2026-05-02T13:30:25.009Z</time></trkpt><trkpt lat="46.16622016357921" lon="9.35224328083295"><ele>207.2</ele><time>2026-05-02T13:30:26.009Z</time></trkpt><trkpt lat="46.16614381092397" lon="9.352128098181334"><ele>209.4</ele><time>2026-05-02T13:30:27.009Z</time></trkpt><trkpt lat="46.16606841657879" lon="9.35201184977137"><ele>211.60000000000002</ele><time>2026-05-02T13:30:28.009Z</time></trkpt><trkpt lat="46.16599285537616" lon="9.351894861195422"><ele>213.8</ele><time>2026-05-02T13:30:29.009Z</time></trkpt><trkpt lat="46.16592497917545" lon="9.351763514360076"><ele>216.0</ele><time>2026-05-02T13:30:30.009Z</time></trkpt><trkpt lat="46.165858499297" lon="9.351630077536417"><ele>216.0</ele><time>2026-05-02T13:30:31.009Z</time></trkpt><trkpt lat="46.16579556188555" lon="9.351497376378264"><ele>216.0</ele><time>2026-05-02T13:30:32.009Z</time></trkpt><trkpt lat="46.16572992023136" lon="9.351361581771668"><ele>216.0</ele><time>2026-05-02T13:30:33.009Z</time></trkpt><trkpt lat="46.16567943047005" lon="9.351199406495963"><ele>216.0</ele><time>2026-05-02T13:30:34.009Z</time></trkpt><trkpt lat="46.16560890098345" lon="9.351047300595507"><ele>214.75</ele><time>2026-05-02T13:30:35.009Z</time></trkpt><trkpt lat="46.165535253390445" lon="9.35088638230422"><ele>213.5</ele><time>2026-05-02T13:30:36.009Z</time></trkpt><trkpt lat="46.16545754359557" lon="9.35073166806936"><ele>212.25</ele><time>2026-05-02T13:30:37.009Z</time></trkpt><trkpt lat="46.165380360731874" lon="9.350576358347581"><ele>211.0</ele><time>2026-05-02T13:30:38.009Z</time></trkpt><trkpt lat="46.1653052751713" lon="9.350423352913753"><ele>211.0</ele><time>2026-05-02T13:30:39.009Z</time></trkpt><trkpt lat="46.16522689220793" lon="9.350263521938093"><ele>211.0</ele><time>2026-05-02T13:30:40.009Z</time></trkpt><trkpt lat="46.16514831259605" lon="9.35010600544892"><ele>211.0</ele><time>2026-05-02T13:30:41.009Z</time></trkpt><trkpt lat="46.165071749405996" lon="9.349958593402185"><ele>211.0</ele><time>2026-05-02T13:30:42.009Z</time></trkpt><trkpt lat="46.16499772463105" lon="9.349818986418274"><ele>208.5</ele><time>2026-05-02T13:30:43.009Z</time></trkpt><trkpt lat="46.16492469436408" lon="9.34967947673164"><ele>206.0</ele><time>2026-05-02T13:30:44.009Z</time></trkpt><trkpt lat="46.16485167386112" lon="9.349534876701101"><ele>203.5</ele><time>2026-05-02T13:30:45.009Z</time></trkpt><trkpt lat="46.164781750119154" lon="9.349387624979794"><ele>201.0</ele><time>2026-05-02T13:30:46.009Z</time></trkpt><trkpt lat="46.16470868299981" lon="9.34924153667042"><ele>201.0</ele><time>2026-05-02T13:30:47.009Z</time></trkpt><trkpt lat="46.16463037087647" lon="9.349095964448283"><ele>201.0</ele><time>2026-05-02T13:30:48.009Z</time></trkpt><trkpt lat="46.16454706550291" lon="9.34894894010694"><ele>201.0</ele><time>2026-05-02T13:30:49.009Z</time></trkpt><trkpt lat="46.16445936691818" lon="9.348807620596883"><ele>201.0</ele><time>2026-05-02T13:30:50.009Z</time></trkpt><trkpt lat="46.164367614542925" lon="9.3486657235939"><ele>203.5</ele><time>2026-05-02T13:30:51.009Z</time></trkpt><trkpt lat="46.16428309470675" lon="9.348519651751271"><ele>206.0</ele><time>2026-05-02T13:30:52.009Z</time></trkpt><trkpt lat="46.164210766074724" lon="9.34835506718436"><ele>208.5</ele><time>2026-05-02T13:30:53.01Z</time></trkpt><trkpt lat="46.164144668212" lon="9.348172378304445"><ele>211.0</ele><time>2026-05-02T13:30:54.01Z</time></trkpt><trkpt lat="46.164082169004026" lon="9.347980470023035"><ele>208.5</ele><time>2026-05-02T13:30:55.01Z</time></trkpt><trkpt lat="46.164023299372126" lon="9.347791339549408"><ele>206.0</ele><time>2026-05-02T13:30:56.01Z</time></trkpt><trkpt lat="46.163952632284406" lon="9.347608603930807"><ele>203.5</ele><time>2026-05-02T13:30:57.01Z</time></trkpt><trkpt lat="46.16387121150393" lon="9.34742885542809"><ele>201.0</ele><time>2026-05-02T13:30:58.01Z</time></trkpt><trkpt lat="46.16377994594779" lon="9.347256518972918"><ele>203.5</ele><time>2026-05-02T13:30:59.01Z</time></trkpt><trkpt lat="46.16368868523973" lon="9.347089905897073"><ele>206.0</ele><time>2026-05-02T13:31:00.01Z</time></trkpt><trkpt lat="46.1636031215452" lon="9.346925749512785"><ele>208.5</ele><time>2026-05-02T13:31:01.01Z</time></trkpt><trkpt lat="46.163509516474384" lon="9.34676520626616"><ele>211.0</ele><time>2026-05-02T13:31:02.01Z</time></trkpt><trkpt lat="46.16340479999795" lon="9.34661273791044"><ele>211.0</ele><time>2026-05-02T13:31:03.01Z</time></trkpt><trkpt lat="46.16329546631145" lon="9.346462484001298"><ele>211.0</ele><time>2026-05-02T13:31:04.01Z</time></trkpt><trkpt lat="46.16318672117092" lon="9.346317921220539"><ele>211.0</ele><time>2026-05-02T13:31:05.01Z</time></trkpt><trkpt lat="46.16307934266068" lon="9.346177656211035"><ele>211.0</ele><time>2026-05-02T13:31:06.006Z</time></trkpt><trkpt lat="46.16297621777777" lon="9.346036256496161"><ele>209.75</ele><time>2026-05-02T13:31:07.007Z</time></trkpt><trkpt lat="46.16287453248007" lon="9.34589723739035"><ele>208.5</ele><time>2026-05-02T13:31:08.007Z</time></trkpt><trkpt lat="46.16277009179794" lon="9.345769437739277"><ele>207.25</ele><time>2026-05-02T13:31:09.007Z</time></trkpt><trkpt lat="46.16266481440932" lon="9.345636541451391"><ele>206.0</ele><time>2026-05-02T13:31:10.007Z</time></trkpt><trkpt lat="46.16255900134572" lon="9.345501372165003"><ele>204.75</ele><time>2026-05-02T13:31:11.007Z</time></trkpt><trkpt lat="46.1624488422397" lon="9.34536045242806"><ele>203.5</ele><time>2026-05-02T13:31:12.007Z</time></trkpt><trkpt lat="46.16234178270618" lon="9.345213251062951"><ele>202.25</ele><time>2026-05-02T13:31:13.007Z</time></trkpt><trkpt lat="46.162236879799956" lon="9.345065103274585"><ele>201.0</ele><time>2026-05-02T13:31:14.007Z</time></trkpt><trkpt lat="46.16213263346589" lon="9.344924613798488"><ele>201.0</ele><time>2026-05-02T13:31:15.007Z</time></trkpt><trkpt lat="46.16202499171583" lon="9.344787799472247"><ele>201.0</ele><time>2026-05-02T13:31:16.007Z</time></trkpt><trkpt lat="46.16191285562464" lon="9.344651511565504"><ele>201.0</ele><time>2026-05-02T13:31:17.007Z</time></trkpt><trkpt lat="46.16179370588225" lon="9.34452675416512"><ele>201.0</ele><time>2026-05-02T13:31:18.007Z</time></trkpt><trkpt lat="46.16167323582524" lon="9.344414192863693"><ele>200.5</ele><time>2026-05-02T13:31:19.007Z</time></trkpt><trkpt lat="46.16155694365599" lon="9.34430775134917"><ele>200.0</ele><time>2026-05-02T13:31:20.007Z</time></trkpt><trkpt lat="46.16144212250572" lon="9.344206743412006"><ele>199.5</ele><time>2026-05-02T13:31:21.007Z</time></trkpt><trkpt lat="46.16132810905704" lon="9.344108789021313"><ele>199.0</ele><time>2026-05-02T13:31:22.007Z</time></trkpt><trkpt lat="46.16121463327411" lon="9.344006716387042"><ele>199.0</ele><time>2026-05-02T13:31:23.007Z</time></trkpt><trkpt lat="46.161105705731494" lon="9.343888998524424"><ele>199.0</ele><time>2026-05-02T13:31:24.007Z</time></trkpt><trkpt lat="46.160990649823844" lon="9.343785427842677"><ele>199.0</ele><time>2026-05-02T13:31:25.007Z</time></trkpt><trkpt lat="46.160878414621756" lon="9.343682047244572"><ele>199.0</ele><time>2026-05-02T13:31:26.007Z</time></trkpt><trkpt lat="46.1607631129437" lon="9.343579070555394"><ele>200.0</ele><time>2026-05-02T13:31:27.007Z</time></trkpt><trkpt lat="46.16064731898172" lon="9.343476974131667"><ele>201.0</ele><time>2026-05-02T13:31:28.007Z</time></trkpt><trkpt lat="46.16053230997774" lon="9.343376884708379"><ele>202.0</ele><time>2026-05-02T13:31:29.007Z</time></trkpt><trkpt lat="46.1604130357023" lon="9.343277806548068"><ele>203.0</ele><time>2026-05-02T13:31:30.007Z</time></trkpt><trkpt lat="46.16029173598239" lon="9.343169135080183"><ele>203.0</ele><time>2026-05-02T13:31:31.007Z</time></trkpt><trkpt lat="46.16017060224458" lon="9.34305470257445"><ele>203.0</ele><time>2026-05-02T13:31:32.007Z</time></trkpt><trkpt lat="46.160051751768876" lon="9.342937402318343"><ele>203.0</ele><time>2026-05-02T13:31:33.007Z</time></trkpt><trkpt lat="46.15993720683046" lon="9.34280337509155"><ele>203.0</ele><time>2026-05-02T13:31:34.007Z</time></trkpt><trkpt lat="46.15983204828318" lon="9.342661403023591"><ele>203.25</ele><time>2026-05-02T13:31:35.007Z</time></trkpt><trkpt lat="46.15973672479601" lon="9.34251428863751"><ele>203.5</ele><time>2026-05-02T13:31:36.007Z</time></trkpt><trkpt lat="46.1596448073759" lon="9.342365804728663"><ele>203.75</ele><time>2026-05-02T13:31:37.007Z</time></trkpt><trkpt lat="46.15955420907515" lon="9.342220018738578"><ele>204.0</ele><time>2026-05-02T13:31:38.007Z</time></trkpt><trkpt lat="46.15946560590386" lon="9.342083099833147"><ele>205.75</ele><time>2026-05-02T13:31:39.007Z</time></trkpt><trkpt lat="46.15937960065648" lon="9.341949170876337"><ele>207.5</ele><time>2026-05-02T13:31:40.007Z</time></trkpt><trkpt lat="46.15929465835859" lon="9.341813554972799"><ele>209.25</ele><time>2026-05-02T13:31:41.008Z</time></trkpt><trkpt lat="46.15921026649007" lon="9.341674587990795"><ele>211.0</ele><time>2026-05-02T13:31:42.008Z</time></trkpt><trkpt lat="46.15913113972814" lon="9.341531639763557"><ele>211.0</ele><time>2026-05-02T13:31:43.008Z</time></trkpt><trkpt lat="46.15905020168912" lon="9.34139574595526"><ele>211.0</ele><time>2026-05-02T13:31:44.008Z</time></trkpt><trkpt lat="46.1589692295891" lon="9.341253817199744"><ele>211.0</ele><time>2026-05-02T13:31:45.008Z</time></trkpt><trkpt lat="46.15889430632966" lon="9.341103648657576"><ele>211.0</ele><time>2026-05-02T13:31:46.008Z</time></trkpt><trkpt lat="46.158828881073646" lon="9.340952029257595"><ele>211.25</ele><time>2026-05-02T13:31:47.008Z</time></trkpt><trkpt lat="46.15878449111102" lon="9.340785208457168"><ele>211.5</ele><time>2026-05-02T13:31:48.008Z</time></trkpt><trkpt lat="46.15873169888725" lon="9.340631340969995"><ele>211.75</ele><time>2026-05-02T13:31:49.008Z</time></trkpt><trkpt lat="46.158675990473775" lon="9.340482806333739"><ele>212.0</ele><time>2026-05-02T13:31:50.008Z</time></trkpt><trkpt lat="46.1586203305687" lon="9.340345655590705"><ele>212.0</ele><time>2026-05-02T13:31:51.008Z</time></trkpt><trkpt lat="46.15856481351897" lon="9.340210924108877"><ele>212.0</ele><time>2026-05-02T13:31:52.008Z</time></trkpt><trkpt lat="46.158504379220346" lon="9.340084257701541"><ele>212.0</ele><time>2026-05-02T13:31:53.008Z</time></trkpt><trkpt lat="46.15843459397749" lon="9.339961209146662"><ele>212.0</ele><time>2026-05-02T13:31:54.008Z</time></trkpt><trkpt lat="46.15835666300579" lon="9.339851584959515"><ele>212.0</ele><time>2026-05-02T13:31:55.008Z</time></trkpt><trkpt lat="46.15827712139516" lon="9.33974407989017"><ele>210.6</ele><time>2026-05-02T13:31:56.008Z</time></trkpt><trkpt lat="46.158200954455104" lon="9.339639532042911"><ele>209.2</ele><time>2026-05-02T13:31:57.008Z</time></trkpt><trkpt lat="46.1581221487255" lon="9.339538497510715"><ele>207.8</ele><time>2026-05-02T13:31:58.008Z</time></trkpt><trkpt lat="46.158042967944844" lon="9.339439922174309"><ele>206.4</ele><time>2026-05-02T13:31:59.008Z</time></trkpt><trkpt lat="46.15796353801692" lon="9.339345057538162"><ele>205.0</ele><time>2026-05-02T13:32:00.008Z</time></trkpt><trkpt lat="46.157881992696375" lon="9.339248503880677"><ele>205.0</ele><time>2026-05-02T13:32:01.008Z</time></trkpt><trkpt lat="46.15780081537639" lon="9.339143086279185"><ele>205.0</ele><time>2026-05-02T13:32:02.008Z</time></trkpt><trkpt lat="46.15772067277038" lon="9.339029594918019"><ele>205.0</ele><time>2026-05-02T13:32:03.008Z</time></trkpt><trkpt lat="46.15764236044" lon="9.3389117481816"><ele>205.0</ele><time>2026-05-02T13:32:04.008Z</time></trkpt><trkpt lat="46.15757344778725" lon="9.338786503248198"><ele>205.0</ele><time>2026-05-02T13:32:05.008Z</time></trkpt><trkpt lat="46.1575148968134" lon="9.33865257136372"><ele>204.2</ele><time>2026-05-02T13:32:06.008Z</time></trkpt><trkpt lat="46.15745781055607" lon="9.338525924538773"><ele>203.4</ele><time>2026-05-02T13:32:07.008Z</time></trkpt><trkpt lat="46.15739538606584" lon="9.338413480135054"><ele>202.60000000000002</ele><time>2026-05-02T13:32:08.008Z</time></trkpt><trkpt lat="46.15733143851096" lon="9.338313042661452"><ele>201.8</ele><time>2026-05-02T13:32:09.008Z</time></trkpt><trkpt lat="46.157252970733786" lon="9.338236162895775"><ele>201.0</ele><time>2026-05-02T13:32:10.008Z</time></trkpt><trkpt lat="46.1571711020168" lon="9.338183771971302"><ele>201.0</ele><time>2026-05-02T13:32:11.008Z</time></trkpt><trkpt lat="46.15708590685763" lon="9.338151979958239"><ele>201.0</ele><time>2026-05-02T13:32:12.008Z</time></trkpt><trkpt lat="46.15699871734223" lon="9.338131574276249"><ele>201.0</ele><time>2026-05-02T13:32:13.008Z</time></trkpt><trkpt lat="46.156907600759205" lon="9.338121135529411"><ele>201.0</ele><time>2026-05-02T13:32:14.008Z</time></trkpt><trkpt lat="46.15682011485196" lon="9.338110796626063"><ele>201.0</ele><time>2026-05-02T13:32:15.008Z</time></trkpt><trkpt lat="46.15673162382782" lon="9.338101718170316"><ele>201.0</ele><time>2026-05-02T13:32:16.008Z</time></trkpt><trkpt lat="46.15664564835246" lon="9.338092498723789"><ele>201.0</ele><time>2026-05-02T13:32:17.008Z</time></trkpt><trkpt lat="46.15656674562825" lon="9.338081978189313"><ele>201.0</ele><time>2026-05-02T13:32:18.008Z</time></trkpt><trkpt lat="46.15649460277648" lon="9.338069251134826"><ele>201.0</ele><time>2026-05-02T13:32:19.008Z</time></trkpt><trkpt lat="46.15641999150471" lon="9.33805686708043"><ele>201.0</ele><time>2026-05-02T13:32:20.008Z</time></trkpt><trkpt lat="46.15634533669532" lon="9.338045707180655"><ele>201.0</ele><time>2026-05-02T13:32:21.008Z</time></trkpt><trkpt lat="46.15626874022458" lon="9.338027287079044"><ele>201.0</ele><time>2026-05-02T13:32:22.008Z</time></trkpt><trkpt lat="46.1561959865739" lon="9.337977151930513"><ele>201.33333333333334</ele><time>2026-05-02T13:32:23.008Z</time></trkpt><trkpt lat="46.156116340736915" lon="9.337970653301113"><ele>201.66666666666669</ele><time>2026-05-02T13:32:24.008Z</time></trkpt><trkpt lat="46.156039537399224" lon="9.337929764025747"><ele>202.0</ele><time>2026-05-02T13:32:25.009Z</time></trkpt><trkpt lat="46.1559570709407" lon="9.337881769735075"><ele>202.33333333333334</ele><time>2026-05-02T13:32:26.009Z</time></trkpt><trkpt lat="46.15586745617437" lon="9.337821663955303"><ele>202.66666666666669</ele><time>2026-05-02T13:32:27.009Z</time></trkpt><trkpt lat="46.155795605708064" lon="9.337726769654514"><ele>203.0</ele><time>2026-05-02T13:32:28.009Z</time></trkpt><trkpt lat="46.15571469033491" lon="9.337655535871903"><ele>202.83333333333334</ele><time>2026-05-02T13:32:29.009Z</time></trkpt><trkpt lat="46.15564472440153" lon="9.337587141142865"><ele>202.66666666666669</ele><time>2026-05-02T13:32:30.009Z</time></trkpt><trkpt lat="46.15558762756132" lon="9.33752383863715"><ele>202.5</ele><time>2026-05-02T13:32:31.009Z</time></trkpt><trkpt lat="46.15551672392169" lon="9.337488858233332"><ele>202.33333333333331</ele><time>2026-05-02T13:32:32.009Z</time></trkpt><trkpt lat="46.15545764781269" lon="9.33742942345184"><ele>202.16666666666666</ele><time>2026-05-02T13:32:33.009Z</time></trkpt><trkpt lat="46.15540133961368" lon="9.337363224510943"><ele>202.0</ele><time>2026-05-02T13:32:34.009Z</time></trkpt><trkpt lat="46.15534478183502" lon="9.337295232486186"><ele>201.99999999999997</ele><time>2026-05-02T13:32:35.009Z</time></trkpt><trkpt lat="46.15528581149322" lon="9.337227283022761"><ele>202.0</ele><time>2026-05-02T13:32:36.009Z</time></trkpt><trkpt lat="46.15522550309685" lon="9.337158028446927"><ele>202.0</ele><time>2026-05-02T13:32:37.009Z</time></trkpt><trkpt lat="46.15516623406863" lon="9.337092436845822"><ele>202.0</ele><time>2026-05-02T13:32:38.009Z</time></trkpt><trkpt lat="46.155103390640306" lon="9.337026488116253"><ele>201.99999999999997</ele><time>2026-05-02T13:32:39.009Z</time></trkpt><trkpt lat="46.155040924510566" lon="9.336958435216161"><ele>202.0</ele><time>2026-05-02T13:32:40.009Z</time></trkpt><trkpt lat="46.15497852989705" lon="9.336887932671011"><ele>201.99999999999997</ele><time>2026-05-02T13:32:41.009Z</time></trkpt><trkpt lat="46.15491268476041" lon="9.33681150301474"><ele>202.0</ele><time>2026-05-02T13:32:42.009Z</time></trkpt><trkpt lat="46.15484274794128" lon="9.33673946605824"><ele>202.0</ele><time>2026-05-02T13:32:43.009Z</time></trkpt><trkpt lat="46.15477400407676" lon="9.336665333407362"><ele>202.0</ele><time>2026-05-02T13:32:44.009Z</time></trkpt><trkpt lat="46.15470431092654" lon="9.33658674001689"><ele>201.99999999999997</ele><time>2026-05-02T13:32:45.009Z</time></trkpt><trkpt lat="46.154636378010174" lon="9.336513765008334"><ele>202.0</ele><time>2026-05-02T13:32:46.009Z</time></trkpt><trkpt lat="46.15457217074012" lon="9.336444234843107"><ele>202.16666666666666</ele><time>2026-05-02T13:32:47.009Z</time></trkpt><trkpt lat="46.15450936797718" lon="9.33637508712798"><ele>202.33333333333331</ele><time>2026-05-02T13:32:48.009Z</time></trkpt><trkpt lat="46.154451640895935" lon="9.336285412617688"><ele>202.5</ele><time>2026-05-02T13:32:49.009Z</time></trkpt><trkpt lat="46.15438342269445" lon="9.336211524289675"><ele>202.66666666666669</ele><time>2026-05-02T13:32:50.009Z</time></trkpt><trkpt lat="46.15431301561698" lon="9.336134295378217"><ele>202.83333333333334</ele><time>2026-05-02T13:32:51.009Z</time></trkpt><trkpt lat="46.15423814876007" lon="9.336052415186987"><ele>203.0</ele><time>2026-05-02T13:32:52.009Z</time></trkpt><trkpt lat="46.15416560172787" lon="9.335973072138321"><ele>203.0</ele><time>2026-05-02T13:32:53.009Z</time></trkpt><trkpt lat="46.15409608143401" lon="9.335897039365019"><ele>203.0</ele><time>2026-05-02T13:32:54.009Z</time></trkpt><trkpt lat="46.1540261362257" lon="9.335820541866209"><ele>203.0</ele><time>2026-05-02T13:32:55.009Z</time></trkpt><trkpt lat="46.153952662741936" lon="9.335740320052581"><ele>203.0</ele><time>2026-05-02T13:32:56.009Z</time></trkpt><trkpt lat="46.15387345027975" lon="9.33565326774237"><ele>203.0</ele><time>2026-05-02T13:32:57.009Z</time></trkpt><trkpt lat="46.15379400995049" lon="9.335565965013126"><ele>203.33333333333334</ele><time>2026-05-02T13:32:58.009Z</time></trkpt><trkpt lat="46.1537213090444" lon="9.335486068723544"><ele>203.66666666666669</ele><time>2026-05-02T13:32:59.009Z</time></trkpt><trkpt lat="46.15365476885853" lon="9.335412942899078"><ele>204.0</ele><time>2026-05-02T13:33:00.009Z</time></trkpt><trkpt lat="46.153592342961815" lon="9.335344338557464"><ele>204.33333333333331</ele><time>2026-05-02T13:33:01.009Z</time></trkpt><trkpt lat="46.15352734543085" lon="9.335273718608676"><ele>204.66666666666666</ele><time>2026-05-02T13:33:02.009Z</time></trkpt><trkpt lat="46.15346043387725" lon="9.335200781103028"><ele>205.0</ele><time>2026-05-02T13:33:03.009Z</time></trkpt><trkpt lat="46.15340295967197" lon="9.33513813084587"><ele>204.99999999999997</ele><time>2026-05-02T13:33:04.009Z</time></trkpt><trkpt lat="46.153325107034995" lon="9.33505258711946"><ele>205.0</ele><time>2026-05-02T13:33:06.009Z</time></trkpt><trkpt lat="46.153258901911244" lon="9.334980051113664"><ele>205.0</ele><time>2026-05-02T13:33:09.01Z</time></trkpt><trkpt lat="46.153195974837594" lon="9.334911108381496"><ele>205.0</ele><time>2026-05-02T13:33:15.007Z</time></trkpt><trkpt lat="46.153130948823005" lon="9.334839864286813"><ele>204.99999999999997</ele><time>2026-05-02T13:33:17.007Z</time></trkpt><trkpt lat="46.15306962193842" lon="9.334772672892429"><ele>205.0</ele><time>2026-05-02T13:33:28.007Z</time></trkpt><trkpt lat="46.153018619098106" lon="9.334716792791085"><ele>205.2</ele><time>2026-05-02T13:33:30.007Z</time></trkpt><trkpt lat="46.15292014770502" lon="9.334608651856804"><ele>205.4</ele><time>2026-05-02T13:33:33.007Z</time></trkpt><trkpt lat="46.152862191838395" lon="9.334545523270204"><ele>205.60000000000002</ele><time>2026-05-02T13:33:34.007Z</time></trkpt><trkpt lat="46.152788987238836" lon="9.334465144316157"><ele>205.8</ele><time>2026-05-02T13:33:35.007Z</time></trkpt><trkpt lat="46.152713308541216" lon="9.334382256269906"><ele>206.0</ele><time>2026-05-02T13:33:36.007Z</time></trkpt><trkpt lat="46.15263296980994" lon="9.334294274831564"><ele>206.0</ele><time>2026-05-02T13:33:37.007Z</time></trkpt><trkpt lat="46.15255494534385" lon="9.334208827814633"><ele>206.0</ele><time>2026-05-02T13:33:38.007Z</time></trkpt><trkpt lat="46.152478121847615" lon="9.334124696013237"><ele>206.0</ele><time>2026-05-02T13:33:39.008Z</time></trkpt><trkpt lat="46.15240242238328" lon="9.334041795178376"><ele>206.0</ele><time>2026-05-02T13:33:40.008Z</time></trkpt><trkpt lat="46.152327128269114" lon="9.333959338005846"><ele>206.0</ele><time>2026-05-02T13:33:41.008Z</time></trkpt><trkpt lat="46.152247493304074" lon="9.333872802875648"><ele>205.75</ele><time>2026-05-02T13:33:42.008Z</time></trkpt><trkpt lat="46.15216412806451" lon="9.333781692211438"><ele>205.5</ele><time>2026-05-02T13:33:43.008Z</time></trkpt><trkpt lat="46.152075845704935" lon="9.33368520736425"><ele>205.25</ele><time>2026-05-02T13:33:44.008Z</time></trkpt><trkpt lat="46.15196161648268" lon="9.333630347369096"><ele>205.0</ele><time>2026-05-02T13:33:45.008Z</time></trkpt><trkpt lat="46.151864380648384" lon="9.333527678586849"><ele>205.0</ele><time>2026-05-02T13:33:46.008Z</time></trkpt><trkpt lat="46.15176697729556" lon="9.333417634788775"><ele>205.0</ele><time>2026-05-02T13:33:47.008Z</time></trkpt><trkpt lat="46.15166653199209" lon="9.333304523277537"><ele>205.0</ele><time>2026-05-02T13:33:48.008Z</time></trkpt><trkpt lat="46.151584959410314" lon="9.333152154648158"><ele>205.0</ele><time>2026-05-02T13:33:49.008Z</time></trkpt><trkpt lat="46.15148473108016" lon="9.333034642676411"><ele>205.0</ele><time>2026-05-02T13:33:50.008Z</time></trkpt><trkpt lat="46.151386683440855" lon="9.332910662009727"><ele>205.0</ele><time>2026-05-02T13:33:51.008Z</time></trkpt><trkpt lat="46.15129313676514" lon="9.332773021867448"><ele>205.0</ele><time>2026-05-02T13:33:52.008Z</time></trkpt><trkpt lat="46.15120268092921" lon="9.332631762700581"><ele>205.0</ele><time>2026-05-02T13:33:53.008Z</time></trkpt><trkpt lat="46.15111384356988" lon="9.332481504495696"><ele>205.0</ele><time>2026-05-02T13:33:54.008Z</time></trkpt><trkpt lat="46.1510325731952" lon="9.332319848912537"><ele>205.0</ele><time>2026-05-02T13:33:55.008Z</time></trkpt><trkpt lat="46.15096069882361" lon="9.33215119840177"><ele>205.0</ele><time>2026-05-02T13:33:56.008Z</time></trkpt><trkpt lat="46.150893849536196" lon="9.331977712632908"><ele>205.0</ele><time>2026-05-02T13:33:57.008Z</time></trkpt><trkpt lat="46.150836239403695" lon="9.331803414528162"><ele>205.0</ele><time>2026-05-02T13:33:58.008Z</time></trkpt><trkpt lat="46.15078655566331" lon="9.331631684104286"><ele>205.0</ele><time>2026-05-02T13:33:59.008Z</time></trkpt><trkpt lat="46.150743741742566" lon="9.331464469446816"><ele>205.0</ele><time>2026-05-02T13:34:00.008Z</time></trkpt><trkpt lat="46.15071112832932" lon="9.331298340523038"><ele>205.0</ele><time>2026-05-02T13:34:01.008Z</time></trkpt><trkpt lat="46.15068178307533" lon="9.33112681327145"><ele>205.0</ele><time>2026-05-02T13:34:02.008Z</time></trkpt><trkpt lat="46.15064040011564" lon="9.330954058578767"><ele>205.0</ele><time>2026-05-02T13:34:03.008Z</time></trkpt><trkpt lat="46.150634361963405" lon="9.330770982313942"><ele>205.0</ele><time>2026-05-02T13:34:04.008Z</time></trkpt><trkpt lat="46.15060906118308" lon="9.330595303316642"><ele>205.0</ele><time>2026-05-02T13:34:05.008Z</time></trkpt><trkpt lat="46.150576416989715" lon="9.330420890993965"><ele>204.5</ele><time>2026-05-02T13:34:06.008Z</time></trkpt><trkpt lat="46.150528528494384" lon="9.330257255627048"><ele>204.0</ele><time>2026-05-02T13:34:07.008Z</time></trkpt><trkpt lat="46.1504706308805" lon="9.330107979444241"><ele>203.5</ele><time>2026-05-02T13:34:08.008Z</time></trkpt><trkpt lat="46.15040004831214" lon="9.329971059242025"><ele>203.0</ele><time>2026-05-02T13:34:09.008Z</time></trkpt><trkpt lat="46.150315488967884" lon="9.329842396112934"><ele>203.0</ele><time>2026-05-02T13:34:10.008Z</time></trkpt><trkpt lat="46.15022298887406" lon="9.32973451795509"><ele>203.0</ele><time>2026-05-02T13:34:11.008Z</time></trkpt><trkpt lat="46.15012031383565" lon="9.329651125901895"><ele>203.0</ele><time>2026-05-02T13:34:12.008Z</time></trkpt><trkpt lat="46.15001669430217" lon="9.32958990391321"><ele>203.0</ele><time>2026-05-02T13:34:13.008Z</time></trkpt><trkpt lat="46.14991413318841" lon="9.32953425309711"><ele>202.83333333333334</ele><time>2026-05-02T13:34:14.008Z</time></trkpt><trkpt lat="46.14983598552836" lon="9.329447490632537"><ele>202.66666666666669</ele><time>2026-05-02T13:34:15.008Z</time></trkpt><trkpt lat="46.149778308622494" lon="9.329349419400621"><ele>202.5</ele><time>2026-05-02T13:34:16.008Z</time></trkpt><trkpt lat="46.14973720471888" lon="9.329247468025754"><ele>202.33333333333331</ele><time>2026-05-02T13:34:17.008Z</time></trkpt><trkpt lat="46.14970586551395" lon="9.329140662709662"><ele>202.16666666666666</ele><time>2026-05-02T13:34:18.008Z</time></trkpt><trkpt lat="46.14970063473437" lon="9.329017583389282"><ele>202.0</ele><time>2026-05-02T13:34:19.008Z</time></trkpt><trkpt lat="46.14971262242157" lon="9.328898810103773"><ele>202.39999999999998</ele><time>2026-05-02T13:34:20.008Z</time></trkpt><trkpt lat="46.14974253705392" lon="9.328779163036021"><ele>202.79999999999998</ele><time>2026-05-02T13:34:21.008Z</time></trkpt><trkpt lat="46.14979701389017" lon="9.328669032115142"><ele>203.2</ele><time>2026-05-02T13:34:22.008Z</time></trkpt><trkpt lat="46.14983773608052" lon="9.328546122265335"><ele>203.6</ele><time>2026-05-02T13:34:23.009Z</time></trkpt><trkpt lat="46.14987672504789" lon="9.328428223123169"><ele>204.0</ele><time>2026-05-02T13:34:24.009Z</time></trkpt><trkpt lat="46.14991511119124" lon="9.32831214679467"><ele>204.0</ele><time>2026-05-02T13:34:25.009Z</time></trkpt><trkpt lat="46.1499517659348" lon="9.328201833961593"><ele>204.0</ele><time>2026-05-02T13:34:26.009Z</time></trkpt><trkpt lat="46.149986470085345" lon="9.32809745977761"><ele>204.0</ele><time>2026-05-02T13:34:27.009Z</time></trkpt><trkpt lat="46.15002278137003" lon="9.327988252064586"><ele>204.0</ele><time>2026-05-02T13:34:28.009Z</time></trkpt><trkpt lat="46.15006095485592" lon="9.327873443751704"><ele>204.0</ele><time>2026-05-02T13:34:29.009Z</time></trkpt><trkpt lat="46.15009971839644" lon="9.327756860786971"><ele>204.0</ele><time>2026-05-02T13:34:30.009Z</time></trkpt><trkpt lat="46.150140638538765" lon="9.32763376303826"><ele>203.79999999999998</ele><time>2026-05-02T13:34:31.009Z</time></trkpt><trkpt lat="46.15018166452865" lon="9.327510063922206"><ele>203.6</ele><time>2026-05-02T13:34:32.009Z</time></trkpt><trkpt lat="46.15022191955754" lon="9.327387412568815"><ele>203.4</ele><time>2026-05-02T13:34:33.009Z</time></trkpt><trkpt lat="46.15026218816224" lon="9.327265862340164"><ele>203.2</ele><time>2026-05-02T13:34:34.009Z</time></trkpt><trkpt lat="46.15030399691456" lon="9.327139720525457"><ele>203.0</ele><time>2026-05-02T13:34:35.009Z</time></trkpt><trkpt lat="46.15034812774057" lon="9.327005016288417"><ele>202.4</ele><time>2026-05-02T13:34:36.009Z</time></trkpt><trkpt lat="46.15039282253459" lon="9.326868510165548"><ele>201.8</ele><time>2026-05-02T13:34:37.009Z</time></trkpt><trkpt lat="46.15043576501615" lon="9.326737355943326"><ele>201.2</ele><time>2026-05-02T13:34:38.009Z</time></trkpt><trkpt lat="46.15046526835153" lon="9.326591985321222"><ele>200.6</ele><time>2026-05-02T13:34:39.009Z</time></trkpt><trkpt lat="46.150512318505584" lon="9.326449953144687"><ele>200.0</ele><time>2026-05-02T13:34:40.009Z</time></trkpt><trkpt lat="46.150572581109486" lon="9.326321343899759"><ele>200.0</ele><time>2026-05-02T13:34:41.009Z</time></trkpt><trkpt lat="46.150613237933655" lon="9.326197793822285"><ele>200.0</ele><time>2026-05-02T13:34:42.009Z</time></trkpt><trkpt lat="46.1506491132826" lon="9.3260776634381"><ele>200.0</ele><time>2026-05-02T13:34:43.009Z</time></trkpt><trkpt lat="46.15066925634373" lon="9.32595067769492"><ele>200.0</ele><time>2026-05-02T13:34:44.009Z</time></trkpt><trkpt lat="46.1507050259386" lon="9.325837105200359"><ele>200.0</ele><time>2026-05-02T13:34:45.009Z</time></trkpt><trkpt lat="46.1507444167657" lon="9.325720787063997"><ele>200.2</ele><time>2026-05-02T13:34:46.009Z</time></trkpt><trkpt lat="46.15075590348447" lon="9.325588624518602"><ele>200.4</ele><time>2026-05-02T13:34:47.009Z</time></trkpt><trkpt lat="46.15075984028852" lon="9.325457182579392"><ele>200.60000000000002</ele><time>2026-05-02T13:34:48.009Z</time></trkpt><trkpt lat="46.150741529481" lon="9.32530851930738"><ele>200.8</ele><time>2026-05-02T13:34:49.009Z</time></trkpt><trkpt lat="46.15073210382373" lon="9.325168082445305"><ele>201.0</ele><time>2026-05-02T13:34:50.009Z</time></trkpt><trkpt lat="46.150698513138835" lon="9.325016344882012"><ele>201.0</ele><time>2026-05-02T13:34:51.009Z</time></trkpt><trkpt lat="46.15065670450805" lon="9.324875831683812"><ele>201.0</ele><time>2026-05-02T13:34:52.009Z</time></trkpt><trkpt lat="46.150608335881664" lon="9.324751233126111"><ele>201.0</ele><time>2026-05-02T13:34:53.009Z</time></trkpt><trkpt lat="46.15055814799695" lon="9.32464584633251"><ele>201.0</ele><time>2026-05-02T13:34:54.009Z</time></trkpt><trkpt lat="46.15050757315864" lon="9.324549295626857"><ele>201.0</ele><time>2026-05-02T13:34:55.009Z</time></trkpt><trkpt lat="46.1504571569229" lon="9.324456882542862"><ele>201.42857142857142</ele><time>2026-05-02T13:34:56.009Z</time></trkpt><trkpt lat="46.150409279037966" lon="9.324370288208248"><ele>201.85714285714286</ele><time>2026-05-02T13:34:57.009Z</time></trkpt><trkpt lat="46.15036149110771" lon="9.324289312862014"><ele>202.28571428571428</ele><time>2026-05-02T13:34:58.009Z</time></trkpt><trkpt lat="46.15031514016607" lon="9.324208342707228"><ele>202.71428571428572</ele><time>2026-05-02T13:34:59.009Z</time></trkpt><trkpt lat="46.15027211139204" lon="9.324130039780394"><ele>203.14285714285717</ele><time>2026-05-02T13:35:00.009Z</time></trkpt><trkpt lat="46.150226544272456" lon="9.324055682099935"><ele>203.57142857142858</ele><time>2026-05-02T13:35:01.009Z</time></trkpt><trkpt lat="46.15018619193349" lon="9.3239825717183"><ele>204.0</ele><time>2026-05-02T13:35:02.009Z</time></trkpt><trkpt lat="46.15012519405751" lon="9.323864144685519"><ele>204.39999999999998</ele><time>2026-05-02T13:35:04.009Z</time></trkpt><trkpt lat="46.15007256289338" lon="9.323768496301188"><ele>204.8</ele><time>2026-05-02T13:35:06.009Z</time></trkpt><trkpt lat="46.15002391416905" lon="9.32367974358466"><ele>205.2</ele><time>2026-05-02T13:35:08.01Z</time></trkpt><trkpt lat="46.149970370821755" lon="9.323565497619127"><ele>205.60000000000002</ele><time>2026-05-02T13:35:10.01Z</time></trkpt><trkpt lat="46.149899931766505" lon="9.323427323387763"><ele>206.0</ele><time>2026-05-02T13:35:12.01Z</time></trkpt><trkpt lat="46.1498525064014" lon="9.323262379266252"><ele>204.99999999999997</ele><time>2026-05-02T13:35:14.01Z</time></trkpt><trkpt lat="46.149838827486306" lon="9.323158339241965"><ele>204.0</ele><time>2026-05-02T13:35:15.01Z</time></trkpt><trkpt lat="46.14982605351944" lon="9.323052458164815"><ele>203.0</ele><time>2026-05-02T13:35:16.01Z</time></trkpt><trkpt lat="46.149811369238385" lon="9.322948308563687"><ele>202.0</ele><time>2026-05-02T13:35:17.01Z</time></trkpt><trkpt lat="46.14979497824563" lon="9.322838454698086"><ele>201.0</ele><time>2026-05-02T13:35:18.008Z</time></trkpt><trkpt lat="46.149783684598354" lon="9.322731045908526"><ele>199.99999999999997</ele><time>2026-05-02T13:35:19.007Z</time></trkpt><trkpt lat="46.149768023545214" lon="9.322627594313747"><ele>199.0</ele><time>2026-05-02T13:35:20.007Z</time></trkpt><trkpt lat="46.149753993513" lon="9.322528279410616"><ele>199.0</ele><time>2026-05-02T13:35:21.007Z</time></trkpt><trkpt lat="46.14974245797239" lon="9.322437795401523"><ele>199.0</ele><time>2026-05-02T13:35:22.008Z</time></trkpt><trkpt lat="46.14972602722772" lon="9.322282586787782"><ele>199.0</ele><time>2026-05-02T13:35:24.008Z</time></trkpt><trkpt lat="46.14970535358856" lon="9.322148028357285"><ele>199.0</ele><time>2026-05-02T13:35:26.008Z</time></trkpt><trkpt lat="46.149671032529184" lon="9.322022070419468"><ele>199.0</ele><time>2026-05-02T13:35:28.008Z</time></trkpt><trkpt lat="46.14963313585783" lon="9.321897259111095"><ele>199.6</ele><time>2026-05-02T13:35:30.008Z</time></trkpt><trkpt lat="46.14958149775436" lon="9.32178061422314"><ele>200.2</ele><time>2026-05-02T13:35:32.008Z</time></trkpt><trkpt lat="46.149522296079134" lon="9.321646980033965"><ele>200.79999999999998</ele><time>2026-05-02T13:35:34.008Z</time></trkpt><trkpt lat="46.14945096862533" lon="9.321501680386966"><ele>201.39999999999998</ele><time>2026-05-02T13:35:36.008Z</time></trkpt><trkpt lat="46.14941003643952" lon="9.321425837156722"><ele>202.0</ele><time>2026-05-02T13:35:37.008Z</time></trkpt><trkpt lat="46.149371976463016" lon="9.321343094370587"><ele>201.99999999999997</ele><time>2026-05-02T13:35:38.008Z</time></trkpt><trkpt lat="46.14933257693537" lon="9.321259579956562"><ele>202.0</ele><time>2026-05-02T13:35:39.008Z</time></trkpt><trkpt lat="46.149293482206104" lon="9.321172519234398"><ele>202.0</ele><time>2026-05-02T13:35:40.008Z</time></trkpt><trkpt lat="46.149255895079534" lon="9.321067983219372"><ele>202.0</ele><time>2026-05-02T13:35:41.008Z</time></trkpt><trkpt lat="46.149218363227874" lon="9.320957189742757"><ele>201.99999999999997</ele><time>2026-05-02T13:35:42.008Z</time></trkpt><trkpt lat="46.14918461035639" lon="9.320836033730078"><ele>202.0</ele><time>2026-05-02T13:35:43.008Z</time></trkpt><trkpt lat="46.149154835407835" lon="9.320703717059724"><ele>201.99999999999997</ele><time>2026-05-02T13:35:44.008Z</time></trkpt><trkpt lat="46.14913346169161" lon="9.320570391025168"><ele>202.0</ele><time>2026-05-02T13:35:45.008Z</time></trkpt><trkpt lat="46.14912255233938" lon="9.320444197915752"><ele>202.0</ele><time>2026-05-02T13:35:46.008Z</time></trkpt><trkpt lat="46.1491157997627" lon="9.320324228351987"><ele>202.0</ele><time>2026-05-02T13:35:47.008Z</time></trkpt><trkpt lat="46.14911013647694" lon="9.320210170102397"><ele>201.99999999999997</ele><time>2026-05-02T13:35:48.008Z</time></trkpt><trkpt lat="46.14910524139893" lon="9.320085301806882"><ele>202.0</ele><time>2026-05-02T13:35:49.008Z</time></trkpt><trkpt lat="46.14910375809784" lon="9.319961091424389"><ele>202.8</ele><time>2026-05-02T13:35:50.008Z</time></trkpt><trkpt lat="46.149101830550684" lon="9.319826500476017"><ele>203.6</ele><time>2026-05-02T13:35:51.008Z</time></trkpt><trkpt lat="46.149103940701295" lon="9.319693090810825"><ele>204.4</ele><time>2026-05-02T13:35:52.008Z</time></trkpt><trkpt lat="46.14910622084927" lon="9.319550395298664"><ele>205.20000000000002</ele><time>2026-05-02T13:35:53.008Z</time></trkpt><trkpt lat="46.14910514371935" lon="9.319398487312805"><ele>206.0</ele><time>2026-05-02T13:35:54.009Z</time></trkpt><trkpt lat="46.14910793269609" lon="9.319244434183382"><ele>206.0</ele><time>2026-05-02T13:35:55.009Z</time></trkpt><trkpt lat="46.14911488775153" lon="9.31909572524673"><ele>206.0</ele><time>2026-05-02T13:35:56.009Z</time></trkpt><trkpt lat="46.149120332730384" lon="9.31895530832137"><ele>206.0</ele><time>2026-05-02T13:35:57.009Z</time></trkpt><trkpt lat="46.14912718109889" lon="9.318813041198728"><ele>206.0</ele><time>2026-05-02T13:35:58.009Z</time></trkpt><trkpt lat="46.14916886081361" lon="9.318659851784489"><ele>206.0</ele><time>2026-05-02T13:35:59.009Z</time></trkpt><trkpt lat="46.149185269587875" lon="9.318521466828704"><ele>206.60000000000002</ele><time>2026-05-02T13:36:00.009Z</time></trkpt><trkpt lat="46.14920166141115" lon="9.318377326381135"><ele>207.2</ele><time>2026-05-02T13:36:01.009Z</time></trkpt><trkpt lat="46.14921790385704" lon="9.318232926969406"><ele>207.8</ele><time>2026-05-02T13:36:02.009Z</time></trkpt><trkpt lat="46.14923924141726" lon="9.318090049028418"><ele>208.39999999999998</ele><time>2026-05-02T13:36:03.009Z</time></trkpt><trkpt lat="46.14926074891438" lon="9.317941227048617"><ele>209.0</ele><time>2026-05-02T13:36:04.009Z</time></trkpt><trkpt lat="46.14927764591521" lon="9.31778640601522"><ele>209.39999999999998</ele><time>2026-05-02T13:36:05.009Z</time></trkpt><trkpt lat="46.149298549585545" lon="9.317631609197976"><ele>209.8</ele><time>2026-05-02T13:36:06.009Z</time></trkpt><trkpt lat="46.14932239544412" lon="9.317482138406548"><ele>210.2</ele><time>2026-05-02T13:36:07.009Z</time></trkpt><trkpt lat="46.149342692043234" lon="9.317343753189522"><ele>210.60000000000002</ele><time>2026-05-02T13:36:08.009Z</time></trkpt><trkpt lat="46.14936236127115" lon="9.317213849877675"><ele>211.0</ele><time>2026-05-02T13:36:09.009Z</time></trkpt><trkpt lat="46.14938482211851" lon="9.317080096907246"><ele>211.0</ele><time>2026-05-02T13:36:10.009Z</time></trkpt><trkpt lat="46.149407580618714" lon="9.316932655429376"><ele>211.0</ele><time>2026-05-02T13:36:11.009Z</time></trkpt><trkpt lat="46.14943092968726" lon="9.316778481169884"><ele>211.0</ele><time>2026-05-02T13:36:12.009Z</time></trkpt><trkpt lat="46.14945185044058" lon="9.316620664123802"><ele>211.0</ele><time>2026-05-02T13:36:13.009Z</time></trkpt><trkpt lat="46.149466147314" lon="9.316461416806582"><ele>211.0</ele><time>2026-05-02T13:36:14.009Z</time></trkpt><trkpt lat="46.14947031219416" lon="9.316304634719678"><ele>211.0</ele><time>2026-05-02T13:36:15.009Z</time></trkpt><trkpt lat="46.14946773432037" lon="9.316156157276417"><ele>211.0</ele><time>2026-05-02T13:36:16.009Z</time></trkpt><trkpt lat="46.14946019139701" lon="9.316015405994037"><ele>211.0</ele><time>2026-05-02T13:36:17.009Z</time></trkpt><trkpt lat="46.14945148215712" lon="9.315881696045452"><ele>211.0</ele><time>2026-05-02T13:36:18.009Z</time></trkpt><trkpt lat="46.14943617704347" lon="9.315755910685567"><ele>211.0</ele><time>2026-05-02T13:36:19.009Z</time></trkpt><trkpt lat="46.149422567173815" lon="9.315641858163662"><ele>211.33333333333331</ele><time>2026-05-02T13:36:20.009Z</time></trkpt><trkpt lat="46.14940885823943" lon="9.31553526851719"><ele>211.66666666666666</ele><time>2026-05-02T13:36:21.009Z</time></trkpt><trkpt lat="46.14939645492389" lon="9.315435443841771"><ele>212.0</ele><time>2026-05-02T13:36:22.009Z</time></trkpt><trkpt lat="46.14937906553651" lon="9.315332894134855"><ele>212.33333333333331</ele><time>2026-05-02T13:36:23.009Z</time></trkpt><trkpt lat="46.149359855153946" lon="9.315240935960341"><ele>212.66666666666666</ele><time>2026-05-02T13:36:24.009Z</time></trkpt><trkpt lat="46.14933685667392" lon="9.315154495502743"><ele>213.0</ele><time>2026-05-02T13:36:25.009Z</time></trkpt><trkpt lat="46.14929514491273" lon="9.314981615769794"><ele>213.0</ele><time>2026-05-02T13:36:27.009Z</time></trkpt><trkpt lat="46.14928306764425" lon="9.314887365290554"><ele>213.0</ele><time>2026-05-02T13:36:28.009Z</time></trkpt><trkpt lat="46.14927128240704" lon="9.314787885004229"><ele>213.0</ele><time>2026-05-02T13:36:29.009Z</time></trkpt><trkpt lat="46.149257807955514" lon="9.314685849235698"><ele>213.0</ele><time>2026-05-02T13:36:30.009Z</time></trkpt><trkpt lat="46.14924930333581" lon="9.314591916426169"><ele>213.0</ele><time>2026-05-02T13:36:31.009Z</time></trkpt><trkpt lat="46.149241329589046" lon="9.314420952174803"><ele>213.0</ele><time>2026-05-02T13:36:33.009Z</time></trkpt><trkpt lat="46.1492374983065" lon="9.314291954436975"><ele>213.83333333333334</ele><time>2026-05-02T13:36:35.009Z</time></trkpt><trkpt lat="46.14923128228751" lon="9.314187204085481"><ele>214.66666666666669</ele><time>2026-05-02T13:36:37.009Z</time></trkpt><trkpt lat="46.149219550325554" lon="9.314065933358059"><ele>215.5</ele><time>2026-05-02T13:36:40.01Z</time></trkpt><trkpt lat="46.14921083061702" lon="9.313959976400536"><ele>216.33333333333334</ele><time>2026-05-02T13:36:43.01Z</time></trkpt><trkpt lat="46.14921069630376" lon="9.313840875818581"><ele>217.16666666666669</ele><time>2026-05-02T13:36:45.01Z</time></trkpt><trkpt lat="46.14919882966793" lon="9.313699932366182"><ele>218.0</ele><time>2026-05-02T13:36:47.01Z</time></trkpt><trkpt lat="46.14919185434576" lon="9.313581870114323"><ele>218.16666666666669</ele><time>2026-05-02T13:36:49.01Z</time></trkpt><trkpt lat="46.14922066357963" lon="9.31347302181579"><ele>218.33333333333334</ele><time>2026-05-02T13:36:51.01Z</time></trkpt><trkpt lat="46.149216258481815" lon="9.31337982128167"><ele>218.5</ele><time>2026-05-02T13:36:53.01Z</time></trkpt><trkpt lat="46.149209356779295" lon="9.313250441906574"><ele>218.66666666666669</ele><time>2026-05-02T13:36:55.01Z</time></trkpt><trkpt lat="46.14920363759183" lon="9.313102923758949"><ele>218.83333333333334</ele><time>2026-05-02T13:36:57.01Z</time></trkpt><trkpt lat="46.14919809859663" lon="9.312965825323838"><ele>219.0</ele><time>2026-05-02T13:36:59.01Z</time></trkpt><trkpt lat="46.14919757215874" lon="9.312856147037769"><ele>219.16666666666666</ele><time>2026-05-02T13:37:01.01Z</time></trkpt><trkpt lat="46.149192064072714" lon="9.312738527721582"><ele>219.33333333333331</ele><time>2026-05-02T13:37:04.01Z</time></trkpt><trkpt lat="46.149176664355984" lon="9.312626846598533"><ele>219.5</ele><time>2026-05-02T13:37:07.01Z</time></trkpt><trkpt lat="46.149152144328006" lon="9.312501662503072"><ele>219.66666666666666</ele><time>2026-05-02T13:37:10.01Z</time></trkpt><trkpt lat="46.14913321927925" lon="9.312370803544761"><ele>219.83333333333331</ele><time>2026-05-02T13:37:13.01Z</time></trkpt><trkpt lat="46.14911839195612" lon="9.312263342087743"><ele>220.0</ele><time>2026-05-02T13:37:15.01Z</time></trkpt><trkpt lat="46.14909516656336" lon="9.312122487619833"><ele>220.6</ele><time>2026-05-02T13:37:17.01Z</time></trkpt><trkpt lat="46.149065143321884" lon="9.311954054636363"><ele>221.2</ele><time>2026-05-02T13:37:19.01Z</time></trkpt><trkpt lat="46.149043465662515" lon="9.311799655930454"><ele>221.8</ele><time>2026-05-02T13:37:21.01Z</time></trkpt><trkpt lat="46.14902848501215" lon="9.311671761494948"><ele>222.4</ele><time>2026-05-02T13:37:23.011Z</time></trkpt><trkpt lat="46.149014793956006" lon="9.311552795247112"><ele>223.0</ele><time>2026-05-02T13:37:25.008Z</time></trkpt><trkpt lat="46.14899978512738" lon="9.311412058926043"><ele>219.99999999999997</ele><time>2026-05-02T13:37:27.008Z</time></trkpt><trkpt lat="46.14897365648904" lon="9.31123414670422"><ele>217.0</ele><time>2026-05-02T13:37:29.008Z</time></trkpt><trkpt lat="46.148960045946964" lon="9.311130826898411"><ele>214.0</ele><time>2026-05-02T13:37:30.008Z</time></trkpt><trkpt lat="46.14894531772447" lon="9.311028591092942"><ele>211.0</ele><time>2026-05-02T13:37:31.008Z</time></trkpt><trkpt lat="46.14892788377718" lon="9.310919780706982"><ele>207.99999999999997</ele><time>2026-05-02T13:37:32.008Z</time></trkpt><trkpt lat="46.14891189673456" lon="9.310802921464042"><ele>205.0</ele><time>2026-05-02T13:37:33.008Z</time></trkpt><trkpt lat="46.14891227652522" lon="9.31067607569001"><ele>205.83333333333331</ele><time>2026-05-02T13:37:34.008Z</time></trkpt><trkpt lat="46.148896622865976" lon="9.310549913828789"><ele>206.66666666666666</ele><time>2026-05-02T13:37:35.008Z</time></trkpt><trkpt lat="46.14886613670446" lon="9.31043323019418"><ele>207.5</ele><time>2026-05-02T13:37:36.008Z</time></trkpt><trkpt lat="46.14887532816336" lon="9.310299818938134"><ele>208.33333333333331</ele><time>2026-05-02T13:37:37.008Z</time></trkpt><trkpt lat="46.14886151235855" lon="9.310185085898382"><ele>209.16666666666666</ele><time>2026-05-02T13:37:38.008Z</time></trkpt><trkpt lat="46.148845287452" lon="9.310081728781336"><ele>210.0</ele><time>2026-05-02T13:37:39.008Z</time></trkpt><trkpt lat="46.14883335542047" lon="9.309983869510225"><ele>210.0</ele><time>2026-05-02T13:37:40.008Z</time></trkpt><trkpt lat="46.14881596823001" lon="9.309884970701356"><ele>210.0</ele><time>2026-05-02T13:37:41.008Z</time></trkpt><trkpt lat="46.14880467942975" lon="9.309776772355033"><ele>210.0</ele><time>2026-05-02T13:37:42.008Z</time></trkpt><trkpt lat="46.148786523559274" lon="9.309658218079038"><ele>210.0</ele><time>2026-05-02T13:37:43.009Z</time></trkpt><trkpt lat="46.14876721257" lon="9.309541671667048"><ele>210.0</ele><time>2026-05-02T13:37:44.009Z</time></trkpt><trkpt lat="46.1487495677032" lon="9.3094309077386"><ele>210.0</ele><time>2026-05-02T13:37:45.009Z</time></trkpt><trkpt lat="46.14873693760694" lon="9.309329646146825"><ele>211.16666666666666</ele><time>2026-05-02T13:37:46.009Z</time></trkpt><trkpt lat="46.14872290636672" lon="9.309229482400378"><ele>212.33333333333331</ele><time>2026-05-02T13:37:47.009Z</time></trkpt><trkpt lat="46.14870814202417" lon="9.309135638015515"><ele>213.5</ele><time>2026-05-02T13:37:48.009Z</time></trkpt><trkpt lat="46.14869652002653" lon="9.309036782755948"><ele>214.66666666666666</ele><time>2026-05-02T13:37:49.009Z</time></trkpt><trkpt lat="46.14868420014061" lon="9.308945526806877"><ele>215.83333333333331</ele><time>2026-05-02T13:37:50.009Z</time></trkpt><trkpt lat="46.148665537042056" lon="9.308797975357418"><ele>217.0</ele><time>2026-05-02T13:37:52.009Z</time></trkpt><trkpt lat="46.14865153707497" lon="9.308619313635942"><ele>217.39999999999998</ele><time>2026-05-02T13:37:54.009Z</time></trkpt><trkpt lat="46.14864188647443" lon="9.308529236718906"><ele>217.79999999999998</ele><time>2026-05-02T13:37:55.009Z</time></trkpt><trkpt lat="46.1486362839179" lon="9.308360597358789"><ele>218.2</ele><time>2026-05-02T13:37:57.009Z</time></trkpt><trkpt lat="46.148641957874986" lon="9.308198779104575"><ele>218.6</ele><time>2026-05-02T13:37:59.009Z</time></trkpt><trkpt lat="46.14864552805185" lon="9.308031567130225"><ele>219.0</ele><time>2026-05-02T13:38:01.009Z</time></trkpt><trkpt lat="46.14864614658353" lon="9.307856476989565"><ele>220.0</ele><time>2026-05-02T13:38:03.009Z</time></trkpt><trkpt lat="46.14863391631178" lon="9.30775957258426"><ele>220.99999999999997</ele><time>2026-05-02T13:38:04.009Z</time></trkpt><trkpt lat="46.14861107102417" lon="9.307598706051419"><ele>221.99999999999997</ele><time>2026-05-02T13:38:06.009Z</time></trkpt><trkpt lat="46.148589137153145" lon="9.307452248889382"><ele>223.0</ele><time>2026-05-02T13:38:08.009Z</time></trkpt><trkpt lat="46.14857034502048" lon="9.307326769722401"><ele>224.0</ele><time>2026-05-02T13:38:10.009Z</time></trkpt><trkpt lat="46.14855533242472" lon="9.307217030747056"><ele>224.33333333333334</ele><time>2026-05-02T13:38:12.009Z</time></trkpt><trkpt lat="46.148539644075555" lon="9.307103596295967"><ele>224.66666666666669</ele><time>2026-05-02T13:38:14.009Z</time></trkpt><trkpt lat="46.14852593272004" lon="9.306996928765118"><ele>225.0</ele><time>2026-05-02T13:38:16.009Z</time></trkpt><trkpt lat="46.14851340968019" lon="9.30690159712864"><ele>225.33333333333331</ele><time>2026-05-02T13:38:19.009Z</time></trkpt><trkpt lat="46.14849930104926" lon="9.306798544281119"><ele>225.66666666666666</ele><time>2026-05-02T13:38:30.01Z</time></trkpt><trkpt lat="46.148484917888545" lon="9.306698943259374"><ele>226.0</ele><time>2026-05-02T13:38:32.01Z</time></trkpt><trkpt lat="46.14846687128338" lon="9.30657940427423"><ele>226.0</ele><time>2026-05-02T13:38:34.01Z</time></trkpt><trkpt lat="46.14844482590342" lon="9.30643684395337"><ele>226.00000000000003</ele><time>2026-05-02T13:38:36.01Z</time></trkpt><trkpt lat="46.14841772053255" lon="9.306261705776182"><ele>226.00000000000003</ele><time>2026-05-02T13:38:38.01Z</time></trkpt><trkpt lat="46.148402047823694" lon="9.306146442175226"><ele>226.0</ele><time>2026-05-02T13:38:39.01Z</time></trkpt><trkpt lat="46.1483550196447" lon="9.30604404545923"><ele>226.0</ele><time>2026-05-02T13:38:40.01Z</time></trkpt><trkpt lat="46.148335894672606" lon="9.305929650761826"><ele>225.83333333333331</ele><time>2026-05-02T13:38:41.01Z</time></trkpt><trkpt lat="46.14833318505846" lon="9.305813165908456"><ele>225.66666666666666</ele><time>2026-05-02T13:38:42.01Z</time></trkpt><trkpt lat="46.148344166522165" lon="9.305685950864776"><ele>225.5</ele><time>2026-05-02T13:38:43.01Z</time></trkpt><trkpt lat="46.14836421835066" lon="9.30556436113953"><ele>225.33333333333331</ele><time>2026-05-02T13:38:44.01Z</time></trkpt><trkpt lat="46.148409036789324" lon="9.305451171826421"><ele>225.16666666666666</ele><time>2026-05-02T13:38:45.01Z</time></trkpt><trkpt lat="46.148451373257124" lon="9.305319475423923"><ele>225.0</ele><time>2026-05-02T13:38:46.01Z</time></trkpt><trkpt lat="46.14848485296648" lon="9.30517196878876"><ele>224.4</ele><time>2026-05-02T13:38:47.01Z</time></trkpt><trkpt lat="46.14853959446959" lon="9.305037149473252"><ele>223.8</ele><time>2026-05-02T13:38:48.01Z</time></trkpt><trkpt lat="46.14858153048479" lon="9.304891362853962"><ele>223.2</ele><time>2026-05-02T13:38:49.01Z</time></trkpt><trkpt lat="46.14860065562984" lon="9.304750131480343"><ele>222.6</ele><time>2026-05-02T13:38:50.01Z</time></trkpt><trkpt lat="46.148600924412456" lon="9.304611399723356"><ele>222.0</ele><time>2026-05-02T13:38:51.01Z</time></trkpt><trkpt lat="46.14857777731513" lon="9.304481486812557"><ele>223.2</ele><time>2026-05-02T13:38:52.01Z</time></trkpt><trkpt lat="46.148553677669746" lon="9.304349430124613"><ele>224.39999999999998</ele><time>2026-05-02T13:38:53.01Z</time></trkpt><trkpt lat="46.14848790483838" lon="9.304255404894775"><ele>225.60000000000002</ele><time>2026-05-02T13:38:54.01Z</time></trkpt><trkpt lat="46.14843234402481" lon="9.304144066506028"><ele>226.8</ele><time>2026-05-02T13:38:55.01Z</time></trkpt><trkpt lat="46.148370108717124" lon="9.304031339011782"><ele>228.0</ele><time>2026-05-02T13:38:56.01Z</time></trkpt><trkpt lat="46.148305966385095" lon="9.303923201331495"><ele>227.83333333333334</ele><time>2026-05-02T13:38:57.01Z</time></trkpt><trkpt lat="46.14824777867564" lon="9.303829785603154"><ele>227.66666666666669</ele><time>2026-05-02T13:38:58.01Z</time></trkpt><trkpt lat="46.14819539527262" lon="9.303745503265251"><ele>227.5</ele><time>2026-05-02T13:38:59.01Z</time></trkpt><trkpt lat="46.148142307456446" lon="9.303661950212096"><ele>227.33333333333334</ele><time>2026-05-02T13:39:00.01Z</time></trkpt><trkpt lat="46.148090012817384" lon="9.303577987837489"><ele>227.16666666666669</ele><time>2026-05-02T13:39:01.01Z</time></trkpt><trkpt lat="46.14803694842379" lon="9.30349053881902"><ele>227.0</ele><time>2026-05-02T13:39:02.01Z</time></trkpt><trkpt lat="46.14799293757506" lon="9.303390435303637"><ele>227.00000000000003</ele><time>2026-05-02T13:39:03.01Z</time></trkpt><trkpt lat="46.147941653115296" lon="9.303303950854671"><ele>227.0</ele><time>2026-05-02T13:39:04.01Z</time></trkpt><trkpt lat="46.147889872525255" lon="9.303216629305652"><ele>227.0</ele><time>2026-05-02T13:39:05.01Z</time></trkpt><trkpt lat="46.14783910485186" lon="9.303136948896201"><ele>227.0</ele><time>2026-05-02T13:39:06.01Z</time></trkpt><trkpt lat="46.14778851323126" lon="9.30305500091598"><ele>227.00000000000003</ele><time>2026-05-02T13:39:07.01Z</time></trkpt><trkpt lat="46.147735849215564" lon="9.30296552223223"><ele>227.0</ele><time>2026-05-02T13:39:08.01Z</time></trkpt><trkpt lat="46.14768190828766" lon="9.302873873942792"><ele>227.00000000000003</ele><time>2026-05-02T13:39:09.01Z</time></trkpt><trkpt lat="46.147628462513886" lon="9.302782890840504"><ele>227.0</ele><time>2026-05-02T13:39:10.01Z</time></trkpt><trkpt lat="46.14756301306686" lon="9.302704296908537"><ele>227.0</ele><time>2026-05-02T13:39:11.011Z</time></trkpt><trkpt lat="46.147509495128254" lon="9.302596311789921"><ele>227.0</ele><time>2026-05-02T13:39:12.011Z</time></trkpt><trkpt lat="46.147417347781044" lon="9.302558298457905"><ele>227.00000000000003</ele><time>2026-05-02T13:39:13.011Z</time></trkpt><trkpt lat="46.14732842397835" lon="9.302527930301569"><ele>227.0</ele><time>2026-05-02T13:39:14.011Z</time></trkpt><trkpt lat="46.14722429441705" lon="9.302498102795537"><ele>227.00000000000003</ele><time>2026-05-02T13:39:15.011Z</time></trkpt><trkpt lat="46.14712822399719" lon="9.302476358538161"><ele>227.0</ele><time>2026-05-02T13:39:16.011Z</time></trkpt><trkpt lat="46.14704001272846" lon="9.30246531692482"><ele>227.0</ele><time>2026-05-02T13:39:17.011Z</time></trkpt><trkpt lat="46.146957290362316" lon="9.302458921666018"><ele>227.0</ele><time>2026-05-02T13:39:18.011Z</time></trkpt><trkpt lat="46.14687989137263" lon="9.302434458877988"><ele>227.00000000000003</ele><time>2026-05-02T13:39:19.011Z</time></trkpt><trkpt lat="46.146795712390464" lon="9.30241586331233"><ele>227.0</ele><time>2026-05-02T13:39:20.011Z</time></trkpt><trkpt lat="46.14670735141869" lon="9.302399200478067"><ele>227.0</ele><time>2026-05-02T13:39:21.011Z</time></trkpt><trkpt lat="46.14661676476253" lon="9.302386192334732"><ele>227.0</ele><time>2026-05-02T13:39:22.011Z</time></trkpt><trkpt lat="46.14652704252847" lon="9.302368092513563"><ele>227.0</ele><time>2026-05-02T13:39:23.011Z</time></trkpt><trkpt lat="46.14643478667836" lon="9.302346676238946"><ele>227.0</ele><time>2026-05-02T13:39:24.011Z</time></trkpt><trkpt lat="46.14634782196607" lon="9.302315499332686"><ele>227.0</ele><time>2026-05-02T13:39:25.011Z</time></trkpt><trkpt lat="46.14626426168466" lon="9.30229047014555"><ele>227.2</ele><time>2026-05-02T13:39:26.011Z</time></trkpt><trkpt lat="46.14619931128616" lon="9.302215862165719"><ele>227.39999999999998</ele><time>2026-05-02T13:39:27.011Z</time></trkpt><trkpt lat="46.146129492039144" lon="9.302124605448178"><ele>227.60000000000002</ele><time>2026-05-02T13:39:28.011Z</time></trkpt><trkpt lat="46.146053678332606" lon="9.30203154258814"><ele>227.8</ele><time>2026-05-02T13:39:29.011Z</time></trkpt><trkpt lat="46.14596821022255" lon="9.301923897456259"><ele>228.0</ele><time>2026-05-02T13:39:30.008Z</time></trkpt><trkpt lat="46.14588269413265" lon="9.301816191904852"><ele>228.0</ele><time>2026-05-02T13:39:31.008Z</time></trkpt><trkpt lat="46.14579712320457" lon="9.30170841727577"><ele>228.0</ele><time>2026-05-02T13:39:32.008Z</time></trkpt><trkpt lat="46.14571709313764" lon="9.301607621228388"><ele>228.0</ele><time>2026-05-02T13:39:33.007Z</time></trkpt><trkpt lat="46.14564278132969" lon="9.301514027231535"><ele>228.0</ele><time>2026-05-02T13:39:34.007Z</time></trkpt><trkpt lat="46.14557304004934" lon="9.301426263784602"><ele>228.0</ele><time>2026-05-02T13:39:35.007Z</time></trkpt><trkpt lat="46.14550688688485" lon="9.301343057286955"><ele>228.0</ele><time>2026-05-02T13:39:36.008Z</time></trkpt><trkpt lat="46.14544596906339" lon="9.301266435767602"><ele>228.0</ele><time>2026-05-02T13:39:37.007Z</time></trkpt><trkpt lat="46.145374977480024" lon="9.301207787368943"><ele>228.0</ele><time>2026-05-02T13:39:38.007Z</time></trkpt><trkpt lat="46.14532377095872" lon="9.301112906644233"><ele>228.0</ele><time>2026-05-02T13:39:39.008Z</time></trkpt><trkpt lat="46.14526034822624" lon="9.301035936784764"><ele>228.0</ele><time>2026-05-02T13:39:40.007Z</time></trkpt><trkpt lat="46.14519350649729" lon="9.300957691611362"><ele>228.0</ele><time>2026-05-02T13:39:41.007Z</time></trkpt><trkpt lat="46.14512441511052" lon="9.300876812980565"><ele>228.0</ele><time>2026-05-02T13:39:42.008Z</time></trkpt><trkpt lat="46.145050866602546" lon="9.30082072790578"><ele>227.99999999999997</ele><time>2026-05-02T13:39:43.008Z</time></trkpt><trkpt lat="46.145002259279536" lon="9.300737593320433"><ele>228.0</ele><time>2026-05-02T13:39:44.008Z</time></trkpt><trkpt lat="46.144949085979505" lon="9.300669691844654"><ele>228.0</ele><time>2026-05-02T13:39:45.008Z</time></trkpt><trkpt lat="46.1448984964316" lon="9.300606094328222"><ele>227.99999999999997</ele><time>2026-05-02T13:39:46.008Z</time></trkpt><trkpt lat="46.14484686044119" lon="9.300542727721659"><ele>228.0</ele><time>2026-05-02T13:39:47.008Z</time></trkpt><trkpt lat="46.14479272205831" lon="9.300479739205814"><ele>228.0</ele><time>2026-05-02T13:39:48.008Z</time></trkpt><trkpt lat="46.144737827371884" lon="9.300417026515781"><ele>226.66666666666666</ele><time>2026-05-02T13:39:49.008Z</time></trkpt><trkpt lat="46.144686021501485" lon="9.30035556090425"><ele>225.33333333333331</ele><time>2026-05-02T13:39:50.008Z</time></trkpt><trkpt lat="46.1446362527058" lon="9.300295338168626"><ele>224.0</ele><time>2026-05-02T13:39:51.008Z</time></trkpt><trkpt lat="46.144563666115566" lon="9.300172653588811"><ele>222.66666666666666</ele><time>2026-05-02T13:39:53.008Z</time></trkpt><trkpt lat="46.144495201565356" lon="9.300100528076639"><ele>221.33333333333331</ele><time>2026-05-02T13:39:55.008Z</time></trkpt><trkpt lat="46.144467906776924" lon="9.300016780403658"><ele>220.0</ele><time>2026-05-02T13:39:58.008Z</time></trkpt><trkpt lat="46.14440804789961" lon="9.299904553609034"><ele>219.99999999999997</ele><time>2026-05-02T13:40:14.009Z</time></trkpt><trkpt lat="46.144359022305224" lon="9.299803218095402"><ele>220.0</ele><time>2026-05-02T13:40:16.009Z</time></trkpt><trkpt lat="46.144318881473765" lon="9.29968842592178"><ele>220.0</ele><time>2026-05-02T13:40:18.009Z</time></trkpt><trkpt lat="46.14430088894306" lon="9.299568304954338"><ele>220.0</ele><time>2026-05-02T13:40:20.009Z</time></trkpt><trkpt lat="46.144282223830466" lon="9.29947707528466"><ele>219.99999999999997</ele><time>2026-05-02T13:40:21.009Z</time></trkpt><trkpt lat="46.144261588533986" lon="9.299363975944537"><ele>220.0</ele><time>2026-05-02T13:40:22.009Z</time></trkpt><trkpt lat="46.144237747116804" lon="9.299243174398475"><ele>219.8</ele><time>2026-05-02T13:40:23.009Z</time></trkpt><trkpt lat="46.14421051821594" lon="9.299118694338114"><ele>219.6</ele><time>2026-05-02T13:40:24.009Z</time></trkpt><trkpt lat="46.14418026965868" lon="9.298984130608469"><ele>219.39999999999998</ele><time>2026-05-02T13:40:25.009Z</time></trkpt><trkpt lat="46.14414871403911" lon="9.298846192938433"><ele>219.2</ele><time>2026-05-02T13:40:26.009Z</time></trkpt><trkpt lat="46.14411645902252" lon="9.298707989133762"><ele>219.0</ele><time>2026-05-02T13:40:27.009Z</time></trkpt><trkpt lat="46.14408784958652" lon="9.298585405672464"><ele>219.0</ele><time>2026-05-02T13:40:28.009Z</time></trkpt><trkpt lat="46.14405839760645" lon="9.298464166415751"><ele>219.0</ele><time>2026-05-02T13:40:29.009Z</time></trkpt><trkpt lat="46.14401680247264" lon="9.298355369655907"><ele>219.0</ele><time>2026-05-02T13:40:30.009Z</time></trkpt><trkpt lat="46.14398854747892" lon="9.298236908594328"><ele>219.0</ele><time>2026-05-02T13:40:31.009Z</time></trkpt><trkpt lat="46.143958552586156" lon="9.29811834306888"><ele>219.0</ele><time>2026-05-02T13:40:32.009Z</time></trkpt><trkpt lat="46.14392961701184" lon="9.298000941793656"><ele>219.0</ele><time>2026-05-02T13:40:33.009Z</time></trkpt><trkpt lat="46.14390366532233" lon="9.297890235678931"><ele>219.33333333333334</ele><time>2026-05-02T13:40:34.009Z</time></trkpt><trkpt lat="46.14389221215216" lon="9.2977614042295"><ele>219.66666666666669</ele><time>2026-05-02T13:40:35.009Z</time></trkpt><trkpt lat="46.143865622354845" lon="9.297635801003395"><ele>220.0</ele><time>2026-05-02T13:40:36.009Z</time></trkpt><trkpt lat="46.14384142410947" lon="9.297516245049264"><ele>220.33333333333334</ele><time>2026-05-02T13:40:37.009Z</time></trkpt><trkpt lat="46.14382114624432" lon="9.297408911943489"><ele>220.66666666666669</ele><time>2026-05-02T13:40:38.009Z</time></trkpt><trkpt lat="46.14380159479574" lon="9.297300931236549"><ele>221.0</ele><time>2026-05-02T13:40:39.009Z</time></trkpt><trkpt lat="46.1437820963811" lon="9.29719999523765"><ele>221.00000000000003</ele><time>2026-05-02T13:40:40.009Z</time></trkpt><trkpt lat="46.14375704407855" lon="9.297093747948374"><ele>221.0</ele><time>2026-05-02T13:40:41.009Z</time></trkpt><trkpt lat="46.14372770470156" lon="9.29700024430378"><ele>221.0</ele><time>2026-05-02T13:40:42.009Z</time></trkpt><trkpt lat="46.14369145094257" lon="9.296918967381544"><ele>221.0</ele><time>2026-05-02T13:40:43.009Z</time></trkpt><trkpt lat="46.14364520240435" lon="9.296843629185588"><ele>221.0</ele><time>2026-05-02T13:40:44.009Z</time></trkpt><trkpt lat="46.14359318404199" lon="9.296772141873722"><ele>221.00000000000003</ele><time>2026-05-02T13:40:45.009Z</time></trkpt><trkpt lat="46.143535549925204" lon="9.2967084291541"><ele>221.0</ele><time>2026-05-02T13:40:46.009Z</time></trkpt><trkpt lat="46.143464987278094" lon="9.296648133149256"><ele>221.00000000000003</ele><time>2026-05-02T13:40:47.009Z</time></trkpt><trkpt lat="46.14339374668254" lon="9.296582140699392"><ele>221.0</ele><time>2026-05-02T13:40:48.009Z</time></trkpt><trkpt lat="46.143316141681304" lon="9.29651025275448"><ele>221.0</ele><time>2026-05-02T13:40:49.009Z</time></trkpt><trkpt lat="46.143243903374035" lon="9.296443336209597"><ele>221.0</ele><time>2026-05-02T13:40:50.009Z</time></trkpt><trkpt lat="46.14317569918684" lon="9.296380072247988"><ele>221.00000000000003</ele><time>2026-05-02T13:40:51.009Z</time></trkpt><trkpt lat="46.14310998317449" lon="9.296318183104312"><ele>221.0</ele><time>2026-05-02T13:40:52.009Z</time></trkpt><trkpt lat="46.1430455202574" lon="9.296257474106872"><ele>220.50000000000003</ele><time>2026-05-02T13:40:53.009Z</time></trkpt><trkpt lat="46.14297930128366" lon="9.29619511130275"><ele>220.0</ele><time>2026-05-02T13:40:54.01Z</time></trkpt><trkpt lat="46.14291109898509" lon="9.296130948493689"><ele>219.5</ele><time>2026-05-02T13:40:55.01Z</time></trkpt><trkpt lat="46.142839438360774" lon="9.296062491924848"><ele>219.0</ele><time>2026-05-02T13:40:56.01Z</time></trkpt><trkpt lat="46.14276211977689" lon="9.295999428348797"><ele>218.50000000000003</ele><time>2026-05-02T13:40:57.01Z</time></trkpt><trkpt lat="46.14268357015899" lon="9.295926248656047"><ele>218.0</ele><time>2026-05-02T13:40:58.01Z</time></trkpt><trkpt lat="46.14260726773594" lon="9.295853926590564"><ele>218.00000000000003</ele><time>2026-05-02T13:40:59.01Z</time></trkpt><trkpt lat="46.14253410406556" lon="9.295783053704346"><ele>218.0</ele><time>2026-05-02T13:41:00.01Z</time></trkpt><trkpt lat="46.14246739195607" lon="9.295710587813534"><ele>218.0</ele><time>2026-05-02T13:41:01.01Z</time></trkpt><trkpt lat="46.14240190371548" lon="9.295635226841613"><ele>218.0</ele><time>2026-05-02T13:41:02.01Z</time></trkpt><trkpt lat="46.142343283382004" lon="9.295551704129247"><ele>218.00000000000003</ele><time>2026-05-02T13:41:03.01Z</time></trkpt><trkpt lat="46.14228346735152" lon="9.295463262667182"><ele>218.0</ele><time>2026-05-02T13:41:04.01Z</time></trkpt><trkpt lat="46.142224389438624" lon="9.295367084862805"><ele>217.2</ele><time>2026-05-02T13:41:05.01Z</time></trkpt><trkpt lat="46.1421659849564" lon="9.295259333855366"><ele>216.4</ele><time>2026-05-02T13:41:06.01Z</time></trkpt><trkpt lat="46.142110347022935" lon="9.295144617524626"><ele>215.59999999999997</ele><time>2026-05-02T13:41:07.01Z</time></trkpt><trkpt lat="46.14205646448449" lon="9.295026156873265"><ele>214.79999999999998</ele><time>2026-05-02T13:41:08.01Z</time></trkpt><trkpt lat="46.142029215449746" lon="9.294887609694694"><ele>214.0</ele><time>2026-05-02T13:41:09.01Z</time></trkpt><trkpt lat="46.14198164363112" lon="9.29478384439296"><ele>214.0</ele><time>2026-05-02T13:41:10.01Z</time></trkpt><trkpt lat="46.14193488316351" lon="9.29468203867361"><ele>213.99999999999997</ele><time>2026-05-02T13:41:11.01Z</time></trkpt><trkpt lat="46.14188359148413" lon="9.294575970608195"><ele>213.99999999999997</ele><time>2026-05-02T13:41:12.01Z</time></trkpt><trkpt lat="46.141829260881195" lon="9.294465192466241"><ele>214.0</ele><time>2026-05-02T13:41:13.01Z</time></trkpt><trkpt lat="46.141773538434094" lon="9.294347125453596"><ele>214.0</ele><time>2026-05-02T13:41:14.01Z</time></trkpt><trkpt lat="46.14171744568093" lon="9.294222099692961"><ele>214.0</ele><time>2026-05-02T13:41:15.01Z</time></trkpt><trkpt lat="46.14165673193437" lon="9.294093223457457"><ele>213.99999999999997</ele><time>2026-05-02T13:41:16.01Z</time></trkpt><trkpt lat="46.14159300731861" lon="9.293969153111247"><ele>213.99999999999997</ele><time>2026-05-02T13:41:17.01Z</time></trkpt><trkpt lat="46.14153500845244" lon="9.293844404483263"><ele>214.0</ele><time>2026-05-02T13:41:18.01Z</time></trkpt><trkpt lat="46.14147844222104" lon="9.293726121460223"><ele>214.0</ele><time>2026-05-02T13:41:19.01Z</time></trkpt><trkpt lat="46.141423947114646" lon="9.293607016540182"><ele>213.39999999999998</ele><time>2026-05-02T13:41:20.01Z</time></trkpt><trkpt lat="46.141368267059455" lon="9.293485020873286"><ele>212.79999999999998</ele><time>2026-05-02T13:41:21.01Z</time></trkpt><trkpt lat="46.14131089907559" lon="9.293359392718745"><ele>212.2</ele><time>2026-05-02T13:41:22.01Z</time></trkpt><trkpt lat="46.14125099577786" lon="9.293232245499384"><ele>211.60000000000002</ele><time>2026-05-02T13:41:23.01Z</time></trkpt><trkpt lat="46.141189160527766" lon="9.293107943163925"><ele>211.0</ele><time>2026-05-02T13:41:24.01Z</time></trkpt><trkpt lat="46.141131248489955" lon="9.29298277598981"><ele>211.0</ele><time>2026-05-02T13:41:25.01Z</time></trkpt><trkpt lat="46.141073209689935" lon="9.292859052959404"><ele>211.0</ele><time>2026-05-02T13:41:26.01Z</time></trkpt><trkpt lat="46.1410156423996" lon="9.292735802650247"><ele>211.0</ele><time>2026-05-02T13:41:27.01Z</time></trkpt><trkpt lat="46.14095608897003" lon="9.292604820709993"><ele>211.0</ele><time>2026-05-02T13:41:28.01Z</time></trkpt><trkpt lat="46.140891631614785" lon="9.292474068882925"><ele>211.0</ele><time>2026-05-02T13:41:29.01Z</time></trkpt><trkpt lat="46.140822200956364" lon="9.29234397784649"><ele>211.4</ele><time>2026-05-02T13:41:30.01Z</time></trkpt><trkpt lat="46.14074688168405" lon="9.29222109404614"><ele>211.8</ele><time>2026-05-02T13:41:31.01Z</time></trkpt><trkpt lat="46.14067097951689" lon="9.292105063637353"><ele>212.20000000000002</ele><time>2026-05-02T13:41:32.01Z</time></trkpt><trkpt lat="46.1405939396817" lon="9.29199664422557"><ele>212.60000000000002</ele><time>2026-05-02T13:41:33.01Z</time></trkpt><trkpt lat="46.140518362948306" lon="9.291901113416651"><ele>213.0</ele><time>2026-05-02T13:41:34.01Z</time></trkpt><trkpt lat="46.14044532089598" lon="9.291821141433378"><ele>212.2</ele><time>2026-05-02T13:41:35.01Z</time></trkpt><trkpt lat="46.14037590027754" lon="9.291749572061482"><ele>211.4</ele><time>2026-05-02T13:41:36.008Z</time></trkpt><trkpt lat="46.14030428971792" lon="9.29167994722607"><ele>210.6</ele><time>2026-05-02T13:41:37.007Z</time></trkpt><trkpt lat="46.14022662322091" lon="9.291608739180086"><ele>209.79999999999998</ele><time>2026-05-02T13:41:38.007Z</time></trkpt><trkpt lat="46.14014283184488" lon="9.291537513504613"><ele>209.0</ele><time>2026-05-02T13:41:39.008Z</time></trkpt><trkpt lat="46.1400580102019" lon="9.291461048856853"><ele>208.79999999999998</ele><time>2026-05-02T13:41:40.007Z</time></trkpt><trkpt lat="46.1399724844491" lon="9.291385477523312"><ele>208.6</ele><time>2026-05-02T13:41:41.007Z</time></trkpt><trkpt lat="46.13989019315266" lon="9.291315682936167"><ele>208.4</ele><time>2026-05-02T13:41:42.007Z</time></trkpt><trkpt lat="46.13981083483432" lon="9.291248677343738"><ele>208.2</ele><time>2026-05-02T13:41:43.008Z</time></trkpt><trkpt lat="46.13972879764984" lon="9.291181146108586"><ele>208.0</ele><time>2026-05-02T13:41:44.008Z</time></trkpt><trkpt lat="46.13964602017319" lon="9.291115158683974"><ele>207.60000000000002</ele><time>2026-05-02T13:41:45.007Z</time></trkpt><trkpt lat="46.139562244709374" lon="9.291046953602992"><ele>207.20000000000002</ele><time>2026-05-02T13:41:46.007Z</time></trkpt><trkpt lat="46.13947464774752" lon="9.290976304512338"><ele>206.8</ele><time>2026-05-02T13:41:47.007Z</time></trkpt><trkpt lat="46.13938826775776" lon="9.290901888166731"><ele>206.4</ele><time>2026-05-02T13:41:48.007Z</time></trkpt><trkpt lat="46.13931699521338" lon="9.290793634948706"><ele>206.0</ele><time>2026-05-02T13:41:49.007Z</time></trkpt><trkpt lat="46.139227421187584" lon="9.290719836805854"><ele>206.0</ele><time>2026-05-02T13:41:50.007Z</time></trkpt><trkpt lat="46.139133640462106" lon="9.290642113694094"><ele>206.0</ele><time>2026-05-02T13:41:51.008Z</time></trkpt><trkpt lat="46.139035424572384" lon="9.29056271812048"><ele>206.0</ele><time>2026-05-02T13:41:52.008Z</time></trkpt><trkpt lat="46.1389352947986" lon="9.29047931640041"><ele>206.0</ele><time>2026-05-02T13:41:53.008Z</time></trkpt><trkpt lat="46.13883169050893" lon="9.290394749799026"><ele>205.5</ele><time>2026-05-02T13:41:54.008Z</time></trkpt><trkpt lat="46.13873131157023" lon="9.290302401721489"><ele>205.0</ele><time>2026-05-02T13:41:55.008Z</time></trkpt><trkpt lat="46.13863308912487" lon="9.290217133343287"><ele>204.5</ele><time>2026-05-02T13:41:56.008Z</time></trkpt><trkpt lat="46.1385362094278" lon="9.290131469605237"><ele>204.0</ele><time>2026-05-02T13:41:57.008Z</time></trkpt><trkpt lat="46.138439928861146" lon="9.290048732048664"><ele>204.0</ele><time>2026-05-02T13:41:58.008Z</time></trkpt><trkpt lat="46.138339738093194" lon="9.289970340960616"><ele>204.0</ele><time>2026-05-02T13:41:59.008Z</time></trkpt><trkpt lat="46.13824058325173" lon="9.289887654703179"><ele>204.0</ele><time>2026-05-02T13:42:00.008Z</time></trkpt><trkpt lat="46.13813935570014" lon="9.289803840025273"><ele>204.0</ele><time>2026-05-02T13:42:01.008Z</time></trkpt><trkpt lat="46.13803589754587" lon="9.289717674819183"><ele>203.5</ele><time>2026-05-02T13:42:02.008Z</time></trkpt><trkpt lat="46.13793219020143" lon="9.289626749257236"><ele>203.0</ele><time>2026-05-02T13:42:03.008Z</time></trkpt><trkpt lat="46.13782504103078" lon="9.289536565066731"><ele>202.5</ele><time>2026-05-02T13:42:04.008Z</time></trkpt><trkpt lat="46.137718945152415" lon="9.289444731136557"><ele>202.0</ele><time>2026-05-02T13:42:05.008Z</time></trkpt><trkpt lat="46.13761182819484" lon="9.289352511531744"><ele>202.0</ele><time>2026-05-02T13:42:06.008Z</time></trkpt><trkpt lat="46.13750026622387" lon="9.289258328759402"><ele>202.0</ele><time>2026-05-02T13:42:07.008Z</time></trkpt><trkpt lat="46.13738762166506" lon="9.289167632544588"><ele>202.0</ele><time>2026-05-02T13:42:08.008Z</time></trkpt><trkpt lat="46.137274193904304" lon="9.289074196908285"><ele>202.0</ele><time>2026-05-02T13:42:09.008Z</time></trkpt><trkpt lat="46.13716218625357" lon="9.288979360759303"><ele>203.25</ele><time>2026-05-02T13:42:10.008Z</time></trkpt><trkpt lat="46.13705815053583" lon="9.288889899660566"><ele>204.5</ele><time>2026-05-02T13:42:11.008Z</time></trkpt><trkpt lat="46.13696070962897" lon="9.288806718421245"><ele>205.75</ele><time>2026-05-02T13:42:12.008Z</time></trkpt><trkpt lat="46.136868581120886" lon="9.28872647556704"><ele>207.0</ele><time>2026-05-02T13:42:13.008Z</time></trkpt><trkpt lat="46.13677499804132" lon="9.28864683624245"><ele>207.0</ele><time>2026-05-02T13:42:14.008Z</time></trkpt><trkpt lat="46.13667861510554" lon="9.288566611458075"><ele>207.0</ele><time>2026-05-02T13:42:15.008Z</time></trkpt><trkpt lat="46.13658094412822" lon="9.288483544465981"><ele>207.0</ele><time>2026-05-02T13:42:16.008Z</time></trkpt><trkpt lat="46.136486528525516" lon="9.288406703906123"><ele>207.0</ele><time>2026-05-02T13:42:17.008Z</time></trkpt><trkpt lat="46.13638944349547" lon="9.288326431108832"><ele>207.0</ele><time>2026-05-02T13:42:18.008Z</time></trkpt><trkpt lat="46.136294976639704" lon="9.288250777010736"><ele>206.6</ele><time>2026-05-02T13:42:19.008Z</time></trkpt><trkpt lat="46.13620660821419" lon="9.288174296599747"><ele>206.2</ele><time>2026-05-02T13:42:20.008Z</time></trkpt><trkpt lat="46.13612468378818" lon="9.288107622123656"><ele>205.8</ele><time>2026-05-02T13:42:21.008Z</time></trkpt><trkpt lat="46.136044771888756" lon="9.288044459431768"><ele>205.4</ele><time>2026-05-02T13:42:22.008Z</time></trkpt><trkpt lat="46.135968117324964" lon="9.287978574728164"><ele>205.0</ele><time>2026-05-02T13:42:23.008Z</time></trkpt><trkpt lat="46.13588934302984" lon="9.287914946573967"><ele>204.99999999999997</ele><time>2026-05-02T13:42:24.008Z</time></trkpt><trkpt lat="46.13581205611902" lon="9.287850131467666"><ele>205.0</ele><time>2026-05-02T13:42:25.008Z</time></trkpt><trkpt lat="46.13573922011269" lon="9.287787950856606"><ele>205.0</ele><time>2026-05-02T13:42:26.008Z</time></trkpt><trkpt lat="46.13567393656799" lon="9.28773829604505"><ele>205.0</ele><time>2026-05-02T13:42:27.008Z</time></trkpt><trkpt lat="46.13561228991554" lon="9.287693375585615"><ele>204.99999999999997</ele><time>2026-05-02T13:42:28.008Z</time></trkpt><trkpt lat="46.135554420909585" lon="9.287655308822798"><ele>205.0</ele><time>2026-05-02T13:42:29.008Z</time></trkpt><trkpt lat="46.13547284838945" lon="9.28760287592451"><ele>204.99999999999997</ele><time>2026-05-02T13:42:31.008Z</time></trkpt><trkpt lat="46.135402294278215" lon="9.287546973767366"><ele>205.0</ele><time>2026-05-02T13:42:34.008Z</time></trkpt><trkpt lat="46.13533716986796" lon="9.287480292345787"><ele>205.0</ele><time>2026-05-02T13:42:38.009Z</time></trkpt><trkpt lat="46.135260479627945" lon="9.287379153497222"><ele>205.0</ele><time>2026-05-02T13:42:40.009Z</time></trkpt><trkpt lat="46.13520202366924" lon="9.287329555164826"><ele>204.99999999999997</ele><time>2026-05-02T13:42:41.009Z</time></trkpt><trkpt lat="46.13513768046644" lon="9.287293471085448"><ele>205.0</ele><time>2026-05-02T13:42:42.009Z</time></trkpt><trkpt lat="46.135067005123105" lon="9.28725432009706"><ele>204.99999999999997</ele><time>2026-05-02T13:42:43.009Z</time></trkpt><trkpt lat="46.13500100029673" lon="9.28718669161239"><ele>205.0</ele><time>2026-05-02T13:42:44.009Z</time></trkpt><trkpt lat="46.13491806391772" lon="9.28715684092126"><ele>205.0</ele><time>2026-05-02T13:42:45.009Z</time></trkpt><trkpt lat="46.13484478624563" lon="9.287108873151551"><ele>205.0</ele><time>2026-05-02T13:42:46.009Z</time></trkpt><trkpt lat="46.134767666490056" lon="9.287064360381887"><ele>204.99999999999997</ele><time>2026-05-02T13:42:47.009Z</time></trkpt><trkpt lat="46.13468997570235" lon="9.287022431994382"><ele>205.0</ele><time>2026-05-02T13:42:48.009Z</time></trkpt><trkpt lat="46.134610563127" lon="9.286982999437358"><ele>205.0</ele><time>2026-05-02T13:42:49.009Z</time></trkpt><trkpt lat="46.13452807395764" lon="9.286946989747022"><ele>205.0</ele><time>2026-05-02T13:42:50.009Z</time></trkpt><trkpt lat="46.1344420287333" lon="9.286908756599928"><ele>205.0</ele><time>2026-05-02T13:42:51.009Z</time></trkpt><trkpt lat="46.13435220873465" lon="9.286874037411842"><ele>205.0</ele><time>2026-05-02T13:42:52.009Z</time></trkpt><trkpt lat="46.134258069212855" lon="9.286844160075526"><ele>205.0</ele><time>2026-05-02T13:42:53.009Z</time></trkpt><trkpt lat="46.134160503060535" lon="9.286818322850257"><ele>205.0</ele><time>2026-05-02T13:42:54.009Z</time></trkpt><trkpt lat="46.13405958590145" lon="9.286792658704533"><ele>205.0</ele><time>2026-05-02T13:42:55.009Z</time></trkpt><trkpt lat="46.13395576632114" lon="9.28676983175351"><ele>205.0</ele><time>2026-05-02T13:42:56.008Z</time></trkpt><trkpt lat="46.133848085731955" lon="9.286750811475303"><ele>205.0</ele><time>2026-05-02T13:42:57.008Z</time></trkpt><trkpt lat="46.13373927636239" lon="9.286732288726439"><ele>205.0</ele><time>2026-05-02T13:42:58.008Z</time></trkpt><trkpt lat="46.1336271785554" lon="9.286713804063242"><ele>205.4</ele><time>2026-05-02T13:42:59.008Z</time></trkpt><trkpt lat="46.133517195805815" lon="9.286700151506928"><ele>205.8</ele><time>2026-05-02T13:43:00.008Z</time></trkpt><trkpt lat="46.13341042560219" lon="9.286684852287763"><ele>206.2</ele><time>2026-05-02T13:43:01.007Z</time></trkpt><trkpt lat="46.13331161076979" lon="9.286675256253504"><ele>206.6</ele><time>2026-05-02T13:43:02.007Z</time></trkpt><trkpt lat="46.13322165316162" lon="9.28666462227149"><ele>207.0</ele><time>2026-05-02T13:43:03.007Z</time></trkpt><trkpt lat="46.13313787584392" lon="9.286654148953444"><ele>207.0</ele><time>2026-05-02T13:43:04.007Z</time></trkpt><trkpt lat="46.13305981913383" lon="9.286643657269407"><ele>207.0</ele><time>2026-05-02T13:43:05.007Z</time></trkpt><trkpt lat="46.13298364631718" lon="9.28663282384945"><ele>207.0</ele><time>2026-05-02T13:43:06.007Z</time></trkpt><trkpt lat="46.132910749622816" lon="9.286624057758809"><ele>207.0</ele><time>2026-05-02T13:43:07.007Z</time></trkpt><trkpt lat="46.13283977145656" lon="9.286614640174237"><ele>207.0</ele><time>2026-05-02T13:43:08.007Z</time></trkpt><trkpt lat="46.132764973798324" lon="9.28660811920493"><ele>207.0</ele><time>2026-05-02T13:43:09.007Z</time></trkpt><trkpt lat="46.1326852788633" lon="9.28659946092372"><ele>207.0</ele><time>2026-05-02T13:43:10.006Z</time></trkpt><trkpt lat="46.13260153614474" lon="9.286591806150462"><ele>207.0</ele><time>2026-05-02T13:43:11.006Z</time></trkpt><trkpt lat="46.13251350146124" lon="9.28658084048959"><ele>207.0</ele><time>2026-05-02T13:43:12.006Z</time></trkpt><trkpt lat="46.132422944118325" lon="9.286569783088632"><ele>207.0</ele><time>2026-05-02T13:43:13.006Z</time></trkpt><trkpt lat="46.132331689945545" lon="9.286552630337647"><ele>207.0</ele><time>2026-05-02T13:43:14.006Z</time></trkpt><trkpt lat="46.13224188105646" lon="9.286542024649094"><ele>207.0</ele><time>2026-05-02T13:43:15.006Z</time></trkpt><trkpt lat="46.132151741244265" lon="9.286526250469926"><ele>207.16666666666666</ele><time>2026-05-02T13:43:16.006Z</time></trkpt><trkpt lat="46.13206363784078" lon="9.286515438151916"><ele>207.33333333333331</ele><time>2026-05-02T13:43:17.006Z</time></trkpt><trkpt lat="46.13197518716503" lon="9.286503867744242"><ele>207.5</ele><time>2026-05-02T13:43:18.006Z</time></trkpt><trkpt lat="46.13189524355932" lon="9.28649422182823"><ele>207.66666666666666</ele><time>2026-05-02T13:43:19.006Z</time></trkpt><trkpt lat="46.131818778240806" lon="9.28648572062395"><ele>207.83333333333331</ele><time>2026-05-02T13:43:20.006Z</time></trkpt><trkpt lat="46.13174756632026" lon="9.286474460127765"><ele>208.0</ele><time>2026-05-02T13:43:21.006Z</time></trkpt><trkpt lat="46.131677809324415" lon="9.286468174552223"><ele>208.0</ele><time>2026-05-02T13:43:22.006Z</time></trkpt><trkpt lat="46.13160401250771" lon="9.286458755666311"><ele>208.0</ele><time>2026-05-02T13:43:23.006Z</time></trkpt><trkpt lat="46.13153723864807" lon="9.286445535328626"><ele>208.0</ele><time>2026-05-02T13:43:24.006Z</time></trkpt><trkpt lat="46.13142028029662" lon="9.286430944711832"><ele>208.0</ele><time>2026-05-02T13:43:26.006Z</time></trkpt><trkpt lat="46.13132098011843" lon="9.28641703780398"><ele>208.0</ele><time>2026-05-02T13:43:28.006Z</time></trkpt><trkpt lat="46.13120983582349" lon="9.28640352732063"><ele>207.66666666666666</ele><time>2026-05-02T13:43:30.006Z</time></trkpt><trkpt lat="46.13114627244024" lon="9.286396434501755"><ele>207.33333333333331</ele><time>2026-05-02T13:43:31.006Z</time></trkpt><trkpt lat="46.131077370701675" lon="9.286384616012334"><ele>207.0</ele><time>2026-05-02T13:43:32.006Z</time></trkpt><trkpt lat="46.13099753401938" lon="9.28636944979442"><ele>206.66666666666669</ele><time>2026-05-02T13:43:33.006Z</time></trkpt><trkpt lat="46.1309149338132" lon="9.286344293052652"><ele>206.33333333333334</ele><time>2026-05-02T13:43:34.006Z</time></trkpt><trkpt lat="46.13081636204183" lon="9.286315970885727"><ele>206.0</ele><time>2026-05-02T13:43:35.006Z</time></trkpt><trkpt lat="46.13070877096813" lon="9.286278408991128"><ele>205.75</ele><time>2026-05-02T13:43:36.006Z</time></trkpt><trkpt lat="46.13060076728931" lon="9.286232262292575"><ele>205.5</ele><time>2026-05-02T13:43:37.006Z</time></trkpt><trkpt lat="46.13048716859875" lon="9.286188790715837"><ele>205.25</ele><time>2026-05-02T13:43:38.006Z</time></trkpt><trkpt lat="46.13037404343219" lon="9.286150761119453"><ele>205.0</ele><time>2026-05-02T13:43:39.006Z</time></trkpt><trkpt lat="46.130263966484094" lon="9.286106292062922"><ele>205.0</ele><time>2026-05-02T13:43:40.006Z</time></trkpt><trkpt lat="46.13015176679331" lon="9.286058188864"><ele>205.0</ele><time>2026-05-02T13:43:41.006Z</time></trkpt><trkpt lat="46.1300401663616" lon="9.28600732698644"><ele>205.0</ele><time>2026-05-02T13:43:42.004Z</time></trkpt><trkpt lat="46.12993007771937" lon="9.285951288815559"><ele>205.0</ele><time>2026-05-02T13:43:43.003Z</time></trkpt><trkpt lat="46.12981942597496" lon="9.28588715159468"><ele>204.75</ele><time>2026-05-02T13:43:44.003Z</time></trkpt><trkpt lat="46.12971046396724" lon="9.28580516210715"><ele>204.5</ele><time>2026-05-02T13:43:45.003Z</time></trkpt><trkpt lat="46.1295997594179" lon="9.285715996528438"><ele>204.25</ele><time>2026-05-02T13:43:46.003Z</time></trkpt><trkpt lat="46.129485459068604" lon="9.28562360746547"><ele>204.0</ele><time>2026-05-02T13:43:47.003Z</time></trkpt><trkpt lat="46.12936990587596" lon="9.285528885816158"><ele>204.0</ele><time>2026-05-02T13:43:48.003Z</time></trkpt><trkpt lat="46.12925395744004" lon="9.285425826255759"><ele>204.0</ele><time>2026-05-02T13:43:49.003Z</time></trkpt><trkpt lat="46.129141491510836" lon="9.285326567080515"><ele>204.0</ele><time>2026-05-02T13:43:50.003Z</time></trkpt><trkpt lat="46.12903400232108" lon="9.28523221292871"><ele>204.0</ele><time>2026-05-02T13:43:51.004Z</time></trkpt><trkpt lat="46.12893084951839" lon="9.28514408158706"><ele>203.6</ele><time>2026-05-02T13:43:52.004Z</time></trkpt><trkpt lat="46.12883366480089" lon="9.285061902396796"><ele>203.2</ele><time>2026-05-02T13:43:53.004Z</time></trkpt><trkpt lat="46.12873649327018" lon="9.28498438902145"><ele>202.79999999999998</ele><time>2026-05-02T13:43:54.004Z</time></trkpt><trkpt lat="46.12864271116621" lon="9.284903328083011"><ele>202.39999999999998</ele><time>2026-05-02T13:43:55.003Z</time></trkpt><trkpt lat="46.12855324434877" lon="9.284802761478877"><ele>202.0</ele><time>2026-05-02T13:43:56.003Z</time></trkpt><trkpt lat="46.12845516255267" lon="9.284718714750998"><ele>202.75</ele><time>2026-05-02T13:43:57.003Z</time></trkpt><trkpt lat="46.12835095073953" lon="9.284629415194933"><ele>203.5</ele><time>2026-05-02T13:43:58.003Z</time></trkpt><trkpt lat="46.1282532862222" lon="9.284545726035077"><ele>204.25</ele><time>2026-05-02T13:43:59.003Z</time></trkpt><trkpt lat="46.12815455851496" lon="9.284461125845187"><ele>205.0</ele><time>2026-05-02T13:44:00.003Z</time></trkpt><trkpt lat="46.128051730579486" lon="9.284372767652483"><ele>205.0</ele><time>2026-05-02T13:44:01.003Z</time></trkpt><trkpt lat="46.12794498315022" lon="9.284280532096947"><ele>205.0</ele><time>2026-05-02T13:44:02.003Z</time></trkpt><trkpt lat="46.12783419277024" lon="9.284212589193402"><ele>205.0</ele><time>2026-05-02T13:44:03.003Z</time></trkpt><trkpt lat="46.12774526293263" lon="9.284129723172795"><ele>205.0</ele><time>2026-05-02T13:44:04.003Z</time></trkpt><trkpt lat="46.12766236096347" lon="9.284044899011745"><ele>205.0</ele><time>2026-05-02T13:44:05.003Z</time></trkpt><trkpt lat="46.127581768149966" lon="9.283955080480505"><ele>205.0</ele><time>2026-05-02T13:44:06.003Z</time></trkpt><trkpt lat="46.12750369587439" lon="9.283857171659173"><ele>205.0</ele><time>2026-05-02T13:44:07.003Z</time></trkpt><trkpt lat="46.12743204896863" lon="9.283745413688626"><ele>205.0</ele><time>2026-05-02T13:44:08.003Z</time></trkpt><trkpt lat="46.12736845738703" lon="9.28361611590296"><ele>205.0</ele><time>2026-05-02T13:44:09.003Z</time></trkpt><trkpt lat="46.12732442229592" lon="9.28348118352096"><ele>205.33333333333331</ele><time>2026-05-02T13:44:10.003Z</time></trkpt><trkpt lat="46.127293419436754" lon="9.283355177334506"><ele>205.66666666666666</ele><time>2026-05-02T13:44:11.003Z</time></trkpt><trkpt lat="46.12726116638481" lon="9.283247826024173"><ele>206.0</ele><time>2026-05-02T13:44:12.003Z</time></trkpt><trkpt lat="46.12723426029369" lon="9.283151399423542"><ele>206.33333333333331</ele><time>2026-05-02T13:44:13.003Z</time></trkpt><trkpt lat="46.127205473657035" lon="9.28306695644137"><ele>206.66666666666666</ele><time>2026-05-02T13:44:14.003Z</time></trkpt><trkpt lat="46.12719848233578" lon="9.282917870336078"><ele>207.0</ele><time>2026-05-02T13:44:16.003Z</time></trkpt><trkpt lat="46.12718656099955" lon="9.282763381885387"><ele>207.6</ele><time>2026-05-02T13:44:18.004Z</time></trkpt><trkpt lat="46.127166774185646" lon="9.282606954718528"><ele>208.2</ele><time>2026-05-02T13:44:20.004Z</time></trkpt><trkpt lat="46.127083929857754" lon="9.28247295193616"><ele>208.8</ele><time>2026-05-02T13:44:22.004Z</time></trkpt><trkpt lat="46.12703248892106" lon="9.28239757610629"><ele>209.4</ele><time>2026-05-02T13:44:23.004Z</time></trkpt><trkpt lat="46.126976267100275" lon="9.282319206533609"><ele>210.0</ele><time>2026-05-02T13:44:24.004Z</time></trkpt><trkpt lat="46.12690955372101" lon="9.282248427004566"><ele>210.2</ele><time>2026-05-02T13:44:25.004Z</time></trkpt><trkpt lat="46.12683040858862" lon="9.282177015287884"><ele>210.4</ele><time>2026-05-02T13:44:26.004Z</time></trkpt><trkpt lat="46.12674328159982" lon="9.282102516966974"><ele>210.60000000000002</ele><time>2026-05-02T13:44:27.004Z</time></trkpt><trkpt lat="46.12665048175239" lon="9.282030812028676"><ele>210.8</ele><time>2026-05-02T13:44:28.004Z</time></trkpt><trkpt lat="46.12655350123319" lon="9.281961795676114"><ele>211.0</ele><time>2026-05-02T13:44:29.004Z</time></trkpt><trkpt lat="46.12645502974614" lon="9.281891951914647"><ele>210.20000000000002</ele><time>2026-05-02T13:44:30.004Z</time></trkpt><trkpt lat="46.12636167148662" lon="9.281825635119977"><ele>209.4</ele><time>2026-05-02T13:44:31.004Z</time></trkpt><trkpt lat="46.126273655288344" lon="9.281762631939296"><ele>208.6</ele><time>2026-05-02T13:44:32.004Z</time></trkpt><trkpt lat="46.1261891142786" lon="9.281695638657604"><ele>207.8</ele><time>2026-05-02T13:44:33.004Z</time></trkpt><trkpt lat="46.126100933143405" lon="9.281631300151227"><ele>207.0</ele><time>2026-05-02T13:44:34.004Z</time></trkpt><trkpt lat="46.12601240060808" lon="9.281569569616575"><ele>207.0</ele><time>2026-05-02T13:44:35.004Z</time></trkpt><trkpt lat="46.125930180310554" lon="9.281500841898561"><ele>207.0</ele><time>2026-05-02T13:44:36.004Z</time></trkpt><trkpt lat="46.12584162614448" lon="9.281452169675424"><ele>207.0</ele><time>2026-05-02T13:44:37.004Z</time></trkpt><trkpt lat="46.12577080474865" lon="9.28140794771326"><ele>207.0</ele><time>2026-05-02T13:44:38.004Z</time></trkpt><trkpt lat="46.12570744663291" lon="9.281366260330012"><ele>207.0</ele><time>2026-05-02T13:44:39.004Z</time></trkpt><trkpt lat="46.125587847770575" lon="9.281288225883076"><ele>207.0</ele><time>2026-05-02T13:44:41.004Z</time></trkpt><trkpt lat="46.125506257436044" lon="9.281271743443325"><ele>207.0</ele><time>2026-05-02T13:44:42.004Z</time></trkpt><trkpt lat="46.12542587753023" lon="9.281273413625339"><ele>207.0</ele><time>2026-05-02T13:44:43.004Z</time></trkpt><trkpt lat="46.125341849993404" lon="9.281281133570333"><ele>207.0</ele><time>2026-05-02T13:44:44.004Z</time></trkpt><trkpt lat="46.12524261112422" lon="9.281323826928691"><ele>207.0</ele><time>2026-05-02T13:44:45.004Z</time></trkpt><trkpt lat="46.12513581758568" lon="9.28137911828167"><ele>207.0</ele><time>2026-05-02T13:44:46.004Z</time></trkpt><trkpt lat="46.12502736241202" lon="9.281444113124802"><ele>207.0</ele><time>2026-05-02T13:44:47.004Z</time></trkpt><trkpt lat="46.12491857428487" lon="9.281509203192115"><ele>207.0</ele><time>2026-05-02T13:44:48.004Z</time></trkpt><trkpt lat="46.124800736634015" lon="9.28157056325193"><ele>207.0</ele><time>2026-05-02T13:44:49.004Z</time></trkpt><trkpt lat="46.12468758243086" lon="9.281628404544712"><ele>206.8</ele><time>2026-05-02T13:44:50.004Z</time></trkpt><trkpt lat="46.12458763143183" lon="9.281678738708823"><ele>206.6</ele><time>2026-05-02T13:44:51.004Z</time></trkpt><trkpt lat="46.12448865542897" lon="9.281734290357882"><ele>206.4</ele><time>2026-05-02T13:44:52.004Z</time></trkpt><trkpt lat="46.12439344771549" lon="9.281791617922776"><ele>206.20000000000002</ele><time>2026-05-02T13:44:53.004Z</time></trkpt><trkpt lat="46.12430206744537" lon="9.28184016481398"><ele>206.0</ele><time>2026-05-02T13:44:54.004Z</time></trkpt><trkpt lat="46.12421227750912" lon="9.281886106297646"><ele>206.00000000000003</ele><time>2026-05-02T13:44:55.004Z</time></trkpt><trkpt lat="46.12412735809132" lon="9.281926119593646"><ele>206.0</ele><time>2026-05-02T13:44:56.004Z</time></trkpt><trkpt lat="46.1240443346284" lon="9.281972881095724"><ele>206.0</ele><time>2026-05-02T13:44:57.004Z</time></trkpt><trkpt lat="46.123966734187654" lon="9.282017524985427"><ele>206.0</ele><time>2026-05-02T13:44:58.004Z</time></trkpt><trkpt lat="46.12387832890677" lon="9.28202740745359"><ele>206.00000000000003</ele><time>2026-05-02T13:44:59.004Z</time></trkpt><trkpt lat="46.1237966440716" lon="9.282071055525641"><ele>206.0</ele><time>2026-05-02T13:45:00.004Z</time></trkpt><trkpt lat="46.12371676750146" lon="9.282111040329525"><ele>206.20000000000002</ele><time>2026-05-02T13:45:01.004Z</time></trkpt><trkpt lat="46.12355246615453" lon="9.282125846771383"><ele>206.4</ele><time>2026-05-02T13:45:03.004Z</time></trkpt><trkpt lat="46.1234704105269" lon="9.28210007988589"><ele>206.6</ele><time>2026-05-02T13:45:04.004Z</time></trkpt><trkpt lat="46.12342020314679" lon="9.282031226467817"><ele>206.8</ele><time>2026-05-02T13:45:05.004Z</time></trkpt><trkpt lat="46.12337299831271" lon="9.281930267839405"><ele>207.0</ele><time>2026-05-02T13:45:06.005Z</time></trkpt><trkpt lat="46.12333556544309" lon="9.281826923107928"><ele>207.0</ele><time>2026-05-02T13:45:07.005Z</time></trkpt><trkpt lat="46.123295109677514" lon="9.281725840735815"><ele>207.0</ele><time>2026-05-02T13:45:08.005Z</time></trkpt><trkpt lat="46.12328029011051" lon="9.281590294391071"><ele>207.0</ele><time>2026-05-02T13:45:09.005Z</time></trkpt><trkpt lat="46.12324177985621" lon="9.28148154602031"><ele>207.0</ele><time>2026-05-02T13:45:10.005Z</time></trkpt><trkpt lat="46.123193434299985" lon="9.281368923577848"><ele>207.0</ele><time>2026-05-02T13:45:11.005Z</time></trkpt><trkpt lat="46.12314326969549" lon="9.28126310522881"><ele>207.0</ele><time>2026-05-02T13:45:12.005Z</time></trkpt><trkpt lat="46.123092227297185" lon="9.281167609807849"><ele>206.42857142857144</ele><time>2026-05-02T13:45:13.005Z</time></trkpt><trkpt lat="46.12304974722399" lon="9.281073009872221"><ele>205.85714285714286</ele><time>2026-05-02T13:45:14.005Z</time></trkpt><trkpt lat="46.123012253548175" lon="9.280980992824686"><ele>205.28571428571428</ele><time>2026-05-02T13:45:15.005Z</time></trkpt><trkpt lat="46.12297721534133" lon="9.280894425998381"><ele>204.71428571428572</ele><time>2026-05-02T13:45:16.005Z</time></trkpt><trkpt lat="46.12294787491946" lon="9.280799651058711"><ele>204.14285714285714</ele><time>2026-05-02T13:45:17.005Z</time></trkpt><trkpt lat="46.12291228804563" lon="9.280702501402166"><ele>203.57142857142858</ele><time>2026-05-02T13:45:18.005Z</time></trkpt><trkpt lat="46.12288060543032" lon="9.280601321085921"><ele>203.0</ele><time>2026-05-02T13:45:19.005Z</time></trkpt><trkpt lat="46.12284610350912" lon="9.280515472961335"><ele>202.83333333333334</ele><time>2026-05-02T13:45:20.005Z</time></trkpt><trkpt lat="46.12282234532071" lon="9.280425592184411"><ele>202.66666666666669</ele><time>2026-05-02T13:45:21.005Z</time></trkpt><trkpt lat="46.122767270444164" lon="9.28027655063298"><ele>202.5</ele><time>2026-05-02T13:45:23.005Z</time></trkpt><trkpt lat="46.12272653251633" lon="9.28020698462482"><ele>202.33333333333331</ele><time>2026-05-02T13:45:24.005Z</time></trkpt><trkpt lat="46.12267933956135" lon="9.280064279670805"><ele>202.16666666666666</ele><time>2026-05-02T13:45:26.005Z</time></trkpt><trkpt lat="46.122644944889636" lon="9.279946280678043"><ele>202.0</ele><time>2026-05-02T13:45:28.005Z</time></trkpt><trkpt lat="46.122615708371136" lon="9.27985805519992"><ele>202.66666666666666</ele><time>2026-05-02T13:45:30.005Z</time></trkpt><trkpt lat="46.12256628537527" lon="9.2797545482212"><ele>203.33333333333331</ele><time>2026-05-02T13:45:33.005Z</time></trkpt><trkpt lat="46.12251668134232" lon="9.279589676782932"><ele>204.0</ele><time>2026-05-02T13:45:35.005Z</time></trkpt><trkpt lat="46.12247044510755" lon="9.279496931163765"><ele>204.66666666666669</ele><time>2026-05-02T13:45:36.005Z</time></trkpt><trkpt lat="46.122403902382736" lon="9.27942166027785"><ele>205.33333333333334</ele><time>2026-05-02T13:45:37.005Z</time></trkpt><trkpt lat="46.12235728879371" lon="9.279339739498594"><ele>206.0</ele><time>2026-05-02T13:45:38.005Z</time></trkpt><trkpt lat="46.1223039660143" lon="9.279266444850814"><ele>206.16666666666669</ele><time>2026-05-02T13:45:39.005Z</time></trkpt><trkpt lat="46.12224581825794" lon="9.279204867392396"><ele>206.33333333333334</ele><time>2026-05-02T13:45:40.005Z</time></trkpt><trkpt lat="46.12217399699115" lon="9.279158975890104"><ele>206.5</ele><time>2026-05-02T13:45:41.005Z</time></trkpt><trkpt lat="46.12210774424316" lon="9.279092970150275"><ele>206.66666666666669</ele><time>2026-05-02T13:45:42.005Z</time></trkpt><trkpt lat="46.12202005270684" lon="9.279059645636405"><ele>206.83333333333334</ele><time>2026-05-02T13:45:43.005Z</time></trkpt><trkpt lat="46.121926921956494" lon="9.279040959245563"><ele>207.0</ele><time>2026-05-02T13:45:44.005Z</time></trkpt><trkpt lat="46.12182565840354" lon="9.279045449420956"><ele>207.0</ele><time>2026-05-02T13:45:45.005Z</time></trkpt><trkpt lat="46.121724997546615" lon="9.279066938204659"><ele>207.0</ele><time>2026-05-02T13:45:46.005Z</time></trkpt><trkpt lat="46.12162563136473" lon="9.279111086166717"><ele>207.0</ele><time>2026-05-02T13:45:47.005Z</time></trkpt><trkpt lat="46.12153743725243" lon="9.279181086065265"><ele>207.0</ele><time>2026-05-02T13:45:48.003Z</time></trkpt><trkpt lat="46.12146043129634" lon="9.27927133406806"><ele>207.0</ele><time>2026-05-02T13:45:49.003Z</time></trkpt><trkpt lat="46.12140032900153" lon="9.279379553988784"><ele>212.33333333333334</ele><time>2026-05-02T13:45:50.003Z</time></trkpt><trkpt lat="46.12133630539957" lon="9.279454019686433"><ele>217.66666666666669</ele><time>2026-05-02T13:45:51.003Z</time></trkpt><trkpt lat="46.12126845812244" lon="9.279535279959225"><ele>223.0</ele><time>2026-05-02T13:45:52.003Z</time></trkpt><trkpt lat="46.121198327275096" lon="9.27960074056833"><ele>228.33333333333334</ele><time>2026-05-02T13:45:53.003Z</time></trkpt><trkpt lat="46.12111510291435" lon="9.279638295002854"><ele>233.66666666666669</ele><time>2026-05-02T13:45:54.002Z</time></trkpt><trkpt lat="46.121028634429656" lon="9.279659849484045"><ele>239.0</ele><time>2026-05-02T13:45:55.002Z</time></trkpt><trkpt lat="46.120941489845144" lon="9.279667930049756"><ele>239.0</ele><time>2026-05-02T13:45:56.002Z</time></trkpt><trkpt lat="46.1208491980555" lon="9.279664844933414"><ele>238.99999999999997</ele><time>2026-05-02T13:45:57.003Z</time></trkpt><trkpt lat="46.1207441918191" lon="9.279666369509533"><ele>238.99999999999997</ele><time>2026-05-02T13:45:58.003Z</time></trkpt><trkpt lat="46.12063031882571" lon="9.27967001424272"><ele>239.0</ele><time>2026-05-02T13:45:59.003Z</time></trkpt><trkpt lat="46.120522451105735" lon="9.279737615714676"><ele>239.0</ele><time>2026-05-02T13:46:00.003Z</time></trkpt><trkpt lat="46.12041060254679" lon="9.27978028206398"><ele>235.0</ele><time>2026-05-02T13:46:01.003Z</time></trkpt><trkpt lat="46.12029744297458" lon="9.279825375888384"><ele>231.0</ele><time>2026-05-02T13:46:02.003Z</time></trkpt><trkpt lat="46.12017722518325" lon="9.279865203128836"><ele>227.0</ele><time>2026-05-02T13:46:03.003Z</time></trkpt><trkpt lat="46.12005222476729" lon="9.279853171145373"><ele>223.0</ele><time>2026-05-02T13:46:04.003Z</time></trkpt><trkpt lat="46.119926353778546" lon="9.279866497773343"><ele>229.25</ele><time>2026-05-02T13:46:05.003Z</time></trkpt><trkpt lat="46.11979864765973" lon="9.279836772421762"><ele>235.5</ele><time>2026-05-02T13:46:06.003Z</time></trkpt><trkpt lat="46.119663456411836" lon="9.279833099539779"><ele>241.75</ele><time>2026-05-02T13:46:07.003Z</time></trkpt><trkpt lat="46.11952847208596" lon="9.279848210443612"><ele>248.0</ele><time>2026-05-02T13:46:08.003Z</time></trkpt><trkpt lat="46.119395760297294" lon="9.27982942334201"><ele>248.0</ele><time>2026-05-02T13:46:09.003Z</time></trkpt><trkpt lat="46.11926342746407" lon="9.279802207244105"><ele>248.0</ele><time>2026-05-02T13:46:10.003Z</time></trkpt><trkpt lat="46.11913224314729" lon="9.27976061069416"><ele>248.0</ele><time>2026-05-02T13:46:11.003Z</time></trkpt><trkpt lat="46.11900110151863" lon="9.279695854761613"><ele>248.0</ele><time>2026-05-02T13:46:12.003Z</time></trkpt><trkpt lat="46.11887487956069" lon="9.27962954992575"><ele>245.0</ele><time>2026-05-02T13:46:13.003Z</time></trkpt><trkpt lat="46.11875350135834" lon="9.279531813361332"><ele>242.0</ele><time>2026-05-02T13:46:14.003Z</time></trkpt><trkpt lat="46.11862011968225" lon="9.279421531533066"><ele>239.0</ele><time>2026-05-02T13:46:15.14Z</time></trkpt><trkpt lat="46.11822440718825" lon="9.278940242989776"><ele>250.75</ele><time>2026-05-02T13:46:19.013Z</time></trkpt><trkpt lat="46.1181177582851" lon="9.27881791252195"><ele>262.5</ele><time>2026-05-02T13:46:20.013Z</time></trkpt><trkpt lat="46.118023017880375" lon="9.278678863384087"><ele>274.25</ele><time>2026-05-02T13:46:21.013Z</time></trkpt><trkpt lat="46.117940109836056" lon="9.278522983055307"><ele>286.0</ele><time>2026-05-02T13:46:22.013Z</time></trkpt><trkpt lat="46.117833739779506" lon="9.27840106262087"><ele>286.0</ele><time>2026-05-02T13:46:23.011Z</time></trkpt><trkpt lat="46.1177373300419" lon="9.278263537189662"><ele>286.0</ele><time>2026-05-02T13:46:24.014Z</time></trkpt><trkpt lat="46.11764123499586" lon="9.27812695718981"><ele>286.0</ele><time>2026-05-02T13:46:25.011Z</time></trkpt><trkpt lat="46.11754632684583" lon="9.277988320805651"><ele>286.0</ele><time>2026-05-02T13:46:26.011Z</time></trkpt><trkpt lat="46.11745149850711" lon="9.277848554472762"><ele>279.5</ele><time>2026-05-02T13:46:27.013Z</time></trkpt><trkpt lat="46.11736885032205" lon="9.277692469176285"><ele>273.0</ele><time>2026-05-02T13:46:28.014Z</time></trkpt><trkpt lat="46.11727437858463" lon="9.277553631896001"><ele>266.5</ele><time>2026-05-02T13:46:29.011Z</time></trkpt><trkpt lat="46.117167346755764" lon="9.277431111825958"><ele>260.0</ele><time>2026-05-02T13:46:30.014Z</time></trkpt><trkpt lat="46.11708439996477" lon="9.277275545058782"><ele>268.0</ele><time>2026-05-02T13:46:31.013Z</time></trkpt><trkpt lat="46.11698963774943" lon="9.277136834088617"><ele>276.0</ele><time>2026-05-02T13:46:32.012Z</time></trkpt><trkpt lat="46.11688268705687" lon="9.277014432786402"><ele>284.0</ele><time>2026-05-02T13:46:33.014Z</time></trkpt><trkpt lat="46.11678807439745" lon="9.276875940712486"><ele>292.0</ele><time>2026-05-02T13:46:34.011Z</time></trkpt><trkpt lat="46.116704783153935" lon="9.276719869764094"><ele>292.0</ele><time>2026-05-02T13:46:35.014Z</time></trkpt><trkpt lat="46.11659845817652" lon="9.276597871520945"><ele>292.0</ele><time>2026-05-02T13:46:36.011Z</time></trkpt><trkpt lat="46.11651545652709" lon="9.27644151859726"><ele>292.0</ele><time>2026-05-02T13:46:37.014Z</time></trkpt><trkpt lat="46.11640891077015" lon="9.276319005889517"><ele>292.0</ele><time>2026-05-02T13:46:38.014Z</time></trkpt><trkpt lat="46.1163142666717" lon="9.276179763750678"><ele>290.25</ele><time>2026-05-02T13:46:39.014Z</time></trkpt><trkpt lat="46.116231710896734" lon="9.276024066772338"><ele>288.5</ele><time>2026-05-02T13:46:40.012Z</time></trkpt><trkpt lat="46.11612504265947" lon="9.275901373902661"><ele>286.75</ele><time>2026-05-02T13:46:41.013Z</time></trkpt><trkpt lat="46.11604248763181" lon="9.275745678048526"><ele>285.0</ele><time>2026-05-02T13:46:42.011Z</time></trkpt><trkpt lat="46.11594764250241" lon="9.275606583979902"><ele>282.5</ele><time>2026-05-02T13:46:43.011Z</time></trkpt><trkpt lat="46.1158525263557" lon="9.275467986148517"><ele>280.0</ele><time>2026-05-02T13:46:44.011Z</time></trkpt><trkpt lat="46.11575741398889" lon="9.275329393877321"><ele>277.5</ele><time>2026-05-02T13:46:45.011Z</time></trkpt><trkpt lat="46.1156621143839" lon="9.275190528734912"><ele>275.0</ele><time>2026-05-02T13:46:46.013Z</time></trkpt><trkpt lat="46.11556743163438" lon="9.275052057746588"><ele>275.0</ele><time>2026-05-02T13:46:47.011Z</time></trkpt><trkpt lat="46.1154608015731" lon="9.2749295809331"><ele>275.0</ele><time>2026-05-02T13:46:48.012Z</time></trkpt><trkpt lat="46.11536590544198" lon="9.274790128176976"><ele>275.0</ele><time>2026-05-02T13:46:49.014Z</time></trkpt><trkpt lat="46.1152831941282" lon="9.274634588248826"><ele>275.0</ele><time>2026-05-02T13:46:50.011Z</time></trkpt><trkpt lat="46.11518795429628" lon="9.274495503025447"><ele>273.25</ele><time>2026-05-02T13:46:51.014Z</time></trkpt><trkpt lat="46.115081102746956" lon="9.274373570865048"><ele>271.5</ele><time>2026-05-02T13:46:52.014Z</time></trkpt><trkpt lat="46.11499795229249" lon="9.274218030107539"><ele>269.75</ele><time>2026-05-02T13:46:53.014Z</time></trkpt><trkpt lat="46.11489122823319" lon="9.274096284145184"><ele>268.0</ele><time>2026-05-02T13:46:54.013Z</time></trkpt><trkpt lat="46.11479623777769" lon="9.273957563095687"><ele>272.0</ele><time>2026-05-02T13:46:55.012Z</time></trkpt><trkpt lat="46.11471294647498" lon="9.273801818030927"><ele>276.0</ele><time>2026-05-02T13:46:56.014Z</time></trkpt><trkpt lat="46.11460634768089" lon="9.273680253618858"><ele>280.0</ele><time>2026-05-02T13:46:57.011Z</time></trkpt><trkpt lat="46.11452368572343" lon="9.273524101618227"><ele>284.0</ele><time>2026-05-02T13:46:58.013Z</time></trkpt><trkpt lat="46.114418233857855" lon="9.273400168567239"><ele>284.0</ele><time>2026-05-02T13:46:59.011Z</time></trkpt><trkpt lat="46.114324774963734" lon="9.273258773192376"><ele>284.0</ele><time>2026-05-02T13:47:00.013Z</time></trkpt><trkpt lat="46.11423087412402" lon="9.27311889762462"><ele>284.0</ele><time>2026-05-02T13:47:01.012Z</time></trkpt><trkpt lat="46.114134805246735" lon="9.272981782225733"><ele>284.0</ele><time>2026-05-02T13:47:02.011Z</time></trkpt><trkpt lat="46.11404542969799" lon="9.272831826973286"><ele>286.5</ele><time>2026-05-02T13:47:03.014Z</time></trkpt><trkpt lat="46.11393117995927" lon="9.272724596787759"><ele>289.0</ele><time>2026-05-02T13:47:04.014Z</time></trkpt><trkpt lat="46.11382533285202" lon="9.272603862464727"><ele>291.5</ele><time>2026-05-02T13:47:05.012Z</time></trkpt><trkpt lat="46.11371650035165" lon="9.272487547714785"><ele>294.0</ele><time>2026-05-02T13:47:06.013Z</time></trkpt><trkpt lat="46.09140088366138" lon="9.278908351632763"><ele>273.6666666666667</ele><time>2026-05-02T13:49:16.084Z</time></trkpt><trkpt lat="46.0912621992113" lon="9.2789327227556"><ele>253.33333333333334</ele><time>2026-05-02T13:49:17.034Z</time></trkpt><trkpt lat="46.09109454018117" lon="9.279056363328293"><ele>233.0</ele><time>2026-05-02T13:49:18.007Z</time></trkpt><trkpt lat="46.09094895244328" lon="9.27910447505296"><ele>228.5</ele><time>2026-05-02T13:49:19.007Z</time></trkpt><trkpt lat="46.09082644115907" lon="9.27908395240889"><ele>224.0</ele><time>2026-05-02T13:49:20.007Z</time></trkpt><trkpt lat="46.09070591754997" lon="9.279078094733425"><ele>219.5</ele><time>2026-05-02T13:49:21.007Z</time></trkpt><trkpt lat="46.09056492316757" lon="9.279093362844653"><ele>215.0</ele><time>2026-05-02T13:49:22.007Z</time></trkpt><trkpt lat="46.090443118635825" lon="9.279074187319441"><ele>215.0</ele><time>2026-05-02T13:49:23.003Z</time></trkpt><trkpt lat="46.09031367825749" lon="9.279055042243655"><ele>215.0</ele><time>2026-05-02T13:49:24.004Z</time></trkpt><trkpt lat="46.09018936338106" lon="9.278969045595074"><ele>215.0</ele><time>2026-05-02T13:49:25.004Z</time></trkpt><trkpt lat="46.090071344074154" lon="9.278920743462981"><ele>215.0</ele><time>2026-05-02T13:49:26.003Z</time></trkpt><trkpt lat="46.089954093843204" lon="9.278807366289312"><ele>215.25</ele><time>2026-05-02T13:49:27.003Z</time></trkpt><trkpt lat="46.08983380351152" lon="9.278712167587464"><ele>215.5</ele><time>2026-05-02T13:49:28.003Z</time></trkpt><trkpt lat="46.08970221140585" lon="9.278634005802282"><ele>215.75</ele><time>2026-05-02T13:49:29.003Z</time></trkpt><trkpt lat="46.08955862129497" lon="9.278594633043586"><ele>216.0</ele><time>2026-05-02T13:49:30.003Z</time></trkpt><trkpt lat="46.08942597350411" lon="9.278534808896714"><ele>216.0</ele><time>2026-05-02T13:49:31.003Z</time></trkpt><trkpt lat="46.08929485549552" lon="9.27847697733161"><ele>216.0</ele><time>2026-05-02T13:49:32.004Z</time></trkpt><trkpt lat="46.08917027418041" lon="9.278405016131476"><ele>216.0</ele><time>2026-05-02T13:49:33.004Z</time></trkpt><trkpt lat="46.08906058667983" lon="9.27829186709793"><ele>216.0</ele><time>2026-05-02T13:49:34.004Z</time></trkpt><trkpt lat="46.08894532064669" lon="9.278164785849384"><ele>215.75</ele><time>2026-05-02T13:49:35.004Z</time></trkpt><trkpt lat="46.088822782044836" lon="9.278069364764827"><ele>215.5</ele><time>2026-05-02T13:49:36.004Z</time></trkpt><trkpt lat="46.0887257698693" lon="9.277926667665266"><ele>215.25</ele><time>2026-05-02T13:49:37.004Z</time></trkpt><trkpt lat="46.08861936955026" lon="9.277803046493242"><ele>215.0</ele><time>2026-05-02T13:49:38.004Z</time></trkpt><trkpt lat="46.0885194653718" lon="9.27765740936712"><ele>215.0</ele><time>2026-05-02T13:49:39.004Z</time></trkpt><trkpt lat="46.088429294349766" lon="9.27753378924402"><ele>215.0</ele><time>2026-05-02T13:49:40.004Z</time></trkpt><trkpt lat="46.088354990401136" lon="9.277451281906211"><ele>215.0</ele><time>2026-05-02T13:49:41.004Z</time></trkpt><trkpt lat="46.088276038383064" lon="9.277384129936804"><ele>215.0</ele><time>2026-05-02T13:49:42.004Z</time></trkpt><trkpt lat="46.08818461795542" lon="9.277331968829975"><ele>215.0</ele><time>2026-05-02T13:49:43.004Z</time></trkpt><trkpt lat="46.088079872030384" lon="9.277318634458517"><ele>214.0</ele><time>2026-05-02T13:49:44.004Z</time></trkpt><trkpt lat="46.087961944839655" lon="9.277311026134141"><ele>213.0</ele><time>2026-05-02T13:49:45.004Z</time></trkpt><trkpt lat="46.08783551022498" lon="9.277288919837488"><ele>212.0</ele><time>2026-05-02T13:49:46.004Z</time></trkpt><trkpt lat="46.08771536079052" lon="9.27722271686268"><ele>211.0</ele><time>2026-05-02T13:49:47.004Z</time></trkpt><trkpt lat="46.087596933708305" lon="9.277194900898426"><ele>217.0</ele><time>2026-05-02T13:49:48.004Z</time></trkpt><trkpt lat="46.08746999036261" lon="9.277164786879712"><ele>223.0</ele><time>2026-05-02T13:49:49.004Z</time></trkpt><trkpt lat="46.08733328942477" lon="9.277132358130155"><ele>229.0</ele><time>2026-05-02T13:49:50.004Z</time></trkpt><trkpt lat="46.08719105863911" lon="9.277098617562315"><ele>235.0</ele><time>2026-05-02T13:49:51.005Z</time></trkpt><trkpt lat="46.08704767011512" lon="9.27706460235246"><ele>235.0</ele><time>2026-05-02T13:49:52.005Z</time></trkpt><trkpt lat="46.08690614206242" lon="9.277032885266557"><ele>235.0</ele><time>2026-05-02T13:49:53.005Z</time></trkpt><trkpt lat="46.08676857399983" lon="9.277027179629824"><ele>235.0</ele><time>2026-05-02T13:49:54.005Z</time></trkpt><trkpt lat="46.08663011921122" lon="9.277017465464308"><ele>235.0</ele><time>2026-05-02T13:49:55.005Z</time></trkpt><trkpt lat="46.086483844608516" lon="9.277053945208161"><ele>231.0</ele><time>2026-05-02T13:49:56.005Z</time></trkpt><trkpt lat="46.086333746251654" lon="9.277129610664938"><ele>227.0</ele><time>2026-05-02T13:49:57.005Z</time></trkpt><trkpt lat="46.086191163844354" lon="9.277223419357929"><ele>223.0</ele><time>2026-05-02T13:49:58.005Z</time></trkpt><trkpt lat="46.08605005151019" lon="9.27732209962849"><ele>223.0</ele><time>2026-05-02T13:49:59.005Z</time></trkpt><trkpt lat="46.08591344196032" lon="9.27741646162671"><ele>223.0</ele><time>2026-05-02T13:50:00.005Z</time></trkpt><trkpt lat="46.08579352340557" lon="9.277498212311961"><ele>223.0</ele><time>2026-05-02T13:50:01.005Z</time></trkpt><trkpt lat="46.085669743002384" lon="9.277581379386174"><ele>223.0</ele><time>2026-05-02T13:50:02.005Z</time></trkpt><trkpt lat="46.08554173961785" lon="9.277630706745686"><ele>226.0</ele><time>2026-05-02T13:50:03.005Z</time></trkpt><trkpt lat="46.08541553003586" lon="9.277675124091074"><ele>229.0</ele><time>2026-05-02T13:50:04.005Z</time></trkpt><trkpt lat="46.08528439423006" lon="9.27771189293041"><ele>232.0</ele><time>2026-05-02T13:50:05.005Z</time></trkpt><trkpt lat="46.08514991073031" lon="9.277743879888428"><ele>235.0</ele><time>2026-05-02T13:50:06.005Z</time></trkpt><trkpt lat="46.08501912445114" lon="9.277777345784735"><ele>232.5</ele><time>2026-05-02T13:50:07.005Z</time></trkpt><trkpt lat="46.0848943725522" lon="9.277829952655832"><ele>230.0</ele><time>2026-05-02T13:50:08.005Z</time></trkpt><trkpt lat="46.084776382883426" lon="9.277854011280956"><ele>227.5</ele><time>2026-05-02T13:50:09.005Z</time></trkpt><trkpt lat="46.08465166357362" lon="9.277849057896958"><ele>225.0</ele><time>2026-05-02T13:50:10.005Z</time></trkpt><trkpt lat="46.08452463445439" lon="9.277847715805336"><ele>225.0</ele><time>2026-05-02T13:50:11.005Z</time></trkpt><trkpt lat="46.08440766957918" lon="9.27782794708744"><ele>225.0</ele><time>2026-05-02T13:50:12.005Z</time></trkpt><trkpt lat="46.08428157400392" lon="9.277782157994833"><ele>225.0</ele><time>2026-05-02T13:50:13.005Z</time></trkpt><trkpt lat="46.08416186242087" lon="9.277715184426658"><ele>225.0</ele><time>2026-05-02T13:50:14.005Z</time></trkpt><trkpt lat="46.084033661578516" lon="9.277624712310617"><ele>226.25</ele><time>2026-05-02T13:50:15.005Z</time></trkpt><trkpt lat="46.083913972274296" lon="9.277514937075193"><ele>227.5</ele><time>2026-05-02T13:50:16.005Z</time></trkpt><trkpt lat="46.08379681725192" lon="9.277404879250325"><ele>228.75</ele><time>2026-05-02T13:50:17.005Z</time></trkpt><trkpt lat="46.08368135833515" lon="9.277279057933532"><ele>230.0</ele><time>2026-05-02T13:50:18.005Z</time></trkpt><trkpt lat="46.08357897878657" lon="9.277167837581604"><ele>230.0</ele><time>2026-05-02T13:50:19.005Z</time></trkpt><trkpt lat="46.083475792336245" lon="9.27706813175616"><ele>230.0</ele><time>2026-05-02T13:50:20.005Z</time></trkpt><trkpt lat="46.08336850842937" lon="9.276977335461092"><ele>230.0</ele><time>2026-05-02T13:50:21.005Z</time></trkpt><trkpt lat="46.08325177469597" lon="9.276899914033569"><ele>230.0</ele><time>2026-05-02T13:50:22.005Z</time></trkpt><trkpt lat="46.08312706526666" lon="9.276836850764798"><ele>226.25</ele><time>2026-05-02T13:50:23.005Z</time></trkpt><trkpt lat="46.0829960697373" lon="9.276779114802306"><ele>222.5</ele><time>2026-05-02T13:50:24.005Z</time></trkpt><trkpt lat="46.08286035173532" lon="9.276721445361828"><ele>218.75</ele><time>2026-05-02T13:50:25.005Z</time></trkpt><trkpt lat="46.0827080038869" lon="9.276680230913936"><ele>215.0</ele><time>2026-05-02T13:50:26.005Z</time></trkpt><trkpt lat="46.08255649870748" lon="9.276643481126305"><ele>214.66666666666669</ele><time>2026-05-02T13:50:27.005Z</time></trkpt><trkpt lat="46.08240489116674" lon="9.276609502930674"><ele>214.33333333333331</ele><time>2026-05-02T13:50:28.005Z</time></trkpt><trkpt lat="46.0822535235827" lon="9.276555881760565"><ele>214.0</ele><time>2026-05-02T13:50:29.005Z</time></trkpt><trkpt lat="46.0821034009827" lon="9.276505651553327"><ele>214.0</ele><time>2026-05-02T13:50:30.005Z</time></trkpt><trkpt lat="46.08195579429825" lon="9.276448921359036"><ele>214.0</ele><time>2026-05-02T13:50:31.005Z</time></trkpt><trkpt lat="46.08181709035414" lon="9.27633281797159"><ele>214.0</ele><time>2026-05-02T13:50:32.005Z</time></trkpt><trkpt lat="46.081664633274364" lon="9.276269692053827"><ele>226.66666666666666</ele><time>2026-05-02T13:50:33.005Z</time></trkpt><trkpt lat="46.08151734493626" lon="9.27621047638882"><ele>239.33333333333331</ele><time>2026-05-02T13:50:34.005Z</time></trkpt><trkpt lat="46.08137113682561" lon="9.276150097716755"><ele>252.0</ele><time>2026-05-02T13:50:35.005Z</time></trkpt><trkpt lat="46.08122908334554" lon="9.276093959398867"><ele>252.0</ele><time>2026-05-02T13:50:36.005Z</time></trkpt><trkpt lat="46.0810870686824" lon="9.276039620868755"><ele>252.0</ele><time>2026-05-02T13:50:37.005Z</time></trkpt><trkpt lat="46.080942479962694" lon="9.275985923391119"><ele>252.0</ele><time>2026-05-02T13:50:38.005Z</time></trkpt><trkpt lat="46.08079476921127" lon="9.275928579535519"><ele>252.0</ele><time>2026-05-02T13:50:39.006Z</time></trkpt><trkpt lat="46.080650488953744" lon="9.275868067625947"><ele>253.5</ele><time>2026-05-02T13:50:40.006Z</time></trkpt><trkpt lat="46.080510201853954" lon="9.275807907909487"><ele>255.0</ele><time>2026-05-02T13:50:41.006Z</time></trkpt><trkpt lat="46.080364000690544" lon="9.27573895659211"><ele>256.5</ele><time>2026-05-02T13:50:42.006Z</time></trkpt><trkpt lat="46.08022443732446" lon="9.275665158921761"><ele>258.0</ele><time>2026-05-02T13:50:43.006Z</time></trkpt><trkpt lat="46.08008501188212" lon="9.275590917636094"><ele>291.0</ele><time>2026-05-02T13:50:44.006Z</time></trkpt><trkpt lat="46.07820381498653" lon="9.276112178622325"><ele>291.0</ele><time>2026-05-02T13:50:47.019Z</time></trkpt><trkpt lat="46.077605605685854" lon="9.27639065521479"><ele>263.0</ele><time>2026-05-02T13:50:48.017Z</time></trkpt><trkpt lat="46.077007401666826" lon="9.276669202704277"><ele>280.0</ele><time>2026-05-02T13:50:49.016Z</time></trkpt><trkpt lat="46.07640459077468" lon="9.276938204028331"><ele>280.0</ele><time>2026-05-02T13:50:50.018Z</time></trkpt><trkpt lat="46.075793405238386" lon="9.277158260192607"><ele>255.0</ele><time>2026-05-02T13:50:51.019Z</time></trkpt><trkpt lat="46.07517509202965" lon="9.277311920488637"><ele>265.0</ele><time>2026-05-02T13:50:52.016Z</time></trkpt><trkpt lat="46.07454444272732" lon="9.277359993006359"><ele>267.0</ele><time>2026-05-02T13:50:53.02Z</time></trkpt><trkpt lat="46.073917181108406" lon="9.277291748167"><ele>294.0</ele><time>2026-05-02T13:50:54.019Z</time></trkpt><trkpt lat="46.07329840729289" lon="9.277129979477497"><ele>275.5</ele><time>2026-05-02T13:50:55.019Z</time></trkpt><trkpt lat="46.0732306" lon="9.2771044"><ele>257.0</ele><time>2026-05-02T13:50:56.019Z</time></trkpt><trkpt lat="46.07179222507052" lon="9.276115526180483"><ele>251.5</ele><time>2026-05-02T13:51:40.007Z</time></trkpt><trkpt lat="46.071672116931644" lon="9.276029706889668"><ele>246.0</ele><time>2026-05-02T13:51:41.007Z</time></trkpt><trkpt lat="46.07154443256146" lon="9.275938155903422"><ele>240.5</ele><time>2026-05-02T13:51:42.007Z</time></trkpt><trkpt lat="46.071424911868654" lon="9.275832773770494"><ele>235.0</ele><time>2026-05-02T13:51:43.007Z</time></trkpt><trkpt lat="46.07130121019336" lon="9.275709734126922"><ele>238.33333333333331</ele><time>2026-05-02T13:51:44.007Z</time></trkpt><trkpt lat="46.07117636318741" lon="9.275595222559966"><ele>241.66666666666669</ele><time>2026-05-02T13:51:45.005Z</time></trkpt><trkpt lat="46.0710408650536" lon="9.275464457259034"><ele>245.0</ele><time>2026-05-02T13:51:46.005Z</time></trkpt><trkpt lat="46.07091069969915" lon="9.275323936957967"><ele>245.0</ele><time>2026-05-02T13:51:47.005Z</time></trkpt><trkpt lat="46.070779612381315" lon="9.275197681593795"><ele>245.0</ele><time>2026-05-02T13:51:48.006Z</time></trkpt><trkpt lat="46.070649283780135" lon="9.275071435881515"><ele>245.0</ele><time>2026-05-02T13:51:49.006Z</time></trkpt><trkpt lat="46.07051778858836" lon="9.274944734123498"><ele>246.0</ele><time>2026-05-02T13:51:50.006Z</time></trkpt><trkpt lat="46.07038725572937" lon="9.27481890064185"><ele>247.0</ele><time>2026-05-02T13:51:51.005Z</time></trkpt><trkpt lat="46.07025874229545" lon="9.274693111284241"><ele>248.0</ele><time>2026-05-02T13:51:52.005Z</time></trkpt><trkpt lat="46.070134264104226" lon="9.274569761373744"><ele>245.33333333333334</ele><time>2026-05-02T13:51:53.005Z</time></trkpt><trkpt lat="46.069998012137866" lon="9.27443734814265"><ele>242.66666666666669</ele><time>2026-05-02T13:51:54.005Z</time></trkpt><trkpt lat="46.06987001108016" lon="9.274318001495754"><ele>240.0</ele><time>2026-05-02T13:51:55.144Z</time></trkpt><trkpt lat="46.06973332572643" lon="9.274172774108532"><ele>240.0</ele><time>2026-05-02T13:51:56.147Z</time></trkpt><trkpt lat="46.069615928671055" lon="9.274065745741954"><ele>240.0</ele><time>2026-05-02T13:51:57.141Z</time></trkpt><trkpt lat="46.06788646650111" lon="9.272699557910258"><ele>231.0</ele><time>2026-05-02T13:52:08.005Z</time></trkpt><trkpt lat="46.06774128444846" lon="9.272624918304496"><ele>222.0</ele><time>2026-05-02T13:52:09.006Z</time></trkpt><trkpt lat="46.06765367503337" lon="9.272493602035286"><ele>213.0</ele><time>2026-05-02T13:52:10.006Z</time></trkpt><trkpt lat="46.06751449511203" lon="9.272432073296104"><ele>204.0</ele><time>2026-05-02T13:52:11.006Z</time></trkpt><trkpt lat="46.06736817424569" lon="9.272379774979175"><ele>203.75</ele><time>2026-05-02T13:52:12.006Z</time></trkpt><trkpt lat="46.06722175292566" lon="9.272335802930561"><ele>203.5</ele><time>2026-05-02T13:52:13.006Z</time></trkpt><trkpt lat="46.06712721353062" lon="9.272250801967395"><ele>203.25</ele><time>2026-05-02T13:52:14.006Z</time></trkpt><trkpt lat="46.06699411886983" lon="9.272197630407936"><ele>203.0</ele><time>2026-05-02T13:52:15.006Z</time></trkpt><trkpt lat="46.06687009612399" lon="9.272099873960915"><ele>203.0</ele><time>2026-05-02T13:52:16.006Z</time></trkpt><trkpt lat="46.06674849214111" lon="9.271990884261005"><ele>203.0</ele><time>2026-05-02T13:52:17.006Z</time></trkpt><trkpt lat="46.06663339679491" lon="9.271863683401783"><ele>203.0</ele><time>2026-05-02T13:52:18.006Z</time></trkpt><trkpt lat="46.06651942231666" lon="9.271725045677929"><ele>203.0</ele><time>2026-05-02T13:52:19.006Z</time></trkpt><trkpt lat="46.06642435786952" lon="9.271565991204165"><ele>202.5</ele><time>2026-05-02T13:52:20.006Z</time></trkpt><trkpt lat="46.06634136923282" lon="9.271395959790675"><ele>202.0</ele><time>2026-05-02T13:52:21.006Z</time></trkpt><trkpt lat="46.06626513243433" lon="9.271221268968995"><ele>201.5</ele><time>2026-05-02T13:52:22.006Z</time></trkpt><trkpt lat="46.06619357537149" lon="9.271047459460824"><ele>201.0</ele><time>2026-05-02T13:52:23.006Z</time></trkpt><trkpt lat="46.066121522655614" lon="9.27087100133484"><ele>201.0</ele><time>2026-05-02T13:52:24.006Z</time></trkpt><trkpt lat="46.06604951775143" lon="9.270692543273203"><ele>201.0</ele><time>2026-05-02T13:52:25.006Z</time></trkpt><trkpt lat="46.065978913030136" lon="9.27051075933059"><ele>201.0</ele><time>2026-05-02T13:52:26.006Z</time></trkpt><trkpt lat="46.06590793725804" lon="9.270329599724462"><ele>201.0</ele><time>2026-05-02T13:52:27.006Z</time></trkpt><trkpt lat="46.06583590499937" lon="9.27014941679078"><ele>201.5</ele><time>2026-05-02T13:52:28.006Z</time></trkpt><trkpt lat="46.065761635670896" lon="9.269983000211816"><ele>202.0</ele><time>2026-05-02T13:52:29.006Z</time></trkpt><trkpt lat="46.06567864677647" lon="9.269836683777584"><ele>202.5</ele><time>2026-05-02T13:52:30.006Z</time></trkpt><trkpt lat="46.06558624658144" lon="9.269717540179593"><ele>203.0</ele><time>2026-05-02T13:52:31.006Z</time></trkpt><trkpt lat="46.06549290418242" lon="9.269619012574536"><ele>203.25</ele><time>2026-05-02T13:52:32.006Z</time></trkpt><trkpt lat="46.06539605731655" lon="9.269530317495601"><ele>203.5</ele><time>2026-05-02T13:52:33.006Z</time></trkpt><trkpt lat="46.065293677939074" lon="9.269456902190534"><ele>203.75</ele><time>2026-05-02T13:52:34.006Z</time></trkpt><trkpt lat="46.06518363101851" lon="9.26940264410885"><ele>204.0</ele><time>2026-05-02T13:52:35.006Z</time></trkpt><trkpt lat="46.06507798302167" lon="9.269351989451875"><ele>204.0</ele><time>2026-05-02T13:52:36.006Z</time></trkpt><trkpt lat="46.06496192064065" lon="9.269315542430997"><ele>204.0</ele><time>2026-05-02T13:52:37.006Z</time></trkpt><trkpt lat="46.06484228186642" lon="9.26928948665463"><ele>204.0</ele><time>2026-05-02T13:52:38.006Z</time></trkpt><trkpt lat="46.0647191980543" lon="9.269267563890624"><ele>204.0</ele><time>2026-05-02T13:52:39.006Z</time></trkpt><trkpt lat="46.064595937800384" lon="9.269246396516223"><ele>204.0</ele><time>2026-05-02T13:52:40.006Z</time></trkpt><trkpt lat="46.06447018340049" lon="9.269221435136396"><ele>204.0</ele><time>2026-05-02T13:52:41.006Z</time></trkpt><trkpt lat="46.06433759892965" lon="9.269204847007373"><ele>204.0</ele><time>2026-05-02T13:52:42.006Z</time></trkpt><trkpt lat="46.064202959449965" lon="9.269188877661875"><ele>204.0</ele><time>2026-05-02T13:52:43.006Z</time></trkpt><trkpt lat="46.06406919770006" lon="9.269171951108541"><ele>204.0</ele><time>2026-05-02T13:52:44.006Z</time></trkpt><trkpt lat="46.063935037429616" lon="9.26914649387484"><ele>204.0</ele><time>2026-05-02T13:52:45.006Z</time></trkpt><trkpt lat="46.06380285409487" lon="9.269122120619269"><ele>204.0</ele><time>2026-05-02T13:52:46.006Z</time></trkpt><trkpt lat="46.06366626656795" lon="9.26909895016085"><ele>204.0</ele><time>2026-05-02T13:52:47.006Z</time></trkpt><trkpt lat="46.063533064205956" lon="9.26902810527997"><ele>204.0</ele><time>2026-05-02T13:52:48.006Z</time></trkpt><trkpt lat="46.06339726745477" lon="9.269004468573662"><ele>204.0</ele><time>2026-05-02T13:52:49.006Z</time></trkpt><trkpt lat="46.06326672559959" lon="9.26898664369096"><ele>204.0</ele><time>2026-05-02T13:52:50.006Z</time></trkpt><trkpt lat="46.06314241527449" lon="9.268966390507895"><ele>204.0</ele><time>2026-05-02T13:52:51.006Z</time></trkpt><trkpt lat="46.06301590313392" lon="9.268931649092558"><ele>203.5</ele><time>2026-05-02T13:52:52.006Z</time></trkpt><trkpt lat="46.06289182302012" lon="9.268870211837106"><ele>203.0</ele><time>2026-05-02T13:52:53.006Z</time></trkpt><trkpt lat="46.062771825700914" lon="9.2687836980492"><ele>202.5</ele><time>2026-05-02T13:52:54.006Z</time></trkpt><trkpt lat="46.06265944993161" lon="9.268681340309229"><ele>202.0</ele><time>2026-05-02T13:52:55.006Z</time></trkpt><trkpt lat="46.062552110735005" lon="9.268556806189192"><ele>202.0</ele><time>2026-05-02T13:52:56.006Z</time></trkpt><trkpt lat="46.062457112406996" lon="9.268409630336391"><ele>202.0</ele><time>2026-05-02T13:52:57.007Z</time></trkpt><trkpt lat="46.062378145500126" lon="9.26824081737094"><ele>202.0</ele><time>2026-05-02T13:52:58.007Z</time></trkpt><trkpt lat="46.06231512680812" lon="9.268054048012193"><ele>202.0</ele><time>2026-05-02T13:52:59.007Z</time></trkpt><trkpt lat="46.062254446816574" lon="9.267862961134393"><ele>202.25</ele><time>2026-05-02T13:53:00.007Z</time></trkpt><trkpt lat="46.06219466265618" lon="9.267675015264322"><ele>202.5</ele><time>2026-05-02T13:53:01.007Z</time></trkpt><trkpt lat="46.06213826132142" lon="9.267495635052512"><ele>202.75</ele><time>2026-05-02T13:53:02.007Z</time></trkpt><trkpt lat="46.06207918786667" lon="9.26732884660524"><ele>203.0</ele><time>2026-05-02T13:53:03.007Z</time></trkpt><trkpt lat="46.06201178251547" lon="9.26716598177942"><ele>203.0</ele><time>2026-05-02T13:53:04.007Z</time></trkpt><trkpt lat="46.061926735938286" lon="9.267018984468995"><ele>203.0</ele><time>2026-05-02T13:53:05.007Z</time></trkpt><trkpt lat="46.06183684150252" lon="9.26689542819395"><ele>203.0</ele><time>2026-05-02T13:53:06.007Z</time></trkpt><trkpt lat="46.06174372937477" lon="9.266788423604273"><ele>203.0</ele><time>2026-05-02T13:53:07.007Z</time></trkpt><trkpt lat="46.061653864603905" lon="9.266677068902677"><ele>202.0</ele><time>2026-05-02T13:53:08.007Z</time></trkpt><trkpt lat="46.06158100334999" lon="9.266544295123039"><ele>201.0</ele><time>2026-05-02T13:53:09.007Z</time></trkpt><trkpt lat="46.061530707030165" lon="9.266387519519894"><ele>200.0</ele><time>2026-05-02T13:53:10.007Z</time></trkpt><trkpt lat="46.06149022031436" lon="9.26621753683041"><ele>199.0</ele><time>2026-05-02T13:53:11.007Z</time></trkpt><trkpt lat="46.06145391060575" lon="9.266039031038293"><ele>199.0</ele><time>2026-05-02T13:53:12.007Z</time></trkpt><trkpt lat="46.06141322312848" lon="9.265868620725199"><ele>199.0</ele><time>2026-05-02T13:53:13.007Z</time></trkpt><trkpt lat="46.061356092237894" lon="9.265700598322825"><ele>199.0</ele><time>2026-05-02T13:53:14.007Z</time></trkpt><trkpt lat="46.06128326739328" lon="9.265541318817693"><ele>199.0</ele><time>2026-05-02T13:53:15.007Z</time></trkpt><trkpt lat="46.06120066664329" lon="9.265388996352721"><ele>200.2</ele><time>2026-05-02T13:53:16.007Z</time></trkpt><trkpt lat="46.06111875525717" lon="9.265256979296684"><ele>201.39999999999998</ele><time>2026-05-02T13:53:17.007Z</time></trkpt><trkpt lat="46.06104100727443" lon="9.265146984073631"><ele>202.6</ele><time>2026-05-02T13:53:18.007Z</time></trkpt><trkpt lat="46.060967259782714" lon="9.26504091801085"><ele>203.8</ele><time>2026-05-02T13:53:19.007Z</time></trkpt><trkpt lat="46.06089259251916" lon="9.264932641112974"><ele>205.0</ele><time>2026-05-02T13:53:20.007Z</time></trkpt><trkpt lat="46.060819289048624" lon="9.264830961239307"><ele>205.0</ele><time>2026-05-02T13:53:21.007Z</time></trkpt><trkpt lat="46.06074362518655" lon="9.264733736914296"><ele>205.0</ele><time>2026-05-02T13:53:22.007Z</time></trkpt><trkpt lat="46.06067003632132" lon="9.264636972965159"><ele>205.0</ele><time>2026-05-02T13:53:23.007Z</time></trkpt><trkpt lat="46.0605982122612" lon="9.264539968310293"><ele>205.0</ele><time>2026-05-02T13:53:24.007Z</time></trkpt><trkpt lat="46.06052819147335" lon="9.264440917046551"><ele>205.0</ele><time>2026-05-02T13:53:25.007Z</time></trkpt><trkpt lat="46.06046052512589" lon="9.264344049411248"><ele>205.0</ele><time>2026-05-02T13:53:26.007Z</time></trkpt><trkpt lat="46.06039979196613" lon="9.264237294847948"><ele>205.0</ele><time>2026-05-02T13:53:27.007Z</time></trkpt><trkpt lat="46.06034795962002" lon="9.264113716700564"><ele>205.0</ele><time>2026-05-02T13:53:28.007Z</time></trkpt><trkpt lat="46.06030267301862" lon="9.2639850728477"><ele>205.0</ele><time>2026-05-02T13:53:29.007Z</time></trkpt><trkpt lat="46.06025744691673" lon="9.263851891652484"><ele>205.0</ele><time>2026-05-02T13:53:30.007Z</time></trkpt><trkpt lat="46.06022236903711" lon="9.263709267549146"><ele>204.0</ele><time>2026-05-02T13:53:31.007Z</time></trkpt><trkpt lat="46.060174643304116" lon="9.263564613347024"><ele>203.0</ele><time>2026-05-02T13:53:32.007Z</time></trkpt><trkpt lat="46.06010403623638" lon="9.263439796916861"><ele>202.0</ele><time>2026-05-02T13:53:33.007Z</time></trkpt><trkpt lat="46.06002649615263" lon="9.263316734155955"><ele>201.0</ele><time>2026-05-02T13:53:34.007Z</time></trkpt><trkpt lat="46.05994423247666" lon="9.263194774640935"><ele>202.75</ele><time>2026-05-02T13:53:35.007Z</time></trkpt><trkpt lat="46.05986544421243" lon="9.263084390066304"><ele>204.5</ele><time>2026-05-02T13:53:36.007Z</time></trkpt><trkpt lat="46.05978551236211" lon="9.262965381257096"><ele>206.25</ele><time>2026-05-02T13:53:37.007Z</time></trkpt><trkpt lat="46.05970327050938" lon="9.262843817993279"><ele>208.0</ele><time>2026-05-02T13:53:38.007Z</time></trkpt><trkpt lat="46.05962500586469" lon="9.262723461941174"><ele>208.0</ele><time>2026-05-02T13:53:39.007Z</time></trkpt><trkpt lat="46.059552544372615" lon="9.262611502619048"><ele>208.0</ele><time>2026-05-02T13:53:40.007Z</time></trkpt><trkpt lat="46.05947953848611" lon="9.262502317988178"><ele>208.0</ele><time>2026-05-02T13:53:41.007Z</time></trkpt><trkpt lat="46.0594043406245" lon="9.26238860801095"><ele>208.0</ele><time>2026-05-02T13:53:42.007Z</time></trkpt><trkpt lat="46.0593362391922" lon="9.262277632520023"><ele>208.0</ele><time>2026-05-02T13:53:43.007Z</time></trkpt><trkpt lat="46.059276292364494" lon="9.262179388431544"><ele>207.4</ele><time>2026-05-02T13:53:44.007Z</time></trkpt><trkpt lat="46.0592193007491" lon="9.262079496838105"><ele>206.8</ele><time>2026-05-02T13:53:45.008Z</time></trkpt><trkpt lat="46.059166355262924" lon="9.261973630778343"><ele>206.2</ele><time>2026-05-02T13:53:46.008Z</time></trkpt><trkpt lat="46.05910690207003" lon="9.261872265977773"><ele>205.6</ele><time>2026-05-02T13:53:47.008Z</time></trkpt><trkpt lat="46.05904632883255" lon="9.261771738916327"><ele>205.0</ele><time>2026-05-02T13:53:48.008Z</time></trkpt><trkpt lat="46.058983846652005" lon="9.261671908839173"><ele>205.0</ele><time>2026-05-02T13:53:49.008Z</time></trkpt><trkpt lat="46.0589210309078" lon="9.261570026235614"><ele>205.0</ele><time>2026-05-02T13:53:50.008Z</time></trkpt><trkpt lat="46.05885444738638" lon="9.261469393220436"><ele>205.0</ele><time>2026-05-02T13:53:51.007Z</time></trkpt><trkpt lat="46.058785012338134" lon="9.261368016607468"><ele>205.0</ele><time>2026-05-02T13:53:52.006Z</time></trkpt><trkpt lat="46.05870693559047" lon="9.26127716633568"><ele>205.0</ele><time>2026-05-02T13:53:53.006Z</time></trkpt><trkpt lat="46.058620293428696" lon="9.261200991374896"><ele>205.66666666666666</ele><time>2026-05-02T13:53:54.007Z</time></trkpt><trkpt lat="46.05853744883869" lon="9.261131024780056"><ele>206.33333333333331</ele><time>2026-05-02T13:53:55.007Z</time></trkpt><trkpt lat="46.05845909132385" lon="9.26107208179302"><ele>207.0</ele><time>2026-05-02T13:53:56.007Z</time></trkpt><trkpt lat="46.05838913947695" lon="9.261024428185767"><ele>207.66666666666669</ele><time>2026-05-02T13:53:57.007Z</time></trkpt><trkpt lat="46.05832842206461" lon="9.260989797672313"><ele>208.33333333333334</ele><time>2026-05-02T13:53:58.007Z</time></trkpt><trkpt lat="46.05822708781914" lon="9.260934878663203"><ele>209.0</ele><time>2026-05-02T13:54:00.007Z</time></trkpt><trkpt lat="46.058145742763266" lon="9.260898407871155"><ele>209.0</ele><time>2026-05-02T13:54:02.006Z</time></trkpt><trkpt lat="46.05808401071793" lon="9.260856734566051"><ele>209.0</ele><time>2026-05-02T13:54:03.007Z</time></trkpt><trkpt lat="46.05801921655084" lon="9.260812903176541"><ele>209.0</ele><time>2026-05-02T13:54:04.006Z</time></trkpt><trkpt lat="46.05794571821502" lon="9.260741720463104"><ele>209.0</ele><time>2026-05-02T13:54:05.006Z</time></trkpt><trkpt lat="46.057863414963876" lon="9.260640527410297"><ele>209.0</ele><time>2026-05-02T13:54:06.006Z</time></trkpt><trkpt lat="46.05777814556217" lon="9.2605275046055"><ele>208.75</ele><time>2026-05-02T13:54:07.007Z</time></trkpt><trkpt lat="46.057682890953224" lon="9.260398533417698"><ele>208.5</ele><time>2026-05-02T13:54:08.007Z</time></trkpt><trkpt lat="46.05758439399707" lon="9.260267336438098"><ele>208.25</ele><time>2026-05-02T13:54:09.007Z</time></trkpt><trkpt lat="46.05747375485705" lon="9.260168583156466"><ele>208.0</ele><time>2026-05-02T13:54:10.007Z</time></trkpt><trkpt lat="46.057350106944256" lon="9.26009094458732"><ele>208.0</ele><time>2026-05-02T13:54:11.007Z</time></trkpt><trkpt lat="46.05722173963282" lon="9.2600295394089"><ele>208.0</ele><time>2026-05-02T13:54:12.007Z</time></trkpt><trkpt lat="46.05709848855929" lon="9.259937854564933"><ele>208.0</ele><time>2026-05-02T13:54:13.007Z</time></trkpt><trkpt lat="46.056993813076275" lon="9.259828473975997"><ele>208.0</ele><time>2026-05-02T13:54:14.007Z</time></trkpt><trkpt lat="46.05689033057107" lon="9.259705367981148"><ele>209.0</ele><time>2026-05-02T13:54:15.007Z</time></trkpt><trkpt lat="46.056797311918785" lon="9.259574013434506"><ele>210.0</ele><time>2026-05-02T13:54:16.007Z</time></trkpt><trkpt lat="46.05669972310214" lon="9.259447545983267"><ele>211.0</ele><time>2026-05-02T13:54:17.007Z</time></trkpt><trkpt lat="46.05659566657209" lon="9.25933341154553"><ele>212.0</ele><time>2026-05-02T13:54:18.007Z</time></trkpt><trkpt lat="46.056485174879754" lon="9.259225957514058"><ele>212.0</ele><time>2026-05-02T13:54:19.007Z</time></trkpt><trkpt lat="46.056375071003586" lon="9.259111241497783"><ele>212.0</ele><time>2026-05-02T13:54:20.007Z</time></trkpt><trkpt lat="46.05626631235773" lon="9.259001348352582"><ele>212.0</ele><time>2026-05-02T13:54:21.007Z</time></trkpt><trkpt lat="46.05616868141759" lon="9.258902672668572"><ele>212.0</ele><time>2026-05-02T13:54:22.007Z</time></trkpt><trkpt lat="46.05609510160332" lon="9.258777485803046"><ele>215.75</ele><time>2026-05-02T13:54:23.007Z</time></trkpt><trkpt lat="46.05598706881507" lon="9.258712954543514"><ele>219.5</ele><time>2026-05-02T13:54:24.007Z</time></trkpt><trkpt lat="46.05587229014862" lon="9.25867106313553"><ele>223.25</ele><time>2026-05-02T13:54:25.007Z</time></trkpt><trkpt lat="46.055750284151735" lon="9.2586545432457"><ele>227.0</ele><time>2026-05-02T13:54:26.007Z</time></trkpt><trkpt lat="46.05562275523889" lon="9.258660284470434"><ele>227.0</ele><time>2026-05-02T13:54:27.007Z</time></trkpt><trkpt lat="46.05549488746323" lon="9.258694053319692"><ele>227.0</ele><time>2026-05-02T13:54:28.007Z</time></trkpt><trkpt lat="46.05536633841196" lon="9.258732416792206"><ele>227.0</ele><time>2026-05-02T13:54:29.007Z</time></trkpt><trkpt lat="46.055237949380455" lon="9.258775999908348"><ele>227.0</ele><time>2026-05-02T13:54:30.007Z</time></trkpt><trkpt lat="46.055111307385936" lon="9.258815790722615"><ele>227.0</ele><time>2026-05-02T13:54:31.007Z</time></trkpt><trkpt lat="46.05498228102451" lon="9.258854349458625"><ele>227.0</ele><time>2026-05-02T13:54:32.007Z</time></trkpt><trkpt lat="46.05485039377686" lon="9.258881447876655"><ele>227.0</ele><time>2026-05-02T13:54:33.007Z</time></trkpt><trkpt lat="46.05471634798014" lon="9.258901350711813"><ele>227.0</ele><time>2026-05-02T13:54:34.007Z</time></trkpt><trkpt lat="46.05457925241985" lon="9.258908761935666"><ele>227.5</ele><time>2026-05-02T13:54:35.007Z</time></trkpt><trkpt lat="46.05444597091709" lon="9.258930971306373"><ele>228.0</ele><time>2026-05-02T13:54:36.007Z</time></trkpt><trkpt lat="46.05431679813643" lon="9.25895184067516"><ele>228.5</ele><time>2026-05-02T13:54:37.007Z</time></trkpt><trkpt lat="46.054201882110505" lon="9.258966340226003"><ele>229.0</ele><time>2026-05-02T13:54:38.007Z</time></trkpt><trkpt lat="46.05408930030151" lon="9.258969963847157"><ele>229.75</ele><time>2026-05-02T13:54:39.007Z</time></trkpt><trkpt lat="46.05397455125225" lon="9.25895839818276"><ele>230.5</ele><time>2026-05-02T13:54:40.007Z</time></trkpt><trkpt lat="46.0538409876763" lon="9.258934621899803"><ele>231.25</ele><time>2026-05-02T13:54:41.007Z</time></trkpt><trkpt lat="46.05371216964598" lon="9.258911610850108"><ele>232.0</ele><time>2026-05-02T13:54:42.007Z</time></trkpt><trkpt lat="46.05357761458248" lon="9.258897828371252"><ele>232.0</ele><time>2026-05-02T13:54:43.007Z</time></trkpt><trkpt lat="46.053448220109985" lon="9.258907102469566"><ele>232.0</ele><time>2026-05-02T13:54:44.007Z</time></trkpt><trkpt lat="46.05334170991402" lon="9.258913624438502"><ele>232.0</ele><time>2026-05-02T13:54:45.007Z</time></trkpt><trkpt lat="46.053259747863194" lon="9.258918643243646"><ele>232.0</ele><time>2026-05-02T13:54:46.007Z</time></trkpt><trkpt lat="46.05318284342578" lon="9.258923352377119"><ele>232.0</ele><time>2026-05-02T13:54:47.007Z</time></trkpt><trkpt lat="46.05307682511525" lon="9.258927422509846"><ele>231.0</ele><time>2026-05-02T13:54:49.007Z</time></trkpt><trkpt lat="46.052982844018054" lon="9.258922850516859"><ele>230.0</ele><time>2026-05-02T13:54:51.007Z</time></trkpt><trkpt lat="46.05284096174368" lon="9.25891199259636"><ele>229.0</ele><time>2026-05-02T13:54:53.007Z</time></trkpt><trkpt lat="46.05274640849028" lon="9.258887175803917"><ele>228.0</ele><time>2026-05-02T13:54:54.007Z</time></trkpt><trkpt lat="46.052647216956345" lon="9.258862819355155"><ele>227.0</ele><time>2026-05-02T13:54:55.008Z</time></trkpt><trkpt lat="46.05254259810993" lon="9.258837786090242"><ele>223.75</ele><time>2026-05-02T13:54:56.008Z</time></trkpt><trkpt lat="46.052437486278954" lon="9.258795885806618"><ele>220.5</ele><time>2026-05-02T13:54:57.008Z</time></trkpt><trkpt lat="46.052332086571866" lon="9.258736556577736"><ele>217.25</ele><time>2026-05-02T13:54:58.008Z</time></trkpt><trkpt lat="46.05223314671353" lon="9.258661629923099"><ele>214.0</ele><time>2026-05-02T13:54:59.008Z</time></trkpt><trkpt lat="46.05212913275618" lon="9.25858493934143"><ele>214.0</ele><time>2026-05-02T13:55:00.008Z</time></trkpt><trkpt lat="46.052031553169925" lon="9.258480274871872"><ele>214.0</ele><time>2026-05-02T13:55:01.008Z</time></trkpt><trkpt lat="46.051935794348374" lon="9.258355953873089"><ele>214.0</ele><time>2026-05-02T13:55:02.008Z</time></trkpt><trkpt lat="46.05183959891468" lon="9.258224779559047"><ele>214.0</ele><time>2026-05-02T13:55:03.008Z</time></trkpt><trkpt lat="46.051770164244694" lon="9.258048735160617"><ele>215.0</ele><time>2026-05-02T13:55:04.008Z</time></trkpt><trkpt lat="46.05167364214859" lon="9.257934028602877"><ele>216.0</ele><time>2026-05-02T13:55:05.008Z</time></trkpt><trkpt lat="46.05156886372762" lon="9.257830138186378"><ele>217.0</ele><time>2026-05-02T13:55:06.008Z</time></trkpt><trkpt lat="46.051453331721184" lon="9.257735647824433"><ele>218.0</ele><time>2026-05-02T13:55:07.008Z</time></trkpt><trkpt lat="46.051330983387075" lon="9.25765414539527"><ele>218.0</ele><time>2026-05-02T13:55:08.008Z</time></trkpt><trkpt lat="46.051201632927494" lon="9.257580365836606"><ele>218.0</ele><time>2026-05-02T13:55:09.008Z</time></trkpt><trkpt lat="46.051063697119396" lon="9.257502140408532"><ele>218.0</ele><time>2026-05-02T13:55:10.008Z</time></trkpt><trkpt lat="46.05092495394599" lon="9.257424914945487"><ele>218.0</ele><time>2026-05-02T13:55:11.008Z</time></trkpt><trkpt lat="46.05078600313984" lon="9.25734745610669"><ele>219.5</ele><time>2026-05-02T13:55:12.008Z</time></trkpt><trkpt lat="46.050652905257316" lon="9.257276326387034"><ele>221.0</ele><time>2026-05-02T13:55:13.008Z</time></trkpt><trkpt lat="46.05052531313263" lon="9.257202362077193"><ele>222.5</ele><time>2026-05-02T13:55:14.008Z</time></trkpt><trkpt lat="46.05040515692464" lon="9.257127289255017"><ele>224.0</ele><time>2026-05-02T13:55:15.008Z</time></trkpt><trkpt lat="46.050287792403815" lon="9.257044710062512"><ele>224.0</ele><time>2026-05-02T13:55:16.008Z</time></trkpt><trkpt lat="46.050175116813264" lon="9.256943108958035"><ele>224.0</ele><time>2026-05-02T13:55:17.008Z</time></trkpt><trkpt lat="46.05006647808736" lon="9.256819729259693"><ele>224.0</ele><time>2026-05-02T13:55:18.008Z</time></trkpt><trkpt lat="46.049964696618375" lon="9.25668044991914"><ele>224.0</ele><time>2026-05-02T13:55:19.008Z</time></trkpt><trkpt lat="46.04987139297156" lon="9.25652497254716"><ele>223.75</ele><time>2026-05-02T13:55:20.008Z</time></trkpt><trkpt lat="46.04978667745354" lon="9.25634922710095"><ele>223.5</ele><time>2026-05-02T13:55:21.008Z</time></trkpt><trkpt lat="46.049702696257846" lon="9.25617933941266"><ele>223.25</ele><time>2026-05-02T13:55:22.008Z</time></trkpt><trkpt lat="46.04963816642027" lon="9.255994421469564"><ele>223.0</ele><time>2026-05-02T13:55:23.008Z</time></trkpt><trkpt lat="46.04955814150587" lon="9.255825800438624"><ele>223.0</ele><time>2026-05-02T13:55:24.008Z</time></trkpt><trkpt lat="46.049465589803994" lon="9.255645674586802"><ele>223.0</ele><time>2026-05-02T13:55:25.008Z</time></trkpt><trkpt lat="46.049361562402794" lon="9.255468687864274"><ele>223.0</ele><time>2026-05-02T13:55:26.008Z</time></trkpt><trkpt lat="46.049245811560084" lon="9.255302350686812"><ele>229.66666666666666</ele><time>2026-05-02T13:55:27.008Z</time></trkpt><trkpt lat="46.04911881423951" lon="9.255142819704638"><ele>236.33333333333331</ele><time>2026-05-02T13:55:28.008Z</time></trkpt><trkpt lat="46.04898217261358" lon="9.25499964609708"><ele>243.0</ele><time>2026-05-02T13:55:29.008Z</time></trkpt><trkpt lat="46.04882176395879" lon="9.254854271901863"><ele>256.0</ele><time>2026-05-02T13:55:30.144Z</time></trkpt><trkpt lat="46.04866548064065" lon="9.25473658889527"><ele>269.0</ele><time>2026-05-02T13:55:31.143Z</time></trkpt><trkpt lat="46.0485091688555" lon="9.254638637991585"><ele>282.0</ele><time>2026-05-02T13:55:32.146Z</time></trkpt><trkpt lat="46.04834688701278" lon="9.254560305670608"><ele>259.0</ele><time>2026-05-02T13:55:33.147Z</time></trkpt><trkpt lat="46.046677954381295" lon="9.253929293560315"><ele>253.33333333333331</ele><time>2026-05-02T13:55:43.009Z</time></trkpt><trkpt lat="46.04653135901605" lon="9.25389295105249"><ele>247.66666666666669</ele><time>2026-05-02T13:55:44.009Z</time></trkpt><trkpt lat="46.04637824039021" lon="9.253924694428038"><ele>242.0</ele><time>2026-05-02T13:55:45.009Z</time></trkpt><trkpt lat="46.04623433573882" lon="9.253872412441213"><ele>242.0</ele><time>2026-05-02T13:55:46.009Z</time></trkpt><trkpt lat="46.046100927077596" lon="9.253803263620323"><ele>242.0</ele><time>2026-05-02T13:55:47.009Z</time></trkpt><trkpt lat="46.04596080700008" lon="9.253705856846443"><ele>242.0</ele><time>2026-05-02T13:55:48.009Z</time></trkpt><trkpt lat="46.045826089958005" lon="9.253586104951225"><ele>239.0</ele><time>2026-05-02T13:55:49.009Z</time></trkpt><trkpt lat="46.045674372003106" lon="9.25351188796343"><ele>236.0</ele><time>2026-05-02T13:55:50.009Z</time></trkpt><trkpt lat="46.045523765250024" lon="9.253418202648987"><ele>233.0</ele><time>2026-05-02T13:55:51.009Z</time></trkpt><trkpt lat="46.04537344180523" lon="9.253308697871626"><ele>233.0</ele><time>2026-05-02T13:55:52.009Z</time></trkpt><trkpt lat="46.04525113306151" lon="9.253157003536824"><ele>233.0</ele><time>2026-05-02T13:55:53.009Z</time></trkpt><trkpt lat="46.045094154396054" lon="9.253038010920939"><ele>233.0</ele><time>2026-05-02T13:55:54.009Z</time></trkpt><trkpt lat="46.044918044025984" lon="9.252904777694535"><ele>243.33333333333334</ele><time>2026-05-02T13:55:55.009Z</time></trkpt><trkpt lat="46.04479361970312" lon="9.252810646612142"><ele>253.66666666666669</ele><time>2026-05-02T13:55:56.009Z</time></trkpt><trkpt lat="46.04462651831818" lon="9.252683159519844"><ele>264.0</ele><time>2026-05-02T13:55:57.145Z</time></trkpt><trkpt lat="46.04446195774569" lon="9.252557011260043"><ele>264.0</ele><time>2026-05-02T13:55:58.144Z</time></trkpt><trkpt lat="46.044251230330616" lon="9.252605013595153"><ele>264.0</ele><time>2026-05-02T13:55:59.144Z</time></trkpt><trkpt lat="46.044100102298124" lon="9.252515088671128"><ele>264.0</ele><time>2026-05-02T13:56:00.149Z</time></trkpt><trkpt lat="46.04393979773476" lon="9.252423291178996"><ele>260.0</ele><time>2026-05-02T13:56:01.146Z</time></trkpt><trkpt lat="46.04237329827846" lon="9.251275950482317"><ele>260.0</ele><time>2026-05-02T13:56:05.023Z</time></trkpt><trkpt lat="46.04194046461789" lon="9.251093559329227"><ele>249.0</ele><time>2026-05-02T13:56:06.025Z</time></trkpt><trkpt lat="46.04150997546866" lon="9.250912410512985"><ele>238.0</ele><time>2026-05-02T13:56:07.023Z</time></trkpt><trkpt lat="46.041076807448455" lon="9.250736859503911"><ele>225.0</ele><time>2026-05-02T13:56:08.023Z</time></trkpt><trkpt lat="46.04067526528876" lon="9.250452548461688"><ele>212.0</ele><time>2026-05-02T13:56:09.023Z</time></trkpt><trkpt lat="46.0401847761321" lon="9.249400364710107"><ele>223.0</ele><time>2026-05-02T13:56:11.026Z</time></trkpt><trkpt lat="46.040219063735925" lon="9.248114308574857"><ele>223.0</ele><time>2026-05-02T13:56:13.033Z</time></trkpt><trkpt lat="46.040336243309575" lon="9.246972512863321"><ele>198.0</ele><time>2026-05-02T13:56:14.026Z</time></trkpt><trkpt lat="46.04035270806827" lon="9.24581684133128"><ele>330.0</ele><time>2026-05-02T13:56:15.023Z</time></trkpt><trkpt lat="46.04009645037889" lon="9.244715669819705"><ele>198.0</ele><time>2026-05-02T13:56:16.025Z</time></trkpt><trkpt lat="46.03973586651452" lon="9.243673995619245"><ele>198.0</ele><time>2026-05-02T13:56:17.026Z</time></trkpt><trkpt lat="46.039371661717816" lon="9.242635884381773"><ele>198.0</ele><time>2026-05-02T13:56:18.025Z</time></trkpt><trkpt lat="46.038928932680996" lon="9.241665896497153"><ele>198.0</ele><time>2026-05-02T13:56:19.026Z</time></trkpt><trkpt lat="46.0388858" lon="9.241597"><ele>198.0</ele><time>2026-05-02T13:56:20.023Z</time></trkpt><trkpt lat="46.04013716913508" lon="9.250055479338608"><ele>202.33333333333331</ele><time>2026-05-02T13:56:25.008Z</time></trkpt><trkpt lat="46.04015070959138" lon="9.249806992870203"><ele>206.66666666666666</ele><time>2026-05-02T13:56:26.008Z</time></trkpt><trkpt lat="46.04011527200991" lon="9.249617001392183"><ele>211.0</ele><time>2026-05-02T13:56:27.008Z</time></trkpt><trkpt lat="46.040190304125865" lon="9.249359182486621"><ele>211.0</ele><time>2026-05-02T13:56:28.008Z</time></trkpt><trkpt lat="46.04016692180615" lon="9.249014995354445"><ele>211.0</ele><time>2026-05-02T13:56:29.008Z</time></trkpt><trkpt lat="46.04017059209224" lon="9.248800116813715"><ele>211.0</ele><time>2026-05-02T13:56:30.008Z</time></trkpt><trkpt lat="46.0401789372896" lon="9.248585976670213"><ele>213.0</ele><time>2026-05-02T13:56:31.009Z</time></trkpt><trkpt lat="46.0402015622919" lon="9.24838101237374"><ele>215.0</ele><time>2026-05-02T13:56:32.009Z</time></trkpt><trkpt lat="46.04022113689439" lon="9.248173897192142"><ele>217.0</ele><time>2026-05-02T13:56:33.009Z</time></trkpt><trkpt lat="46.0402381543672" lon="9.247974700051326"><ele>219.0</ele><time>2026-05-02T13:56:34.009Z</time></trkpt><trkpt lat="46.040254942205415" lon="9.247775222028821"><ele>220.0</ele><time>2026-05-02T13:56:35.009Z</time></trkpt><trkpt lat="46.04028907490934" lon="9.24758058286471"><ele>221.0</ele><time>2026-05-02T13:56:36.009Z</time></trkpt><trkpt lat="46.040309423519744" lon="9.247386222934344"><ele>222.0</ele><time>2026-05-02T13:56:37.009Z</time></trkpt><trkpt lat="46.040331027303715" lon="9.247187932824406"><ele>223.0</ele><time>2026-05-02T13:56:38.009Z</time></trkpt><trkpt lat="46.04035154421073" lon="9.246988055602786"><ele>214.66666666666666</ele><time>2026-05-02T13:56:39.009Z</time></trkpt><trkpt lat="46.040367732691635" lon="9.246777115360732"><ele>206.33333333333331</ele><time>2026-05-02T13:56:40.009Z</time></trkpt><trkpt lat="46.04038098851786" lon="9.246561354853698"><ele>198.0</ele><time>2026-05-02T13:56:41.009Z</time></trkpt><trkpt lat="46.04039056990881" lon="9.246316654141678"><ele>198.0</ele><time>2026-05-02T13:56:42.145Z</time></trkpt><trkpt lat="46.040387508896494" lon="9.246100657393356"><ele>198.0</ele><time>2026-05-02T13:56:43.144Z</time></trkpt><trkpt lat="46.039644610593996" lon="9.243412045350103"><ele>198.0</ele><time>2026-05-02T13:56:47.026Z</time></trkpt><trkpt lat="46.03927599542875" lon="9.242380132704685"><ele>224.0</ele><time>2026-05-02T13:56:48.024Z</time></trkpt><trkpt lat="46.03878781084464" lon="9.241454519877678"><ele>216.0</ele><time>2026-05-02T13:56:49.026Z</time></trkpt><trkpt lat="46.037843930327384" lon="9.238984279344642"><ele>286.0</ele><time>2026-05-02T13:56:54.025Z</time></trkpt><trkpt lat="46.037669928550926" lon="9.238113743195772"><ele>282.0</ele><time>2026-05-02T13:56:55.027Z</time></trkpt><trkpt lat="46.03740265391165" lon="9.237299216943397"><ele>282.0</ele><time>2026-05-02T13:56:56.024Z</time></trkpt><trkpt lat="46.03703967409601" lon="9.236558431030588"><ele>287.0</ele><time>2026-05-02T13:56:57.027Z</time></trkpt><trkpt lat="46.036594241546794" lon="9.235921872157196"><ele>331.0</ele><time>2026-05-02T13:56:58.026Z</time></trkpt><trkpt lat="46.036075445549365" lon="9.235409492964724"><ele>316.0</ele><time>2026-05-02T13:56:59.027Z</time></trkpt><trkpt lat="46.03551501659703" lon="9.23499745744384"><ele>330.0</ele><time>2026-05-02T13:57:00.027Z</time></trkpt><trkpt lat="46.0351093" lon="9.2347606"><ele>344.0</ele><time>2026-05-02T13:57:01.027Z</time></trkpt><trkpt lat="46.03821313841811" lon="9.240458427845777"><ele>301.33333333333337</ele><time>2026-05-02T13:57:11.009Z</time></trkpt><trkpt lat="46.038047819360614" lon="9.240113716814442"><ele>258.6666666666667</ele><time>2026-05-02T13:57:13.009Z</time></trkpt><trkpt lat="46.03801635497943" lon="9.239914289872223"><ele>216.0</ele><time>2026-05-02T13:57:14.009Z</time></trkpt><trkpt lat="46.03799656123942" lon="9.239706548392508"><ele>216.0</ele><time>2026-05-02T13:57:15.009Z</time></trkpt><trkpt lat="46.037967860572124" lon="9.239489987398693"><ele>216.0</ele><time>2026-05-02T13:57:16.009Z</time></trkpt><trkpt lat="46.037935436558136" lon="9.239280221809318"><ele>216.0</ele><time>2026-05-02T13:57:17.009Z</time></trkpt><trkpt lat="46.037898134147035" lon="9.239067441018733"><ele>226.66666666666669</ele><time>2026-05-02T13:57:18.009Z</time></trkpt><trkpt lat="46.037863132082826" lon="9.23885453461804"><ele>237.33333333333334</ele><time>2026-05-02T13:57:19.01Z</time></trkpt><trkpt lat="46.037826747845116" lon="9.238641771542932"><ele>248.0</ele><time>2026-05-02T13:57:20.01Z</time></trkpt><trkpt lat="46.03779422726827" lon="9.23843405649714"><ele>248.0</ele><time>2026-05-02T13:57:21.01Z</time></trkpt><trkpt lat="46.037764132047066" lon="9.238221400659198"><ele>248.0</ele><time>2026-05-02T13:57:22.01Z</time></trkpt><trkpt lat="46.037730843577556" lon="9.238002887142759"><ele>248.0</ele><time>2026-05-02T13:57:23.01Z</time></trkpt><trkpt lat="46.03767252147012" lon="9.237766204425457"><ele>267.0</ele><time>2026-05-02T13:57:24.146Z</time></trkpt><trkpt lat="46.03760760016887" lon="9.237571109011807"><ele>286.0</ele><time>2026-05-02T13:57:25.146Z</time></trkpt><trkpt lat="46.036184880114156" lon="9.235502329225104"><ele>316.0</ele><time>2026-05-02T13:57:29.024Z</time></trkpt><trkpt lat="46.03562918475315" lon="9.23507198092213"><ele>344.0</ele><time>2026-05-02T13:57:30.027Z</time></trkpt><trkpt lat="46.0351093" lon="9.2347606"><ele>278.0</ele><time>2026-05-02T13:57:31.024Z</time></trkpt><trkpt lat="46.02244940245955" lon="9.233416918114534"><ele>278.0</ele><time>2026-05-02T13:58:50.011Z</time></trkpt><trkpt lat="46.02228077144813" lon="9.233481598639093"><ele>278.0</ele><time>2026-05-02T13:58:51.011Z</time></trkpt><trkpt lat="46.02211495477112" lon="9.233488456918344"><ele>278.0</ele><time>2026-05-02T13:58:52.011Z</time></trkpt><trkpt lat="46.02194856247177" lon="9.233525093352341"><ele>278.0</ele><time>2026-05-02T13:58:53.011Z</time></trkpt><trkpt lat="46.021760001847085" lon="9.233537889053187"><ele>278.0</ele><time>2026-05-02T13:58:54.011Z</time></trkpt><trkpt lat="46.021569059898155" lon="9.23355591351931"><ele>278.0</ele><time>2026-05-02T13:58:55.01Z</time></trkpt><trkpt lat="46.02138356795312" lon="9.233573440147728"><ele>277.33333333333337</ele><time>2026-05-02T13:58:56.01Z</time></trkpt><trkpt lat="46.02120002496449" lon="9.233596475488593"><ele>276.6666666666667</ele><time>2026-05-02T13:58:57.01Z</time></trkpt><trkpt lat="46.02101669535846" lon="9.233621088486302"><ele>276.0</ele><time>2026-05-02T13:58:58.01Z</time></trkpt><trkpt lat="46.02083005754131" lon="9.23365110530576"><ele>274.5</ele><time>2026-05-02T13:58:59.01Z</time></trkpt><trkpt lat="46.02060651505401" lon="9.233523950504209"><ele>273.0</ele><time>2026-05-02T13:59:00.01Z</time></trkpt><trkpt lat="46.00527003774859" lon="9.234456763311908"><ele>263.4</ele><time>2026-05-02T14:00:37.013Z</time></trkpt><trkpt lat="46.00518324331602" lon="9.23439352654484"><ele>253.8</ele><time>2026-05-02T14:00:38.013Z</time></trkpt><trkpt lat="46.0050933831306" lon="9.234358153073174"><ele>244.2</ele><time>2026-05-02T14:00:39.013Z</time></trkpt><trkpt lat="46.00500860285967" lon="9.234377898025773"><ele>234.6</ele><time>2026-05-02T14:00:40.013Z</time></trkpt><trkpt lat="46.0049156662997" lon="9.234392965596282"><ele>225.0</ele><time>2026-05-02T14:00:41.013Z</time></trkpt><trkpt lat="46.00482077314669" lon="9.234407651243842"><ele>225.0</ele><time>2026-05-02T14:00:42.013Z</time></trkpt><trkpt lat="46.00472737763157" lon="9.234426074584174"><ele>225.0</ele><time>2026-05-02T14:00:43.013Z</time></trkpt><trkpt lat="46.004634710788146" lon="9.234450535122159"><ele>225.0</ele><time>2026-05-02T14:00:44.013Z</time></trkpt><trkpt lat="46.00454528394427" lon="9.234465289305216"><ele>225.0</ele><time>2026-05-02T14:00:45.013Z</time></trkpt><trkpt lat="46.004450622007134" lon="9.23450634794572"><ele>225.0</ele><time>2026-05-02T14:00:46.013Z</time></trkpt><trkpt lat="46.00436306855739" lon="9.234554941781267"><ele>225.0</ele><time>2026-05-02T14:00:47.013Z</time></trkpt><trkpt lat="46.004273714118256" lon="9.234582753306622"><ele>225.0</ele><time>2026-05-02T14:00:48.013Z</time></trkpt><trkpt lat="46.00417788260005" lon="9.234597782698986"><ele>225.0</ele><time>2026-05-02T14:00:49.013Z</time></trkpt><trkpt lat="46.004073575864" lon="9.23444474189349"><ele>225.0</ele><time>2026-05-02T14:00:50.013Z</time></trkpt><trkpt lat="46.003975861326985" lon="9.234452532080846"><ele>225.0</ele><time>2026-05-02T14:00:51.013Z</time></trkpt><trkpt lat="46.003889607034445" lon="9.234483308046865"><ele>225.0</ele><time>2026-05-02T14:00:52.013Z</time></trkpt><trkpt lat="46.00379530469516" lon="9.234437275712105"><ele>225.0</ele><time>2026-05-02T14:00:53.013Z</time></trkpt><trkpt lat="46.00370166818495" lon="9.234418221949351"><ele>225.0</ele><time>2026-05-02T14:00:54.013Z</time></trkpt><trkpt lat="46.003603997669465" lon="9.234393532726628"><ele>225.0</ele><time>2026-05-02T14:00:55.013Z</time></trkpt><trkpt lat="46.00350553480126" lon="9.234374016061492"><ele>225.0</ele><time>2026-05-02T14:00:56.013Z</time></trkpt><trkpt lat="46.00340921968184" lon="9.234345401835826"><ele>224.2</ele><time>2026-05-02T14:00:57.013Z</time></trkpt><trkpt lat="46.00331657185695" lon="9.234321324385009"><ele>223.4</ele><time>2026-05-02T14:00:58.013Z</time></trkpt><trkpt lat="46.00321999080645" lon="9.234349428164087"><ele>222.60000000000002</ele><time>2026-05-02T14:00:59.013Z</time></trkpt><trkpt lat="46.003125309796104" lon="9.234337469928887"><ele>221.8</ele><time>2026-05-02T14:01:00.013Z</time></trkpt><trkpt lat="46.003027827739224" lon="9.2343537027146"><ele>221.0</ele><time>2026-05-02T14:01:01.013Z</time></trkpt><trkpt lat="46.00292625866077" lon="9.234390176956799"><ele>221.0</ele><time>2026-05-02T14:01:02.013Z</time></trkpt><trkpt lat="46.00281182412356" lon="9.23445712754673"><ele>221.0</ele><time>2026-05-02T14:01:03.012Z</time></trkpt><trkpt lat="46.00270209320534" lon="9.234524042461597"><ele>221.0</ele><time>2026-05-02T14:01:04.013Z</time></trkpt><trkpt lat="46.002589447323004" lon="9.23458335562335"><ele>221.0</ele><time>2026-05-02T14:01:05.013Z</time></trkpt><trkpt lat="46.0024739860538" lon="9.234641021304265"><ele>222.25</ele><time>2026-05-02T14:01:06.013Z</time></trkpt><trkpt lat="46.0023603678896" lon="9.234699652510235"><ele>223.5</ele><time>2026-05-02T14:01:07.012Z</time></trkpt><trkpt lat="46.00224175810772" lon="9.234783437765428"><ele>224.75</ele><time>2026-05-02T14:01:08.012Z</time></trkpt><trkpt lat="46.00212897428799" lon="9.234878058299815"><ele>226.0</ele><time>2026-05-02T14:01:09.013Z</time></trkpt><trkpt lat="46.00201555777634" lon="9.2349858015014"><ele>224.75</ele><time>2026-05-02T14:01:10.013Z</time></trkpt><trkpt lat="46.00190266652947" lon="9.235100984240313"><ele>223.5</ele><time>2026-05-02T14:01:11.013Z</time></trkpt><trkpt lat="46.00179033975027" lon="9.23521499716579"><ele>222.25</ele><time>2026-05-02T14:01:12.013Z</time></trkpt><trkpt lat="46.00168746398801" lon="9.235333266582852"><ele>221.0</ele><time>2026-05-02T14:01:13.013Z</time></trkpt><trkpt lat="46.00158943909508" lon="9.235440816667385"><ele>221.0</ele><time>2026-05-02T14:01:14.013Z</time></trkpt><trkpt lat="46.00149465155198" lon="9.23554458564197"><ele>221.0</ele><time>2026-05-02T14:01:15.013Z</time></trkpt><trkpt lat="46.00140806348905" lon="9.235637919288338"><ele>221.0</ele><time>2026-05-02T14:01:16.013Z</time></trkpt><trkpt lat="46.00132074895332" lon="9.235744428348255"><ele>221.0</ele><time>2026-05-02T14:01:17.013Z</time></trkpt><trkpt lat="46.001238967758525" lon="9.23584863131977"><ele>219.33333333333334</ele><time>2026-05-02T14:01:18.013Z</time></trkpt><trkpt lat="46.00115716290254" lon="9.235944631520395"><ele>217.66666666666669</ele><time>2026-05-02T14:01:19.013Z</time></trkpt><trkpt lat="46.00108076379391" lon="9.236038509734108"><ele>216.0</ele><time>2026-05-02T14:01:20.013Z</time></trkpt><trkpt lat="46.001010532342285" lon="9.236118740811973"><ele>214.33333333333331</ele><time>2026-05-02T14:01:21.013Z</time></trkpt><trkpt lat="46.000945413895806" lon="9.236192656962999"><ele>212.66666666666666</ele><time>2026-05-02T14:01:22.013Z</time></trkpt><trkpt lat="46.00089293141819" lon="9.23624869325207"><ele>211.0</ele><time>2026-05-02T14:01:23.013Z</time></trkpt><trkpt lat="46.00084115468838" lon="9.236301502514785"><ele>212.16666666666666</ele><time>2026-05-02T14:01:24.013Z</time></trkpt><trkpt lat="46.00078154356735" lon="9.236363040254384"><ele>213.33333333333331</ele><time>2026-05-02T14:01:25.013Z</time></trkpt><trkpt lat="46.00071345203778" lon="9.236420707404399"><ele>214.5</ele><time>2026-05-02T14:01:26.013Z</time></trkpt><trkpt lat="46.0006343429757" lon="9.236482095139491"><ele>215.66666666666669</ele><time>2026-05-02T14:01:27.013Z</time></trkpt><trkpt lat="46.00054663488816" lon="9.236538397642244"><ele>216.83333333333334</ele><time>2026-05-02T14:01:28.013Z</time></trkpt><trkpt lat="46.00044746793502" lon="9.236584310975033"><ele>218.0</ele><time>2026-05-02T14:01:29.013Z</time></trkpt><trkpt lat="46.000342396773256" lon="9.236624519824543"><ele>214.25</ele><time>2026-05-02T14:01:30.013Z</time></trkpt><trkpt lat="46.00023114103785" lon="9.236647119208804"><ele>210.5</ele><time>2026-05-02T14:01:31.013Z</time></trkpt><trkpt lat="46.000111658486325" lon="9.2366626820904"><ele>206.75</ele><time>2026-05-02T14:01:32.013Z</time></trkpt><trkpt lat="45.99999575536155" lon="9.236664389889556"><ele>203.0</ele><time>2026-05-02T14:01:33.013Z</time></trkpt><trkpt lat="45.999879318886975" lon="9.236668330660574"><ele>203.0</ele><time>2026-05-02T14:01:34.013Z</time></trkpt><trkpt lat="45.99976630146852" lon="9.236678449881342"><ele>203.0</ele><time>2026-05-02T14:01:35.013Z</time></trkpt><trkpt lat="45.99965803974616" lon="9.236647897595285"><ele>203.0</ele><time>2026-05-02T14:01:36.013Z</time></trkpt><trkpt lat="45.99954922487144" lon="9.236678623787785"><ele>203.0</ele><time>2026-05-02T14:01:37.013Z</time></trkpt><trkpt lat="45.99944162190826" lon="9.2367337721997"><ele>203.0</ele><time>2026-05-02T14:01:38.013Z</time></trkpt><trkpt lat="45.99933401869062" lon="9.236805506575653"><ele>203.0</ele><time>2026-05-02T14:01:39.013Z</time></trkpt><trkpt lat="45.99923337330686" lon="9.236894946095159"><ele>203.0</ele><time>2026-05-02T14:01:40.013Z</time></trkpt><trkpt lat="45.999131992293194" lon="9.236996580857644"><ele>203.0</ele><time>2026-05-02T14:01:41.013Z</time></trkpt><trkpt lat="45.99902893343032" lon="9.237105868704893"><ele>203.0</ele><time>2026-05-02T14:01:42.013Z</time></trkpt><trkpt lat="45.998924677268896" lon="9.237217462950177"><ele>202.0</ele><time>2026-05-02T14:01:43.013Z</time></trkpt><trkpt lat="45.9988204183838" lon="9.237334450982207"><ele>201.0</ele><time>2026-05-02T14:01:44.013Z</time></trkpt><trkpt lat="45.9987198444308" lon="9.23744682532114"><ele>200.0</ele><time>2026-05-02T14:01:45.013Z</time></trkpt><trkpt lat="45.99861979949151" lon="9.2375548574288"><ele>199.0</ele><time>2026-05-02T14:01:46.013Z</time></trkpt><trkpt lat="45.998517789547414" lon="9.237660879446697"><ele>199.0</ele><time>2026-05-02T14:01:47.013Z</time></trkpt><trkpt lat="45.998415542447205" lon="9.237767536808065"><ele>199.0</ele><time>2026-05-02T14:01:48.013Z</time></trkpt><trkpt lat="45.99830872770452" lon="9.237865462030294"><ele>199.0</ele><time>2026-05-02T14:01:49.013Z</time></trkpt><trkpt lat="45.99819771696826" lon="9.237954130157377"><ele>199.0</ele><time>2026-05-02T14:01:50.013Z</time></trkpt><trkpt lat="45.99807827907967" lon="9.23804215242127"><ele>200.0</ele><time>2026-05-02T14:01:51.013Z</time></trkpt><trkpt lat="45.99794840076494" lon="9.238126720363347"><ele>201.0</ele><time>2026-05-02T14:01:52.013Z</time></trkpt><trkpt lat="45.99781562337293" lon="9.238199875414079"><ele>202.0</ele><time>2026-05-02T14:01:53.013Z</time></trkpt><trkpt lat="45.99768677026639" lon="9.238272649643678"><ele>203.0</ele><time>2026-05-02T14:01:54.013Z</time></trkpt><trkpt lat="45.99757307878111" lon="9.238329744561165"><ele>204.2</ele><time>2026-05-02T14:01:55.013Z</time></trkpt><trkpt lat="45.99746903112845" lon="9.238368584741021"><ele>205.4</ele><time>2026-05-02T14:01:56.014Z</time></trkpt><trkpt lat="45.99737199991372" lon="9.238403297097289"><ele>206.6</ele><time>2026-05-02T14:01:57.014Z</time></trkpt><trkpt lat="45.99727955396515" lon="9.238434458274826"><ele>207.79999999999998</ele><time>2026-05-02T14:01:58.014Z</time></trkpt><trkpt lat="45.99719112000544" lon="9.238459076867994"><ele>209.0</ele><time>2026-05-02T14:01:59.014Z</time></trkpt><trkpt lat="45.9971015669669" lon="9.23849033830135"><ele>209.0</ele><time>2026-05-02T14:02:00.014Z</time></trkpt><trkpt lat="45.997003979807644" lon="9.238514614412253"><ele>209.0</ele><time>2026-05-02T14:02:01.014Z</time></trkpt><trkpt lat="45.99690591543363" lon="9.238530402463331"><ele>209.0</ele><time>2026-05-02T14:02:02.014Z</time></trkpt><trkpt lat="45.996811270119586" lon="9.23854843950931"><ele>209.0</ele><time>2026-05-02T14:02:03.014Z</time></trkpt><trkpt lat="45.99672146890821" lon="9.238550555454065"><ele>209.0</ele><time>2026-05-02T14:02:04.014Z</time></trkpt><trkpt lat="45.996633833560324" lon="9.238557247788211"><ele>209.16666666666669</ele><time>2026-05-02T14:02:05.014Z</time></trkpt><trkpt lat="45.9965480696787" lon="9.238571303414238"><ele>209.33333333333334</ele><time>2026-05-02T14:02:06.014Z</time></trkpt><trkpt lat="45.99646644347474" lon="9.23858903619995"><ele>209.5</ele><time>2026-05-02T14:02:07.014Z</time></trkpt><trkpt lat="45.996396735922616" lon="9.238598375212849"><ele>209.66666666666669</ele><time>2026-05-02T14:02:08.014Z</time></trkpt><trkpt lat="45.99632044084687" lon="9.238611271702476"><ele>209.83333333333334</ele><time>2026-05-02T14:02:09.014Z</time></trkpt><trkpt lat="45.99624133933905" lon="9.238624077665"><ele>210.0</ele><time>2026-05-02T14:02:10.014Z</time></trkpt><trkpt lat="45.996156645952176" lon="9.238641281635608"><ele>210.0</ele><time>2026-05-02T14:02:11.014Z</time></trkpt><trkpt lat="45.99606544349622" lon="9.238658954216296"><ele>210.0</ele><time>2026-05-02T14:02:12.014Z</time></trkpt><trkpt lat="45.99597473799988" lon="9.238670288173427"><ele>210.0</ele><time>2026-05-02T14:02:13.014Z</time></trkpt><trkpt lat="45.9958819541937" lon="9.238683133579904"><ele>210.0</ele><time>2026-05-02T14:02:14.014Z</time></trkpt><trkpt lat="45.995788815486655" lon="9.238691942505037"><ele>210.0</ele><time>2026-05-02T14:02:15.014Z</time></trkpt><trkpt lat="45.99569054071463" lon="9.238709285736903"><ele>210.6</ele><time>2026-05-02T14:02:16.014Z</time></trkpt><trkpt lat="45.995589025591684" lon="9.238736312359755"><ele>211.2</ele><time>2026-05-02T14:02:17.014Z</time></trkpt><trkpt lat="45.99548569147556" lon="9.23877446485242"><ele>211.8</ele><time>2026-05-02T14:02:18.014Z</time></trkpt><trkpt lat="45.995377923882" lon="9.238819023775925"><ele>212.4</ele><time>2026-05-02T14:02:19.014Z</time></trkpt><trkpt lat="45.99526774008728" lon="9.238875216937435"><ele>213.0</ele><time>2026-05-02T14:02:20.014Z</time></trkpt><trkpt lat="45.995154458500764" lon="9.238940953032943"><ele>211.0</ele><time>2026-05-02T14:02:21.014Z</time></trkpt><trkpt lat="45.995047384080685" lon="9.239000363945534"><ele>209.0</ele><time>2026-05-02T14:02:22.014Z</time></trkpt><trkpt lat="45.994941491954" lon="9.239059303640305"><ele>207.0</ele><time>2026-05-02T14:02:23.014Z</time></trkpt><trkpt lat="45.99483697158791" lon="9.239123849183494"><ele>205.0</ele><time>2026-05-02T14:02:24.014Z</time></trkpt><trkpt lat="45.99474461010791" lon="9.23916641705073"><ele>203.0</ele><time>2026-05-02T14:02:25.014Z</time></trkpt><trkpt lat="45.994660357245095" lon="9.239199440872982"><ele>203.00000000000003</ele><time>2026-05-02T14:02:26.014Z</time></trkpt><trkpt lat="45.99458041894107" lon="9.239209189493783"><ele>203.0</ele><time>2026-05-02T14:02:27.014Z</time></trkpt><trkpt lat="45.994499577211975" lon="9.23919122007702"><ele>203.0</ele><time>2026-05-02T14:02:28.014Z</time></trkpt><trkpt lat="45.99441430419967" lon="9.239169360709223"><ele>203.0</ele><time>2026-05-02T14:02:29.014Z</time></trkpt><trkpt lat="45.994325744149556" lon="9.23913938669507"><ele>203.00000000000003</ele><time>2026-05-02T14:02:30.014Z</time></trkpt><trkpt lat="45.99423555269566" lon="9.239101935320008"><ele>203.0</ele><time>2026-05-02T14:02:31.014Z</time></trkpt><trkpt lat="45.99414605580358" lon="9.239067744109699"><ele>202.8</ele><time>2026-05-02T14:02:32.014Z</time></trkpt><trkpt lat="45.994055089335255" lon="9.239028241485252"><ele>202.60000000000002</ele><time>2026-05-02T14:02:33.014Z</time></trkpt><trkpt lat="45.99396113045313" lon="9.238987530815036"><ele>202.39999999999998</ele><time>2026-05-02T14:02:34.014Z</time></trkpt><trkpt lat="45.99386795626038" lon="9.238940615087337"><ele>202.2</ele><time>2026-05-02T14:02:35.014Z</time></trkpt><trkpt lat="45.99377831838404" lon="9.238889121944172"><ele>202.0</ele><time>2026-05-02T14:02:36.014Z</time></trkpt><trkpt lat="45.99368961682865" lon="9.238838149958545"><ele>203.16666666666666</ele><time>2026-05-02T14:02:37.014Z</time></trkpt><trkpt lat="45.99360332971385" lon="9.238791195672228"><ele>204.33333333333331</ele><time>2026-05-02T14:02:38.014Z</time></trkpt><trkpt lat="45.993530773884544" lon="9.238700692824292"><ele>205.5</ele><time>2026-05-02T14:02:39.014Z</time></trkpt><trkpt lat="45.99344648898351" lon="9.23866029662295"><ele>206.66666666666669</ele><time>2026-05-02T14:02:40.014Z</time></trkpt><trkpt lat="45.993364791610006" lon="9.238620606548505"><ele>207.83333333333334</ele><time>2026-05-02T14:02:41.014Z</time></trkpt><trkpt lat="45.99328318220282" lon="9.238580965733279"><ele>209.0</ele><time>2026-05-02T14:02:42.014Z</time></trkpt><trkpt lat="45.99320329806176" lon="9.238546679031872"><ele>209.00000000000003</ele><time>2026-05-02T14:02:43.014Z</time></trkpt><trkpt lat="45.993124964072706" lon="9.238512382714195"><ele>209.0</ele><time>2026-05-02T14:02:44.015Z</time></trkpt><trkpt lat="45.99304915944347" lon="9.238481055320548"><ele>209.0</ele><time>2026-05-02T14:02:45.015Z</time></trkpt><trkpt lat="45.992976039265656" lon="9.23845075965259"><ele>209.0</ele><time>2026-05-02T14:02:46.015Z</time></trkpt><trkpt lat="45.99290554931036" lon="9.238422265842116"><ele>209.00000000000003</ele><time>2026-05-02T14:02:47.015Z</time></trkpt><trkpt lat="45.992826845376754" lon="9.238393376052413"><ele>209.0</ele><time>2026-05-02T14:02:48.015Z</time></trkpt><trkpt lat="45.99275117563678" lon="9.238358320516232"><ele>209.00000000000003</ele><time>2026-05-02T14:02:49.015Z</time></trkpt><trkpt lat="45.992682066012385" lon="9.238325413561764"><ele>209.0</ele><time>2026-05-02T14:02:50.015Z</time></trkpt><trkpt lat="45.99262054392122" lon="9.238291982828516"><ele>209.0</ele><time>2026-05-02T14:02:51.015Z</time></trkpt><trkpt lat="45.9925552746639" lon="9.238267685748506"><ele>209.0</ele><time>2026-05-02T14:02:54.015Z</time></trkpt><trkpt lat="45.99248587350147" lon="9.238255152074908"><ele>209.00000000000003</ele><time>2026-05-02T14:02:57.015Z</time></trkpt><trkpt lat="45.99238096915552" lon="9.23821010420637"><ele>209.0</ele><time>2026-05-02T14:02:59.015Z</time></trkpt><trkpt lat="45.992324221063264" lon="9.238156068641652"><ele>210.33333333333334</ele><time>2026-05-02T14:03:00.015Z</time></trkpt><trkpt lat="45.99226561845742" lon="9.238121893908847"><ele>211.66666666666669</ele><time>2026-05-02T14:03:01.015Z</time></trkpt><trkpt lat="45.99217512473017" lon="9.238066844148129"><ele>213.0</ele><time>2026-05-02T14:03:03.015Z</time></trkpt><trkpt lat="45.992077303557295" lon="9.238007089766327"><ele>214.33333333333331</ele><time>2026-05-02T14:03:06.014Z</time></trkpt><trkpt lat="45.99201931229615" lon="9.237959432235964"><ele>215.66666666666666</ele><time>2026-05-02T14:03:07.014Z</time></trkpt><trkpt lat="45.99194475189901" lon="9.237912873727531"><ele>217.0</ele><time>2026-05-02T14:03:08.015Z</time></trkpt><trkpt lat="45.99186398041389" lon="9.237860845734287"><ele>217.0</ele><time>2026-05-02T14:03:09.014Z</time></trkpt><trkpt lat="45.99177247379089" lon="9.237803608058371"><ele>217.0</ele><time>2026-05-02T14:03:10.014Z</time></trkpt><trkpt lat="45.991672615501344" lon="9.237743952922678"><ele>217.0</ele><time>2026-05-02T14:03:11.015Z</time></trkpt><trkpt lat="45.99156884052052" lon="9.237688798557274"><ele>217.0</ele><time>2026-05-02T14:03:12.015Z</time></trkpt><trkpt lat="45.991461544112525" lon="9.237627040810423"><ele>217.0</ele><time>2026-05-02T14:03:13.015Z</time></trkpt><trkpt lat="45.991354516873365" lon="9.237567359040352"><ele>216.39999999999998</ele><time>2026-05-02T14:03:14.015Z</time></trkpt><trkpt lat="45.9912514748671" lon="9.237508984996968"><ele>215.79999999999998</ele><time>2026-05-02T14:03:15.015Z</time></trkpt><trkpt lat="45.99114984416957" lon="9.237449317022744"><ele>215.2</ele><time>2026-05-02T14:03:16.015Z</time></trkpt><trkpt lat="45.99104381315491" lon="9.23739032401562"><ele>214.6</ele><time>2026-05-02T14:03:17.015Z</time></trkpt><trkpt lat="45.99093986133521" lon="9.237332873328915"><ele>214.0</ele><time>2026-05-02T14:03:18.015Z</time></trkpt><trkpt lat="45.99084586275198" lon="9.237290131885636"><ele>217.0</ele><time>2026-05-02T14:03:19.015Z</time></trkpt><trkpt lat="45.990755368505496" lon="9.237236929272896"><ele>219.99999999999997</ele><time>2026-05-02T14:03:20.015Z</time></trkpt><trkpt lat="45.99066063385286" lon="9.23719006671515"><ele>222.99999999999997</ele><time>2026-05-02T14:03:21.015Z</time></trkpt><trkpt lat="45.99056189234948" lon="9.237143545276025"><ele>226.0</ele><time>2026-05-02T14:03:22.015Z</time></trkpt><trkpt lat="45.99045689478257" lon="9.237094577070305"><ele>229.0</ele><time>2026-05-02T14:03:23.015Z</time></trkpt><trkpt lat="45.99036015640075" lon="9.237043744722401"><ele>229.0</ele><time>2026-05-02T14:03:24.015Z</time></trkpt><trkpt lat="45.990269058515196" lon="9.236989153644418"><ele>228.99999999999997</ele><time>2026-05-02T14:03:25.015Z</time></trkpt><trkpt lat="45.99017410757597" lon="9.236932209766682"><ele>228.99999999999997</ele><time>2026-05-02T14:03:26.015Z</time></trkpt><trkpt lat="45.9900825004816" lon="9.236882938574604"><ele>229.0</ele><time>2026-05-02T14:03:27.015Z</time></trkpt><trkpt lat="45.99000570538449" lon="9.236778970169837"><ele>229.0</ele><time>2026-05-02T14:03:28.015Z</time></trkpt><trkpt lat="45.9899331787137" lon="9.236726277842202"><ele>229.33333333333331</ele><time>2026-05-02T14:03:29.015Z</time></trkpt><trkpt lat="45.98987266904317" lon="9.236686474790407"><ele>229.66666666666666</ele><time>2026-05-02T14:03:30.015Z</time></trkpt><trkpt lat="45.98978229116972" lon="9.236623334927087"><ele>230.0</ele><time>2026-05-02T14:03:32.015Z</time></trkpt><trkpt lat="45.98971736033064" lon="9.236570434526827"><ele>230.33333333333331</ele><time>2026-05-02T14:03:34.015Z</time></trkpt><trkpt lat="45.98965551917468" lon="9.236515592104167"><ele>230.66666666666666</ele><time>2026-05-02T14:03:37.015Z</time></trkpt><trkpt lat="45.98958704963489" lon="9.236465891954085"><ele>231.0</ele><time>2026-05-02T14:03:40.015Z</time></trkpt><trkpt lat="45.98951574029113" lon="9.23641492956793"><ele>231.0</ele><time>2026-05-02T14:03:42.015Z</time></trkpt><trkpt lat="45.98945070577171" lon="9.236360005039677"><ele>231.00000000000003</ele><time>2026-05-02T14:03:44.015Z</time></trkpt><trkpt lat="45.989371495375096" lon="9.236305255204206"><ele>231.00000000000003</ele><time>2026-05-02T14:03:46.015Z</time></trkpt><trkpt lat="45.98927937856244" lon="9.23624899909485"><ele>231.0</ele><time>2026-05-02T14:03:48.015Z</time></trkpt><trkpt lat="45.98917943247014" lon="9.236174795798268"><ele>231.0</ele><time>2026-05-02T14:03:50.015Z</time></trkpt><trkpt lat="45.98906950224532" lon="9.236093081888205"><ele>228.5</ele><time>2026-05-02T14:03:52.015Z</time></trkpt><trkpt lat="45.98900074471581" lon="9.23604776639017"><ele>226.0</ele><time>2026-05-02T14:03:53.015Z</time></trkpt><trkpt lat="45.988933768728394" lon="9.236005766055438"><ele>223.5</ele><time>2026-05-02T14:03:54.015Z</time></trkpt><trkpt lat="45.98887200579245" lon="9.235962271717838"><ele>221.0</ele><time>2026-05-02T14:03:55.016Z</time></trkpt><trkpt lat="45.98881251164858" lon="9.235916385649672"><ele>218.5</ele><time>2026-05-02T14:03:56.016Z</time></trkpt><trkpt lat="45.988756912406075" lon="9.23587290583258"><ele>216.0</ele><time>2026-05-02T14:03:57.016Z</time></trkpt><trkpt lat="45.98865438346051" lon="9.235778945779694"><ele>216.0</ele><time>2026-05-02T14:03:59.016Z</time></trkpt><trkpt lat="45.98854759010076" lon="9.235690737066545"><ele>216.00000000000003</ele><time>2026-05-02T14:04:01.016Z</time></trkpt><trkpt lat="45.988447025553306" lon="9.235604818411485"><ele>216.00000000000003</ele><time>2026-05-02T14:04:03.016Z</time></trkpt><trkpt lat="45.98834858659406" lon="9.235511609613644"><ele>216.0</ele><time>2026-05-02T14:04:05.016Z</time></trkpt><trkpt lat="45.98829082384064" lon="9.235464037688292"><ele>216.0</ele><time>2026-05-02T14:04:06.016Z</time></trkpt><trkpt lat="45.98823112620654" lon="9.235413668685629"><ele>214.66666666666666</ele><time>2026-05-02T14:04:07.016Z</time></trkpt><trkpt lat="45.9881712907148" lon="9.235359809378094"><ele>213.33333333333331</ele><time>2026-05-02T14:04:08.016Z</time></trkpt><trkpt lat="45.98811767494185" lon="9.235303026035279"><ele>212.0</ele><time>2026-05-02T14:04:09.016Z</time></trkpt><trkpt lat="45.98806591827061" lon="9.235238057130058"><ele>210.66666666666666</ele><time>2026-05-02T14:04:10.016Z</time></trkpt><trkpt lat="45.988040827571446" lon="9.235143164029024"><ele>209.33333333333331</ele><time>2026-05-02T14:04:11.016Z</time></trkpt><trkpt lat="45.987968639900394" lon="9.235014826601347"><ele>208.0</ele><time>2026-05-02T14:04:13.016Z</time></trkpt><trkpt lat="45.98792165924325" lon="9.234887683839027"><ele>210.14285714285714</ele><time>2026-05-02T14:04:15.016Z</time></trkpt><trkpt lat="45.98788212915323" lon="9.234786893610416"><ele>212.2857142857143</ele><time>2026-05-02T14:04:17.016Z</time></trkpt><trkpt lat="45.98785296409646" lon="9.234692684307385"><ele>214.42857142857144</ele><time>2026-05-02T14:04:20.016Z</time></trkpt><trkpt lat="45.987823352229576" lon="9.234612621631804"><ele>216.57142857142856</ele><time>2026-05-02T14:04:22.016Z</time></trkpt><trkpt lat="45.98779645180025" lon="9.234518294143776"><ele>218.71428571428572</ele><time>2026-05-02T14:04:24.016Z</time></trkpt><trkpt lat="45.987760405117974" lon="9.234407796194258"><ele>220.85714285714286</ele><time>2026-05-02T14:04:27.016Z</time></trkpt><trkpt lat="45.987727126878646" lon="9.2343261982273"><ele>223.0</ele><time>2026-05-02T14:04:29.016Z</time></trkpt><trkpt lat="45.987690236981216" lon="9.234249933484815"><ele>222.99999999999997</ele><time>2026-05-02T14:04:33.016Z</time></trkpt><trkpt lat="45.987657859363516" lon="9.234159353760168"><ele>223.0</ele><time>2026-05-02T14:04:57.017Z</time></trkpt><trkpt lat="45.98759927903754" lon="9.234057049311978"><ele>223.0</ele><time>2026-05-02T14:04:59.017Z</time></trkpt><trkpt lat="45.98755429763942" lon="9.233982007084807"><ele>223.0</ele><time>2026-05-02T14:05:01.017Z</time></trkpt><trkpt lat="45.98749853376115" lon="9.233884333380768"><ele>222.99999999999997</ele><time>2026-05-02T14:05:04.017Z</time></trkpt><trkpt lat="45.98745403019511" lon="9.233807512909713"><ele>223.0</ele><time>2026-05-02T14:05:06.017Z</time></trkpt><trkpt lat="45.98741950480617" lon="9.233731274288743"><ele>222.42857142857142</ele><time>2026-05-02T14:05:08.017Z</time></trkpt><trkpt lat="45.98738509499965" lon="9.233632184028751"><ele>221.85714285714283</ele><time>2026-05-02T14:05:11.017Z</time></trkpt><trkpt lat="45.98734652993696" lon="9.233538429806591"><ele>221.28571428571428</ele><time>2026-05-02T14:05:18.016Z</time></trkpt><trkpt lat="45.98729537931021" lon="9.233451375466776"><ele>220.71428571428572</ele><time>2026-05-02T14:05:20.017Z</time></trkpt><trkpt lat="45.98724775847955" lon="9.23337102982311"><ele>220.14285714285714</ele><time>2026-05-02T14:05:23.017Z</time></trkpt><trkpt lat="45.98720039222291" lon="9.233301732929435"><ele>219.57142857142858</ele><time>2026-05-02T14:05:26.016Z</time></trkpt><trkpt lat="45.98715460815705" lon="9.233230809494087"><ele>219.0</ele><time>2026-05-02T14:05:29.016Z</time></trkpt><trkpt lat="45.98710761483048" lon="9.233139162367282"><ele>221.83333333333334</ele><time>2026-05-02T14:05:33.016Z</time></trkpt><trkpt lat="45.98708635774709" lon="9.233026551271267"><ele>224.66666666666669</ele><time>2026-05-02T14:05:36.016Z</time></trkpt><trkpt lat="45.98702499210517" lon="9.232916934046832"><ele>227.5</ele><time>2026-05-02T14:05:39.016Z</time></trkpt><trkpt lat="45.986977827193485" lon="9.232842126685162"><ele>230.33333333333334</ele><time>2026-05-02T14:05:41.016Z</time></trkpt><trkpt lat="45.986930365324206" lon="9.232760971047503"><ele>233.16666666666669</ele><time>2026-05-02T14:05:43.016Z</time></trkpt><trkpt lat="45.98687486372613" lon="9.232660795596331"><ele>236.0</ele><time>2026-05-02T14:05:45.017Z</time></trkpt><trkpt lat="45.98681540791832" lon="9.23255771202181"><ele>236.0</ele><time>2026-05-02T14:05:47.017Z</time></trkpt><trkpt lat="45.98674450539699" lon="9.232435628498571"><ele>236.0</ele><time>2026-05-02T14:05:49.017Z</time></trkpt><trkpt lat="45.98666696114204" lon="9.232297810167013"><ele>236.0</ele><time>2026-05-02T14:05:51.017Z</time></trkpt><trkpt lat="45.98658891520633" lon="9.232162237155924"><ele>236.0</ele><time>2026-05-02T14:05:53.017Z</time></trkpt><trkpt lat="45.98650600532167" lon="9.232030010558654"><ele>233.16666666666669</ele><time>2026-05-02T14:05:55.017Z</time></trkpt><trkpt lat="45.98645153090618" lon="9.231961389312541"><ele>230.33333333333334</ele><time>2026-05-02T14:05:56.017Z</time></trkpt><trkpt lat="45.986396203163835" lon="9.231892802838587"><ele>227.5</ele><time>2026-05-02T14:05:57.017Z</time></trkpt><trkpt lat="45.98634394845336" lon="9.23182499000971"><ele>224.66666666666669</ele><time>2026-05-02T14:05:58.017Z</time></trkpt><trkpt lat="45.98628173405151" lon="9.23175752796232"><ele>221.83333333333334</ele><time>2026-05-02T14:05:59.017Z</time></trkpt><trkpt lat="45.98621783207675" lon="9.23168372520047"><ele>219.0</ele><time>2026-05-02T14:06:00.017Z</time></trkpt><trkpt lat="45.98615566592692" lon="9.231603155311763"><ele>219.0</ele><time>2026-05-02T14:06:01.017Z</time></trkpt><trkpt lat="45.98610023886221" lon="9.231516825591022"><ele>219.0</ele><time>2026-05-02T14:06:02.017Z</time></trkpt><trkpt lat="45.98604799393163" lon="9.23142939259543"><ele>219.0</ele><time>2026-05-02T14:06:03.017Z</time></trkpt><trkpt lat="45.986005620481045" lon="9.231336358366082"><ele>219.0</ele><time>2026-05-02T14:06:04.017Z</time></trkpt><trkpt lat="45.985970004023386" lon="9.231240852226843"><ele>219.0</ele><time>2026-05-02T14:06:05.017Z</time></trkpt><trkpt lat="45.985932669078295" lon="9.23115744486509"><ele>219.0</ele><time>2026-05-02T14:06:06.017Z</time></trkpt><trkpt lat="45.98589875931162" lon="9.231068561394885"><ele>217.6</ele><time>2026-05-02T14:06:07.017Z</time></trkpt><trkpt lat="45.98585851696008" lon="9.230996869073584"><ele>216.2</ele><time>2026-05-02T14:06:08.017Z</time></trkpt><trkpt lat="45.98578249967066" lon="9.230872737521166"><ele>214.79999999999998</ele><time>2026-05-02T14:06:10.017Z</time></trkpt><trkpt lat="45.98571468213162" lon="9.230762753075126"><ele>213.39999999999998</ele><time>2026-05-02T14:06:12.017Z</time></trkpt><trkpt lat="45.98565789371926" lon="9.230597735774623"><ele>212.0</ele><time>2026-05-02T14:06:14.017Z</time></trkpt><trkpt lat="45.98563234513841" lon="9.23051230157151"><ele>214.33333333333334</ele><time>2026-05-02T14:06:15.017Z</time></trkpt><trkpt lat="45.98560507810824" lon="9.230368887243072"><ele>216.66666666666669</ele><time>2026-05-02T14:06:17.017Z</time></trkpt><trkpt lat="45.985578163833445" lon="9.230277565808626"><ele>219.0</ele><time>2026-05-02T14:06:19.017Z</time></trkpt><trkpt lat="45.98555186381025" lon="9.230177668444727"><ele>221.33333333333331</ele><time>2026-05-02T14:06:33.018Z</time></trkpt><trkpt lat="45.98551502688326" lon="9.230069042110877"><ele>223.66666666666666</ele><time>2026-05-02T14:06:35.018Z</time></trkpt><trkpt lat="45.98547654092512" lon="9.229939238061112"><ele>226.0</ele><time>2026-05-02T14:06:37.018Z</time></trkpt><trkpt lat="45.98540744291094" lon="9.229772980845587"><ele>228.33333333333331</ele><time>2026-05-02T14:06:39.018Z</time></trkpt><trkpt lat="45.98536488881645" lon="9.229686054764546"><ele>230.66666666666666</ele><time>2026-05-02T14:06:40.018Z</time></trkpt><trkpt lat="45.98534272544244" lon="9.229554987811285"><ele>233.0</ele><time>2026-05-02T14:06:41.018Z</time></trkpt><trkpt lat="45.98529470008968" lon="9.229457438342457"><ele>235.33333333333331</ele><time>2026-05-02T14:06:42.018Z</time></trkpt><trkpt lat="45.9852517510344" lon="9.229369812979337"><ele>237.66666666666666</ele><time>2026-05-02T14:06:43.018Z</time></trkpt><trkpt lat="45.985210786327734" lon="9.22929552676818"><ele>240.0</ele><time>2026-05-02T14:06:44.018Z</time></trkpt><trkpt lat="45.98514870319858" lon="9.229183570915561"><ele>240.0</ele><time>2026-05-02T14:06:46.018Z</time></trkpt><trkpt lat="45.985094930666726" lon="9.229084397275193"><ele>240.0</ele><time>2026-05-02T14:06:48.018Z</time></trkpt><trkpt lat="45.98503622194307" lon="9.228996679661947"><ele>240.0</ele><time>2026-05-02T14:06:50.018Z</time></trkpt><trkpt lat="45.984979681477334" lon="9.228946553234735"><ele>240.0</ele><time>2026-05-02T14:06:53.018Z</time></trkpt><trkpt lat="45.98492943337144" lon="9.228884490574378"><ele>240.0</ele><time>2026-05-02T14:06:56.018Z</time></trkpt><trkpt lat="45.984893576850475" lon="9.228757404484194"><ele>240.0</ele><time>2026-05-02T14:06:58.018Z</time></trkpt><trkpt lat="45.98483048786429" lon="9.228661530386123"><ele>236.0</ele><time>2026-05-02T14:07:00.018Z</time></trkpt><trkpt lat="45.984771605453545" lon="9.228580262861316"><ele>232.0</ele><time>2026-05-02T14:07:02.018Z</time></trkpt><trkpt lat="45.98471522177793" lon="9.228501173693932"><ele>228.0</ele><time>2026-05-02T14:07:04.018Z</time></trkpt><trkpt lat="45.984641359064234" lon="9.228399257472534"><ele>224.0</ele><time>2026-05-02T14:07:06.018Z</time></trkpt><trkpt lat="45.984565770806874" lon="9.228289994721973"><ele>220.0</ele><time>2026-05-02T14:07:08.018Z</time></trkpt><trkpt lat="45.98448736065432" lon="9.228192767567391"><ele>220.83333333333331</ele><time>2026-05-02T14:07:10.018Z</time></trkpt><trkpt lat="45.98440317139565" lon="9.22809229838521"><ele>221.66666666666666</ele><time>2026-05-02T14:07:12.018Z</time></trkpt><trkpt lat="45.98435471167062" lon="9.228029117704777"><ele>222.5</ele><time>2026-05-02T14:07:13.017Z</time></trkpt><trkpt lat="45.98430484846108" lon="9.22796472880163"><ele>223.33333333333331</ele><time>2026-05-02T14:07:14.017Z</time></trkpt><trkpt lat="45.984256586517525" lon="9.227903713088091"><ele>224.16666666666666</ele><time>2026-05-02T14:07:15.016Z</time></trkpt><trkpt lat="45.984207186459464" lon="9.227844287122883"><ele>225.0</ele><time>2026-05-02T14:07:16.016Z</time></trkpt><trkpt lat="45.98411933954057" lon="9.227737255280807"><ele>224.8</ele><time>2026-05-02T14:07:18.015Z</time></trkpt><trkpt lat="45.98403186157475" lon="9.227639324354218"><ele>224.6</ele><time>2026-05-02T14:07:20.015Z</time></trkpt><trkpt lat="45.983953116060896" lon="9.227525512770264"><ele>224.39999999999998</ele><time>2026-05-02T14:07:22.013Z</time></trkpt><trkpt lat="45.9838954360018" lon="9.227381068603858"><ele>224.2</ele><time>2026-05-02T14:07:24.013Z</time></trkpt><trkpt lat="45.983863925633955" lon="9.22729281191821"><ele>224.0</ele><time>2026-05-02T14:07:25.013Z</time></trkpt><trkpt lat="45.98382803961059" lon="9.227194859017851"><ele>224.00000000000003</ele><time>2026-05-02T14:07:26.013Z</time></trkpt><trkpt lat="45.983790033519355" lon="9.227087468580898"><ele>224.0</ele><time>2026-05-02T14:07:27.013Z</time></trkpt><trkpt lat="45.98374759200441" lon="9.226977551485767"><ele>224.0</ele><time>2026-05-02T14:07:28.013Z</time></trkpt><trkpt lat="45.98370300520169" lon="9.22686350492368"><ele>224.0</ele><time>2026-05-02T14:07:29.012Z</time></trkpt><trkpt lat="45.98365144697449" lon="9.22675228972533"><ele>224.00000000000003</ele><time>2026-05-02T14:07:30.012Z</time></trkpt><trkpt lat="45.983602862908285" lon="9.226640194740414"><ele>224.0</ele><time>2026-05-02T14:07:31.012Z</time></trkpt><trkpt lat="45.98355607396383" lon="9.226540363883531"><ele>222.14285714285714</ele><time>2026-05-02T14:07:32.012Z</time></trkpt><trkpt lat="45.983516319547554" lon="9.226446303852356"><ele>220.28571428571428</ele><time>2026-05-02T14:07:33.012Z</time></trkpt><trkpt lat="45.98348143825755" lon="9.226357688826935"><ele>218.42857142857144</ele><time>2026-05-02T14:07:34.011Z</time></trkpt><trkpt lat="45.9834422652581" lon="9.226276184779035"><ele>216.57142857142856</ele><time>2026-05-02T14:07:35.011Z</time></trkpt><trkpt lat="45.983401345083344" lon="9.226191579660147"><ele>214.71428571428572</ele><time>2026-05-02T14:07:36.011Z</time></trkpt><trkpt lat="45.98336190124675" lon="9.226104060692112"><ele>212.85714285714286</ele><time>2026-05-02T14:07:37.011Z</time></trkpt><trkpt lat="45.983318295971365" lon="9.22601148817344"><ele>211.0</ele><time>2026-05-02T14:07:38.011Z</time></trkpt><trkpt lat="45.983272431327826" lon="9.225922193600137"><ele>211.0</ele><time>2026-05-02T14:07:39.011Z</time></trkpt><trkpt lat="45.983227317304646" lon="9.225833321989814"><ele>211.0</ele><time>2026-05-02T14:07:40.011Z</time></trkpt><trkpt lat="45.98318780723777" lon="9.225744146601567"><ele>211.0</ele><time>2026-05-02T14:07:41.011Z</time></trkpt><trkpt lat="45.98314915466375" lon="9.225657618166673"><ele>211.0</ele><time>2026-05-02T14:07:42.011Z</time></trkpt><trkpt lat="45.98311436491599" lon="9.225575384922918"><ele>211.0</ele><time>2026-05-02T14:07:43.011Z</time></trkpt><trkpt lat="45.98308087309493" lon="9.22549405046145"><ele>211.0</ele><time>2026-05-02T14:07:44.011Z</time></trkpt><trkpt lat="45.98304617206884" lon="9.225409794100068"><ele>211.0</ele><time>2026-05-02T14:07:45.011Z</time></trkpt><trkpt lat="45.98300486651496" lon="9.225328692956133"><ele>212.33333333333331</ele><time>2026-05-02T14:07:46.011Z</time></trkpt><trkpt lat="45.982965013284335" lon="9.225234419303678"><ele>213.66666666666666</ele><time>2026-05-02T14:07:47.011Z</time></trkpt><trkpt lat="45.982932937684446" lon="9.225127057595833"><ele>215.0</ele><time>2026-05-02T14:07:48.011Z</time></trkpt><trkpt lat="45.98290792021976" lon="9.225020019275496"><ele>216.33333333333331</ele><time>2026-05-02T14:07:49.011Z</time></trkpt><trkpt lat="45.98288507608461" lon="9.22490716212831"><ele>217.66666666666666</ele><time>2026-05-02T14:07:50.011Z</time></trkpt><trkpt lat="45.98286620289584" lon="9.224797103854419"><ele>219.0</ele><time>2026-05-02T14:07:51.011Z</time></trkpt><trkpt lat="45.9828512976341" lon="9.224683861288103"><ele>219.83333333333334</ele><time>2026-05-02T14:07:52.011Z</time></trkpt><trkpt lat="45.98284158983222" lon="9.22456828689322"><ele>220.66666666666669</ele><time>2026-05-02T14:07:53.011Z</time></trkpt><trkpt lat="45.98283796188586" lon="9.224450517949599"><ele>221.5</ele><time>2026-05-02T14:07:54.01Z</time></trkpt><trkpt lat="45.982835911696334" lon="9.22433482242949"><ele>222.33333333333334</ele><time>2026-05-02T14:07:55.01Z</time></trkpt><trkpt lat="45.98283542145751" lon="9.224216297738346"><ele>223.16666666666669</ele><time>2026-05-02T14:07:56.01Z</time></trkpt><trkpt lat="45.98283364805054" lon="9.224096744102326"><ele>224.0</ele><time>2026-05-02T14:07:57.01Z</time></trkpt><trkpt lat="45.982827219216325" lon="9.22398635698248"><ele>224.83333333333334</ele><time>2026-05-02T14:07:58.01Z</time></trkpt><trkpt lat="45.98281502552327" lon="9.223889991151974"><ele>225.66666666666669</ele><time>2026-05-02T14:07:59.01Z</time></trkpt><trkpt lat="45.98278216904935" lon="9.223752603224481"><ele>226.5</ele><time>2026-05-02T14:08:01.01Z</time></trkpt><trkpt lat="45.9827373547517" lon="9.223648239498987"><ele>227.33333333333331</ele><time>2026-05-02T14:08:04.01Z</time></trkpt><trkpt lat="45.9827007543269" lon="9.223566921468025"><ele>228.16666666666666</ele><time>2026-05-02T14:08:07.01Z</time></trkpt><trkpt lat="45.98266087635434" lon="9.223487551918092"><ele>229.0</ele><time>2026-05-02T14:08:09.01Z</time></trkpt><trkpt lat="45.982608106701306" lon="9.223405417563226"><ele>228.99999999999997</ele><time>2026-05-02T14:08:12.01Z</time></trkpt><trkpt lat="45.98254958074177" lon="9.223311766320007"><ele>229.0</ele><time>2026-05-02T14:08:15.011Z</time></trkpt><trkpt lat="45.982479899645945" lon="9.223236723941229"><ele>229.0</ele><time>2026-05-02T14:08:19.011Z</time></trkpt><trkpt lat="45.98246351769097" lon="9.223138567435303"><ele>229.0</ele><time>2026-05-02T14:08:21.011Z</time></trkpt><trkpt lat="45.98240991421908" lon="9.223058369351543"><ele>228.99999999999997</ele><time>2026-05-02T14:08:23.011Z</time></trkpt><trkpt lat="45.98234405277578" lon="9.222961263523763"><ele>229.0</ele><time>2026-05-02T14:08:25.011Z</time></trkpt><trkpt lat="45.98227621808123" lon="9.222858797942608"><ele>227.16666666666666</ele><time>2026-05-02T14:08:27.011Z</time></trkpt><trkpt lat="45.982216375586255" lon="9.222767180468301"><ele>225.33333333333331</ele><time>2026-05-02T14:08:29.011Z</time></trkpt><trkpt lat="45.9821536478193" lon="9.222688811447105"><ele>223.5</ele><time>2026-05-02T14:08:31.011Z</time></trkpt><trkpt lat="45.982105343280764" lon="9.222627438196263"><ele>221.66666666666669</ele><time>2026-05-02T14:08:33.011Z</time></trkpt><trkpt lat="45.98205405593408" lon="9.222549319264004"><ele>219.83333333333334</ele><time>2026-05-02T14:08:35.011Z</time></trkpt><trkpt lat="45.98199412460041" lon="9.222454666288542"><ele>218.0</ele><time>2026-05-02T14:08:37.011Z</time></trkpt><trkpt lat="45.981919598195084" lon="9.222343501654365"><ele>218.2</ele><time>2026-05-02T14:08:39.011Z</time></trkpt><trkpt lat="45.98185095433381" lon="9.222204722087165"><ele>218.4</ele><time>2026-05-02T14:08:41.011Z</time></trkpt><trkpt lat="45.98179079137834" lon="9.222055426583006"><ele>218.59999999999997</ele><time>2026-05-02T14:08:43.011Z</time></trkpt><trkpt lat="45.98176605041816" lon="9.221965803873259"><ele>218.79999999999998</ele><time>2026-05-02T14:08:44.011Z</time></trkpt><trkpt lat="45.981747675047636" lon="9.221861545620946"><ele>219.0</ele><time>2026-05-02T14:08:45.011Z</time></trkpt><trkpt lat="45.98173266352166" lon="9.221748349930559"><ele>219.0</ele><time>2026-05-02T14:08:46.011Z</time></trkpt><trkpt lat="45.981719253392114" lon="9.221632621667952"><ele>219.0</ele><time>2026-05-02T14:08:47.011Z</time></trkpt><trkpt lat="45.98171419351672" lon="9.22152156805478"><ele>219.0</ele><time>2026-05-02T14:08:48.011Z</time></trkpt><trkpt lat="45.98171217649979" lon="9.221415238804752"><ele>219.0</ele><time>2026-05-02T14:08:49.011Z</time></trkpt><trkpt lat="45.981709598817474" lon="9.221313892957298"><ele>219.0</ele><time>2026-05-02T14:08:50.011Z</time></trkpt><trkpt lat="45.9817105122594" lon="9.221214824838839"><ele>219.0</ele><time>2026-05-02T14:08:51.011Z</time></trkpt><trkpt lat="45.981719779582285" lon="9.221037500476504"><ele>218.83333333333334</ele><time>2026-05-02T14:08:53.011Z</time></trkpt><trkpt lat="45.981732022156756" lon="9.220857965918553"><ele>218.66666666666669</ele><time>2026-05-02T14:08:55.011Z</time></trkpt><trkpt lat="45.981738523851625" lon="9.22076205167305"><ele>218.5</ele><time>2026-05-02T14:08:56.011Z</time></trkpt><trkpt lat="45.9817418368146" lon="9.220660562065738"><ele>218.33333333333334</ele><time>2026-05-02T14:08:57.011Z</time></trkpt><trkpt lat="45.98174884638215" lon="9.220556657714972"><ele>218.16666666666669</ele><time>2026-05-02T14:08:58.011Z</time></trkpt><trkpt lat="45.98175672409415" lon="9.220461422369464"><ele>218.0</ele><time>2026-05-02T14:08:59.011Z</time></trkpt><trkpt lat="45.98176499749924" lon="9.220324571296565"><ele>217.83333333333334</ele><time>2026-05-02T14:09:01.011Z</time></trkpt><trkpt lat="45.98175828195188" lon="9.220206451236399"><ele>217.66666666666669</ele><time>2026-05-02T14:09:05.011Z</time></trkpt><trkpt lat="45.98177075693008" lon="9.220099746634077"><ele>217.5</ele><time>2026-05-02T14:09:07.011Z</time></trkpt><trkpt lat="45.98179550391475" lon="9.21997989272511"><ele>217.33333333333331</ele><time>2026-05-02T14:09:09.011Z</time></trkpt><trkpt lat="45.981823974216795" lon="9.219837196982834"><ele>217.16666666666666</ele><time>2026-05-02T14:09:11.011Z</time></trkpt><trkpt lat="45.981858139392536" lon="9.219751910472487"><ele>217.0</ele><time>2026-05-02T14:09:12.011Z</time></trkpt><trkpt lat="45.981893449582" lon="9.219660972272004"><ele>216.42857142857142</ele><time>2026-05-02T14:09:13.011Z</time></trkpt><trkpt lat="45.98192933944173" lon="9.219565659306113"><ele>215.85714285714286</ele><time>2026-05-02T14:09:14.011Z</time></trkpt><trkpt lat="45.9819621048535" lon="9.219475003412535"><ele>215.28571428571428</ele><time>2026-05-02T14:09:15.012Z</time></trkpt><trkpt lat="45.98199504928352" lon="9.219390186083261"><ele>214.71428571428572</ele><time>2026-05-02T14:09:16.012Z</time></trkpt><trkpt lat="45.98202857104678" lon="9.219299135595382"><ele>214.14285714285714</ele><time>2026-05-02T14:09:17.012Z</time></trkpt><trkpt lat="45.98206337003693" lon="9.219210645135359"><ele>213.57142857142856</ele><time>2026-05-02T14:09:18.012Z</time></trkpt><trkpt lat="45.98209837643473" lon="9.219115469625702"><ele>213.0</ele><time>2026-05-02T14:09:19.012Z</time></trkpt><trkpt lat="45.98213662892148" lon="9.219015904171087"><ele>212.83333333333334</ele><time>2026-05-02T14:09:20.012Z</time></trkpt><trkpt lat="45.98216931409361" lon="9.218904975615567"><ele>212.66666666666669</ele><time>2026-05-02T14:09:21.012Z</time></trkpt><trkpt lat="45.982203089917626" lon="9.218789091782504"><ele>212.5</ele><time>2026-05-02T14:09:22.012Z</time></trkpt><trkpt lat="45.98223232247953" lon="9.218678831308731"><ele>212.33333333333334</ele><time>2026-05-02T14:09:23.01Z</time></trkpt><trkpt lat="45.98225931019841" lon="9.2185725440481"><ele>212.16666666666669</ele><time>2026-05-02T14:09:24.01Z</time></trkpt><trkpt lat="45.98227734525507" lon="9.218466335880887"><ele>212.0</ele><time>2026-05-02T14:09:25.01Z</time></trkpt><trkpt lat="45.98229266767704" lon="9.218356089957407"><ele>212.00000000000003</ele><time>2026-05-02T14:09:26.01Z</time></trkpt><trkpt lat="45.98231185080688" lon="9.21824990830155"><ele>212.0</ele><time>2026-05-02T14:09:27.01Z</time></trkpt><trkpt lat="45.982330294738276" lon="9.21814263883464"><ele>212.0</ele><time>2026-05-02T14:09:28.01Z</time></trkpt><trkpt lat="45.98235061248201" lon="9.218035247731393"><ele>212.0</ele><time>2026-05-02T14:09:29.01Z</time></trkpt><trkpt lat="45.98236988735683" lon="9.217917270577832"><ele>212.00000000000003</ele><time>2026-05-02T14:09:30.01Z</time></trkpt><trkpt lat="45.98239118758912" lon="9.21779805207525"><ele>212.0</ele><time>2026-05-02T14:09:31.01Z</time></trkpt><trkpt lat="45.98241566691972" lon="9.21767488922751"><ele>210.8</ele><time>2026-05-02T14:09:32.01Z</time></trkpt><trkpt lat="45.98243904118535" lon="9.217547827940278"><ele>209.6</ele><time>2026-05-02T14:09:33.01Z</time></trkpt><trkpt lat="45.9824623708995" lon="9.217427269235818"><ele>208.4</ele><time>2026-05-02T14:09:34.01Z</time></trkpt><trkpt lat="45.98248539859849" lon="9.21730430983206"><ele>207.20000000000002</ele><time>2026-05-02T14:09:35.01Z</time></trkpt><trkpt lat="45.982508068336486" lon="9.217179245617508"><ele>206.0</ele><time>2026-05-02T14:09:36.01Z</time></trkpt><trkpt lat="45.98252979174185" lon="9.217047597391748"><ele>208.8</ele><time>2026-05-02T14:09:37.01Z</time></trkpt><trkpt lat="45.98255356630627" lon="9.216921252597096"><ele>211.60000000000002</ele><time>2026-05-02T14:09:38.01Z</time></trkpt><trkpt lat="45.98257400046891" lon="9.216789562998155"><ele>214.4</ele><time>2026-05-02T14:09:39.01Z</time></trkpt><trkpt lat="45.98259281736506" lon="9.216659826951737"><ele>217.2</ele><time>2026-05-02T14:09:40.01Z</time></trkpt><trkpt lat="45.982594895483274" lon="9.216528890506883"><ele>220.0</ele><time>2026-05-02T14:09:41.01Z</time></trkpt><trkpt lat="45.982597984996445" lon="9.216399666232785"><ele>220.0</ele><time>2026-05-02T14:09:42.01Z</time></trkpt><trkpt lat="45.982601645693975" lon="9.216268093304842"><ele>220.0</ele><time>2026-05-02T14:09:43.01Z</time></trkpt><trkpt lat="45.98260384838467" lon="9.216133448008971"><ele>220.0</ele><time>2026-05-02T14:09:44.01Z</time></trkpt><trkpt lat="45.98260547821526" lon="9.216002661297997"><ele>220.0</ele><time>2026-05-02T14:09:45.01Z</time></trkpt><trkpt lat="45.98259985626831" lon="9.215870004688032"><ele>220.0</ele><time>2026-05-02T14:09:46.01Z</time></trkpt><trkpt lat="45.98257175458689" lon="9.215743454310553"><ele>219.8</ele><time>2026-05-02T14:09:47.01Z</time></trkpt><trkpt lat="45.98252666708017" lon="9.215622674774153"><ele>219.6</ele><time>2026-05-02T14:09:48.01Z</time></trkpt><trkpt lat="45.98247044995371" lon="9.215509664668147"><ele>219.39999999999998</ele><time>2026-05-02T14:09:49.01Z</time></trkpt><trkpt lat="45.982414000695094" lon="9.21539857972461"><ele>219.2</ele><time>2026-05-02T14:09:50.01Z</time></trkpt><trkpt lat="45.98236210462193" lon="9.215294634694605"><ele>219.0</ele><time>2026-05-02T14:09:51.01Z</time></trkpt><trkpt lat="45.98231569868105" lon="9.215196715115916"><ele>218.33333333333334</ele><time>2026-05-02T14:09:52.01Z</time></trkpt><trkpt lat="45.98227600104047" lon="9.215098375717051"><ele>217.66666666666669</ele><time>2026-05-02T14:09:53.01Z</time></trkpt><trkpt lat="45.98224349494227" lon="9.215013385503664"><ele>217.0</ele><time>2026-05-02T14:09:54.01Z</time></trkpt><trkpt lat="45.98218910952892" lon="9.214871641213"><ele>216.33333333333334</ele><time>2026-05-02T14:09:56.01Z</time></trkpt><trkpt lat="45.982149283621226" lon="9.214754376115327"><ele>215.66666666666669</ele><time>2026-05-02T14:09:58.01Z</time></trkpt><trkpt lat="45.982113986464434" lon="9.214666607678456"><ele>215.0</ele><time>2026-05-02T14:10:00.01Z</time></trkpt><trkpt lat="45.98204421519702" lon="9.214586522350084"><ele>215.00000000000003</ele><time>2026-05-02T14:10:07.01Z</time></trkpt><trkpt lat="45.9819782778853" lon="9.2145149488072"><ele>215.0</ele><time>2026-05-02T14:10:09.01Z</time></trkpt><trkpt lat="45.98191545015818" lon="9.214461485281014"><ele>215.0</ele><time>2026-05-02T14:10:11.01Z</time></trkpt><trkpt lat="45.98184683695807" lon="9.214388877881712"><ele>215.0</ele><time>2026-05-02T14:10:13.01Z</time></trkpt><trkpt lat="45.98178704767385" lon="9.214287608256111"><ele>215.00000000000003</ele><time>2026-05-02T14:10:15.01Z</time></trkpt><trkpt lat="45.9817503834275" lon="9.21412861804761"><ele>215.0</ele><time>2026-05-02T14:10:17.011Z</time></trkpt><trkpt lat="45.981684627749665" lon="9.21400496389831"><ele>214.0</ele><time>2026-05-02T14:10:19.011Z</time></trkpt><trkpt lat="45.981618141056316" lon="9.213884786274242"><ele>213.0</ele><time>2026-05-02T14:10:21.011Z</time></trkpt><trkpt lat="45.98156287467305" lon="9.213746343874035"><ele>212.0</ele><time>2026-05-02T14:10:23.011Z</time></trkpt><trkpt lat="45.98148499922992" lon="9.213626342249569"><ele>211.0</ele><time>2026-05-02T14:10:25.011Z</time></trkpt><trkpt lat="45.98144240472814" lon="9.213545178251861"><ele>210.0</ele><time>2026-05-02T14:10:26.011Z</time></trkpt><trkpt lat="45.98141638070497" lon="9.213438320735092"><ele>210.0</ele><time>2026-05-02T14:10:27.011Z</time></trkpt><trkpt lat="45.981379929756706" lon="9.213339586362514"><ele>210.0</ele><time>2026-05-02T14:10:28.011Z</time></trkpt><trkpt lat="45.981350304715065" lon="9.213228202039428"><ele>210.0</ele><time>2026-05-02T14:10:29.011Z</time></trkpt><trkpt lat="45.981322513494696" lon="9.213106859655822"><ele>210.0</ele><time>2026-05-02T14:10:30.011Z</time></trkpt><trkpt lat="45.981316886047296" lon="9.21296427088142"><ele>210.0</ele><time>2026-05-02T14:10:31.011Z</time></trkpt><trkpt lat="45.98129391656453" lon="9.212837876102364"><ele>210.0</ele><time>2026-05-02T14:10:32.011Z</time></trkpt><trkpt lat="45.98126994665285" lon="9.21272051918589"><ele>210.66666666666666</ele><time>2026-05-02T14:10:33.011Z</time></trkpt><trkpt lat="45.981246195653604" lon="9.212605913493897"><ele>211.33333333333331</ele><time>2026-05-02T14:10:34.011Z</time></trkpt><trkpt lat="45.98122295899778" lon="9.212505189044336"><ele>212.0</ele><time>2026-05-02T14:10:35.011Z</time></trkpt><trkpt lat="45.981200895816194" lon="9.212405212013072"><ele>212.66666666666666</ele><time>2026-05-02T14:10:36.011Z</time></trkpt><trkpt lat="45.98117792442627" lon="9.212300993915507"><ele>213.33333333333331</ele><time>2026-05-02T14:10:37.011Z</time></trkpt><trkpt lat="45.98115375226492" lon="9.212188793672441"><ele>214.0</ele><time>2026-05-02T14:10:38.011Z</time></trkpt><trkpt lat="45.98113911185172" lon="9.21206273362728"><ele>214.39999999999998</ele><time>2026-05-02T14:10:39.011Z</time></trkpt><trkpt lat="45.98114265233857" lon="9.211921873981096"><ele>214.79999999999998</ele><time>2026-05-02T14:10:40.011Z</time></trkpt><trkpt lat="45.98115998181779" lon="9.211771540969146"><ele>215.20000000000002</ele><time>2026-05-02T14:10:41.011Z</time></trkpt><trkpt lat="45.98116939520812" lon="9.21163157324002"><ele>215.60000000000002</ele><time>2026-05-02T14:10:42.011Z</time></trkpt><trkpt lat="45.98117828702639" lon="9.211504982196447"><ele>216.0</ele><time>2026-05-02T14:10:43.011Z</time></trkpt><trkpt lat="45.981191828581096" lon="9.211388459395716"><ele>216.0</ele><time>2026-05-02T14:10:44.011Z</time></trkpt><trkpt lat="45.981201842401184" lon="9.211275805917097"><ele>216.0</ele><time>2026-05-02T14:10:45.011Z</time></trkpt><trkpt lat="45.981210185345965" lon="9.211165306738973"><ele>216.0</ele><time>2026-05-02T14:10:46.011Z</time></trkpt><trkpt lat="45.98121484570735" lon="9.211046333506923"><ele>216.0</ele><time>2026-05-02T14:10:47.011Z</time></trkpt><trkpt lat="45.98122390130955" lon="9.210923875811863"><ele>216.0</ele><time>2026-05-02T14:10:48.011Z</time></trkpt><trkpt lat="45.981227430822706" lon="9.210802597637961"><ele>216.0</ele><time>2026-05-02T14:10:49.011Z</time></trkpt><trkpt lat="45.981227013412465" lon="9.210687388783946"><ele>215.85714285714286</ele><time>2026-05-02T14:10:50.011Z</time></trkpt><trkpt lat="45.98121938244083" lon="9.210581002002543"><ele>215.71428571428572</ele><time>2026-05-02T14:10:51.011Z</time></trkpt><trkpt lat="45.981205560960085" lon="9.210473237584651"><ele>215.57142857142856</ele><time>2026-05-02T14:10:52.011Z</time></trkpt><trkpt lat="45.981190771564876" lon="9.210369474547747"><ele>215.42857142857144</ele><time>2026-05-02T14:10:53.011Z</time></trkpt><trkpt lat="45.981181007549495" lon="9.210270670848832"><ele>215.2857142857143</ele><time>2026-05-02T14:10:54.011Z</time></trkpt><trkpt lat="45.981173681983876" lon="9.21017050127627"><ele>215.14285714285714</ele><time>2026-05-02T14:10:55.011Z</time></trkpt><trkpt lat="45.981165022308076" lon="9.210050071533136"><ele>215.0</ele><time>2026-05-02T14:10:56.011Z</time></trkpt><trkpt lat="45.981158367816946" lon="9.209917306110393"><ele>215.2</ele><time>2026-05-02T14:10:57.011Z</time></trkpt><trkpt lat="45.98114858115087" lon="9.209769701452156"><ele>215.4</ele><time>2026-05-02T14:10:58.011Z</time></trkpt><trkpt lat="45.98114377537199" lon="9.209625425407348"><ele>215.60000000000002</ele><time>2026-05-02T14:10:59.011Z</time></trkpt><trkpt lat="45.981152634509705" lon="9.209481812346096"><ele>215.8</ele><time>2026-05-02T14:11:00.011Z</time></trkpt><trkpt lat="45.981167956901466" lon="9.209352462093719"><ele>216.0</ele><time>2026-05-02T14:11:01.011Z</time></trkpt><trkpt lat="45.98120357595153" lon="9.209235097121537"><ele>216.0</ele><time>2026-05-02T14:11:02.011Z</time></trkpt><trkpt lat="45.98123355077228" lon="9.209130577053742"><ele>216.0</ele><time>2026-05-02T14:11:03.011Z</time></trkpt><trkpt lat="45.981257982882546" lon="9.209040163898589"><ele>216.0</ele><time>2026-05-02T14:11:04.011Z</time></trkpt><trkpt lat="45.981297728925476" lon="9.208889132546025"><ele>216.0</ele><time>2026-05-02T14:11:06.011Z</time></trkpt><trkpt lat="45.98133121752287" lon="9.208776606592007"><ele>216.0</ele><time>2026-05-02T14:11:08.011Z</time></trkpt><trkpt lat="45.98136336436751" lon="9.208675113596547"><ele>216.0</ele><time>2026-05-02T14:11:10.012Z</time></trkpt><trkpt lat="45.98138973846224" lon="9.208536319342198"><ele>215.83333333333334</ele><time>2026-05-02T14:11:12.012Z</time></trkpt><trkpt lat="45.98139689486856" lon="9.208444775698636"><ele>215.66666666666669</ele><time>2026-05-02T14:11:14.012Z</time></trkpt><trkpt lat="45.98140383599041" lon="9.208353576149415"><ele>215.5</ele><time>2026-05-02T14:11:18.012Z</time></trkpt><trkpt lat="45.981411300744746" lon="9.20825658741976"><ele>215.33333333333334</ele><time>2026-05-02T14:11:20.012Z</time></trkpt><trkpt lat="45.98141609742978" lon="9.20814186328266"><ele>215.16666666666669</ele><time>2026-05-02T14:11:22.012Z</time></trkpt><trkpt lat="45.98141669030084" lon="9.208018786214518"><ele>215.0</ele><time>2026-05-02T14:11:24.012Z</time></trkpt><trkpt lat="45.98139443206135" lon="9.207843718824947"><ele>215.28571428571428</ele><time>2026-05-02T14:11:26.012Z</time></trkpt><trkpt lat="45.981393768758515" lon="9.207750363687712"><ele>215.57142857142858</ele><time>2026-05-02T14:11:27.012Z</time></trkpt><trkpt lat="45.98138419992633" lon="9.207647789219147"><ele>215.85714285714286</ele><time>2026-05-02T14:11:28.012Z</time></trkpt><trkpt lat="45.98136880067666" lon="9.207536641981495"><ele>216.14285714285714</ele><time>2026-05-02T14:11:29.01Z</time></trkpt><trkpt lat="45.98134928981715" lon="9.207431287015964"><ele>216.42857142857144</ele><time>2026-05-02T14:11:30.01Z</time></trkpt><trkpt lat="45.98132441245202" lon="9.207328674824794"><ele>216.71428571428572</ele><time>2026-05-02T14:11:31.01Z</time></trkpt><trkpt lat="45.98130237325441" lon="9.207226114197239"><ele>217.0</ele><time>2026-05-02T14:11:32.01Z</time></trkpt><trkpt lat="45.98127301536537" lon="9.207125351189813"><ele>217.49999999999997</ele><time>2026-05-02T14:11:33.01Z</time></trkpt><trkpt lat="45.98124421140619" lon="9.20702658996601"><ele>218.0</ele><time>2026-05-02T14:11:34.01Z</time></trkpt><trkpt lat="45.981209066975005" lon="9.20693330261761"><ele>218.5</ele><time>2026-05-02T14:11:35.009Z</time></trkpt><trkpt lat="45.98117467593507" lon="9.20685174695351"><ele>219.0</ele><time>2026-05-02T14:11:36.01Z</time></trkpt><trkpt lat="45.9811321043148" lon="9.20676581851355"><ele>219.49999999999997</ele><time>2026-05-02T14:11:37.01Z</time></trkpt><trkpt lat="45.98109239507164" lon="9.206679262375072"><ele>220.0</ele><time>2026-05-02T14:11:38.01Z</time></trkpt><trkpt lat="45.981017865220984" lon="9.206541394147857"><ele>219.49999999999997</ele><time>2026-05-02T14:11:40.01Z</time></trkpt><trkpt lat="45.98095627535907" lon="9.206398067933367"><ele>219.0</ele><time>2026-05-02T14:11:42.009Z</time></trkpt><trkpt lat="45.98092257835196" lon="9.206316289464466"><ele>218.5</ele><time>2026-05-02T14:11:43.009Z</time></trkpt><trkpt lat="45.98088547584336" lon="9.206218519753286"><ele>218.0</ele><time>2026-05-02T14:11:44.009Z</time></trkpt><trkpt lat="45.980839830859466" lon="9.206116336977644"><ele>217.49999999999997</ele><time>2026-05-02T14:11:45.009Z</time></trkpt><trkpt lat="45.98079820207598" lon="9.206014448426203"><ele>217.0</ele><time>2026-05-02T14:11:46.009Z</time></trkpt><trkpt lat="45.980750892847524" lon="9.205908560509364"><ele>217.0</ele><time>2026-05-02T14:11:47.009Z</time></trkpt><trkpt lat="45.98070755620556" lon="9.20580568861219"><ele>217.0</ele><time>2026-05-02T14:11:48.009Z</time></trkpt><trkpt lat="45.98066339952684" lon="9.205693033203165"><ele>217.0</ele><time>2026-05-02T14:11:49.009Z</time></trkpt><trkpt lat="45.98061428007545" lon="9.205564198504982"><ele>217.0</ele><time>2026-05-02T14:11:50.009Z</time></trkpt><trkpt lat="45.98055753845663" lon="9.20544447735854"><ele>217.0</ele><time>2026-05-02T14:11:51.009Z</time></trkpt><trkpt lat="45.98049651327925" lon="9.205318702117879"><ele>218.2</ele><time>2026-05-02T14:11:52.009Z</time></trkpt><trkpt lat="45.98043630786792" lon="9.205192584267612"><ele>219.39999999999998</ele><time>2026-05-02T14:11:53.009Z</time></trkpt><trkpt lat="45.9803739843616" lon="9.205074385227025"><ele>220.60000000000002</ele><time>2026-05-02T14:11:54.01Z</time></trkpt><trkpt lat="45.98030886345869" lon="9.204951705387412"><ele>221.8</ele><time>2026-05-02T14:11:55.01Z</time></trkpt><trkpt lat="45.98023477329978" lon="9.20482937554884"><ele>223.0</ele><time>2026-05-02T14:11:56.01Z</time></trkpt><trkpt lat="45.98015528481889" lon="9.204708678090972"><ele>222.25</ele><time>2026-05-02T14:11:57.01Z</time></trkpt><trkpt lat="45.98006773529335" lon="9.20458873261858"><ele>221.5</ele><time>2026-05-02T14:11:58.01Z</time></trkpt><trkpt lat="45.979984355216" lon="9.204470608566323"><ele>220.75</ele><time>2026-05-02T14:11:59.01Z</time></trkpt><trkpt lat="45.97990618069718" lon="9.204360819165156"><ele>220.0</ele><time>2026-05-02T14:12:00.01Z</time></trkpt><trkpt lat="45.979829747520014" lon="9.204248040623787"><ele>220.0</ele><time>2026-05-02T14:12:01.01Z</time></trkpt><trkpt lat="45.97975359706058" lon="9.204140006265137"><ele>220.0</ele><time>2026-05-02T14:12:02.01Z</time></trkpt><trkpt lat="45.979682840782175" lon="9.204036907411197"><ele>220.0</ele><time>2026-05-02T14:12:03.01Z</time></trkpt><trkpt lat="45.97961862332878" lon="9.20394444773225"><ele>220.0</ele><time>2026-05-02T14:12:04.01Z</time></trkpt><trkpt lat="45.979551158064545" lon="9.203864480979993"><ele>220.0</ele><time>2026-05-02T14:12:05.01Z</time></trkpt><trkpt lat="45.97947111516967" lon="9.203795234627483"><ele>220.6</ele><time>2026-05-02T14:12:06.01Z</time></trkpt><trkpt lat="45.97937911351117" lon="9.203724836485254"><ele>221.2</ele><time>2026-05-02T14:12:07.01Z</time></trkpt><trkpt lat="45.97928585019589" lon="9.203655322868046"><ele>221.8</ele><time>2026-05-02T14:12:08.01Z</time></trkpt><trkpt lat="45.97919054379601" lon="9.203586951932843"><ele>222.4</ele><time>2026-05-02T14:12:09.01Z</time></trkpt><trkpt lat="45.97909771935009" lon="9.203513540712516"><ele>223.0</ele><time>2026-05-02T14:12:10.01Z</time></trkpt><trkpt lat="45.97900362880263" lon="9.203445155172579"><ele>223.4</ele><time>2026-05-02T14:12:11.01Z</time></trkpt><trkpt lat="45.978914257763684" lon="9.203381805653914"><ele>223.8</ele><time>2026-05-02T14:12:12.01Z</time></trkpt><trkpt lat="45.97882819744095" lon="9.203319059982576"><ele>224.2</ele><time>2026-05-02T14:12:13.01Z</time></trkpt><trkpt lat="45.978748082714844" lon="9.203255026342493"><ele>224.6</ele><time>2026-05-02T14:12:14.01Z</time></trkpt><trkpt lat="45.978670392736085" lon="9.203175486637164"><ele>225.0</ele><time>2026-05-02T14:12:15.01Z</time></trkpt><trkpt lat="45.97858832642758" lon="9.203078041550517"><ele>225.0</ele><time>2026-05-02T14:12:16.01Z</time></trkpt><trkpt lat="45.97849925243756" lon="9.202971702265243"><ele>225.0</ele><time>2026-05-02T14:12:17.01Z</time></trkpt><trkpt lat="45.9784071141897" lon="9.202839600561958"><ele>225.0</ele><time>2026-05-02T14:12:18.01Z</time></trkpt><trkpt lat="45.97831040942147" lon="9.2027076279042"><ele>225.0</ele><time>2026-05-02T14:12:19.01Z</time></trkpt><trkpt lat="45.97822496336401" lon="9.202583840970217"><ele>225.0</ele><time>2026-05-02T14:12:20.01Z</time></trkpt><trkpt lat="45.97815235496015" lon="9.20246380222059"><ele>225.0</ele><time>2026-05-02T14:12:21.01Z</time></trkpt><trkpt lat="45.97808230069295" lon="9.202350478968926"><ele>225.0</ele><time>2026-05-02T14:12:22.01Z</time></trkpt><trkpt lat="45.97800321156259" lon="9.202239125608354"><ele>225.0</ele><time>2026-05-02T14:12:23.01Z</time></trkpt><trkpt lat="45.97792781801515" lon="9.20212940644006"><ele>225.0</ele><time>2026-05-02T14:12:24.01Z</time></trkpt><trkpt lat="45.977854818138276" lon="9.202020076866848"><ele>225.0</ele><time>2026-05-02T14:12:25.01Z</time></trkpt><trkpt lat="45.97778783252229" lon="9.20191244195863"><ele>225.0</ele><time>2026-05-02T14:12:26.01Z</time></trkpt><trkpt lat="45.977721414697164" lon="9.201819830091646"><ele>225.0</ele><time>2026-05-02T14:12:27.01Z</time></trkpt><trkpt lat="45.97764630708025" lon="9.2017218409798"><ele>225.0</ele><time>2026-05-02T14:12:28.01Z</time></trkpt><trkpt lat="45.97757168708348" lon="9.201625402587332"><ele>225.0</ele><time>2026-05-02T14:12:29.01Z</time></trkpt><trkpt lat="45.97748945124882" lon="9.201535700498306"><ele>225.4</ele><time>2026-05-02T14:12:30.01Z</time></trkpt><trkpt lat="45.97740925804755" lon="9.201450527400693"><ele>225.8</ele><time>2026-05-02T14:12:31.01Z</time></trkpt><trkpt lat="45.97733465431914" lon="9.2013703130782"><ele>226.2</ele><time>2026-05-02T14:12:32.01Z</time></trkpt><trkpt lat="45.97725808738285" lon="9.201280831483446"><ele>226.6</ele><time>2026-05-02T14:12:33.01Z</time></trkpt><trkpt lat="45.977187186833234" lon="9.20117475343356"><ele>227.0</ele><time>2026-05-02T14:12:34.01Z</time></trkpt><trkpt lat="45.977118276474016" lon="9.201054303144101"><ele>227.0</ele><time>2026-05-02T14:12:35.01Z</time></trkpt><trkpt lat="45.977055942349594" lon="9.20092796076564"><ele>227.0</ele><time>2026-05-02T14:12:36.01Z</time></trkpt><trkpt lat="45.97699942715357" lon="9.200788147814388"><ele>227.0</ele><time>2026-05-02T14:12:37.01Z</time></trkpt><trkpt lat="45.976942093073895" lon="9.20064021539955"><ele>227.0</ele><time>2026-05-02T14:12:38.01Z</time></trkpt><trkpt lat="45.97687833898024" lon="9.200495734297219"><ele>228.5</ele><time>2026-05-02T14:12:39.01Z</time></trkpt><trkpt lat="45.976819133775116" lon="9.200341269069988"><ele>230.0</ele><time>2026-05-02T14:12:40.01Z</time></trkpt><trkpt lat="45.97675867122894" lon="9.200198869503982"><ele>231.5</ele><time>2026-05-02T14:12:41.01Z</time></trkpt><trkpt lat="45.97669608302931" lon="9.200060161540266"><ele>233.0</ele><time>2026-05-02T14:12:42.01Z</time></trkpt><trkpt lat="45.9766247696798" lon="9.199928424541774"><ele>231.33333333333334</ele><time>2026-05-02T14:12:43.01Z</time></trkpt><trkpt lat="45.97655477014229" lon="9.199808564409038"><ele>229.66666666666669</ele><time>2026-05-02T14:12:44.01Z</time></trkpt><trkpt lat="45.976492883790364" lon="9.199713681190227"><ele>228.0</ele><time>2026-05-02T14:12:45.01Z</time></trkpt><trkpt lat="45.97643788747177" lon="9.199629861313715"><ele>226.33333333333331</ele><time>2026-05-02T14:12:46.01Z</time></trkpt><trkpt lat="45.97638628116092" lon="9.199553163512991"><ele>224.66666666666666</ele><time>2026-05-02T14:12:47.01Z</time></trkpt><trkpt lat="45.976319217159286" lon="9.19946312661393"><ele>223.0</ele><time>2026-05-02T14:12:49.011Z</time></trkpt><trkpt lat="45.976288460189345" lon="9.199367038242574"><ele>223.0</ele><time>2026-05-02T14:12:53.011Z</time></trkpt><trkpt lat="45.9762293929085" lon="9.199292226433577"><ele>223.0</ele><time>2026-05-02T14:12:56.011Z</time></trkpt><trkpt lat="45.976162372640715" lon="9.199206810658659"><ele>223.0</ele><time>2026-05-02T14:12:58.011Z</time></trkpt><trkpt lat="45.97606798927652" lon="9.199065346533622"><ele>223.0</ele><time>2026-05-02T14:13:00.011Z</time></trkpt><trkpt lat="45.97601161267573" lon="9.198979186460695"><ele>223.0</ele><time>2026-05-02T14:13:01.011Z</time></trkpt><trkpt lat="45.97595015939003" lon="9.19889062060828"><ele>222.33333333333331</ele><time>2026-05-02T14:13:02.011Z</time></trkpt><trkpt lat="45.975887416483076" lon="9.198803204187804"><ele>221.66666666666666</ele><time>2026-05-02T14:13:03.011Z</time></trkpt><trkpt lat="45.97583131870295" lon="9.198719530904057"><ele>221.0</ele><time>2026-05-02T14:13:04.011Z</time></trkpt><trkpt lat="45.97577915663857" lon="9.198642883842192"><ele>220.33333333333331</ele><time>2026-05-02T14:13:05.011Z</time></trkpt><trkpt lat="45.97572657496736" lon="9.198573029476504"><ele>219.66666666666666</ele><time>2026-05-02T14:13:06.011Z</time></trkpt><trkpt lat="45.975678937188526" lon="9.19851268969835"><ele>219.0</ele><time>2026-05-02T14:13:07.011Z</time></trkpt><trkpt lat="45.97561252131514" lon="9.19839508013538"><ele>219.0</ele><time>2026-05-02T14:13:09.011Z</time></trkpt><trkpt lat="45.97555391006043" lon="9.19831803637201"><ele>219.0</ele><time>2026-05-02T14:13:11.011Z</time></trkpt><trkpt lat="45.97549022417908" lon="9.198236899363561"><ele>219.0</ele><time>2026-05-02T14:13:14.011Z</time></trkpt><trkpt lat="45.9754230332462" lon="9.198134715848944"><ele>219.0</ele><time>2026-05-02T14:13:16.011Z</time></trkpt><trkpt lat="45.97538073333796" lon="9.19805774592016"><ele>219.0</ele><time>2026-05-02T14:13:17.011Z</time></trkpt><trkpt lat="45.97532832746422" lon="9.197971419836158"><ele>219.0</ele><time>2026-05-02T14:13:18.011Z</time></trkpt><trkpt lat="45.97527055380939" lon="9.19786961734794"><ele>218.75</ele><time>2026-05-02T14:13:19.011Z</time></trkpt><trkpt lat="45.975207645547975" lon="9.197752941300589"><ele>218.5</ele><time>2026-05-02T14:13:20.011Z</time></trkpt><trkpt lat="45.975127807553235" lon="9.197637461078495"><ele>218.25</ele><time>2026-05-02T14:13:21.011Z</time></trkpt><trkpt lat="45.97503769571831" lon="9.197523375100806"><ele>218.0</ele><time>2026-05-02T14:13:22.011Z</time></trkpt><trkpt lat="45.974946636389" lon="9.197401327102236"><ele>219.5</ele><time>2026-05-02T14:13:23.011Z</time></trkpt><trkpt lat="45.97484625107762" lon="9.197278967094508"><ele>221.0</ele><time>2026-05-02T14:13:24.011Z</time></trkpt><trkpt lat="45.97474366118079" lon="9.197156196015275"><ele>222.5</ele><time>2026-05-02T14:13:25.011Z</time></trkpt><trkpt lat="45.974639409232815" lon="9.197033070537694"><ele>224.0</ele><time>2026-05-02T14:13:26.011Z</time></trkpt><trkpt lat="45.974539635044536" lon="9.196912066307515"><ele>224.0</ele><time>2026-05-02T14:13:27.011Z</time></trkpt><trkpt lat="45.97444807468878" lon="9.196799953728544"><ele>224.0</ele><time>2026-05-02T14:13:28.011Z</time></trkpt><trkpt lat="45.974353017576405" lon="9.196699037499808"><ele>224.0</ele><time>2026-05-02T14:13:29.011Z</time></trkpt><trkpt lat="45.974263832651424" lon="9.196591510935548"><ele>224.0</ele><time>2026-05-02T14:13:30.011Z</time></trkpt><trkpt lat="45.97418224602478" lon="9.196487192633304"><ele>222.39999999999998</ele><time>2026-05-02T14:13:31.011Z</time></trkpt><trkpt lat="45.974101013934586" lon="9.196388448148168"><ele>220.79999999999998</ele><time>2026-05-02T14:13:32.011Z</time></trkpt><trkpt lat="45.974028257425644" lon="9.196292706325616"><ele>219.20000000000002</ele><time>2026-05-02T14:13:33.011Z</time></trkpt><trkpt lat="45.973957770512236" lon="9.196204917820348"><ele>217.60000000000002</ele><time>2026-05-02T14:13:34.011Z</time></trkpt><trkpt lat="45.97388888192028" lon="9.196118522948753"><ele>216.0</ele><time>2026-05-02T14:13:35.009Z</time></trkpt><trkpt lat="45.97381830549182" lon="9.196028890419724"><ele>216.0</ele><time>2026-05-02T14:13:36.009Z</time></trkpt><trkpt lat="45.973745171647536" lon="9.195933814368438"><ele>216.00000000000003</ele><time>2026-05-02T14:13:37.009Z</time></trkpt><trkpt lat="45.97366270274579" lon="9.195841298239941"><ele>216.00000000000003</ele><time>2026-05-02T14:13:38.009Z</time></trkpt><trkpt lat="45.97357752685313" lon="9.19574579020459"><ele>216.0</ele><time>2026-05-02T14:13:39.01Z</time></trkpt><trkpt lat="45.973489532527296" lon="9.195646600128219"><ele>216.0</ele><time>2026-05-02T14:13:40.01Z</time></trkpt><trkpt lat="45.97339156530326" lon="9.195552101937123"><ele>215.25</ele><time>2026-05-02T14:13:41.01Z</time></trkpt><trkpt lat="45.97329461788689" lon="9.195451526686648"><ele>214.5</ele><time>2026-05-02T14:13:42.009Z</time></trkpt><trkpt lat="45.973197774609886" lon="9.195343996097689"><ele>213.75</ele><time>2026-05-02T14:13:43.009Z</time></trkpt><trkpt lat="45.97311040448628" lon="9.19522021638415"><ele>213.0</ele><time>2026-05-02T14:13:44.009Z</time></trkpt><trkpt lat="45.973014162232865" lon="9.195117691403855"><ele>213.0</ele><time>2026-05-02T14:13:45.009Z</time></trkpt><trkpt lat="45.9729275541493" lon="9.195029844633405"><ele>213.0</ele><time>2026-05-02T14:13:46.009Z</time></trkpt><trkpt lat="45.97283973194665" lon="9.194953636165003"><ele>213.0</ele><time>2026-05-02T14:13:47.009Z</time></trkpt><trkpt lat="45.97264494120944" lon="9.194813913883275"><ele>213.0</ele><time>2026-05-02T14:13:49.01Z</time></trkpt><trkpt lat="45.9725421347968" lon="9.194741707519043"><ele>214.5</ele><time>2026-05-02T14:13:50.01Z</time></trkpt><trkpt lat="45.9724366190972" lon="9.194667009856463"><ele>216.0</ele><time>2026-05-02T14:13:51.01Z</time></trkpt><trkpt lat="45.97233201172858" lon="9.194591077594342"><ele>217.5</ele><time>2026-05-02T14:13:52.01Z</time></trkpt><trkpt lat="45.9722258721776" lon="9.194512135916273"><ele>219.0</ele><time>2026-05-02T14:13:53.01Z</time></trkpt><trkpt lat="45.97212286275752" lon="9.194435522267417"><ele>219.0</ele><time>2026-05-02T14:13:54.01Z</time></trkpt><trkpt lat="45.97202665630387" lon="9.194363862739026"><ele>218.99999999999997</ele><time>2026-05-02T14:13:55.01Z</time></trkpt><trkpt lat="45.97193631131835" lon="9.194296301663769"><ele>218.99999999999997</ele><time>2026-05-02T14:13:56.01Z</time></trkpt><trkpt lat="45.97184555414034" lon="9.194228432389604"><ele>219.0</ele><time>2026-05-02T14:13:57.01Z</time></trkpt><trkpt lat="45.97174835444938" lon="9.19417967326558"><ele>219.0</ele><time>2026-05-02T14:13:58.01Z</time></trkpt><trkpt lat="45.97165309685343" lon="9.194111217715397"><ele>219.2</ele><time>2026-05-02T14:13:59.01Z</time></trkpt><trkpt lat="45.97156159260764" lon="9.194018596264316"><ele>219.39999999999998</ele><time>2026-05-02T14:14:00.01Z</time></trkpt><trkpt lat="45.971469884928084" lon="9.193950566845565"><ele>219.6</ele><time>2026-05-02T14:14:01.01Z</time></trkpt><trkpt lat="45.9713787844012" lon="9.19387908733894"><ele>219.8</ele><time>2026-05-02T14:14:02.01Z</time></trkpt><trkpt lat="45.97127686451812" lon="9.19381000058421"><ele>220.0</ele><time>2026-05-02T14:14:03.01Z</time></trkpt><trkpt lat="45.97117317068257" lon="9.193734545315328"><ele>220.0</ele><time>2026-05-02T14:14:04.01Z</time></trkpt><trkpt lat="45.97107031663061" lon="9.193660298164238"><ele>220.0</ele><time>2026-05-02T14:14:05.01Z</time></trkpt><trkpt lat="45.97096586762923" lon="9.193575054372307"><ele>220.0</ele><time>2026-05-02T14:14:06.01Z</time></trkpt><trkpt lat="45.970856645859804" lon="9.19349265931287"><ele>220.0</ele><time>2026-05-02T14:14:07.01Z</time></trkpt><trkpt lat="45.97074782508027" lon="9.193409397511816"><ele>220.25</ele><time>2026-05-02T14:14:08.01Z</time></trkpt><trkpt lat="45.970643267760956" lon="9.193328729875281"><ele>220.5</ele><time>2026-05-02T14:14:09.01Z</time></trkpt><trkpt lat="45.97053576935336" lon="9.193248813399997"><ele>220.75</ele><time>2026-05-02T14:14:10.01Z</time></trkpt><trkpt lat="45.97043099304134" lon="9.193161959716713"><ele>221.0</ele><time>2026-05-02T14:14:11.01Z</time></trkpt><trkpt lat="45.970318431221905" lon="9.193079106896423"><ele>221.0</ele><time>2026-05-02T14:14:12.01Z</time></trkpt><trkpt lat="45.97020938403313" lon="9.192992999798772"><ele>221.0</ele><time>2026-05-02T14:14:13.01Z</time></trkpt><trkpt lat="45.97010486160309" lon="9.192915226283988"><ele>221.0</ele><time>2026-05-02T14:14:14.01Z</time></trkpt><trkpt lat="45.97000417261236" lon="9.192829180777672"><ele>221.0</ele><time>2026-05-02T14:14:15.01Z</time></trkpt><trkpt lat="45.969912913314026" lon="9.192738540013716"><ele>220.8</ele><time>2026-05-02T14:14:16.01Z</time></trkpt><trkpt lat="45.96982384137928" lon="9.192633999408605"><ele>220.60000000000002</ele><time>2026-05-02T14:14:17.01Z</time></trkpt><trkpt lat="45.969749323604326" lon="9.192515991029188"><ele>220.4</ele><time>2026-05-02T14:14:18.01Z</time></trkpt><trkpt lat="45.96968926314061" lon="9.192379949152066"><ele>220.2</ele><time>2026-05-02T14:14:19.01Z</time></trkpt><trkpt lat="45.96964314951105" lon="9.192265825242226"><ele>220.0</ele><time>2026-05-02T14:14:20.01Z</time></trkpt><trkpt lat="45.96961668013878" lon="9.192178236073367"><ele>220.4</ele><time>2026-05-02T14:14:21.01Z</time></trkpt><trkpt lat="45.969582529271776" lon="9.192038691613122"><ele>220.8</ele><time>2026-05-02T14:14:23.01Z</time></trkpt><trkpt lat="45.96955357642573" lon="9.191912884542639"><ele>221.2</ele><time>2026-05-02T14:14:25.01Z</time></trkpt><trkpt lat="45.96953044242287" lon="9.191813265544733"><ele>221.6</ele><time>2026-05-02T14:14:27.01Z</time></trkpt><trkpt lat="45.96949655947592" lon="9.191697962259878"><ele>222.0</ele><time>2026-05-02T14:14:29.01Z</time></trkpt><trkpt lat="45.96945093667151" lon="9.191531038940711"><ele>222.33333333333334</ele><time>2026-05-02T14:14:31.011Z</time></trkpt><trkpt lat="45.96942430926774" lon="9.191430603577881"><ele>222.66666666666669</ele><time>2026-05-02T14:14:32.011Z</time></trkpt><trkpt lat="45.96939283096111" lon="9.1913258266466"><ele>223.0</ele><time>2026-05-02T14:14:33.011Z</time></trkpt><trkpt lat="45.969362204649904" lon="9.191224789539417"><ele>223.33333333333334</ele><time>2026-05-02T14:14:34.011Z</time></trkpt><trkpt lat="45.9693353939909" lon="9.191117967334046"><ele>223.66666666666669</ele><time>2026-05-02T14:14:35.011Z</time></trkpt><trkpt lat="45.96930798149528" lon="9.191003739378063"><ele>224.0</ele><time>2026-05-02T14:14:36.011Z</time></trkpt><trkpt lat="45.96927916707105" lon="9.190889520715238"><ele>224.0</ele><time>2026-05-02T14:14:37.011Z</time></trkpt><trkpt lat="45.969249543703405" lon="9.190771858136506"><ele>223.99999999999997</ele><time>2026-05-02T14:14:38.011Z</time></trkpt><trkpt lat="45.969216774097035" lon="9.190650847410373"><ele>223.99999999999997</ele><time>2026-05-02T14:14:39.011Z</time></trkpt><trkpt lat="45.96918660470192" lon="9.190525818579616"><ele>224.0</ele><time>2026-05-02T14:14:40.011Z</time></trkpt><trkpt lat="45.96915509908169" lon="9.19039866915816"><ele>224.0</ele><time>2026-05-02T14:14:41.011Z</time></trkpt><trkpt lat="45.969124108276006" lon="9.190265684711054"><ele>223.79999999999998</ele><time>2026-05-02T14:14:42.011Z</time></trkpt><trkpt lat="45.969091245264174" lon="9.190132195512865"><ele>223.59999999999997</ele><time>2026-05-02T14:14:43.011Z</time></trkpt><trkpt lat="45.96905402083924" lon="9.189998507965655"><ele>223.4</ele><time>2026-05-02T14:14:44.011Z</time></trkpt><trkpt lat="45.9690151084375" lon="9.189856369091322"><ele>223.2</ele><time>2026-05-02T14:14:45.011Z</time></trkpt><trkpt lat="45.968979120322636" lon="9.189718274485223"><ele>223.0</ele><time>2026-05-02T14:14:46.011Z</time></trkpt><trkpt lat="45.96894305262651" lon="9.189585529706708"><ele>223.4</ele><time>2026-05-02T14:14:47.011Z</time></trkpt><trkpt lat="45.96889712772545" lon="9.189449096240443"><ele>223.8</ele><time>2026-05-02T14:14:48.011Z</time></trkpt><trkpt lat="45.96886426000437" lon="9.189312816948402"><ele>224.2</ele><time>2026-05-02T14:14:49.011Z</time></trkpt><trkpt lat="45.9688314715199" lon="9.189176887503383"><ele>224.6</ele><time>2026-05-02T14:14:50.011Z</time></trkpt><trkpt lat="45.968792115370974" lon="9.189042317874781"><ele>225.0</ele><time>2026-05-02T14:14:51.011Z</time></trkpt><trkpt lat="45.96876789559113" lon="9.18890604631065"><ele>225.2</ele><time>2026-05-02T14:14:52.011Z</time></trkpt><trkpt lat="45.96873495866673" lon="9.188777486758658"><ele>225.4</ele><time>2026-05-02T14:14:53.011Z</time></trkpt><trkpt lat="45.968702246671135" lon="9.188649245334084"><ele>225.60000000000002</ele><time>2026-05-02T14:14:54.011Z</time></trkpt><trkpt lat="45.968670313336744" lon="9.188523755076869"><ele>225.8</ele><time>2026-05-02T14:14:55.011Z</time></trkpt><trkpt lat="45.96863805192336" lon="9.188396975331099"><ele>226.0</ele><time>2026-05-02T14:14:56.011Z</time></trkpt><trkpt lat="45.9686058591895" lon="9.188271525774384"><ele>225.66666666666666</ele><time>2026-05-02T14:14:57.011Z</time></trkpt><trkpt lat="45.96855921055745" lon="9.188157097812669"><ele>225.33333333333331</ele><time>2026-05-02T14:14:58.011Z</time></trkpt><trkpt lat="45.96854034999573" lon="9.18802698697957"><ele>225.0</ele><time>2026-05-02T14:14:59.011Z</time></trkpt><trkpt lat="45.96850784620269" lon="9.187898265513157"><ele>224.66666666666669</ele><time>2026-05-02T14:15:00.011Z</time></trkpt><trkpt lat="45.968479443024584" lon="9.187786607860561"><ele>224.33333333333334</ele><time>2026-05-02T14:15:01.011Z</time></trkpt><trkpt lat="45.968453988932325" lon="9.187674731761678"><ele>224.0</ele><time>2026-05-02T14:15:02.011Z</time></trkpt><trkpt lat="45.968423576209524" lon="9.18757921312791"><ele>224.0</ele><time>2026-05-02T14:15:03.011Z</time></trkpt><trkpt lat="45.96839019331853" lon="9.187447942702876"><ele>223.99999999999997</ele><time>2026-05-02T14:15:05.011Z</time></trkpt><trkpt lat="45.96836987061756" lon="9.187344431895912"><ele>223.99999999999997</ele><time>2026-05-02T14:15:08.011Z</time></trkpt><trkpt lat="45.96833295034899" lon="9.187223579226448"><ele>224.0</ele><time>2026-05-02T14:16:03.009Z</time></trkpt><trkpt lat="45.96829588668424" lon="9.187074999989626"><ele>224.0</ele><time>2026-05-02T14:16:05.009Z</time></trkpt><trkpt lat="45.968255717844094" lon="9.18691376861584"><ele>221.83333333333334</ele><time>2026-05-02T14:16:07.009Z</time></trkpt><trkpt lat="45.96823221870848" lon="9.186819444503906"><ele>219.66666666666669</ele><time>2026-05-02T14:16:08.009Z</time></trkpt><trkpt lat="45.96820491644158" lon="9.186714298704008"><ele>217.5</ele><time>2026-05-02T14:16:09.009Z</time></trkpt><trkpt lat="45.968177851586155" lon="9.186610274866673"><ele>215.33333333333331</ele><time>2026-05-02T14:16:10.009Z</time></trkpt><trkpt lat="45.96815147768977" lon="9.186510084827587"><ele>213.16666666666666</ele><time>2026-05-02T14:16:11.009Z</time></trkpt><trkpt lat="45.96812463376222" lon="9.186406786217578"><ele>211.0</ele><time>2026-05-02T14:16:12.009Z</time></trkpt><trkpt lat="45.96809668815526" lon="9.186298554545031"><ele>210.99999999999997</ele><time>2026-05-02T14:16:13.009Z</time></trkpt><trkpt lat="45.96806857812607" lon="9.186189696474026"><ele>211.0</ele><time>2026-05-02T14:16:14.009Z</time></trkpt><trkpt lat="45.968040686306445" lon="9.186081694738485"><ele>211.0</ele><time>2026-05-02T14:16:15.009Z</time></trkpt><trkpt lat="45.96799867122035" lon="9.185985687636032"><ele>211.0</ele><time>2026-05-02T14:16:16.009Z</time></trkpt><trkpt lat="45.9679876428854" lon="9.185879751436254"><ele>210.99999999999997</ele><time>2026-05-02T14:16:17.009Z</time></trkpt><trkpt lat="45.96796001147008" lon="9.185774841576086"><ele>211.0</ele><time>2026-05-02T14:16:18.009Z</time></trkpt><trkpt lat="45.96791906836942" lon="9.185683658486768"><ele>211.33333333333331</ele><time>2026-05-02T14:16:19.009Z</time></trkpt><trkpt lat="45.96789378654707" lon="9.18559042279989"><ele>211.66666666666666</ele><time>2026-05-02T14:16:20.009Z</time></trkpt><trkpt lat="45.967879865046505" lon="9.185495144282603"><ele>212.0</ele><time>2026-05-02T14:16:21.009Z</time></trkpt><trkpt lat="45.967850510134184" lon="9.185408481932608"><ele>212.33333333333331</ele><time>2026-05-02T14:16:22.009Z</time></trkpt><trkpt lat="45.96781879649807" lon="9.18531485609622"><ele>212.66666666666666</ele><time>2026-05-02T14:16:23.009Z</time></trkpt><trkpt lat="45.96773283129313" lon="9.185251134904965"><ele>213.0</ele><time>2026-05-02T14:16:24.009Z</time></trkpt><trkpt lat="45.967669128976894" lon="9.185164655930377"><ele>213.0</ele><time>2026-05-02T14:16:25.009Z</time></trkpt><trkpt lat="45.967602545319636" lon="9.185090553981603"><ele>213.0</ele><time>2026-05-02T14:16:26.009Z</time></trkpt><trkpt lat="45.96753462694895" lon="9.185019612653734"><ele>213.0</ele><time>2026-05-02T14:16:27.009Z</time></trkpt><trkpt lat="45.967471834524844" lon="9.184946871156772"><ele>213.0</ele><time>2026-05-02T14:16:28.009Z</time></trkpt><trkpt lat="45.96741748816894" lon="9.184870104690184"><ele>213.0</ele><time>2026-05-02T14:16:29.009Z</time></trkpt><trkpt lat="45.96737996193465" lon="9.184777267650833"><ele>213.0</ele><time>2026-05-02T14:16:30.009Z</time></trkpt><trkpt lat="45.96735628901391" lon="9.184673295221321"><ele>212.83333333333334</ele><time>2026-05-02T14:16:31.009Z</time></trkpt><trkpt lat="45.96734099137957" lon="9.184564349016048"><ele>212.66666666666669</ele><time>2026-05-02T14:16:32.009Z</time></trkpt><trkpt lat="45.967337785042965" lon="9.184451486313929"><ele>212.5</ele><time>2026-05-02T14:16:33.009Z</time></trkpt><trkpt lat="45.96735245515247" lon="9.184340410560186"><ele>212.33333333333334</ele><time>2026-05-02T14:16:34.009Z</time></trkpt><trkpt lat="45.96739218426581" lon="9.184246714597107"><ele>212.16666666666669</ele><time>2026-05-02T14:16:35.009Z</time></trkpt><trkpt lat="45.967446403887564" lon="9.184143088049021"><ele>212.0</ele><time>2026-05-02T14:16:36.009Z</time></trkpt><trkpt lat="45.967499174059085" lon="9.184035017190855"><ele>214.33333333333334</ele><time>2026-05-02T14:16:37.009Z</time></trkpt><trkpt lat="45.96753579912735" lon="9.183923634154091"><ele>216.66666666666669</ele><time>2026-05-02T14:16:38.009Z</time></trkpt><trkpt lat="45.967564086211254" lon="9.18381695489114"><ele>219.0</ele><time>2026-05-02T14:16:39.009Z</time></trkpt><trkpt lat="45.96758445354445" lon="9.183718602976812"><ele>221.33333333333331</ele><time>2026-05-02T14:16:40.009Z</time></trkpt><trkpt lat="45.96760264596904" lon="9.183540156359426"><ele>223.66666666666666</ele><time>2026-05-02T14:16:42.01Z</time></trkpt><trkpt lat="45.96760934362387" lon="9.18344835295303"><ele>226.0</ele><time>2026-05-02T14:16:43.01Z</time></trkpt><trkpt lat="45.96763500788623" lon="9.183278019755843"><ele>225.99999999999997</ele><time>2026-05-02T14:16:45.01Z</time></trkpt><trkpt lat="45.96762416253938" lon="9.183134953533209"><ele>226.0</ele><time>2026-05-02T14:16:47.01Z</time></trkpt><trkpt lat="45.96761355227171" lon="9.183025988320187"><ele>226.0</ele><time>2026-05-02T14:16:49.01Z</time></trkpt><trkpt lat="45.96760088210995" lon="9.1829216203173"><ele>226.0</ele><time>2026-05-02T14:16:51.01Z</time></trkpt><trkpt lat="45.96759184526373" lon="9.182807162214717"><ele>225.99999999999997</ele><time>2026-05-02T14:16:53.01Z</time></trkpt><trkpt lat="45.96758196041169" lon="9.18270716582753"><ele>226.0</ele><time>2026-05-02T14:16:55.01Z</time></trkpt><trkpt lat="45.967577353063405" lon="9.182603482614399"><ele>225.99999999999997</ele><time>2026-05-02T14:16:57.01Z</time></trkpt><trkpt lat="45.96757729545281" lon="9.182489963941206"><ele>226.0</ele><time>2026-05-02T14:16:59.01Z</time></trkpt><trkpt lat="45.967574027487494" lon="9.182389977649805"><ele>226.0</ele><time>2026-05-02T14:17:01.01Z</time></trkpt><trkpt lat="45.967565924690696" lon="9.182262052292721"><ele>226.0</ele><time>2026-05-02T14:17:04.01Z</time></trkpt><trkpt lat="45.967565374585284" lon="9.182148542119936"><ele>225.99999999999997</ele><time>2026-05-02T14:17:07.01Z</time></trkpt><trkpt lat="45.967569928130935" lon="9.18204518612099"><ele>226.0</ele><time>2026-05-02T14:17:09.01Z</time></trkpt><trkpt lat="45.96757369807024" lon="9.181939062813912"><ele>225.99999999999997</ele><time>2026-05-02T14:17:11.01Z</time></trkpt><trkpt lat="45.967580290796505" lon="9.1818420364878"><ele>226.0</ele><time>2026-05-02T14:17:14.01Z</time></trkpt><trkpt lat="45.967591759262724" lon="9.181713613400063"><ele>226.0</ele><time>2026-05-02T14:17:21.01Z</time></trkpt><trkpt lat="45.967595652304794" lon="9.181586094783437"><ele>226.0</ele><time>2026-05-02T14:17:23.01Z</time></trkpt><trkpt lat="45.967600112924025" lon="9.181477858544051"><ele>225.99999999999997</ele><time>2026-05-02T14:17:25.01Z</time></trkpt><trkpt lat="45.96760990858513" lon="9.181351360020363"><ele>226.0</ele><time>2026-05-02T14:17:27.01Z</time></trkpt><trkpt lat="45.96763887240076" lon="9.181248489956735"><ele>225.99999999999997</ele><time>2026-05-02T14:17:28.01Z</time></trkpt><trkpt lat="45.96764587118718" lon="9.181150263317491"><ele>226.0</ele><time>2026-05-02T14:17:29.01Z</time></trkpt><trkpt lat="45.96765426283078" lon="9.181034324440088"><ele>226.0</ele><time>2026-05-02T14:17:30.01Z</time></trkpt><trkpt lat="45.96766611730701" lon="9.180926563805237"><ele>226.0</ele><time>2026-05-02T14:17:31.01Z</time></trkpt><trkpt lat="45.96767572606363" lon="9.180812239643217"><ele>225.99999999999997</ele><time>2026-05-02T14:17:32.01Z</time></trkpt><trkpt lat="45.96768491541045" lon="9.180703777169352"><ele>226.0</ele><time>2026-05-02T14:17:33.01Z</time></trkpt><trkpt lat="45.96769512101207" lon="9.180600131042722"><ele>225.8</ele><time>2026-05-02T14:17:34.01Z</time></trkpt><trkpt lat="45.96770577096782" lon="9.180507465930782"><ele>225.60000000000002</ele><time>2026-05-02T14:17:35.011Z</time></trkpt><trkpt lat="45.967727013765455" lon="9.18033895017037"><ele>225.4</ele><time>2026-05-02T14:17:37.011Z</time></trkpt><trkpt lat="45.96775035682346" lon="9.180180346750486"><ele>225.2</ele><time>2026-05-02T14:17:39.011Z</time></trkpt><trkpt lat="45.96776537804542" lon="9.18005743011395"><ele>225.0</ele><time>2026-05-02T14:17:41.011Z</time></trkpt><trkpt lat="45.967782136529216" lon="9.17995167613744"><ele>224.2</ele><time>2026-05-02T14:17:44.011Z</time></trkpt><trkpt lat="45.96779795806292" lon="9.179811966774027"><ele>223.4</ele><time>2026-05-02T14:19:17.009Z</time></trkpt><trkpt lat="45.967820554107085" lon="9.17968473318914"><ele>222.60000000000002</ele><time>2026-05-02T14:19:19.009Z</time></trkpt><trkpt lat="45.967843021821196" lon="9.179573841670676"><ele>221.8</ele><time>2026-05-02T14:19:21.009Z</time></trkpt><trkpt lat="45.96786311829091" lon="9.179445401277091"><ele>221.0</ele><time>2026-05-02T14:19:23.009Z</time></trkpt><trkpt lat="45.967895935620824" lon="9.179279056745994"><ele>221.00000000000003</ele><time>2026-05-02T14:19:25.009Z</time></trkpt><trkpt lat="45.96791869465215" lon="9.17918168083581"><ele>221.0</ele><time>2026-05-02T14:19:26.009Z</time></trkpt><trkpt lat="45.96794535468751" lon="9.179092088153345"><ele>221.0</ele><time>2026-05-02T14:19:27.009Z</time></trkpt><trkpt lat="45.967967885279336" lon="9.178992411776209"><ele>221.0</ele><time>2026-05-02T14:19:28.009Z</time></trkpt><trkpt lat="45.967991491308915" lon="9.178894375300487"><ele>221.0</ele><time>2026-05-02T14:19:29.009Z</time></trkpt><trkpt lat="45.96801522554633" lon="9.178799948310873"><ele>221.00000000000003</ele><time>2026-05-02T14:19:30.009Z</time></trkpt><trkpt lat="45.968038497814575" lon="9.178704038160866"><ele>221.0</ele><time>2026-05-02T14:19:31.009Z</time></trkpt><trkpt lat="45.96806305216131" lon="9.17860573253495"><ele>220.33333333333334</ele><time>2026-05-02T14:19:32.009Z</time></trkpt><trkpt lat="45.96808555927929" lon="9.178498721276064"><ele>219.66666666666669</ele><time>2026-05-02T14:19:33.009Z</time></trkpt><trkpt lat="45.96810959744427" lon="9.178397715607359"><ele>219.0</ele><time>2026-05-02T14:19:34.009Z</time></trkpt><trkpt lat="45.968136289950564" lon="9.178300755758922"><ele>218.33333333333331</ele><time>2026-05-02T14:19:35.01Z</time></trkpt><trkpt lat="45.96816161186481" lon="9.178211762314474"><ele>217.66666666666666</ele><time>2026-05-02T14:19:36.01Z</time></trkpt><trkpt lat="45.96818482889065" lon="9.17812444974465"><ele>217.0</ele><time>2026-05-02T14:19:37.01Z</time></trkpt><trkpt lat="45.96823749772825" lon="9.177946829810097"><ele>216.28571428571428</ele><time>2026-05-02T14:19:39.01Z</time></trkpt><trkpt lat="45.96826862254073" lon="9.177852931399327"><ele>215.57142857142856</ele><time>2026-05-02T14:19:40.01Z</time></trkpt><trkpt lat="45.9683044707621" lon="9.177760319109636"><ele>214.85714285714286</ele><time>2026-05-02T14:19:41.01Z</time></trkpt><trkpt lat="45.96835017026762" lon="9.17767814998152"><ele>214.14285714285714</ele><time>2026-05-02T14:19:42.01Z</time></trkpt><trkpt lat="45.968394669220466" lon="9.17759262843524"><ele>213.42857142857142</ele><time>2026-05-02T14:19:43.01Z</time></trkpt><trkpt lat="45.96844225887679" lon="9.17750779825905"><ele>212.71428571428572</ele><time>2026-05-02T14:19:44.01Z</time></trkpt><trkpt lat="45.96848533816106" lon="9.177432860235696"><ele>212.0</ele><time>2026-05-02T14:19:45.01Z</time></trkpt><trkpt lat="45.968537227870584" lon="9.17735139062089"><ele>213.57142857142858</ele><time>2026-05-02T14:19:46.01Z</time></trkpt><trkpt lat="45.96857644733741" lon="9.177275768543852"><ele>215.14285714285714</ele><time>2026-05-02T14:19:47.01Z</time></trkpt><trkpt lat="45.9686175092783" lon="9.177201519041285"><ele>216.71428571428572</ele><time>2026-05-02T14:19:48.01Z</time></trkpt><trkpt lat="45.968662827137074" lon="9.177127160969741"><ele>218.28571428571428</ele><time>2026-05-02T14:19:49.01Z</time></trkpt><trkpt lat="45.96870537527625" lon="9.177044109648536"><ele>219.85714285714283</ele><time>2026-05-02T14:19:50.01Z</time></trkpt><trkpt lat="45.968749388137695" lon="9.176958798894189"><ele>221.42857142857142</ele><time>2026-05-02T14:19:51.01Z</time></trkpt><trkpt lat="45.968799217953745" lon="9.176864283971268"><ele>223.0</ele><time>2026-05-02T14:19:52.01Z</time></trkpt><trkpt lat="45.968838610626904" lon="9.176754941463669"><ele>222.99999999999997</ele><time>2026-05-02T14:19:53.008Z</time></trkpt><trkpt lat="45.96888061576944" lon="9.176666211957578"><ele>223.0</ele><time>2026-05-02T14:19:54.008Z</time></trkpt><trkpt lat="45.96892133150496" lon="9.17658495603511"><ele>223.0</ele><time>2026-05-02T14:19:55.008Z</time></trkpt><trkpt lat="45.96895492096405" lon="9.176490176745414"><ele>223.0</ele><time>2026-05-02T14:19:56.008Z</time></trkpt><trkpt lat="45.96899290730932" lon="9.17633155026962"><ele>222.99999999999997</ele><time>2026-05-02T14:19:58.008Z</time></trkpt><trkpt lat="45.969025085855286" lon="9.176232652215676"><ele>223.0</ele><time>2026-05-02T14:20:00.008Z</time></trkpt><trkpt lat="45.96904525643118" lon="9.176142680370342"><ele>221.8</ele><time>2026-05-02T14:20:02.009Z</time></trkpt><trkpt lat="45.969076057216775" lon="9.175997864599571"><ele>220.60000000000002</ele><time>2026-05-02T14:20:04.008Z</time></trkpt><trkpt lat="45.969142275023735" lon="9.175835362609305"><ele>219.39999999999998</ele><time>2026-05-02T14:20:06.008Z</time></trkpt><trkpt lat="45.96917629575217" lon="9.17575232630574"><ele>218.2</ele><time>2026-05-02T14:20:07.008Z</time></trkpt><trkpt lat="45.969188740156135" lon="9.175663116281514"><ele>217.0</ele><time>2026-05-02T14:20:08.008Z</time></trkpt><trkpt lat="45.96919335678479" lon="9.175526209069682"><ele>217.0</ele><time>2026-05-02T14:20:10.008Z</time></trkpt><trkpt lat="45.969209319697406" lon="9.175422864691015"><ele>217.0</ele><time>2026-05-02T14:20:14.008Z</time></trkpt><trkpt lat="45.969210109661084" lon="9.175320322149862"><ele>217.0</ele><time>2026-05-02T14:20:18.008Z</time></trkpt><trkpt lat="45.96919773750826" lon="9.17522410673772"><ele>217.0</ele><time>2026-05-02T14:20:20.008Z</time></trkpt><trkpt lat="45.96917980897365" lon="9.175126668560733"><ele>217.0</ele><time>2026-05-02T14:20:23.009Z</time></trkpt><trkpt lat="45.96916730285831" lon="9.17503055185329"><ele>217.0</ele><time>2026-05-02T14:20:27.009Z</time></trkpt><trkpt lat="45.969152072499305" lon="9.174935254347083"><ele>217.0</ele><time>2026-05-02T14:20:46.009Z</time></trkpt><trkpt lat="45.969114192178054" lon="9.17484248299042"><ele>220.16666666666666</ele><time>2026-05-02T14:20:48.009Z</time></trkpt><trkpt lat="45.96905485394787" lon="9.17476644297158"><ele>223.33333333333331</ele><time>2026-05-02T14:20:51.009Z</time></trkpt><trkpt lat="45.96899916908467" lon="9.174711880333462"><ele>226.5</ele><time>2026-05-02T14:20:54.009Z</time></trkpt><trkpt lat="45.96894159014514" lon="9.174671189618527"><ele>229.66666666666669</ele><time>2026-05-02T14:20:58.009Z</time></trkpt><trkpt lat="45.96887490949485" lon="9.174594506853053"><ele>232.83333333333334</ele><time>2026-05-02T14:21:01.009Z</time></trkpt><trkpt lat="45.968813497257656" lon="9.174505497445205"><ele>236.0</ele><time>2026-05-02T14:21:03.009Z</time></trkpt><trkpt lat="45.96875179938783" lon="9.174365668547395"><ele>236.0</ele><time>2026-05-02T14:21:05.009Z</time></trkpt><trkpt lat="45.96871767152293" lon="9.174280565542087"><ele>236.00000000000003</ele><time>2026-05-02T14:21:06.009Z</time></trkpt><trkpt lat="45.968656942952386" lon="9.174141652253265"><ele>236.00000000000003</ele><time>2026-05-02T14:21:08.009Z</time></trkpt><trkpt lat="45.96860753671713" lon="9.174015852643302"><ele>236.0</ele><time>2026-05-02T14:21:10.009Z</time></trkpt><trkpt lat="45.96856391971482" lon="9.173898630864644"><ele>236.0</ele><time>2026-05-02T14:21:12.009Z</time></trkpt><trkpt lat="45.96852579054699" lon="9.173806592515112"><ele>234.71428571428572</ele><time>2026-05-02T14:21:15.009Z</time></trkpt><trkpt lat="45.96849049525795" lon="9.173710878509382"><ele>233.42857142857144</ele><time>2026-05-02T14:21:24.01Z</time></trkpt><trkpt lat="45.96845644376376" lon="9.173624276839854"><ele>232.14285714285717</ele><time>2026-05-02T14:21:27.01Z</time></trkpt><trkpt lat="45.96842516748914" lon="9.173545081510284"><ele>230.85714285714286</ele><time>2026-05-02T14:21:35.01Z</time></trkpt><trkpt lat="45.96838770162289" lon="9.173446001645756"><ele>229.5714285714286</ele><time>2026-05-02T14:21:37.01Z</time></trkpt><trkpt lat="45.96834902708359" lon="9.1733577392318"><ele>228.2857142857143</ele><time>2026-05-02T14:21:39.01Z</time></trkpt><trkpt lat="45.9683097699109" lon="9.173257786205328"><ele>227.0</ele><time>2026-05-02T14:21:42.01Z</time></trkpt><trkpt lat="45.96827265272372" lon="9.173168671954077"><ele>227.00000000000003</ele><time>2026-05-02T14:21:46.01Z</time></trkpt><trkpt lat="45.968236539483705" lon="9.173087314217986"><ele>227.0</ele><time>2026-05-02T14:21:49.01Z</time></trkpt><trkpt lat="45.96819622191067" lon="9.172986268168897"><ele>227.0</ele><time>2026-05-02T14:22:11.007Z</time></trkpt><trkpt lat="45.96815874123841" lon="9.172864529135815"><ele>227.0</ele><time>2026-05-02T14:22:13.008Z</time></trkpt><trkpt lat="45.96809632898342" lon="9.172724313412928"><ele>227.00000000000003</ele><time>2026-05-02T14:22:15.008Z</time></trkpt><trkpt lat="45.96806452744328" lon="9.172645411079195"><ele>227.0</ele><time>2026-05-02T14:22:16.008Z</time></trkpt><trkpt lat="45.96797912355083" lon="9.172510248361835"><ele>227.0</ele><time>2026-05-02T14:22:18.008Z</time></trkpt><trkpt lat="45.96792962982156" lon="9.172452382797811"><ele>227.00000000000003</ele><time>2026-05-02T14:22:19.008Z</time></trkpt><trkpt lat="45.96787150706371" lon="9.172396929431402"><ele>227.0</ele><time>2026-05-02T14:22:20.008Z</time></trkpt><trkpt lat="45.96780302739335" lon="9.172346421985727"><ele>227.0</ele><time>2026-05-02T14:22:21.008Z</time></trkpt><trkpt lat="45.96773557455839" lon="9.172300264287237"><ele>227.00000000000003</ele><time>2026-05-02T14:22:22.008Z</time></trkpt><trkpt lat="45.96767216823295" lon="9.172248832303145"><ele>227.0</ele><time>2026-05-02T14:22:23.008Z</time></trkpt><trkpt lat="45.9676046705682" lon="9.17219952434871"><ele>227.0</ele><time>2026-05-02T14:22:24.008Z</time></trkpt><trkpt lat="45.96753176175802" lon="9.172157548395788"><ele>225.66666666666669</ele><time>2026-05-02T14:22:25.008Z</time></trkpt><trkpt lat="45.967477691157484" lon="9.172094666707624"><ele>224.33333333333334</ele><time>2026-05-02T14:22:26.008Z</time></trkpt><trkpt lat="45.96739442349822" lon="9.172032450751587"><ele>223.0</ele><time>2026-05-02T14:22:28.008Z</time></trkpt><trkpt lat="45.96730500324091" lon="9.172002769367742"><ele>221.66666666666669</ele><time>2026-05-02T14:22:31.008Z</time></trkpt><trkpt lat="45.967242292240776" lon="9.171931928216681"><ele>220.33333333333334</ele><time>2026-05-02T14:22:33.008Z</time></trkpt><trkpt lat="45.96720510722235" lon="9.171830143916907"><ele>219.0</ele><time>2026-05-02T14:22:35.008Z</time></trkpt><trkpt lat="45.96715052853256" lon="9.171749260536474"><ele>219.0</ele><time>2026-05-02T14:22:37.008Z</time></trkpt><trkpt lat="45.967097320368694" lon="9.171650925849686"><ele>218.99999999999997</ele><time>2026-05-02T14:22:39.008Z</time></trkpt><trkpt lat="45.96703668877139" lon="9.171550874227039"><ele>218.99999999999997</ele><time>2026-05-02T14:22:41.008Z</time></trkpt><trkpt lat="45.96700303865582" lon="9.171431904372762"><ele>219.0</ele><time>2026-05-02T14:22:43.008Z</time></trkpt><trkpt lat="45.96695255535526" lon="9.171267579185999"><ele>219.0</ele><time>2026-05-02T14:22:45.008Z</time></trkpt><trkpt lat="45.966918561676486" lon="9.17118418661697"><ele>222.39999999999998</ele><time>2026-05-02T14:22:46.008Z</time></trkpt><trkpt lat="45.966866078497084" lon="9.171040937918187"><ele>225.79999999999998</ele><time>2026-05-02T14:22:48.008Z</time></trkpt><trkpt lat="45.966830102010164" lon="9.170922099016126"><ele>229.20000000000002</ele><time>2026-05-02T14:22:50.008Z</time></trkpt><trkpt lat="45.966794069523495" lon="9.170814771011019"><ele>232.60000000000002</ele><time>2026-05-02T14:22:52.008Z</time></trkpt><trkpt lat="45.96675750797562" lon="9.170690596724226"><ele>236.0</ele><time>2026-05-02T14:22:54.008Z</time></trkpt><trkpt lat="45.96672165033287" lon="9.17057478039627"><ele>233.16666666666669</ele><time>2026-05-02T14:22:56.008Z</time></trkpt><trkpt lat="45.966681183245214" lon="9.170463502882518"><ele>230.33333333333334</ele><time>2026-05-02T14:22:59.008Z</time></trkpt><trkpt lat="45.96665096422044" lon="9.170351626500306"><ele>227.5</ele><time>2026-05-02T14:23:02.008Z</time></trkpt><trkpt lat="45.966613144935174" lon="9.170259124878859"><ele>224.66666666666669</ele><time>2026-05-02T14:23:10.008Z</time></trkpt><trkpt lat="45.96658937885155" lon="9.170159767664753"><ele>221.83333333333334</ele><time>2026-05-02T14:23:12.007Z</time></trkpt><trkpt lat="45.96655085141505" lon="9.170004563060518"><ele>219.0</ele><time>2026-05-02T14:23:14.006Z</time></trkpt><trkpt lat="45.966525051287846" lon="9.169916098997138"><ele>221.16666666666666</ele><time>2026-05-02T14:23:15.005Z</time></trkpt><trkpt lat="45.96649518200424" lon="9.16982018956608"><ele>223.33333333333331</ele><time>2026-05-02T14:23:16.005Z</time></trkpt><trkpt lat="45.966463383406094" lon="9.16972088947339"><ele>225.5</ele><time>2026-05-02T14:23:17.005Z</time></trkpt><trkpt lat="45.96642963588905" lon="9.16961297191998"><ele>227.66666666666666</ele><time>2026-05-02T14:23:18.004Z</time></trkpt><trkpt lat="45.96639637225216" lon="9.169494422114955"><ele>229.83333333333331</ele><time>2026-05-02T14:23:19.004Z</time></trkpt><trkpt lat="45.96636290458761" lon="9.169376443311773"><ele>232.0</ele><time>2026-05-02T14:23:20.004Z</time></trkpt><trkpt lat="45.966331963042535" lon="9.169271621077911"><ele>231.99999999999997</ele><time>2026-05-02T14:23:21.003Z</time></trkpt><trkpt lat="45.966286647412204" lon="9.169172858905696"><ele>232.0</ele><time>2026-05-02T14:23:22.003Z</time></trkpt><trkpt lat="45.96622745112871" lon="9.169082947661568"><ele>232.0</ele><time>2026-05-02T14:23:23.003Z</time></trkpt><trkpt lat="45.96615583521792" lon="9.168999839399717"><ele>232.0</ele><time>2026-05-02T14:23:24.003Z</time></trkpt><trkpt lat="45.96607845436648" lon="9.168935047027789"><ele>231.99999999999997</ele><time>2026-05-02T14:23:25.002Z</time></trkpt><trkpt lat="45.96603527869893" lon="9.168836603327643"><ele>232.0</ele><time>2026-05-02T14:23:26.002Z</time></trkpt><trkpt lat="45.965966841025306" lon="9.168767907431993"><ele>230.8</ele><time>2026-05-02T14:23:27.002Z</time></trkpt><trkpt lat="45.965880315986645" lon="9.168690380578461"><ele>229.6</ele><time>2026-05-02T14:23:28.002Z</time></trkpt><trkpt lat="45.96578411851883" lon="9.168623380644192"><ele>228.40000000000003</ele><time>2026-05-02T14:23:29.002Z</time></trkpt><trkpt lat="45.965703898059175" lon="9.168562826457968"><ele>227.20000000000002</ele><time>2026-05-02T14:23:30.002Z</time></trkpt><trkpt lat="45.96563578718292" lon="9.168508737243119"><ele>226.0</ele><time>2026-05-02T14:23:31.001Z</time></trkpt><trkpt lat="45.9655718594154" lon="9.168454628561918"><ele>225.99999999999997</ele><time>2026-05-02T14:23:32.001Z</time></trkpt><trkpt lat="45.96552537513132" lon="9.168384581390338"><ele>226.0</ele><time>2026-05-02T14:23:33.001Z</time></trkpt><trkpt lat="45.9654794379933" lon="9.168316888902616"><ele>226.0</ele><time>2026-05-02T14:23:34.001Z</time></trkpt><trkpt lat="45.96542601580799" lon="9.168220385836001"><ele>226.0</ele><time>2026-05-02T14:23:35.001Z</time></trkpt><trkpt lat="45.96535990365875" lon="9.168108597283291"><ele>225.99999999999997</ele><time>2026-05-02T14:23:36.001Z</time></trkpt><trkpt lat="45.9652830644123" lon="9.168004432196968"><ele>226.0</ele><time>2026-05-02T14:23:37.001Z</time></trkpt><trkpt lat="45.96520928620436" lon="9.167896098570862"><ele>224.20000000000002</ele><time>2026-05-02T14:23:38.001Z</time></trkpt><trkpt lat="45.96512838295335" lon="9.167796086656713"><ele>222.40000000000003</ele><time>2026-05-02T14:23:39.001Z</time></trkpt><trkpt lat="45.96507383570942" lon="9.167653575202555"><ele>220.6</ele><time>2026-05-02T14:23:40Z</time></trkpt><trkpt lat="45.96498164427711" lon="9.167549795172537"><ele>218.8</ele><time>2026-05-02T14:23:41Z</time></trkpt><trkpt lat="45.96490047878209" lon="9.167453639058323"><ele>217.0</ele><time>2026-05-02T14:23:42Z</time></trkpt><trkpt lat="45.96481721430838" lon="9.167348922551566"><ele>222.0</ele><time>2026-05-02T14:23:43Z</time></trkpt><trkpt lat="45.964731319663294" lon="9.167243987396754"><ele>227.0</ele><time>2026-05-02T14:23:44Z</time></trkpt><trkpt lat="45.96464334666867" lon="9.16714521397253"><ele>232.0</ele><time>2026-05-02T14:23:45Z</time></trkpt><trkpt lat="45.96454921052986" lon="9.167061749614296"><ele>237.0</ele><time>2026-05-02T14:23:46Z</time></trkpt><trkpt lat="45.96446168943715" lon="9.166951595533456"><ele>237.0</ele><time>2026-05-02T14:23:47Z</time></trkpt><trkpt lat="45.964368489889964" lon="9.166852161805101"><ele>237.0</ele><time>2026-05-02T14:23:48Z</time></trkpt><trkpt lat="45.96427006047405" lon="9.166771177670839"><ele>237.0</ele><time>2026-05-02T14:23:49Z</time></trkpt><trkpt lat="45.96418278634971" lon="9.166668816532772"><ele>237.0</ele><time>2026-05-02T14:23:50Z</time></trkpt><trkpt lat="45.964090115373416" lon="9.166581265652573"><ele>236.0</ele><time>2026-05-02T14:23:51Z</time></trkpt><trkpt lat="45.96399420313044" lon="9.1664906509516"><ele>235.0</ele><time>2026-05-02T14:23:52Z</time></trkpt><trkpt lat="45.96389816322354" lon="9.166398400559476"><ele>234.0</ele><time>2026-05-02T14:23:53Z</time></trkpt><trkpt lat="45.96380133263382" lon="9.166305798800302"><ele>233.0</ele><time>2026-05-02T14:23:54Z</time></trkpt><trkpt lat="45.963698380531746" lon="9.166207342841249"><ele>233.0</ele><time>2026-05-02T14:23:55Z</time></trkpt><trkpt lat="45.963603625937004" lon="9.166080287979954"><ele>233.0</ele><time>2026-05-02T14:23:56Z</time></trkpt><trkpt lat="45.963491659129474" lon="9.165960675154851"><ele>233.0</ele><time>2026-05-02T14:23:57Z</time></trkpt><trkpt lat="45.96337338248321" lon="9.16584157402333"><ele>233.0</ele><time>2026-05-02T14:23:58Z</time></trkpt><trkpt lat="45.96324499373388" lon="9.165732705987535"><ele>235.0</ele><time>2026-05-02T14:23:59Z</time></trkpt><trkpt lat="45.963116371488546" lon="9.165622754577717"><ele>237.0</ele><time>2026-05-02T14:24:00Z</time></trkpt><trkpt lat="45.96299084565823" lon="9.165500494576008"><ele>239.0</ele><time>2026-05-02T14:24:01Z</time></trkpt><trkpt lat="45.96286105819306" lon="9.165381780079453"><ele>239.0</ele><time>2026-05-02T14:24:02Z</time></trkpt><trkpt lat="45.962728366918554" lon="9.165268335526395"><ele>239.0</ele><time>2026-05-02T14:24:03Z</time></trkpt><trkpt lat="45.962602924331044" lon="9.165159820523636"><ele>239.0</ele><time>2026-05-02T14:24:04Z</time></trkpt><trkpt lat="45.96248868200931" lon="9.165048251416374"><ele>239.0</ele><time>2026-05-02T14:24:04.997Z</time></trkpt><trkpt lat="45.96238156240112" lon="9.16492276890387"><ele>239.75</ele><time>2026-05-02T14:24:05.997Z</time></trkpt><trkpt lat="45.96228192334131" lon="9.164785294605698"><ele>240.5</ele><time>2026-05-02T14:24:06.997Z</time></trkpt><trkpt lat="45.962211417272364" lon="9.164636416925422"><ele>241.25</ele><time>2026-05-02T14:24:07.997Z</time></trkpt><trkpt lat="45.96213899226106" lon="9.16446680172395"><ele>242.0</ele><time>2026-05-02T14:24:08.997Z</time></trkpt><trkpt lat="45.96207758192639" lon="9.164282992937883"><ele>242.0</ele><time>2026-05-02T14:24:09.997Z</time></trkpt><trkpt lat="45.962025072876465" lon="9.164089433325568"><ele>242.0</ele><time>2026-05-02T14:24:10.997Z</time></trkpt><trkpt lat="45.96198053053728" lon="9.163883811616271"><ele>242.0</ele><time>2026-05-02T14:24:11.997Z</time></trkpt><trkpt lat="45.96192717275967" lon="9.163699032620785"><ele>242.0</ele><time>2026-05-02T14:24:12.997Z</time></trkpt><trkpt lat="45.96186199236449" lon="9.163515356682252"><ele>237.5</ele><time>2026-05-02T14:24:13.997Z</time></trkpt><trkpt lat="45.96179368607262" lon="9.163323808574791"><ele>233.0</ele><time>2026-05-02T14:24:14.997Z</time></trkpt><trkpt lat="45.96171700086562" lon="9.163137484563272"><ele>228.5</ele><time>2026-05-02T14:24:15.997Z</time></trkpt><trkpt lat="45.961639730005636" lon="9.162974003937816"><ele>224.0</ele><time>2026-05-02T14:24:16.996Z</time></trkpt><trkpt lat="45.961550264575145" lon="9.162835372517113"><ele>224.0</ele><time>2026-05-02T14:24:17.997Z</time></trkpt><trkpt lat="45.96146491783449" lon="9.162719469192016"><ele>223.99999999999997</ele><time>2026-05-02T14:24:18.997Z</time></trkpt><trkpt lat="45.961391595285555" lon="9.162616400211029"><ele>223.99999999999997</ele><time>2026-05-02T14:24:19.997Z</time></trkpt><trkpt lat="45.961319503826864" lon="9.162526500278386"><ele>224.0</ele><time>2026-05-02T14:24:20.997Z</time></trkpt><trkpt lat="45.96125346248215" lon="9.162436657638457"><ele>224.0</ele><time>2026-05-02T14:24:21.997Z</time></trkpt><trkpt lat="45.96118718821791" lon="9.162345437766918"><ele>223.0</ele><time>2026-05-02T14:24:22.997Z</time></trkpt><trkpt lat="45.96111593213258" lon="9.16224420874532"><ele>221.99999999999997</ele><time>2026-05-02T14:24:23.997Z</time></trkpt><trkpt lat="45.96103901251447" lon="9.162140151011515"><ele>220.99999999999997</ele><time>2026-05-02T14:24:24.997Z</time></trkpt><trkpt lat="45.96095959985079" lon="9.162043659440547"><ele>220.0</ele><time>2026-05-02T14:24:25.997Z</time></trkpt><trkpt lat="45.96088029967871" lon="9.161952359487262"><ele>219.0</ele><time>2026-05-02T14:24:26.997Z</time></trkpt><trkpt lat="45.960802897446754" lon="9.161869400575103"><ele>219.0</ele><time>2026-05-02T14:24:27.997Z</time></trkpt><trkpt lat="45.96073221096002" lon="9.161781227921251"><ele>219.0</ele><time>2026-05-02T14:24:28.997Z</time></trkpt><trkpt lat="45.96066434789593" lon="9.161685701824213"><ele>219.0</ele><time>2026-05-02T14:24:29.997Z</time></trkpt><trkpt lat="45.96059302036762" lon="9.161601641039102"><ele>219.0</ele><time>2026-05-02T14:24:30.997Z</time></trkpt><trkpt lat="45.96052041983345" lon="9.161534289682182"><ele>219.0</ele><time>2026-05-02T14:24:31.997Z</time></trkpt><trkpt lat="45.960456051171036" lon="9.161466456910734"><ele>219.0</ele><time>2026-05-02T14:24:32.997Z</time></trkpt><trkpt lat="45.96040451746367" lon="9.161411539219568"><ele>222.83333333333334</ele><time>2026-05-02T14:24:33.997Z</time></trkpt><trkpt lat="45.96032682908606" lon="9.161309772655668"><ele>226.66666666666669</ele><time>2026-05-02T14:24:35.997Z</time></trkpt><trkpt lat="45.96025641281373" lon="9.161232656976432"><ele>230.5</ele><time>2026-05-02T14:24:37.997Z</time></trkpt><trkpt lat="45.960200802043815" lon="9.161166354157224"><ele>234.33333333333334</ele><time>2026-05-02T14:24:40.997Z</time></trkpt><trkpt lat="45.96015200872626" lon="9.161100761473016"><ele>238.16666666666669</ele><time>2026-05-02T14:24:59.997Z</time></trkpt><trkpt lat="45.96010328197705" lon="9.16103465690855"><ele>242.0</ele><time>2026-05-02T14:25:01.997Z</time></trkpt><trkpt lat="45.96005019867886" lon="9.16094401148963"><ele>239.39999999999998</ele><time>2026-05-02T14:25:03.997Z</time></trkpt><trkpt lat="45.959980341749485" lon="9.160787304792583"><ele>236.79999999999998</ele><time>2026-05-02T14:25:05.997Z</time></trkpt><trkpt lat="45.95993869302677" lon="9.160715273589908"><ele>234.2</ele><time>2026-05-02T14:25:06.997Z</time></trkpt><trkpt lat="45.95990661951282" lon="9.16059345643376"><ele>231.6</ele><time>2026-05-02T14:25:08.997Z</time></trkpt><trkpt lat="45.95987206284502" lon="9.160495937849507"><ele>229.0</ele><time>2026-05-02T14:25:10.997Z</time></trkpt><trkpt lat="45.95981571294933" lon="9.160362469349792"><ele>229.0</ele><time>2026-05-02T14:25:12.998Z</time></trkpt><trkpt lat="45.95974820293662" lon="9.1602403548219"><ele>228.99999999999997</ele><time>2026-05-02T14:25:14.998Z</time></trkpt><trkpt lat="45.95968243046536" lon="9.160169788996576"><ele>228.99999999999997</ele><time>2026-05-02T14:25:16.998Z</time></trkpt><trkpt lat="45.95961662771669" lon="9.160095606907426"><ele>229.0</ele><time>2026-05-02T14:25:19.998Z</time></trkpt><trkpt lat="45.959569820065646" lon="9.159980126039416"><ele>229.0</ele><time>2026-05-02T14:25:21.998Z</time></trkpt><trkpt lat="45.95948561553397" lon="9.15988101478013"><ele>226.75</ele><time>2026-05-02T14:25:23.998Z</time></trkpt><trkpt lat="45.95939451970345" lon="9.159771605461604"><ele>224.5</ele><time>2026-05-02T14:25:25.998Z</time></trkpt><trkpt lat="45.95931530557808" lon="9.159674750789392"><ele>222.25</ele><time>2026-05-02T14:25:27.998Z</time></trkpt><trkpt lat="45.95924763117742" lon="9.159553702657027"><ele>220.0</ele><time>2026-05-02T14:25:29.998Z</time></trkpt><trkpt lat="45.95917026552904" lon="9.159422568422327"><ele>219.99999999999997</ele><time>2026-05-02T14:25:31.998Z</time></trkpt><trkpt lat="45.95909735148511" lon="9.159284205265338"><ele>220.0</ele><time>2026-05-02T14:25:33.998Z</time></trkpt><trkpt lat="45.959027858752606" lon="9.159161118792923"><ele>220.0</ele><time>2026-05-02T14:25:35.998Z</time></trkpt><trkpt lat="45.95899295004361" lon="9.159084378575503"><ele>220.0</ele><time>2026-05-02T14:25:36.998Z</time></trkpt><trkpt lat="45.958960276758866" lon="9.159002174567702"><ele>219.99999999999997</ele><time>2026-05-02T14:25:37.998Z</time></trkpt><trkpt lat="45.95894047576491" lon="9.158897571120956"><ele>220.0</ele><time>2026-05-02T14:25:38.998Z</time></trkpt><trkpt lat="45.95893257818565" lon="9.158789706256217"><ele>220.33333333333331</ele><time>2026-05-02T14:25:39.998Z</time></trkpt><trkpt lat="45.958934375885434" lon="9.15867535403493"><ele>220.66666666666666</ele><time>2026-05-02T14:25:40.998Z</time></trkpt><trkpt lat="45.958937498398555" lon="9.158574842572408"><ele>221.0</ele><time>2026-05-02T14:25:41.998Z</time></trkpt><trkpt lat="45.958931369068814" lon="9.158400851298442"><ele>221.33333333333331</ele><time>2026-05-02T14:25:43.998Z</time></trkpt><trkpt lat="45.95891157504249" lon="9.158250592336667"><ele>221.66666666666666</ele><time>2026-05-02T14:25:45.998Z</time></trkpt><trkpt lat="45.958888214132706" lon="9.158161592843438"><ele>222.0</ele><time>2026-05-02T14:25:47.998Z</time></trkpt><trkpt lat="45.958861591351805" lon="9.158070651138079"><ele>224.0</ele><time>2026-05-02T14:25:51.998Z</time></trkpt><trkpt lat="45.95880197265002" lon="9.157959084970734"><ele>226.0</ele><time>2026-05-02T14:26:04.998Z</time></trkpt><trkpt lat="45.958754061844225" lon="9.157837984632469"><ele>228.0</ele><time>2026-05-02T14:26:06.998Z</time></trkpt><trkpt lat="45.95872236820982" lon="9.157742276792433"><ele>230.0</ele><time>2026-05-02T14:26:08.998Z</time></trkpt><trkpt lat="45.95865733929418" lon="9.157668314188639"><ele>232.0</ele><time>2026-05-02T14:26:17.995Z</time></trkpt><trkpt lat="45.95863139952784" lon="9.15758239369183"><ele>234.0</ele><time>2026-05-02T14:26:20.995Z</time></trkpt><trkpt lat="45.95859437342575" lon="9.157493481996386"><ele>237.16666666666666</ele><time>2026-05-02T14:26:27.996Z</time></trkpt><trkpt lat="45.95857000702941" lon="9.15735543078143"><ele>240.33333333333331</ele><time>2026-05-02T14:26:29.996Z</time></trkpt><trkpt lat="45.95855762648754" lon="9.15724634029994"><ele>243.5</ele><time>2026-05-02T14:26:31.996Z</time></trkpt><trkpt lat="45.9585472656965" lon="9.15715205441211"><ele>246.66666666666666</ele><time>2026-05-02T14:26:35.996Z</time></trkpt><trkpt lat="45.958517131373156" lon="9.157041356863985"><ele>249.83333333333331</ele><time>2026-05-02T14:26:43.996Z</time></trkpt><trkpt lat="45.95850885838222" lon="9.156914979772708"><ele>253.0</ele><time>2026-05-02T14:26:45.996Z</time></trkpt><trkpt lat="45.958501003531474" lon="9.15681324783648"><ele>252.99999999999997</ele><time>2026-05-02T14:26:47.996Z</time></trkpt><trkpt lat="45.95848708039046" lon="9.156675603762345"><ele>253.0</ele><time>2026-05-02T14:26:50.996Z</time></trkpt><trkpt lat="45.95848043980482" lon="9.156551999027352"><ele>253.0</ele><time>2026-05-02T14:26:52.996Z</time></trkpt><trkpt lat="45.958476572553074" lon="9.156419999906886"><ele>253.0</ele><time>2026-05-02T14:26:54.996Z</time></trkpt><trkpt lat="45.95847521307601" lon="9.156301005037912"><ele>252.99999999999997</ele><time>2026-05-02T14:26:56.996Z</time></trkpt><trkpt lat="45.95848292533438" lon="9.15617453155902"><ele>253.0</ele><time>2026-05-02T14:26:58.996Z</time></trkpt><trkpt lat="45.95844319725242" lon="9.156054374604597"><ele>255.4</ele><time>2026-05-02T14:27:00.996Z</time></trkpt><trkpt lat="45.95837393573247" lon="9.155976246717017"><ele>257.8</ele><time>2026-05-02T14:27:02.996Z</time></trkpt><trkpt lat="45.95828265683103" lon="9.15591348349111"><ele>260.2</ele><time>2026-05-02T14:27:04.996Z</time></trkpt><trkpt lat="45.95820055898214" lon="9.155814471732722"><ele>262.6</ele><time>2026-05-02T14:27:06.996Z</time></trkpt><trkpt lat="45.95810782052086" lon="9.155724092379131"><ele>265.0</ele><time>2026-05-02T14:27:08.996Z</time></trkpt><trkpt lat="45.958051418906265" lon="9.1556732412684"><ele>258.6</ele><time>2026-05-02T14:27:09.996Z</time></trkpt><trkpt lat="45.95797700600451" lon="9.15561768478379"><ele>252.2</ele><time>2026-05-02T14:27:10.996Z</time></trkpt><trkpt lat="45.95789940174126" lon="9.15556109899588"><ele>245.8</ele><time>2026-05-02T14:27:11.996Z</time></trkpt><trkpt lat="45.95784183124546" lon="9.155451869058648"><ele>239.4</ele><time>2026-05-02T14:27:12.996Z</time></trkpt><trkpt lat="45.95777255575719" lon="9.155339819636986"><ele>233.0</ele><time>2026-05-02T14:27:13.996Z</time></trkpt><trkpt lat="45.957704836760556" lon="9.15523274938081"><ele>233.00000000000003</ele><time>2026-05-02T14:27:14.996Z</time></trkpt><trkpt lat="45.957644006652174" lon="9.155135657996183"><ele>233.0</ele><time>2026-05-02T14:27:15.996Z</time></trkpt><trkpt lat="45.95758463580334" lon="9.155036552713005"><ele>233.0</ele><time>2026-05-02T14:27:16.996Z</time></trkpt><trkpt lat="45.95753137488435" lon="9.15493035884609"><ele>233.0</ele><time>2026-05-02T14:27:17.996Z</time></trkpt><trkpt lat="45.95748531046531" lon="9.154827036168015"><ele>233.00000000000003</ele><time>2026-05-02T14:27:18.996Z</time></trkpt><trkpt lat="45.95743970677039" lon="9.154739589749292"><ele>233.0</ele><time>2026-05-02T14:27:19.996Z</time></trkpt><trkpt lat="45.95740603545399" lon="9.15466118415566"><ele>232.0</ele><time>2026-05-02T14:27:20.996Z</time></trkpt><trkpt lat="45.95738317869611" lon="9.154562371731132"><ele>231.0</ele><time>2026-05-02T14:27:21.996Z</time></trkpt><trkpt lat="45.95736945976026" lon="9.154469933146489"><ele>230.0</ele><time>2026-05-02T14:27:22.996Z</time></trkpt><trkpt lat="45.957357354757754" lon="9.154372868627018"><ele>229.0</ele><time>2026-05-02T14:27:23.996Z</time></trkpt><trkpt lat="45.957353106757324" lon="9.154274702077632"><ele>228.0</ele><time>2026-05-02T14:27:24.997Z</time></trkpt><trkpt lat="45.95735069813173" lon="9.15418392367865"><ele>227.0</ele><time>2026-05-02T14:27:25.997Z</time></trkpt><trkpt lat="45.95732773997993" lon="9.154033824539301"><ele>226.0</ele><time>2026-05-02T14:27:27.997Z</time></trkpt><trkpt lat="45.95729930534934" lon="9.153915372702507"><ele>228.99999999999997</ele><time>2026-05-02T14:27:29.997Z</time></trkpt><trkpt lat="45.957261464598226" lon="9.153804240857104"><ele>232.0</ele><time>2026-05-02T14:27:31.997Z</time></trkpt><trkpt lat="45.95723044022722" lon="9.153683754293851"><ele>235.0</ele><time>2026-05-02T14:27:33.997Z</time></trkpt><trkpt lat="45.95720840778833" lon="9.153576017562052"><ele>238.0</ele><time>2026-05-02T14:27:36.997Z</time></trkpt><trkpt lat="45.957170839978" lon="9.153481208094338"><ele>240.99999999999997</ele><time>2026-05-02T14:27:39.997Z</time></trkpt><trkpt lat="45.95713661855591" lon="9.153400981097821"><ele>244.0</ele><time>2026-05-02T14:27:41.997Z</time></trkpt><trkpt lat="45.957105998968984" lon="9.153317354710367"><ele>243.99999999999997</ele><time>2026-05-02T14:27:43.997Z</time></trkpt><trkpt lat="45.957067913241374" lon="9.153215774354694"><ele>244.0</ele><time>2026-05-02T14:27:46.997Z</time></trkpt><trkpt lat="45.957034198525236" lon="9.153134708217664"><ele>244.0</ele><time>2026-05-02T14:27:48.997Z</time></trkpt><trkpt lat="45.95701182394666" lon="9.153005348585557"><ele>244.0</ele><time>2026-05-02T14:27:50.997Z</time></trkpt><trkpt lat="45.95698889667456" lon="9.15288478187639"><ele>243.99999999999997</ele><time>2026-05-02T14:27:52.997Z</time></trkpt><trkpt lat="45.95693614663909" lon="9.152754793373882"><ele>244.0</ele><time>2026-05-02T14:27:54.997Z</time></trkpt><trkpt lat="45.95687663287927" lon="9.152609647760794"><ele>241.99999999999997</ele><time>2026-05-02T14:27:56.997Z</time></trkpt><trkpt lat="45.95681789952031" lon="9.152449868090653"><ele>240.0</ele><time>2026-05-02T14:27:58.997Z</time></trkpt><trkpt lat="45.956789202242184" lon="9.152368967951029"><ele>238.0</ele><time>2026-05-02T14:27:59.997Z</time></trkpt><trkpt lat="45.95675348495533" lon="9.152282946433624"><ele>236.0</ele><time>2026-05-02T14:28:00.997Z</time></trkpt><trkpt lat="45.95671677514632" lon="9.152204411999328"><ele>233.99999999999997</ele><time>2026-05-02T14:28:01.997Z</time></trkpt><trkpt lat="45.956670375581105" lon="9.152122108752996"><ele>232.0</ele><time>2026-05-02T14:28:02.997Z</time></trkpt><trkpt lat="45.956638320553196" lon="9.15202834536721"><ele>231.99999999999997</ele><time>2026-05-02T14:28:03.997Z</time></trkpt><trkpt lat="45.956602477949765" lon="9.151945590045909"><ele>232.0</ele><time>2026-05-02T14:28:04.997Z</time></trkpt><trkpt lat="45.95656644471045" lon="9.151854302506573"><ele>232.0</ele><time>2026-05-02T14:28:05.997Z</time></trkpt><trkpt lat="45.956530176866536" lon="9.15176776428372"><ele>232.0</ele><time>2026-05-02T14:28:06.997Z</time></trkpt><trkpt lat="45.95649259035345" lon="9.151676949105449"><ele>231.99999999999997</ele><time>2026-05-02T14:28:07.997Z</time></trkpt><trkpt lat="45.9564520448337" lon="9.151576359303581"><ele>232.0</ele><time>2026-05-02T14:28:08.997Z</time></trkpt><trkpt lat="45.956394561597016" lon="9.151486811839149"><ele>237.6</ele><time>2026-05-02T14:28:09.997Z</time></trkpt><trkpt lat="45.95634500462011" lon="9.151379591623536"><ele>243.2</ele><time>2026-05-02T14:28:10.997Z</time></trkpt><trkpt lat="45.95628451963021" lon="9.151264244581988"><ele>248.8</ele><time>2026-05-02T14:28:11.997Z</time></trkpt><trkpt lat="45.95622512655355" lon="9.151138119800201"><ele>254.4</ele><time>2026-05-02T14:28:12.997Z</time></trkpt><trkpt lat="45.956159180119414" lon="9.151005972183766"><ele>260.0</ele><time>2026-05-02T14:28:13.997Z</time></trkpt><trkpt lat="45.956096916977906" lon="9.150867050882395"><ele>260.0</ele><time>2026-05-02T14:28:14.997Z</time></trkpt><trkpt lat="45.95602811277243" lon="9.150730356821835"><ele>260.0</ele><time>2026-05-02T14:28:15.997Z</time></trkpt><trkpt lat="45.955956637570594" lon="9.150594778764212"><ele>260.0</ele><time>2026-05-02T14:28:16.995Z</time></trkpt><trkpt lat="45.9558858158065" lon="9.150458610449224"><ele>260.0</ele><time>2026-05-02T14:28:17.995Z</time></trkpt><trkpt lat="45.95581892516681" lon="9.150321078593507"><ele>260.25</ele><time>2026-05-02T14:28:18.995Z</time></trkpt><trkpt lat="45.95575676549012" lon="9.15017296167058"><ele>260.5</ele><time>2026-05-02T14:28:19.995Z</time></trkpt><trkpt lat="45.95568503896783" lon="9.150037304677028"><ele>260.75</ele><time>2026-05-02T14:28:20.995Z</time></trkpt><trkpt lat="45.95561016665242" lon="9.149910426761942"><ele>261.0</ele><time>2026-05-02T14:28:21.995Z</time></trkpt><trkpt lat="45.95553902435104" lon="9.149763295363197"><ele>261.0</ele><time>2026-05-02T14:28:22.995Z</time></trkpt><trkpt lat="45.955472682348365" lon="9.149640369907717"><ele>261.0</ele><time>2026-05-02T14:28:23.994Z</time></trkpt><trkpt lat="45.95542800520037" lon="9.149496954004979"><ele>261.0</ele><time>2026-05-02T14:28:24.995Z</time></trkpt><trkpt lat="45.95537892832756" lon="9.14933355043775"><ele>261.0</ele><time>2026-05-02T14:28:25.995Z</time></trkpt><trkpt lat="45.95534513581214" lon="9.14916830009286"><ele>266.6</ele><time>2026-05-02T14:28:26.995Z</time></trkpt><trkpt lat="45.95531094146797" lon="9.149004638676011"><ele>272.20000000000005</ele><time>2026-05-02T14:28:27.995Z</time></trkpt><trkpt lat="45.9552628270004" lon="9.148848735423543"><ele>277.79999999999995</ele><time>2026-05-02T14:28:28.995Z</time></trkpt><trkpt lat="45.955222256102" lon="9.14870926844668"><ele>283.4</ele><time>2026-05-02T14:28:29.995Z</time></trkpt><trkpt lat="45.955174857577035" lon="9.148580285569663"><ele>289.0</ele><time>2026-05-02T14:28:30.995Z</time></trkpt><trkpt lat="45.95514280498225" lon="9.148456494965284"><ele>289.0</ele><time>2026-05-02T14:28:31.995Z</time></trkpt><trkpt lat="45.95510283377924" lon="9.148339187470228"><ele>289.0</ele><time>2026-05-02T14:28:32.995Z</time></trkpt><trkpt lat="45.95506624423601" lon="9.148232024081098"><ele>289.0</ele><time>2026-05-02T14:28:33.995Z</time></trkpt><trkpt lat="45.95502998899706" lon="9.1481337231001"><ele>289.0</ele><time>2026-05-02T14:28:34.995Z</time></trkpt><trkpt lat="45.95500376586262" lon="9.148046865302769"><ele>289.0</ele><time>2026-05-02T14:28:35.995Z</time></trkpt><trkpt lat="45.95497145790763" lon="9.147950117704774"><ele>289.0</ele><time>2026-05-02T14:28:36.995Z</time></trkpt><trkpt lat="45.954930146293144" lon="9.147852787279227"><ele>286.5</ele><time>2026-05-02T14:28:37.995Z</time></trkpt><trkpt lat="45.9548809318669" lon="9.147765521424766"><ele>284.0</ele><time>2026-05-02T14:28:38.995Z</time></trkpt><trkpt lat="45.954835298526305" lon="9.147672426495692"><ele>281.5</ele><time>2026-05-02T14:28:39.995Z</time></trkpt><trkpt lat="45.95479237750065" lon="9.147578685377635"><ele>279.0</ele><time>2026-05-02T14:28:40.995Z</time></trkpt><trkpt lat="45.95473943410951" lon="9.14747983899941"><ele>276.5</ele><time>2026-05-02T14:28:41.995Z</time></trkpt><trkpt lat="45.95469239044333" lon="9.147365703500538"><ele>274.0</ele><time>2026-05-02T14:28:42.995Z</time></trkpt><trkpt lat="45.95463655533377" lon="9.147247106926825"><ele>274.0</ele><time>2026-05-02T14:28:43.995Z</time></trkpt><trkpt lat="45.95459102988993" lon="9.14712300674382"><ele>274.0</ele><time>2026-05-02T14:28:44.995Z</time></trkpt><trkpt lat="45.954559896329286" lon="9.146995776608978"><ele>274.0</ele><time>2026-05-02T14:28:45.995Z</time></trkpt><trkpt lat="45.95451755190812" lon="9.14687736278445"><ele>274.0</ele><time>2026-05-02T14:28:46.995Z</time></trkpt><trkpt lat="45.95448379116675" lon="9.146765087760617"><ele>274.0</ele><time>2026-05-02T14:28:47.995Z</time></trkpt><trkpt lat="45.95444588850713" lon="9.146656989242711"><ele>274.00000000000006</ele><time>2026-05-02T14:28:48.995Z</time></trkpt><trkpt lat="45.954406563290966" lon="9.146556886196425"><ele>274.0</ele><time>2026-05-02T14:28:49.995Z</time></trkpt><trkpt lat="45.95437115579455" lon="9.146460953901684"><ele>274.0</ele><time>2026-05-02T14:28:50.995Z</time></trkpt><trkpt lat="45.95433859544975" lon="9.146382803791942"><ele>274.0</ele><time>2026-05-02T14:28:51.995Z</time></trkpt><trkpt lat="45.954297581718656" lon="9.146304089799996"><ele>274.0</ele><time>2026-05-02T14:28:52.995Z</time></trkpt><trkpt lat="45.95426035789117" lon="9.146225325185181"><ele>274.00000000000006</ele><time>2026-05-02T14:28:53.995Z</time></trkpt><trkpt lat="45.95424561240217" lon="9.146133302189632"><ele>274.0</ele><time>2026-05-02T14:28:54.995Z</time></trkpt><trkpt lat="45.95420418429797" lon="9.146057457581074"><ele>274.0</ele><time>2026-05-02T14:28:55.995Z</time></trkpt><trkpt lat="45.95415906812736" lon="9.145986446458588"><ele>274.0</ele><time>2026-05-02T14:28:56.995Z</time></trkpt><trkpt lat="45.954128545684526" lon="9.145893639710472"><ele>274.0</ele><time>2026-05-02T14:28:57.995Z</time></trkpt><trkpt lat="45.9540854020959" lon="9.145816223397048"><ele>274.0</ele><time>2026-05-02T14:28:58.995Z</time></trkpt><trkpt lat="45.954060764808176" lon="9.145731764454748"><ele>274.0</ele><time>2026-05-02T14:28:59.995Z</time></trkpt><trkpt lat="45.95399429350632" lon="9.145586128742242"><ele>274.0</ele><time>2026-05-02T14:29:01.995Z</time></trkpt><trkpt lat="45.953954144629414" lon="9.145512214855948"><ele>274.00000000000006</ele><time>2026-05-02T14:29:02.995Z</time></trkpt><trkpt lat="45.953927358961856" lon="9.145417266711517"><ele>274.0</ele><time>2026-05-02T14:29:03.995Z</time></trkpt><trkpt lat="45.9538865139301" lon="9.145333789323653"><ele>274.0</ele><time>2026-05-02T14:29:04.995Z</time></trkpt><trkpt lat="45.95384178265764" lon="9.145247258992638"><ele>274.0</ele><time>2026-05-02T14:29:05.995Z</time></trkpt><trkpt lat="45.95379656414286" lon="9.145160836448316"><ele>274.0</ele><time>2026-05-02T14:29:06.995Z</time></trkpt><trkpt lat="45.95374853784108" lon="9.145073436171712"><ele>274.00000000000006</ele><time>2026-05-02T14:29:07.995Z</time></trkpt><trkpt lat="45.95369949140739" lon="9.144984179496475"><ele>274.0</ele><time>2026-05-02T14:29:08.995Z</time></trkpt><trkpt lat="45.95365240760306" lon="9.144898494259705"><ele>280.4</ele><time>2026-05-02T14:29:09.995Z</time></trkpt><trkpt lat="45.95359304409287" lon="9.144819724801177"><ele>286.79999999999995</ele><time>2026-05-02T14:29:10.995Z</time></trkpt><trkpt lat="45.953558913123494" lon="9.144707682180819"><ele>293.20000000000005</ele><time>2026-05-02T14:29:11.996Z</time></trkpt><trkpt lat="45.953513289494985" lon="9.144596519325734"><ele>299.6</ele><time>2026-05-02T14:29:12.996Z</time></trkpt><trkpt lat="45.95345801176295" lon="9.144481460760167"><ele>306.0</ele><time>2026-05-02T14:29:13.996Z</time></trkpt><trkpt lat="45.95339904580464" lon="9.144367443310516"><ele>297.0</ele><time>2026-05-02T14:29:14.996Z</time></trkpt><trkpt lat="45.95333072010882" lon="9.144241094370473"><ele>288.0</ele><time>2026-05-02T14:29:15.996Z</time></trkpt><trkpt lat="45.95326378988192" lon="9.144107248262355"><ele>279.0</ele><time>2026-05-02T14:29:16.996Z</time></trkpt><trkpt lat="45.953199978541015" lon="9.143974494156184"><ele>270.0</ele><time>2026-05-02T14:29:17.996Z</time></trkpt><trkpt lat="45.953139714390616" lon="9.143834509594992"><ele>270.0</ele><time>2026-05-02T14:29:18.996Z</time></trkpt><trkpt lat="45.953071759306695" lon="9.143698123628397"><ele>270.0</ele><time>2026-05-02T14:29:19.996Z</time></trkpt><trkpt lat="45.95300700176139" lon="9.14356404052614"><ele>270.0</ele><time>2026-05-02T14:29:20.996Z</time></trkpt><trkpt lat="45.95294573328302" lon="9.143421616746737"><ele>270.0</ele><time>2026-05-02T14:29:21.996Z</time></trkpt><trkpt lat="45.952891988896674" lon="9.14327470357104"><ele>277.4</ele><time>2026-05-02T14:29:22.996Z</time></trkpt><trkpt lat="45.95284247765097" lon="9.143141902794326"><ele>284.8</ele><time>2026-05-02T14:29:23.996Z</time></trkpt><trkpt lat="45.952795432242524" lon="9.143013464379205"><ele>292.2</ele><time>2026-05-02T14:29:24.996Z</time></trkpt><trkpt lat="45.95274502701483" lon="9.14289552009516"><ele>299.6</ele><time>2026-05-02T14:29:25.996Z</time></trkpt><trkpt lat="45.95269540886067" lon="9.14278255578774"><ele>307.0</ele><time>2026-05-02T14:29:26.996Z</time></trkpt><trkpt lat="45.95264136187731" lon="9.142674865477419"><ele>307.0</ele><time>2026-05-02T14:29:27.996Z</time></trkpt><trkpt lat="45.95258974872884" lon="9.142559095213649"><ele>307.0</ele><time>2026-05-02T14:29:28.996Z</time></trkpt><trkpt lat="45.95253611612777" lon="9.142432403622573"><ele>307.0</ele><time>2026-05-02T14:29:29.996Z</time></trkpt><trkpt lat="45.95248342198913" lon="9.142295190449639"><ele>307.0</ele><time>2026-05-02T14:29:30.996Z</time></trkpt><trkpt lat="45.95242741825343" lon="9.14215936715831"><ele>307.0</ele><time>2026-05-02T14:29:31.996Z</time></trkpt><trkpt lat="45.95236691008879" lon="9.142018500672268"><ele>308.8</ele><time>2026-05-02T14:29:32.996Z</time></trkpt><trkpt lat="45.95230958091208" lon="9.141879012612977"><ele>310.6</ele><time>2026-05-02T14:29:33.996Z</time></trkpt><trkpt lat="45.9522475422556" lon="9.141743227967492"><ele>312.40000000000003</ele><time>2026-05-02T14:29:34.996Z</time></trkpt><trkpt lat="45.952191166063784" lon="9.141603310945559"><ele>314.2</ele><time>2026-05-02T14:29:35.996Z</time></trkpt><trkpt lat="45.952132652565005" lon="9.141474123263864"><ele>316.0</ele><time>2026-05-02T14:29:36.996Z</time></trkpt><trkpt lat="45.95207622671212" lon="9.141343709292753"><ele>316.0</ele><time>2026-05-02T14:29:37.996Z</time></trkpt><trkpt lat="45.95201639646113" lon="9.141212690814413"><ele>316.0</ele><time>2026-05-02T14:29:38.996Z</time></trkpt><trkpt lat="45.951947269161266" lon="9.141094032379998"><ele>316.0</ele><time>2026-05-02T14:29:39.996Z</time></trkpt><trkpt lat="45.95187799541059" lon="9.140990577099407"><ele>316.0</ele><time>2026-05-02T14:29:40.996Z</time></trkpt><trkpt lat="45.95181816287326" lon="9.1408895454599"><ele>316.0</ele><time>2026-05-02T14:29:41.996Z</time></trkpt><trkpt lat="45.951757889597786" lon="9.140786385926946"><ele>309.40000000000003</ele><time>2026-05-02T14:29:42.996Z</time></trkpt><trkpt lat="45.95169501394782" lon="9.140684035197614"><ele>302.8</ele><time>2026-05-02T14:29:43.996Z</time></trkpt><trkpt lat="45.951623824841235" lon="9.140576467110217"><ele>296.20000000000005</ele><time>2026-05-02T14:29:44.996Z</time></trkpt><trkpt lat="45.95155787579183" lon="9.140466377961259"><ele>289.6</ele><time>2026-05-02T14:29:45.996Z</time></trkpt><trkpt lat="45.95149042599783" lon="9.140359404090876"><ele>283.0</ele><time>2026-05-02T14:29:46.996Z</time></trkpt><trkpt lat="45.95142316258088" lon="9.140254950468625"><ele>283.0</ele><time>2026-05-02T14:29:47.996Z</time></trkpt><trkpt lat="45.951352785502046" lon="9.140149600040663"><ele>283.0</ele><time>2026-05-02T14:29:48.996Z</time></trkpt><trkpt lat="45.95128162962529" lon="9.140041763008918"><ele>283.0</ele><time>2026-05-02T14:29:49.996Z</time></trkpt><trkpt lat="45.951209309411325" lon="9.139933250802203"><ele>283.0</ele><time>2026-05-02T14:29:50.996Z</time></trkpt><trkpt lat="45.951140644750154" lon="9.139808103589136"><ele>283.0</ele><time>2026-05-02T14:29:51.996Z</time></trkpt><trkpt lat="45.951062953923056" lon="9.139691744813971"><ele>275.2</ele><time>2026-05-02T14:29:52.996Z</time></trkpt><trkpt lat="45.95100022509098" lon="9.139570240609814"><ele>267.4</ele><time>2026-05-02T14:29:53.996Z</time></trkpt><trkpt lat="45.95093086850387" lon="9.13945547983662"><ele>259.59999999999997</ele><time>2026-05-02T14:29:54.996Z</time></trkpt><trkpt lat="45.95086147038423" lon="9.13933972547395"><ele>251.79999999999998</ele><time>2026-05-02T14:29:55.996Z</time></trkpt><trkpt lat="45.95079495212641" lon="9.13922847474267"><ele>244.0</ele><time>2026-05-02T14:29:56.996Z</time></trkpt><trkpt lat="45.950735681136855" lon="9.139127419367172"><ele>256.59999999999997</ele><time>2026-05-02T14:29:57.996Z</time></trkpt><trkpt lat="45.950676569714204" lon="9.139030088292996"><ele>269.2</ele><time>2026-05-02T14:29:58.996Z</time></trkpt><trkpt lat="45.95061575336609" lon="9.138929987136589"><ele>281.79999999999995</ele><time>2026-05-02T14:29:59.996Z</time></trkpt><trkpt lat="45.95055144829389" lon="9.138826914519607"><ele>294.4</ele><time>2026-05-02T14:30:00.996Z</time></trkpt><trkpt lat="45.950486019303604" lon="9.13872347500081"><ele>307.0</ele><time>2026-05-02T14:30:01.996Z</time></trkpt><trkpt lat="45.950414991930586" lon="9.138624062008041"><ele>307.0</ele><time>2026-05-02T14:30:02.996Z</time></trkpt><trkpt lat="45.95034321815882" lon="9.138520466463806"><ele>307.0</ele><time>2026-05-02T14:30:03.996Z</time></trkpt><trkpt lat="45.950269237687856" lon="9.138415220015006"><ele>307.0</ele><time>2026-05-02T14:30:04.996Z</time></trkpt><trkpt lat="45.95020522325339" lon="9.13829020761668"><ele>307.0</ele><time>2026-05-02T14:30:05.996Z</time></trkpt><trkpt lat="45.95012883517675" lon="9.138179095841888"><ele>307.0</ele><time>2026-05-02T14:30:06.996Z</time></trkpt><trkpt lat="45.95005152054356" lon="9.13806483043577"><ele>301.0</ele><time>2026-05-02T14:30:07.996Z</time></trkpt><trkpt lat="45.949976582679135" lon="9.137943878937504"><ele>295.0</ele><time>2026-05-02T14:30:08.996Z</time></trkpt><trkpt lat="45.9498989981204" lon="9.137829520408344"><ele>289.0</ele><time>2026-05-02T14:30:09.996Z</time></trkpt><trkpt lat="45.949823463439245" lon="9.137722382707802"><ele>283.0</ele><time>2026-05-02T14:30:10.996Z</time></trkpt><trkpt lat="45.94975252967689" lon="9.137617984795074"><ele>277.0</ele><time>2026-05-02T14:30:11.996Z</time></trkpt><trkpt lat="45.94968162018619" lon="9.13751535814142"><ele>277.0</ele><time>2026-05-02T14:30:12.996Z</time></trkpt><trkpt lat="45.94959889523932" lon="9.137422245430647"><ele>277.0</ele><time>2026-05-02T14:30:13.996Z</time></trkpt><trkpt lat="45.94952056908195" lon="9.137307513436255"><ele>277.0</ele><time>2026-05-02T14:30:14.997Z</time></trkpt><trkpt lat="45.9494396652954" lon="9.137191869416565"><ele>277.0</ele><time>2026-05-02T14:30:15.997Z</time></trkpt><trkpt lat="45.949359562881284" lon="9.13707242144203"><ele>277.0</ele><time>2026-05-02T14:30:16.997Z</time></trkpt><trkpt lat="45.949282163982296" lon="9.136955106429141"><ele>276.0</ele><time>2026-05-02T14:30:17.997Z</time></trkpt><trkpt lat="45.949210468005326" lon="9.136832816063102"><ele>275.0</ele><time>2026-05-02T14:30:18.997Z</time></trkpt><trkpt lat="45.949145416629875" lon="9.136702857832276"><ele>274.0</ele><time>2026-05-02T14:30:19.997Z</time></trkpt><trkpt lat="45.94908291505178" lon="9.136568648085747"><ele>273.0</ele><time>2026-05-02T14:30:20.997Z</time></trkpt><trkpt lat="45.94902226294476" lon="9.136428193591023"><ele>273.0</ele><time>2026-05-02T14:30:21.997Z</time></trkpt><trkpt lat="45.94896508358647" lon="9.136276171741716"><ele>273.0</ele><time>2026-05-02T14:30:22.994Z</time></trkpt><trkpt lat="45.948907905274886" lon="9.136121490498127"><ele>273.0</ele><time>2026-05-02T14:30:23.993Z</time></trkpt><trkpt lat="45.94885017000007" lon="9.135962141207552"><ele>273.0</ele><time>2026-05-02T14:30:24.993Z</time></trkpt><trkpt lat="45.94877972241858" lon="9.135804631346838"><ele>278.0</ele><time>2026-05-02T14:30:25.994Z</time></trkpt><trkpt lat="45.94870339968796" lon="9.135645035355628"><ele>283.0</ele><time>2026-05-02T14:30:26.994Z</time></trkpt><trkpt lat="45.9486479849843" lon="9.135438471899059"><ele>288.0</ele><time>2026-05-02T14:30:27.994Z</time></trkpt><trkpt lat="45.948569006898424" lon="9.1352711316533"><ele>293.0</ele><time>2026-05-02T14:30:28.994Z</time></trkpt><trkpt lat="45.948487142236814" lon="9.135105230670863"><ele>293.0</ele><time>2026-05-02T14:30:29.993Z</time></trkpt><trkpt lat="45.94841168091996" lon="9.13494731580327"><ele>293.0</ele><time>2026-05-02T14:30:30.993Z</time></trkpt><trkpt lat="45.948330635968745" lon="9.134789081999132"><ele>293.0</ele><time>2026-05-02T14:30:31.994Z</time></trkpt><trkpt lat="45.94824844915639" lon="9.134632896620998"><ele>293.0</ele><time>2026-05-02T14:30:32.994Z</time></trkpt><trkpt lat="45.94817220887304" lon="9.134481677087766"><ele>292.5</ele><time>2026-05-02T14:30:33.994Z</time></trkpt><trkpt lat="45.948097240438386" lon="9.13434558565339"><ele>292.0</ele><time>2026-05-02T14:30:34.993Z</time></trkpt><trkpt lat="45.94802366234786" lon="9.134212610977007"><ele>291.5</ele><time>2026-05-02T14:30:35.994Z</time></trkpt><trkpt lat="45.94795485538864" lon="9.134081098596463"><ele>291.0</ele><time>2026-05-02T14:30:36.994Z</time></trkpt><trkpt lat="45.94788688853463" lon="9.133956234520362"><ele>291.0</ele><time>2026-05-02T14:30:37.994Z</time></trkpt><trkpt lat="45.94782328632065" lon="9.133822644025692"><ele>291.0</ele><time>2026-05-02T14:30:38.994Z</time></trkpt><trkpt lat="45.94776076481739" lon="9.133677970836764"><ele>291.0</ele><time>2026-05-02T14:30:39.994Z</time></trkpt><trkpt lat="45.947686814909716" lon="9.133535114275825"><ele>291.0</ele><time>2026-05-02T14:30:40.994Z</time></trkpt><trkpt lat="45.947637073666726" lon="9.133392395781836"><ele>291.0</ele><time>2026-05-02T14:30:41.994Z</time></trkpt><trkpt lat="45.94759583427023" lon="9.133263346872717"><ele>291.0</ele><time>2026-05-02T14:30:42.994Z</time></trkpt><trkpt lat="45.94756795210609" lon="9.1331294895985"><ele>291.0</ele><time>2026-05-02T14:30:43.994Z</time></trkpt><trkpt lat="45.94754056460217" lon="9.133026711229084"><ele>291.0</ele><time>2026-05-02T14:30:44.994Z</time></trkpt><trkpt lat="45.94752108756708" lon="9.132930601439163"><ele>291.0</ele><time>2026-05-02T14:30:45.994Z</time></trkpt><trkpt lat="45.947485055298166" lon="9.132793636619079"><ele>291.0</ele><time>2026-05-02T14:30:47.994Z</time></trkpt><trkpt lat="45.947457194514485" lon="9.132670562802126"><ele>283.6666666666667</ele><time>2026-05-02T14:30:49.994Z</time></trkpt><trkpt lat="45.94742353951403" lon="9.132532396803485"><ele>276.3333333333333</ele><time>2026-05-02T14:30:51.994Z</time></trkpt><trkpt lat="45.9474043281141" lon="9.132436128994335"><ele>269.0</ele><time>2026-05-02T14:30:52.994Z</time></trkpt><trkpt lat="45.94738745460907" lon="9.132337990929434"><ele>261.66666666666663</ele><time>2026-05-02T14:30:53.994Z</time></trkpt><trkpt lat="45.94736920319966" lon="9.132230700688057"><ele>254.33333333333331</ele><time>2026-05-02T14:30:54.994Z</time></trkpt><trkpt lat="45.94734802415438" lon="9.132120190942489"><ele>247.0</ele><time>2026-05-02T14:30:55.994Z</time></trkpt><trkpt lat="45.94733005403258" lon="9.13200810868435"><ele>246.99999999999997</ele><time>2026-05-02T14:30:56.994Z</time></trkpt><trkpt lat="45.94731149301729" lon="9.131893216291399"><ele>247.0</ele><time>2026-05-02T14:30:57.994Z</time></trkpt><trkpt lat="45.947291684202106" lon="9.13178544025035"><ele>247.0</ele><time>2026-05-02T14:30:58.994Z</time></trkpt><trkpt lat="45.947272266357416" lon="9.131678363719228"><ele>247.0</ele><time>2026-05-02T14:30:59.994Z</time></trkpt><trkpt lat="45.94724763416314" lon="9.131579957253356"><ele>246.99999999999997</ele><time>2026-05-02T14:31:00.994Z</time></trkpt><trkpt lat="45.94722075837988" lon="9.131487442776486"><ele>247.0</ele><time>2026-05-02T14:31:01.994Z</time></trkpt><trkpt lat="45.94717410287188" lon="9.131334369921621"><ele>250.33333333333331</ele><time>2026-05-02T14:31:03.994Z</time></trkpt><trkpt lat="45.947131925500265" lon="9.131225792996673"><ele>253.66666666666666</ele><time>2026-05-02T14:31:05.994Z</time></trkpt><trkpt lat="45.9470814819869" lon="9.131150816409674"><ele>257.0</ele><time>2026-05-02T14:31:08.994Z</time></trkpt><trkpt lat="45.94703055908465" lon="9.131030317313165"><ele>260.3333333333333</ele><time>2026-05-02T14:31:24.994Z</time></trkpt><trkpt lat="45.94699015006914" lon="9.130960352374442"><ele>263.6666666666667</ele><time>2026-05-02T14:31:26.994Z</time></trkpt><trkpt lat="45.946925293678646" lon="9.130852186583422"><ele>267.0</ele><time>2026-05-02T14:31:28.995Z</time></trkpt><trkpt lat="45.94683638838475" lon="9.130695230238254"><ele>269.0</ele><time>2026-05-02T14:31:30.995Z</time></trkpt><trkpt lat="45.9467885765238" lon="9.130606569541916"><ele>271.0</ele><time>2026-05-02T14:31:31.995Z</time></trkpt><trkpt lat="45.94674115487477" lon="9.13052061070288"><ele>273.0</ele><time>2026-05-02T14:31:32.995Z</time></trkpt><trkpt lat="45.94669077460043" lon="9.130429374616293"><ele>275.0</ele><time>2026-05-02T14:31:33.995Z</time></trkpt><trkpt lat="45.9466424278467" lon="9.130342239426248"><ele>277.0</ele><time>2026-05-02T14:31:34.995Z</time></trkpt><trkpt lat="45.94659883379598" lon="9.13026201278188"><ele>279.0</ele><time>2026-05-02T14:31:35.995Z</time></trkpt><trkpt lat="45.94655356690271" lon="9.130181903970836"><ele>273.8333333333333</ele><time>2026-05-02T14:31:37.995Z</time></trkpt><trkpt lat="45.94648674519018" lon="9.130038543544119"><ele>268.6666666666667</ele><time>2026-05-02T14:31:45.995Z</time></trkpt><trkpt lat="45.94644465405251" lon="9.129956626770811"><ele>263.5</ele><time>2026-05-02T14:31:46.995Z</time></trkpt><trkpt lat="45.94639548715256" lon="9.12986924354274"><ele>258.33333333333337</ele><time>2026-05-02T14:31:47.995Z</time></trkpt><trkpt lat="45.946341840558304" lon="9.12978633436894"><ele>253.16666666666669</ele><time>2026-05-02T14:31:48.995Z</time></trkpt><trkpt lat="45.946293598693195" lon="9.129700267534197"><ele>248.0</ele><time>2026-05-02T14:31:49.995Z</time></trkpt><trkpt lat="45.94622750460239" lon="9.1295802013031"><ele>248.0</ele><time>2026-05-02T14:31:51.995Z</time></trkpt><trkpt lat="45.94617160746904" lon="9.129508037304893"><ele>248.0</ele><time>2026-05-02T14:31:53.995Z</time></trkpt><trkpt lat="45.9461034970839" lon="9.129442304126524"><ele>248.0</ele><time>2026-05-02T14:31:55.995Z</time></trkpt><trkpt lat="45.94603187188312" lon="9.129337179839593"><ele>248.0</ele><time>2026-05-02T14:31:57.995Z</time></trkpt><trkpt lat="45.945953892859556" lon="9.129208696817201"><ele>248.0</ele><time>2026-05-02T14:31:59.995Z</time></trkpt><trkpt lat="45.94588398008774" lon="9.129103293363276"><ele>250.33333333333334</ele><time>2026-05-02T14:32:01.995Z</time></trkpt><trkpt lat="45.94587961246884" lon="9.12900384733196"><ele>252.66666666666669</ele><time>2026-05-02T14:32:02.995Z</time></trkpt><trkpt lat="45.94583495578292" lon="9.128936775650786"><ele>255.0</ele><time>2026-05-02T14:32:04.995Z</time></trkpt><trkpt lat="45.945768666860104" lon="9.128837754072501"><ele>257.3333333333333</ele><time>2026-05-02T14:32:07.995Z</time></trkpt><trkpt lat="45.94569413142615" lon="9.128750784576765"><ele>259.66666666666663</ele><time>2026-05-02T14:32:09.995Z</time></trkpt><trkpt lat="45.94563758748697" lon="9.128681929197718"><ele>262.0</ele><time>2026-05-02T14:32:11.995Z</time></trkpt><trkpt lat="45.9455888174434" lon="9.128606000974047"><ele>255.39999999999998</ele><time>2026-05-02T14:32:14.995Z</time></trkpt><trkpt lat="45.94550015688253" lon="9.128523660704317"><ele>248.79999999999998</ele><time>2026-05-02T14:32:16.995Z</time></trkpt><trkpt lat="45.945400572771085" lon="9.128424499368933"><ele>242.2</ele><time>2026-05-02T14:32:18.995Z</time></trkpt><trkpt lat="45.94532083543489" lon="9.128355534498818"><ele>235.6</ele><time>2026-05-02T14:32:20.995Z</time></trkpt><trkpt lat="45.94525258639362" lon="9.128294748538831"><ele>229.0</ele><time>2026-05-02T14:32:22.995Z</time></trkpt><trkpt lat="45.94519383174592" lon="9.128235473041986"><ele>229.83333333333331</ele><time>2026-05-02T14:32:24.995Z</time></trkpt><trkpt lat="45.94509865650695" lon="9.128171313736965"><ele>230.66666666666666</ele><time>2026-05-02T14:32:26.995Z</time></trkpt><trkpt lat="45.94503545847591" lon="9.128130422871273"><ele>231.5</ele><time>2026-05-02T14:32:27.993Z</time></trkpt><trkpt lat="45.94493439317275" lon="9.128061464077712"><ele>232.33333333333331</ele><time>2026-05-02T14:32:29.992Z</time></trkpt><trkpt lat="45.94487686635223" lon="9.128002543357171"><ele>233.16666666666666</ele><time>2026-05-02T14:32:32.993Z</time></trkpt><trkpt lat="45.94481646561036" lon="9.127968264227334"><ele>234.0</ele><time>2026-05-02T14:32:36.993Z</time></trkpt><trkpt lat="45.944760097289894" lon="9.127915620076838"><ele>234.0</ele><time>2026-05-02T14:32:38.993Z</time></trkpt><trkpt lat="45.94469655305816" lon="9.127885710018592"><ele>234.0</ele><time>2026-05-02T14:33:01.993Z</time></trkpt><trkpt lat="45.94462784376672" lon="9.127818389748281"><ele>234.0</ele><time>2026-05-02T14:33:04.993Z</time></trkpt><trkpt lat="45.944560283120474" lon="9.12776968774202"><ele>234.0</ele><time>2026-05-02T14:33:06.993Z</time></trkpt><trkpt lat="45.94449379077424" lon="9.127720015102499"><ele>234.0</ele><time>2026-05-02T14:33:08.993Z</time></trkpt><trkpt lat="45.944423743977225" lon="9.127683821782473"><ele>234.0</ele><time>2026-05-02T14:33:10.993Z</time></trkpt><trkpt lat="45.94434082070112" lon="9.127640402069947"><ele>234.0</ele><time>2026-05-02T14:33:12.993Z</time></trkpt><trkpt lat="45.944253905091834" lon="9.127665519692263"><ele>234.0</ele><time>2026-05-02T14:33:14.993Z</time></trkpt><trkpt lat="45.9441772581419" lon="9.127741400752702"><ele>234.0</ele><time>2026-05-02T14:33:16.993Z</time></trkpt><trkpt lat="45.94411230883835" lon="9.127833831145995"><ele>234.0</ele><time>2026-05-02T14:33:19.993Z</time></trkpt><trkpt lat="45.9440570028634" lon="9.127921335441297"><ele>234.0</ele><time>2026-05-02T14:33:22.993Z</time></trkpt><trkpt lat="45.94401196675717" lon="9.127992297239103"><ele>234.0</ele><time>2026-05-02T14:33:24.993Z</time></trkpt><trkpt lat="45.94394975414947" lon="9.128092863671087"><ele>230.83333333333334</ele><time>2026-05-02T14:33:26.993Z</time></trkpt><trkpt lat="45.94388279173425" lon="9.128200833794825"><ele>227.66666666666669</ele><time>2026-05-02T14:33:28.993Z</time></trkpt><trkpt lat="45.94383058352393" lon="9.12827822937032"><ele>224.5</ele><time>2026-05-02T14:33:31.993Z</time></trkpt><trkpt lat="45.94378298095756" lon="9.128343835881234"><ele>221.33333333333334</ele><time>2026-05-02T14:33:35.993Z</time></trkpt><trkpt lat="45.94372569877473" lon="9.128406511636229"><ele>218.16666666666669</ele><time>2026-05-02T14:33:39.993Z</time></trkpt><trkpt lat="45.943659868471485" lon="9.128451369473382"><ele>215.0</ele><time>2026-05-02T14:33:44.993Z</time></trkpt><trkpt lat="45.94358508753773" lon="9.128476364208852"><ele>213.7142857142857</ele><time>2026-05-02T14:33:48.993Z</time></trkpt><trkpt lat="45.94352170886652" lon="9.128484814598602"><ele>212.42857142857144</ele><time>2026-05-02T14:33:51.994Z</time></trkpt><trkpt lat="45.94344986806555" lon="9.128472179357061"><ele>211.14285714285714</ele><time>2026-05-02T14:33:54.994Z</time></trkpt><trkpt lat="45.943385851603665" lon="9.12844733000795"><ele>209.85714285714283</ele><time>2026-05-02T14:33:57.994Z</time></trkpt><trkpt lat="45.94331444539353" lon="9.128401044600972"><ele>208.57142857142856</ele><time>2026-05-02T14:34:01.994Z</time></trkpt><trkpt lat="45.94325204119648" lon="9.128355763881938"><ele>207.28571428571428</ele><time>2026-05-02T14:34:03.994Z</time></trkpt><trkpt lat="45.94318571476609" lon="9.128311230416857"><ele>206.0</ele><time>2026-05-02T14:34:05.994Z</time></trkpt><trkpt lat="45.943113529176884" lon="9.12826594942426"><ele>207.33333333333334</ele><time>2026-05-02T14:34:08.994Z</time></trkpt><trkpt lat="45.94304278455817" lon="9.128225036950443"><ele>208.66666666666669</ele><time>2026-05-02T14:34:11.994Z</time></trkpt><trkpt lat="45.942982103906765" lon="9.12819690327554"><ele>210.0</ele><time>2026-05-02T14:34:20.994Z</time></trkpt><trkpt lat="45.942898327832786" lon="9.12816493436454"><ele>211.33333333333331</ele><time>2026-05-02T14:34:22.994Z</time></trkpt><trkpt lat="45.942823215203276" lon="9.12813974987198"><ele>212.66666666666666</ele><time>2026-05-02T14:34:24.994Z</time></trkpt><trkpt lat="45.94275299335374" lon="9.128119963637278"><ele>214.0</ele><time>2026-05-02T14:34:26.994Z</time></trkpt><trkpt lat="45.942674495417684" lon="9.128104426284102"><ele>213.99999999999997</ele><time>2026-05-02T14:34:28.994Z</time></trkpt><trkpt lat="45.942594392161396" lon="9.128117703759637"><ele>214.0</ele><time>2026-05-02T14:34:30.994Z</time></trkpt><trkpt lat="45.94251599516965" lon="9.128089412932798"><ele>214.0</ele><time>2026-05-02T14:34:32.994Z</time></trkpt><trkpt lat="45.94239945338199" lon="9.128085082863851"><ele>214.0</ele><time>2026-05-02T14:34:34.992Z</time></trkpt><trkpt lat="45.94232467585384" lon="9.128089350732246"><ele>213.99999999999997</ele><time>2026-05-02T14:34:35.992Z</time></trkpt><trkpt lat="45.94223700744115" lon="9.128093556150594"><ele>214.0</ele><time>2026-05-02T14:34:36.992Z</time></trkpt><trkpt lat="45.94214753081454" lon="9.128104788656954"><ele>215.33333333333331</ele><time>2026-05-02T14:34:37.991Z</time></trkpt><trkpt lat="45.942057741133965" lon="9.128112675385566"><ele>216.66666666666666</ele><time>2026-05-02T14:34:38.991Z</time></trkpt><trkpt lat="45.94196633275977" lon="9.128114863434206"><ele>218.0</ele><time>2026-05-02T14:34:39.992Z</time></trkpt><trkpt lat="45.94187922153228" lon="9.128111691400123"><ele>219.33333333333331</ele><time>2026-05-02T14:34:40.991Z</time></trkpt><trkpt lat="45.94179473268675" lon="9.128098533572272"><ele>220.66666666666666</ele><time>2026-05-02T14:34:41.991Z</time></trkpt><trkpt lat="45.94171016384362" lon="9.128085432174016"><ele>222.0</ele><time>2026-05-02T14:34:42.992Z</time></trkpt><trkpt lat="45.94161909167869" lon="9.128075532104845"><ele>224.39999999999998</ele><time>2026-05-02T14:34:43.992Z</time></trkpt><trkpt lat="45.94153520525601" lon="9.128065294849733"><ele>226.79999999999998</ele><time>2026-05-02T14:34:44.992Z</time></trkpt><trkpt lat="45.94144241404403" lon="9.128064428731403"><ele>229.2</ele><time>2026-05-02T14:34:45.992Z</time></trkpt><trkpt lat="45.94134900518724" lon="9.1280653022719"><ele>231.6</ele><time>2026-05-02T14:34:46.991Z</time></trkpt><trkpt lat="45.94125059650255" lon="9.12808660707911"><ele>234.0</ele><time>2026-05-02T14:34:47.991Z</time></trkpt><trkpt lat="45.94115544325879" lon="9.128109980966338"><ele>234.0</ele><time>2026-05-02T14:34:48.991Z</time></trkpt><trkpt lat="45.94106741283978" lon="9.128137563963309"><ele>234.0</ele><time>2026-05-02T14:34:49.991Z</time></trkpt><trkpt lat="45.94098467965346" lon="9.128156825099726"><ele>234.0</ele><time>2026-05-02T14:34:50.991Z</time></trkpt><trkpt lat="45.94089696116483" lon="9.12817545040221"><ele>234.0</ele><time>2026-05-02T14:34:51.991Z</time></trkpt><trkpt lat="45.94081387677568" lon="9.128196518383927"><ele>234.0</ele><time>2026-05-02T14:34:52.991Z</time></trkpt><trkpt lat="45.94072710193902" lon="9.128212510660626"><ele>234.0</ele><time>2026-05-02T14:34:53.991Z</time></trkpt><trkpt lat="45.940637315893824" lon="9.128223683148898"><ele>236.0</ele><time>2026-05-02T14:34:54.991Z</time></trkpt><trkpt lat="45.940519281980144" lon="9.128235273534273"><ele>237.99999999999997</ele><time>2026-05-02T14:34:55.991Z</time></trkpt><trkpt lat="45.940429430590186" lon="9.128161076024716"><ele>239.99999999999997</ele><time>2026-05-02T14:34:56.991Z</time></trkpt><trkpt lat="45.940328044792224" lon="9.128147323764168"><ele>242.0</ele><time>2026-05-02T14:34:57.991Z</time></trkpt><trkpt lat="45.94022589612195" lon="9.128139558420187"><ele>244.0</ele><time>2026-05-02T14:34:58.991Z</time></trkpt><trkpt lat="45.940135274308346" lon="9.128135931372025"><ele>244.83333333333331</ele><time>2026-05-02T14:34:59.991Z</time></trkpt><trkpt lat="45.94004877166111" lon="9.128133241259185"><ele>245.66666666666666</ele><time>2026-05-02T14:35:00.991Z</time></trkpt><trkpt lat="45.9399658266615" lon="9.128127093482343"><ele>246.5</ele><time>2026-05-02T14:35:01.991Z</time></trkpt><trkpt lat="45.93988630296257" lon="9.128097372890002"><ele>247.33333333333331</ele><time>2026-05-02T14:35:02.991Z</time></trkpt><trkpt lat="45.93980695316528" lon="9.128039508286005"><ele>248.16666666666666</ele><time>2026-05-02T14:35:03.991Z</time></trkpt><trkpt lat="45.93972842463258" lon="9.127968494571867"><ele>249.0</ele><time>2026-05-02T14:35:04.991Z</time></trkpt><trkpt lat="45.939648562544214" lon="9.127894744652046"><ele>249.0</ele><time>2026-05-02T14:35:05.991Z</time></trkpt><trkpt lat="45.93955624408821" lon="9.127850085295503"><ele>248.99999999999997</ele><time>2026-05-02T14:35:06.991Z</time></trkpt><trkpt lat="45.939457073646686" lon="9.127804464332446"><ele>248.99999999999997</ele><time>2026-05-02T14:35:07.991Z</time></trkpt><trkpt lat="45.939352541776415" lon="9.127807933361666"><ele>249.0</ele><time>2026-05-02T14:35:08.991Z</time></trkpt><trkpt lat="45.939238831715485" lon="9.12781627666248"><ele>249.0</ele><time>2026-05-02T14:35:09.991Z</time></trkpt><trkpt lat="45.939117688519275" lon="9.127840815769982"><ele>251.25</ele><time>2026-05-02T14:35:10.991Z</time></trkpt><trkpt lat="45.93899013154853" lon="9.127855317605336"><ele>253.5</ele><time>2026-05-02T14:35:11.991Z</time></trkpt><trkpt lat="45.938867056350674" lon="9.127865201468989"><ele>255.75</ele><time>2026-05-02T14:35:12.991Z</time></trkpt><trkpt lat="45.93874313776441" lon="9.127876107787564"><ele>258.0</ele><time>2026-05-02T14:35:13.991Z</time></trkpt><trkpt lat="45.938628067106045" lon="9.12789953561189"><ele>258.0</ele><time>2026-05-02T14:35:14.991Z</time></trkpt><trkpt lat="45.938503798780474" lon="9.127927704055185"><ele>258.0</ele><time>2026-05-02T14:35:15.991Z</time></trkpt><trkpt lat="45.93838016255802" lon="9.127944832921742"><ele>258.0</ele><time>2026-05-02T14:35:16.991Z</time></trkpt><trkpt lat="45.93825565315846" lon="9.127962374709298"><ele>258.0</ele><time>2026-05-02T14:35:17.992Z</time></trkpt><trkpt lat="45.93813088241884" lon="9.12798222665527"><ele>256.25</ele><time>2026-05-02T14:35:18.992Z</time></trkpt><trkpt lat="45.93801177648665" lon="9.128008350985189"><ele>254.5</ele><time>2026-05-02T14:35:19.992Z</time></trkpt><trkpt lat="45.937892139151046" lon="9.128025531496023"><ele>252.75</ele><time>2026-05-02T14:35:20.992Z</time></trkpt><trkpt lat="45.93777427526318" lon="9.128049313968617"><ele>251.0</ele><time>2026-05-02T14:35:21.992Z</time></trkpt><trkpt lat="45.93765605465329" lon="9.128086007290394"><ele>256.2</ele><time>2026-05-02T14:35:22.992Z</time></trkpt><trkpt lat="45.93753950449363" lon="9.128115833088067"><ele>261.40000000000003</ele><time>2026-05-02T14:35:23.992Z</time></trkpt><trkpt lat="45.93743138231955" lon="9.12815098409855"><ele>266.6</ele><time>2026-05-02T14:35:24.992Z</time></trkpt><trkpt lat="45.93733195847689" lon="9.1281856602941"><ele>271.8</ele><time>2026-05-02T14:35:25.992Z</time></trkpt><trkpt lat="45.9372385578699" lon="9.12822762693708"><ele>277.0</ele><time>2026-05-02T14:35:26.992Z</time></trkpt><trkpt lat="45.937133305380904" lon="9.128270557660734"><ele>266.5</ele><time>2026-05-02T14:35:27.992Z</time></trkpt><trkpt lat="45.93702613867986" lon="9.12831294561233"><ele>256.0</ele><time>2026-05-02T14:35:28.992Z</time></trkpt><trkpt lat="45.93691060794142" lon="9.128356689741983"><ele>245.5</ele><time>2026-05-02T14:35:29.992Z</time></trkpt><trkpt lat="45.93679689787089" lon="9.1283805360005"><ele>235.0</ele><time>2026-05-02T14:35:30.992Z</time></trkpt><trkpt lat="45.9366829619982" lon="9.128390402243088"><ele>235.0</ele><time>2026-05-02T14:35:31.992Z</time></trkpt><trkpt lat="45.93656903403403" lon="9.128386531661455"><ele>235.0</ele><time>2026-05-02T14:35:32.992Z</time></trkpt><trkpt lat="45.93645820378428" lon="9.128368323347024"><ele>235.0</ele><time>2026-05-02T14:35:33.992Z</time></trkpt><trkpt lat="45.936348971400584" lon="9.12833862620321"><ele>235.0</ele><time>2026-05-02T14:35:34.992Z</time></trkpt><trkpt lat="45.93623379247887" lon="9.128330619560968"><ele>235.0</ele><time>2026-05-02T14:35:35.992Z</time></trkpt><trkpt lat="45.93612834070157" lon="9.128299524639635"><ele>235.0</ele><time>2026-05-02T14:35:36.992Z</time></trkpt><trkpt lat="45.936019371047095" lon="9.128278800628877"><ele>235.0</ele><time>2026-05-02T14:35:37.992Z</time></trkpt><trkpt lat="45.93590499388661" lon="9.12826360660406"><ele>235.0</ele><time>2026-05-02T14:35:38.992Z</time></trkpt><trkpt lat="45.935787235165215" lon="9.128249375057683"><ele>248.0</ele><time>2026-05-02T14:35:39.992Z</time></trkpt><trkpt lat="45.93566927787338" lon="9.12822597412434"><ele>261.0</ele><time>2026-05-02T14:35:40.992Z</time></trkpt><trkpt lat="45.93555262103347" lon="9.128202035123115"><ele>274.0</ele><time>2026-05-02T14:35:41.992Z</time></trkpt><trkpt lat="45.935425830959474" lon="9.128184852964665"><ele>287.0</ele><time>2026-05-02T14:35:42.992Z</time></trkpt><trkpt lat="45.935301362940486" lon="9.128159146974506"><ele>287.0</ele><time>2026-05-02T14:35:43.992Z</time></trkpt><trkpt lat="45.93517941393297" lon="9.128128076077399"><ele>287.0</ele><time>2026-05-02T14:35:44.992Z</time></trkpt><trkpt lat="45.93505383619572" lon="9.128126691518549"><ele>287.0</ele><time>2026-05-02T14:35:45.992Z</time></trkpt><trkpt lat="45.934944401327996" lon="9.128055376126538"><ele>287.0</ele><time>2026-05-02T14:35:46.992Z</time></trkpt><trkpt lat="45.9348182048419" lon="9.128049370401516"><ele>284.5</ele><time>2026-05-02T14:35:47.992Z</time></trkpt><trkpt lat="45.93468618233871" lon="9.128064279573486"><ele>282.0</ele><time>2026-05-02T14:35:48.992Z</time></trkpt><trkpt lat="45.93453394898701" lon="9.128097687206475"><ele>279.5</ele><time>2026-05-02T14:35:49.992Z</time></trkpt><trkpt lat="45.93438951839904" lon="9.128127359271954"><ele>277.0</ele><time>2026-05-02T14:35:50.992Z</time></trkpt><trkpt lat="45.93425370184696" lon="9.128155428376672"><ele>276.5</ele><time>2026-05-02T14:35:51.992Z</time></trkpt><trkpt lat="45.93412804038372" lon="9.128196130447526"><ele>276.0</ele><time>2026-05-02T14:35:52.992Z</time></trkpt><trkpt lat="45.934010443299016" lon="9.128239101448363"><ele>275.5</ele><time>2026-05-02T14:35:53.992Z</time></trkpt><trkpt lat="45.9338919939781" lon="9.128271700329499"><ele>275.0</ele><time>2026-05-02T14:35:54.992Z</time></trkpt><trkpt lat="45.93376768212715" lon="9.128311516327589"><ele>262.5</ele><time>2026-05-02T14:35:55.992Z</time></trkpt><trkpt lat="45.933632926282144" lon="9.12836869850714"><ele>250.0</ele><time>2026-05-02T14:35:56.992Z</time></trkpt><trkpt lat="45.93349393999681" lon="9.128413875995852"><ele>237.5</ele><time>2026-05-02T14:35:57.992Z</time></trkpt><trkpt lat="45.93335648125426" lon="9.128457428823987"><ele>225.0</ele><time>2026-05-02T14:35:58.992Z</time></trkpt><trkpt lat="45.933227261482905" lon="9.128484054445629"><ele>225.0</ele><time>2026-05-02T14:35:59.992Z</time></trkpt><trkpt lat="45.933091835255226" lon="9.128503245338488"><ele>225.0</ele><time>2026-05-02T14:36:00.992Z</time></trkpt><trkpt lat="45.93294885880813" lon="9.128493605944234"><ele>225.0</ele><time>2026-05-02T14:36:01.992Z</time></trkpt><trkpt lat="45.932798875510215" lon="9.128456247651869"><ele>225.0</ele><time>2026-05-02T14:36:02.992Z</time></trkpt><trkpt lat="45.932645559780674" lon="9.128415162041764"><ele>224.75</ele><time>2026-05-02T14:36:03.992Z</time></trkpt><trkpt lat="45.932497338011856" lon="9.128370364189085"><ele>224.5</ele><time>2026-05-02T14:36:04.992Z</time></trkpt><trkpt lat="45.93236263240155" lon="9.128322318805749"><ele>224.25</ele><time>2026-05-02T14:36:05.992Z</time></trkpt><trkpt lat="45.93222706219982" lon="9.128288709720396"><ele>224.0</ele><time>2026-05-02T14:36:06.992Z</time></trkpt><trkpt lat="45.932098726263376" lon="9.128247120642945"><ele>223.5</ele><time>2026-05-02T14:36:07.992Z</time></trkpt><trkpt lat="45.931961869255545" lon="9.128218866602426"><ele>223.0</ele><time>2026-05-02T14:36:08.992Z</time></trkpt><trkpt lat="45.93181545430985" lon="9.12821703810522"><ele>222.5</ele><time>2026-05-02T14:36:09.992Z</time></trkpt><trkpt lat="45.93166287524068" lon="9.128231500146432"><ele>222.0</ele><time>2026-05-02T14:36:10.992Z</time></trkpt><trkpt lat="45.93151640004058" lon="9.12826129038469"><ele>222.0</ele><time>2026-05-02T14:36:11.992Z</time></trkpt><trkpt lat="45.93137234630939" lon="9.128307553603577"><ele>222.0</ele><time>2026-05-02T14:36:12.992Z</time></trkpt><trkpt lat="45.93122523745124" lon="9.128346986183837"><ele>222.0</ele><time>2026-05-02T14:36:13.992Z</time></trkpt><trkpt lat="45.9310789093705" lon="9.12837698343995"><ele>222.0</ele><time>2026-05-02T14:36:14.992Z</time></trkpt><trkpt lat="45.93092693088963" lon="9.12841558870016"><ele>226.25</ele><time>2026-05-02T14:36:15.992Z</time></trkpt><trkpt lat="45.930770834459295" lon="9.12845544015763"><ele>230.5</ele><time>2026-05-02T14:36:16.992Z</time></trkpt><trkpt lat="45.930625373112164" lon="9.12848821885032"><ele>234.75</ele><time>2026-05-02T14:36:17.992Z</time></trkpt><trkpt lat="45.930488112598916" lon="9.128533665690663"><ele>239.0</ele><time>2026-05-02T14:36:18.992Z</time></trkpt><trkpt lat="45.930363888814725" lon="9.128570241820217"><ele>239.0</ele><time>2026-05-02T14:36:19.992Z</time></trkpt><trkpt lat="45.93023832800064" lon="9.12862597197824"><ele>239.0</ele><time>2026-05-02T14:36:20.993Z</time></trkpt><trkpt lat="45.93011431924676" lon="9.128732282938458"><ele>239.0</ele><time>2026-05-02T14:36:21.993Z</time></trkpt><trkpt lat="45.930007319658536" lon="9.128863524532782"><ele>239.0</ele><time>2026-05-02T14:36:22.993Z</time></trkpt><trkpt lat="45.929914742803874" lon="9.129013259566387"><ele>233.75</ele><time>2026-05-02T14:36:23.993Z</time></trkpt><trkpt lat="45.929831759702736" lon="9.12914904035343"><ele>228.5</ele><time>2026-05-02T14:36:24.993Z</time></trkpt><trkpt lat="45.929747287870256" lon="9.129273477854193"><ele>223.25</ele><time>2026-05-02T14:36:25.993Z</time></trkpt><trkpt lat="45.929654645830155" lon="9.129380679480775"><ele>218.0</ele><time>2026-05-02T14:36:26.993Z</time></trkpt><trkpt lat="45.929541201615805" lon="9.12947205846793"><ele>218.0</ele><time>2026-05-02T14:36:27.993Z</time></trkpt><trkpt lat="45.929406811326935" lon="9.12956781725028"><ele>218.0</ele><time>2026-05-02T14:36:28.993Z</time></trkpt><trkpt lat="45.92926023673299" lon="9.129625420008908"><ele>218.0</ele><time>2026-05-02T14:36:29.993Z</time></trkpt><trkpt lat="45.929103377811096" lon="9.12968265312867"><ele>229.33333333333334</ele><time>2026-05-02T14:36:30.993Z</time></trkpt><trkpt lat="45.928949864290615" lon="9.129749676012153"><ele>240.66666666666669</ele><time>2026-05-02T14:36:31.993Z</time></trkpt><trkpt lat="45.928794194335374" lon="9.129801023358343"><ele>252.0</ele><time>2026-05-02T14:36:32.993Z</time></trkpt><trkpt lat="45.9286389827895" lon="9.129863526857472"><ele>241.33333333333331</ele><time>2026-05-02T14:36:33.993Z</time></trkpt><trkpt lat="45.92848316453977" lon="9.12992705916894"><ele>230.66666666666666</ele><time>2026-05-02T14:36:34.993Z</time></trkpt><trkpt lat="45.92833335317947" lon="9.129990007610253"><ele>220.0</ele><time>2026-05-02T14:36:35.993Z</time></trkpt><trkpt lat="45.928191374831634" lon="9.13004927588679"><ele>220.0</ele><time>2026-05-02T14:36:36.993Z</time></trkpt><trkpt lat="45.928054783288985" lon="9.130104957164567"><ele>220.0</ele><time>2026-05-02T14:36:37.993Z</time></trkpt><trkpt lat="45.927925860153984" lon="9.130157684746962"><ele>220.0</ele><time>2026-05-02T14:36:38.993Z</time></trkpt><trkpt lat="45.927794876201816" lon="9.130211313522244"><ele>220.0</ele><time>2026-05-02T14:36:39.991Z</time></trkpt><trkpt lat="45.92765792026917" lon="9.130267529848641"><ele>227.75</ele><time>2026-05-02T14:36:40.991Z</time></trkpt><trkpt lat="45.92752574949567" lon="9.130321885320706"><ele>235.5</ele><time>2026-05-02T14:36:41.991Z</time></trkpt><trkpt lat="45.927409507034916" lon="9.1303916725364"><ele>243.25</ele><time>2026-05-02T14:36:42.99Z</time></trkpt><trkpt lat="45.92728871127923" lon="9.130398745516056"><ele>251.0</ele><time>2026-05-02T14:36:43.99Z</time></trkpt><trkpt lat="45.927163585991316" lon="9.130464968079743"><ele>251.0</ele><time>2026-05-02T14:36:44.99Z</time></trkpt><trkpt lat="45.92704540945133" lon="9.130545317312437"><ele>251.0</ele><time>2026-05-02T14:36:45.991Z</time></trkpt><trkpt lat="45.926935158601296" lon="9.130622522270642"><ele>251.0</ele><time>2026-05-02T14:36:46.99Z</time></trkpt><trkpt lat="45.92682950775782" lon="9.130690702041038"><ele>251.0</ele><time>2026-05-02T14:36:47.99Z</time></trkpt><trkpt lat="45.92671985535374" lon="9.130751905035808"><ele>244.25</ele><time>2026-05-02T14:36:48.991Z</time></trkpt><trkpt lat="45.926595823508926" lon="9.130796569750574"><ele>237.5</ele><time>2026-05-02T14:36:49.991Z</time></trkpt><trkpt lat="45.9264578083177" lon="9.13082719523224"><ele>230.75</ele><time>2026-05-02T14:36:50.991Z</time></trkpt><trkpt lat="45.926308946400454" lon="9.130836188925699"><ele>224.0</ele><time>2026-05-02T14:36:51.99Z</time></trkpt><trkpt lat="45.9261675529994" lon="9.130854626836003"><ele>224.0</ele><time>2026-05-02T14:36:52.991Z</time></trkpt><trkpt lat="45.9260372311488" lon="9.130887146416866"><ele>224.0</ele><time>2026-05-02T14:36:53.991Z</time></trkpt><trkpt lat="45.92590615160905" lon="9.130915817517417"><ele>224.0</ele><time>2026-05-02T14:36:54.991Z</time></trkpt><trkpt lat="45.925772276766075" lon="9.130942214956297"><ele>224.0</ele><time>2026-05-02T14:36:55.991Z</time></trkpt><trkpt lat="45.92563660492068" lon="9.130968350082835"><ele>225.75</ele><time>2026-05-02T14:36:56.991Z</time></trkpt><trkpt lat="45.925503460594044" lon="9.130977224980256"><ele>227.5</ele><time>2026-05-02T14:36:57.991Z</time></trkpt><trkpt lat="45.92537461388508" lon="9.130962668897187"><ele>229.25</ele><time>2026-05-02T14:36:58.991Z</time></trkpt><trkpt lat="45.92524179572618" lon="9.130936677301902"><ele>231.0</ele><time>2026-05-02T14:36:59.991Z</time></trkpt><trkpt lat="45.92511029283935" lon="9.130898405881116"><ele>232.0</ele><time>2026-05-02T14:37:00.991Z</time></trkpt><trkpt lat="45.924986307085334" lon="9.13085231899001"><ele>233.0</ele><time>2026-05-02T14:37:01.991Z</time></trkpt><trkpt lat="45.92486931135929" lon="9.130815248211626"><ele>234.0</ele><time>2026-05-02T14:37:02.991Z</time></trkpt><trkpt lat="45.92474690978918" lon="9.130812964448427"><ele>235.0</ele><time>2026-05-02T14:37:03.991Z</time></trkpt><trkpt lat="45.92461639802863" lon="9.13084340911517"><ele>235.0</ele><time>2026-05-02T14:37:04.991Z</time></trkpt><trkpt lat="45.924479849907705" lon="9.130891749166892"><ele>235.0</ele><time>2026-05-02T14:37:05.991Z</time></trkpt><trkpt lat="45.92434971710239" lon="9.130956901226824"><ele>235.0</ele><time>2026-05-02T14:37:06.991Z</time></trkpt><trkpt lat="45.92422398153028" lon="9.131018228057433"><ele>235.0</ele><time>2026-05-02T14:37:07.991Z</time></trkpt><trkpt lat="45.92409831542152" lon="9.13107514798124"><ele>239.0</ele><time>2026-05-02T14:37:08.991Z</time></trkpt><trkpt lat="45.9239802253111" lon="9.13113649800347"><ele>243.0</ele><time>2026-05-02T14:37:09.991Z</time></trkpt><trkpt lat="45.92386079470703" lon="9.131203641019617"><ele>247.0</ele><time>2026-05-02T14:37:10.991Z</time></trkpt><trkpt lat="45.923735521825755" lon="9.131270959472669"><ele>251.0</ele><time>2026-05-02T14:37:11.991Z</time></trkpt><trkpt lat="45.9236077341009" lon="9.131325690525802"><ele>251.0</ele><time>2026-05-02T14:37:12.991Z</time></trkpt><trkpt lat="45.92347453194876" lon="9.131369438487734"><ele>251.0</ele><time>2026-05-02T14:37:13.991Z</time></trkpt><trkpt lat="45.92333532978697" lon="9.13139643033126"><ele>251.0</ele><time>2026-05-02T14:37:14.991Z</time></trkpt><trkpt lat="45.92319106486957" lon="9.13140622963373"><ele>251.0</ele><time>2026-05-02T14:37:15.991Z</time></trkpt><trkpt lat="45.92304732787244" lon="9.131410715926553"><ele>252.25</ele><time>2026-05-02T14:37:16.991Z</time></trkpt><trkpt lat="45.92290393189359" lon="9.131402531719496"><ele>253.5</ele><time>2026-05-02T14:37:17.991Z</time></trkpt><trkpt lat="45.92276023966127" lon="9.131385915631366"><ele>254.75</ele><time>2026-05-02T14:37:18.991Z</time></trkpt><trkpt lat="45.92261707543164" lon="9.131356939821485"><ele>256.0</ele><time>2026-05-02T14:37:19.991Z</time></trkpt><trkpt lat="45.922470212104855" lon="9.131322967333622"><ele>257.0</ele><time>2026-05-02T14:37:20.991Z</time></trkpt><trkpt lat="45.922327694105554" lon="9.13126742807247"><ele>258.0</ele><time>2026-05-02T14:37:21.991Z</time></trkpt><trkpt lat="45.92218665584793" lon="9.131236107079438"><ele>259.0</ele><time>2026-05-02T14:37:22.991Z</time></trkpt><trkpt lat="45.922051748763984" lon="9.131206311035719"><ele>260.0</ele><time>2026-05-02T14:37:23.991Z</time></trkpt><trkpt lat="45.92192382637747" lon="9.131185108826507"><ele>260.0</ele><time>2026-05-02T14:37:24.991Z</time></trkpt><trkpt lat="45.92179246432964" lon="9.131189829786777"><ele>260.0</ele><time>2026-05-02T14:37:25.991Z</time></trkpt><trkpt lat="45.921665243115086" lon="9.131223771605404"><ele>260.0</ele><time>2026-05-02T14:37:26.991Z</time></trkpt><trkpt lat="45.9215488163559" lon="9.131264137603214"><ele>260.0</ele><time>2026-05-02T14:37:27.991Z</time></trkpt><trkpt lat="45.921416110788314" lon="9.131336299823248"><ele>258.0</ele><time>2026-05-02T14:37:28.991Z</time></trkpt><trkpt lat="45.92129272964877" lon="9.131357763626708"><ele>256.0</ele><time>2026-05-02T14:37:29.991Z</time></trkpt><trkpt lat="45.921166232691775" lon="9.131399932046955"><ele>254.0</ele><time>2026-05-02T14:37:30.991Z</time></trkpt><trkpt lat="45.92104654113734" lon="9.13143748007226"><ele>252.0</ele><time>2026-05-02T14:37:31.991Z</time></trkpt><trkpt lat="45.920930736477004" lon="9.13145792647139"><ele>253.0</ele><time>2026-05-02T14:37:32.991Z</time></trkpt><trkpt lat="45.920821525853455" lon="9.131466849734768"><ele>254.0</ele><time>2026-05-02T14:37:33.991Z</time></trkpt><trkpt lat="45.920707824970364" lon="9.131472823824073"><ele>255.0</ele><time>2026-05-02T14:37:34.991Z</time></trkpt><trkpt lat="45.92058525422682" lon="9.131472801866522"><ele>256.0</ele><time>2026-05-02T14:37:35.991Z</time></trkpt><trkpt lat="45.92045751217286" lon="9.131472892046924"><ele>256.0</ele><time>2026-05-02T14:37:36.991Z</time></trkpt><trkpt lat="45.9203265664708" lon="9.131487649750966"><ele>256.0</ele><time>2026-05-02T14:37:37.991Z</time></trkpt><trkpt lat="45.92018994557533" lon="9.13151356457399"><ele>256.0</ele><time>2026-05-02T14:37:38.991Z</time></trkpt><trkpt lat="45.92005300613945" lon="9.131548555226464"><ele>256.0</ele><time>2026-05-02T14:37:39.991Z</time></trkpt><trkpt lat="45.919920557767554" lon="9.131595434602525"><ele>247.5</ele><time>2026-05-02T14:37:40.991Z</time></trkpt><trkpt lat="45.91979422538464" lon="9.13163273646341"><ele>239.0</ele><time>2026-05-02T14:37:41.991Z</time></trkpt><trkpt lat="45.91967230807469" lon="9.131674142344595"><ele>230.5</ele><time>2026-05-02T14:37:42.991Z</time></trkpt><trkpt lat="45.91954794297519" lon="9.131723809696048"><ele>222.0</ele><time>2026-05-02T14:37:43.991Z</time></trkpt><trkpt lat="45.91942415737444" lon="9.131768032953461"><ele>222.0</ele><time>2026-05-02T14:37:44.991Z</time></trkpt><trkpt lat="45.91929449599702" lon="9.131810443208616"><ele>222.0</ele><time>2026-05-02T14:37:45.991Z</time></trkpt><trkpt lat="45.919182477814125" lon="9.131779606773907"><ele>222.0</ele><time>2026-05-02T14:37:46.991Z</time></trkpt><trkpt lat="45.91905751900213" lon="9.13180245498831"><ele>222.0</ele><time>2026-05-02T14:37:47.991Z</time></trkpt><trkpt lat="45.91892877560276" lon="9.131818541543526"><ele>225.5</ele><time>2026-05-02T14:37:48.991Z</time></trkpt><trkpt lat="45.91879609257032" lon="9.131827070786986"><ele>229.0</ele><time>2026-05-02T14:37:49.991Z</time></trkpt><trkpt lat="45.91866121567571" lon="9.13182026459033"><ele>232.5</ele><time>2026-05-02T14:37:50.991Z</time></trkpt><trkpt lat="45.91852521993404" lon="9.131799860263326"><ele>236.0</ele><time>2026-05-02T14:37:51.991Z</time></trkpt><trkpt lat="45.91838927703275" lon="9.131767706294585"><ele>241.75</ele><time>2026-05-02T14:37:52.991Z</time></trkpt><trkpt lat="45.91825296203651" lon="9.131728086310208"><ele>247.5</ele><time>2026-05-02T14:37:53.991Z</time></trkpt><trkpt lat="45.918095487243484" lon="9.131694807343356"><ele>253.25</ele><time>2026-05-02T14:37:55.128Z</time></trkpt><trkpt lat="45.91795510353138" lon="9.131659659967058"><ele>259.0</ele><time>2026-05-02T14:37:56.127Z</time></trkpt><trkpt lat="45.91781233251441" lon="9.131622130008267"><ele>302.0</ele><time>2026-05-02T14:37:57.127Z</time></trkpt><trkpt lat="45.915822452427086" lon="9.131102222318269"><ele>237.0</ele><time>2026-05-02T14:38:01.051Z</time></trkpt><trkpt lat="45.90877547467919" lon="9.130951449339015"><ele>237.0</ele><time>2026-05-02T14:39:00.993Z</time></trkpt><trkpt lat="45.90865176580985" lon="9.131002847576843"><ele>237.0</ele><time>2026-05-02T14:39:01.993Z</time></trkpt><trkpt lat="45.908531822480754" lon="9.131014495163747"><ele>237.0</ele><time>2026-05-02T14:39:02.993Z</time></trkpt><trkpt lat="45.90838404335103" lon="9.131082592591156"><ele>237.0</ele><time>2026-05-02T14:39:03.993Z</time></trkpt><trkpt lat="45.90825769760387" lon="9.131090380011077"><ele>239.5</ele><time>2026-05-02T14:39:04.993Z</time></trkpt><trkpt lat="45.90813218887106" lon="9.131098840687049"><ele>242.0</ele><time>2026-05-02T14:39:05.993Z</time></trkpt><trkpt lat="45.908012922577015" lon="9.131111159078344"><ele>244.5</ele><time>2026-05-02T14:39:06.991Z</time></trkpt><trkpt lat="45.907889066127616" lon="9.131135167451937"><ele>247.0</ele><time>2026-05-02T14:39:07.99Z</time></trkpt><trkpt lat="45.9077560925473" lon="9.13117895371957"><ele>247.0</ele><time>2026-05-02T14:39:08.99Z</time></trkpt><trkpt lat="45.907630080144585" lon="9.131199860603576"><ele>247.0</ele><time>2026-05-02T14:39:09.99Z</time></trkpt><trkpt lat="45.90751632556396" lon="9.131238070078492"><ele>247.0</ele><time>2026-05-02T14:39:10.99Z</time></trkpt><trkpt lat="45.9074016432826" lon="9.131269634658215"><ele>247.0</ele><time>2026-05-02T14:39:11.99Z</time></trkpt><trkpt lat="45.90729830473946" lon="9.131290361409658"><ele>247.8</ele><time>2026-05-02T14:39:12.99Z</time></trkpt><trkpt lat="45.90719161250014" lon="9.131317141158371"><ele>248.6</ele><time>2026-05-02T14:39:13.989Z</time></trkpt><trkpt lat="45.90708195891743" lon="9.131349687936774"><ele>249.40000000000003</ele><time>2026-05-02T14:39:14.988Z</time></trkpt><trkpt lat="45.9069848168154" lon="9.131309435692419"><ele>250.20000000000002</ele><time>2026-05-02T14:39:15.989Z</time></trkpt><trkpt lat="45.90687089680553" lon="9.131345965577356"><ele>251.0</ele><time>2026-05-02T14:39:16.988Z</time></trkpt><trkpt lat="45.90676217606651" lon="9.131381665955955"><ele>251.60000000000002</ele><time>2026-05-02T14:39:17.988Z</time></trkpt><trkpt lat="45.906660463306224" lon="9.131418278874792"><ele>252.20000000000002</ele><time>2026-05-02T14:39:18.989Z</time></trkpt><trkpt lat="45.906574824518664" lon="9.13144930767468"><ele>252.79999999999998</ele><time>2026-05-02T14:39:19.989Z</time></trkpt><trkpt lat="45.90646009201058" lon="9.131491418857681"><ele>253.39999999999998</ele><time>2026-05-02T14:39:20.989Z</time></trkpt><trkpt lat="45.90634861221792" lon="9.131535708884698"><ele>254.0</ele><time>2026-05-02T14:39:21.989Z</time></trkpt><trkpt lat="45.906238614876834" lon="9.131576746803029"><ele>248.79999999999998</ele><time>2026-05-02T14:39:22.988Z</time></trkpt><trkpt lat="45.90613100517222" lon="9.131627221560427"><ele>243.59999999999997</ele><time>2026-05-02T14:39:23.988Z</time></trkpt><trkpt lat="45.90603354753237" lon="9.131677402022907"><ele>238.4</ele><time>2026-05-02T14:39:24.988Z</time></trkpt><trkpt lat="45.90593971509189" lon="9.131738972612096"><ele>233.2</ele><time>2026-05-02T14:39:25.988Z</time></trkpt><trkpt lat="45.90584461939529" lon="9.131825152538081"><ele>228.0</ele><time>2026-05-02T14:39:26.988Z</time></trkpt><trkpt lat="45.90575450550952" lon="9.131923875486857"><ele>228.0</ele><time>2026-05-02T14:39:27.988Z</time></trkpt><trkpt lat="45.90566359028997" lon="9.13202017129056"><ele>228.0</ele><time>2026-05-02T14:39:28.988Z</time></trkpt><trkpt lat="45.90557495425826" lon="9.132136329344696"><ele>228.0</ele><time>2026-05-02T14:39:29.988Z</time></trkpt><trkpt lat="45.90547609095202" lon="9.132246024846697"><ele>228.0</ele><time>2026-05-02T14:39:30.988Z</time></trkpt><trkpt lat="45.90537817484384" lon="9.132365711061187"><ele>230.5</ele><time>2026-05-02T14:39:31.988Z</time></trkpt><trkpt lat="45.9052714192153" lon="9.13247740769053"><ele>233.0</ele><time>2026-05-02T14:39:32.988Z</time></trkpt><trkpt lat="45.90516532597139" lon="9.132582459741387"><ele>235.5</ele><time>2026-05-02T14:39:33.988Z</time></trkpt><trkpt lat="45.90504979153696" lon="9.132687010029361"><ele>238.0</ele><time>2026-05-02T14:39:34.988Z</time></trkpt><trkpt lat="45.90493745466741" lon="9.132787430308971"><ele>238.0</ele><time>2026-05-02T14:39:35.988Z</time></trkpt><trkpt lat="45.90481708151453" lon="9.132872843885988"><ele>238.0</ele><time>2026-05-02T14:39:36.988Z</time></trkpt><trkpt lat="45.90469924094155" lon="9.132956070283216"><ele>238.0</ele><time>2026-05-02T14:39:37.988Z</time></trkpt><trkpt lat="45.90458238684954" lon="9.133047467124124"><ele>238.0</ele><time>2026-05-02T14:39:38.987Z</time></trkpt><trkpt lat="45.904471768972606" lon="9.133151958109748"><ele>237.0</ele><time>2026-05-02T14:39:39.987Z</time></trkpt><trkpt lat="45.9043698075283" lon="9.133261167231874"><ele>236.0</ele><time>2026-05-02T14:39:40.987Z</time></trkpt><trkpt lat="45.904254419103964" lon="9.133304715870578"><ele>235.0</ele><time>2026-05-02T14:39:41.987Z</time></trkpt><trkpt lat="45.90414500685394" lon="9.133412046443514"><ele>234.0</ele><time>2026-05-02T14:39:42.987Z</time></trkpt><trkpt lat="45.9040336268841" lon="9.13351721335325"><ele>234.0</ele><time>2026-05-02T14:39:43.987Z</time></trkpt><trkpt lat="45.90392366761921" lon="9.13361849175279"><ele>234.0</ele><time>2026-05-02T14:39:44.987Z</time></trkpt><trkpt lat="45.90381885776398" lon="9.133721340045463"><ele>234.0</ele><time>2026-05-02T14:39:45.987Z</time></trkpt><trkpt lat="45.903720361485384" lon="9.133815614789217"><ele>234.0</ele><time>2026-05-02T14:39:46.987Z</time></trkpt><trkpt lat="45.9036267216242" lon="9.133895415094207"><ele>234.0</ele><time>2026-05-02T14:39:47.987Z</time></trkpt><trkpt lat="45.90352249692806" lon="9.133974832504128"><ele>234.0</ele><time>2026-05-02T14:39:48.987Z</time></trkpt><trkpt lat="45.90340787598582" lon="9.134038070298546"><ele>234.0</ele><time>2026-05-02T14:39:49.987Z</time></trkpt><trkpt lat="45.90328859929152" lon="9.134101237556566"><ele>234.0</ele><time>2026-05-02T14:39:50.987Z</time></trkpt><trkpt lat="45.90316696068012" lon="9.134170833995647"><ele>231.25</ele><time>2026-05-02T14:39:51.987Z</time></trkpt><trkpt lat="45.90305343869007" lon="9.1342449821649"><ele>228.5</ele><time>2026-05-02T14:39:52.987Z</time></trkpt><trkpt lat="45.902939839097755" lon="9.134331044564624"><ele>225.75</ele><time>2026-05-02T14:39:53.987Z</time></trkpt><trkpt lat="45.902829493011815" lon="9.134425666507084"><ele>223.0</ele><time>2026-05-02T14:39:54.987Z</time></trkpt><trkpt lat="45.90271840143999" lon="9.134522985820963"><ele>223.0</ele><time>2026-05-02T14:39:55.987Z</time></trkpt><trkpt lat="45.902603114837156" lon="9.134622400596948"><ele>223.0</ele><time>2026-05-02T14:39:56.987Z</time></trkpt><trkpt lat="45.90248850758951" lon="9.13472269999348"><ele>223.0</ele><time>2026-05-02T14:39:57.987Z</time></trkpt><trkpt lat="45.90237654919566" lon="9.134812694975272"><ele>223.0</ele><time>2026-05-02T14:39:58.987Z</time></trkpt><trkpt lat="45.902264599134476" lon="9.134902688215552"><ele>220.0</ele><time>2026-05-02T14:39:59.987Z</time></trkpt><trkpt lat="45.902150061199215" lon="9.134995281905999"><ele>217.0</ele><time>2026-05-02T14:40:00.987Z</time></trkpt><trkpt lat="45.902035665499156" lon="9.13509158902648"><ele>214.0</ele><time>2026-05-02T14:40:01.987Z</time></trkpt><trkpt lat="45.90192278613834" lon="9.13518627189807"><ele>211.0</ele><time>2026-05-02T14:40:02.987Z</time></trkpt><trkpt lat="45.90180415367874" lon="9.135283541754074"><ele>217.75</ele><time>2026-05-02T14:40:03.987Z</time></trkpt><trkpt lat="45.90168649184497" lon="9.13538257723251"><ele>224.5</ele><time>2026-05-02T14:40:04.987Z</time></trkpt><trkpt lat="45.90155329359701" lon="9.135436644293275"><ele>231.25</ele><time>2026-05-02T14:40:05.987Z</time></trkpt><trkpt lat="45.90143143060755" lon="9.135527441337151"><ele>238.0</ele><time>2026-05-02T14:40:06.987Z</time></trkpt><trkpt lat="45.90131423002861" lon="9.135622160282821"><ele>236.75</ele><time>2026-05-02T14:40:07.987Z</time></trkpt><trkpt lat="45.901191211148166" lon="9.13572290581872"><ele>235.5</ele><time>2026-05-02T14:40:08.987Z</time></trkpt><trkpt lat="45.901066518345914" lon="9.135828443381497"><ele>234.25</ele><time>2026-05-02T14:40:09.987Z</time></trkpt><trkpt lat="45.900944923501186" lon="9.135924902007691"><ele>233.0</ele><time>2026-05-02T14:40:10.987Z</time></trkpt><trkpt lat="45.900824418770185" lon="9.13602455943006"><ele>233.0</ele><time>2026-05-02T14:40:11.987Z</time></trkpt><trkpt lat="45.900707676807635" lon="9.13612846963112"><ele>233.0</ele><time>2026-05-02T14:40:12.987Z</time></trkpt><trkpt lat="45.90058751671361" lon="9.136231481214677"><ele>233.0</ele><time>2026-05-02T14:40:13.987Z</time></trkpt><trkpt lat="45.90047414513408" lon="9.136326433420413"><ele>233.0</ele><time>2026-05-02T14:40:14.987Z</time></trkpt><trkpt lat="45.90036425436435" lon="9.136414682611003"><ele>233.0</ele><time>2026-05-02T14:40:15.987Z</time></trkpt><trkpt lat="45.900263236829566" lon="9.136498051762013"><ele>233.0</ele><time>2026-05-02T14:40:16.987Z</time></trkpt><trkpt lat="45.900162813554786" lon="9.136583230016562"><ele>233.0</ele><time>2026-05-02T14:40:17.987Z</time></trkpt><trkpt lat="45.90006432291868" lon="9.136664158729218"><ele>233.0</ele><time>2026-05-02T14:40:18.987Z</time></trkpt><trkpt lat="45.899967308309016" lon="9.136734468768772"><ele>230.5</ele><time>2026-05-02T14:40:19.987Z</time></trkpt><trkpt lat="45.89986419960949" lon="9.136802101487207"><ele>228.0</ele><time>2026-05-02T14:40:20.988Z</time></trkpt><trkpt lat="45.89975503382241" lon="9.13685269846984"><ele>225.5</ele><time>2026-05-02T14:40:21.988Z</time></trkpt><trkpt lat="45.89964343625374" lon="9.136892429919628"><ele>223.0</ele><time>2026-05-02T14:40:22.988Z</time></trkpt><trkpt lat="45.89952205180606" lon="9.136925186926195"><ele>223.0</ele><time>2026-05-02T14:40:23.988Z</time></trkpt><trkpt lat="45.89940912590505" lon="9.13695364535205"><ele>223.0</ele><time>2026-05-02T14:40:24.988Z</time></trkpt><trkpt lat="45.89929408162558" lon="9.136977839654033"><ele>223.0</ele><time>2026-05-02T14:40:25.988Z</time></trkpt><trkpt lat="45.899176553978336" lon="9.136989544793643"><ele>223.0</ele><time>2026-05-02T14:40:26.988Z</time></trkpt><trkpt lat="45.89905907878917" lon="9.13706424055967"><ele>225.75</ele><time>2026-05-02T14:40:27.988Z</time></trkpt><trkpt lat="45.89893646091101" lon="9.137123672695406"><ele>228.5</ele><time>2026-05-02T14:40:28.988Z</time></trkpt><trkpt lat="45.89881321205996" lon="9.137189152370011"><ele>231.25</ele><time>2026-05-02T14:40:29.988Z</time></trkpt><trkpt lat="45.89869136963741" lon="9.137265602535646"><ele>234.0</ele><time>2026-05-02T14:40:30.988Z</time></trkpt><trkpt lat="45.89858012154933" lon="9.137341624196596"><ele>232.75</ele><time>2026-05-02T14:40:31.988Z</time></trkpt><trkpt lat="45.898461871099975" lon="9.13740644442804"><ele>231.5</ele><time>2026-05-02T14:40:32.988Z</time></trkpt><trkpt lat="45.89835766519212" lon="9.137509333253085"><ele>230.25</ele><time>2026-05-02T14:40:33.988Z</time></trkpt><trkpt lat="45.898260905589154" lon="9.137618803431858"><ele>229.0</ele><time>2026-05-02T14:40:34.988Z</time></trkpt><trkpt lat="45.8981653860222" lon="9.137737903670695"><ele>229.0</ele><time>2026-05-02T14:40:35.988Z</time></trkpt><trkpt lat="45.89807814128024" lon="9.13787795869784"><ele>229.0</ele><time>2026-05-02T14:40:36.988Z</time></trkpt><trkpt lat="45.897972530465886" lon="9.137981371724386"><ele>229.0</ele><time>2026-05-02T14:40:37.988Z</time></trkpt><trkpt lat="45.8978912277431" lon="9.13811707678577"><ele>229.0</ele><time>2026-05-02T14:40:38.988Z</time></trkpt><trkpt lat="45.89779549698989" lon="9.138232868206051"><ele>230.5</ele><time>2026-05-02T14:40:39.988Z</time></trkpt><trkpt lat="45.897698430247026" lon="9.138347285537568"><ele>232.0</ele><time>2026-05-02T14:40:40.988Z</time></trkpt><trkpt lat="45.8975931291549" lon="9.138452429932148"><ele>233.5</ele><time>2026-05-02T14:40:41.988Z</time></trkpt><trkpt lat="45.89748198357987" lon="9.138546567950154"><ele>235.0</ele><time>2026-05-02T14:40:42.988Z</time></trkpt><trkpt lat="45.897372224394694" lon="9.138640262886025"><ele>235.0</ele><time>2026-05-02T14:40:43.988Z</time></trkpt><trkpt lat="45.89725986187777" lon="9.138731390851094"><ele>235.0</ele><time>2026-05-02T14:40:44.988Z</time></trkpt><trkpt lat="45.89715108678338" lon="9.138818097210455"><ele>235.0</ele><time>2026-05-02T14:40:45.988Z</time></trkpt><trkpt lat="45.8970437280195" lon="9.138900431177545"><ele>235.0</ele><time>2026-05-02T14:40:46.988Z</time></trkpt><trkpt lat="45.896938584911005" lon="9.138985836244032"><ele>233.75</ele><time>2026-05-02T14:40:47.988Z</time></trkpt><trkpt lat="45.89682480021238" lon="9.13905640136662"><ele>232.5</ele><time>2026-05-02T14:40:48.988Z</time></trkpt><trkpt lat="45.89672416736493" lon="9.139164402737022"><ele>231.25</ele><time>2026-05-02T14:40:49.988Z</time></trkpt><trkpt lat="45.8966259055485" lon="9.1392888254021"><ele>230.0</ele><time>2026-05-02T14:40:50.988Z</time></trkpt><trkpt lat="45.89653249500059" lon="9.139426299246415"><ele>230.0</ele><time>2026-05-02T14:40:51.988Z</time></trkpt><trkpt lat="45.89644050335232" lon="9.139571805623198"><ele>230.0</ele><time>2026-05-02T14:40:52.988Z</time></trkpt><trkpt lat="45.896333102698485" lon="9.139689694448302"><ele>230.0</ele><time>2026-05-02T14:40:53.988Z</time></trkpt><trkpt lat="45.89624798593564" lon="9.139822338171358"><ele>230.0</ele><time>2026-05-02T14:40:54.988Z</time></trkpt><trkpt lat="45.89616464727119" lon="9.139960823688972"><ele>234.75</ele><time>2026-05-02T14:40:55.988Z</time></trkpt><trkpt lat="45.89608758511924" lon="9.14010455563505"><ele>239.5</ele><time>2026-05-02T14:40:56.988Z</time></trkpt><trkpt lat="45.8960159164896" lon="9.140252283790291"><ele>244.25</ele><time>2026-05-02T14:40:57.988Z</time></trkpt><trkpt lat="45.895941239315235" lon="9.14040243464928"><ele>249.0</ele><time>2026-05-02T14:40:58.988Z</time></trkpt><trkpt lat="45.895869133419694" lon="9.140559512567851"><ele>249.0</ele><time>2026-05-02T14:40:59.988Z</time></trkpt><trkpt lat="45.89579852528997" lon="9.140703593841389"><ele>249.0</ele><time>2026-05-02T14:41:00.988Z</time></trkpt><trkpt lat="45.895729824902226" lon="9.140843647717569"><ele>249.0</ele><time>2026-05-02T14:41:01.988Z</time></trkpt><trkpt lat="45.89566047917672" lon="9.140978677471328"><ele>249.0</ele><time>2026-05-02T14:41:02.988Z</time></trkpt><trkpt lat="45.895585833023105" lon="9.141112185248769"><ele>242.5</ele><time>2026-05-02T14:41:03.988Z</time></trkpt><trkpt lat="45.89550504181014" lon="9.141245168336846"><ele>236.0</ele><time>2026-05-02T14:41:04.988Z</time></trkpt><trkpt lat="45.89541945299919" lon="9.141372635135093"><ele>229.5</ele><time>2026-05-02T14:41:05.988Z</time></trkpt><trkpt lat="45.895332538108384" lon="9.141492339919257"><ele>223.0</ele><time>2026-05-02T14:41:06.988Z</time></trkpt><trkpt lat="45.89525512073882" lon="9.14160333907604"><ele>225.0</ele><time>2026-05-02T14:41:07.988Z</time></trkpt><trkpt lat="45.89517640585417" lon="9.141698503112378"><ele>227.0</ele><time>2026-05-02T14:41:08.988Z</time></trkpt><trkpt lat="45.89509691119599" lon="9.141782321895569"><ele>229.0</ele><time>2026-05-02T14:41:09.988Z</time></trkpt><trkpt lat="45.895015016795774" lon="9.141868742524737"><ele>231.0</ele><time>2026-05-02T14:41:10.988Z</time></trkpt><trkpt lat="45.894925017610035" lon="9.141959159278327"><ele>233.0</ele><time>2026-05-02T14:41:11.988Z</time></trkpt><trkpt lat="45.89482773223604" lon="9.142043209216077"><ele>233.0</ele><time>2026-05-02T14:41:12.986Z</time></trkpt><trkpt lat="45.89472256141386" lon="9.142120245006032"><ele>233.0</ele><time>2026-05-02T14:41:13.985Z</time></trkpt><trkpt lat="45.894613834844236" lon="9.1421984795576"><ele>233.0</ele><time>2026-05-02T14:41:14.985Z</time></trkpt><trkpt lat="45.89449715065349" lon="9.142271347142756"><ele>233.0</ele><time>2026-05-02T14:41:15.985Z</time></trkpt><trkpt lat="45.894388727647595" lon="9.142331758961118"><ele>231.25</ele><time>2026-05-02T14:41:16.986Z</time></trkpt><trkpt lat="45.89427572820208" lon="9.142395548459818"><ele>229.5</ele><time>2026-05-02T14:41:17.986Z</time></trkpt><trkpt lat="45.894160489959056" lon="9.14246851329009"><ele>227.75</ele><time>2026-05-02T14:41:18.985Z</time></trkpt><trkpt lat="45.8940401588288" lon="9.142547993949382"><ele>226.0</ele><time>2026-05-02T14:41:19.986Z</time></trkpt><trkpt lat="45.8939247222637" lon="9.142625476211625"><ele>226.0</ele><time>2026-05-02T14:41:20.986Z</time></trkpt><trkpt lat="45.89380929388426" lon="9.142704650775796"><ele>226.0</ele><time>2026-05-02T14:41:21.986Z</time></trkpt><trkpt lat="45.89369353562468" lon="9.142785739737404"><ele>226.0</ele><time>2026-05-02T14:41:22.985Z</time></trkpt><trkpt lat="45.89357650433518" lon="9.142864237098802"><ele>226.0</ele><time>2026-05-02T14:41:23.985Z</time></trkpt><trkpt lat="45.893460858454745" lon="9.142943587566807"><ele>224.25</ele><time>2026-05-02T14:41:24.986Z</time></trkpt><trkpt lat="45.89334396203766" lon="9.143030415425484"><ele>222.5</ele><time>2026-05-02T14:41:25.986Z</time></trkpt><trkpt lat="45.893229144177056" lon="9.143118417195337"><ele>220.75</ele><time>2026-05-02T14:41:26.986Z</time></trkpt><trkpt lat="45.89312137505026" lon="9.14319974853402"><ele>219.0</ele><time>2026-05-02T14:41:27.986Z</time></trkpt><trkpt lat="45.89301638499045" lon="9.143283627914073"><ele>219.0</ele><time>2026-05-02T14:41:28.986Z</time></trkpt><trkpt lat="45.892908570178655" lon="9.143365658322447"><ele>219.0</ele><time>2026-05-02T14:41:29.986Z</time></trkpt><trkpt lat="45.892798068752825" lon="9.143447638986736"><ele>219.0</ele><time>2026-05-02T14:41:30.986Z</time></trkpt><trkpt lat="45.892690783467586" lon="9.14352663387014"><ele>219.0</ele><time>2026-05-02T14:41:31.986Z</time></trkpt><trkpt lat="45.892582840974114" lon="9.143609655508289"><ele>222.5</ele><time>2026-05-02T14:41:32.986Z</time></trkpt><trkpt lat="45.89247275645626" lon="9.143694021577083"><ele>226.0</ele><time>2026-05-02T14:41:33.986Z</time></trkpt><trkpt lat="45.892356021743524" lon="9.143779304799104"><ele>229.5</ele><time>2026-05-02T14:41:34.986Z</time></trkpt><trkpt lat="45.89223184904267" lon="9.143851399067271"><ele>233.0</ele><time>2026-05-02T14:41:35.986Z</time></trkpt><trkpt lat="45.89210070321741" lon="9.143901940853343"><ele>233.0</ele><time>2026-05-02T14:41:36.986Z</time></trkpt><trkpt lat="45.891965418657364" lon="9.143932072369246"><ele>233.0</ele><time>2026-05-02T14:41:37.986Z</time></trkpt><trkpt lat="45.89183646740194" lon="9.143940606614109"><ele>233.0</ele><time>2026-05-02T14:41:38.986Z</time></trkpt><trkpt lat="45.8917162067381" lon="9.143931311297479"><ele>233.0</ele><time>2026-05-02T14:41:39.986Z</time></trkpt><trkpt lat="45.89160011113213" lon="9.143907264717866"><ele>234.75</ele><time>2026-05-02T14:41:40.986Z</time></trkpt><trkpt lat="45.89148738016191" lon="9.143860603303269"><ele>236.5</ele><time>2026-05-02T14:41:41.986Z</time></trkpt><trkpt lat="45.89137290690916" lon="9.143792504359084"><ele>238.25</ele><time>2026-05-02T14:41:42.986Z</time></trkpt><trkpt lat="45.89125445176786" lon="9.14371943797925"><ele>240.0</ele><time>2026-05-02T14:41:43.986Z</time></trkpt><trkpt lat="45.891139928813246" lon="9.143634707696018"><ele>240.0</ele><time>2026-05-02T14:41:44.986Z</time></trkpt><trkpt lat="45.891022592489925" lon="9.143553215573652"><ele>240.0</ele><time>2026-05-02T14:41:45.986Z</time></trkpt><trkpt lat="45.890906114519545" lon="9.143470691919717"><ele>240.0</ele><time>2026-05-02T14:41:46.986Z</time></trkpt><trkpt lat="45.89078728987304" lon="9.143391929112065"><ele>240.0</ele><time>2026-05-02T14:41:47.986Z</time></trkpt><trkpt lat="45.8906724577055" lon="9.143307725846428"><ele>239.0</ele><time>2026-05-02T14:41:48.986Z</time></trkpt><trkpt lat="45.8905610494875" lon="9.143231980682385"><ele>238.0</ele><time>2026-05-02T14:41:49.986Z</time></trkpt><trkpt lat="45.89045746714519" lon="9.143156106343765"><ele>237.0</ele><time>2026-05-02T14:41:50.986Z</time></trkpt><trkpt lat="45.89035906446935" lon="9.143081833946624"><ele>236.0</ele><time>2026-05-02T14:41:51.986Z</time></trkpt><trkpt lat="45.89025227981632" lon="9.143012134792324"><ele>239.25</ele><time>2026-05-02T14:41:52.986Z</time></trkpt><trkpt lat="45.89014110842394" lon="9.142941336792914"><ele>242.5</ele><time>2026-05-02T14:41:53.986Z</time></trkpt><trkpt lat="45.89002657960801" lon="9.142883272999656"><ele>245.75</ele><time>2026-05-02T14:41:54.986Z</time></trkpt><trkpt lat="45.88990736784013" lon="9.142837959209404"><ele>249.0</ele><time>2026-05-02T14:41:55.986Z</time></trkpt><trkpt lat="45.88979953274672" lon="9.142809786318315"><ele>249.0</ele><time>2026-05-02T14:41:56.986Z</time></trkpt><trkpt lat="45.88970466218668" lon="9.14279321848258"><ele>248.99999999999997</ele><time>2026-05-02T14:41:57.986Z</time></trkpt><trkpt lat="45.88962875295432" lon="9.142780048728387"><ele>248.99999999999997</ele><time>2026-05-02T14:41:58.986Z</time></trkpt><trkpt lat="45.88956599117491" lon="9.142769554088842"><ele>249.0</ele><time>2026-05-02T14:41:59.986Z</time></trkpt><trkpt lat="45.88947472534725" lon="9.142698249237412"><ele>249.0</ele><time>2026-05-02T14:42:01.986Z</time></trkpt><trkpt lat="45.88935357112108" lon="9.142701062786326"><ele>249.0</ele><time>2026-05-02T14:42:03.986Z</time></trkpt><trkpt lat="45.889264412593405" lon="9.142701800430373"><ele>248.99999999999997</ele><time>2026-05-02T14:42:04.986Z</time></trkpt><trkpt lat="45.88916973808358" lon="9.14268321307008"><ele>248.99999999999997</ele><time>2026-05-02T14:42:05.986Z</time></trkpt><trkpt lat="45.88906029263471" lon="9.14265738994415"><ele>249.0</ele><time>2026-05-02T14:42:06.987Z</time></trkpt><trkpt lat="45.888946880293716" lon="9.142632920834709"><ele>249.0</ele><time>2026-05-02T14:42:07.987Z</time></trkpt><trkpt lat="45.88882984443155" lon="9.142611138051874"><ele>247.0</ele><time>2026-05-02T14:42:08.987Z</time></trkpt><trkpt lat="45.88871192520249" lon="9.142573900125162"><ele>245.0</ele><time>2026-05-02T14:42:09.987Z</time></trkpt><trkpt lat="45.88859715639706" lon="9.142513874747054"><ele>243.0</ele><time>2026-05-02T14:42:10.987Z</time></trkpt><trkpt lat="45.888482658283884" lon="9.1424338169896"><ele>241.0</ele><time>2026-05-02T14:42:11.987Z</time></trkpt><trkpt lat="45.888373966525876" lon="9.142339381442516"><ele>246.5</ele><time>2026-05-02T14:42:12.987Z</time></trkpt><trkpt lat="45.88827392653488" lon="9.142214724694993"><ele>252.0</ele><time>2026-05-02T14:42:13.987Z</time></trkpt><trkpt lat="45.88817659975751" lon="9.142079888746089"><ele>257.5</ele><time>2026-05-02T14:42:14.987Z</time></trkpt><trkpt lat="45.888078396357315" lon="9.141935805286364"><ele>263.0</ele><time>2026-05-02T14:42:15.987Z</time></trkpt><trkpt lat="45.887979094415776" lon="9.141776056072919"><ele>263.0</ele><time>2026-05-02T14:42:16.987Z</time></trkpt><trkpt lat="45.88787727710598" lon="9.141618767551696"><ele>263.0</ele><time>2026-05-02T14:42:17.987Z</time></trkpt><trkpt lat="45.8877792102975" lon="9.141459200788216"><ele>263.0</ele><time>2026-05-02T14:42:18.987Z</time></trkpt><trkpt lat="45.88768186793466" lon="9.14130266862053"><ele>263.0</ele><time>2026-05-02T14:42:19.987Z</time></trkpt><trkpt lat="45.887577186884194" lon="9.141145951929039"><ele>261.33333333333337</ele><time>2026-05-02T14:42:20.987Z</time></trkpt><trkpt lat="45.88746454224361" lon="9.141008197099014"><ele>259.6666666666667</ele><time>2026-05-02T14:42:21.987Z</time></trkpt><trkpt lat="45.88734380909491" lon="9.140871263623803"><ele>258.0</ele><time>2026-05-02T14:42:22.987Z</time></trkpt><trkpt lat="45.887199909092985" lon="9.14079844538499"><ele>258.0</ele><time>2026-05-02T14:42:23.987Z</time></trkpt><trkpt lat="45.887053941894465" lon="9.140731614934957"><ele>258.0</ele><time>2026-05-02T14:42:24.987Z</time></trkpt><trkpt lat="45.88690015237156" lon="9.140703433043367"><ele>258.0</ele><time>2026-05-02T14:42:25.987Z</time></trkpt><trkpt lat="45.88674192242798" lon="9.140701394439166"><ele>251.0</ele><time>2026-05-02T14:42:26.987Z</time></trkpt><trkpt lat="45.8865914487859" lon="9.14072067803219"><ele>244.0</ele><time>2026-05-02T14:42:27.987Z</time></trkpt><trkpt lat="45.886438287235656" lon="9.140726975476078"><ele>237.0</ele><time>2026-05-02T14:42:28.987Z</time></trkpt><trkpt lat="45.886284329409015" lon="9.140749960267332"><ele>237.0</ele><time>2026-05-02T14:42:29.987Z</time></trkpt><trkpt lat="45.886128352013586" lon="9.140772969871314"><ele>237.0</ele><time>2026-05-02T14:42:30.987Z</time></trkpt><trkpt lat="45.88597930060925" lon="9.140794976326271"><ele>237.0</ele><time>2026-05-02T14:42:31.987Z</time></trkpt><trkpt lat="45.8858297382803" lon="9.140805227180227"><ele>238.25</ele><time>2026-05-02T14:42:32.987Z</time></trkpt><trkpt lat="45.88568032300222" lon="9.140786909902456"><ele>239.5</ele><time>2026-05-02T14:42:33.987Z</time></trkpt><trkpt lat="45.88553199970909" lon="9.140757368156706"><ele>240.75</ele><time>2026-05-02T14:42:34.987Z</time></trkpt><trkpt lat="45.88539204687805" lon="9.140686619893454"><ele>242.0</ele><time>2026-05-02T14:42:35.987Z</time></trkpt><trkpt lat="45.88527452259812" lon="9.140562584856216"><ele>245.25</ele><time>2026-05-02T14:42:36.987Z</time></trkpt><trkpt lat="45.885152559335346" lon="9.140455998312438"><ele>248.5</ele><time>2026-05-02T14:42:37.987Z</time></trkpt><trkpt lat="45.885048114438845" lon="9.140331087690607"><ele>251.75</ele><time>2026-05-02T14:42:38.987Z</time></trkpt><trkpt lat="45.88494634900455" lon="9.140207399959518"><ele>255.0</ele><time>2026-05-02T14:42:39.987Z</time></trkpt><trkpt lat="45.88484283373381" lon="9.140080358621619"><ele>255.0</ele><time>2026-05-02T14:42:40.987Z</time></trkpt><trkpt lat="45.88474754675321" lon="9.139954236310105"><ele>255.0</ele><time>2026-05-02T14:42:41.987Z</time></trkpt><trkpt lat="45.88467520903208" lon="9.13978398676494"><ele>255.0</ele><time>2026-05-02T14:42:42.987Z</time></trkpt><trkpt lat="45.88458946171874" lon="9.139670303177278"><ele>255.0</ele><time>2026-05-02T14:42:43.987Z</time></trkpt><trkpt lat="45.88449639892163" lon="9.13955877360865"><ele>255.5</ele><time>2026-05-02T14:42:44.987Z</time></trkpt><trkpt lat="45.88440012060315" lon="9.139445746992639"><ele>256.0</ele><time>2026-05-02T14:42:45.987Z</time></trkpt><trkpt lat="45.8843080576641" lon="9.139330501777433"><ele>256.5</ele><time>2026-05-02T14:42:46.987Z</time></trkpt><trkpt lat="45.88420914325471" lon="9.139212904145905"><ele>257.0</ele><time>2026-05-02T14:42:47.987Z</time></trkpt><trkpt lat="45.88411644158952" lon="9.139101573071068"><ele>265.5</ele><time>2026-05-02T14:42:48.987Z</time></trkpt><trkpt lat="45.8840242504864" lon="9.13898695072772"><ele>274.0</ele><time>2026-05-02T14:42:49.987Z</time></trkpt><trkpt lat="45.88393010368729" lon="9.138876636536349"><ele>282.5</ele><time>2026-05-02T14:42:50.987Z</time></trkpt><trkpt lat="45.88383588262096" lon="9.138764297391901"><ele>291.0</ele><time>2026-05-02T14:42:51.987Z</time></trkpt><trkpt lat="45.88374109113983" lon="9.13864947474441"><ele>291.0</ele><time>2026-05-02T14:42:52.987Z</time></trkpt><trkpt lat="45.883655291650385" lon="9.138538494200663"><ele>291.0</ele><time>2026-05-02T14:42:53.987Z</time></trkpt><trkpt lat="45.88357414842651" lon="9.138434575395994"><ele>291.0</ele><time>2026-05-02T14:42:54.987Z</time></trkpt><trkpt lat="45.883482331777245" lon="9.138329110977637"><ele>291.0</ele><time>2026-05-02T14:42:55.987Z</time></trkpt><trkpt lat="45.883385779258944" lon="9.138223435368209"><ele>287.5</ele><time>2026-05-02T14:42:56.987Z</time></trkpt><trkpt lat="45.88329764075966" lon="9.138117577516612"><ele>284.0</ele><time>2026-05-02T14:42:57.987Z</time></trkpt><trkpt lat="45.88320104318009" lon="9.138000521463594"><ele>280.5</ele><time>2026-05-02T14:42:58.987Z</time></trkpt><trkpt lat="45.883100200788455" lon="9.137884063595886"><ele>277.0</ele><time>2026-05-02T14:42:59.987Z</time></trkpt><trkpt lat="45.88299803669974" lon="9.137762915051928"><ele>277.0</ele><time>2026-05-02T14:43:00.987Z</time></trkpt><trkpt lat="45.88289334803579" lon="9.137647946849919"><ele>277.0</ele><time>2026-05-02T14:43:01.987Z</time></trkpt><trkpt lat="45.88278312760684" lon="9.137532995038132"><ele>277.0</ele><time>2026-05-02T14:43:02.987Z</time></trkpt><trkpt lat="45.882658949868635" lon="9.137431331500288"><ele>277.0</ele><time>2026-05-02T14:43:03.987Z</time></trkpt><trkpt lat="45.88252745321456" lon="9.137333578570964"><ele>277.3333333333333</ele><time>2026-05-02T14:43:04.987Z</time></trkpt><trkpt lat="45.88238992556033" lon="9.137250539324837"><ele>277.6666666666667</ele><time>2026-05-02T14:43:05.987Z</time></trkpt><trkpt lat="45.882238680207315" lon="9.137184298094837"><ele>278.0</ele><time>2026-05-02T14:43:06.987Z</time></trkpt><trkpt lat="45.882089727661" lon="9.137113097941807"><ele>278.0</ele><time>2026-05-02T14:43:07.987Z</time></trkpt><trkpt lat="45.8819443582363" lon="9.137042390993004"><ele>278.0</ele><time>2026-05-02T14:43:08.987Z</time></trkpt><trkpt lat="45.88180838623354" lon="9.136972974984053"><ele>278.0</ele><time>2026-05-02T14:43:09.987Z</time></trkpt><trkpt lat="45.881684778294165" lon="9.13690005395389"><ele>278.0</ele><time>2026-05-02T14:43:10.987Z</time></trkpt><trkpt lat="45.881562335103894" lon="9.13683743136902"><ele>275.25</ele><time>2026-05-02T14:43:11.987Z</time></trkpt><trkpt lat="45.88144490280365" lon="9.1367791183229"><ele>272.5</ele><time>2026-05-02T14:43:12.987Z</time></trkpt><trkpt lat="45.8813277858445" lon="9.136722478956628"><ele>269.75</ele><time>2026-05-02T14:43:13.988Z</time></trkpt><trkpt lat="45.881228044030955" lon="9.13667077524343"><ele>267.0</ele><time>2026-05-02T14:43:14.988Z</time></trkpt><trkpt lat="45.88113167777782" lon="9.136614772527839"><ele>267.0</ele><time>2026-05-02T14:43:15.988Z</time></trkpt><trkpt lat="45.88103154633505" lon="9.13655783101573"><ele>267.0</ele><time>2026-05-02T14:43:16.988Z</time></trkpt><trkpt lat="45.88094181793686" lon="9.136504181089864"><ele>267.0</ele><time>2026-05-02T14:43:17.988Z</time></trkpt><trkpt lat="45.8808564162338" lon="9.13644215236533"><ele>267.0</ele><time>2026-05-02T14:43:18.985Z</time></trkpt><trkpt lat="45.88076054164491" lon="9.136413793138948"><ele>267.0</ele><time>2026-05-02T14:43:19.985Z</time></trkpt><trkpt lat="45.880686399623194" lon="9.136308123963264"><ele>269.4</ele><time>2026-05-02T14:43:20.985Z</time></trkpt><trkpt lat="45.880588707367984" lon="9.136258102633985"><ele>271.79999999999995</ele><time>2026-05-02T14:43:21.986Z</time></trkpt><trkpt lat="45.88048575611542" lon="9.136205582645383"><ele>274.2</ele><time>2026-05-02T14:43:22.986Z</time></trkpt><trkpt lat="45.88038132660327" lon="9.136156231040482"><ele>276.59999999999997</ele><time>2026-05-02T14:43:23.986Z</time></trkpt><trkpt lat="45.8802704484431" lon="9.136100585595038"><ele>279.0</ele><time>2026-05-02T14:43:24.986Z</time></trkpt><trkpt lat="45.88015731946774" lon="9.136043795652759"><ele>275.5</ele><time>2026-05-02T14:43:25.986Z</time></trkpt><trkpt lat="45.880040734284705" lon="9.135987976680902"><ele>272.0</ele><time>2026-05-02T14:43:26.986Z</time></trkpt><trkpt lat="45.87992312559715" lon="9.135927036537556"><ele>268.5</ele><time>2026-05-02T14:43:27.985Z</time></trkpt><trkpt lat="45.87980619889136" lon="9.135871410615348"><ele>265.0</ele><time>2026-05-02T14:43:28.986Z</time></trkpt><trkpt lat="45.87969041560025" lon="9.135807666604881"><ele>265.0</ele><time>2026-05-02T14:43:29.986Z</time></trkpt><trkpt lat="45.879573815151254" lon="9.135742517805658"><ele>265.0</ele><time>2026-05-02T14:43:30.986Z</time></trkpt><trkpt lat="45.87945443388112" lon="9.135680731367872"><ele>265.0</ele><time>2026-05-02T14:43:31.986Z</time></trkpt><trkpt lat="45.87934315107494" lon="9.135614449352714"><ele>265.0</ele><time>2026-05-02T14:43:32.986Z</time></trkpt><trkpt lat="45.879240934391845" lon="9.135542476405965"><ele>265.5</ele><time>2026-05-02T14:43:33.986Z</time></trkpt><trkpt lat="45.87914508665714" lon="9.135459907865087"><ele>266.0</ele><time>2026-05-02T14:43:34.986Z</time></trkpt><trkpt lat="45.87905236071117" lon="9.135357672349972"><ele>266.5</ele><time>2026-05-02T14:43:35.986Z</time></trkpt><trkpt lat="45.87896678097572" lon="9.13524104984499"><ele>267.0</ele><time>2026-05-02T14:43:36.986Z</time></trkpt><trkpt lat="45.878883571047496" lon="9.135110859505733"><ele>267.0</ele><time>2026-05-02T14:43:37.986Z</time></trkpt><trkpt lat="45.87880404291231" lon="9.134974079388188"><ele>267.0</ele><time>2026-05-02T14:43:38.986Z</time></trkpt><trkpt lat="45.87872565924255" lon="9.134829318489658"><ele>267.0</ele><time>2026-05-02T14:43:39.986Z</time></trkpt><trkpt lat="45.878645433320045" lon="9.134687448992405"><ele>267.0</ele><time>2026-05-02T14:43:40.986Z</time></trkpt><trkpt lat="45.87856809573245" lon="9.134546544422545"><ele>266.0</ele><time>2026-05-02T14:43:41.986Z</time></trkpt><trkpt lat="45.878491191931516" lon="9.134413117022023"><ele>265.0</ele><time>2026-05-02T14:43:42.986Z</time></trkpt><trkpt lat="45.87844965097036" lon="9.134233148334022"><ele>264.0</ele><time>2026-05-02T14:43:43.986Z</time></trkpt><trkpt lat="45.87838617998398" lon="9.134118472391755"><ele>263.0</ele><time>2026-05-02T14:43:44.986Z</time></trkpt><trkpt lat="45.87832447805029" lon="9.1340056505489"><ele>268.2</ele><time>2026-05-02T14:43:45.986Z</time></trkpt><trkpt lat="45.878260997730116" lon="9.133898719833127"><ele>273.4</ele><time>2026-05-02T14:43:46.986Z</time></trkpt><trkpt lat="45.8781938427074" lon="9.13378355916422"><ele>278.59999999999997</ele><time>2026-05-02T14:43:47.986Z</time></trkpt><trkpt lat="45.878135849534026" lon="9.133661305402743"><ele>283.8</ele><time>2026-05-02T14:43:48.986Z</time></trkpt><trkpt lat="45.878078843771604" lon="9.133553526639869"><ele>289.0</ele><time>2026-05-02T14:43:49.986Z</time></trkpt><trkpt lat="45.878019691520045" lon="9.13345137375977"><ele>289.0</ele><time>2026-05-02T14:43:50.986Z</time></trkpt><trkpt lat="45.877967238027935" lon="9.133352215866397"><ele>289.0</ele><time>2026-05-02T14:43:51.986Z</time></trkpt><trkpt lat="45.87791524969676" lon="9.133254855755883"><ele>289.0</ele><time>2026-05-02T14:43:52.986Z</time></trkpt><trkpt lat="45.87786194588729" lon="9.133156788836137"><ele>289.0</ele><time>2026-05-02T14:43:53.986Z</time></trkpt><trkpt lat="45.877806463747476" lon="9.133056932433897"><ele>289.0</ele><time>2026-05-02T14:43:54.986Z</time></trkpt><trkpt lat="45.87775100419621" lon="9.132956303294998"><ele>289.0</ele><time>2026-05-02T14:43:55.986Z</time></trkpt><trkpt lat="45.87769277746917" lon="9.132849841289168"><ele>287.59999999999997</ele><time>2026-05-02T14:43:56.986Z</time></trkpt><trkpt lat="45.87762916818538" lon="9.132738107181458"><ele>286.2</ele><time>2026-05-02T14:43:57.986Z</time></trkpt><trkpt lat="45.87756771046027" lon="9.132617755084755"><ele>284.79999999999995</ele><time>2026-05-02T14:43:58.986Z</time></trkpt><trkpt lat="45.8774995131453" lon="9.132492845620845"><ele>283.4</ele><time>2026-05-02T14:43:59.986Z</time></trkpt><trkpt lat="45.87742830970269" lon="9.1323700483596"><ele>282.0</ele><time>2026-05-02T14:44:00.986Z</time></trkpt><trkpt lat="45.87735667736275" lon="9.132241985559677"><ele>282.0</ele><time>2026-05-02T14:44:01.986Z</time></trkpt><trkpt lat="45.87728269198433" lon="9.132100827012263"><ele>282.0</ele><time>2026-05-02T14:44:02.986Z</time></trkpt><trkpt lat="45.87720461276786" lon="9.131954610938129"><ele>282.0</ele><time>2026-05-02T14:44:03.986Z</time></trkpt><trkpt lat="45.87712095766817" lon="9.13180800137503"><ele>282.0</ele><time>2026-05-02T14:44:04.986Z</time></trkpt><trkpt lat="45.87704321713416" lon="9.131655432849414"><ele>279.25</ele><time>2026-05-02T14:44:05.986Z</time></trkpt><trkpt lat="45.87695906091286" lon="9.131503990202253"><ele>276.5</ele><time>2026-05-02T14:44:06.986Z</time></trkpt><trkpt lat="45.87686810233633" lon="9.131355983192444"><ele>273.75</ele><time>2026-05-02T14:44:07.986Z</time></trkpt><trkpt lat="45.876781568311515" lon="9.13120556767261"><ele>271.0</ele><time>2026-05-02T14:44:08.986Z</time></trkpt><trkpt lat="45.876689147928076" lon="9.13105455954394"><ele>271.0</ele><time>2026-05-02T14:44:09.986Z</time></trkpt><trkpt lat="45.8766019822807" lon="9.130902207525537"><ele>271.0</ele><time>2026-05-02T14:44:10.986Z</time></trkpt><trkpt lat="45.87651466027715" lon="9.130753547305186"><ele>271.0</ele><time>2026-05-02T14:44:11.986Z</time></trkpt><trkpt lat="45.87642717941562" lon="9.130606349539955"><ele>271.0</ele><time>2026-05-02T14:44:12.986Z</time></trkpt><trkpt lat="45.87634215886905" lon="9.130464776959748"><ele>275.25</ele><time>2026-05-02T14:44:13.986Z</time></trkpt><trkpt lat="45.876250791955165" lon="9.130321143539087"><ele>279.5</ele><time>2026-05-02T14:44:14.986Z</time></trkpt><trkpt lat="45.87615751960863" lon="9.130174781559642"><ele>283.75</ele><time>2026-05-02T14:44:15.986Z</time></trkpt><trkpt lat="45.87606406313695" lon="9.130027717531142"><ele>288.0</ele><time>2026-05-02T14:44:16.986Z</time></trkpt><trkpt lat="45.875972429920544" lon="9.129878286796293"><ele>286.75</ele><time>2026-05-02T14:44:17.986Z</time></trkpt><trkpt lat="45.875878166975625" lon="9.129732589630818"><ele>285.5</ele><time>2026-05-02T14:44:18.986Z</time></trkpt><trkpt lat="45.87578546579966" lon="9.129586341803366"><ele>284.25</ele><time>2026-05-02T14:44:19.986Z</time></trkpt><trkpt lat="45.875695959867635" lon="9.129436398833851"><ele>283.0</ele><time>2026-05-02T14:44:20.986Z</time></trkpt><trkpt lat="45.87561513066216" lon="9.129282663242346"><ele>283.0</ele><time>2026-05-02T14:44:21.986Z</time></trkpt><trkpt lat="45.875534987131985" lon="9.129123641148498"><ele>283.0</ele><time>2026-05-02T14:44:22.986Z</time></trkpt><trkpt lat="45.87546189949944" lon="9.128952059132441"><ele>283.0</ele><time>2026-05-02T14:44:23.986Z</time></trkpt><trkpt lat="45.87539275996785" lon="9.12876719641572"><ele>283.0</ele><time>2026-05-02T14:44:24.986Z</time></trkpt><trkpt lat="45.87531886845316" lon="9.128574848643108"><ele>282.25</ele><time>2026-05-02T14:44:25.987Z</time></trkpt><trkpt lat="45.87525028661428" lon="9.128382317162025"><ele>281.5</ele><time>2026-05-02T14:44:26.987Z</time></trkpt><trkpt lat="45.87517941265167" lon="9.128202237344684"><ele>280.75</ele><time>2026-05-02T14:44:27.987Z</time></trkpt><trkpt lat="45.875112601237696" lon="9.12802536095821"><ele>280.0</ele><time>2026-05-02T14:44:28.987Z</time></trkpt><trkpt lat="45.87504429420383" lon="9.12784604220178"><ele>280.0</ele><time>2026-05-02T14:44:29.987Z</time></trkpt><trkpt lat="45.8749819589394" lon="9.127670878210994"><ele>280.0</ele><time>2026-05-02T14:44:30.987Z</time></trkpt><trkpt lat="45.87492164797342" lon="9.127501798288323"><ele>280.0</ele><time>2026-05-02T14:44:31.987Z</time></trkpt><trkpt lat="45.87486058905607" lon="9.127338244938485"><ele>280.0</ele><time>2026-05-02T14:44:32.987Z</time></trkpt><trkpt lat="45.87480008210616" lon="9.127172890225685"><ele>286.75</ele><time>2026-05-02T14:44:33.987Z</time></trkpt><trkpt lat="45.8747387241893" lon="9.127016160033824"><ele>293.5</ele><time>2026-05-02T14:44:34.987Z</time></trkpt><trkpt lat="45.87468178908656" lon="9.126862768651604"><ele>300.25</ele><time>2026-05-02T14:44:35.987Z</time></trkpt><trkpt lat="45.87461612275743" lon="9.126705263330962"><ele>307.0</ele><time>2026-05-02T14:44:36.987Z</time></trkpt><trkpt lat="45.87455810626696" lon="9.126552692474604"><ele>314.0</ele><time>2026-05-02T14:44:37.987Z</time></trkpt><trkpt lat="45.874495180739935" lon="9.126397223472381"><ele>321.0</ele><time>2026-05-02T14:44:38.987Z</time></trkpt><trkpt lat="45.87443373418779" lon="9.12623827564657"><ele>328.0</ele><time>2026-05-02T14:44:39.987Z</time></trkpt><trkpt lat="45.87437131534253" lon="9.126076105808446"><ele>335.0</ele><time>2026-05-02T14:44:40.987Z</time></trkpt><trkpt lat="45.87430556942128" lon="9.125905645827972"><ele>327.75</ele><time>2026-05-02T14:44:41.987Z</time></trkpt><trkpt lat="45.87423618529125" lon="9.12572870452866"><ele>320.5</ele><time>2026-05-02T14:44:42.987Z</time></trkpt><trkpt lat="45.874164424018986" lon="9.125556238026478"><ele>313.25</ele><time>2026-05-02T14:44:43.987Z</time></trkpt><trkpt lat="45.87409529387884" lon="9.125385825837688"><ele>306.0</ele><time>2026-05-02T14:44:44.987Z</time></trkpt><trkpt lat="45.87402263080033" lon="9.125215530021315"><ele>306.0</ele><time>2026-05-02T14:44:45.987Z</time></trkpt><trkpt lat="45.87395188097046" lon="9.12503701336499"><ele>306.0</ele><time>2026-05-02T14:44:46.987Z</time></trkpt><trkpt lat="45.873881644838455" lon="9.124862172943608"><ele>306.0</ele><time>2026-05-02T14:44:47.987Z</time></trkpt><trkpt lat="45.873806627652" lon="9.12468425850294"><ele>306.0</ele><time>2026-05-02T14:44:48.987Z</time></trkpt><trkpt lat="45.873744372106614" lon="9.12449474644628"><ele>309.0</ele><time>2026-05-02T14:44:49.987Z</time></trkpt><trkpt lat="45.87365607226922" lon="9.12432779861235"><ele>312.0</ele><time>2026-05-02T14:44:50.987Z</time></trkpt><trkpt lat="45.873563126322246" lon="9.12417197326494"><ele>315.0</ele><time>2026-05-02T14:44:51.987Z</time></trkpt><trkpt lat="45.87346024344825" lon="9.124044845372786"><ele>318.0</ele><time>2026-05-02T14:44:52.987Z</time></trkpt><trkpt lat="45.873381812327096" lon="9.12389263858173"><ele>318.0</ele><time>2026-05-02T14:44:53.987Z</time></trkpt><trkpt lat="45.873300577800585" lon="9.123762339862564"><ele>318.0</ele><time>2026-05-02T14:44:54.987Z</time></trkpt><trkpt lat="45.87322390976081" lon="9.123637714971677"><ele>318.0</ele><time>2026-05-02T14:44:55.987Z</time></trkpt><trkpt lat="45.87314590320692" lon="9.12350794909703"><ele>318.0</ele><time>2026-05-02T14:44:56.987Z</time></trkpt><trkpt lat="45.873069627178545" lon="9.123379470391713"><ele>318.0</ele><time>2026-05-02T14:44:57.987Z</time></trkpt><trkpt lat="45.87299108786041" lon="9.123248924056776"><ele>318.0</ele><time>2026-05-02T14:44:58.987Z</time></trkpt><trkpt lat="45.87291730811997" lon="9.123124645681637"><ele>318.0</ele><time>2026-05-02T14:44:59.987Z</time></trkpt><trkpt lat="45.872838481300015" lon="9.1229996520323"><ele>318.0</ele><time>2026-05-02T14:45:00.987Z</time></trkpt><trkpt lat="45.87276385041265" lon="9.122878821260015"><ele>318.75</ele><time>2026-05-02T14:45:01.987Z</time></trkpt><trkpt lat="45.872682019027344" lon="9.122749132253215"><ele>319.5</ele><time>2026-05-02T14:45:02.987Z</time></trkpt><trkpt lat="45.872597690170444" lon="9.122612225904314"><ele>320.25</ele><time>2026-05-02T14:45:03.987Z</time></trkpt><trkpt lat="45.87252356676805" lon="9.122470249797733"><ele>321.0</ele><time>2026-05-02T14:45:04.987Z</time></trkpt><trkpt lat="45.872453476008076" lon="9.122318514017431"><ele>321.0</ele><time>2026-05-02T14:45:05.987Z</time></trkpt><trkpt lat="45.87238807481828" lon="9.122194324726394"><ele>321.0</ele><time>2026-05-02T14:45:06.987Z</time></trkpt><trkpt lat="45.87232424539255" lon="9.122066788883297"><ele>321.0</ele><time>2026-05-02T14:45:07.987Z</time></trkpt><trkpt lat="45.872253491035295" lon="9.121932328648414"><ele>321.0</ele><time>2026-05-02T14:45:08.987Z</time></trkpt><trkpt lat="45.87218299393924" lon="9.12179213466131"><ele>321.0</ele><time>2026-05-02T14:45:09.987Z</time></trkpt><trkpt lat="45.87211375599993" lon="9.121649230147808"><ele>321.0</ele><time>2026-05-02T14:45:10.987Z</time></trkpt><trkpt lat="45.872049222754626" lon="9.121512231322132"><ele>321.0</ele><time>2026-05-02T14:45:11.987Z</time></trkpt><trkpt lat="45.87199127459781" lon="9.121382369919278"><ele>321.0</ele><time>2026-05-02T14:45:12.987Z</time></trkpt><trkpt lat="45.87192864859094" lon="9.121249362309472"><ele>324.25</ele><time>2026-05-02T14:45:13.987Z</time></trkpt><trkpt lat="45.871852179765334" lon="9.121112521311582"><ele>327.5</ele><time>2026-05-02T14:45:14.987Z</time></trkpt><trkpt lat="45.8717676307587" lon="9.120976531751353"><ele>330.75</ele><time>2026-05-02T14:45:15.987Z</time></trkpt><trkpt lat="45.871679345980695" lon="9.120848459496983"><ele>334.0</ele><time>2026-05-02T14:45:16.987Z</time></trkpt><trkpt lat="45.87159275729569" lon="9.120732241937977"><ele>327.5</ele><time>2026-05-02T14:45:17.987Z</time></trkpt><trkpt lat="45.87151393230071" lon="9.120619122653249"><ele>321.0</ele><time>2026-05-02T14:45:18.987Z</time></trkpt><trkpt lat="45.87143915087235" lon="9.120506798527108"><ele>314.5</ele><time>2026-05-02T14:45:19.987Z</time></trkpt><trkpt lat="45.87135806248916" lon="9.120392293247926"><ele>308.0</ele><time>2026-05-02T14:45:20.987Z</time></trkpt><trkpt lat="45.87127897624816" lon="9.120259558281782"><ele>308.0</ele><time>2026-05-02T14:45:21.987Z</time></trkpt><trkpt lat="45.871218567238365" lon="9.120121390276909"><ele>308.0</ele><time>2026-05-02T14:45:22.987Z</time></trkpt><trkpt lat="45.87118198956962" lon="9.119952714752865"><ele>308.0</ele><time>2026-05-02T14:45:23.987Z</time></trkpt><trkpt lat="45.87115026325918" lon="9.11979673079619"><ele>308.0</ele><time>2026-05-02T14:45:24.986Z</time></trkpt><trkpt lat="45.87114216239138" lon="9.11963132899895"><ele>310.0</ele><time>2026-05-02T14:45:25.986Z</time></trkpt><trkpt lat="45.87113672532222" lon="9.119479372456382"><ele>312.0</ele><time>2026-05-02T14:45:26.986Z</time></trkpt><trkpt lat="45.871133557485024" lon="9.11933405579989"><ele>314.0</ele><time>2026-05-02T14:45:27.986Z</time></trkpt><trkpt lat="45.8711274792027" lon="9.119175901802361"><ele>316.0</ele><time>2026-05-02T14:45:28.986Z</time></trkpt><trkpt lat="45.871127888204235" lon="9.119014959672594"><ele>318.0</ele><time>2026-05-02T14:45:29.986Z</time></trkpt><trkpt lat="45.87111596285177" lon="9.118851923629885"><ele>320.75</ele><time>2026-05-02T14:45:30.986Z</time></trkpt><trkpt lat="45.87109313553329" lon="9.118686901167642"><ele>323.5</ele><time>2026-05-02T14:45:31.986Z</time></trkpt><trkpt lat="45.8710641484581" lon="9.118516236248386"><ele>326.25</ele><time>2026-05-02T14:45:32.986Z</time></trkpt><trkpt lat="45.87101597072239" lon="9.11834730195541"><ele>329.0</ele><time>2026-05-02T14:45:33.986Z</time></trkpt><trkpt lat="45.87095362173699" lon="9.118179815612049"><ele>323.25</ele><time>2026-05-02T14:45:34.985Z</time></trkpt><trkpt lat="45.87087597383629" lon="9.118018115523341"><ele>317.5</ele><time>2026-05-02T14:45:35.985Z</time></trkpt><trkpt lat="45.87078976045338" lon="9.117854088668844"><ele>311.75</ele><time>2026-05-02T14:45:36.985Z</time></trkpt><trkpt lat="45.87070294248094" lon="9.117689933658694"><ele>306.0</ele><time>2026-05-02T14:45:37.986Z</time></trkpt><trkpt lat="45.87061623358502" lon="9.117529419020787"><ele>308.25</ele><time>2026-05-02T14:45:38.986Z</time></trkpt><trkpt lat="45.87053381470617" lon="9.117369673607469"><ele>310.5</ele><time>2026-05-02T14:45:39.986Z</time></trkpt><trkpt lat="45.87045760519585" lon="9.117217933723085"><ele>312.75</ele><time>2026-05-02T14:45:40.986Z</time></trkpt><trkpt lat="45.87038968045324" lon="9.117076790395394"><ele>315.0</ele><time>2026-05-02T14:45:41.986Z</time></trkpt><trkpt lat="45.870336795202974" lon="9.116943031150457"><ele>315.0</ele><time>2026-05-02T14:45:42.986Z</time></trkpt><trkpt lat="45.870291287067374" lon="9.116805547904423"><ele>315.0</ele><time>2026-05-02T14:45:43.986Z</time></trkpt><trkpt lat="45.87026451958172" lon="9.116657511265169"><ele>315.0</ele><time>2026-05-02T14:45:44.986Z</time></trkpt><trkpt lat="45.87024793886642" lon="9.116503642740405"><ele>315.0</ele><time>2026-05-02T14:45:45.986Z</time></trkpt><trkpt lat="45.87024720362707" lon="9.116348294182378"><ele>315.0</ele><time>2026-05-02T14:45:46.986Z</time></trkpt><trkpt lat="45.870253070679624" lon="9.116183396212449"><ele>316.0</ele><time>2026-05-02T14:45:47.986Z</time></trkpt><trkpt lat="45.87027010263162" lon="9.116012621136063"><ele>317.0</ele><time>2026-05-02T14:45:48.986Z</time></trkpt><trkpt lat="45.870296062165096" lon="9.115839731721511"><ele>318.0</ele><time>2026-05-02T14:45:49.986Z</time></trkpt><trkpt lat="45.8703171719844" lon="9.11565998969556"><ele>319.0</ele><time>2026-05-02T14:45:50.986Z</time></trkpt><trkpt lat="45.870334842690625" lon="9.1154807331692"><ele>319.0</ele><time>2026-05-02T14:45:51.986Z</time></trkpt><trkpt lat="45.870337579220745" lon="9.115302870870424"><ele>319.0</ele><time>2026-05-02T14:45:52.986Z</time></trkpt><trkpt lat="45.87032709119677" lon="9.115134908776119"><ele>319.0</ele><time>2026-05-02T14:45:53.986Z</time></trkpt><trkpt lat="45.8703035096173" lon="9.114971331674347"><ele>319.0</ele><time>2026-05-02T14:45:54.986Z</time></trkpt><trkpt lat="45.870256214447366" lon="9.114799844488095"><ele>318.25</ele><time>2026-05-02T14:45:55.986Z</time></trkpt><trkpt lat="45.87019527068538" lon="9.114646451500795"><ele>317.5</ele><time>2026-05-02T14:45:56.986Z</time></trkpt><trkpt lat="45.87011030790478" lon="9.114496547963707"><ele>316.75</ele><time>2026-05-02T14:45:57.986Z</time></trkpt><trkpt lat="45.870011447124305" lon="9.114363547555403"><ele>316.0</ele><time>2026-05-02T14:45:58.986Z</time></trkpt><trkpt lat="45.86990131130555" lon="9.114250629659281"><ele>312.75</ele><time>2026-05-02T14:45:59.986Z</time></trkpt><trkpt lat="45.8697794997313" lon="9.11416101701306"><ele>309.5</ele><time>2026-05-02T14:46:00.986Z</time></trkpt><trkpt lat="45.86964712867488" lon="9.114100598769374"><ele>306.25</ele><time>2026-05-02T14:46:01.986Z</time></trkpt><trkpt lat="45.86951488603982" lon="9.114053976227664"><ele>303.0</ele><time>2026-05-02T14:46:02.986Z</time></trkpt><trkpt lat="45.869384776597926" lon="9.114003202384279"><ele>306.0</ele><time>2026-05-02T14:46:03.986Z</time></trkpt><trkpt lat="45.86925453812459" lon="9.113951389412762"><ele>309.0</ele><time>2026-05-02T14:46:04.986Z</time></trkpt><trkpt lat="45.86912385775071" lon="9.113898793516142"><ele>312.0</ele><time>2026-05-02T14:46:05.986Z</time></trkpt><trkpt lat="45.86900429901428" lon="9.113839918414731"><ele>315.0</ele><time>2026-05-02T14:46:06.986Z</time></trkpt><trkpt lat="45.86889131937795" lon="9.113772936890172"><ele>315.0</ele><time>2026-05-02T14:46:07.986Z</time></trkpt><trkpt lat="45.86877678496863" lon="9.113690442810734"><ele>315.0</ele><time>2026-05-02T14:46:08.986Z</time></trkpt><trkpt lat="45.86867408997983" lon="9.113579863470424"><ele>315.0</ele><time>2026-05-02T14:46:09.986Z</time></trkpt><trkpt lat="45.868587014188776" lon="9.113443618170699"><ele>315.0</ele><time>2026-05-02T14:46:10.986Z</time></trkpt><trkpt lat="45.8685061257757" lon="9.11329917630212"><ele>313.0</ele><time>2026-05-02T14:46:11.986Z</time></trkpt><trkpt lat="45.86843990805213" lon="9.113136607596386"><ele>311.0</ele><time>2026-05-02T14:46:12.986Z</time></trkpt><trkpt lat="45.86837748733314" lon="9.112966249769029"><ele>309.0</ele><time>2026-05-02T14:46:13.986Z</time></trkpt><trkpt lat="45.868316516672394" lon="9.112790152045685"><ele>307.0</ele><time>2026-05-02T14:46:14.986Z</time></trkpt><trkpt lat="45.86825319137093" lon="9.112617068956604"><ele>307.0</ele><time>2026-05-02T14:46:15.986Z</time></trkpt><trkpt lat="45.868191813502" lon="9.112444798668431"><ele>307.0</ele><time>2026-05-02T14:46:16.986Z</time></trkpt><trkpt lat="45.868131473264114" lon="9.112272814857674"><ele>307.0</ele><time>2026-05-02T14:46:17.986Z</time></trkpt><trkpt lat="45.868072899607554" lon="9.11209499817113"><ele>307.0</ele><time>2026-05-02T14:46:18.986Z</time></trkpt><trkpt lat="45.868009797496235" lon="9.111922977555245"><ele>313.5</ele><time>2026-05-02T14:46:19.986Z</time></trkpt><trkpt lat="45.86794972393819" lon="9.11175447759011"><ele>320.0</ele><time>2026-05-02T14:46:20.986Z</time></trkpt><trkpt lat="45.86789246657192" lon="9.11158580715107"><ele>326.5</ele><time>2026-05-02T14:46:21.986Z</time></trkpt><trkpt lat="45.867831083123036" lon="9.11141797703751"><ele>333.0</ele><time>2026-05-02T14:46:22.986Z</time></trkpt><trkpt lat="45.86775636102077" lon="9.111257956996983"><ele>332.5</ele><time>2026-05-02T14:46:23.986Z</time></trkpt><trkpt lat="45.8676696930827" lon="9.11110598649774"><ele>332.0</ele><time>2026-05-02T14:46:24.986Z</time></trkpt><trkpt lat="45.867577140341346" lon="9.110960627376077"><ele>331.5</ele><time>2026-05-02T14:46:25.986Z</time></trkpt><trkpt lat="45.867475430048046" lon="9.110824619447282"><ele>331.0</ele><time>2026-05-02T14:46:26.986Z</time></trkpt><trkpt lat="45.86737033187076" lon="9.110689182071372"><ele>331.0</ele><time>2026-05-02T14:46:27.986Z</time></trkpt><trkpt lat="45.867272746464536" lon="9.110556748768776"><ele>331.0</ele><time>2026-05-02T14:46:28.986Z</time></trkpt><trkpt lat="45.86718652612552" lon="9.110412992414572"><ele>331.0</ele><time>2026-05-02T14:46:29.986Z</time></trkpt><trkpt lat="45.86710569643342" lon="9.110261436511177"><ele>331.0</ele><time>2026-05-02T14:46:30.987Z</time></trkpt><trkpt lat="45.86703734387094" lon="9.110093958094462"><ele>337.25</ele><time>2026-05-02T14:46:31.987Z</time></trkpt><trkpt lat="45.86697520558479" lon="9.109906931855699"><ele>343.5</ele><time>2026-05-02T14:46:32.987Z</time></trkpt><trkpt lat="45.86691047512291" lon="9.109724000042908"><ele>349.75</ele><time>2026-05-02T14:46:33.987Z</time></trkpt><trkpt lat="45.86684687924753" lon="9.109524455153421"><ele>356.0</ele><time>2026-05-02T14:46:34.987Z</time></trkpt><trkpt lat="45.866783431699915" lon="9.109320787603323"><ele>346.75</ele><time>2026-05-02T14:46:35.987Z</time></trkpt><trkpt lat="45.86671188149808" lon="9.1091223739285"><ele>337.5</ele><time>2026-05-02T14:46:36.987Z</time></trkpt><trkpt lat="45.866630795361274" lon="9.108942438901039"><ele>328.25</ele><time>2026-05-02T14:46:37.987Z</time></trkpt><trkpt lat="45.8665474486666" lon="9.108784957960996"><ele>319.0</ele><time>2026-05-02T14:46:38.987Z</time></trkpt><trkpt lat="45.86647611621511" lon="9.108647906189889"><ele>319.0</ele><time>2026-05-02T14:46:39.987Z</time></trkpt><trkpt lat="45.866404452337214" lon="9.108528699814912"><ele>319.0</ele><time>2026-05-02T14:46:40.987Z</time></trkpt><trkpt lat="45.866331741566796" lon="9.108415725962622"><ele>319.0</ele><time>2026-05-02T14:46:41.987Z</time></trkpt><trkpt lat="45.866271337517354" lon="9.108308849873893"><ele>319.0</ele><time>2026-05-02T14:46:42.987Z</time></trkpt><trkpt lat="45.86621471628281" lon="9.108203474658715"><ele>319.0</ele><time>2026-05-02T14:46:43.987Z</time></trkpt><trkpt lat="45.86615555918808" lon="9.108103513321314"><ele>322.66666666666663</ele><time>2026-05-02T14:46:44.987Z</time></trkpt><trkpt lat="45.866098711205495" lon="9.108009633800764"><ele>326.3333333333333</ele><time>2026-05-02T14:46:45.987Z</time></trkpt><trkpt lat="45.866044124727225" lon="9.107919800811835"><ele>330.0</ele><time>2026-05-02T14:46:46.987Z</time></trkpt><trkpt lat="45.86599138265392" lon="9.107839644717794"><ele>333.6666666666667</ele><time>2026-05-02T14:46:47.987Z</time></trkpt><trkpt lat="45.86594056369074" lon="9.107755572300617"><ele>337.33333333333337</ele><time>2026-05-02T14:46:48.987Z</time></trkpt><trkpt lat="45.86589180321921" lon="9.107675653467995"><ele>341.0</ele><time>2026-05-02T14:46:49.987Z</time></trkpt><trkpt lat="45.86584496449974" lon="9.107604175147769"><ele>338.1666666666667</ele><time>2026-05-02T14:46:50.987Z</time></trkpt><trkpt lat="45.8658012519671" lon="9.10753755262655"><ele>335.33333333333337</ele><time>2026-05-02T14:46:51.987Z</time></trkpt><trkpt lat="45.86580305145873" lon="9.107445480982273"><ele>332.5</ele><time>2026-05-02T14:46:52.987Z</time></trkpt><trkpt lat="45.86574681141747" lon="9.107353423248435"><ele>329.6666666666667</ele><time>2026-05-02T14:46:55.987Z</time></trkpt><trkpt lat="45.86566519465124" lon="9.107210363971587"><ele>326.8333333333333</ele><time>2026-05-02T14:46:57.987Z</time></trkpt><trkpt lat="45.86561997486494" lon="9.10712885888895"><ele>324.0</ele><time>2026-05-02T14:46:58.987Z</time></trkpt><trkpt lat="45.86556420612202" lon="9.107036882200525"><ele>324.0</ele><time>2026-05-02T14:46:59.987Z</time></trkpt><trkpt lat="45.865503533344814" lon="9.106944041799046"><ele>324.0</ele><time>2026-05-02T14:47:00.987Z</time></trkpt><trkpt lat="45.86544406823101" lon="9.106852980408815"><ele>324.0</ele><time>2026-05-02T14:47:01.987Z</time></trkpt><trkpt lat="45.86538377221673" lon="9.106772142726987"><ele>324.0</ele><time>2026-05-02T14:47:02.987Z</time></trkpt><trkpt lat="45.86531437750753" lon="9.10668749384575"><ele>324.0</ele><time>2026-05-02T14:47:03.987Z</time></trkpt><trkpt lat="45.86525101160158" lon="9.106618588909711"><ele>324.0</ele><time>2026-05-02T14:47:04.987Z</time></trkpt><trkpt lat="45.86519204245773" lon="9.10655169407599"><ele>321.14285714285717</ele><time>2026-05-02T14:47:05.987Z</time></trkpt><trkpt lat="45.86513744365232" lon="9.10648913950808"><ele>318.2857142857143</ele><time>2026-05-02T14:47:06.987Z</time></trkpt><trkpt lat="45.86508499800122" lon="9.10643388000577"><ele>315.42857142857144</ele><time>2026-05-02T14:47:07.987Z</time></trkpt><trkpt lat="45.86503346163393" lon="9.10637464591918"><ele>312.57142857142856</ele><time>2026-05-02T14:47:08.987Z</time></trkpt><trkpt lat="45.864981146087295" lon="9.10631112645664"><ele>309.7142857142857</ele><time>2026-05-02T14:47:09.987Z</time></trkpt><trkpt lat="45.864918471103145" lon="9.106243432537966"><ele>306.85714285714283</ele><time>2026-05-02T14:47:10.987Z</time></trkpt><trkpt lat="45.86485301731619" lon="9.106164890508468"><ele>304.0</ele><time>2026-05-02T14:47:11.987Z</time></trkpt><trkpt lat="45.864784500002855" lon="9.106078501861628"><ele>304.0</ele><time>2026-05-02T14:47:12.987Z</time></trkpt><trkpt lat="45.8647124390905" lon="9.105982392953942"><ele>304.0</ele><time>2026-05-02T14:47:13.987Z</time></trkpt><trkpt lat="45.86464581858316" lon="9.105873170391904"><ele>304.0</ele><time>2026-05-02T14:47:14.987Z</time></trkpt><trkpt lat="45.864584265468125" lon="9.105762420959834"><ele>304.0</ele><time>2026-05-02T14:47:15.987Z</time></trkpt><trkpt lat="45.86452048920162" lon="9.105642274324339"><ele>304.0</ele><time>2026-05-02T14:47:16.987Z</time></trkpt><trkpt lat="45.864459236127956" lon="9.105518817810928"><ele>307.0</ele><time>2026-05-02T14:47:17.987Z</time></trkpt><trkpt lat="45.8643946665509" lon="9.105393355107458"><ele>310.0</ele><time>2026-05-02T14:47:18.987Z</time></trkpt><trkpt lat="45.86432614849865" lon="9.105260834976452"><ele>313.0</ele><time>2026-05-02T14:47:19.987Z</time></trkpt><trkpt lat="45.86425397479905" lon="9.10513307686004"><ele>316.0</ele><time>2026-05-02T14:47:20.987Z</time></trkpt><trkpt lat="45.86419046352577" lon="9.104989382984169"><ele>312.8</ele><time>2026-05-02T14:47:21.987Z</time></trkpt><trkpt lat="45.86412154354639" lon="9.104857947970824"><ele>309.6</ele><time>2026-05-02T14:47:22.987Z</time></trkpt><trkpt lat="45.86405403938922" lon="9.104732938033672"><ele>306.4</ele><time>2026-05-02T14:47:23.987Z</time></trkpt><trkpt lat="45.86399078293717" lon="9.104604948077439"><ele>303.2</ele><time>2026-05-02T14:47:24.987Z</time></trkpt><trkpt lat="45.86392661142835" lon="9.10447844304042"><ele>300.0</ele><time>2026-05-02T14:47:25.987Z</time></trkpt><trkpt lat="45.8638599968191" lon="9.104357359350027"><ele>300.0</ele><time>2026-05-02T14:47:26.987Z</time></trkpt><trkpt lat="45.863796931412224" lon="9.104229991079698"><ele>300.0</ele><time>2026-05-02T14:47:27.987Z</time></trkpt><trkpt lat="45.8637269967517" lon="9.104111697327124"><ele>300.0</ele><time>2026-05-02T14:47:28.987Z</time></trkpt><trkpt lat="45.86366127226463" lon="9.103989882959443"><ele>300.0</ele><time>2026-05-02T14:47:29.987Z</time></trkpt><trkpt lat="45.86359068275759" lon="9.103865197094779"><ele>300.0</ele><time>2026-05-02T14:47:30.986Z</time></trkpt><trkpt lat="45.86351945431146" lon="9.10373674675287"><ele>298.25</ele><time>2026-05-02T14:47:31.985Z</time></trkpt><trkpt lat="45.863445891646094" lon="9.103600719238958"><ele>296.5</ele><time>2026-05-02T14:47:32.985Z</time></trkpt><trkpt lat="45.863375867001" lon="9.103460468948663"><ele>294.75</ele><time>2026-05-02T14:47:33.986Z</time></trkpt><trkpt lat="45.86330662245179" lon="9.103323094988285"><ele>293.0</ele><time>2026-05-02T14:47:34.985Z</time></trkpt><trkpt lat="45.86323463583442" lon="9.103176374273962"><ele>293.0</ele><time>2026-05-02T14:47:35.985Z</time></trkpt><trkpt lat="45.86317898610819" lon="9.103012297924458"><ele>293.0</ele><time>2026-05-02T14:47:36.986Z</time></trkpt><trkpt lat="45.86313877412989" lon="9.102831969133323"><ele>293.0</ele><time>2026-05-02T14:47:37.986Z</time></trkpt><trkpt lat="45.863107480714966" lon="9.102647365464861"><ele>293.0</ele><time>2026-05-02T14:47:38.986Z</time></trkpt><trkpt lat="45.86308754321934" lon="9.102463306603308"><ele>294.5</ele><time>2026-05-02T14:47:39.985Z</time></trkpt><trkpt lat="45.86308178267961" lon="9.102280854013898"><ele>296.0</ele><time>2026-05-02T14:47:40.985Z</time></trkpt><trkpt lat="45.86308322732641" lon="9.102099606622533"><ele>297.5</ele><time>2026-05-02T14:47:41.985Z</time></trkpt><trkpt lat="45.86308597821822" lon="9.101920284210328"><ele>299.0</ele><time>2026-05-02T14:47:42.986Z</time></trkpt><trkpt lat="45.86309128812437" lon="9.101739345192195"><ele>297.75</ele><time>2026-05-02T14:47:43.986Z</time></trkpt><trkpt lat="45.8630956086158" lon="9.101557850120823"><ele>296.5</ele><time>2026-05-02T14:47:44.986Z</time></trkpt><trkpt lat="45.86310405209335" lon="9.101374402694914"><ele>295.25</ele><time>2026-05-02T14:47:45.986Z</time></trkpt><trkpt lat="45.86311092129163" lon="9.101187757812738"><ele>294.0</ele><time>2026-05-02T14:47:46.986Z</time></trkpt><trkpt lat="45.86311561249202" lon="9.100997015326401"><ele>294.0</ele><time>2026-05-02T14:47:47.986Z</time></trkpt><trkpt lat="45.863122928369755" lon="9.100800166775306"><ele>294.0</ele><time>2026-05-02T14:47:48.986Z</time></trkpt><trkpt lat="45.86313145991613" lon="9.100601174082268"><ele>294.0</ele><time>2026-05-02T14:47:49.986Z</time></trkpt><trkpt lat="45.86314023283929" lon="9.100397965590902"><ele>294.0</ele><time>2026-05-02T14:47:50.986Z</time></trkpt><trkpt lat="45.86314816429304" lon="9.100192402800344"><ele>294.0</ele><time>2026-05-02T14:47:51.986Z</time></trkpt><trkpt lat="45.863157861358076" lon="9.099982830434001"><ele>294.0</ele><time>2026-05-02T14:47:52.986Z</time></trkpt><trkpt lat="45.86316736452312" lon="9.09976943115461"><ele>294.0</ele><time>2026-05-02T14:47:53.986Z</time></trkpt><trkpt lat="45.86317456525989" lon="9.099550863185026"><ele>294.0</ele><time>2026-05-02T14:47:54.986Z</time></trkpt><trkpt lat="45.86318352088265" lon="9.099334876344225"><ele>294.0</ele><time>2026-05-02T14:47:55.986Z</time></trkpt><trkpt lat="45.8631790124631" lon="9.099124437476416"><ele>294.0</ele><time>2026-05-02T14:47:56.986Z</time></trkpt><trkpt lat="45.86315900908896" lon="9.098919490988873"><ele>294.0</ele><time>2026-05-02T14:47:57.986Z</time></trkpt><trkpt lat="45.86311736334824" lon="9.098719482755904"><ele>294.0</ele><time>2026-05-02T14:47:58.986Z</time></trkpt><trkpt lat="45.86304120460161" lon="9.098535399211551"><ele>295.25</ele><time>2026-05-02T14:47:59.986Z</time></trkpt><trkpt lat="45.86294279232356" lon="9.098381703373748"><ele>296.5</ele><time>2026-05-02T14:48:00.986Z</time></trkpt><trkpt lat="45.86283715458135" lon="9.098247545970038"><ele>297.75</ele><time>2026-05-02T14:48:01.986Z</time></trkpt><trkpt lat="45.86271410395643" lon="9.09814046764386"><ele>299.0</ele><time>2026-05-02T14:48:02.986Z</time></trkpt><trkpt lat="45.86258127664682" lon="9.09806293683233"><ele>300.25</ele><time>2026-05-02T14:48:03.986Z</time></trkpt><trkpt lat="45.862444521320306" lon="9.098017765182993"><ele>301.5</ele><time>2026-05-02T14:48:04.986Z</time></trkpt><trkpt lat="45.862299123713164" lon="9.09799700857471"><ele>302.75</ele><time>2026-05-02T14:48:05.986Z</time></trkpt><trkpt lat="45.86215380435981" lon="9.097981609999026"><ele>304.0</ele><time>2026-05-02T14:48:06.986Z</time></trkpt><trkpt lat="45.86200928606967" lon="9.097972614590091"><ele>304.0</ele><time>2026-05-02T14:48:07.986Z</time></trkpt><trkpt lat="45.861865061307235" lon="9.0979609049786"><ele>304.0</ele><time>2026-05-02T14:48:08.986Z</time></trkpt><trkpt lat="45.86172355324157" lon="9.097949050603127"><ele>304.0</ele><time>2026-05-02T14:48:09.986Z</time></trkpt><trkpt lat="45.86159009360942" lon="9.09793593166994"><ele>304.0</ele><time>2026-05-02T14:48:10.986Z</time></trkpt><trkpt lat="45.86146121339368" lon="9.09791703603043"><ele>302.5</ele><time>2026-05-02T14:48:11.986Z</time></trkpt><trkpt lat="45.861336573883925" lon="9.097874053210491"><ele>301.0</ele><time>2026-05-02T14:48:12.986Z</time></trkpt><trkpt lat="45.861212106483386" lon="9.097812914466976"><ele>299.5</ele><time>2026-05-02T14:48:13.986Z</time></trkpt><trkpt lat="45.86109890808616" lon="9.097730524517756"><ele>298.0</ele><time>2026-05-02T14:48:14.986Z</time></trkpt><trkpt lat="45.860994844046836" lon="9.097616240079732"><ele>297.75</ele><time>2026-05-02T14:48:15.986Z</time></trkpt><trkpt lat="45.860903460117555" lon="9.097473813811702"><ele>297.5</ele><time>2026-05-02T14:48:16.986Z</time></trkpt><trkpt lat="45.86082156762228" lon="9.097315456249529"><ele>297.25</ele><time>2026-05-02T14:48:17.986Z</time></trkpt><trkpt lat="45.86075379980638" lon="9.097141929027176"><ele>297.0</ele><time>2026-05-02T14:48:18.986Z</time></trkpt><trkpt lat="45.86067710362208" lon="9.096972924137047"><ele>297.0</ele><time>2026-05-02T14:48:19.986Z</time></trkpt><trkpt lat="45.86060405789062" lon="9.096806043902017"><ele>297.0</ele><time>2026-05-02T14:48:20.986Z</time></trkpt><trkpt lat="45.860523386760654" lon="9.096652743296646"><ele>297.0</ele><time>2026-05-02T14:48:21.986Z</time></trkpt><trkpt lat="45.86042807992475" lon="9.096497668191239"><ele>297.0</ele><time>2026-05-02T14:48:22.986Z</time></trkpt><trkpt lat="45.86032105574306" lon="9.096356643594605"><ele>292.75</ele><time>2026-05-02T14:48:23.986Z</time></trkpt><trkpt lat="45.86020485409776" lon="9.096234496511023"><ele>288.5</ele><time>2026-05-02T14:48:24.987Z</time></trkpt><trkpt lat="45.86009439405621" lon="9.09611849917003"><ele>284.25</ele><time>2026-05-02T14:48:25.987Z</time></trkpt><trkpt lat="45.85999024776124" lon="9.096009069306229"><ele>280.0</ele><time>2026-05-02T14:48:26.987Z</time></trkpt><trkpt lat="45.85989136966643" lon="9.095902269533026"><ele>280.0</ele><time>2026-05-02T14:48:27.987Z</time></trkpt><trkpt lat="45.85979265420028" lon="9.095800061392042"><ele>280.0</ele><time>2026-05-02T14:48:28.987Z</time></trkpt><trkpt lat="45.85968937262329" lon="9.095696574719662"><ele>280.0</ele><time>2026-05-02T14:48:29.987Z</time></trkpt><trkpt lat="45.85959059681251" lon="9.095587231883162"><ele>280.0</ele><time>2026-05-02T14:48:30.987Z</time></trkpt><trkpt lat="45.859489806071345" lon="9.095480490432669"><ele>280.25</ele><time>2026-05-02T14:48:31.986Z</time></trkpt><trkpt lat="45.85939146259934" lon="9.095371662863416"><ele>280.5</ele><time>2026-05-02T14:48:32.986Z</time></trkpt><trkpt lat="45.859287838037254" lon="9.09526072402761"><ele>280.75</ele><time>2026-05-02T14:48:33.986Z</time></trkpt><trkpt lat="45.85918515818204" lon="9.09514911602878"><ele>281.0</ele><time>2026-05-02T14:48:34.986Z</time></trkpt><trkpt lat="45.85908935055055" lon="9.0950276160177"><ele>290.0</ele><time>2026-05-02T14:48:35.986Z</time></trkpt><trkpt lat="45.85900522158181" lon="9.094894794334948"><ele>299.0</ele><time>2026-05-02T14:48:36.986Z</time></trkpt><trkpt lat="45.85892463678183" lon="9.094761572588428"><ele>308.0</ele><time>2026-05-02T14:48:37.986Z</time></trkpt><trkpt lat="45.85885159176195" lon="9.094610189672288"><ele>317.0</ele><time>2026-05-02T14:48:38.986Z</time></trkpt><trkpt lat="45.85877823575179" lon="9.094456352769768"><ele>317.0</ele><time>2026-05-02T14:48:39.986Z</time></trkpt><trkpt lat="45.85871098312955" lon="9.09428907486852"><ele>317.0</ele><time>2026-05-02T14:48:40.986Z</time></trkpt><trkpt lat="45.85864783166651" lon="9.094115426168937"><ele>317.0</ele><time>2026-05-02T14:48:41.986Z</time></trkpt><trkpt lat="45.8585821246283" lon="9.093944585659246"><ele>317.0</ele><time>2026-05-02T14:48:42.986Z</time></trkpt><trkpt lat="45.858515036350234" lon="9.093769083040423"><ele>323.0</ele><time>2026-05-02T14:48:43.986Z</time></trkpt><trkpt lat="45.85844948195213" lon="9.093589177392623"><ele>329.0</ele><time>2026-05-02T14:48:44.986Z</time></trkpt><trkpt lat="45.85837527964279" lon="9.093414245584382"><ele>335.0</ele><time>2026-05-02T14:48:45.986Z</time></trkpt><trkpt lat="45.85830579369135" lon="9.09323187003566"><ele>341.0</ele><time>2026-05-02T14:48:46.986Z</time></trkpt><trkpt lat="45.858232463706116" lon="9.093050076748993"><ele>341.0</ele><time>2026-05-02T14:48:47.986Z</time></trkpt><trkpt lat="45.8581397605642" lon="9.092888393043744"><ele>341.0</ele><time>2026-05-02T14:48:48.986Z</time></trkpt><trkpt lat="45.85803598452321" lon="9.092730833240445"><ele>341.0</ele><time>2026-05-02T14:48:49.986Z</time></trkpt><trkpt lat="45.857779905312725" lon="9.092487493420354"><ele>340.33333333333337</ele><time>2026-05-02T14:48:51.986Z</time></trkpt><trkpt lat="45.85764169441881" lon="9.092390258578163"><ele>339.6666666666667</ele><time>2026-05-02T14:48:52.986Z</time></trkpt><trkpt lat="45.85749887977529" lon="9.092306102155401"><ele>339.0</ele><time>2026-05-02T14:48:53.986Z</time></trkpt><trkpt lat="45.85735948467264" lon="9.092229000862353"><ele>339.0</ele><time>2026-05-02T14:48:54.986Z</time></trkpt><trkpt lat="45.8572263769244" lon="9.092147147163214"><ele>339.0</ele><time>2026-05-02T14:48:55.986Z</time></trkpt><trkpt lat="45.85709373728417" lon="9.09207004592708"><ele>339.0</ele><time>2026-05-02T14:48:56.986Z</time></trkpt><trkpt lat="45.856956179545456" lon="9.091994818894484"><ele>339.0</ele><time>2026-05-02T14:48:57.986Z</time></trkpt><trkpt lat="45.85681457558096" lon="9.091920704984204"><ele>329.3333333333333</ele><time>2026-05-02T14:48:58.986Z</time></trkpt><trkpt lat="45.85667426606931" lon="9.091844553259468"><ele>319.66666666666663</ele><time>2026-05-02T14:48:59.986Z</time></trkpt><trkpt lat="45.856529827350805" lon="9.09176626942517"><ele>310.0</ele><time>2026-05-02T14:49:00.986Z</time></trkpt><trkpt lat="45.85638016865223" lon="9.091683956544419"><ele>313.0</ele><time>2026-05-02T14:49:01.986Z</time></trkpt><trkpt lat="45.856207243778854" lon="9.091586655539771"><ele>316.0</ele><time>2026-05-02T14:49:03.121Z</time></trkpt><trkpt lat="45.856049053998525" lon="9.091495406910246"><ele>319.0</ele><time>2026-05-02T14:49:04.121Z</time></trkpt><trkpt lat="45.855912153895986" lon="9.091417753468107"><ele>319.0</ele><time>2026-05-02T14:49:04.986Z</time></trkpt><trkpt lat="45.855792929720955" lon="9.091395443960067"><ele>319.0</ele><time>2026-05-02T14:49:05.986Z</time></trkpt><trkpt lat="45.855659084645204" lon="9.091336082633967"><ele>319.0</ele><time>2026-05-02T14:49:06.986Z</time></trkpt><trkpt lat="45.855511518033715" lon="9.091278455449105"><ele>319.0</ele><time>2026-05-02T14:49:07.986Z</time></trkpt><trkpt lat="45.85537693901396" lon="9.091197592462397"><ele>319.0</ele><time>2026-05-02T14:49:08.986Z</time></trkpt><trkpt lat="45.855234781710834" lon="9.091085819095994"><ele>319.0</ele><time>2026-05-02T14:49:09.986Z</time></trkpt><trkpt lat="45.85508755027554" lon="9.090971059484222"><ele>319.0</ele><time>2026-05-02T14:49:10.986Z</time></trkpt><trkpt lat="45.854940659857625" lon="9.090858410606062"><ele>322.5</ele><time>2026-05-02T14:49:11.986Z</time></trkpt><trkpt lat="45.85479737011356" lon="9.090756712178766"><ele>326.0</ele><time>2026-05-02T14:49:12.986Z</time></trkpt><trkpt lat="45.854668956606346" lon="9.090658812716725"><ele>329.5</ele><time>2026-05-02T14:49:13.986Z</time></trkpt><trkpt lat="45.85455251023365" lon="9.090588698906922"><ele>333.0</ele><time>2026-05-02T14:49:14.986Z</time></trkpt><trkpt lat="45.85443608170491" lon="9.09050413271113"><ele>333.0</ele><time>2026-05-02T14:49:15.986Z</time></trkpt><trkpt lat="45.85431637540072" lon="9.09041998006098"><ele>333.0</ele><time>2026-05-02T14:49:16.986Z</time></trkpt><trkpt lat="45.854196833812" lon="9.090332059575774"><ele>333.0</ele><time>2026-05-02T14:49:17.986Z</time></trkpt><trkpt lat="45.8540797073241" lon="9.090237967734124"><ele>333.0</ele><time>2026-05-02T14:49:18.986Z</time></trkpt><trkpt lat="45.85396513040964" lon="9.090149405986434"><ele>333.5</ele><time>2026-05-02T14:49:19.986Z</time></trkpt><trkpt lat="45.85385846140759" lon="9.090068974604103"><ele>334.0</ele><time>2026-05-02T14:49:20.986Z</time></trkpt><trkpt lat="45.85375056648891" lon="9.089989294326482"><ele>334.5</ele><time>2026-05-02T14:49:21.986Z</time></trkpt><trkpt lat="45.85364560057014" lon="9.089905957731302"><ele>335.0</ele><time>2026-05-02T14:49:22.986Z</time></trkpt><trkpt lat="45.85353413533621" lon="9.08982696180446"><ele>325.0</ele><time>2026-05-02T14:49:23.986Z</time></trkpt><trkpt lat="45.85341973631894" lon="9.089742590526447"><ele>315.0</ele><time>2026-05-02T14:49:24.986Z</time></trkpt><trkpt lat="45.853301591169064" lon="9.08965051430365"><ele>305.0</ele><time>2026-05-02T14:49:25.986Z</time></trkpt><trkpt lat="45.85315908928164" lon="9.08954228130797"><ele>295.0</ele><time>2026-05-02T14:49:26.986Z</time></trkpt><trkpt lat="45.85305034362477" lon="9.089395338515487"><ele>295.0</ele><time>2026-05-02T14:49:27.986Z</time></trkpt><trkpt lat="45.85292371163092" lon="9.089299280873346"><ele>295.0</ele><time>2026-05-02T14:49:28.986Z</time></trkpt><trkpt lat="45.852788400515045" lon="9.089203798679517"><ele>295.0</ele><time>2026-05-02T14:49:29.986Z</time></trkpt><trkpt lat="45.85265250059375" lon="9.089102722006357"><ele>295.0</ele><time>2026-05-02T14:49:30.986Z</time></trkpt><trkpt lat="45.85251132595226" lon="9.088999708430286"><ele>300.75</ele><time>2026-05-02T14:49:31.987Z</time></trkpt><trkpt lat="45.852374309699535" lon="9.088908260094245"><ele>306.5</ele><time>2026-05-02T14:49:32.987Z</time></trkpt><trkpt lat="45.852241287551536" lon="9.088810118440557"><ele>312.25</ele><time>2026-05-02T14:49:33.987Z</time></trkpt><trkpt lat="45.852108979924175" lon="9.088712989702875"><ele>318.0</ele><time>2026-05-02T14:49:34.987Z</time></trkpt><trkpt lat="45.85196873472253" lon="9.088616685245961"><ele>318.0</ele><time>2026-05-02T14:49:35.987Z</time></trkpt><trkpt lat="45.85183001230953" lon="9.088515382442534"><ele>318.0</ele><time>2026-05-02T14:49:36.984Z</time></trkpt><trkpt lat="45.85168888162288" lon="9.088410980667096"><ele>318.0</ele><time>2026-05-02T14:49:37.984Z</time></trkpt><trkpt lat="45.85154148485801" lon="9.088310141106682"><ele>325.0</ele><time>2026-05-02T14:49:38.984Z</time></trkpt><trkpt lat="45.85137689969845" lon="9.088185978179755"><ele>332.0</ele><time>2026-05-02T14:49:40.121Z</time></trkpt><trkpt lat="45.84946240593614" lon="9.085622822180424"><ele>414.0</ele><time>2026-05-02T14:49:45.057Z</time></trkpt><trkpt lat="45.84914830436181" lon="9.08484000046116"><ele>422.0</ele><time>2026-05-02T14:49:46.059Z</time></trkpt><trkpt lat="45.8489135993938" lon="9.084007099264753"><ele>418.0</ele><time>2026-05-02T14:49:47.057Z</time></trkpt><trkpt lat="45.84873227318725" lon="9.083143948127924"><ele>414.0</ele><time>2026-05-02T14:49:48.057Z</time></trkpt><trkpt lat="45.8486121" lon="9.0823804"><ele>208.0</ele><time>2026-05-02T14:49:49.057Z</time></trkpt><trkpt lat="45.838304542580026" lon="9.067500399003958"><ele>208.0</ele><time>2026-05-02T14:51:55.986Z</time></trkpt><trkpt lat="45.83817687181988" lon="9.067461562840702"><ele>208.0</ele><time>2026-05-02T14:51:56.986Z</time></trkpt><trkpt lat="45.83805851387625" lon="9.067525175804379"><ele>208.0</ele><time>2026-05-02T14:51:57.986Z</time></trkpt><trkpt lat="45.83792748321409" lon="9.067480191059524"><ele>208.0</ele><time>2026-05-02T14:51:58.986Z</time></trkpt><trkpt lat="45.83779591428374" lon="9.067428908236678"><ele>208.25</ele><time>2026-05-02T14:51:59.986Z</time></trkpt><trkpt lat="45.83767129352275" lon="9.067372015019933"><ele>208.5</ele><time>2026-05-02T14:52:00.985Z</time></trkpt><trkpt lat="45.83755603531712" lon="9.067305774209851"><ele>208.75</ele><time>2026-05-02T14:52:01.985Z</time></trkpt><trkpt lat="45.83744163391518" lon="9.06724057756202"><ele>209.0</ele><time>2026-05-02T14:52:02.985Z</time></trkpt><trkpt lat="45.83733261648783" lon="9.06714371497321"><ele>208.25</ele><time>2026-05-02T14:52:03.985Z</time></trkpt><trkpt lat="45.83725111188012" lon="9.066999566315223"><ele>207.5</ele><time>2026-05-02T14:52:04.985Z</time></trkpt><trkpt lat="45.83715613934391" lon="9.066896983707274"><ele>206.75</ele><time>2026-05-02T14:52:05.985Z</time></trkpt><trkpt lat="45.83706348218391" lon="9.066802841623302"><ele>206.0</ele><time>2026-05-02T14:52:06.985Z</time></trkpt><trkpt lat="45.83698278308708" lon="9.066675467309626"><ele>206.4</ele><time>2026-05-02T14:52:07.985Z</time></trkpt><trkpt lat="45.83691091110593" lon="9.066548477285057"><ele>206.8</ele><time>2026-05-02T14:52:08.985Z</time></trkpt><trkpt lat="45.836848270964964" lon="9.06641151484246"><ele>207.20000000000002</ele><time>2026-05-02T14:52:09.985Z</time></trkpt><trkpt lat="45.83679224296438" lon="9.066283339593708"><ele>207.60000000000002</ele><time>2026-05-02T14:52:10.985Z</time></trkpt><trkpt lat="45.836743395870556" lon="9.066150333717843"><ele>208.0</ele><time>2026-05-02T14:52:11.985Z</time></trkpt><trkpt lat="45.83670912265749" lon="9.066022501564657"><ele>208.16666666666666</ele><time>2026-05-02T14:52:12.985Z</time></trkpt><trkpt lat="45.836680996339126" lon="9.065890319760445"><ele>208.33333333333331</ele><time>2026-05-02T14:52:13.985Z</time></trkpt><trkpt lat="45.836662949970645" lon="9.065775169031838"><ele>208.5</ele><time>2026-05-02T14:52:14.985Z</time></trkpt><trkpt lat="45.83665233940276" lon="9.06566624108775"><ele>208.66666666666669</ele><time>2026-05-02T14:52:15.985Z</time></trkpt><trkpt lat="45.83663896736003" lon="9.065539158790171"><ele>208.83333333333334</ele><time>2026-05-02T14:52:16.985Z</time></trkpt><trkpt lat="45.83663064360882" lon="9.065399873126088"><ele>209.0</ele><time>2026-05-02T14:52:17.985Z</time></trkpt><trkpt lat="45.836601629178105" lon="9.065262880786012"><ele>210.0</ele><time>2026-05-02T14:52:18.985Z</time></trkpt><trkpt lat="45.83663377758062" lon="9.065104634799944"><ele>211.0</ele><time>2026-05-02T14:52:19.985Z</time></trkpt><trkpt lat="45.83665414029893" lon="9.064817987617097"><ele>212.0</ele><time>2026-05-02T14:52:21.985Z</time></trkpt><trkpt lat="45.83667233571377" lon="9.064672839337442"><ele>213.0</ele><time>2026-05-02T14:52:22.985Z</time></trkpt><trkpt lat="45.83669164942678" lon="9.064523205327069"><ele>213.0</ele><time>2026-05-02T14:52:23.985Z</time></trkpt><trkpt lat="45.83671683740166" lon="9.064379769319588"><ele>213.0</ele><time>2026-05-02T14:52:24.985Z</time></trkpt><trkpt lat="45.83674523166968" lon="9.064216963251805"><ele>213.0</ele><time>2026-05-02T14:52:25.985Z</time></trkpt><trkpt lat="45.83678007642433" lon="9.064064919936317"><ele>213.0</ele><time>2026-05-02T14:52:26.985Z</time></trkpt><trkpt lat="45.83681188114756" lon="9.063895759517495"><ele>213.0</ele><time>2026-05-02T14:52:27.985Z</time></trkpt><trkpt lat="45.83684695029845" lon="9.063724086140008"><ele>213.0</ele><time>2026-05-02T14:52:28.985Z</time></trkpt><trkpt lat="45.836876704322236" lon="9.063559773584338"><ele>213.0</ele><time>2026-05-02T14:52:29.985Z</time></trkpt><trkpt lat="45.836907800454725" lon="9.063404552690074"><ele>213.0</ele><time>2026-05-02T14:52:30.985Z</time></trkpt><trkpt lat="45.836943464326914" lon="9.063248655329897"><ele>212.2</ele><time>2026-05-02T14:52:31.985Z</time></trkpt><trkpt lat="45.83697651641712" lon="9.063092143229767"><ele>211.4</ele><time>2026-05-02T14:52:32.985Z</time></trkpt><trkpt lat="45.83701045108986" lon="9.062935250654682"><ele>210.6</ele><time>2026-05-02T14:52:33.985Z</time></trkpt><trkpt lat="45.83704157947868" lon="9.062785748562337"><ele>209.79999999999998</ele><time>2026-05-02T14:52:34.985Z</time></trkpt><trkpt lat="45.83706736123357" lon="9.06263803765438"><ele>209.0</ele><time>2026-05-02T14:52:35.985Z</time></trkpt><trkpt lat="45.83708882750578" lon="9.062489042605382"><ele>209.39999999999998</ele><time>2026-05-02T14:52:36.985Z</time></trkpt><trkpt lat="45.83710788279554" lon="9.062343158894741"><ele>209.8</ele><time>2026-05-02T14:52:37.985Z</time></trkpt><trkpt lat="45.83711706068783" lon="9.062202157865341"><ele>210.2</ele><time>2026-05-02T14:52:38.985Z</time></trkpt><trkpt lat="45.837128963712054" lon="9.062066882204105"><ele>210.60000000000002</ele><time>2026-05-02T14:52:39.985Z</time></trkpt><trkpt lat="45.837138298875296" lon="9.061929179542897"><ele>211.0</ele><time>2026-05-02T14:52:40.985Z</time></trkpt><trkpt lat="45.83714560983761" lon="9.061791601246158"><ele>211.0</ele><time>2026-05-02T14:52:41.985Z</time></trkpt><trkpt lat="45.83715343490941" lon="9.06165658964281"><ele>211.0</ele><time>2026-05-02T14:52:42.985Z</time></trkpt><trkpt lat="45.83715746149691" lon="9.061510629430291"><ele>211.0</ele><time>2026-05-02T14:52:43.985Z</time></trkpt><trkpt lat="45.83716840209108" lon="9.06136509655121"><ele>211.0</ele><time>2026-05-02T14:52:44.985Z</time></trkpt><trkpt lat="45.8371760496953" lon="9.061206450876456"><ele>211.0</ele><time>2026-05-02T14:52:45.985Z</time></trkpt><trkpt lat="45.83718159869959" lon="9.061054670518523"><ele>210.8</ele><time>2026-05-02T14:52:46.986Z</time></trkpt><trkpt lat="45.83718846722992" lon="9.06090265704952"><ele>210.60000000000002</ele><time>2026-05-02T14:52:47.986Z</time></trkpt><trkpt lat="45.83719519813552" lon="9.060754112327505"><ele>210.4</ele><time>2026-05-02T14:52:48.986Z</time></trkpt><trkpt lat="45.837203899480386" lon="9.060607129475153"><ele>210.2</ele><time>2026-05-02T14:52:49.986Z</time></trkpt><trkpt lat="45.83721209407676" lon="9.060459377470838"><ele>210.0</ele><time>2026-05-02T14:52:50.986Z</time></trkpt><trkpt lat="45.83722010568974" lon="9.060315552953261"><ele>210.5</ele><time>2026-05-02T14:52:51.986Z</time></trkpt><trkpt lat="45.83722646198776" lon="9.0601738500677"><ele>211.0</ele><time>2026-05-02T14:52:52.986Z</time></trkpt><trkpt lat="45.837233136692824" lon="9.06004362233169"><ele>211.5</ele><time>2026-05-02T14:52:53.986Z</time></trkpt><trkpt lat="45.83724207401793" lon="9.05992893702881"><ele>212.0</ele><time>2026-05-02T14:52:54.986Z</time></trkpt><trkpt lat="45.837256729245716" lon="9.059832234832193"><ele>212.5</ele><time>2026-05-02T14:52:55.986Z</time></trkpt><trkpt lat="45.837285530967314" lon="9.05970503974161"><ele>213.0</ele><time>2026-05-02T14:52:57.986Z</time></trkpt><trkpt lat="45.83730674459997" lon="9.059608425527953"><ele>213.0</ele><time>2026-05-02T14:52:59.986Z</time></trkpt><trkpt lat="45.83729221024242" lon="9.059503288300752"><ele>213.0</ele><time>2026-05-02T14:57:25.986Z</time></trkpt><trkpt lat="45.837276915268205" lon="9.059398697182122"><ele>213.0</ele><time>2026-05-02T14:57:27.986Z</time></trkpt><trkpt lat="45.83728318546425" lon="9.059262739855495"><ele>213.0</ele><time>2026-05-02T14:57:29.986Z</time></trkpt><trkpt lat="45.83730186203824" lon="9.059090727363799"><ele>213.0</ele><time>2026-05-02T14:57:31.986Z</time></trkpt><trkpt lat="45.83731140911252" lon="9.058989619718878"><ele>213.0</ele><time>2026-05-02T14:57:32.986Z</time></trkpt><trkpt lat="45.83731152104459" lon="9.058880588693466"><ele>213.0</ele><time>2026-05-02T14:57:33.986Z</time></trkpt><trkpt lat="45.83732402341795" lon="9.058770804726718"><ele>213.0</ele><time>2026-05-02T14:57:34.986Z</time></trkpt><trkpt lat="45.837335475717346" lon="9.05866478183572"><ele>213.0</ele><time>2026-05-02T14:57:35.986Z</time></trkpt><trkpt lat="45.83737355708244" lon="9.058573548138982"><ele>213.0</ele><time>2026-05-02T14:57:36.986Z</time></trkpt><trkpt lat="45.83738683887578" lon="9.058477185632764"><ele>213.0</ele><time>2026-05-02T14:57:37.986Z</time></trkpt><trkpt lat="45.837401550082035" lon="9.05837187532144"><ele>213.0</ele><time>2026-05-02T14:57:38.986Z</time></trkpt><trkpt lat="45.83741934222284" lon="9.058250959151612"><ele>212.83333333333334</ele><time>2026-05-02T14:57:39.986Z</time></trkpt><trkpt lat="45.837437802961894" lon="9.05812537227787"><ele>212.66666666666669</ele><time>2026-05-02T14:57:40.986Z</time></trkpt><trkpt lat="45.83745195780536" lon="9.05800587866814"><ele>212.5</ele><time>2026-05-02T14:57:41.986Z</time></trkpt><trkpt lat="45.837468306278545" lon="9.057888142482156"><ele>212.33333333333334</ele><time>2026-05-02T14:57:42.986Z</time></trkpt><trkpt lat="45.837486867875725" lon="9.05776088915617"><ele>212.16666666666669</ele><time>2026-05-02T14:57:43.986Z</time></trkpt><trkpt lat="45.83750903869894" lon="9.057623186155853"><ele>212.0</ele><time>2026-05-02T14:57:44.986Z</time></trkpt><trkpt lat="45.83753152416331" lon="9.057480511644352"><ele>212.2</ele><time>2026-05-02T14:57:45.986Z</time></trkpt><trkpt lat="45.837551512960765" lon="9.057338168514587"><ele>212.39999999999998</ele><time>2026-05-02T14:57:46.986Z</time></trkpt><trkpt lat="45.83757234757487" lon="9.057187838004019"><ele>212.60000000000002</ele><time>2026-05-02T14:57:47.986Z</time></trkpt><trkpt lat="45.8375945969168" lon="9.05702975381194"><ele>212.8</ele><time>2026-05-02T14:57:48.986Z</time></trkpt><trkpt lat="45.837618184067786" lon="9.0568647698601"><ele>213.0</ele><time>2026-05-02T14:57:49.986Z</time></trkpt><trkpt lat="45.837643393804946" lon="9.056693433429972"><ele>213.25</ele><time>2026-05-02T14:57:50.986Z</time></trkpt><trkpt lat="45.837670081282106" lon="9.05652124604488"><ele>213.5</ele><time>2026-05-02T14:57:51.986Z</time></trkpt><trkpt lat="45.83769802775906" lon="9.056340957088219"><ele>213.75</ele><time>2026-05-02T14:57:52.986Z</time></trkpt><trkpt lat="45.837723999705204" lon="9.056150654592189"><ele>214.0</ele><time>2026-05-02T14:57:53.986Z</time></trkpt><trkpt lat="45.83775113726998" lon="9.055959705544318"><ele>214.0</ele><time>2026-05-02T14:57:54.986Z</time></trkpt><trkpt lat="45.837779830369485" lon="9.05576649397727"><ele>214.0</ele><time>2026-05-02T14:57:55.986Z</time></trkpt><trkpt lat="45.837800351566116" lon="9.055560900924462"><ele>214.0</ele><time>2026-05-02T14:57:56.986Z</time></trkpt><trkpt lat="45.8378176349491" lon="9.055347220457922"><ele>214.0</ele><time>2026-05-02T14:57:57.986Z</time></trkpt><trkpt lat="45.83782985895297" lon="9.055129317298176"><ele>214.66666666666666</ele><time>2026-05-02T14:57:58.986Z</time></trkpt><trkpt lat="45.83784213210796" lon="9.054909414661275"><ele>215.33333333333331</ele><time>2026-05-02T14:57:59.986Z</time></trkpt><trkpt lat="45.837847702507936" lon="9.054688801608721"><ele>216.0</ele><time>2026-05-02T14:58:00.986Z</time></trkpt><trkpt lat="45.837855713119204" lon="9.054472789687896"><ele>216.0</ele><time>2026-05-02T14:58:01.986Z</time></trkpt><trkpt lat="45.83786515430435" lon="9.054252559805168"><ele>216.0</ele><time>2026-05-02T14:58:02.986Z</time></trkpt><trkpt lat="45.83787442180514" lon="9.054034058016512"><ele>216.0</ele><time>2026-05-02T14:58:03.986Z</time></trkpt><trkpt lat="45.837883791994464" lon="9.053817634858017"><ele>216.33333333333331</ele><time>2026-05-02T14:58:04.986Z</time></trkpt><trkpt lat="45.837895551343294" lon="9.053602621557722"><ele>216.66666666666666</ele><time>2026-05-02T14:58:05.986Z</time></trkpt><trkpt lat="45.83790683268006" lon="9.053384906733454"><ele>217.0</ele><time>2026-05-02T14:58:06.986Z</time></trkpt><trkpt lat="45.83791653867471" lon="9.053161518429302"><ele>217.66666666666666</ele><time>2026-05-02T14:58:07.986Z</time></trkpt><trkpt lat="45.837926634984775" lon="9.052934472953943"><ele>218.33333333333331</ele><time>2026-05-02T14:58:08.986Z</time></trkpt><trkpt lat="45.83793720904303" lon="9.05270660858306"><ele>219.0</ele><time>2026-05-02T14:58:09.986Z</time></trkpt><trkpt lat="45.83794619901216" lon="9.052473703603404"><ele>220.0</ele><time>2026-05-02T14:58:10.986Z</time></trkpt><trkpt lat="45.837957976967715" lon="9.052240551329108"><ele>221.0</ele><time>2026-05-02T14:58:11.986Z</time></trkpt><trkpt lat="45.83796802175368" lon="9.052003093330496"><ele>222.0</ele><time>2026-05-02T14:58:12.986Z</time></trkpt><trkpt lat="45.837979564233486" lon="9.051767914041248"><ele>222.33333333333331</ele><time>2026-05-02T14:58:13.986Z</time></trkpt><trkpt lat="45.837997502902475" lon="9.051537935689705"><ele>222.66666666666666</ele><time>2026-05-02T14:58:14.986Z</time></trkpt><trkpt lat="45.838022953423014" lon="9.051313727788223"><ele>223.0</ele><time>2026-05-02T14:58:15.986Z</time></trkpt><trkpt lat="45.838063827843776" lon="9.051094726465704"><ele>223.0</ele><time>2026-05-02T14:58:16.986Z</time></trkpt><trkpt lat="45.838119922072785" lon="9.050883867055548"><ele>223.0</ele><time>2026-05-02T14:58:17.986Z</time></trkpt><trkpt lat="45.838192975659446" lon="9.05068109019798"><ele>223.0</ele><time>2026-05-02T14:58:18.986Z</time></trkpt><trkpt lat="45.83826789024664" lon="9.050478913277075"><ele>222.33333333333331</ele><time>2026-05-02T14:58:19.986Z</time></trkpt><trkpt lat="45.838351169405904" lon="9.050272304663508"><ele>221.66666666666669</ele><time>2026-05-02T14:58:20.986Z</time></trkpt><trkpt lat="45.838432113560756" lon="9.050062958263968"><ele>221.0</ele><time>2026-05-02T14:58:21.985Z</time></trkpt><trkpt lat="45.83850784534756" lon="9.049856967684734"><ele>221.0</ele><time>2026-05-02T14:58:22.986Z</time></trkpt><trkpt lat="45.83858148406244" lon="9.049659411627006"><ele>221.0</ele><time>2026-05-02T14:58:23.986Z</time></trkpt><trkpt lat="45.83865377304703" lon="9.049459124483931"><ele>221.0</ele><time>2026-05-02T14:58:24.986Z</time></trkpt><trkpt lat="45.83871091741269" lon="9.049250119840316"><ele>223.0</ele><time>2026-05-02T14:58:25.986Z</time></trkpt><trkpt lat="45.83876466613219" lon="9.049029919443111"><ele>225.0</ele><time>2026-05-02T14:58:26.986Z</time></trkpt><trkpt lat="45.83880261710071" lon="9.048804398430946"><ele>227.0</ele><time>2026-05-02T14:58:27.985Z</time></trkpt><trkpt lat="45.8388290552926" lon="9.048578628900133"><ele>227.0</ele><time>2026-05-02T14:58:28.985Z</time></trkpt><trkpt lat="45.83884467973742" lon="9.048348820775331"><ele>227.0</ele><time>2026-05-02T14:58:29.985Z</time></trkpt><trkpt lat="45.83886569442251" lon="9.048122067585298"><ele>227.0</ele><time>2026-05-02T14:58:30.986Z</time></trkpt><trkpt lat="45.83888704599776" lon="9.04789937929844"><ele>229.0</ele><time>2026-05-02T14:58:31.986Z</time></trkpt><trkpt lat="45.83891235142451" lon="9.047683039174068"><ele>231.0</ele><time>2026-05-02T14:58:32.986Z</time></trkpt><trkpt lat="45.83893969644144" lon="9.04748013690553"><ele>233.0</ele><time>2026-05-02T14:58:33.986Z</time></trkpt><trkpt lat="45.8389593979036" lon="9.047295069367047"><ele>235.0</ele><time>2026-05-02T14:58:34.986Z</time></trkpt><trkpt lat="45.838980220666464" lon="9.047117037024181"><ele>237.0</ele><time>2026-05-02T14:58:35.986Z</time></trkpt><trkpt lat="45.83901337698803" lon="9.04693721282682"><ele>239.0</ele><time>2026-05-02T14:58:36.986Z</time></trkpt><trkpt lat="45.839058665079925" lon="9.046768860239188"><ele>241.0</ele><time>2026-05-02T14:58:37.986Z</time></trkpt><trkpt lat="45.83911605248748" lon="9.04659805247901"><ele>243.0</ele><time>2026-05-02T14:58:38.986Z</time></trkpt><trkpt lat="45.83918458950381" lon="9.046435619437931"><ele>238.66666666666669</ele><time>2026-05-02T14:58:39.986Z</time></trkpt><trkpt lat="45.83926652059835" lon="9.046274945715306"><ele>234.33333333333334</ele><time>2026-05-02T14:58:40.986Z</time></trkpt><trkpt lat="45.83935445633919" lon="9.046122237945394"><ele>230.0</ele><time>2026-05-02T14:58:41.986Z</time></trkpt><trkpt lat="45.839545709024634" lon="9.045853018762637"><ele>235.25</ele><time>2026-05-02T14:58:43.986Z</time></trkpt><trkpt lat="45.83963538213892" lon="9.045742109574922"><ele>240.5</ele><time>2026-05-02T14:58:44.986Z</time></trkpt><trkpt lat="45.839726041847804" lon="9.045627208431506"><ele>245.75</ele><time>2026-05-02T14:58:45.986Z</time></trkpt><trkpt lat="45.83980202530503" lon="9.045485308062084"><ele>251.0</ele><time>2026-05-02T14:58:46.986Z</time></trkpt><trkpt lat="45.839864930619484" lon="9.045333395286187"><ele>251.0</ele><time>2026-05-02T14:58:47.986Z</time></trkpt><trkpt lat="45.839882890711024" lon="9.0451609511297"><ele>251.0</ele><time>2026-05-02T14:58:48.986Z</time></trkpt><trkpt lat="45.83990008306506" lon="9.044995728087185"><ele>251.0</ele><time>2026-05-02T14:58:49.986Z</time></trkpt><trkpt lat="45.839901836647925" lon="9.04484509963806"><ele>251.0</ele><time>2026-05-02T14:58:50.986Z</time></trkpt><trkpt lat="45.8399100520027" lon="9.044676599774194"><ele>253.4</ele><time>2026-05-02T14:58:51.986Z</time></trkpt><trkpt lat="45.83989632402486" lon="9.044527984000123"><ele>255.8</ele><time>2026-05-02T14:58:52.986Z</time></trkpt><trkpt lat="45.839891582319716" lon="9.044413318526376"><ele>258.20000000000005</ele><time>2026-05-02T14:58:53.986Z</time></trkpt><trkpt lat="45.83988755932209" lon="9.044284286347452"><ele>260.6</ele><time>2026-05-02T14:58:54.986Z</time></trkpt><trkpt lat="45.83988402665881" lon="9.044045799966598"><ele>263.0</ele><time>2026-05-02T14:58:55.986Z</time></trkpt><trkpt lat="45.83989029687394" lon="9.043749618538342"><ele>270.5</ele><time>2026-05-02T14:58:56.986Z</time></trkpt><trkpt lat="45.83986201977927" lon="9.043599847477436"><ele>278.0</ele><time>2026-05-02T14:58:57.986Z</time></trkpt><trkpt lat="45.83986154153801" lon="9.043012364117914"><ele>272.0</ele><time>2026-05-02T14:58:59.124Z</time></trkpt><trkpt lat="45.840470649459995" lon="9.041132371929109"><ele>268.0</ele><time>2026-05-02T14:59:03.066Z</time></trkpt><trkpt lat="45.84074443206128" lon="9.041990319210155"><ele>268.0</ele><time>2026-05-02T14:59:21.986Z</time></trkpt><trkpt lat="45.84065536439919" lon="9.042433469864607"><ele>268.0</ele><time>2026-05-02T14:59:22.986Z</time></trkpt><trkpt lat="45.84060603583768" lon="9.04255250381897"><ele>268.0</ele><time>2026-05-02T14:59:23.986Z</time></trkpt><trkpt lat="45.84054612551654" lon="9.042693646174502"><ele>265.25</ele><time>2026-05-02T14:59:24.986Z</time></trkpt><trkpt lat="45.8404913938491" lon="9.042857291165085"><ele>262.5</ele><time>2026-05-02T14:59:25.987Z</time></trkpt><trkpt lat="45.84042229357864" lon="9.043025597187116"><ele>259.75</ele><time>2026-05-02T14:59:26.987Z</time></trkpt><trkpt lat="45.84034755847055" lon="9.04318700068719"><ele>257.0</ele><time>2026-05-02T14:59:27.987Z</time></trkpt><trkpt lat="45.84026520736745" lon="9.043351652698842"><ele>254.75</ele><time>2026-05-02T14:59:28.987Z</time></trkpt><trkpt lat="45.84017365551684" lon="9.043503914705022"><ele>252.5</ele><time>2026-05-02T14:59:29.987Z</time></trkpt><trkpt lat="45.84006305994426" lon="9.043645832632699"><ele>250.25</ele><time>2026-05-02T14:59:30.987Z</time></trkpt><trkpt lat="45.83994879359034" lon="9.043775282316407"><ele>248.0</ele><time>2026-05-02T14:59:31.987Z</time></trkpt><trkpt lat="45.83982559636777" lon="9.043895396110614"><ele>253.0</ele><time>2026-05-02T14:59:32.987Z</time></trkpt><trkpt lat="45.839703050064" lon="9.04401521811999"><ele>258.0</ele><time>2026-05-02T14:59:33.987Z</time></trkpt><trkpt lat="45.83956812375663" lon="9.044116815910817"><ele>263.0</ele><time>2026-05-02T14:59:34.987Z</time></trkpt><trkpt lat="45.83942411881592" lon="9.044206647870379"><ele>272.6666666666667</ele><time>2026-05-02T14:59:35.987Z</time></trkpt><trkpt lat="45.839273644549245" lon="9.044288479757412"><ele>282.3333333333333</ele><time>2026-05-02T14:59:36.987Z</time></trkpt><trkpt lat="45.83911901409041" lon="9.04435723833725"><ele>292.0</ele><time>2026-05-02T14:59:37.987Z</time></trkpt><trkpt lat="45.83896354041767" lon="9.044420918565287"><ele>292.0</ele><time>2026-05-02T14:59:38.987Z</time></trkpt><trkpt lat="45.8387980081477" lon="9.04446404183601"><ele>292.0</ele><time>2026-05-02T14:59:39.987Z</time></trkpt><trkpt lat="45.83862218559185" lon="9.044489408137864"><ele>292.0</ele><time>2026-05-02T14:59:40.987Z</time></trkpt><trkpt lat="45.83844696864138" lon="9.044508807635989"><ele>300.0</ele><time>2026-05-02T14:59:41.987Z</time></trkpt><trkpt lat="45.83826875679499" lon="9.044511626861686"><ele>308.0</ele><time>2026-05-02T14:59:42.987Z</time></trkpt><trkpt lat="45.83808625406883" lon="9.044489453421564"><ele>316.0</ele><time>2026-05-02T14:59:43.987Z</time></trkpt><trkpt lat="45.83612852219864" lon="9.042613201567915"><ele>318.0</ele><time>2026-05-02T14:59:51.063Z</time></trkpt><trkpt lat="45.83561562052604" lon="9.041889338788394"><ele>283.0</ele><time>2026-05-02T14:59:52.066Z</time></trkpt><trkpt lat="45.8349913995009" lon="9.041385509061262"><ele>283.0</ele><time>2026-05-02T14:59:53.066Z</time></trkpt><trkpt lat="45.834567817901736" lon="9.041204959501764"><ele>283.0</ele><time>2026-05-02T15:00:07.987Z</time></trkpt><trkpt lat="45.83439889196284" lon="9.041129094965312"><ele>279.3333333333333</ele><time>2026-05-02T15:00:08.987Z</time></trkpt><trkpt lat="45.83423977400146" lon="9.041091868015624"><ele>275.6666666666667</ele><time>2026-05-02T15:00:09.987Z</time></trkpt><trkpt lat="45.83406302639567" lon="9.041065796673724"><ele>272.0</ele><time>2026-05-02T15:00:10.987Z</time></trkpt><trkpt lat="45.833857585352206" lon="9.041060111555012"><ele>272.0</ele><time>2026-05-02T15:00:11.987Z</time></trkpt><trkpt lat="45.83364103980881" lon="9.041067631517596"><ele>272.0</ele><time>2026-05-02T15:00:12.987Z</time></trkpt><trkpt lat="45.83340265743942" lon="9.04102784531618"><ele>272.33333333333337</ele><time>2026-05-02T15:00:13.987Z</time></trkpt><trkpt lat="45.8332246572032" lon="9.040998166890517"><ele>272.6666666666667</ele><time>2026-05-02T15:00:14.987Z</time></trkpt><trkpt lat="45.83304627913228" lon="9.040970232934606"><ele>273.0</ele><time>2026-05-02T15:00:15.987Z</time></trkpt><trkpt lat="45.83286396477194" lon="9.040964323425792"><ele>273.0</ele><time>2026-05-02T15:00:16.987Z</time></trkpt><trkpt lat="45.832684607563706" lon="9.040962039674515"><ele>273.0</ele><time>2026-05-02T15:00:17.987Z</time></trkpt><trkpt lat="45.83251070207891" lon="9.040967740743827"><ele>273.0</ele><time>2026-05-02T15:00:18.987Z</time></trkpt><trkpt lat="45.832340880748475" lon="9.040983936574692"><ele>274.3333333333333</ele><time>2026-05-02T15:00:19.987Z</time></trkpt><trkpt lat="45.83217115277298" lon="9.041002500125632"><ele>275.66666666666663</ele><time>2026-05-02T15:00:20.987Z</time></trkpt><trkpt lat="45.83200107738778" lon="9.041035854329772"><ele>277.0</ele><time>2026-05-02T15:00:21.987Z</time></trkpt><trkpt lat="45.83183071735478" lon="9.041080530292135"><ele>279.66666666666663</ele><time>2026-05-02T15:00:22.987Z</time></trkpt><trkpt lat="45.83166128619888" lon="9.041133071602479"><ele>282.3333333333333</ele><time>2026-05-02T15:00:23.987Z</time></trkpt><trkpt lat="45.831490182444604" lon="9.041185877053529"><ele>285.0</ele><time>2026-05-02T15:00:24.985Z</time></trkpt><trkpt lat="45.83131740929421" lon="9.04123701143772"><ele>285.0</ele><time>2026-05-02T15:00:25.984Z</time></trkpt><trkpt lat="45.83114265629161" lon="9.04129495538884"><ele>285.0</ele><time>2026-05-02T15:00:26.984Z</time></trkpt><trkpt lat="45.830968284544106" lon="9.041366183414201"><ele>285.0</ele><time>2026-05-02T15:00:27.985Z</time></trkpt><trkpt lat="45.83079565429803" lon="9.041446280975627"><ele>286.0</ele><time>2026-05-02T15:00:28.985Z</time></trkpt><trkpt lat="45.830627352597524" lon="9.041540616860624"><ele>287.0</ele><time>2026-05-02T15:00:29.985Z</time></trkpt><trkpt lat="45.830456998233984" lon="9.041633690668771"><ele>288.0</ele><time>2026-05-02T15:00:30.985Z</time></trkpt><trkpt lat="45.830290861708896" lon="9.041733402564327"><ele>290.6666666666667</ele><time>2026-05-02T15:00:31.985Z</time></trkpt><trkpt lat="45.83012487929706" lon="9.041836638070205"><ele>293.33333333333337</ele><time>2026-05-02T15:00:32.985Z</time></trkpt><trkpt lat="45.82996010885874" lon="9.04194752664393"><ele>296.0</ele><time>2026-05-02T15:00:33.985Z</time></trkpt><trkpt lat="45.82979873579381" lon="9.04205815707656"><ele>296.0</ele><time>2026-05-02T15:00:34.985Z</time></trkpt><trkpt lat="45.829639116212086" lon="9.04217349535434"><ele>296.0</ele><time>2026-05-02T15:00:35.985Z</time></trkpt><trkpt lat="45.82948147935469" lon="9.042295868630056"><ele>296.0</ele><time>2026-05-02T15:00:36.985Z</time></trkpt><trkpt lat="45.8293257371258" lon="9.042421843564977"><ele>297.33333333333337</ele><time>2026-05-02T15:00:37.985Z</time></trkpt><trkpt lat="45.82916913554767" lon="9.042548334866831"><ele>298.6666666666667</ele><time>2026-05-02T15:00:38.985Z</time></trkpt><trkpt lat="45.82901170018314" lon="9.042674639579243"><ele>300.0</ele><time>2026-05-02T15:00:39.985Z</time></trkpt><trkpt lat="45.82885775102967" lon="9.042802874370008"><ele>300.0</ele><time>2026-05-02T15:00:40.985Z</time></trkpt><trkpt lat="45.82869985495048" lon="9.042926864181293"><ele>300.0</ele><time>2026-05-02T15:00:41.985Z</time></trkpt><trkpt lat="45.82854069284431" lon="9.043059552310597"><ele>300.0</ele><time>2026-05-02T15:00:42.985Z</time></trkpt><trkpt lat="45.8283817126532" lon="9.043185264489004"><ele>299.3333333333333</ele><time>2026-05-02T15:00:43.985Z</time></trkpt><trkpt lat="45.82822353658864" lon="9.043307362845244"><ele>298.66666666666663</ele><time>2026-05-02T15:00:44.985Z</time></trkpt><trkpt lat="45.82806931070343" lon="9.043427267684365"><ele>298.0</ele><time>2026-05-02T15:00:45.985Z</time></trkpt><trkpt lat="45.8279184437519" lon="9.043550439957652"><ele>298.0</ele><time>2026-05-02T15:00:46.985Z</time></trkpt><trkpt lat="45.827766835789255" lon="9.043669739479082"><ele>298.0</ele><time>2026-05-02T15:00:47.985Z</time></trkpt><trkpt lat="45.82761354888083" lon="9.04379121722311"><ele>298.0</ele><time>2026-05-02T15:00:48.985Z</time></trkpt><trkpt lat="45.82745730703464" lon="9.043909235794654"><ele>296.3333333333333</ele><time>2026-05-02T15:00:49.985Z</time></trkpt><trkpt lat="45.827300931650704" lon="9.044029967638723"><ele>294.6666666666667</ele><time>2026-05-02T15:00:50.985Z</time></trkpt><trkpt lat="45.827146826191886" lon="9.044147580141"><ele>293.0</ele><time>2026-05-02T15:00:51.985Z</time></trkpt><trkpt lat="45.8269934865843" lon="9.044268101953872"><ele>293.0</ele><time>2026-05-02T15:00:52.985Z</time></trkpt><trkpt lat="45.82684043475746" lon="9.044388003423421"><ele>293.0</ele><time>2026-05-02T15:00:53.985Z</time></trkpt><trkpt lat="45.82668766724686" lon="9.04450851556584"><ele>293.0</ele><time>2026-05-02T15:00:54.985Z</time></trkpt><trkpt lat="45.82653257498765" lon="9.044629667819043"><ele>296.33333333333337</ele><time>2026-05-02T15:00:55.985Z</time></trkpt><trkpt lat="45.826377940901075" lon="9.044752299837844"><ele>299.6666666666667</ele><time>2026-05-02T15:00:56.985Z</time></trkpt><trkpt lat="45.82621908304148" lon="9.044876317225581"><ele>303.0</ele><time>2026-05-02T15:00:57.985Z</time></trkpt><trkpt lat="45.82606302848572" lon="9.044996551771401"><ele>306.0</ele><time>2026-05-02T15:00:58.985Z</time></trkpt><trkpt lat="45.825905072360136" lon="9.045118192320752"><ele>309.0</ele><time>2026-05-02T15:00:59.985Z</time></trkpt><trkpt lat="45.82574574160111" lon="9.045237043132898"><ele>312.0</ele><time>2026-05-02T15:01:00.985Z</time></trkpt><trkpt lat="45.825587167128376" lon="9.04535845002414"><ele>312.0</ele><time>2026-05-02T15:01:01.985Z</time></trkpt><trkpt lat="45.825426590224815" lon="9.045481177567298"><ele>312.0</ele><time>2026-05-02T15:01:02.985Z</time></trkpt><trkpt lat="45.82525926457764" lon="9.045608297152821"><ele>312.0</ele><time>2026-05-02T15:01:03.985Z</time></trkpt><trkpt lat="45.825091533730706" lon="9.045740883091621"><ele>321.6666666666667</ele><time>2026-05-02T15:01:04.985Z</time></trkpt><trkpt lat="45.82492060824517" lon="9.045875630196443"><ele>331.33333333333337</ele><time>2026-05-02T15:01:05.985Z</time></trkpt><trkpt lat="45.82474901651562" lon="9.046013668991481"><ele>341.0</ele><time>2026-05-02T15:01:06.985Z</time></trkpt><trkpt lat="45.824577368252456" lon="9.046157681132083"><ele>341.0</ele><time>2026-05-02T15:01:07.985Z</time></trkpt><trkpt lat="45.824406098095956" lon="9.046310388132303"><ele>341.0</ele><time>2026-05-02T15:01:08.985Z</time></trkpt><trkpt lat="45.82422723254783" lon="9.046473475400868"><ele>341.0</ele><time>2026-05-02T15:01:09.985Z</time></trkpt><trkpt lat="45.824034428045024" lon="9.046671301174596"><ele>340.6666666666667</ele><time>2026-05-02T15:01:11.121Z</time></trkpt><trkpt lat="45.82384933539138" lon="9.046866056182562"><ele>340.3333333333333</ele><time>2026-05-02T15:01:12.125Z</time></trkpt><trkpt lat="45.823688685589225" lon="9.047053034930595"><ele>340.0</ele><time>2026-05-02T15:01:13.123Z</time></trkpt><trkpt lat="45.82267349319094" lon="9.049555971752381"><ele>344.0</ele><time>2026-05-02T15:01:17.067Z</time></trkpt><trkpt lat="45.82248204977796" lon="9.050177547588953"><ele>344.0</ele><time>2026-05-02T15:01:26.985Z</time></trkpt><trkpt lat="45.8223265351117" lon="9.050490356642502"><ele>344.0</ele><time>2026-05-02T15:01:27.985Z</time></trkpt><trkpt lat="45.82224633316981" lon="9.05075447868624"><ele>341.6666666666667</ele><time>2026-05-02T15:01:28.985Z</time></trkpt><trkpt lat="45.82216662680148" lon="9.051011527343007"><ele>339.3333333333333</ele><time>2026-05-02T15:01:29.985Z</time></trkpt><trkpt lat="45.82208326328132" lon="9.051253851926864"><ele>337.0</ele><time>2026-05-02T15:01:30.985Z</time></trkpt><trkpt lat="45.82199220464393" lon="9.051483677122384"><ele>333.0</ele><time>2026-05-02T15:01:31.985Z</time></trkpt><trkpt lat="45.82189439031269" lon="9.051707348906936"><ele>329.0</ele><time>2026-05-02T15:01:32.985Z</time></trkpt><trkpt lat="45.82179726101208" lon="9.051923999053988"><ele>325.0</ele><time>2026-05-02T15:01:33.985Z</time></trkpt><trkpt lat="45.82169172909501" lon="9.052132516596327"><ele>329.3333333333333</ele><time>2026-05-02T15:01:34.985Z</time></trkpt><trkpt lat="45.821582297777944" lon="9.052337629074696"><ele>333.6666666666667</ele><time>2026-05-02T15:01:35.985Z</time></trkpt><trkpt lat="45.82146753411343" lon="9.05254621448691"><ele>338.0</ele><time>2026-05-02T15:01:36.985Z</time></trkpt><trkpt lat="45.821366736140604" lon="9.052766681530525"><ele>338.0</ele><time>2026-05-02T15:01:37.985Z</time></trkpt><trkpt lat="45.821261802737496" lon="9.052989526235411"><ele>338.0</ele><time>2026-05-02T15:01:38.986Z</time></trkpt><trkpt lat="45.82114542551771" lon="9.053193040475385"><ele>338.0</ele><time>2026-05-02T15:01:39.986Z</time></trkpt><trkpt lat="45.82103296607309" lon="9.053404064547857"><ele>347.0</ele><time>2026-05-02T15:01:40.986Z</time></trkpt><trkpt lat="45.82091255902393" lon="9.05360475371063"><ele>356.0</ele><time>2026-05-02T15:01:41.986Z</time></trkpt><trkpt lat="45.82079305497188" lon="9.053809448439788"><ele>365.0</ele><time>2026-05-02T15:01:42.986Z</time></trkpt><trkpt lat="45.82067316012228" lon="9.054017567998178"><ele>355.33333333333337</ele><time>2026-05-02T15:01:43.986Z</time></trkpt><trkpt lat="45.820558414206985" lon="9.054227919746506"><ele>345.6666666666667</ele><time>2026-05-02T15:01:44.986Z</time></trkpt><trkpt lat="45.820443200890644" lon="9.054427896629653"><ele>336.0</ele><time>2026-05-02T15:01:45.986Z</time></trkpt><trkpt lat="45.8203300983405" lon="9.05464109202891"><ele>336.0</ele><time>2026-05-02T15:01:46.986Z</time></trkpt><trkpt lat="45.82021596557112" lon="9.054849906843197"><ele>336.0</ele><time>2026-05-02T15:01:47.986Z</time></trkpt><trkpt lat="45.820099419012124" lon="9.055051480088332"><ele>336.0</ele><time>2026-05-02T15:01:48.986Z</time></trkpt><trkpt lat="45.81998244758713" lon="9.055253000269818"><ele>334.0</ele><time>2026-05-02T15:01:49.986Z</time></trkpt><trkpt lat="45.81986884710528" lon="9.055461561518388"><ele>332.0</ele><time>2026-05-02T15:01:50.986Z</time></trkpt><trkpt lat="45.81975323822616" lon="9.055662684315273"><ele>330.0</ele><time>2026-05-02T15:01:51.986Z</time></trkpt><trkpt lat="45.819636103000114" lon="9.055865459216076"><ele>330.0</ele><time>2026-05-02T15:01:52.986Z</time></trkpt><trkpt lat="45.8195128026296" lon="9.056057788661443"><ele>330.0</ele><time>2026-05-02T15:01:53.986Z</time></trkpt><trkpt lat="45.81938125124609" lon="9.0562425245496"><ele>330.0</ele><time>2026-05-02T15:01:54.986Z</time></trkpt><trkpt lat="45.819242903512084" lon="9.056418650428366"><ele>339.3333333333333</ele><time>2026-05-02T15:01:55.986Z</time></trkpt><trkpt lat="45.81909701008022" lon="9.056574111735147"><ele>348.66666666666663</ele><time>2026-05-02T15:01:56.986Z</time></trkpt><trkpt lat="45.8189426595915" lon="9.056721215614765"><ele>358.0</ele><time>2026-05-02T15:01:57.986Z</time></trkpt><trkpt lat="45.81878529836156" lon="9.056859093837828"><ele>358.0</ele><time>2026-05-02T15:01:58.986Z</time></trkpt><trkpt lat="45.81862648918682" lon="9.056996618662415"><ele>358.0</ele><time>2026-05-02T15:01:59.986Z</time></trkpt><trkpt lat="45.818458090777725" lon="9.057112977076294"><ele>358.0</ele><time>2026-05-02T15:02:00.986Z</time></trkpt><trkpt lat="45.818285178487464" lon="9.057210237599751"><ele>369.3333333333333</ele><time>2026-05-02T15:02:01.986Z</time></trkpt><trkpt lat="45.81810124658141" lon="9.05728214940271"><ele>380.66666666666663</ele><time>2026-05-02T15:02:02.986Z</time></trkpt><trkpt lat="45.8179163596477" lon="9.057345778284159"><ele>392.0</ele><time>2026-05-02T15:02:03.986Z</time></trkpt><trkpt lat="45.817724762644204" lon="9.057393795250231"><ele>388.0</ele><time>2026-05-02T15:02:04.986Z</time></trkpt><trkpt lat="45.81754270265951" lon="9.057447160058489"><ele>384.0</ele><time>2026-05-02T15:02:05.986Z</time></trkpt><trkpt lat="45.81734933352222" lon="9.057475103416515"><ele>380.0</ele><time>2026-05-02T15:02:06.986Z</time></trkpt><trkpt lat="45.81716113283867" lon="9.057493528381613"><ele>376.6666666666667</ele><time>2026-05-02T15:02:07.986Z</time></trkpt><trkpt lat="45.81697469265792" lon="9.057535236588468"><ele>373.3333333333333</ele><time>2026-05-02T15:02:08.986Z</time></trkpt><trkpt lat="45.8168192919915" lon="9.057581240910157"><ele>370.0</ele><time>2026-05-02T15:02:09.986Z</time></trkpt><trkpt lat="45.8166476310352" lon="9.057626817143761"><ele>367.3333333333333</ele><time>2026-05-02T15:02:10.986Z</time></trkpt><trkpt lat="45.816473960275296" lon="9.057683451361548"><ele>364.6666666666667</ele><time>2026-05-02T15:02:11.986Z</time></trkpt><trkpt lat="45.81631616577839" lon="9.05772369637331"><ele>362.0</ele><time>2026-05-02T15:02:12.986Z</time></trkpt><trkpt lat="45.81616190716243" lon="9.057790425241773"><ele>362.0</ele><time>2026-05-02T15:02:13.986Z</time></trkpt><trkpt lat="45.816003170290365" lon="9.057884303847777"><ele>362.0</ele><time>2026-05-02T15:02:14.986Z</time></trkpt><trkpt lat="45.81585964856486" lon="9.057987047031597"><ele>362.0</ele><time>2026-05-02T15:02:15.986Z</time></trkpt><trkpt lat="45.815721976519036" lon="9.058092600849763"><ele>360.6666666666667</ele><time>2026-05-02T15:02:16.986Z</time></trkpt><trkpt lat="45.81559074326057" lon="9.058198214908161"><ele>359.3333333333333</ele><time>2026-05-02T15:02:17.986Z</time></trkpt><trkpt lat="45.81545029997047" lon="9.058309521307525"><ele>358.0</ele><time>2026-05-02T15:02:18.986Z</time></trkpt><trkpt lat="45.81532571975928" lon="9.058425376021034"><ele>358.0</ele><time>2026-05-02T15:02:19.986Z</time></trkpt><trkpt lat="45.8151983413928" lon="9.058544589264292"><ele>358.0</ele><time>2026-05-02T15:02:20.986Z</time></trkpt><trkpt lat="45.81507617610399" lon="9.05865643404221"><ele>358.0</ele><time>2026-05-02T15:02:21.986Z</time></trkpt><trkpt lat="45.81496239861312" lon="9.058762978099866"><ele>358.0</ele><time>2026-05-02T15:02:22.986Z</time></trkpt><trkpt lat="45.814850064543144" lon="9.058865188629026"><ele>356.25</ele><time>2026-05-02T15:02:23.986Z</time></trkpt><trkpt lat="45.814735885472885" lon="9.058966117574451"><ele>354.5</ele><time>2026-05-02T15:02:24.986Z</time></trkpt><trkpt lat="45.81462517820567" lon="9.059073900912201"><ele>352.75</ele><time>2026-05-02T15:02:25.986Z</time></trkpt><trkpt lat="45.81450656962571" lon="9.059176207073294"><ele>351.0</ele><time>2026-05-02T15:02:26.986Z</time></trkpt><trkpt lat="45.81438614879387" lon="9.059277099084703"><ele>357.25</ele><time>2026-05-02T15:02:27.986Z</time></trkpt><trkpt lat="45.81425271893967" lon="9.059366631678083"><ele>363.5</ele><time>2026-05-02T15:02:28.986Z</time></trkpt><trkpt lat="45.81411607502433" lon="9.059455066064311"><ele>369.75</ele><time>2026-05-02T15:02:29.986Z</time></trkpt><trkpt lat="45.81397583639266" lon="9.059536010238237"><ele>376.0</ele><time>2026-05-02T15:02:30.984Z</time></trkpt><trkpt lat="45.81382627832176" lon="9.059608454619909"><ele>376.0</ele><time>2026-05-02T15:02:31.984Z</time></trkpt><trkpt lat="45.81367013163083" lon="9.059664209000626"><ele>376.0</ele><time>2026-05-02T15:02:32.984Z</time></trkpt><trkpt lat="45.8135098577862" lon="9.059712555734695"><ele>376.0</ele><time>2026-05-02T15:02:33.985Z</time></trkpt><trkpt lat="45.81334806929863" lon="9.059749503020775"><ele>380.3333333333333</ele><time>2026-05-02T15:02:34.984Z</time></trkpt><trkpt lat="45.81318080884453" lon="9.059774398999293"><ele>384.66666666666663</ele><time>2026-05-02T15:02:35.984Z</time></trkpt><trkpt lat="45.81301194471136" lon="9.059784497434656"><ele>389.0</ele><time>2026-05-02T15:02:36.985Z</time></trkpt><trkpt lat="45.8128405148523" lon="9.059782918488219"><ele>389.0</ele><time>2026-05-02T15:02:37.984Z</time></trkpt><trkpt lat="45.812669487165046" lon="9.059766615998164"><ele>389.0</ele><time>2026-05-02T15:02:38.984Z</time></trkpt><trkpt lat="45.81249613738671" lon="9.05973833466598"><ele>389.0</ele><time>2026-05-02T15:02:39.984Z</time></trkpt><trkpt lat="45.8123230688917" lon="9.059692709637465"><ele>387.3333333333333</ele><time>2026-05-02T15:02:40.985Z</time></trkpt><trkpt lat="45.812153432564656" lon="9.059629938431845"><ele>385.66666666666663</ele><time>2026-05-02T15:02:41.985Z</time></trkpt><trkpt lat="45.811983052728195" lon="9.059557359981795"><ele>384.0</ele><time>2026-05-02T15:02:42.984Z</time></trkpt><trkpt lat="45.811817228052185" lon="9.059470216961463"><ele>378.3333333333333</ele><time>2026-05-02T15:02:43.984Z</time></trkpt><trkpt lat="45.81165231839443" lon="9.059368426802246"><ele>372.66666666666663</ele><time>2026-05-02T15:02:44.984Z</time></trkpt><trkpt lat="45.811490132496566" lon="9.059252309352452"><ele>367.0</ele><time>2026-05-02T15:02:45.984Z</time></trkpt><trkpt lat="45.81133018983292" lon="9.059129233978892"><ele>375.66666666666663</ele><time>2026-05-02T15:02:46.984Z</time></trkpt><trkpt lat="45.81117635201825" lon="9.058993353616248"><ele>384.3333333333333</ele><time>2026-05-02T15:02:47.984Z</time></trkpt><trkpt lat="45.81101855971914" lon="9.058864730873806"><ele>393.0</ele><time>2026-05-02T15:02:48.984Z</time></trkpt><trkpt lat="45.810865454209186" lon="9.058733993844346"><ele>393.0</ele><time>2026-05-02T15:02:49.984Z</time></trkpt><trkpt lat="45.81070971233528" lon="9.058606032854211"><ele>393.0</ele><time>2026-05-02T15:02:50.984Z</time></trkpt><trkpt lat="45.810554891080095" lon="9.058476247545892"><ele>393.0</ele><time>2026-05-02T15:02:51.984Z</time></trkpt><trkpt lat="45.81040295134264" lon="9.058335854616475"><ele>395.66666666666663</ele><time>2026-05-02T15:02:52.984Z</time></trkpt><trkpt lat="45.81024629284215" lon="9.058192136870037"><ele>398.3333333333333</ele><time>2026-05-02T15:02:53.984Z</time></trkpt><trkpt lat="45.81008998572977" lon="9.058057029396783"><ele>401.0</ele><time>2026-05-02T15:02:54.984Z</time></trkpt><trkpt lat="45.80993304647658" lon="9.057919648080329"><ele>394.3333333333333</ele><time>2026-05-02T15:02:55.984Z</time></trkpt><trkpt lat="45.80977347435227" lon="9.057789317037658"><ele>387.66666666666663</ele><time>2026-05-02T15:02:56.984Z</time></trkpt><trkpt lat="45.809610470681086" lon="9.057660501985994"><ele>381.0</ele><time>2026-05-02T15:02:57.984Z</time></trkpt><trkpt lat="45.80944740564358" lon="9.057529505054912"><ele>375.6666666666667</ele><time>2026-05-02T15:02:58.984Z</time></trkpt><trkpt lat="45.8092851605372" lon="9.05739997616627"><ele>370.33333333333337</ele><time>2026-05-02T15:02:59.984Z</time></trkpt><trkpt lat="45.80911937661615" lon="9.057274266711948"><ele>365.0</ele><time>2026-05-02T15:03:00.984Z</time></trkpt><trkpt lat="45.80894815361903" lon="9.057158117619105"><ele>365.0</ele><time>2026-05-02T15:03:01.984Z</time></trkpt><trkpt lat="45.80877887742325" lon="9.057042995880815"><ele>365.0</ele><time>2026-05-02T15:03:02.984Z</time></trkpt><trkpt lat="45.80860537383769" lon="9.056932906079577"><ele>365.0</ele><time>2026-05-02T15:03:03.984Z</time></trkpt><trkpt lat="45.80843234621678" lon="9.056821760155902"><ele>370.6666666666667</ele><time>2026-05-02T15:03:04.984Z</time></trkpt><trkpt lat="45.80825399002924" lon="9.056715622672936"><ele>376.3333333333333</ele><time>2026-05-02T15:03:05.985Z</time></trkpt><trkpt lat="45.808075059606224" lon="9.056608604470732"><ele>382.0</ele><time>2026-05-02T15:03:06.985Z</time></trkpt><trkpt lat="45.807895630098734" lon="9.056495370759155"><ele>385.3333333333333</ele><time>2026-05-02T15:03:07.985Z</time></trkpt><trkpt lat="45.80771520884709" lon="9.05638312641258"><ele>388.66666666666663</ele><time>2026-05-02T15:03:08.985Z</time></trkpt><trkpt lat="45.807535556894535" lon="9.056272210047748"><ele>392.0</ele><time>2026-05-02T15:03:09.985Z</time></trkpt><trkpt lat="45.807358747420054" lon="9.056162109292064"><ele>387.3333333333333</ele><time>2026-05-02T15:03:10.985Z</time></trkpt><trkpt lat="45.8071844249416" lon="9.05605429970995"><ele>382.66666666666663</ele><time>2026-05-02T15:03:11.985Z</time></trkpt><trkpt lat="45.807009287740726" lon="9.055939966054193"><ele>378.0</ele><time>2026-05-02T15:03:12.985Z</time></trkpt><trkpt lat="45.8050260839706" lon="9.054624351566947"><ele>378.0</ele><time>2026-05-02T15:03:17.067Z</time></trkpt><trkpt lat="45.80453377842131" lon="9.054302985283321"><ele>374.0</ele><time>2026-05-02T15:03:18.069Z</time></trkpt><trkpt lat="45.80404237001383" lon="9.053983030186183"><ele>374.0</ele><time>2026-05-02T15:03:19.069Z</time></trkpt><trkpt lat="45.80355115590608" lon="9.053663465103574"><ele>371.0</ele><time>2026-05-02T15:03:20.069Z</time></trkpt><trkpt lat="45.803060847976106" lon="9.053343411767514"><ele>348.0</ele><time>2026-05-02T15:03:21.068Z</time></trkpt><trkpt lat="45.802390441176556" lon="9.052908590436829"><ele>348.0</ele><time>2026-05-02T15:03:40.985Z</time></trkpt><trkpt lat="45.80220385673987" lon="9.052788142102946"><ele>348.0</ele><time>2026-05-02T15:03:41.985Z</time></trkpt><trkpt lat="45.801896750950874" lon="9.052631723472928"><ele>345.0</ele><time>2026-05-02T15:03:42.985Z</time></trkpt><trkpt lat="45.80172631655496" lon="9.052521799558537"><ele>342.0</ele><time>2026-05-02T15:03:43.985Z</time></trkpt><trkpt lat="45.80153986180267" lon="9.05241144957826"><ele>339.0</ele><time>2026-05-02T15:03:44.985Z</time></trkpt><trkpt lat="45.80135187299282" lon="9.05229487109889"><ele>339.0</ele><time>2026-05-02T15:03:45.985Z</time></trkpt><trkpt lat="45.80116205620432" lon="9.052179481600538"><ele>339.0</ele><time>2026-05-02T15:03:46.985Z</time></trkpt><trkpt lat="45.80097442751099" lon="9.052053832174503"><ele>339.0</ele><time>2026-05-02T15:03:47.985Z</time></trkpt><trkpt lat="45.80078212575993" lon="9.051940677385378"><ele>336.6666666666667</ele><time>2026-05-02T15:03:48.985Z</time></trkpt><trkpt lat="45.80059291226453" lon="9.051819293197717"><ele>334.33333333333337</ele><time>2026-05-02T15:03:49.985Z</time></trkpt><trkpt lat="45.800403330980814" lon="9.051703649383708"><ele>332.0</ele><time>2026-05-02T15:03:50.985Z</time></trkpt><trkpt lat="45.80021609969789" lon="9.051590755865764"><ele>333.33333333333337</ele><time>2026-05-02T15:03:51.985Z</time></trkpt><trkpt lat="45.80002824703662" lon="9.051477688506376"><ele>334.6666666666667</ele><time>2026-05-02T15:03:52.985Z</time></trkpt><trkpt lat="45.79984230709131" lon="9.051364614150481"><ele>336.0</ele><time>2026-05-02T15:03:53.985Z</time></trkpt><trkpt lat="45.799656054949686" lon="9.051247873827881"><ele>336.0</ele><time>2026-05-02T15:03:54.985Z</time></trkpt><trkpt lat="45.79947796027775" lon="9.051135252345965"><ele>336.0</ele><time>2026-05-02T15:03:55.985Z</time></trkpt><trkpt lat="45.799300268240735" lon="9.05102043811349"><ele>336.0</ele><time>2026-05-02T15:03:56.985Z</time></trkpt><trkpt lat="45.79912728779379" lon="9.050909104097475"><ele>334.6666666666667</ele><time>2026-05-02T15:03:57.985Z</time></trkpt><trkpt lat="45.79895568045929" lon="9.050797613393852"><ele>333.33333333333337</ele><time>2026-05-02T15:03:58.985Z</time></trkpt><trkpt lat="45.798781918640806" lon="9.050685555282938"><ele>332.0</ele><time>2026-05-02T15:03:59.985Z</time></trkpt><trkpt lat="45.79860892567167" lon="9.050572476455224"><ele>330.6666666666667</ele><time>2026-05-02T15:04:00.985Z</time></trkpt><trkpt lat="45.798436098272425" lon="9.050461555869589"><ele>329.3333333333333</ele><time>2026-05-02T15:04:01.985Z</time></trkpt><trkpt lat="45.798263890836004" lon="9.050349923705674"><ele>328.0</ele><time>2026-05-02T15:04:02.985Z</time></trkpt><trkpt lat="45.79809773717132" lon="9.050236257901974"><ele>328.0</ele><time>2026-05-02T15:04:03.985Z</time></trkpt><trkpt lat="45.797923945459544" lon="9.050124747806974"><ele>328.0</ele><time>2026-05-02T15:04:04.985Z</time></trkpt><trkpt lat="45.797748243512686" lon="9.050015635737848"><ele>328.0</ele><time>2026-05-02T15:04:05.985Z</time></trkpt><trkpt lat="45.79757091366071" lon="9.049904959185866"><ele>328.0</ele><time>2026-05-02T15:04:06.985Z</time></trkpt><trkpt lat="45.79739212962995" lon="9.049793477527853"><ele>328.0</ele><time>2026-05-02T15:04:07.985Z</time></trkpt><trkpt lat="45.797212755004914" lon="9.0496812989829"><ele>328.0</ele><time>2026-05-02T15:04:08.985Z</time></trkpt><trkpt lat="45.797030042293486" lon="9.049569160483145"><ele>328.0</ele><time>2026-05-02T15:04:09.985Z</time></trkpt><trkpt lat="45.79684669585328" lon="9.04945934908777"><ele>328.0</ele><time>2026-05-02T15:04:10.985Z</time></trkpt><trkpt lat="45.79666130435076" lon="9.04935364043548"><ele>328.0</ele><time>2026-05-02T15:04:11.985Z</time></trkpt><trkpt lat="45.79647447257881" lon="9.049249517254456"><ele>328.3333333333333</ele><time>2026-05-02T15:04:12.985Z</time></trkpt><trkpt lat="45.796283900104406" lon="9.049152004459652"><ele>328.6666666666667</ele><time>2026-05-02T15:04:13.985Z</time></trkpt><trkpt lat="45.796091227023034" lon="9.0490651920477"><ele>329.0</ele><time>2026-05-02T15:04:14.986Z</time></trkpt><trkpt lat="45.795897049723905" lon="9.048975495459686"><ele>329.6666666666667</ele><time>2026-05-02T15:04:15.986Z</time></trkpt><trkpt lat="45.795702269956756" lon="9.048890523605953"><ele>330.3333333333333</ele><time>2026-05-02T15:04:16.986Z</time></trkpt><trkpt lat="45.79550531511826" lon="9.048810735464436"><ele>331.0</ele><time>2026-05-02T15:04:17.986Z</time></trkpt><trkpt lat="45.79531135940746" lon="9.048730392159003"><ele>330.0</ele><time>2026-05-02T15:04:18.986Z</time></trkpt><trkpt lat="45.79511660573969" lon="9.048657625981265"><ele>329.0</ele><time>2026-05-02T15:04:19.986Z</time></trkpt><trkpt lat="45.79491569885321" lon="9.048603843581631"><ele>328.0</ele><time>2026-05-02T15:04:20.986Z</time></trkpt><trkpt lat="45.794714168273096" lon="9.048546957859136"><ele>328.0</ele><time>2026-05-02T15:04:21.986Z</time></trkpt><trkpt lat="45.79451310755637" lon="9.04849378624535"><ele>328.0</ele><time>2026-05-02T15:04:22.986Z</time></trkpt><trkpt lat="45.794309919965336" lon="9.04844216189498"><ele>328.0</ele><time>2026-05-02T15:04:23.986Z</time></trkpt><trkpt lat="45.79410939176852" lon="9.04839092575153"><ele>327.3333333333333</ele><time>2026-05-02T15:04:24.986Z</time></trkpt><trkpt lat="45.79390600726222" lon="9.048345445893771"><ele>326.6666666666667</ele><time>2026-05-02T15:04:25.986Z</time></trkpt><trkpt lat="45.793701408810676" lon="9.048312379723086"><ele>326.0</ele><time>2026-05-02T15:04:26.986Z</time></trkpt><trkpt lat="45.79349720938663" lon="9.048288223769244"><ele>326.0</ele><time>2026-05-02T15:04:27.986Z</time></trkpt><trkpt lat="45.79329019625724" lon="9.048266712175742"><ele>326.0</ele><time>2026-05-02T15:04:28.986Z</time></trkpt><trkpt lat="45.793085525545216" lon="9.048251370990512"><ele>326.0</ele><time>2026-05-02T15:04:29.986Z</time></trkpt><trkpt lat="45.79288015084808" lon="9.048246121023762"><ele>326.0</ele><time>2026-05-02T15:04:30.986Z</time></trkpt><trkpt lat="45.79267484024139" lon="9.048235690402404"><ele>326.0</ele><time>2026-05-02T15:04:31.986Z</time></trkpt><trkpt lat="45.792469630583014" lon="9.048229330692823"><ele>326.0</ele><time>2026-05-02T15:04:32.986Z</time></trkpt><trkpt lat="45.79226695251128" lon="9.04822505720593"><ele>326.33333333333337</ele><time>2026-05-02T15:04:33.986Z</time></trkpt><trkpt lat="45.79206876777493" lon="9.048229874395608"><ele>326.6666666666667</ele><time>2026-05-02T15:04:34.986Z</time></trkpt><trkpt lat="45.79187149890215" lon="9.048242000784679"><ele>327.0</ele><time>2026-05-02T15:04:35.986Z</time></trkpt><trkpt lat="45.79167728660109" lon="9.048256984118872"><ele>327.0</ele><time>2026-05-02T15:04:36.984Z</time></trkpt><trkpt lat="45.791481917287484" lon="9.04828306980648"><ele>327.0</ele><time>2026-05-02T15:04:37.984Z</time></trkpt><trkpt lat="45.791284963853556" lon="9.04831157520719"><ele>327.0</ele><time>2026-05-02T15:04:38.984Z</time></trkpt><trkpt lat="45.79109086474308" lon="9.048350051266434"><ele>329.0</ele><time>2026-05-02T15:04:39.983Z</time></trkpt><trkpt lat="45.79089321108342" lon="9.048392574529561"><ele>331.0</ele><time>2026-05-02T15:04:40.983Z</time></trkpt><trkpt lat="45.790695752113955" lon="9.048441126765873"><ele>333.0</ele><time>2026-05-02T15:04:41.983Z</time></trkpt><trkpt lat="45.79049785422427" lon="9.04848989630226"><ele>333.0</ele><time>2026-05-02T15:04:42.983Z</time></trkpt><trkpt lat="45.79030150241362" lon="9.04854562938437"><ele>333.0</ele><time>2026-05-02T15:04:43.983Z</time></trkpt><trkpt lat="45.79010376127512" lon="9.048606341561726"><ele>333.0</ele><time>2026-05-02T15:04:44.983Z</time></trkpt><trkpt lat="45.78990997451226" lon="9.048668370134072"><ele>331.0</ele><time>2026-05-02T15:04:45.983Z</time></trkpt><trkpt lat="45.78971642722498" lon="9.04873652548584"><ele>329.0</ele><time>2026-05-02T15:04:46.983Z</time></trkpt><trkpt lat="45.7895255446948" lon="9.048807711316774"><ele>327.0</ele><time>2026-05-02T15:04:47.983Z</time></trkpt><trkpt lat="45.78933488608215" lon="9.04888362366617"><ele>328.6666666666667</ele><time>2026-05-02T15:04:48.984Z</time></trkpt><trkpt lat="45.789145722592586" lon="9.048970454952078"><ele>330.33333333333337</ele><time>2026-05-02T15:04:49.983Z</time></trkpt><trkpt lat="45.7889608656223" lon="9.049061607335409"><ele>332.0</ele><time>2026-05-02T15:04:50.983Z</time></trkpt><trkpt lat="45.788775352234985" lon="9.049153043950076"><ele>332.0</ele><time>2026-05-02T15:04:51.983Z</time></trkpt><trkpt lat="45.78859227173909" lon="9.049248301551765"><ele>332.0</ele><time>2026-05-02T15:04:52.983Z</time></trkpt><trkpt lat="45.78841016169074" lon="9.049350797685575"><ele>332.0</ele><time>2026-05-02T15:04:53.983Z</time></trkpt><trkpt lat="45.78822816424752" lon="9.049457008937697"><ele>329.0</ele><time>2026-05-02T15:04:54.983Z</time></trkpt><trkpt lat="45.78804368141886" lon="9.04956089260299"><ele>326.0</ele><time>2026-05-02T15:04:55.983Z</time></trkpt><trkpt lat="45.78785744098464" lon="9.049666276971216"><ele>323.0</ele><time>2026-05-02T15:04:56.983Z</time></trkpt><trkpt lat="45.78767333832642" lon="9.049771048152445"><ele>323.0</ele><time>2026-05-02T15:04:57.983Z</time></trkpt><trkpt lat="45.787487840871215" lon="9.049880087797886"><ele>323.0</ele><time>2026-05-02T15:04:58.983Z</time></trkpt><trkpt lat="45.7873035213209" lon="9.04998507846917"><ele>323.0</ele><time>2026-05-02T15:04:59.983Z</time></trkpt><trkpt lat="45.787119869053" lon="9.05008547914459"><ele>322.33333333333337</ele><time>2026-05-02T15:05:00.983Z</time></trkpt><trkpt lat="45.786939023116545" lon="9.050184584419187"><ele>321.6666666666667</ele><time>2026-05-02T15:05:01.983Z</time></trkpt><trkpt lat="45.78676051707954" lon="9.05028451916477"><ele>321.0</ele><time>2026-05-02T15:05:02.983Z</time></trkpt><trkpt lat="45.78658242422115" lon="9.050383314617877"><ele>319.0</ele><time>2026-05-02T15:05:03.983Z</time></trkpt><trkpt lat="45.78640305237185" lon="9.050483604004151"><ele>317.0</ele><time>2026-05-02T15:05:04.983Z</time></trkpt><trkpt lat="45.78622532736407" lon="9.050579508276174"><ele>315.0</ele><time>2026-05-02T15:05:05.983Z</time></trkpt><trkpt lat="45.78604936074452" lon="9.050667403295257"><ele>315.3333333333333</ele><time>2026-05-02T15:05:06.983Z</time></trkpt><trkpt lat="45.78587470314632" lon="9.050753098617674"><ele>315.66666666666663</ele><time>2026-05-02T15:05:07.983Z</time></trkpt><trkpt lat="45.78570313161654" lon="9.050835092720778"><ele>316.0</ele><time>2026-05-02T15:05:08.983Z</time></trkpt><trkpt lat="45.785534211990225" lon="9.050918736720243"><ele>316.0</ele><time>2026-05-02T15:05:09.983Z</time></trkpt><trkpt lat="45.78536413472884" lon="9.050995685509708"><ele>316.0</ele><time>2026-05-02T15:05:10.983Z</time></trkpt><trkpt lat="45.785194250854154" lon="9.051062209780092"><ele>316.0</ele><time>2026-05-02T15:05:11.983Z</time></trkpt><trkpt lat="45.785026754120814" lon="9.051126883022553"><ele>314.0</ele><time>2026-05-02T15:05:12.984Z</time></trkpt><trkpt lat="45.78486543028569" lon="9.051184412189876"><ele>312.0</ele><time>2026-05-02T15:05:13.984Z</time></trkpt><trkpt lat="45.7847036575504" lon="9.05123948041785"><ele>310.0</ele><time>2026-05-02T15:05:14.984Z</time></trkpt><trkpt lat="45.78454214069729" lon="9.051286396119217"><ele>310.0</ele><time>2026-05-02T15:05:15.984Z</time></trkpt><trkpt lat="45.78438408608132" lon="9.051329209756702"><ele>310.0</ele><time>2026-05-02T15:05:16.984Z</time></trkpt><trkpt lat="45.78423159789895" lon="9.051360757117687"><ele>310.0</ele><time>2026-05-02T15:05:17.984Z</time></trkpt><trkpt lat="45.78408665770293" lon="9.051385820104828"><ele>310.0</ele><time>2026-05-02T15:05:18.984Z</time></trkpt><trkpt lat="45.78395060067786" lon="9.051398389144335"><ele>310.0</ele><time>2026-05-02T15:05:19.984Z</time></trkpt><trkpt lat="45.78381598849566" lon="9.05138927113001"><ele>310.0</ele><time>2026-05-02T15:05:20.984Z</time></trkpt><trkpt lat="45.78368102322375" lon="9.051366625378446"><ele>310.0</ele><time>2026-05-02T15:05:21.984Z</time></trkpt><trkpt lat="45.78354744557302" lon="9.051325129168552"><ele>310.25</ele><time>2026-05-02T15:05:22.984Z</time></trkpt><trkpt lat="45.78341593116711" lon="9.051252082912747"><ele>310.5</ele><time>2026-05-02T15:05:23.984Z</time></trkpt><trkpt lat="45.78329162796614" lon="9.051153834165419"><ele>310.75</ele><time>2026-05-02T15:05:24.984Z</time></trkpt><trkpt lat="45.783169814574904" lon="9.051060487005117"><ele>311.0</ele><time>2026-05-02T15:05:25.984Z</time></trkpt><trkpt lat="45.783056475844596" lon="9.050984849555247"><ele>311.0</ele><time>2026-05-02T15:05:26.984Z</time></trkpt><trkpt lat="45.78294466753967" lon="9.050949658893606"><ele>311.0</ele><time>2026-05-02T15:05:27.984Z</time></trkpt><trkpt lat="45.78282538252181" lon="9.050953700514842"><ele>311.0</ele><time>2026-05-02T15:05:28.984Z</time></trkpt><trkpt lat="45.782710129760645" lon="9.050996809672824"><ele>311.0</ele><time>2026-05-02T15:05:29.984Z</time></trkpt><trkpt lat="45.78260160050816" lon="9.051080498265359"><ele>311.0</ele><time>2026-05-02T15:05:30.984Z</time></trkpt><trkpt lat="45.782517884712256" lon="9.051204963545922"><ele>311.0</ele><time>2026-05-02T15:05:31.984Z</time></trkpt><trkpt lat="45.7824570665821" lon="9.051348758790459"><ele>311.0</ele><time>2026-05-02T15:05:32.984Z</time></trkpt><trkpt lat="45.782425849733656" lon="9.051506564852016"><ele>311.0</ele><time>2026-05-02T15:05:33.984Z</time></trkpt><trkpt lat="45.78242905989407" lon="9.051665201660557"><ele>311.5</ele><time>2026-05-02T15:05:34.984Z</time></trkpt><trkpt lat="45.782454496379366" lon="9.051811705920306"><ele>312.0</ele><time>2026-05-02T15:05:35.984Z</time></trkpt><trkpt lat="45.78250311473457" lon="9.051965661614151"><ele>312.5</ele><time>2026-05-02T15:05:36.984Z</time></trkpt><trkpt lat="45.78256204462281" lon="9.052108385432689"><ele>313.0</ele><time>2026-05-02T15:05:37.984Z</time></trkpt><trkpt lat="45.78264854104179" lon="9.05224311695986"><ele>313.0</ele><time>2026-05-02T15:05:38.984Z</time></trkpt><trkpt lat="45.78274719998538" lon="9.052365300362242"><ele>313.0</ele><time>2026-05-02T15:05:39.984Z</time></trkpt><trkpt lat="45.782855832869096" lon="9.052480971929839"><ele>313.0</ele><time>2026-05-02T15:05:40.984Z</time></trkpt><trkpt lat="45.782965155271924" lon="9.052600930741429"><ele>313.0</ele><time>2026-05-02T15:05:41.984Z</time></trkpt><trkpt lat="45.78307440239994" lon="9.052727831820564"><ele>313.0</ele><time>2026-05-02T15:05:42.984Z</time></trkpt><trkpt lat="45.78317596521149" lon="9.052855024835495"><ele>313.0</ele><time>2026-05-02T15:05:43.984Z</time></trkpt><trkpt lat="45.7832732735305" lon="9.052980188518505"><ele>313.0</ele><time>2026-05-02T15:05:44.984Z</time></trkpt><trkpt lat="45.78334891394218" lon="9.053124893711821"><ele>313.0</ele><time>2026-05-02T15:05:45.984Z</time></trkpt><trkpt lat="45.783440509659364" lon="9.053258566988333"><ele>313.25</ele><time>2026-05-02T15:05:46.984Z</time></trkpt><trkpt lat="45.78352933167071" lon="9.053391428394573"><ele>313.5</ele><time>2026-05-02T15:05:47.984Z</time></trkpt><trkpt lat="45.78361562068323" lon="9.053523127585978"><ele>313.75</ele><time>2026-05-02T15:05:48.984Z</time></trkpt><trkpt lat="45.78369107554174" lon="9.053663321920753"><ele>314.0</ele><time>2026-05-02T15:05:49.984Z</time></trkpt><trkpt lat="45.783762201430974" lon="9.05380148623398"><ele>314.0</ele><time>2026-05-02T15:05:50.984Z</time></trkpt><trkpt lat="45.783809050343685" lon="9.053950736534606"><ele>314.0</ele><time>2026-05-02T15:05:51.984Z</time></trkpt><trkpt lat="45.78383365982119" lon="9.054114006646659"><ele>314.0</ele><time>2026-05-02T15:05:52.984Z</time></trkpt><trkpt lat="45.78386247055842" lon="9.054265168680265"><ele>314.0</ele><time>2026-05-02T15:05:53.984Z</time></trkpt><trkpt lat="45.78388100983803" lon="9.054415620820778"><ele>314.0</ele><time>2026-05-02T15:05:54.984Z</time></trkpt><trkpt lat="45.78389161409585" lon="9.05456406007235"><ele>313.59999999999997</ele><time>2026-05-02T15:05:55.984Z</time></trkpt><trkpt lat="45.783899094879" lon="9.054710753127592"><ele>313.2</ele><time>2026-05-02T15:05:56.984Z</time></trkpt><trkpt lat="45.783917725842116" lon="9.054860724088696"><ele>312.79999999999995</ele><time>2026-05-02T15:05:57.984Z</time></trkpt><trkpt lat="45.783915232160666" lon="9.055013129636869"><ele>312.4</ele><time>2026-05-02T15:05:58.984Z</time></trkpt><trkpt lat="45.7839131807947" lon="9.055172616383537"><ele>312.0</ele><time>2026-05-02T15:05:59.984Z</time></trkpt><trkpt lat="45.78391227135583" lon="9.055333631514562"><ele>311.8</ele><time>2026-05-02T15:06:00.984Z</time></trkpt><trkpt lat="45.7839113967612" lon="9.055494850820237"><ele>311.6</ele><time>2026-05-02T15:06:01.984Z</time></trkpt><trkpt lat="45.78390868246367" lon="9.055640507000847"><ele>311.40000000000003</ele><time>2026-05-02T15:06:02.984Z</time></trkpt><trkpt lat="45.78390645729017" lon="9.055780519070753"><ele>311.2</ele><time>2026-05-02T15:06:03.984Z</time></trkpt><trkpt lat="45.78390951754632" lon="9.055910713866435"><ele>311.0</ele><time>2026-05-02T15:06:04.984Z</time></trkpt><trkpt lat="45.78391510439207" lon="9.056046321381013"><ele>311.0</ele><time>2026-05-02T15:06:05.984Z</time></trkpt><trkpt lat="45.78392542092215" lon="9.056183137070683"><ele>311.0</ele><time>2026-05-02T15:06:06.984Z</time></trkpt><trkpt lat="45.783938835274974" lon="9.05631496774859"><ele>311.0</ele><time>2026-05-02T15:06:07.984Z</time></trkpt><trkpt lat="45.783956688224436" lon="9.056445970105877"><ele>311.0</ele><time>2026-05-02T15:06:08.984Z</time></trkpt><trkpt lat="45.78398326282326" lon="9.056578465159873"><ele>311.0</ele><time>2026-05-02T15:06:09.984Z</time></trkpt><trkpt lat="45.784010337223386" lon="9.056712143296801"><ele>311.33333333333337</ele><time>2026-05-02T15:06:10.984Z</time></trkpt><trkpt lat="45.78403400285718" lon="9.05684615525182"><ele>311.6666666666667</ele><time>2026-05-02T15:06:11.984Z</time></trkpt><trkpt lat="45.78404754746115" lon="9.056977430354184"><ele>312.0</ele><time>2026-05-02T15:06:12.984Z</time></trkpt><trkpt lat="45.78405619836792" lon="9.0570999591435"><ele>312.3333333333333</ele><time>2026-05-02T15:06:13.984Z</time></trkpt><trkpt lat="45.78405431690701" lon="9.05721135364401"><ele>312.66666666666663</ele><time>2026-05-02T15:06:14.984Z</time></trkpt><trkpt lat="45.784052340834336" lon="9.05731539088541"><ele>313.0</ele><time>2026-05-02T15:06:15.984Z</time></trkpt><trkpt lat="45.78404941498245" lon="9.057417695833564"><ele>313.3333333333333</ele><time>2026-05-02T15:06:16.984Z</time></trkpt><trkpt lat="45.78404108019095" lon="9.057517229940059"><ele>313.66666666666663</ele><time>2026-05-02T15:06:17.984Z</time></trkpt><trkpt lat="45.78402949433872" lon="9.05761225040146"><ele>314.0</ele><time>2026-05-02T15:06:18.984Z</time></trkpt><trkpt lat="45.783995640003724" lon="9.05776782608907"><ele>314.3333333333333</ele><time>2026-05-02T15:06:20.984Z</time></trkpt><trkpt lat="45.78396465314688" lon="9.05789632697636"><ele>314.6666666666667</ele><time>2026-05-02T15:06:22.985Z</time></trkpt><trkpt lat="45.78393894051093" lon="9.058012159146765"><ele>315.0</ele><time>2026-05-02T15:06:24.985Z</time></trkpt><trkpt lat="45.78390815463452" lon="9.058120367055958"><ele>315.0</ele><time>2026-05-02T15:06:27.985Z</time></trkpt><trkpt lat="45.78385046182625" lon="9.05822482708115"><ele>315.0</ele><time>2026-05-02T15:06:30.985Z</time></trkpt><trkpt lat="45.78381566079396" lon="9.058331390748071"><ele>315.0</ele><time>2026-05-02T15:06:32.985Z</time></trkpt><trkpt lat="45.783708661745585" lon="9.058415266041239"><ele>315.0</ele><time>2026-05-02T15:06:34.985Z</time></trkpt><trkpt lat="45.7836573507143" lon="9.058485915809204"><ele>315.0</ele><time>2026-05-02T15:06:35.985Z</time></trkpt><trkpt lat="45.78360765930489" lon="9.058563399056105"><ele>315.0</ele><time>2026-05-02T15:06:36.985Z</time></trkpt><trkpt lat="45.78356272447593" lon="9.058644223583164"><ele>314.8333333333333</ele><time>2026-05-02T15:06:37.985Z</time></trkpt><trkpt lat="45.78352518278241" lon="9.058728042364544"><ele>314.6666666666667</ele><time>2026-05-02T15:06:38.985Z</time></trkpt><trkpt lat="45.78349825738021" lon="9.058811589685108"><ele>314.5</ele><time>2026-05-02T15:06:39.985Z</time></trkpt><trkpt lat="45.78348000388886" lon="9.058969850381365"><ele>314.33333333333337</ele><time>2026-05-02T15:06:41.985Z</time></trkpt><trkpt lat="45.78349945614235" lon="9.059143238278535"><ele>314.1666666666667</ele><time>2026-05-02T15:06:43.983Z</time></trkpt><trkpt lat="45.7835240113162" lon="9.059228667775665"><ele>314.0</ele><time>2026-05-02T15:06:44.983Z</time></trkpt><trkpt lat="45.78356219707512" lon="9.05931789996265"><ele>313.6666666666667</ele><time>2026-05-02T15:06:45.983Z</time></trkpt><trkpt lat="45.78361315498132" lon="9.059398262728426"><ele>313.33333333333337</ele><time>2026-05-02T15:06:46.983Z</time></trkpt><trkpt lat="45.783668372277496" lon="9.059480530131113"><ele>313.0</ele><time>2026-05-02T15:06:47.983Z</time></trkpt><trkpt lat="45.7837267118663" lon="9.059572829686006"><ele>312.6666666666667</ele><time>2026-05-02T15:06:48.983Z</time></trkpt><trkpt lat="45.78377810999818" lon="9.059677758270388"><ele>312.3333333333333</ele><time>2026-05-02T15:06:49.983Z</time></trkpt><trkpt lat="45.7838262382791" lon="9.059792245956801"><ele>312.0</ele><time>2026-05-02T15:06:50.983Z</time></trkpt><trkpt lat="45.783865113461054" lon="9.059915107147779"><ele>312.4</ele><time>2026-05-02T15:06:51.983Z</time></trkpt><trkpt lat="45.783890320666046" lon="9.060054159636337"><ele>312.79999999999995</ele><time>2026-05-02T15:06:52.983Z</time></trkpt><trkpt lat="45.78390137545504" lon="9.060200943213232"><ele>313.2</ele><time>2026-05-02T15:06:53.983Z</time></trkpt><trkpt lat="45.78390556209111" lon="9.060354205490615"><ele>313.59999999999997</ele><time>2026-05-02T15:06:54.983Z</time></trkpt><trkpt lat="45.78390775257507" lon="9.060508637072541"><ele>314.0</ele><time>2026-05-02T15:06:55.983Z</time></trkpt><trkpt lat="45.78390891042253" lon="9.060663859542673"><ele>314.2</ele><time>2026-05-02T15:06:56.983Z</time></trkpt><trkpt lat="45.78390734140623" lon="9.060817905585427"><ele>314.4</ele><time>2026-05-02T15:06:57.983Z</time></trkpt><trkpt lat="45.78390588526513" lon="9.060971934295207"><ele>314.6</ele><time>2026-05-02T15:06:58.983Z</time></trkpt><trkpt lat="45.78390253683724" lon="9.061126964106476"><ele>314.8</ele><time>2026-05-02T15:06:59.983Z</time></trkpt><trkpt lat="45.78390191483193" lon="9.06128335940592"><ele>315.0</ele><time>2026-05-02T15:07:00.983Z</time></trkpt><trkpt lat="45.783903584386536" lon="9.061442554870093"><ele>315.0</ele><time>2026-05-02T15:07:01.983Z</time></trkpt><trkpt lat="45.78390222094824" lon="9.061609819626996"><ele>315.0</ele><time>2026-05-02T15:07:02.983Z</time></trkpt><trkpt lat="45.7839032235725" lon="9.061785165791504"><ele>315.0</ele><time>2026-05-02T15:07:03.983Z</time></trkpt><trkpt lat="45.783908425661494" lon="9.061958381126788"><ele>315.0</ele><time>2026-05-02T15:07:04.983Z</time></trkpt><trkpt lat="45.78391085240648" lon="9.062136772576252"><ele>314.8</ele><time>2026-05-02T15:07:05.983Z</time></trkpt><trkpt lat="45.78391401991116" lon="9.06230935690458"><ele>314.6</ele><time>2026-05-02T15:07:06.983Z</time></trkpt><trkpt lat="45.7838948685833" lon="9.062475164682192"><ele>314.4</ele><time>2026-05-02T15:07:07.983Z</time></trkpt><trkpt lat="45.7838918878524" lon="9.06262072494335"><ele>314.2</ele><time>2026-05-02T15:07:08.983Z</time></trkpt><trkpt lat="45.78389036860131" lon="9.062753968000102"><ele>314.0</ele><time>2026-05-02T15:07:09.983Z</time></trkpt><trkpt lat="45.78388910059501" lon="9.062868282492236"><ele>313.99999999999994</ele><time>2026-05-02T15:07:10.983Z</time></trkpt><trkpt lat="45.78388905068058" lon="9.062973641490773"><ele>314.0</ele><time>2026-05-02T15:07:11.983Z</time></trkpt><trkpt lat="45.78389087207978" lon="9.06307617743895"><ele>314.0</ele><time>2026-05-02T15:07:12.983Z</time></trkpt><trkpt lat="45.78389378916591" lon="9.063172175677524"><ele>314.0</ele><time>2026-05-02T15:07:13.983Z</time></trkpt><trkpt lat="45.783897647040796" lon="9.063269074659853"><ele>314.0</ele><time>2026-05-02T15:07:14.983Z</time></trkpt><trkpt lat="45.78390493103306" lon="9.06337071621927"><ele>313.99999999999994</ele><time>2026-05-02T15:07:15.983Z</time></trkpt><trkpt lat="45.78391044805082" lon="9.063462497360748"><ele>314.0</ele><time>2026-05-02T15:07:16.983Z</time></trkpt><trkpt lat="45.78392025105669" lon="9.063619674260453"><ele>312.59999999999997</ele><time>2026-05-02T15:07:18.983Z</time></trkpt><trkpt lat="45.78392117895853" lon="9.06375318862051"><ele>311.2</ele><time>2026-05-02T15:07:20.983Z</time></trkpt><trkpt lat="45.783900102158874" lon="9.063899653417723"><ele>309.79999999999995</ele><time>2026-05-02T15:07:22.983Z</time></trkpt><trkpt lat="45.78389384352261" lon="9.064083542512916"><ele>308.4</ele><time>2026-05-02T15:07:24.984Z</time></trkpt><trkpt lat="45.78392963745061" lon="9.06417621094946"><ele>307.0</ele><time>2026-05-02T15:07:25.984Z</time></trkpt><trkpt lat="45.783940953231" lon="9.06428699963711"><ele>307.0</ele><time>2026-05-02T15:07:26.984Z</time></trkpt><trkpt lat="45.783941910403776" lon="9.064400176535742"><ele>307.0</ele><time>2026-05-02T15:07:27.984Z</time></trkpt><trkpt lat="45.783914283420394" lon="9.064526654637335"><ele>307.0</ele><time>2026-05-02T15:07:28.984Z</time></trkpt><trkpt lat="45.78391150834526" lon="9.064658389075447"><ele>307.0</ele><time>2026-05-02T15:07:29.984Z</time></trkpt><trkpt lat="45.783924718591805" lon="9.064793646665224"><ele>307.0</ele><time>2026-05-02T15:07:30.984Z</time></trkpt><trkpt lat="45.78391988495217" lon="9.06492560067568"><ele>306.66666666666663</ele><time>2026-05-02T15:07:31.984Z</time></trkpt><trkpt lat="45.78391863679986" lon="9.065056222590893"><ele>306.3333333333333</ele><time>2026-05-02T15:07:32.984Z</time></trkpt><trkpt lat="45.783898396730095" lon="9.065186150258521"><ele>306.0</ele><time>2026-05-02T15:07:33.984Z</time></trkpt><trkpt lat="45.78389775157352" lon="9.065311516883185"><ele>305.6666666666667</ele><time>2026-05-02T15:07:34.984Z</time></trkpt><trkpt lat="45.783897069693474" lon="9.065431423989343"><ele>305.33333333333337</ele><time>2026-05-02T15:07:35.984Z</time></trkpt><trkpt lat="45.783897700919525" lon="9.065535938036481"><ele>305.0</ele><time>2026-05-02T15:07:36.984Z</time></trkpt><trkpt lat="45.78390267932529" lon="9.065701958288043"><ele>304.6</ele><time>2026-05-02T15:07:38.984Z</time></trkpt><trkpt lat="45.7838868094813" lon="9.065846827880184"><ele>304.2</ele><time>2026-05-02T15:07:40.984Z</time></trkpt><trkpt lat="45.783886787832415" lon="9.065974991280095"><ele>303.8</ele><time>2026-05-02T15:07:42.984Z</time></trkpt><trkpt lat="45.783888602371576" lon="9.066147644630869"><ele>303.4</ele><time>2026-05-02T15:07:44.984Z</time></trkpt><trkpt lat="45.78388875773713" lon="9.066249550941626"><ele>303.0</ele><time>2026-05-02T15:07:45.984Z</time></trkpt><trkpt lat="45.78388892247384" lon="9.066357603515849"><ele>303.0</ele><time>2026-05-02T15:07:46.984Z</time></trkpt><trkpt lat="45.78388891232805" lon="9.066468079529288"><ele>303.0</ele><time>2026-05-02T15:07:47.984Z</time></trkpt><trkpt lat="45.78388891232483" lon="9.06659216585175"><ele>303.0</ele><time>2026-05-02T15:07:48.984Z</time></trkpt><trkpt lat="45.78387652937234" lon="9.066731798395672"><ele>303.0</ele><time>2026-05-02T15:07:49.984Z</time></trkpt><trkpt lat="45.78389339785989" lon="9.066885011154428"><ele>303.0</ele><time>2026-05-02T15:07:50.984Z</time></trkpt><trkpt lat="45.78390408020999" lon="9.067036288808524"><ele>302.0</ele><time>2026-05-02T15:07:51.984Z</time></trkpt><trkpt lat="45.78391239675786" lon="9.067187293170516"><ele>301.0</ele><time>2026-05-02T15:07:52.984Z</time></trkpt><trkpt lat="45.78391521915274" lon="9.067344172107461"><ele>300.0</ele><time>2026-05-02T15:07:53.984Z</time></trkpt><trkpt lat="45.7839006369684" lon="9.067500658424153"><ele>299.0</ele><time>2026-05-02T15:07:54.984Z</time></trkpt><trkpt lat="45.78389963041771" lon="9.067645814871996"><ele>298.0</ele><time>2026-05-02T15:07:55.984Z</time></trkpt><trkpt lat="45.78390017377844" lon="9.067782118643889"><ele>297.6</ele><time>2026-05-02T15:07:56.984Z</time></trkpt><trkpt lat="45.7839005528335" lon="9.067917925729233"><ele>297.20000000000005</ele><time>2026-05-02T15:07:57.984Z</time></trkpt><trkpt lat="45.78390336028445" lon="9.068061052030597"><ele>296.8</ele><time>2026-05-02T15:07:58.984Z</time></trkpt><trkpt lat="45.783906197472824" lon="9.068212505611061"><ele>296.40000000000003</ele><time>2026-05-02T15:07:59.984Z</time></trkpt><trkpt lat="45.78390487102672" lon="9.068364737842073"><ele>296.0</ele><time>2026-05-02T15:08:00.984Z</time></trkpt><trkpt lat="45.783902708842014" lon="9.068518606799753"><ele>296.0</ele><time>2026-05-02T15:08:01.984Z</time></trkpt><trkpt lat="45.78389886652498" lon="9.068662320670986"><ele>296.0</ele><time>2026-05-02T15:08:02.984Z</time></trkpt><trkpt lat="45.7838950695981" lon="9.06880472651224"><ele>296.0</ele><time>2026-05-02T15:08:03.984Z</time></trkpt><trkpt lat="45.78388986731474" lon="9.068945462647894"><ele>296.0</ele><time>2026-05-02T15:08:04.984Z</time></trkpt><trkpt lat="45.783888211159685" lon="9.069087680480688"><ele>296.0</ele><time>2026-05-02T15:08:05.984Z</time></trkpt><trkpt lat="45.783888188290675" lon="9.069240636723233"><ele>295.6</ele><time>2026-05-02T15:08:06.984Z</time></trkpt><trkpt lat="45.78388502337995" lon="9.069392308588538"><ele>295.20000000000005</ele><time>2026-05-02T15:08:07.984Z</time></trkpt><trkpt lat="45.78387894549599" lon="9.06953551428384"><ele>294.79999999999995</ele><time>2026-05-02T15:08:08.984Z</time></trkpt><trkpt lat="45.78387695657684" lon="9.06965836751194"><ele>294.4</ele><time>2026-05-02T15:08:09.984Z</time></trkpt><trkpt lat="45.783873235988004" lon="9.069760352463605"><ele>294.0</ele><time>2026-05-02T15:08:10.984Z</time></trkpt><trkpt lat="45.783877308976265" lon="9.069886297913826"><ele>294.0</ele><time>2026-05-02T15:08:12.984Z</time></trkpt><trkpt lat="45.78387467761063" lon="9.069988227748672"><ele>294.0</ele><time>2026-05-02T15:08:15.984Z</time></trkpt><trkpt lat="45.78382365265652" lon="9.070074797080412"><ele>294.0</ele><time>2026-05-02T15:08:22.984Z</time></trkpt><trkpt lat="45.783725487373815" lon="9.070072471822106"><ele>294.0</ele><time>2026-05-02T15:08:24.984Z</time></trkpt><trkpt lat="45.78361376604086" lon="9.069950671510622"><ele>294.0</ele><time>2026-05-02T15:08:26.984Z</time></trkpt><trkpt lat="45.78355219563757" lon="9.069859538887833"><ele>293.8</ele><time>2026-05-02T15:08:27.984Z</time></trkpt><trkpt lat="45.78348511789853" lon="9.069771253725207"><ele>293.59999999999997</ele><time>2026-05-02T15:08:28.984Z</time></trkpt><trkpt lat="45.783416771509174" lon="9.069688149502051"><ele>293.4</ele><time>2026-05-02T15:08:29.984Z</time></trkpt><trkpt lat="45.783336050655265" lon="9.069608706355787"><ele>293.2</ele><time>2026-05-02T15:08:30.984Z</time></trkpt><trkpt lat="45.783254049462634" lon="9.069524723868714"><ele>293.0</ele><time>2026-05-02T15:08:31.984Z</time></trkpt><trkpt lat="45.783170124473976" lon="9.06944953764029"><ele>293.0</ele><time>2026-05-02T15:08:32.985Z</time></trkpt><trkpt lat="45.783089141134354" lon="9.069382550810403"><ele>293.0</ele><time>2026-05-02T15:08:33.985Z</time></trkpt><trkpt lat="45.78302521039644" lon="9.069329032191742"><ele>293.0</ele><time>2026-05-02T15:08:34.985Z</time></trkpt><trkpt lat="45.78297121598318" lon="9.069264559582034"><ele>293.0</ele><time>2026-05-02T15:08:35.985Z</time></trkpt><trkpt lat="45.782917151626236" lon="9.069211524502062"><ele>293.0</ele><time>2026-05-02T15:08:36.985Z</time></trkpt><trkpt lat="45.782858146189575" lon="9.06916929314181"><ele>293.0</ele><time>2026-05-02T15:08:37.985Z</time></trkpt><trkpt lat="45.782770956701036" lon="9.069100871904617"><ele>294.0</ele><time>2026-05-02T15:08:39.985Z</time></trkpt><trkpt lat="45.78268402546732" lon="9.069042847596831"><ele>294.0</ele><time>2026-05-02T15:08:42.985Z</time></trkpt></trkseg></trk></gpx>